<?xml version="1.0" encoding="UTF-8" standalone="no" ?>
<gpx xmlns="http://www.topografix.com/GPX/1/1" xmlns:xsi="http://www.w3.org/2001/XMLSchema-instance" xsi:schemaLocation="http://www.topografix.com/GPX/1/1 http://www.topografix.com/GPX/1/1/gpx.xsd" version="1.1" creator="VisuGPX - https://www.visugpx.com">
  <metadata>
    <name>Trip 2021-10-17</name>
    <desc><![CDATA[Belle trace dans le bocage, la rando d'Olivier.]]></desc>
  </metadata>
  <trk>
    <name><![CDATA[Trip 2021-10-17]]></name>
    <trkseg>
      <trkpt lat="43.12488" lon="1.17453">
        <ele>300.32998657</ele>
        <time>2021-10-17T06:46:08Z</time>
      </trkpt>
      <trkpt lat="43.12491" lon="1.17448">
        <ele>300.3999939</ele>
        <time>2021-10-17T06:46:09Z</time>
      </trkpt>
      <trkpt lat="43.12489" lon="1.17444">
        <ele>300.3999939</ele>
        <time>2021-10-17T06:46:10Z</time>
      </trkpt>
      <trkpt lat="43.1249" lon="1.17439">
        <ele>300.47998047</ele>
        <time>2021-10-17T06:46:11Z</time>
      </trkpt>
      <trkpt lat="43.12488" lon="1.17436">
        <ele>300.52996826</ele>
        <time>2021-10-17T06:46:12Z</time>
      </trkpt>
      <trkpt lat="43.12487" lon="1.17436">
        <ele>300.52996826</ele>
        <time>2021-10-17T06:46:13Z</time>
      </trkpt>
      <trkpt lat="43.12486" lon="1.17437">
        <ele>300.59997559</ele>
        <time>2021-10-17T06:46:14Z</time>
      </trkpt>
      <trkpt lat="43.12484" lon="1.17438">
        <ele>300.70996094</ele>
        <time>2021-10-17T06:46:15Z</time>
      </trkpt>
      <trkpt lat="43.12483" lon="1.17439">
        <ele>300.80996704</ele>
        <time>2021-10-17T06:46:16Z</time>
      </trkpt>
      <trkpt lat="43.12482" lon="1.17438">
        <ele>300.97998047</ele>
        <time>2021-10-17T06:46:17Z</time>
      </trkpt>
      <trkpt lat="43.12481" lon="1.17437">
        <ele>301.13998413</ele>
        <time>2021-10-17T06:46:18Z</time>
      </trkpt>
      <trkpt lat="43.1248" lon="1.17435">
        <ele>301.22998047</ele>
        <time>2021-10-17T06:46:19Z</time>
      </trkpt>
      <trkpt lat="43.12479" lon="1.17435">
        <ele>301.31997681</ele>
        <time>2021-10-17T06:46:20Z</time>
      </trkpt>
      <trkpt lat="43.12479" lon="1.17435">
        <ele>301.38998413</ele>
        <time>2021-10-17T06:46:21Z</time>
      </trkpt>
      <trkpt lat="43.12478" lon="1.17434">
        <ele>301.40997314</ele>
        <time>2021-10-17T06:46:22Z</time>
      </trkpt>
      <trkpt lat="43.12477" lon="1.17433">
        <ele>301.3699646</ele>
        <time>2021-10-17T06:46:23Z</time>
      </trkpt>
      <trkpt lat="43.12475" lon="1.17433">
        <ele>301.3699646</ele>
        <time>2021-10-17T06:46:24Z</time>
      </trkpt>
      <trkpt lat="43.12473" lon="1.17432">
        <ele>301.31997681</ele>
        <time>2021-10-17T06:46:25Z</time>
      </trkpt>
      <trkpt lat="43.12472" lon="1.17431">
        <ele>301.81997681</ele>
        <time>2021-10-17T06:46:26Z</time>
      </trkpt>
      <trkpt lat="43.1247" lon="1.1743">
        <ele>301.83996582</ele>
        <time>2021-10-17T06:46:27Z</time>
      </trkpt>
      <trkpt lat="43.12467" lon="1.17429">
        <ele>301.85995483</ele>
        <time>2021-10-17T06:46:28Z</time>
      </trkpt>
      <trkpt lat="43.12465" lon="1.17429">
        <ele>301.87994385</ele>
        <time>2021-10-17T06:46:29Z</time>
      </trkpt>
      <trkpt lat="43.12464" lon="1.17429">
        <ele>301.91995239</ele>
        <time>2021-10-17T06:46:30Z</time>
      </trkpt>
      <trkpt lat="43.12462" lon="1.17428">
        <ele>302.2699585</ele>
        <time>2021-10-17T06:46:31Z</time>
      </trkpt>
      <trkpt lat="43.12462" lon="1.17427">
        <ele>302.38995361</ele>
        <time>2021-10-17T06:46:32Z</time>
      </trkpt>
      <trkpt lat="43.12463" lon="1.17425">
        <ele>302.55996704</ele>
        <time>2021-10-17T06:46:33Z</time>
      </trkpt>
      <trkpt lat="43.12465" lon="1.17425">
        <ele>302.69998169</ele>
        <time>2021-10-17T06:46:34Z</time>
      </trkpt>
      <trkpt lat="43.12466" lon="1.17425">
        <ele>302.72998047</ele>
        <time>2021-10-17T06:46:35Z</time>
      </trkpt>
      <trkpt lat="43.12467" lon="1.17425">
        <ele>302.62997437</ele>
        <time>2021-10-17T06:46:36Z</time>
      </trkpt>
      <trkpt lat="43.12468" lon="1.17425">
        <ele>302.49996948</ele>
        <time>2021-10-17T06:46:37Z</time>
      </trkpt>
      <trkpt lat="43.12469" lon="1.17426">
        <ele>302.24996948</ele>
        <time>2021-10-17T06:46:38Z</time>
      </trkpt>
      <trkpt lat="43.12471" lon="1.17427">
        <ele>302.24996948</ele>
        <time>2021-10-17T06:46:39Z</time>
      </trkpt>
      <trkpt lat="43.12473" lon="1.17428">
        <ele>302.15997314</ele>
        <time>2021-10-17T06:46:40Z</time>
      </trkpt>
      <trkpt lat="43.12474" lon="1.17428">
        <ele>302.08996582</ele>
        <time>2021-10-17T06:46:41Z</time>
      </trkpt>
      <trkpt lat="43.12475" lon="1.17431">
        <ele>302.06997681</ele>
        <time>2021-10-17T06:46:42Z</time>
      </trkpt>
      <trkpt lat="43.12475" lon="1.17433">
        <ele>302.06997681</ele>
        <time>2021-10-17T06:46:43Z</time>
      </trkpt>
      <trkpt lat="43.12475" lon="1.17436">
        <ele>302.06997681</ele>
        <time>2021-10-17T06:46:44Z</time>
      </trkpt>
      <trkpt lat="43.12475" lon="1.17437">
        <ele>302.1199646</ele>
        <time>2021-10-17T06:46:45Z</time>
      </trkpt>
      <trkpt lat="43.12474" lon="1.17439">
        <ele>302.00997925</ele>
        <time>2021-10-17T06:46:46Z</time>
      </trkpt>
      <trkpt lat="43.12472" lon="1.1744">
        <ele>302.09997559</ele>
        <time>2021-10-17T06:46:47Z</time>
      </trkpt>
      <trkpt lat="43.12471" lon="1.17443">
        <ele>301.95996094</ele>
        <time>2021-10-17T06:46:48Z</time>
      </trkpt>
      <trkpt lat="43.1247" lon="1.17445">
        <ele>301.59997559</ele>
        <time>2021-10-17T06:46:49Z</time>
      </trkpt>
      <trkpt lat="43.12469" lon="1.17448">
        <ele>301.28997803</ele>
        <time>2021-10-17T06:46:50Z</time>
      </trkpt>
      <trkpt lat="43.1247" lon="1.1745">
        <ele>300.99996948</ele>
        <time>2021-10-17T06:46:51Z</time>
      </trkpt>
      <trkpt lat="43.1247" lon="1.17451">
        <ele>300.90997314</ele>
        <time>2021-10-17T06:46:52Z</time>
      </trkpt>
      <trkpt lat="43.1247" lon="1.17453">
        <ele>300.93997192</ele>
        <time>2021-10-17T06:46:53Z</time>
      </trkpt>
      <trkpt lat="43.1247" lon="1.17456">
        <ele>300.92996216</ele>
        <time>2021-10-17T06:46:54Z</time>
      </trkpt>
      <trkpt lat="43.1247" lon="1.1746">
        <ele>300.92996216</ele>
        <time>2021-10-17T06:46:55Z</time>
      </trkpt>
      <trkpt lat="43.1247" lon="1.17463">
        <ele>300.85995483</ele>
        <time>2021-10-17T06:46:56Z</time>
      </trkpt>
      <trkpt lat="43.12468" lon="1.17464">
        <ele>300.73995972</ele>
        <time>2021-10-17T06:46:57Z</time>
      </trkpt>
      <trkpt lat="43.12467" lon="1.17462">
        <ele>300.62997437</ele>
        <time>2021-10-17T06:46:58Z</time>
      </trkpt>
      <trkpt lat="43.12468" lon="1.17461">
        <ele>300.58996582</ele>
        <time>2021-10-17T06:46:59Z</time>
      </trkpt>
      <trkpt lat="43.12469" lon="1.1746">
        <ele>300.69995117</ele>
        <time>2021-10-17T06:47:00Z</time>
      </trkpt>
      <trkpt lat="43.12469" lon="1.17459">
        <ele>300.83996582</ele>
        <time>2021-10-17T06:47:01Z</time>
      </trkpt>
      <trkpt lat="43.1247" lon="1.17458">
        <ele>300.97998047</ele>
        <time>2021-10-17T06:47:02Z</time>
      </trkpt>
      <trkpt lat="43.1247" lon="1.17456">
        <ele>300.98999023</ele>
        <time>2021-10-17T06:47:03Z</time>
      </trkpt>
      <trkpt lat="43.1247" lon="1.17455">
        <ele>301.00997925</ele>
        <time>2021-10-17T06:47:04Z</time>
      </trkpt>
      <trkpt lat="43.12469" lon="1.17455">
        <ele>301.05996704</ele>
        <time>2021-10-17T06:47:05Z</time>
      </trkpt>
      <trkpt lat="43.12469" lon="1.17455">
        <ele>301.08996582</ele>
        <time>2021-10-17T06:47:06Z</time>
      </trkpt>
      <trkpt lat="43.12472" lon="1.17454">
        <ele>301.30996704</ele>
        <time>2021-10-17T06:47:21Z</time>
      </trkpt>
      <trkpt lat="43.12473" lon="1.17454">
        <ele>301.37997437</ele>
        <time>2021-10-17T06:47:22Z</time>
      </trkpt>
      <trkpt lat="43.12473" lon="1.17454">
        <ele>301.43997192</ele>
        <time>2021-10-17T06:47:23Z</time>
      </trkpt>
      <trkpt lat="43.12475" lon="1.17453">
        <ele>300.63998413</ele>
        <time>2021-10-17T06:52:41Z</time>
      </trkpt>
      <trkpt lat="43.12477" lon="1.17453">
        <ele>300.63998413</ele>
        <time>2021-10-17T06:52:42Z</time>
      </trkpt>
      <trkpt lat="43.12478" lon="1.17453">
        <ele>300.58999634</ele>
        <time>2021-10-17T06:52:43Z</time>
      </trkpt>
      <trkpt lat="43.12478" lon="1.17453">
        <ele>300.54000854</ele>
        <time>2021-10-17T06:52:44Z</time>
      </trkpt>
      <trkpt lat="43.12478" lon="1.17453">
        <ele>300.54000854</ele>
        <time>2021-10-17T06:52:45Z</time>
      </trkpt>
      <trkpt lat="43.12478" lon="1.17453">
        <ele>300.51000977</ele>
        <time>2021-10-17T06:52:46Z</time>
      </trkpt>
      <trkpt lat="43.12482" lon="1.17453">
        <ele>300.75</ele>
        <time>2021-10-17T06:55:03Z</time>
      </trkpt>
      <trkpt lat="43.12481" lon="1.17454">
        <ele>300.66000366</ele>
        <time>2021-10-17T06:55:04Z</time>
      </trkpt>
      <trkpt lat="43.12481" lon="1.17455">
        <ele>300.55001831</ele>
        <time>2021-10-17T06:55:05Z</time>
      </trkpt>
      <trkpt lat="43.1248" lon="1.17456">
        <ele>300.51000977</ele>
        <time>2021-10-17T06:55:06Z</time>
      </trkpt>
      <trkpt lat="43.12479" lon="1.17457">
        <ele>300.44000244</ele>
        <time>2021-10-17T06:55:07Z</time>
      </trkpt>
      <trkpt lat="43.12479" lon="1.17458">
        <ele>300.36999512</ele>
        <time>2021-10-17T06:55:08Z</time>
      </trkpt>
      <trkpt lat="43.12479" lon="1.17458">
        <ele>300.32998657</ele>
        <time>2021-10-17T06:55:09Z</time>
      </trkpt>
      <trkpt lat="43.12479" lon="1.17458">
        <ele>300.32998657</ele>
        <time>2021-10-17T06:55:10Z</time>
      </trkpt>
      <trkpt lat="43.12475" lon="1.17463">
        <ele>300.47998047</ele>
        <time>2021-10-17T06:55:23Z</time>
      </trkpt>
      <trkpt lat="43.12474" lon="1.17464">
        <ele>300.4699707</ele>
        <time>2021-10-17T06:55:24Z</time>
      </trkpt>
      <trkpt lat="43.12473" lon="1.17465">
        <ele>300.44998169</ele>
        <time>2021-10-17T06:55:25Z</time>
      </trkpt>
      <trkpt lat="43.12473" lon="1.17465">
        <ele>300.44998169</ele>
        <time>2021-10-17T06:55:26Z</time>
      </trkpt>
      <trkpt lat="43.12472" lon="1.17464">
        <ele>300.44998169</ele>
        <time>2021-10-17T06:55:27Z</time>
      </trkpt>
      <trkpt lat="43.12471" lon="1.17461">
        <ele>300.44998169</ele>
        <time>2021-10-17T06:55:28Z</time>
      </trkpt>
      <trkpt lat="43.12471" lon="1.17459">
        <ele>300.40997314</ele>
        <time>2021-10-17T06:55:29Z</time>
      </trkpt>
      <trkpt lat="43.12471" lon="1.17458">
        <ele>300.37997437</ele>
        <time>2021-10-17T06:55:30Z</time>
      </trkpt>
      <trkpt lat="43.12472" lon="1.17456">
        <ele>300.35998535</ele>
        <time>2021-10-17T06:55:31Z</time>
      </trkpt>
      <trkpt lat="43.12472" lon="1.17454">
        <ele>300.30999756</ele>
        <time>2021-10-17T06:55:32Z</time>
      </trkpt>
      <trkpt lat="43.12473" lon="1.17453">
        <ele>300.32998657</ele>
        <time>2021-10-17T06:55:33Z</time>
      </trkpt>
      <trkpt lat="43.12473" lon="1.17453">
        <ele>300.34997559</ele>
        <time>2021-10-17T06:55:34Z</time>
      </trkpt>
      <trkpt lat="43.12474" lon="1.17453">
        <ele>300.34997559</ele>
        <time>2021-10-17T06:55:35Z</time>
      </trkpt>
      <trkpt lat="43.12474" lon="1.17453">
        <ele>300.35998535</ele>
        <time>2021-10-17T06:55:36Z</time>
      </trkpt>
      <trkpt lat="43.12474" lon="1.17453">
        <ele>300.6499939</ele>
        <time>2021-10-17T06:55:58Z</time>
      </trkpt>
      <trkpt lat="43.12475" lon="1.17453">
        <ele>300.69000244</ele>
        <time>2021-10-17T06:55:59Z</time>
      </trkpt>
      <trkpt lat="43.12476" lon="1.17452">
        <ele>300.75</ele>
        <time>2021-10-17T06:56:00Z</time>
      </trkpt>
      <trkpt lat="43.12477" lon="1.17452">
        <ele>300.76000977</ele>
        <time>2021-10-17T06:56:01Z</time>
      </trkpt>
      <trkpt lat="43.12477" lon="1.17452">
        <ele>300.82000732</ele>
        <time>2021-10-17T06:56:02Z</time>
      </trkpt>
      <trkpt lat="43.12478" lon="1.17452">
        <ele>300.86001587</ele>
        <time>2021-10-17T06:56:03Z</time>
      </trkpt>
      <trkpt lat="43.12479" lon="1.17453">
        <ele>300.86001587</ele>
        <time>2021-10-17T06:56:04Z</time>
      </trkpt>
      <trkpt lat="43.12479" lon="1.17453">
        <ele>300.86001587</ele>
        <time>2021-10-17T06:56:05Z</time>
      </trkpt>
      <trkpt lat="43.1248" lon="1.17454">
        <ele>300.8500061</ele>
        <time>2021-10-17T06:56:06Z</time>
      </trkpt>
      <trkpt lat="43.12481" lon="1.17454">
        <ele>300.82000732</ele>
        <time>2021-10-17T06:56:07Z</time>
      </trkpt>
      <trkpt lat="43.12482" lon="1.17455">
        <ele>300.83001709</ele>
        <time>2021-10-17T06:56:08Z</time>
      </trkpt>
      <trkpt lat="43.12485" lon="1.17455">
        <ele>300.83001709</ele>
        <time>2021-10-17T06:56:09Z</time>
      </trkpt>
      <trkpt lat="43.12486" lon="1.17455">
        <ele>300.83001709</ele>
        <time>2021-10-17T06:56:10Z</time>
      </trkpt>
      <trkpt lat="43.12487" lon="1.17455">
        <ele>300.90002441</ele>
        <time>2021-10-17T06:56:11Z</time>
      </trkpt>
      <trkpt lat="43.12489" lon="1.17452">
        <ele>300.90002441</ele>
        <time>2021-10-17T06:56:12Z</time>
      </trkpt>
      <trkpt lat="43.1249" lon="1.17448">
        <ele>300.91003418</ele>
        <time>2021-10-17T06:56:13Z</time>
      </trkpt>
      <trkpt lat="43.12489" lon="1.17445">
        <ele>300.8800354</ele>
        <time>2021-10-17T06:56:14Z</time>
      </trkpt>
      <trkpt lat="43.12488" lon="1.17443">
        <ele>300.83004761</ele>
        <time>2021-10-17T06:56:15Z</time>
      </trkpt>
      <trkpt lat="43.12486" lon="1.17441">
        <ele>300.82003784</ele>
        <time>2021-10-17T06:56:16Z</time>
      </trkpt>
      <trkpt lat="43.12485" lon="1.1744">
        <ele>300.81002808</ele>
        <time>2021-10-17T06:56:17Z</time>
      </trkpt>
      <trkpt lat="43.12482" lon="1.17438">
        <ele>300.80001831</ele>
        <time>2021-10-17T06:56:18Z</time>
      </trkpt>
      <trkpt lat="43.1248" lon="1.17436">
        <ele>300.77001953</ele>
        <time>2021-10-17T06:56:19Z</time>
      </trkpt>
      <trkpt lat="43.12479" lon="1.17434">
        <ele>300.79000854</ele>
        <time>2021-10-17T06:56:20Z</time>
      </trkpt>
      <trkpt lat="43.12477" lon="1.17433">
        <ele>300.8500061</ele>
        <time>2021-10-17T06:56:21Z</time>
      </trkpt>
      <trkpt lat="43.12474" lon="1.1743">
        <ele>300.92001343</ele>
        <time>2021-10-17T06:56:22Z</time>
      </trkpt>
      <trkpt lat="43.12472" lon="1.17429">
        <ele>300.97000122</ele>
        <time>2021-10-17T06:56:23Z</time>
      </trkpt>
      <trkpt lat="43.1247" lon="1.17428">
        <ele>301.04998779</ele>
        <time>2021-10-17T06:56:24Z</time>
      </trkpt>
      <trkpt lat="43.12468" lon="1.17426">
        <ele>301.19000244</ele>
        <time>2021-10-17T06:56:25Z</time>
      </trkpt>
      <trkpt lat="43.12467" lon="1.17424">
        <ele>301.36001587</ele>
        <time>2021-10-17T06:56:26Z</time>
      </trkpt>
      <trkpt lat="43.12464" lon="1.17422">
        <ele>301.51000977</ele>
        <time>2021-10-17T06:56:27Z</time>
      </trkpt>
      <trkpt lat="43.12463" lon="1.1742">
        <ele>301.63000488</ele>
        <time>2021-10-17T06:56:28Z</time>
      </trkpt>
      <trkpt lat="43.12461" lon="1.17419">
        <ele>301.76000977</ele>
        <time>2021-10-17T06:56:29Z</time>
      </trkpt>
      <trkpt lat="43.1246" lon="1.17418">
        <ele>301.86999512</ele>
        <time>2021-10-17T06:56:30Z</time>
      </trkpt>
      <trkpt lat="43.12457" lon="1.17415">
        <ele>301.97998047</ele>
        <time>2021-10-17T06:56:31Z</time>
      </trkpt>
      <trkpt lat="43.12455" lon="1.17414">
        <ele>302.05996704</ele>
        <time>2021-10-17T06:56:32Z</time>
      </trkpt>
      <trkpt lat="43.12453" lon="1.17412">
        <ele>302.04995728</ele>
        <time>2021-10-17T06:56:33Z</time>
      </trkpt>
      <trkpt lat="43.12452" lon="1.17411">
        <ele>301.98995972</ele>
        <time>2021-10-17T06:56:34Z</time>
      </trkpt>
      <trkpt lat="43.1245" lon="1.1741">
        <ele>301.97994995</ele>
        <time>2021-10-17T06:56:35Z</time>
      </trkpt>
      <trkpt lat="43.12448" lon="1.17408">
        <ele>301.99993896</ele>
        <time>2021-10-17T06:56:36Z</time>
      </trkpt>
      <trkpt lat="43.12447" lon="1.17407">
        <ele>302.09994507</ele>
        <time>2021-10-17T06:56:37Z</time>
      </trkpt>
      <trkpt lat="43.12446" lon="1.17405">
        <ele>302.15994263</ele>
        <time>2021-10-17T06:56:38Z</time>
      </trkpt>
      <trkpt lat="43.12445" lon="1.17404">
        <ele>302.17993164</ele>
        <time>2021-10-17T06:56:39Z</time>
      </trkpt>
      <trkpt lat="43.12444" lon="1.17401">
        <ele>302.17993164</ele>
        <time>2021-10-17T06:56:40Z</time>
      </trkpt>
      <trkpt lat="43.12444" lon="1.17398">
        <ele>302.12994385</ele>
        <time>2021-10-17T06:56:41Z</time>
      </trkpt>
      <trkpt lat="43.12444" lon="1.17395">
        <ele>302.06994629</ele>
        <time>2021-10-17T06:56:42Z</time>
      </trkpt>
      <trkpt lat="43.12445" lon="1.17391">
        <ele>301.95996094</ele>
        <time>2021-10-17T06:56:43Z</time>
      </trkpt>
      <trkpt lat="43.12446" lon="1.17388">
        <ele>301.83996582</ele>
        <time>2021-10-17T06:56:44Z</time>
      </trkpt>
      <trkpt lat="43.12448" lon="1.17383">
        <ele>301.68997192</ele>
        <time>2021-10-17T06:56:45Z</time>
      </trkpt>
      <trkpt lat="43.1245" lon="1.17379">
        <ele>301.60998535</ele>
        <time>2021-10-17T06:56:46Z</time>
      </trkpt>
      <trkpt lat="43.12452" lon="1.17376">
        <ele>301.60998535</ele>
        <time>2021-10-17T06:56:47Z</time>
      </trkpt>
      <trkpt lat="43.12453" lon="1.17372">
        <ele>301.60998535</ele>
        <time>2021-10-17T06:56:48Z</time>
      </trkpt>
      <trkpt lat="43.12456" lon="1.17366">
        <ele>301.70999146</ele>
        <time>2021-10-17T06:56:49Z</time>
      </trkpt>
      <trkpt lat="43.12457" lon="1.17363">
        <ele>301.80999756</ele>
        <time>2021-10-17T06:56:50Z</time>
      </trkpt>
      <trkpt lat="43.12459" lon="1.1736">
        <ele>301.94000244</ele>
        <time>2021-10-17T06:56:51Z</time>
      </trkpt>
      <trkpt lat="43.1246" lon="1.17357">
        <ele>302.08001709</ele>
        <time>2021-10-17T06:56:52Z</time>
      </trkpt>
      <trkpt lat="43.12462" lon="1.17353">
        <ele>302.24002075</ele>
        <time>2021-10-17T06:56:53Z</time>
      </trkpt>
      <trkpt lat="43.12464" lon="1.17349">
        <ele>302.42001343</ele>
        <time>2021-10-17T06:56:54Z</time>
      </trkpt>
      <trkpt lat="43.12465" lon="1.17344">
        <ele>302.57000732</ele>
        <time>2021-10-17T06:56:55Z</time>
      </trkpt>
      <trkpt lat="43.12467" lon="1.1734">
        <ele>302.75</ele>
        <time>2021-10-17T06:56:56Z</time>
      </trkpt>
      <trkpt lat="43.12468" lon="1.17337">
        <ele>302.88000488</ele>
        <time>2021-10-17T06:56:57Z</time>
      </trkpt>
      <trkpt lat="43.1247" lon="1.17331">
        <ele>303.01000977</ele>
        <time>2021-10-17T06:56:58Z</time>
      </trkpt>
      <trkpt lat="43.12471" lon="1.17328">
        <ele>303.20001221</ele>
        <time>2021-10-17T06:56:59Z</time>
      </trkpt>
      <trkpt lat="43.12473" lon="1.17325">
        <ele>303.36001587</ele>
        <time>2021-10-17T06:57:00Z</time>
      </trkpt>
      <trkpt lat="43.12474" lon="1.17321">
        <ele>303.59002686</ele>
        <time>2021-10-17T06:57:01Z</time>
      </trkpt>
      <trkpt lat="43.12476" lon="1.17318">
        <ele>303.7800293</ele>
        <time>2021-10-17T06:57:02Z</time>
      </trkpt>
      <trkpt lat="43.12478" lon="1.17312">
        <ele>304.00003052</ele>
        <time>2021-10-17T06:57:03Z</time>
      </trkpt>
      <trkpt lat="43.1248" lon="1.17308">
        <ele>304.20004272</ele>
        <time>2021-10-17T06:57:04Z</time>
      </trkpt>
      <trkpt lat="43.12481" lon="1.17304">
        <ele>304.3800354</ele>
        <time>2021-10-17T06:57:05Z</time>
      </trkpt>
      <trkpt lat="43.12483" lon="1.17301">
        <ele>304.55004883</ele>
        <time>2021-10-17T06:57:06Z</time>
      </trkpt>
      <trkpt lat="43.12486" lon="1.17295">
        <ele>304.66003418</ele>
        <time>2021-10-17T06:57:07Z</time>
      </trkpt>
      <trkpt lat="43.12488" lon="1.17292">
        <ele>304.82003784</ele>
        <time>2021-10-17T06:57:08Z</time>
      </trkpt>
      <trkpt lat="43.12489" lon="1.17288">
        <ele>304.92004395</ele>
        <time>2021-10-17T06:57:09Z</time>
      </trkpt>
      <trkpt lat="43.12491" lon="1.17284">
        <ele>305.08004761</ele>
        <time>2021-10-17T06:57:10Z</time>
      </trkpt>
      <trkpt lat="43.12493" lon="1.17278">
        <ele>305.2300415</ele>
        <time>2021-10-17T06:57:11Z</time>
      </trkpt>
      <trkpt lat="43.12494" lon="1.17275">
        <ele>305.33004761</ele>
        <time>2021-10-17T06:57:12Z</time>
      </trkpt>
      <trkpt lat="43.12495" lon="1.17272">
        <ele>305.47006226</ele>
        <time>2021-10-17T06:57:13Z</time>
      </trkpt>
      <trkpt lat="43.12497" lon="1.17269">
        <ele>305.62005615</ele>
        <time>2021-10-17T06:57:14Z</time>
      </trkpt>
      <trkpt lat="43.12498" lon="1.17266">
        <ele>305.79006958</ele>
        <time>2021-10-17T06:57:15Z</time>
      </trkpt>
      <trkpt lat="43.125" lon="1.17261">
        <ele>306.04006958</ele>
        <time>2021-10-17T06:57:16Z</time>
      </trkpt>
      <trkpt lat="43.12501" lon="1.17257">
        <ele>306.24008179</ele>
        <time>2021-10-17T06:57:17Z</time>
      </trkpt>
      <trkpt lat="43.12503" lon="1.17253">
        <ele>306.44009399</ele>
        <time>2021-10-17T06:57:18Z</time>
      </trkpt>
      <trkpt lat="43.12504" lon="1.17249">
        <ele>306.61010742</ele>
        <time>2021-10-17T06:57:19Z</time>
      </trkpt>
      <trkpt lat="43.12505" lon="1.17245">
        <ele>306.77011108</ele>
        <time>2021-10-17T06:57:20Z</time>
      </trkpt>
      <trkpt lat="43.12507" lon="1.17238">
        <ele>306.9901123</ele>
        <time>2021-10-17T06:57:21Z</time>
      </trkpt>
      <trkpt lat="43.12508" lon="1.17233">
        <ele>307.21011353</ele>
        <time>2021-10-17T06:57:22Z</time>
      </trkpt>
      <trkpt lat="43.12508" lon="1.17228">
        <ele>307.44012451</ele>
        <time>2021-10-17T06:57:23Z</time>
      </trkpt>
      <trkpt lat="43.12509" lon="1.17224">
        <ele>307.66012573</ele>
        <time>2021-10-17T06:57:24Z</time>
      </trkpt>
      <trkpt lat="43.12511" lon="1.17218">
        <ele>307.88012695</ele>
        <time>2021-10-17T06:57:25Z</time>
      </trkpt>
      <trkpt lat="43.12513" lon="1.17214">
        <ele>308.07012939</ele>
        <time>2021-10-17T06:57:26Z</time>
      </trkpt>
      <trkpt lat="43.12514" lon="1.1721">
        <ele>308.2701416</ele>
        <time>2021-10-17T06:57:27Z</time>
      </trkpt>
      <trkpt lat="43.12515" lon="1.17207">
        <ele>308.38012695</ele>
        <time>2021-10-17T06:57:28Z</time>
      </trkpt>
      <trkpt lat="43.12517" lon="1.17203">
        <ele>308.41012573</ele>
        <time>2021-10-17T06:57:29Z</time>
      </trkpt>
      <trkpt lat="43.12519" lon="1.17196">
        <ele>308.35012817</ele>
        <time>2021-10-17T06:57:30Z</time>
      </trkpt>
      <trkpt lat="43.1252" lon="1.17191">
        <ele>308.22012329</ele>
        <time>2021-10-17T06:57:31Z</time>
      </trkpt>
      <trkpt lat="43.12522" lon="1.17186">
        <ele>308.05010986</ele>
        <time>2021-10-17T06:57:32Z</time>
      </trkpt>
      <trkpt lat="43.12524" lon="1.17181">
        <ele>307.91009521</ele>
        <time>2021-10-17T06:57:33Z</time>
      </trkpt>
      <trkpt lat="43.12526" lon="1.17174">
        <ele>307.85009766</ele>
        <time>2021-10-17T06:57:34Z</time>
      </trkpt>
      <trkpt lat="43.12528" lon="1.1717">
        <ele>307.78009033</ele>
        <time>2021-10-17T06:57:35Z</time>
      </trkpt>
      <trkpt lat="43.1253" lon="1.17166">
        <ele>307.81008911</ele>
        <time>2021-10-17T06:57:36Z</time>
      </trkpt>
      <trkpt lat="43.12532" lon="1.17162">
        <ele>307.89007568</ele>
        <time>2021-10-17T06:57:37Z</time>
      </trkpt>
      <trkpt lat="43.12534" lon="1.17158">
        <ele>308.0100708</ele>
        <time>2021-10-17T06:57:38Z</time>
      </trkpt>
      <trkpt lat="43.12536" lon="1.17152">
        <ele>308.25006104</ele>
        <time>2021-10-17T06:57:39Z</time>
      </trkpt>
      <trkpt lat="43.12538" lon="1.17149">
        <ele>308.46005249</ele>
        <time>2021-10-17T06:57:40Z</time>
      </trkpt>
      <trkpt lat="43.1254" lon="1.17145">
        <ele>308.67004395</ele>
        <time>2021-10-17T06:57:41Z</time>
      </trkpt>
      <trkpt lat="43.12541" lon="1.17141">
        <ele>308.85003662</ele>
        <time>2021-10-17T06:57:42Z</time>
      </trkpt>
      <trkpt lat="43.12544" lon="1.17135">
        <ele>308.93002319</ele>
        <time>2021-10-17T06:57:43Z</time>
      </trkpt>
      <trkpt lat="43.12546" lon="1.17131">
        <ele>309.02001953</ele>
        <time>2021-10-17T06:57:44Z</time>
      </trkpt>
      <trkpt lat="43.12547" lon="1.17126">
        <ele>309.04000854</ele>
        <time>2021-10-17T06:57:45Z</time>
      </trkpt>
      <trkpt lat="43.12548" lon="1.17122">
        <ele>309.11001587</ele>
        <time>2021-10-17T06:57:46Z</time>
      </trkpt>
      <trkpt lat="43.1255" lon="1.17118">
        <ele>309.17001343</ele>
        <time>2021-10-17T06:57:47Z</time>
      </trkpt>
      <trkpt lat="43.12553" lon="1.17112">
        <ele>309.22000122</ele>
        <time>2021-10-17T06:57:48Z</time>
      </trkpt>
      <trkpt lat="43.12554" lon="1.17107">
        <ele>309.29998779</ele>
        <time>2021-10-17T06:57:49Z</time>
      </trkpt>
      <trkpt lat="43.12556" lon="1.17102">
        <ele>309.33999634</ele>
        <time>2021-10-17T06:57:50Z</time>
      </trkpt>
      <trkpt lat="43.12557" lon="1.17098">
        <ele>309.38998413</ele>
        <time>2021-10-17T06:57:51Z</time>
      </trkpt>
      <trkpt lat="43.12559" lon="1.17091">
        <ele>309.38998413</ele>
        <time>2021-10-17T06:57:52Z</time>
      </trkpt>
      <trkpt lat="43.1256" lon="1.17087">
        <ele>309.37997437</ele>
        <time>2021-10-17T06:57:53Z</time>
      </trkpt>
      <trkpt lat="43.12562" lon="1.17081">
        <ele>309.26998901</ele>
        <time>2021-10-17T06:57:54Z</time>
      </trkpt>
      <trkpt lat="43.12564" lon="1.17075">
        <ele>309.17999268</ele>
        <time>2021-10-17T06:57:55Z</time>
      </trkpt>
      <trkpt lat="43.12566" lon="1.17071">
        <ele>309.04998779</ele>
        <time>2021-10-17T06:57:56Z</time>
      </trkpt>
      <trkpt lat="43.12569" lon="1.17063">
        <ele>308.78997803</ele>
        <time>2021-10-17T06:57:57Z</time>
      </trkpt>
      <trkpt lat="43.12572" lon="1.17058">
        <ele>308.49996948</ele>
        <time>2021-10-17T06:57:58Z</time>
      </trkpt>
      <trkpt lat="43.12575" lon="1.17052">
        <ele>308.08996582</ele>
        <time>2021-10-17T06:57:59Z</time>
      </trkpt>
      <trkpt lat="43.12579" lon="1.17046">
        <ele>307.47998047</ele>
        <time>2021-10-17T06:58:00Z</time>
      </trkpt>
      <trkpt lat="43.12584" lon="1.17036">
        <ele>306.8999939</ele>
        <time>2021-10-17T06:58:01Z</time>
      </trkpt>
      <trkpt lat="43.1259" lon="1.17029">
        <ele>306.1000061</ele>
        <time>2021-10-17T06:58:02Z</time>
      </trkpt>
      <trkpt lat="43.12594" lon="1.17024">
        <ele>305.17001343</ele>
        <time>2021-10-17T06:58:03Z</time>
      </trkpt>
      <trkpt lat="43.12599" lon="1.17017">
        <ele>304.29000854</ele>
        <time>2021-10-17T06:58:04Z</time>
      </trkpt>
      <trkpt lat="43.12603" lon="1.1701">
        <ele>303.32000732</ele>
        <time>2021-10-17T06:58:05Z</time>
      </trkpt>
      <trkpt lat="43.12609" lon="1.17001">
        <ele>302.55999756</ele>
        <time>2021-10-17T06:58:06Z</time>
      </trkpt>
      <trkpt lat="43.12613" lon="1.16994">
        <ele>301.85998535</ele>
        <time>2021-10-17T06:58:07Z</time>
      </trkpt>
      <trkpt lat="43.12617" lon="1.16987">
        <ele>301.27999878</ele>
        <time>2021-10-17T06:58:08Z</time>
      </trkpt>
      <trkpt lat="43.12622" lon="1.16979">
        <ele>300.67001343</ele>
        <time>2021-10-17T06:58:09Z</time>
      </trkpt>
      <trkpt lat="43.12629" lon="1.16967">
        <ele>300.08001709</ele>
        <time>2021-10-17T06:58:10Z</time>
      </trkpt>
      <trkpt lat="43.12633" lon="1.16959">
        <ele>299.56002808</ele>
        <time>2021-10-17T06:58:11Z</time>
      </trkpt>
      <trkpt lat="43.12637" lon="1.16952">
        <ele>299.07003784</ele>
        <time>2021-10-17T06:58:12Z</time>
      </trkpt>
      <trkpt lat="43.12641" lon="1.16944">
        <ele>298.81002808</ele>
        <time>2021-10-17T06:58:13Z</time>
      </trkpt>
      <trkpt lat="43.12646" lon="1.16933">
        <ele>298.68002319</ele>
        <time>2021-10-17T06:58:14Z</time>
      </trkpt>
      <trkpt lat="43.12651" lon="1.16925">
        <ele>298.62002563</ele>
        <time>2021-10-17T06:58:15Z</time>
      </trkpt>
      <trkpt lat="43.12655" lon="1.16917">
        <ele>298.6300354</ele>
        <time>2021-10-17T06:58:16Z</time>
      </trkpt>
      <trkpt lat="43.12659" lon="1.1691">
        <ele>298.59002686</ele>
        <time>2021-10-17T06:58:17Z</time>
      </trkpt>
      <trkpt lat="43.12664" lon="1.16904">
        <ele>298.61001587</ele>
        <time>2021-10-17T06:58:18Z</time>
      </trkpt>
      <trkpt lat="43.12669" lon="1.16895">
        <ele>298.72000122</ele>
        <time>2021-10-17T06:58:19Z</time>
      </trkpt>
      <trkpt lat="43.12671" lon="1.16889">
        <ele>298.89001465</ele>
        <time>2021-10-17T06:58:20Z</time>
      </trkpt>
      <trkpt lat="43.12673" lon="1.16882">
        <ele>299.15002441</ele>
        <time>2021-10-17T06:58:21Z</time>
      </trkpt>
      <trkpt lat="43.12675" lon="1.16876">
        <ele>299.46002197</ele>
        <time>2021-10-17T06:58:22Z</time>
      </trkpt>
      <trkpt lat="43.12676" lon="1.16869">
        <ele>299.81002808</ele>
        <time>2021-10-17T06:58:23Z</time>
      </trkpt>
      <trkpt lat="43.12679" lon="1.1686">
        <ele>300.22003174</ele>
        <time>2021-10-17T06:58:24Z</time>
      </trkpt>
      <trkpt lat="43.1268" lon="1.16854">
        <ele>300.67004395</ele>
        <time>2021-10-17T06:58:25Z</time>
      </trkpt>
      <trkpt lat="43.12683" lon="1.16849">
        <ele>301.02005005</ele>
        <time>2021-10-17T06:58:26Z</time>
      </trkpt>
      <trkpt lat="43.12686" lon="1.16843">
        <ele>301.46005249</ele>
        <time>2021-10-17T06:58:27Z</time>
      </trkpt>
      <trkpt lat="43.1269" lon="1.16835">
        <ele>301.82003784</ele>
        <time>2021-10-17T06:58:28Z</time>
      </trkpt>
      <trkpt lat="43.12693" lon="1.1683">
        <ele>302.10003662</ele>
        <time>2021-10-17T06:58:29Z</time>
      </trkpt>
      <trkpt lat="43.12695" lon="1.16825">
        <ele>302.32003784</ele>
        <time>2021-10-17T06:58:30Z</time>
      </trkpt>
      <trkpt lat="43.12697" lon="1.16819">
        <ele>302.3800354</ele>
        <time>2021-10-17T06:58:31Z</time>
      </trkpt>
      <trkpt lat="43.12699" lon="1.16809">
        <ele>302.33004761</ele>
        <time>2021-10-17T06:58:32Z</time>
      </trkpt>
      <trkpt lat="43.12702" lon="1.16803">
        <ele>302.17004395</ele>
        <time>2021-10-17T06:58:33Z</time>
      </trkpt>
      <trkpt lat="43.12705" lon="1.16796">
        <ele>301.87005615</ele>
        <time>2021-10-17T06:58:34Z</time>
      </trkpt>
      <trkpt lat="43.12708" lon="1.16789">
        <ele>301.4800415</ele>
        <time>2021-10-17T06:58:35Z</time>
      </trkpt>
      <trkpt lat="43.12708" lon="1.16782">
        <ele>300.99005127</ele>
        <time>2021-10-17T06:58:36Z</time>
      </trkpt>
      <trkpt lat="43.12712" lon="1.16771">
        <ele>300.50006104</ele>
        <time>2021-10-17T06:58:37Z</time>
      </trkpt>
      <trkpt lat="43.12714" lon="1.16764">
        <ele>300.15005493</ele>
        <time>2021-10-17T06:58:38Z</time>
      </trkpt>
      <trkpt lat="43.12717" lon="1.16757">
        <ele>299.88006592</ele>
        <time>2021-10-17T06:58:39Z</time>
      </trkpt>
      <trkpt lat="43.1272" lon="1.16751">
        <ele>299.87005615</ele>
        <time>2021-10-17T06:58:40Z</time>
      </trkpt>
      <trkpt lat="43.12725" lon="1.16743">
        <ele>300.08004761</ele>
        <time>2021-10-17T06:58:41Z</time>
      </trkpt>
      <trkpt lat="43.12728" lon="1.16737">
        <ele>300.39004517</ele>
        <time>2021-10-17T06:58:42Z</time>
      </trkpt>
      <trkpt lat="43.1273" lon="1.16731">
        <ele>300.80004883</ele>
        <time>2021-10-17T06:58:43Z</time>
      </trkpt>
      <trkpt lat="43.12731" lon="1.16725">
        <ele>301.25006104</ele>
        <time>2021-10-17T06:58:44Z</time>
      </trkpt>
      <trkpt lat="43.12732" lon="1.16719">
        <ele>301.61004639</ele>
        <time>2021-10-17T06:58:45Z</time>
      </trkpt>
      <trkpt lat="43.12735" lon="1.16711">
        <ele>301.93005371</ele>
        <time>2021-10-17T06:58:46Z</time>
      </trkpt>
      <trkpt lat="43.12737" lon="1.16706">
        <ele>302.22006226</ele>
        <time>2021-10-17T06:58:47Z</time>
      </trkpt>
      <trkpt lat="43.12739" lon="1.16701">
        <ele>302.40005493</ele>
        <time>2021-10-17T06:58:48Z</time>
      </trkpt>
      <trkpt lat="43.12741" lon="1.16695">
        <ele>302.4800415</ele>
        <time>2021-10-17T06:58:49Z</time>
      </trkpt>
      <trkpt lat="43.12743" lon="1.16689">
        <ele>302.45004272</ele>
        <time>2021-10-17T06:58:50Z</time>
      </trkpt>
      <trkpt lat="43.12748" lon="1.1668">
        <ele>302.26004028</ele>
        <time>2021-10-17T06:58:51Z</time>
      </trkpt>
      <trkpt lat="43.12752" lon="1.16675">
        <ele>302.09002686</ele>
        <time>2021-10-17T06:58:52Z</time>
      </trkpt>
      <trkpt lat="43.12755" lon="1.16669">
        <ele>302.01004028</ele>
        <time>2021-10-17T06:58:53Z</time>
      </trkpt>
      <trkpt lat="43.12757" lon="1.16664">
        <ele>302.11004639</ele>
        <time>2021-10-17T06:58:54Z</time>
      </trkpt>
      <trkpt lat="43.12761" lon="1.16657">
        <ele>302.31005859</ele>
        <time>2021-10-17T06:58:55Z</time>
      </trkpt>
      <trkpt lat="43.12764" lon="1.16652">
        <ele>302.56005859</ele>
        <time>2021-10-17T06:58:56Z</time>
      </trkpt>
      <trkpt lat="43.12767" lon="1.16647">
        <ele>302.71005249</ele>
        <time>2021-10-17T06:58:57Z</time>
      </trkpt>
      <trkpt lat="43.12769" lon="1.16642">
        <ele>302.77005005</ele>
        <time>2021-10-17T06:58:58Z</time>
      </trkpt>
      <trkpt lat="43.12773" lon="1.16636">
        <ele>302.80004883</ele>
        <time>2021-10-17T06:58:59Z</time>
      </trkpt>
      <trkpt lat="43.12776" lon="1.16631">
        <ele>302.77005005</ele>
        <time>2021-10-17T06:59:00Z</time>
      </trkpt>
      <trkpt lat="43.12779" lon="1.16627">
        <ele>302.77005005</ele>
        <time>2021-10-17T06:59:01Z</time>
      </trkpt>
      <trkpt lat="43.12781" lon="1.16622">
        <ele>302.79003906</ele>
        <time>2021-10-17T06:59:02Z</time>
      </trkpt>
      <trkpt lat="43.12785" lon="1.16618">
        <ele>302.77005005</ele>
        <time>2021-10-17T06:59:03Z</time>
      </trkpt>
      <trkpt lat="43.12788" lon="1.1661">
        <ele>302.7300415</ele>
        <time>2021-10-17T06:59:04Z</time>
      </trkpt>
      <trkpt lat="43.12793" lon="1.16605">
        <ele>302.68005371</ele>
        <time>2021-10-17T06:59:05Z</time>
      </trkpt>
      <trkpt lat="43.12795" lon="1.16599">
        <ele>302.6600647</ele>
        <time>2021-10-17T06:59:06Z</time>
      </trkpt>
      <trkpt lat="43.12797" lon="1.16594">
        <ele>302.70007324</ele>
        <time>2021-10-17T06:59:07Z</time>
      </trkpt>
      <trkpt lat="43.12798" lon="1.16588">
        <ele>302.80007935</ele>
        <time>2021-10-17T06:59:08Z</time>
      </trkpt>
      <trkpt lat="43.128" lon="1.16579">
        <ele>302.93008423</ele>
        <time>2021-10-17T06:59:09Z</time>
      </trkpt>
      <trkpt lat="43.12801" lon="1.16574">
        <ele>303.0100708</ele>
        <time>2021-10-17T06:59:10Z</time>
      </trkpt>
      <trkpt lat="43.12803" lon="1.16569">
        <ele>303.06005859</ele>
        <time>2021-10-17T06:59:11Z</time>
      </trkpt>
      <trkpt lat="43.12806" lon="1.16564">
        <ele>303.06005859</ele>
        <time>2021-10-17T06:59:12Z</time>
      </trkpt>
      <trkpt lat="43.12808" lon="1.16557">
        <ele>303.03005981</ele>
        <time>2021-10-17T06:59:13Z</time>
      </trkpt>
      <trkpt lat="43.12809" lon="1.16552">
        <ele>303.05004883</ele>
        <time>2021-10-17T06:59:14Z</time>
      </trkpt>
      <trkpt lat="43.12811" lon="1.16548">
        <ele>303.10003662</ele>
        <time>2021-10-17T06:59:15Z</time>
      </trkpt>
      <trkpt lat="43.12813" lon="1.16544">
        <ele>303.21002197</ele>
        <time>2021-10-17T06:59:16Z</time>
      </trkpt>
      <trkpt lat="43.12815" lon="1.1654">
        <ele>303.24002075</ele>
        <time>2021-10-17T06:59:17Z</time>
      </trkpt>
      <trkpt lat="43.12818" lon="1.16532">
        <ele>303.1300354</ele>
        <time>2021-10-17T06:59:18Z</time>
      </trkpt>
      <trkpt lat="43.1282" lon="1.16526">
        <ele>302.75003052</ele>
        <time>2021-10-17T06:59:19Z</time>
      </trkpt>
      <trkpt lat="43.12822" lon="1.1652">
        <ele>302.08001709</ele>
        <time>2021-10-17T06:59:20Z</time>
      </trkpt>
      <trkpt lat="43.12824" lon="1.16513">
        <ele>301.48001099</ele>
        <time>2021-10-17T06:59:21Z</time>
      </trkpt>
      <trkpt lat="43.12827" lon="1.16505">
        <ele>300.82000732</ele>
        <time>2021-10-17T06:59:22Z</time>
      </trkpt>
      <trkpt lat="43.1283" lon="1.16499">
        <ele>300.42001343</ele>
        <time>2021-10-17T06:59:23Z</time>
      </trkpt>
      <trkpt lat="43.12833" lon="1.16494">
        <ele>300.39001465</ele>
        <time>2021-10-17T06:59:24Z</time>
      </trkpt>
      <trkpt lat="43.12836" lon="1.16491">
        <ele>300.49002075</ele>
        <time>2021-10-17T06:59:25Z</time>
      </trkpt>
      <trkpt lat="43.12839" lon="1.16486">
        <ele>301.00003052</ele>
        <time>2021-10-17T06:59:26Z</time>
      </trkpt>
      <trkpt lat="43.12841" lon="1.16482">
        <ele>301.65002441</ele>
        <time>2021-10-17T06:59:27Z</time>
      </trkpt>
      <trkpt lat="43.12844" lon="1.16478">
        <ele>302.23001099</ele>
        <time>2021-10-17T06:59:28Z</time>
      </trkpt>
      <trkpt lat="43.12845" lon="1.16475">
        <ele>302.68002319</ele>
        <time>2021-10-17T06:59:29Z</time>
      </trkpt>
      <trkpt lat="43.12847" lon="1.16471">
        <ele>302.8800354</ele>
        <time>2021-10-17T06:59:30Z</time>
      </trkpt>
      <trkpt lat="43.1285" lon="1.16466">
        <ele>303.19003296</ele>
        <time>2021-10-17T06:59:31Z</time>
      </trkpt>
      <trkpt lat="43.12851" lon="1.16463">
        <ele>303.46002197</ele>
        <time>2021-10-17T06:59:32Z</time>
      </trkpt>
      <trkpt lat="43.12853" lon="1.1646">
        <ele>303.6300354</ele>
        <time>2021-10-17T06:59:33Z</time>
      </trkpt>
      <trkpt lat="43.12854" lon="1.16457">
        <ele>303.96002197</ele>
        <time>2021-10-17T06:59:34Z</time>
      </trkpt>
      <trkpt lat="43.12856" lon="1.16453">
        <ele>304.04000854</ele>
        <time>2021-10-17T06:59:35Z</time>
      </trkpt>
      <trkpt lat="43.12859" lon="1.16448">
        <ele>304.16000366</ele>
        <time>2021-10-17T06:59:36Z</time>
      </trkpt>
      <trkpt lat="43.12862" lon="1.16444">
        <ele>304.45999146</ele>
        <time>2021-10-17T06:59:37Z</time>
      </trkpt>
      <trkpt lat="43.12863" lon="1.1644">
        <ele>304.63000488</ele>
        <time>2021-10-17T06:59:38Z</time>
      </trkpt>
      <trkpt lat="43.12864" lon="1.16436">
        <ele>304.86001587</ele>
        <time>2021-10-17T06:59:39Z</time>
      </trkpt>
      <trkpt lat="43.12867" lon="1.16431">
        <ele>305.07000732</ele>
        <time>2021-10-17T06:59:40Z</time>
      </trkpt>
      <trkpt lat="43.12869" lon="1.16427">
        <ele>305.17001343</ele>
        <time>2021-10-17T06:59:41Z</time>
      </trkpt>
      <trkpt lat="43.1287" lon="1.16422">
        <ele>305.23001099</ele>
        <time>2021-10-17T06:59:42Z</time>
      </trkpt>
      <trkpt lat="43.12872" lon="1.16418">
        <ele>305.18002319</ele>
        <time>2021-10-17T06:59:43Z</time>
      </trkpt>
      <trkpt lat="43.12874" lon="1.16413">
        <ele>305.05001831</ele>
        <time>2021-10-17T06:59:44Z</time>
      </trkpt>
      <trkpt lat="43.12876" lon="1.16408">
        <ele>304.96002197</ele>
        <time>2021-10-17T06:59:45Z</time>
      </trkpt>
      <trkpt lat="43.12879" lon="1.16404">
        <ele>304.93002319</ele>
        <time>2021-10-17T06:59:46Z</time>
      </trkpt>
      <trkpt lat="43.1288" lon="1.16399">
        <ele>304.98001099</ele>
        <time>2021-10-17T06:59:47Z</time>
      </trkpt>
      <trkpt lat="43.12881" lon="1.16394">
        <ele>305.04000854</ele>
        <time>2021-10-17T06:59:48Z</time>
      </trkpt>
      <trkpt lat="43.12883" lon="1.16389">
        <ele>305.19000244</ele>
        <time>2021-10-17T06:59:49Z</time>
      </trkpt>
      <trkpt lat="43.12885" lon="1.16384">
        <ele>305.27999878</ele>
        <time>2021-10-17T06:59:50Z</time>
      </trkpt>
      <trkpt lat="43.12887" lon="1.1638">
        <ele>305.36999512</ele>
        <time>2021-10-17T06:59:51Z</time>
      </trkpt>
      <trkpt lat="43.12888" lon="1.16377">
        <ele>305.51000977</ele>
        <time>2021-10-17T06:59:52Z</time>
      </trkpt>
      <trkpt lat="43.1289" lon="1.16373">
        <ele>305.49002075</ele>
        <time>2021-10-17T06:59:53Z</time>
      </trkpt>
      <trkpt lat="43.12892" lon="1.16365">
        <ele>305.44003296</ele>
        <time>2021-10-17T06:59:54Z</time>
      </trkpt>
      <trkpt lat="43.12893" lon="1.1636">
        <ele>305.31002808</ele>
        <time>2021-10-17T06:59:55Z</time>
      </trkpt>
      <trkpt lat="43.12895" lon="1.16356">
        <ele>305.18002319</ele>
        <time>2021-10-17T06:59:56Z</time>
      </trkpt>
      <trkpt lat="43.12898" lon="1.16351">
        <ele>305.04000854</ele>
        <time>2021-10-17T06:59:57Z</time>
      </trkpt>
      <trkpt lat="43.12901" lon="1.16345">
        <ele>304.88000488</ele>
        <time>2021-10-17T06:59:58Z</time>
      </trkpt>
      <trkpt lat="43.12902" lon="1.16341">
        <ele>304.83001709</ele>
        <time>2021-10-17T06:59:59Z</time>
      </trkpt>
      <trkpt lat="43.12904" lon="1.16336">
        <ele>304.7800293</ele>
        <time>2021-10-17T07:00:00Z</time>
      </trkpt>
      <trkpt lat="43.12906" lon="1.16332">
        <ele>304.82003784</ele>
        <time>2021-10-17T07:00:01Z</time>
      </trkpt>
      <trkpt lat="43.12909" lon="1.16328">
        <ele>304.97003174</ele>
        <time>2021-10-17T07:00:02Z</time>
      </trkpt>
      <trkpt lat="43.12912" lon="1.16324">
        <ele>305.06002808</ele>
        <time>2021-10-17T07:00:03Z</time>
      </trkpt>
      <trkpt lat="43.12913" lon="1.1632">
        <ele>305.09002686</ele>
        <time>2021-10-17T07:00:04Z</time>
      </trkpt>
      <trkpt lat="43.12916" lon="1.16315">
        <ele>305.09002686</ele>
        <time>2021-10-17T07:00:05Z</time>
      </trkpt>
      <trkpt lat="43.12918" lon="1.16311">
        <ele>305.09002686</ele>
        <time>2021-10-17T07:00:06Z</time>
      </trkpt>
      <trkpt lat="43.12923" lon="1.16305">
        <ele>305.18002319</ele>
        <time>2021-10-17T07:00:07Z</time>
      </trkpt>
      <trkpt lat="43.12924" lon="1.16301">
        <ele>305.40002441</ele>
        <time>2021-10-17T07:00:08Z</time>
      </trkpt>
      <trkpt lat="43.12927" lon="1.16296">
        <ele>305.66003418</ele>
        <time>2021-10-17T07:00:09Z</time>
      </trkpt>
      <trkpt lat="43.12929" lon="1.16293">
        <ele>305.96002197</ele>
        <time>2021-10-17T07:00:10Z</time>
      </trkpt>
      <trkpt lat="43.12931" lon="1.1629">
        <ele>306.18002319</ele>
        <time>2021-10-17T07:00:11Z</time>
      </trkpt>
      <trkpt lat="43.12934" lon="1.16285">
        <ele>306.32003784</ele>
        <time>2021-10-17T07:00:12Z</time>
      </trkpt>
      <trkpt lat="43.12936" lon="1.16281">
        <ele>306.45004272</ele>
        <time>2021-10-17T07:00:13Z</time>
      </trkpt>
      <trkpt lat="43.12938" lon="1.16277">
        <ele>306.56002808</ele>
        <time>2021-10-17T07:00:14Z</time>
      </trkpt>
      <trkpt lat="43.12939" lon="1.16274">
        <ele>306.67001343</ele>
        <time>2021-10-17T07:00:15Z</time>
      </trkpt>
      <trkpt lat="43.12941" lon="1.1627">
        <ele>306.73001099</ele>
        <time>2021-10-17T07:00:16Z</time>
      </trkpt>
      <trkpt lat="43.12944" lon="1.16264">
        <ele>306.61001587</ele>
        <time>2021-10-17T07:00:17Z</time>
      </trkpt>
      <trkpt lat="43.12946" lon="1.1626">
        <ele>306.46002197</ele>
        <time>2021-10-17T07:00:18Z</time>
      </trkpt>
      <trkpt lat="43.12948" lon="1.16255">
        <ele>306.22003174</ele>
        <time>2021-10-17T07:00:19Z</time>
      </trkpt>
      <trkpt lat="43.1295" lon="1.16252">
        <ele>305.95004272</ele>
        <time>2021-10-17T07:00:20Z</time>
      </trkpt>
      <trkpt lat="43.12954" lon="1.16245">
        <ele>305.65005493</ele>
        <time>2021-10-17T07:00:21Z</time>
      </trkpt>
      <trkpt lat="43.12956" lon="1.1624">
        <ele>305.31005859</ele>
        <time>2021-10-17T07:00:22Z</time>
      </trkpt>
      <trkpt lat="43.12958" lon="1.16234">
        <ele>304.9100647</ele>
        <time>2021-10-17T07:00:23Z</time>
      </trkpt>
      <trkpt lat="43.1296" lon="1.16227">
        <ele>304.58007812</ele>
        <time>2021-10-17T07:00:24Z</time>
      </trkpt>
      <trkpt lat="43.12964" lon="1.16218">
        <ele>304.44006348</ele>
        <time>2021-10-17T07:00:25Z</time>
      </trkpt>
      <trkpt lat="43.12966" lon="1.16213">
        <ele>304.23007202</ele>
        <time>2021-10-17T07:00:26Z</time>
      </trkpt>
      <trkpt lat="43.12968" lon="1.16207">
        <ele>304.14007568</ele>
        <time>2021-10-17T07:00:27Z</time>
      </trkpt>
      <trkpt lat="43.1297" lon="1.16202">
        <ele>304.02008057</ele>
        <time>2021-10-17T07:00:28Z</time>
      </trkpt>
      <trkpt lat="43.12972" lon="1.16199">
        <ele>303.98007202</ele>
        <time>2021-10-17T07:00:29Z</time>
      </trkpt>
      <trkpt lat="43.12977" lon="1.16194">
        <ele>304.05007935</ele>
        <time>2021-10-17T07:00:30Z</time>
      </trkpt>
      <trkpt lat="43.12979" lon="1.16191">
        <ele>304.21008301</ele>
        <time>2021-10-17T07:00:31Z</time>
      </trkpt>
      <trkpt lat="43.12981" lon="1.16188">
        <ele>304.46008301</ele>
        <time>2021-10-17T07:00:32Z</time>
      </trkpt>
      <trkpt lat="43.12983" lon="1.16184">
        <ele>304.54006958</ele>
        <time>2021-10-17T07:00:33Z</time>
      </trkpt>
      <trkpt lat="43.12984" lon="1.1618">
        <ele>304.69006348</ele>
        <time>2021-10-17T07:00:34Z</time>
      </trkpt>
      <trkpt lat="43.12989" lon="1.16173">
        <ele>304.62005615</ele>
        <time>2021-10-17T07:00:35Z</time>
      </trkpt>
      <trkpt lat="43.12992" lon="1.16168">
        <ele>304.37005615</ele>
        <time>2021-10-17T07:00:36Z</time>
      </trkpt>
      <trkpt lat="43.12995" lon="1.16163">
        <ele>304.09005737</ele>
        <time>2021-10-17T07:00:37Z</time>
      </trkpt>
      <trkpt lat="43.12999" lon="1.16159">
        <ele>303.59005737</ele>
        <time>2021-10-17T07:00:38Z</time>
      </trkpt>
      <trkpt lat="43.13004" lon="1.1615">
        <ele>303.23007202</ele>
        <time>2021-10-17T07:00:39Z</time>
      </trkpt>
      <trkpt lat="43.13005" lon="1.16144">
        <ele>302.95007324</ele>
        <time>2021-10-17T07:00:40Z</time>
      </trkpt>
      <trkpt lat="43.13006" lon="1.16138">
        <ele>302.73007202</ele>
        <time>2021-10-17T07:00:41Z</time>
      </trkpt>
      <trkpt lat="43.13007" lon="1.16133">
        <ele>302.62008667</ele>
        <time>2021-10-17T07:00:42Z</time>
      </trkpt>
      <trkpt lat="43.13009" lon="1.16127">
        <ele>302.8600769</ele>
        <time>2021-10-17T07:00:43Z</time>
      </trkpt>
      <trkpt lat="43.1301" lon="1.16123">
        <ele>303.22006226</ele>
        <time>2021-10-17T07:00:44Z</time>
      </trkpt>
      <trkpt lat="43.13011" lon="1.16119">
        <ele>303.78005981</ele>
        <time>2021-10-17T07:00:45Z</time>
      </trkpt>
      <trkpt lat="43.13012" lon="1.16115">
        <ele>304.4100647</ele>
        <time>2021-10-17T07:00:46Z</time>
      </trkpt>
      <trkpt lat="43.13013" lon="1.1611">
        <ele>304.74005127</ele>
        <time>2021-10-17T07:00:47Z</time>
      </trkpt>
      <trkpt lat="43.13014" lon="1.16104">
        <ele>305.02005005</ele>
        <time>2021-10-17T07:00:48Z</time>
      </trkpt>
      <trkpt lat="43.13015" lon="1.161">
        <ele>305.17004395</ele>
        <time>2021-10-17T07:00:49Z</time>
      </trkpt>
      <trkpt lat="43.13016" lon="1.16096">
        <ele>305.32003784</ele>
        <time>2021-10-17T07:00:50Z</time>
      </trkpt>
      <trkpt lat="43.13018" lon="1.16092">
        <ele>305.43002319</ele>
        <time>2021-10-17T07:00:51Z</time>
      </trkpt>
      <trkpt lat="43.13019" lon="1.16086">
        <ele>305.49002075</ele>
        <time>2021-10-17T07:00:52Z</time>
      </trkpt>
      <trkpt lat="43.13021" lon="1.16082">
        <ele>305.5300293</ele>
        <time>2021-10-17T07:00:53Z</time>
      </trkpt>
      <trkpt lat="43.13022" lon="1.16079">
        <ele>305.40002441</ele>
        <time>2021-10-17T07:00:54Z</time>
      </trkpt>
      <trkpt lat="43.13023" lon="1.16075">
        <ele>305.29003906</ele>
        <time>2021-10-17T07:00:55Z</time>
      </trkpt>
      <trkpt lat="43.13025" lon="1.16071">
        <ele>305.18005371</ele>
        <time>2021-10-17T07:00:56Z</time>
      </trkpt>
      <trkpt lat="43.13027" lon="1.16065">
        <ele>305.04003906</ele>
        <time>2021-10-17T07:00:57Z</time>
      </trkpt>
      <trkpt lat="43.13029" lon="1.16061">
        <ele>304.96005249</ele>
        <time>2021-10-17T07:00:58Z</time>
      </trkpt>
      <trkpt lat="43.1303" lon="1.16057">
        <ele>304.88006592</ele>
        <time>2021-10-17T07:00:59Z</time>
      </trkpt>
      <trkpt lat="43.13031" lon="1.16052">
        <ele>304.80007935</ele>
        <time>2021-10-17T07:01:00Z</time>
      </trkpt>
      <trkpt lat="43.13032" lon="1.16047">
        <ele>304.69009399</ele>
        <time>2021-10-17T07:01:01Z</time>
      </trkpt>
      <trkpt lat="43.13033" lon="1.16043">
        <ele>304.58010864</ele>
        <time>2021-10-17T07:01:02Z</time>
      </trkpt>
      <trkpt lat="43.13034" lon="1.16038">
        <ele>304.45010376</ele>
        <time>2021-10-17T07:01:03Z</time>
      </trkpt>
      <trkpt lat="43.13035" lon="1.16034">
        <ele>304.32009888</ele>
        <time>2021-10-17T07:01:04Z</time>
      </trkpt>
      <trkpt lat="43.13038" lon="1.16032">
        <ele>304.2401123</ele>
        <time>2021-10-17T07:01:05Z</time>
      </trkpt>
      <trkpt lat="43.13042" lon="1.16027">
        <ele>304.09011841</ele>
        <time>2021-10-17T07:01:06Z</time>
      </trkpt>
      <trkpt lat="43.13044" lon="1.16023">
        <ele>303.96011353</ele>
        <time>2021-10-17T07:01:07Z</time>
      </trkpt>
      <trkpt lat="43.13046" lon="1.16019">
        <ele>303.7901001</ele>
        <time>2021-10-17T07:01:08Z</time>
      </trkpt>
      <trkpt lat="43.13049" lon="1.16015">
        <ele>303.60009766</ele>
        <time>2021-10-17T07:01:09Z</time>
      </trkpt>
      <trkpt lat="43.13053" lon="1.16009">
        <ele>303.47009277</ele>
        <time>2021-10-17T07:01:10Z</time>
      </trkpt>
      <trkpt lat="43.13056" lon="1.16005">
        <ele>303.41009521</ele>
        <time>2021-10-17T07:01:11Z</time>
      </trkpt>
      <trkpt lat="43.13058" lon="1.16001">
        <ele>303.24008179</ele>
        <time>2021-10-17T07:01:12Z</time>
      </trkpt>
      <trkpt lat="43.13061" lon="1.15998">
        <ele>303.21008301</ele>
        <time>2021-10-17T07:01:13Z</time>
      </trkpt>
      <trkpt lat="43.13063" lon="1.15993">
        <ele>303.27008057</ele>
        <time>2021-10-17T07:01:14Z</time>
      </trkpt>
      <trkpt lat="43.13067" lon="1.15988">
        <ele>303.2600708</ele>
        <time>2021-10-17T07:01:15Z</time>
      </trkpt>
      <trkpt lat="43.13069" lon="1.15985">
        <ele>303.4100647</ele>
        <time>2021-10-17T07:01:16Z</time>
      </trkpt>
      <trkpt lat="43.13072" lon="1.15981">
        <ele>303.39007568</ele>
        <time>2021-10-17T07:01:17Z</time>
      </trkpt>
      <trkpt lat="43.13074" lon="1.15978">
        <ele>303.34008789</ele>
        <time>2021-10-17T07:01:18Z</time>
      </trkpt>
      <trkpt lat="43.13077" lon="1.15974">
        <ele>303.30007935</ele>
        <time>2021-10-17T07:01:19Z</time>
      </trkpt>
      <trkpt lat="43.1308" lon="1.15969">
        <ele>303.27008057</ele>
        <time>2021-10-17T07:01:20Z</time>
      </trkpt>
      <trkpt lat="43.13083" lon="1.15966">
        <ele>303.31008911</ele>
        <time>2021-10-17T07:01:21Z</time>
      </trkpt>
      <trkpt lat="43.13086" lon="1.15963">
        <ele>303.31008911</ele>
        <time>2021-10-17T07:01:22Z</time>
      </trkpt>
      <trkpt lat="43.13089" lon="1.15961">
        <ele>303.25009155</ele>
        <time>2021-10-17T07:01:23Z</time>
      </trkpt>
      <trkpt lat="43.13094" lon="1.15958">
        <ele>303.13009644</ele>
        <time>2021-10-17T07:01:24Z</time>
      </trkpt>
      <trkpt lat="43.13098" lon="1.15956">
        <ele>303.02011108</ele>
        <time>2021-10-17T07:01:25Z</time>
      </trkpt>
      <trkpt lat="43.13101" lon="1.15954">
        <ele>302.95010376</ele>
        <time>2021-10-17T07:01:26Z</time>
      </trkpt>
      <trkpt lat="43.13104" lon="1.15952">
        <ele>302.95010376</ele>
        <time>2021-10-17T07:01:27Z</time>
      </trkpt>
      <trkpt lat="43.13108" lon="1.15949">
        <ele>303.08010864</ele>
        <time>2021-10-17T07:01:28Z</time>
      </trkpt>
      <trkpt lat="43.13111" lon="1.15949">
        <ele>303.1401062</ele>
        <time>2021-10-17T07:01:29Z</time>
      </trkpt>
      <trkpt lat="43.13115" lon="1.15948">
        <ele>303.20010376</ele>
        <time>2021-10-17T07:01:30Z</time>
      </trkpt>
      <trkpt lat="43.13118" lon="1.15947">
        <ele>303.16009521</ele>
        <time>2021-10-17T07:01:31Z</time>
      </trkpt>
      <trkpt lat="43.1312" lon="1.15946">
        <ele>302.94009399</ele>
        <time>2021-10-17T07:01:32Z</time>
      </trkpt>
      <trkpt lat="43.13123" lon="1.15944">
        <ele>302.77008057</ele>
        <time>2021-10-17T07:01:33Z</time>
      </trkpt>
      <trkpt lat="43.13124" lon="1.15943">
        <ele>302.68008423</ele>
        <time>2021-10-17T07:01:34Z</time>
      </trkpt>
      <trkpt lat="43.13125" lon="1.15943">
        <ele>302.65008545</ele>
        <time>2021-10-17T07:01:35Z</time>
      </trkpt>
      <trkpt lat="43.13126" lon="1.15942">
        <ele>302.73007202</ele>
        <time>2021-10-17T07:01:36Z</time>
      </trkpt>
      <trkpt lat="43.13126" lon="1.15941">
        <ele>302.81005859</ele>
        <time>2021-10-17T07:01:37Z</time>
      </trkpt>
      <trkpt lat="43.13133" lon="1.15921">
        <ele>302.86004639</ele>
        <time>2021-10-17T07:02:10Z</time>
      </trkpt>
      <trkpt lat="43.13133" lon="1.15921">
        <ele>302.81005859</ele>
        <time>2021-10-17T07:02:11Z</time>
      </trkpt>
      <trkpt lat="43.13133" lon="1.1592">
        <ele>302.78005981</ele>
        <time>2021-10-17T07:02:12Z</time>
      </trkpt>
      <trkpt lat="43.13133" lon="1.1592">
        <ele>302.79006958</ele>
        <time>2021-10-17T07:02:13Z</time>
      </trkpt>
      <trkpt lat="43.13135" lon="1.15918">
        <ele>303.24008179</ele>
        <time>2021-10-17T07:02:21Z</time>
      </trkpt>
      <trkpt lat="43.13137" lon="1.15915">
        <ele>303.23007202</ele>
        <time>2021-10-17T07:02:22Z</time>
      </trkpt>
      <trkpt lat="43.13138" lon="1.15914">
        <ele>303.1100769</ele>
        <time>2021-10-17T07:02:23Z</time>
      </trkpt>
      <trkpt lat="43.13139" lon="1.15912">
        <ele>303.08007812</ele>
        <time>2021-10-17T07:02:24Z</time>
      </trkpt>
      <trkpt lat="43.1314" lon="1.15911">
        <ele>303.08007812</ele>
        <time>2021-10-17T07:02:25Z</time>
      </trkpt>
      <trkpt lat="43.13141" lon="1.15908">
        <ele>303.08007812</ele>
        <time>2021-10-17T07:02:26Z</time>
      </trkpt>
      <trkpt lat="43.13143" lon="1.15906">
        <ele>303.32006836</ele>
        <time>2021-10-17T07:02:27Z</time>
      </trkpt>
      <trkpt lat="43.13144" lon="1.15904">
        <ele>303.58007812</ele>
        <time>2021-10-17T07:02:28Z</time>
      </trkpt>
      <trkpt lat="43.13144" lon="1.15902">
        <ele>303.85006714</ele>
        <time>2021-10-17T07:02:29Z</time>
      </trkpt>
      <trkpt lat="43.13145" lon="1.15901">
        <ele>304.21005249</ele>
        <time>2021-10-17T07:02:30Z</time>
      </trkpt>
      <trkpt lat="43.13147" lon="1.15899">
        <ele>304.40005493</ele>
        <time>2021-10-17T07:02:31Z</time>
      </trkpt>
      <trkpt lat="43.13148" lon="1.15894">
        <ele>304.54006958</ele>
        <time>2021-10-17T07:02:32Z</time>
      </trkpt>
      <trkpt lat="43.13149" lon="1.15891">
        <ele>304.59005737</ele>
        <time>2021-10-17T07:02:33Z</time>
      </trkpt>
      <trkpt lat="43.13151" lon="1.15889">
        <ele>304.54006958</ele>
        <time>2021-10-17T07:02:34Z</time>
      </trkpt>
      <trkpt lat="43.13151" lon="1.15886">
        <ele>304.03005981</ele>
        <time>2021-10-17T07:02:35Z</time>
      </trkpt>
      <trkpt lat="43.13153" lon="1.1588">
        <ele>303.58004761</ele>
        <time>2021-10-17T07:02:36Z</time>
      </trkpt>
      <trkpt lat="43.13154" lon="1.15875">
        <ele>302.96005249</ele>
        <time>2021-10-17T07:02:37Z</time>
      </trkpt>
      <trkpt lat="43.13156" lon="1.15872">
        <ele>302.1600647</ele>
        <time>2021-10-17T07:02:38Z</time>
      </trkpt>
      <trkpt lat="43.13158" lon="1.1587">
        <ele>302.12005615</ele>
        <time>2021-10-17T07:02:39Z</time>
      </trkpt>
      <trkpt lat="43.1316" lon="1.15867">
        <ele>302.12005615</ele>
        <time>2021-10-17T07:02:40Z</time>
      </trkpt>
      <trkpt lat="43.13161" lon="1.15863">
        <ele>302.44006348</ele>
        <time>2021-10-17T07:02:41Z</time>
      </trkpt>
      <trkpt lat="43.13162" lon="1.1586">
        <ele>303.14007568</ele>
        <time>2021-10-17T07:02:42Z</time>
      </trkpt>
      <trkpt lat="43.13163" lon="1.15857">
        <ele>303.60006714</ele>
        <time>2021-10-17T07:02:43Z</time>
      </trkpt>
      <trkpt lat="43.13165" lon="1.15853">
        <ele>304.08007812</ele>
        <time>2021-10-17T07:02:44Z</time>
      </trkpt>
      <trkpt lat="43.13166" lon="1.15851">
        <ele>304.57006836</ele>
        <time>2021-10-17T07:02:45Z</time>
      </trkpt>
      <trkpt lat="43.13166" lon="1.15847">
        <ele>304.95007324</ele>
        <time>2021-10-17T07:02:46Z</time>
      </trkpt>
      <trkpt lat="43.13167" lon="1.15843">
        <ele>305.2600708</ele>
        <time>2021-10-17T07:02:47Z</time>
      </trkpt>
      <trkpt lat="43.13167" lon="1.1584">
        <ele>305.43008423</ele>
        <time>2021-10-17T07:02:48Z</time>
      </trkpt>
      <trkpt lat="43.13168" lon="1.15834">
        <ele>305.33007812</ele>
        <time>2021-10-17T07:02:49Z</time>
      </trkpt>
      <trkpt lat="43.13168" lon="1.1583">
        <ele>305.07006836</ele>
        <time>2021-10-17T07:02:50Z</time>
      </trkpt>
      <trkpt lat="43.13168" lon="1.15826">
        <ele>304.58007812</ele>
        <time>2021-10-17T07:02:51Z</time>
      </trkpt>
      <trkpt lat="43.13168" lon="1.15823">
        <ele>303.97009277</ele>
        <time>2021-10-17T07:02:52Z</time>
      </trkpt>
      <trkpt lat="43.1317" lon="1.15821">
        <ele>303.00009155</ele>
        <time>2021-10-17T07:02:53Z</time>
      </trkpt>
      <trkpt lat="43.13172" lon="1.15819">
        <ele>302.07009888</ele>
        <time>2021-10-17T07:02:54Z</time>
      </trkpt>
      <trkpt lat="43.13174" lon="1.15817">
        <ele>301.65008545</ele>
        <time>2021-10-17T07:02:55Z</time>
      </trkpt>
      <trkpt lat="43.13178" lon="1.15815">
        <ele>301.45007324</ele>
        <time>2021-10-17T07:02:56Z</time>
      </trkpt>
      <trkpt lat="43.1318" lon="1.15814">
        <ele>301.84008789</ele>
        <time>2021-10-17T07:02:57Z</time>
      </trkpt>
      <trkpt lat="43.13184" lon="1.15809">
        <ele>302.14007568</ele>
        <time>2021-10-17T07:02:58Z</time>
      </trkpt>
      <trkpt lat="43.13187" lon="1.15804">
        <ele>301.95007324</ele>
        <time>2021-10-17T07:02:59Z</time>
      </trkpt>
      <trkpt lat="43.1319" lon="1.15799">
        <ele>301.38006592</ele>
        <time>2021-10-17T07:03:00Z</time>
      </trkpt>
      <trkpt lat="43.13194" lon="1.15794">
        <ele>300.46005249</ele>
        <time>2021-10-17T07:03:01Z</time>
      </trkpt>
      <trkpt lat="43.13196" lon="1.15788">
        <ele>299.76004028</ele>
        <time>2021-10-17T07:03:02Z</time>
      </trkpt>
      <trkpt lat="43.132" lon="1.15781">
        <ele>299.2300415</ele>
        <time>2021-10-17T07:03:03Z</time>
      </trkpt>
      <trkpt lat="43.13202" lon="1.15776">
        <ele>299.0300293</ele>
        <time>2021-10-17T07:03:04Z</time>
      </trkpt>
      <trkpt lat="43.13204" lon="1.15771">
        <ele>298.97003174</ele>
        <time>2021-10-17T07:03:05Z</time>
      </trkpt>
      <trkpt lat="43.13205" lon="1.15767">
        <ele>298.8800354</ele>
        <time>2021-10-17T07:03:06Z</time>
      </trkpt>
      <trkpt lat="43.13208" lon="1.1576">
        <ele>298.77005005</ele>
        <time>2021-10-17T07:03:07Z</time>
      </trkpt>
      <trkpt lat="43.13209" lon="1.15756">
        <ele>298.55004883</ele>
        <time>2021-10-17T07:03:08Z</time>
      </trkpt>
      <trkpt lat="43.13212" lon="1.15751">
        <ele>298.3800354</ele>
        <time>2021-10-17T07:03:09Z</time>
      </trkpt>
      <trkpt lat="43.13214" lon="1.15747">
        <ele>298.00003052</ele>
        <time>2021-10-17T07:03:10Z</time>
      </trkpt>
      <trkpt lat="43.13217" lon="1.15742">
        <ele>297.46002197</ele>
        <time>2021-10-17T07:03:11Z</time>
      </trkpt>
      <trkpt lat="43.13222" lon="1.15734">
        <ele>296.95001221</ele>
        <time>2021-10-17T07:03:12Z</time>
      </trkpt>
      <trkpt lat="43.13224" lon="1.15729">
        <ele>296.38000488</ele>
        <time>2021-10-17T07:03:13Z</time>
      </trkpt>
      <trkpt lat="43.13226" lon="1.15724">
        <ele>295.98999023</ele>
        <time>2021-10-17T07:03:14Z</time>
      </trkpt>
      <trkpt lat="43.13228" lon="1.15718">
        <ele>295.75997925</ele>
        <time>2021-10-17T07:03:15Z</time>
      </trkpt>
      <trkpt lat="43.13231" lon="1.15714">
        <ele>295.56997681</ele>
        <time>2021-10-17T07:03:16Z</time>
      </trkpt>
      <trkpt lat="43.13232" lon="1.15712">
        <ele>295.50997925</ele>
        <time>2021-10-17T07:03:17Z</time>
      </trkpt>
      <trkpt lat="43.13234" lon="1.15711">
        <ele>295.41998291</ele>
        <time>2021-10-17T07:03:18Z</time>
      </trkpt>
      <trkpt lat="43.13238" lon="1.15709">
        <ele>295.36999512</ele>
        <time>2021-10-17T07:03:19Z</time>
      </trkpt>
      <trkpt lat="43.13241" lon="1.15708">
        <ele>295.29998779</ele>
        <time>2021-10-17T07:03:20Z</time>
      </trkpt>
      <trkpt lat="43.13242" lon="1.15707">
        <ele>295.22000122</ele>
        <time>2021-10-17T07:03:21Z</time>
      </trkpt>
      <trkpt lat="43.13245" lon="1.15704">
        <ele>295.11001587</ele>
        <time>2021-10-17T07:03:23Z</time>
      </trkpt>
      <trkpt lat="43.13248" lon="1.15701">
        <ele>295.07000732</ele>
        <time>2021-10-17T07:03:24Z</time>
      </trkpt>
      <trkpt lat="43.13251" lon="1.15698">
        <ele>294.91000366</ele>
        <time>2021-10-17T07:03:25Z</time>
      </trkpt>
      <trkpt lat="43.13252" lon="1.15696">
        <ele>294.70001221</ele>
        <time>2021-10-17T07:03:26Z</time>
      </trkpt>
      <trkpt lat="43.13254" lon="1.15696">
        <ele>294.59002686</ele>
        <time>2021-10-17T07:03:27Z</time>
      </trkpt>
      <trkpt lat="43.13255" lon="1.15695">
        <ele>294.4800415</ele>
        <time>2021-10-17T07:03:28Z</time>
      </trkpt>
      <trkpt lat="43.13255" lon="1.15694">
        <ele>294.57003784</ele>
        <time>2021-10-17T07:03:29Z</time>
      </trkpt>
      <trkpt lat="43.13257" lon="1.15693">
        <ele>294.69003296</ele>
        <time>2021-10-17T07:03:30Z</time>
      </trkpt>
      <trkpt lat="43.13259" lon="1.15693">
        <ele>294.70004272</ele>
        <time>2021-10-17T07:03:31Z</time>
      </trkpt>
      <trkpt lat="43.1326" lon="1.15692">
        <ele>294.75003052</ele>
        <time>2021-10-17T07:03:32Z</time>
      </trkpt>
      <trkpt lat="43.13262" lon="1.15691">
        <ele>294.72003174</ele>
        <time>2021-10-17T07:03:33Z</time>
      </trkpt>
      <trkpt lat="43.13263" lon="1.1569">
        <ele>294.67004395</ele>
        <time>2021-10-17T07:03:34Z</time>
      </trkpt>
      <trkpt lat="43.13265" lon="1.15688">
        <ele>294.68005371</ele>
        <time>2021-10-17T07:03:35Z</time>
      </trkpt>
      <trkpt lat="43.13266" lon="1.15687">
        <ele>294.65005493</ele>
        <time>2021-10-17T07:03:36Z</time>
      </trkpt>
      <trkpt lat="43.13268" lon="1.15686">
        <ele>294.65005493</ele>
        <time>2021-10-17T07:03:37Z</time>
      </trkpt>
      <trkpt lat="43.13269" lon="1.15685">
        <ele>294.63006592</ele>
        <time>2021-10-17T07:03:38Z</time>
      </trkpt>
      <trkpt lat="43.13271" lon="1.15682">
        <ele>294.60006714</ele>
        <time>2021-10-17T07:03:39Z</time>
      </trkpt>
      <trkpt lat="43.13271" lon="1.15681">
        <ele>294.53005981</ele>
        <time>2021-10-17T07:03:40Z</time>
      </trkpt>
      <trkpt lat="43.13272" lon="1.15679">
        <ele>294.47006226</ele>
        <time>2021-10-17T07:03:41Z</time>
      </trkpt>
      <trkpt lat="43.13274" lon="1.15678">
        <ele>294.33004761</ele>
        <time>2021-10-17T07:03:42Z</time>
      </trkpt>
      <trkpt lat="43.13276" lon="1.15677">
        <ele>294.31005859</ele>
        <time>2021-10-17T07:03:43Z</time>
      </trkpt>
      <trkpt lat="43.13278" lon="1.15676">
        <ele>294.27005005</ele>
        <time>2021-10-17T07:03:44Z</time>
      </trkpt>
      <trkpt lat="43.1328" lon="1.15676">
        <ele>294.32003784</ele>
        <time>2021-10-17T07:03:45Z</time>
      </trkpt>
      <trkpt lat="43.13282" lon="1.15675">
        <ele>294.44003296</ele>
        <time>2021-10-17T07:03:46Z</time>
      </trkpt>
      <trkpt lat="43.13284" lon="1.15674">
        <ele>294.44003296</ele>
        <time>2021-10-17T07:03:47Z</time>
      </trkpt>
      <trkpt lat="43.13287" lon="1.15672">
        <ele>294.51004028</ele>
        <time>2021-10-17T07:03:48Z</time>
      </trkpt>
      <trkpt lat="43.13289" lon="1.15671">
        <ele>294.46005249</ele>
        <time>2021-10-17T07:03:49Z</time>
      </trkpt>
      <trkpt lat="43.1329" lon="1.15671">
        <ele>294.47006226</ele>
        <time>2021-10-17T07:03:50Z</time>
      </trkpt>
      <trkpt lat="43.13292" lon="1.1567">
        <ele>294.52005005</ele>
        <time>2021-10-17T07:03:51Z</time>
      </trkpt>
      <trkpt lat="43.13295" lon="1.15668">
        <ele>294.57003784</ele>
        <time>2021-10-17T07:03:52Z</time>
      </trkpt>
      <trkpt lat="43.13296" lon="1.15667">
        <ele>294.64004517</ele>
        <time>2021-10-17T07:03:53Z</time>
      </trkpt>
      <trkpt lat="43.13298" lon="1.15666">
        <ele>294.76004028</ele>
        <time>2021-10-17T07:03:54Z</time>
      </trkpt>
      <trkpt lat="43.13299" lon="1.15666">
        <ele>294.80004883</ele>
        <time>2021-10-17T07:03:55Z</time>
      </trkpt>
      <trkpt lat="43.13301" lon="1.15665">
        <ele>294.82003784</ele>
        <time>2021-10-17T07:03:56Z</time>
      </trkpt>
      <trkpt lat="43.13304" lon="1.15663">
        <ele>294.80004883</ele>
        <time>2021-10-17T07:03:57Z</time>
      </trkpt>
      <trkpt lat="43.13306" lon="1.15661">
        <ele>294.60003662</ele>
        <time>2021-10-17T07:03:58Z</time>
      </trkpt>
      <trkpt lat="43.13309" lon="1.15659">
        <ele>294.41003418</ele>
        <time>2021-10-17T07:03:59Z</time>
      </trkpt>
      <trkpt lat="43.13311" lon="1.15658">
        <ele>294.19003296</ele>
        <time>2021-10-17T07:04:00Z</time>
      </trkpt>
      <trkpt lat="43.13313" lon="1.15655">
        <ele>293.76004028</ele>
        <time>2021-10-17T07:04:01Z</time>
      </trkpt>
      <trkpt lat="43.13315" lon="1.15653">
        <ele>293.32003784</ele>
        <time>2021-10-17T07:04:02Z</time>
      </trkpt>
      <trkpt lat="43.13317" lon="1.1565">
        <ele>293.10003662</ele>
        <time>2021-10-17T07:04:03Z</time>
      </trkpt>
      <trkpt lat="43.13318" lon="1.15647">
        <ele>292.85003662</ele>
        <time>2021-10-17T07:04:04Z</time>
      </trkpt>
      <trkpt lat="43.13318" lon="1.15645">
        <ele>292.85003662</ele>
        <time>2021-10-17T07:04:05Z</time>
      </trkpt>
      <trkpt lat="43.13319" lon="1.15641">
        <ele>293.06002808</ele>
        <time>2021-10-17T07:04:06Z</time>
      </trkpt>
      <trkpt lat="43.1332" lon="1.15638">
        <ele>293.01004028</ele>
        <time>2021-10-17T07:04:07Z</time>
      </trkpt>
      <trkpt lat="43.1332" lon="1.15635">
        <ele>293.04003906</ele>
        <time>2021-10-17T07:04:08Z</time>
      </trkpt>
      <trkpt lat="43.1332" lon="1.1563">
        <ele>293.10003662</ele>
        <time>2021-10-17T07:04:09Z</time>
      </trkpt>
      <trkpt lat="43.1332" lon="1.15624">
        <ele>293.00003052</ele>
        <time>2021-10-17T07:04:10Z</time>
      </trkpt>
      <trkpt lat="43.13319" lon="1.1562">
        <ele>293.08001709</ele>
        <time>2021-10-17T07:04:11Z</time>
      </trkpt>
      <trkpt lat="43.13319" lon="1.15616">
        <ele>293.17001343</ele>
        <time>2021-10-17T07:04:12Z</time>
      </trkpt>
      <trkpt lat="43.13319" lon="1.15613">
        <ele>293.18002319</ele>
        <time>2021-10-17T07:04:13Z</time>
      </trkpt>
      <trkpt lat="43.1332" lon="1.1561">
        <ele>293.37002563</ele>
        <time>2021-10-17T07:04:14Z</time>
      </trkpt>
      <trkpt lat="43.13319" lon="1.15604">
        <ele>293.45001221</ele>
        <time>2021-10-17T07:04:15Z</time>
      </trkpt>
      <trkpt lat="43.13319" lon="1.15601">
        <ele>293.52999878</ele>
        <time>2021-10-17T07:04:16Z</time>
      </trkpt>
      <trkpt lat="43.13319" lon="1.15597">
        <ele>293.67001343</ele>
        <time>2021-10-17T07:04:17Z</time>
      </trkpt>
      <trkpt lat="43.13319" lon="1.15593">
        <ele>293.63000488</ele>
        <time>2021-10-17T07:04:18Z</time>
      </trkpt>
      <trkpt lat="43.13319" lon="1.15588">
        <ele>293.64001465</ele>
        <time>2021-10-17T07:04:19Z</time>
      </trkpt>
      <trkpt lat="43.13319" lon="1.15585">
        <ele>293.55001831</ele>
        <time>2021-10-17T07:04:20Z</time>
      </trkpt>
      <trkpt lat="43.13319" lon="1.15582">
        <ele>293.48001099</ele>
        <time>2021-10-17T07:04:21Z</time>
      </trkpt>
      <trkpt lat="43.13319" lon="1.1558">
        <ele>293.48001099</ele>
        <time>2021-10-17T07:04:22Z</time>
      </trkpt>
      <trkpt lat="43.1332" lon="1.15577">
        <ele>293.44000244</ele>
        <time>2021-10-17T07:04:23Z</time>
      </trkpt>
      <trkpt lat="43.1332" lon="1.15575">
        <ele>293.44000244</ele>
        <time>2021-10-17T07:04:24Z</time>
      </trkpt>
      <trkpt lat="43.1332" lon="1.15573">
        <ele>293.41000366</ele>
        <time>2021-10-17T07:04:25Z</time>
      </trkpt>
      <trkpt lat="43.1332" lon="1.15571">
        <ele>293.3999939</ele>
        <time>2021-10-17T07:04:26Z</time>
      </trkpt>
      <trkpt lat="43.1332" lon="1.15568">
        <ele>293.38998413</ele>
        <time>2021-10-17T07:04:27Z</time>
      </trkpt>
      <trkpt lat="43.1332" lon="1.15564">
        <ele>293.31997681</ele>
        <time>2021-10-17T07:04:28Z</time>
      </trkpt>
      <trkpt lat="43.1332" lon="1.15561">
        <ele>293.25997925</ele>
        <time>2021-10-17T07:04:29Z</time>
      </trkpt>
      <trkpt lat="43.1332" lon="1.15558">
        <ele>293.1499939</ele>
        <time>2021-10-17T07:04:30Z</time>
      </trkpt>
      <trkpt lat="43.1332" lon="1.15556">
        <ele>293.04998779</ele>
        <time>2021-10-17T07:04:31Z</time>
      </trkpt>
      <trkpt lat="43.1332" lon="1.15553">
        <ele>293.05999756</ele>
        <time>2021-10-17T07:04:32Z</time>
      </trkpt>
      <trkpt lat="43.1332" lon="1.1555">
        <ele>293.07000732</ele>
        <time>2021-10-17T07:04:33Z</time>
      </trkpt>
      <trkpt lat="43.13321" lon="1.15548">
        <ele>293.16000366</ele>
        <time>2021-10-17T07:04:34Z</time>
      </trkpt>
      <trkpt lat="43.13321" lon="1.15545">
        <ele>293.25</ele>
        <time>2021-10-17T07:04:35Z</time>
      </trkpt>
      <trkpt lat="43.13322" lon="1.15543">
        <ele>293.26998901</ele>
        <time>2021-10-17T07:04:36Z</time>
      </trkpt>
      <trkpt lat="43.13323" lon="1.15538">
        <ele>293.31997681</ele>
        <time>2021-10-17T07:04:37Z</time>
      </trkpt>
      <trkpt lat="43.13323" lon="1.15535">
        <ele>293.22998047</ele>
        <time>2021-10-17T07:04:38Z</time>
      </trkpt>
      <trkpt lat="43.13323" lon="1.15531">
        <ele>293.10998535</ele>
        <time>2021-10-17T07:04:39Z</time>
      </trkpt>
      <trkpt lat="43.13323" lon="1.15528">
        <ele>293</ele>
        <time>2021-10-17T07:04:40Z</time>
      </trkpt>
      <trkpt lat="43.13323" lon="1.15525">
        <ele>292.8500061</ele>
        <time>2021-10-17T07:04:41Z</time>
      </trkpt>
      <trkpt lat="43.13323" lon="1.1552">
        <ele>292.83999634</ele>
        <time>2021-10-17T07:04:42Z</time>
      </trkpt>
      <trkpt lat="43.13323" lon="1.15517">
        <ele>292.82998657</ele>
        <time>2021-10-17T07:04:43Z</time>
      </trkpt>
      <trkpt lat="43.13323" lon="1.15513">
        <ele>292.87997437</ele>
        <time>2021-10-17T07:04:44Z</time>
      </trkpt>
      <trkpt lat="43.13323" lon="1.15509">
        <ele>292.82998657</ele>
        <time>2021-10-17T07:04:45Z</time>
      </trkpt>
      <trkpt lat="43.13324" lon="1.15506">
        <ele>292.79998779</ele>
        <time>2021-10-17T07:04:46Z</time>
      </trkpt>
      <trkpt lat="43.13325" lon="1.15502">
        <ele>292.79998779</ele>
        <time>2021-10-17T07:04:47Z</time>
      </trkpt>
      <trkpt lat="43.13325" lon="1.15498">
        <ele>292.75</ele>
        <time>2021-10-17T07:04:48Z</time>
      </trkpt>
      <trkpt lat="43.13325" lon="1.15495">
        <ele>292.97000122</ele>
        <time>2021-10-17T07:04:49Z</time>
      </trkpt>
      <trkpt lat="43.13325" lon="1.15492">
        <ele>292.92001343</ele>
        <time>2021-10-17T07:04:50Z</time>
      </trkpt>
      <trkpt lat="43.13325" lon="1.15487">
        <ele>292.90002441</ele>
        <time>2021-10-17T07:04:51Z</time>
      </trkpt>
      <trkpt lat="43.13325" lon="1.15485">
        <ele>292.91003418</ele>
        <time>2021-10-17T07:04:52Z</time>
      </trkpt>
      <trkpt lat="43.13325" lon="1.15481">
        <ele>292.82003784</ele>
        <time>2021-10-17T07:04:53Z</time>
      </trkpt>
      <trkpt lat="43.13325" lon="1.15477">
        <ele>292.7800293</ele>
        <time>2021-10-17T07:04:54Z</time>
      </trkpt>
      <trkpt lat="43.13326" lon="1.1547">
        <ele>292.68002319</ele>
        <time>2021-10-17T07:04:55Z</time>
      </trkpt>
      <trkpt lat="43.13326" lon="1.15466">
        <ele>292.64001465</ele>
        <time>2021-10-17T07:04:56Z</time>
      </trkpt>
      <trkpt lat="43.13327" lon="1.15462">
        <ele>292.52001953</ele>
        <time>2021-10-17T07:04:57Z</time>
      </trkpt>
      <trkpt lat="43.13327" lon="1.15458">
        <ele>292.63000488</ele>
        <time>2021-10-17T07:04:58Z</time>
      </trkpt>
      <trkpt lat="43.13327" lon="1.15454">
        <ele>292.77999878</ele>
        <time>2021-10-17T07:04:59Z</time>
      </trkpt>
      <trkpt lat="43.13327" lon="1.15448">
        <ele>292.8999939</ele>
        <time>2021-10-17T07:05:00Z</time>
      </trkpt>
      <trkpt lat="43.13328" lon="1.15446">
        <ele>293.16000366</ele>
        <time>2021-10-17T07:05:01Z</time>
      </trkpt>
      <trkpt lat="43.13329" lon="1.15442">
        <ele>293.26998901</ele>
        <time>2021-10-17T07:05:02Z</time>
      </trkpt>
      <trkpt lat="43.1333" lon="1.1544">
        <ele>293.44998169</ele>
        <time>2021-10-17T07:05:03Z</time>
      </trkpt>
      <trkpt lat="43.13331" lon="1.15437">
        <ele>293.69998169</ele>
        <time>2021-10-17T07:05:04Z</time>
      </trkpt>
      <trkpt lat="43.13332" lon="1.15435">
        <ele>294.03997803</ele>
        <time>2021-10-17T07:05:05Z</time>
      </trkpt>
      <trkpt lat="43.13334" lon="1.15432">
        <ele>294.43997192</ele>
        <time>2021-10-17T07:05:06Z</time>
      </trkpt>
      <trkpt lat="43.13335" lon="1.15429">
        <ele>294.7699585</ele>
        <time>2021-10-17T07:05:07Z</time>
      </trkpt>
      <trkpt lat="43.13336" lon="1.15426">
        <ele>295.0199585</ele>
        <time>2021-10-17T07:05:08Z</time>
      </trkpt>
      <trkpt lat="43.13338" lon="1.15421">
        <ele>295.08996582</ele>
        <time>2021-10-17T07:05:09Z</time>
      </trkpt>
      <trkpt lat="43.13338" lon="1.15418">
        <ele>295.2199707</ele>
        <time>2021-10-17T07:05:10Z</time>
      </trkpt>
      <trkpt lat="43.1334" lon="1.15414">
        <ele>295.34997559</ele>
        <time>2021-10-17T07:05:11Z</time>
      </trkpt>
      <trkpt lat="43.13342" lon="1.15409">
        <ele>295.37997437</ele>
        <time>2021-10-17T07:05:12Z</time>
      </trkpt>
      <trkpt lat="43.13345" lon="1.15402">
        <ele>295.2199707</ele>
        <time>2021-10-17T07:05:13Z</time>
      </trkpt>
      <trkpt lat="43.13347" lon="1.15398">
        <ele>294.90997314</ele>
        <time>2021-10-17T07:05:14Z</time>
      </trkpt>
      <trkpt lat="43.13349" lon="1.15393">
        <ele>294.53997803</ele>
        <time>2021-10-17T07:05:15Z</time>
      </trkpt>
      <trkpt lat="43.13352" lon="1.15389">
        <ele>293.91998291</ele>
        <time>2021-10-17T07:05:16Z</time>
      </trkpt>
      <trkpt lat="43.13354" lon="1.15384">
        <ele>293.29998779</ele>
        <time>2021-10-17T07:05:17Z</time>
      </trkpt>
      <trkpt lat="43.13357" lon="1.15374">
        <ele>292.69000244</ele>
        <time>2021-10-17T07:05:18Z</time>
      </trkpt>
      <trkpt lat="43.13358" lon="1.15368">
        <ele>292.16000366</ele>
        <time>2021-10-17T07:05:19Z</time>
      </trkpt>
      <trkpt lat="43.13359" lon="1.15363">
        <ele>291.76000977</ele>
        <time>2021-10-17T07:05:20Z</time>
      </trkpt>
      <trkpt lat="43.1336" lon="1.1536">
        <ele>291.58001709</ele>
        <time>2021-10-17T07:05:21Z</time>
      </trkpt>
      <trkpt lat="43.13363" lon="1.15354">
        <ele>291.64001465</ele>
        <time>2021-10-17T07:05:22Z</time>
      </trkpt>
      <trkpt lat="43.13365" lon="1.15348">
        <ele>291.54000854</ele>
        <time>2021-10-17T07:05:23Z</time>
      </trkpt>
      <trkpt lat="43.13368" lon="1.15341">
        <ele>291.55001831</ele>
        <time>2021-10-17T07:05:24Z</time>
      </trkpt>
      <trkpt lat="43.13369" lon="1.15336">
        <ele>291.49002075</ele>
        <time>2021-10-17T07:05:25Z</time>
      </trkpt>
      <trkpt lat="43.13371" lon="1.15331">
        <ele>291.21002197</ele>
        <time>2021-10-17T07:05:26Z</time>
      </trkpt>
      <trkpt lat="43.13373" lon="1.15324">
        <ele>291.16003418</ele>
        <time>2021-10-17T07:05:27Z</time>
      </trkpt>
      <trkpt lat="43.13375" lon="1.1532">
        <ele>291.22003174</ele>
        <time>2021-10-17T07:05:28Z</time>
      </trkpt>
      <trkpt lat="43.13377" lon="1.15315">
        <ele>291.43002319</ele>
        <time>2021-10-17T07:05:29Z</time>
      </trkpt>
      <trkpt lat="43.13379" lon="1.1531">
        <ele>291.71002197</ele>
        <time>2021-10-17T07:05:30Z</time>
      </trkpt>
      <trkpt lat="43.13381" lon="1.15303">
        <ele>291.89001465</ele>
        <time>2021-10-17T07:05:31Z</time>
      </trkpt>
      <trkpt lat="43.13382" lon="1.15299">
        <ele>292.11001587</ele>
        <time>2021-10-17T07:05:32Z</time>
      </trkpt>
      <trkpt lat="43.13382" lon="1.15294">
        <ele>292.21002197</ele>
        <time>2021-10-17T07:05:33Z</time>
      </trkpt>
      <trkpt lat="43.13382" lon="1.15288">
        <ele>292.21002197</ele>
        <time>2021-10-17T07:05:34Z</time>
      </trkpt>
      <trkpt lat="43.13385" lon="1.15283">
        <ele>292.24002075</ele>
        <time>2021-10-17T07:05:35Z</time>
      </trkpt>
      <trkpt lat="43.13387" lon="1.15273">
        <ele>292.21002197</ele>
        <time>2021-10-17T07:05:36Z</time>
      </trkpt>
      <trkpt lat="43.13389" lon="1.15267">
        <ele>292.15002441</ele>
        <time>2021-10-17T07:05:37Z</time>
      </trkpt>
      <trkpt lat="43.1339" lon="1.15261">
        <ele>292.18002319</ele>
        <time>2021-10-17T07:05:38Z</time>
      </trkpt>
      <trkpt lat="43.13391" lon="1.15257">
        <ele>292.25003052</ele>
        <time>2021-10-17T07:05:39Z</time>
      </trkpt>
      <trkpt lat="43.13392" lon="1.15251">
        <ele>292.30001831</ele>
        <time>2021-10-17T07:05:40Z</time>
      </trkpt>
      <trkpt lat="43.13392" lon="1.15247">
        <ele>292.36001587</ele>
        <time>2021-10-17T07:05:41Z</time>
      </trkpt>
      <trkpt lat="43.13393" lon="1.15243">
        <ele>292.51000977</ele>
        <time>2021-10-17T07:05:42Z</time>
      </trkpt>
      <trkpt lat="43.13394" lon="1.15238">
        <ele>292.72000122</ele>
        <time>2021-10-17T07:05:43Z</time>
      </trkpt>
      <trkpt lat="43.13395" lon="1.15233">
        <ele>292.94000244</ele>
        <time>2021-10-17T07:05:44Z</time>
      </trkpt>
      <trkpt lat="43.13396" lon="1.15225">
        <ele>293.19000244</ele>
        <time>2021-10-17T07:05:45Z</time>
      </trkpt>
      <trkpt lat="43.13397" lon="1.1522">
        <ele>293.42999268</ele>
        <time>2021-10-17T07:05:46Z</time>
      </trkpt>
      <trkpt lat="43.13397" lon="1.15215">
        <ele>293.63000488</ele>
        <time>2021-10-17T07:05:47Z</time>
      </trkpt>
      <trkpt lat="43.13397" lon="1.15212">
        <ele>293.92001343</ele>
        <time>2021-10-17T07:05:48Z</time>
      </trkpt>
      <trkpt lat="43.13398" lon="1.15207">
        <ele>294.29000854</ele>
        <time>2021-10-17T07:05:49Z</time>
      </trkpt>
      <trkpt lat="43.13399" lon="1.15203">
        <ele>294.6000061</ele>
        <time>2021-10-17T07:05:50Z</time>
      </trkpt>
      <trkpt lat="43.13399" lon="1.15199">
        <ele>294.98001099</ele>
        <time>2021-10-17T07:05:51Z</time>
      </trkpt>
      <trkpt lat="43.134" lon="1.15196">
        <ele>295.3500061</ele>
        <time>2021-10-17T07:05:52Z</time>
      </trkpt>
      <trkpt lat="43.134" lon="1.15193">
        <ele>295.70999146</ele>
        <time>2021-10-17T07:05:53Z</time>
      </trkpt>
      <trkpt lat="43.13401" lon="1.15187">
        <ele>296.05999756</ele>
        <time>2021-10-17T07:05:54Z</time>
      </trkpt>
      <trkpt lat="43.13402" lon="1.15183">
        <ele>296.29000854</ele>
        <time>2021-10-17T07:05:55Z</time>
      </trkpt>
      <trkpt lat="43.13403" lon="1.15179">
        <ele>296.42001343</ele>
        <time>2021-10-17T07:05:56Z</time>
      </trkpt>
      <trkpt lat="43.13404" lon="1.15175">
        <ele>296.49002075</ele>
        <time>2021-10-17T07:05:57Z</time>
      </trkpt>
      <trkpt lat="43.13405" lon="1.15169">
        <ele>296.43002319</ele>
        <time>2021-10-17T07:05:58Z</time>
      </trkpt>
      <trkpt lat="43.13406" lon="1.15165">
        <ele>296.32003784</ele>
        <time>2021-10-17T07:05:59Z</time>
      </trkpt>
      <trkpt lat="43.13407" lon="1.15161">
        <ele>296.26004028</ele>
        <time>2021-10-17T07:06:00Z</time>
      </trkpt>
      <trkpt lat="43.13408" lon="1.15157">
        <ele>295.99005127</ele>
        <time>2021-10-17T07:06:01Z</time>
      </trkpt>
      <trkpt lat="43.13408" lon="1.15153">
        <ele>295.95004272</ele>
        <time>2021-10-17T07:06:02Z</time>
      </trkpt>
      <trkpt lat="43.1341" lon="1.15147">
        <ele>296.04003906</ele>
        <time>2021-10-17T07:06:03Z</time>
      </trkpt>
      <trkpt lat="43.13411" lon="1.15142">
        <ele>296.04003906</ele>
        <time>2021-10-17T07:06:04Z</time>
      </trkpt>
      <trkpt lat="43.13412" lon="1.15138">
        <ele>296.16003418</ele>
        <time>2021-10-17T07:06:05Z</time>
      </trkpt>
      <trkpt lat="43.13413" lon="1.15134">
        <ele>296.16003418</ele>
        <time>2021-10-17T07:06:06Z</time>
      </trkpt>
      <trkpt lat="43.13415" lon="1.15128">
        <ele>295.94003296</ele>
        <time>2021-10-17T07:06:07Z</time>
      </trkpt>
      <trkpt lat="43.13416" lon="1.15124">
        <ele>295.77001953</ele>
        <time>2021-10-17T07:06:08Z</time>
      </trkpt>
      <trkpt lat="43.13417" lon="1.1512">
        <ele>295.57000732</ele>
        <time>2021-10-17T07:06:09Z</time>
      </trkpt>
      <trkpt lat="43.13417" lon="1.15115">
        <ele>295.36999512</ele>
        <time>2021-10-17T07:06:10Z</time>
      </trkpt>
      <trkpt lat="43.13417" lon="1.1511">
        <ele>295.38998413</ele>
        <time>2021-10-17T07:06:11Z</time>
      </trkpt>
      <trkpt lat="43.13418" lon="1.15103">
        <ele>295.24996948</ele>
        <time>2021-10-17T07:06:12Z</time>
      </trkpt>
      <trkpt lat="43.13419" lon="1.15098">
        <ele>295.07995605</ele>
        <time>2021-10-17T07:06:13Z</time>
      </trkpt>
      <trkpt lat="43.13419" lon="1.15093">
        <ele>294.98995972</ele>
        <time>2021-10-17T07:06:14Z</time>
      </trkpt>
      <trkpt lat="43.1342" lon="1.15089">
        <ele>294.66995239</ele>
        <time>2021-10-17T07:06:15Z</time>
      </trkpt>
      <trkpt lat="43.13421" lon="1.15085">
        <ele>294.42996216</ele>
        <time>2021-10-17T07:06:16Z</time>
      </trkpt>
      <trkpt lat="43.13423" lon="1.15079">
        <ele>294.3699646</ele>
        <time>2021-10-17T07:06:17Z</time>
      </trkpt>
      <trkpt lat="43.13424" lon="1.15074">
        <ele>294.16995239</ele>
        <time>2021-10-17T07:06:18Z</time>
      </trkpt>
      <trkpt lat="43.13426" lon="1.15069">
        <ele>294.00994873</ele>
        <time>2021-10-17T07:06:19Z</time>
      </trkpt>
      <trkpt lat="43.13427" lon="1.15064">
        <ele>293.88995361</ele>
        <time>2021-10-17T07:06:20Z</time>
      </trkpt>
      <trkpt lat="43.13429" lon="1.15057">
        <ele>293.68994141</ele>
        <time>2021-10-17T07:06:21Z</time>
      </trkpt>
      <trkpt lat="43.1343" lon="1.15053">
        <ele>293.53994751</ele>
        <time>2021-10-17T07:06:22Z</time>
      </trkpt>
      <trkpt lat="43.13432" lon="1.15048">
        <ele>293.48995972</ele>
        <time>2021-10-17T07:06:23Z</time>
      </trkpt>
      <trkpt lat="43.13434" lon="1.15042">
        <ele>293.42996216</ele>
        <time>2021-10-17T07:06:24Z</time>
      </trkpt>
      <trkpt lat="43.13436" lon="1.15035">
        <ele>293.3699646</ele>
        <time>2021-10-17T07:06:25Z</time>
      </trkpt>
      <trkpt lat="43.13438" lon="1.15031">
        <ele>293.3699646</ele>
        <time>2021-10-17T07:06:26Z</time>
      </trkpt>
      <trkpt lat="43.1344" lon="1.15026">
        <ele>293.35995483</ele>
        <time>2021-10-17T07:06:27Z</time>
      </trkpt>
      <trkpt lat="43.13442" lon="1.15022">
        <ele>293.35995483</ele>
        <time>2021-10-17T07:06:28Z</time>
      </trkpt>
      <trkpt lat="43.13442" lon="1.15017">
        <ele>293.3699646</ele>
        <time>2021-10-17T07:06:29Z</time>
      </trkpt>
      <trkpt lat="43.13444" lon="1.15011">
        <ele>293.29995728</ele>
        <time>2021-10-17T07:06:30Z</time>
      </trkpt>
      <trkpt lat="43.13445" lon="1.15007">
        <ele>293.17996216</ele>
        <time>2021-10-17T07:06:31Z</time>
      </trkpt>
      <trkpt lat="43.13447" lon="1.15001">
        <ele>293.10995483</ele>
        <time>2021-10-17T07:06:32Z</time>
      </trkpt>
      <trkpt lat="43.13448" lon="1.14997">
        <ele>293.02996826</ele>
        <time>2021-10-17T07:06:33Z</time>
      </trkpt>
      <trkpt lat="43.13451" lon="1.1499">
        <ele>292.98995972</ele>
        <time>2021-10-17T07:06:34Z</time>
      </trkpt>
      <trkpt lat="43.13452" lon="1.14985">
        <ele>292.92996216</ele>
        <time>2021-10-17T07:06:35Z</time>
      </trkpt>
      <trkpt lat="43.13453" lon="1.14981">
        <ele>292.92996216</ele>
        <time>2021-10-17T07:06:36Z</time>
      </trkpt>
      <trkpt lat="43.13454" lon="1.14977">
        <ele>292.7699585</ele>
        <time>2021-10-17T07:06:37Z</time>
      </trkpt>
      <trkpt lat="43.13454" lon="1.14973">
        <ele>292.57995605</ele>
        <time>2021-10-17T07:06:38Z</time>
      </trkpt>
      <trkpt lat="43.13455" lon="1.14968">
        <ele>292.33996582</ele>
        <time>2021-10-17T07:06:39Z</time>
      </trkpt>
      <trkpt lat="43.13456" lon="1.14965">
        <ele>292.19995117</ele>
        <time>2021-10-17T07:06:40Z</time>
      </trkpt>
      <trkpt lat="43.13458" lon="1.14962">
        <ele>292.19995117</ele>
        <time>2021-10-17T07:06:41Z</time>
      </trkpt>
      <trkpt lat="43.13459" lon="1.14959">
        <ele>292.10995483</ele>
        <time>2021-10-17T07:06:42Z</time>
      </trkpt>
      <trkpt lat="43.13462" lon="1.14953">
        <ele>292.00994873</ele>
        <time>2021-10-17T07:06:43Z</time>
      </trkpt>
      <trkpt lat="43.13463" lon="1.14949">
        <ele>291.78994751</ele>
        <time>2021-10-17T07:06:44Z</time>
      </trkpt>
      <trkpt lat="43.13464" lon="1.14945">
        <ele>291.62994385</ele>
        <time>2021-10-17T07:06:45Z</time>
      </trkpt>
      <trkpt lat="43.13465" lon="1.14941">
        <ele>291.4899292</ele>
        <time>2021-10-17T07:06:46Z</time>
      </trkpt>
      <trkpt lat="43.13466" lon="1.14936">
        <ele>291.52993774</ele>
        <time>2021-10-17T07:06:47Z</time>
      </trkpt>
      <trkpt lat="43.13469" lon="1.14929">
        <ele>291.50994873</ele>
        <time>2021-10-17T07:06:48Z</time>
      </trkpt>
      <trkpt lat="43.13471" lon="1.14924">
        <ele>291.25994873</ele>
        <time>2021-10-17T07:06:49Z</time>
      </trkpt>
      <trkpt lat="43.13472" lon="1.1492">
        <ele>291.16995239</ele>
        <time>2021-10-17T07:06:50Z</time>
      </trkpt>
      <trkpt lat="43.13474" lon="1.14916">
        <ele>291.14996338</ele>
        <time>2021-10-17T07:06:51Z</time>
      </trkpt>
      <trkpt lat="43.13475" lon="1.1491">
        <ele>291.28997803</ele>
        <time>2021-10-17T07:06:52Z</time>
      </trkpt>
      <trkpt lat="43.13476" lon="1.14906">
        <ele>291.52996826</ele>
        <time>2021-10-17T07:06:53Z</time>
      </trkpt>
      <trkpt lat="43.13476" lon="1.14903">
        <ele>291.78997803</ele>
        <time>2021-10-17T07:06:54Z</time>
      </trkpt>
      <trkpt lat="43.13476" lon="1.149">
        <ele>291.8699646</ele>
        <time>2021-10-17T07:06:55Z</time>
      </trkpt>
      <trkpt lat="43.13476" lon="1.14896">
        <ele>291.95996094</ele>
        <time>2021-10-17T07:06:56Z</time>
      </trkpt>
      <trkpt lat="43.13477" lon="1.14889">
        <ele>292.06994629</ele>
        <time>2021-10-17T07:06:57Z</time>
      </trkpt>
      <trkpt lat="43.13478" lon="1.14886">
        <ele>292.07995605</ele>
        <time>2021-10-17T07:06:58Z</time>
      </trkpt>
      <trkpt lat="43.1348" lon="1.14882">
        <ele>292.07995605</ele>
        <time>2021-10-17T07:06:59Z</time>
      </trkpt>
      <trkpt lat="43.1348" lon="1.14877">
        <ele>292.03994751</ele>
        <time>2021-10-17T07:07:00Z</time>
      </trkpt>
      <trkpt lat="43.13482" lon="1.14871">
        <ele>291.72994995</ele>
        <time>2021-10-17T07:07:01Z</time>
      </trkpt>
      <trkpt lat="43.13483" lon="1.14866">
        <ele>291.72994995</ele>
        <time>2021-10-17T07:07:02Z</time>
      </trkpt>
      <trkpt lat="43.13484" lon="1.1486">
        <ele>291.57995605</ele>
        <time>2021-10-17T07:07:03Z</time>
      </trkpt>
      <trkpt lat="43.13486" lon="1.14855">
        <ele>291.31994629</ele>
        <time>2021-10-17T07:07:04Z</time>
      </trkpt>
      <trkpt lat="43.13487" lon="1.14851">
        <ele>291.22994995</ele>
        <time>2021-10-17T07:07:05Z</time>
      </trkpt>
      <trkpt lat="43.13488" lon="1.14844">
        <ele>291.13995361</ele>
        <time>2021-10-17T07:07:06Z</time>
      </trkpt>
      <trkpt lat="43.13489" lon="1.14841">
        <ele>291.02996826</ele>
        <time>2021-10-17T07:07:07Z</time>
      </trkpt>
      <trkpt lat="43.13489" lon="1.14838">
        <ele>290.9699707</ele>
        <time>2021-10-17T07:07:08Z</time>
      </trkpt>
      <trkpt lat="43.13489" lon="1.14835">
        <ele>290.82995605</ele>
        <time>2021-10-17T07:07:09Z</time>
      </trkpt>
      <trkpt lat="43.1349" lon="1.14831">
        <ele>290.75994873</ele>
        <time>2021-10-17T07:07:10Z</time>
      </trkpt>
      <trkpt lat="43.1349" lon="1.14828">
        <ele>290.74993896</ele>
        <time>2021-10-17T07:07:11Z</time>
      </trkpt>
      <trkpt lat="43.13489" lon="1.14827">
        <ele>290.89993286</ele>
        <time>2021-10-17T07:07:12Z</time>
      </trkpt>
      <trkpt lat="43.13489" lon="1.14826">
        <ele>291.10992432</ele>
        <time>2021-10-17T07:07:13Z</time>
      </trkpt>
      <trkpt lat="43.13488" lon="1.14826">
        <ele>291.35992432</ele>
        <time>2021-10-17T07:07:14Z</time>
      </trkpt>
      <trkpt lat="43.13488" lon="1.14817">
        <ele>291.70993042</ele>
        <time>2021-10-17T07:07:20Z</time>
      </trkpt>
      <trkpt lat="43.13487" lon="1.14816">
        <ele>291.79992676</ele>
        <time>2021-10-17T07:07:21Z</time>
      </trkpt>
      <trkpt lat="43.13487" lon="1.14816">
        <ele>291.89993286</ele>
        <time>2021-10-17T07:07:22Z</time>
      </trkpt>
      <trkpt lat="43.13489" lon="1.14802">
        <ele>289.82992554</ele>
        <time>2021-10-17T07:07:46Z</time>
      </trkpt>
      <trkpt lat="43.1349" lon="1.14801">
        <ele>289.82992554</ele>
        <time>2021-10-17T07:07:47Z</time>
      </trkpt>
      <trkpt lat="43.1349" lon="1.14801">
        <ele>289.74993896</ele>
        <time>2021-10-17T07:07:48Z</time>
      </trkpt>
      <trkpt lat="43.1349" lon="1.14799">
        <ele>289.74993896</ele>
        <time>2021-10-17T07:07:49Z</time>
      </trkpt>
      <trkpt lat="43.13489" lon="1.14798">
        <ele>289.7399292</ele>
        <time>2021-10-17T07:07:50Z</time>
      </trkpt>
      <trkpt lat="43.1349" lon="1.14797">
        <ele>289.7399292</ele>
        <time>2021-10-17T07:07:51Z</time>
      </trkpt>
      <trkpt lat="43.1349" lon="1.14796">
        <ele>289.77993774</ele>
        <time>2021-10-17T07:07:52Z</time>
      </trkpt>
      <trkpt lat="43.13492" lon="1.14796">
        <ele>289.76992798</ele>
        <time>2021-10-17T07:07:53Z</time>
      </trkpt>
      <trkpt lat="43.13493" lon="1.14796">
        <ele>289.86993408</ele>
        <time>2021-10-17T07:07:54Z</time>
      </trkpt>
      <trkpt lat="43.13494" lon="1.14795">
        <ele>289.8899231</ele>
        <time>2021-10-17T07:07:55Z</time>
      </trkpt>
      <trkpt lat="43.13494" lon="1.14795">
        <ele>289.9899292</ele>
        <time>2021-10-17T07:07:56Z</time>
      </trkpt>
      <trkpt lat="43.13495" lon="1.14796">
        <ele>290.12994385</ele>
        <time>2021-10-17T07:07:57Z</time>
      </trkpt>
      <trkpt lat="43.13496" lon="1.14787">
        <ele>290.63995361</ele>
        <time>2021-10-17T07:08:26Z</time>
      </trkpt>
      <trkpt lat="43.13497" lon="1.14785">
        <ele>290.6199646</ele>
        <time>2021-10-17T07:08:27Z</time>
      </trkpt>
      <trkpt lat="43.13497" lon="1.14783">
        <ele>290.64996338</ele>
        <time>2021-10-17T07:08:28Z</time>
      </trkpt>
      <trkpt lat="43.13498" lon="1.14781">
        <ele>290.69995117</ele>
        <time>2021-10-17T07:08:29Z</time>
      </trkpt>
      <trkpt lat="43.13499" lon="1.14779">
        <ele>290.85995483</ele>
        <time>2021-10-17T07:08:30Z</time>
      </trkpt>
      <trkpt lat="43.13499" lon="1.14777">
        <ele>291.05996704</ele>
        <time>2021-10-17T07:08:31Z</time>
      </trkpt>
      <trkpt lat="43.135" lon="1.14775">
        <ele>291.32995605</ele>
        <time>2021-10-17T07:08:32Z</time>
      </trkpt>
      <trkpt lat="43.135" lon="1.14773">
        <ele>291.55996704</ele>
        <time>2021-10-17T07:08:33Z</time>
      </trkpt>
      <trkpt lat="43.135" lon="1.14771">
        <ele>291.73995972</ele>
        <time>2021-10-17T07:08:34Z</time>
      </trkpt>
      <trkpt lat="43.13501" lon="1.14769">
        <ele>291.9699707</ele>
        <time>2021-10-17T07:08:35Z</time>
      </trkpt>
      <trkpt lat="43.13502" lon="1.14765">
        <ele>292.05996704</ele>
        <time>2021-10-17T07:08:36Z</time>
      </trkpt>
      <trkpt lat="43.13503" lon="1.14763">
        <ele>292.29995728</ele>
        <time>2021-10-17T07:08:37Z</time>
      </trkpt>
      <trkpt lat="43.13502" lon="1.1476">
        <ele>292.55996704</ele>
        <time>2021-10-17T07:08:38Z</time>
      </trkpt>
      <trkpt lat="43.13503" lon="1.14757">
        <ele>292.83996582</ele>
        <time>2021-10-17T07:08:39Z</time>
      </trkpt>
      <trkpt lat="43.13503" lon="1.14752">
        <ele>293.12997437</ele>
        <time>2021-10-17T07:08:40Z</time>
      </trkpt>
      <trkpt lat="43.13504" lon="1.1475">
        <ele>293.29998779</ele>
        <time>2021-10-17T07:08:41Z</time>
      </trkpt>
      <trkpt lat="43.13504" lon="1.14748">
        <ele>293.55999756</ele>
        <time>2021-10-17T07:08:42Z</time>
      </trkpt>
      <trkpt lat="43.13504" lon="1.14745">
        <ele>293.82998657</ele>
        <time>2021-10-17T07:08:43Z</time>
      </trkpt>
      <trkpt lat="43.13504" lon="1.14743">
        <ele>294.08999634</ele>
        <time>2021-10-17T07:08:44Z</time>
      </trkpt>
      <trkpt lat="43.13505" lon="1.14738">
        <ele>294.25</ele>
        <time>2021-10-17T07:08:45Z</time>
      </trkpt>
      <trkpt lat="43.13507" lon="1.14737">
        <ele>294.48999023</ele>
        <time>2021-10-17T07:08:46Z</time>
      </trkpt>
      <trkpt lat="43.13508" lon="1.14734">
        <ele>294.51998901</ele>
        <time>2021-10-17T07:08:47Z</time>
      </trkpt>
      <trkpt lat="43.13509" lon="1.14731">
        <ele>294.56997681</ele>
        <time>2021-10-17T07:08:48Z</time>
      </trkpt>
      <trkpt lat="43.1351" lon="1.14727">
        <ele>294.73999023</ele>
        <time>2021-10-17T07:08:49Z</time>
      </trkpt>
      <trkpt lat="43.13511" lon="1.14724">
        <ele>294.66998291</ele>
        <time>2021-10-17T07:08:50Z</time>
      </trkpt>
      <trkpt lat="43.13512" lon="1.14722">
        <ele>294.83999634</ele>
        <time>2021-10-17T07:08:51Z</time>
      </trkpt>
      <trkpt lat="43.13512" lon="1.14719">
        <ele>295.05999756</ele>
        <time>2021-10-17T07:08:52Z</time>
      </trkpt>
      <trkpt lat="43.13513" lon="1.14716">
        <ele>295.20001221</ele>
        <time>2021-10-17T07:08:53Z</time>
      </trkpt>
      <trkpt lat="43.13516" lon="1.14714">
        <ele>295.47000122</ele>
        <time>2021-10-17T07:08:54Z</time>
      </trkpt>
      <trkpt lat="43.13517" lon="1.14712">
        <ele>295.67999268</ele>
        <time>2021-10-17T07:08:55Z</time>
      </trkpt>
      <trkpt lat="43.13518" lon="1.14709">
        <ele>295.82000732</ele>
        <time>2021-10-17T07:08:56Z</time>
      </trkpt>
      <trkpt lat="43.13519" lon="1.14707">
        <ele>296.02999878</ele>
        <time>2021-10-17T07:08:57Z</time>
      </trkpt>
      <trkpt lat="43.1352" lon="1.14705">
        <ele>296.08999634</ele>
        <time>2021-10-17T07:08:58Z</time>
      </trkpt>
      <trkpt lat="43.13521" lon="1.14703">
        <ele>296.05999756</ele>
        <time>2021-10-17T07:08:59Z</time>
      </trkpt>
      <trkpt lat="43.13522" lon="1.14701">
        <ele>296.04000854</ele>
        <time>2021-10-17T07:09:00Z</time>
      </trkpt>
      <trkpt lat="43.13523" lon="1.14699">
        <ele>295.97000122</ele>
        <time>2021-10-17T07:09:01Z</time>
      </trkpt>
      <trkpt lat="43.13524" lon="1.14696">
        <ele>296.01000977</ele>
        <time>2021-10-17T07:09:02Z</time>
      </trkpt>
      <trkpt lat="43.13526" lon="1.14694">
        <ele>295.98001099</ele>
        <time>2021-10-17T07:09:03Z</time>
      </trkpt>
      <trkpt lat="43.13529" lon="1.14693">
        <ele>295.92001343</ele>
        <time>2021-10-17T07:09:04Z</time>
      </trkpt>
      <trkpt lat="43.13531" lon="1.1469">
        <ele>295.75</ele>
        <time>2021-10-17T07:09:05Z</time>
      </trkpt>
      <trkpt lat="43.13533" lon="1.14686">
        <ele>295.54998779</ele>
        <time>2021-10-17T07:09:06Z</time>
      </trkpt>
      <trkpt lat="43.13535" lon="1.14684">
        <ele>295.5</ele>
        <time>2021-10-17T07:09:07Z</time>
      </trkpt>
      <trkpt lat="43.13539" lon="1.14679">
        <ele>295.48001099</ele>
        <time>2021-10-17T07:09:08Z</time>
      </trkpt>
      <trkpt lat="43.13541" lon="1.14677">
        <ele>295.61001587</ele>
        <time>2021-10-17T07:09:09Z</time>
      </trkpt>
      <trkpt lat="43.13542" lon="1.14674">
        <ele>295.72000122</ele>
        <time>2021-10-17T07:09:10Z</time>
      </trkpt>
      <trkpt lat="43.13543" lon="1.14671">
        <ele>295.76000977</ele>
        <time>2021-10-17T07:09:11Z</time>
      </trkpt>
      <trkpt lat="43.13545" lon="1.14665">
        <ele>295.83001709</ele>
        <time>2021-10-17T07:09:12Z</time>
      </trkpt>
      <trkpt lat="43.13546" lon="1.1466">
        <ele>295.84002686</ele>
        <time>2021-10-17T07:09:13Z</time>
      </trkpt>
      <trkpt lat="43.13547" lon="1.14655">
        <ele>295.81002808</ele>
        <time>2021-10-17T07:09:14Z</time>
      </trkpt>
      <trkpt lat="43.13548" lon="1.14651">
        <ele>295.75003052</ele>
        <time>2021-10-17T07:09:15Z</time>
      </trkpt>
      <trkpt lat="43.13549" lon="1.14644">
        <ele>295.74002075</ele>
        <time>2021-10-17T07:09:16Z</time>
      </trkpt>
      <trkpt lat="43.13549" lon="1.14639">
        <ele>295.72003174</ele>
        <time>2021-10-17T07:09:17Z</time>
      </trkpt>
      <trkpt lat="43.1355" lon="1.14635">
        <ele>295.70004272</ele>
        <time>2021-10-17T07:09:18Z</time>
      </trkpt>
      <trkpt lat="43.13552" lon="1.1463">
        <ele>295.82003784</ele>
        <time>2021-10-17T07:09:19Z</time>
      </trkpt>
      <trkpt lat="43.13553" lon="1.14626">
        <ele>295.85003662</ele>
        <time>2021-10-17T07:09:20Z</time>
      </trkpt>
      <trkpt lat="43.13556" lon="1.1462">
        <ele>295.94003296</ele>
        <time>2021-10-17T07:09:21Z</time>
      </trkpt>
      <trkpt lat="43.13557" lon="1.14616">
        <ele>296.04003906</ele>
        <time>2021-10-17T07:09:22Z</time>
      </trkpt>
      <trkpt lat="43.13558" lon="1.14612">
        <ele>296.00003052</ele>
        <time>2021-10-17T07:09:23Z</time>
      </trkpt>
      <trkpt lat="43.13559" lon="1.14608">
        <ele>296.0300293</ele>
        <time>2021-10-17T07:09:24Z</time>
      </trkpt>
      <trkpt lat="43.1356" lon="1.14604">
        <ele>296.02001953</ele>
        <time>2021-10-17T07:09:25Z</time>
      </trkpt>
      <trkpt lat="43.13561" lon="1.146">
        <ele>296.14001465</ele>
        <time>2021-10-17T07:09:26Z</time>
      </trkpt>
      <trkpt lat="43.13561" lon="1.14596">
        <ele>296.21002197</ele>
        <time>2021-10-17T07:09:27Z</time>
      </trkpt>
      <trkpt lat="43.13562" lon="1.14591">
        <ele>296.29000854</ele>
        <time>2021-10-17T07:09:28Z</time>
      </trkpt>
      <trkpt lat="43.13563" lon="1.14587">
        <ele>296.3999939</ele>
        <time>2021-10-17T07:09:29Z</time>
      </trkpt>
      <trkpt lat="43.13565" lon="1.1458">
        <ele>296.47000122</ele>
        <time>2021-10-17T07:09:30Z</time>
      </trkpt>
      <trkpt lat="43.13565" lon="1.14576">
        <ele>296.57000732</ele>
        <time>2021-10-17T07:09:31Z</time>
      </trkpt>
      <trkpt lat="43.13566" lon="1.14572">
        <ele>296.82000732</ele>
        <time>2021-10-17T07:09:32Z</time>
      </trkpt>
      <trkpt lat="43.13566" lon="1.14567">
        <ele>296.97000122</ele>
        <time>2021-10-17T07:09:33Z</time>
      </trkpt>
      <trkpt lat="43.13567" lon="1.14563">
        <ele>297.14001465</ele>
        <time>2021-10-17T07:09:34Z</time>
      </trkpt>
      <trkpt lat="43.13566" lon="1.14558">
        <ele>297.48001099</ele>
        <time>2021-10-17T07:09:35Z</time>
      </trkpt>
      <trkpt lat="43.13566" lon="1.14554">
        <ele>297.62002563</ele>
        <time>2021-10-17T07:09:36Z</time>
      </trkpt>
      <trkpt lat="43.13566" lon="1.1455">
        <ele>298.00003052</ele>
        <time>2021-10-17T07:09:37Z</time>
      </trkpt>
      <trkpt lat="43.13565" lon="1.14547">
        <ele>298.36001587</ele>
        <time>2021-10-17T07:09:38Z</time>
      </trkpt>
      <trkpt lat="43.13565" lon="1.14542">
        <ele>298.73001099</ele>
        <time>2021-10-17T07:09:39Z</time>
      </trkpt>
      <trkpt lat="43.13564" lon="1.1454">
        <ele>299.15002441</ele>
        <time>2021-10-17T07:09:40Z</time>
      </trkpt>
      <trkpt lat="43.13563" lon="1.14536">
        <ele>299.47003174</ele>
        <time>2021-10-17T07:09:41Z</time>
      </trkpt>
      <trkpt lat="43.13563" lon="1.14532">
        <ele>299.69003296</ele>
        <time>2021-10-17T07:09:42Z</time>
      </trkpt>
      <trkpt lat="43.13563" lon="1.14528">
        <ele>299.75003052</ele>
        <time>2021-10-17T07:09:43Z</time>
      </trkpt>
      <trkpt lat="43.13564" lon="1.14522">
        <ele>299.65002441</ele>
        <time>2021-10-17T07:09:44Z</time>
      </trkpt>
      <trkpt lat="43.13565" lon="1.14517">
        <ele>299.43002319</ele>
        <time>2021-10-17T07:09:45Z</time>
      </trkpt>
      <trkpt lat="43.13567" lon="1.14513">
        <ele>299.15002441</ele>
        <time>2021-10-17T07:09:46Z</time>
      </trkpt>
      <trkpt lat="43.13568" lon="1.14509">
        <ele>298.87002563</ele>
        <time>2021-10-17T07:09:47Z</time>
      </trkpt>
      <trkpt lat="43.1357" lon="1.14503">
        <ele>298.60003662</ele>
        <time>2021-10-17T07:09:48Z</time>
      </trkpt>
      <trkpt lat="43.13572" lon="1.145">
        <ele>298.32003784</ele>
        <time>2021-10-17T07:09:49Z</time>
      </trkpt>
      <trkpt lat="43.13575" lon="1.14497">
        <ele>298.12002563</ele>
        <time>2021-10-17T07:09:50Z</time>
      </trkpt>
      <trkpt lat="43.13577" lon="1.14494">
        <ele>297.93002319</ele>
        <time>2021-10-17T07:09:51Z</time>
      </trkpt>
      <trkpt lat="43.1358" lon="1.14487">
        <ele>297.7800293</ele>
        <time>2021-10-17T07:09:52Z</time>
      </trkpt>
      <trkpt lat="43.13581" lon="1.14483">
        <ele>297.62002563</ele>
        <time>2021-10-17T07:09:53Z</time>
      </trkpt>
      <trkpt lat="43.13583" lon="1.14479">
        <ele>297.46002197</ele>
        <time>2021-10-17T07:09:54Z</time>
      </trkpt>
      <trkpt lat="43.13585" lon="1.14474">
        <ele>297.26000977</ele>
        <time>2021-10-17T07:09:55Z</time>
      </trkpt>
      <trkpt lat="43.13587" lon="1.14469">
        <ele>296.98001099</ele>
        <time>2021-10-17T07:09:56Z</time>
      </trkpt>
      <trkpt lat="43.1359" lon="1.14462">
        <ele>296.73001099</ele>
        <time>2021-10-17T07:09:57Z</time>
      </trkpt>
      <trkpt lat="43.13593" lon="1.14458">
        <ele>296.47000122</ele>
        <time>2021-10-17T07:09:58Z</time>
      </trkpt>
      <trkpt lat="43.13596" lon="1.14454">
        <ele>296.25</ele>
        <time>2021-10-17T07:09:59Z</time>
      </trkpt>
      <trkpt lat="43.13599" lon="1.1445">
        <ele>296.10998535</ele>
        <time>2021-10-17T07:10:00Z</time>
      </trkpt>
      <trkpt lat="43.13602" lon="1.14445">
        <ele>295.94998169</ele>
        <time>2021-10-17T07:10:01Z</time>
      </trkpt>
      <trkpt lat="43.13606" lon="1.14438">
        <ele>295.74996948</ele>
        <time>2021-10-17T07:10:02Z</time>
      </trkpt>
      <trkpt lat="43.1361" lon="1.14434">
        <ele>295.52996826</ele>
        <time>2021-10-17T07:10:03Z</time>
      </trkpt>
      <trkpt lat="43.13613" lon="1.1443">
        <ele>295.30996704</ele>
        <time>2021-10-17T07:10:04Z</time>
      </trkpt>
      <trkpt lat="43.13617" lon="1.14426">
        <ele>295.12997437</ele>
        <time>2021-10-17T07:10:05Z</time>
      </trkpt>
      <trkpt lat="43.13623" lon="1.14422">
        <ele>294.90997314</ele>
        <time>2021-10-17T07:10:06Z</time>
      </trkpt>
      <trkpt lat="43.13627" lon="1.14418">
        <ele>294.68997192</ele>
        <time>2021-10-17T07:10:07Z</time>
      </trkpt>
      <trkpt lat="43.1363" lon="1.14415">
        <ele>294.42996216</ele>
        <time>2021-10-17T07:10:08Z</time>
      </trkpt>
      <trkpt lat="43.13635" lon="1.14411">
        <ele>294.04995728</ele>
        <time>2021-10-17T07:10:09Z</time>
      </trkpt>
      <trkpt lat="43.1364" lon="1.14405">
        <ele>293.7199707</ele>
        <time>2021-10-17T07:10:10Z</time>
      </trkpt>
      <trkpt lat="43.13643" lon="1.14402">
        <ele>293.39996338</ele>
        <time>2021-10-17T07:10:11Z</time>
      </trkpt>
      <trkpt lat="43.13647" lon="1.14398">
        <ele>293.08996582</ele>
        <time>2021-10-17T07:10:12Z</time>
      </trkpt>
      <trkpt lat="43.13651" lon="1.14393">
        <ele>292.87997437</ele>
        <time>2021-10-17T07:10:13Z</time>
      </trkpt>
      <trkpt lat="43.13655" lon="1.14389">
        <ele>292.56997681</ele>
        <time>2021-10-17T07:10:14Z</time>
      </trkpt>
      <trkpt lat="43.1366" lon="1.14382">
        <ele>292.17996216</ele>
        <time>2021-10-17T07:10:15Z</time>
      </trkpt>
      <trkpt lat="43.13664" lon="1.14377">
        <ele>291.84997559</ele>
        <time>2021-10-17T07:10:16Z</time>
      </trkpt>
      <trkpt lat="43.13668" lon="1.14372">
        <ele>291.60998535</ele>
        <time>2021-10-17T07:10:17Z</time>
      </trkpt>
      <trkpt lat="43.13672" lon="1.14368">
        <ele>291.48999023</ele>
        <time>2021-10-17T07:10:18Z</time>
      </trkpt>
      <trkpt lat="43.13677" lon="1.1436">
        <ele>291.47000122</ele>
        <time>2021-10-17T07:10:19Z</time>
      </trkpt>
      <trkpt lat="43.1368" lon="1.14356">
        <ele>291.36999512</ele>
        <time>2021-10-17T07:10:20Z</time>
      </trkpt>
      <trkpt lat="43.13683" lon="1.1435">
        <ele>291.26998901</ele>
        <time>2021-10-17T07:10:21Z</time>
      </trkpt>
      <trkpt lat="43.13686" lon="1.14344">
        <ele>291.12997437</ele>
        <time>2021-10-17T07:10:22Z</time>
      </trkpt>
      <trkpt lat="43.13689" lon="1.14338">
        <ele>290.94998169</ele>
        <time>2021-10-17T07:10:23Z</time>
      </trkpt>
      <trkpt lat="43.13693" lon="1.14328">
        <ele>290.68997192</ele>
        <time>2021-10-17T07:10:24Z</time>
      </trkpt>
      <trkpt lat="43.13696" lon="1.14321">
        <ele>290.28997803</ele>
        <time>2021-10-17T07:10:25Z</time>
      </trkpt>
      <trkpt lat="43.13698" lon="1.14315">
        <ele>289.94998169</ele>
        <time>2021-10-17T07:10:26Z</time>
      </trkpt>
      <trkpt lat="43.13702" lon="1.14309">
        <ele>289.61999512</ele>
        <time>2021-10-17T07:10:27Z</time>
      </trkpt>
      <trkpt lat="43.13707" lon="1.14301">
        <ele>289.38998413</ele>
        <time>2021-10-17T07:10:28Z</time>
      </trkpt>
      <trkpt lat="43.13711" lon="1.14296">
        <ele>289.16998291</ele>
        <time>2021-10-17T07:10:29Z</time>
      </trkpt>
      <trkpt lat="43.13716" lon="1.14292">
        <ele>288.88998413</ele>
        <time>2021-10-17T07:10:30Z</time>
      </trkpt>
      <trkpt lat="43.13721" lon="1.14288">
        <ele>288.65997314</ele>
        <time>2021-10-17T07:10:31Z</time>
      </trkpt>
      <trkpt lat="43.13726" lon="1.14287">
        <ele>288.4699707</ele>
        <time>2021-10-17T07:10:32Z</time>
      </trkpt>
      <trkpt lat="43.13734" lon="1.14285">
        <ele>288.28997803</ele>
        <time>2021-10-17T07:10:33Z</time>
      </trkpt>
      <trkpt lat="43.13739" lon="1.14284">
        <ele>288.2199707</ele>
        <time>2021-10-17T07:10:34Z</time>
      </trkpt>
      <trkpt lat="43.13744" lon="1.14282">
        <ele>288.20996094</ele>
        <time>2021-10-17T07:10:35Z</time>
      </trkpt>
      <trkpt lat="43.13749" lon="1.14281">
        <ele>288.15997314</ele>
        <time>2021-10-17T07:10:36Z</time>
      </trkpt>
      <trkpt lat="43.13756" lon="1.14281">
        <ele>288.16998291</ele>
        <time>2021-10-17T07:10:37Z</time>
      </trkpt>
      <trkpt lat="43.13762" lon="1.14281">
        <ele>288.1499939</ele>
        <time>2021-10-17T07:10:38Z</time>
      </trkpt>
      <trkpt lat="43.13767" lon="1.14281">
        <ele>288.1000061</ele>
        <time>2021-10-17T07:10:39Z</time>
      </trkpt>
      <trkpt lat="43.13771" lon="1.14281">
        <ele>288.1499939</ele>
        <time>2021-10-17T07:10:40Z</time>
      </trkpt>
      <trkpt lat="43.13775" lon="1.14281">
        <ele>288.25</ele>
        <time>2021-10-17T07:10:41Z</time>
      </trkpt>
      <trkpt lat="43.1378" lon="1.14281">
        <ele>288.3999939</ele>
        <time>2021-10-17T07:10:42Z</time>
      </trkpt>
      <trkpt lat="43.13783" lon="1.14281">
        <ele>288.57000732</ele>
        <time>2021-10-17T07:10:43Z</time>
      </trkpt>
      <trkpt lat="43.13786" lon="1.14281">
        <ele>288.74002075</ele>
        <time>2021-10-17T07:10:44Z</time>
      </trkpt>
      <trkpt lat="43.13789" lon="1.1428">
        <ele>288.8800354</ele>
        <time>2021-10-17T07:10:45Z</time>
      </trkpt>
      <trkpt lat="43.13792" lon="1.14279">
        <ele>289.00003052</ele>
        <time>2021-10-17T07:10:46Z</time>
      </trkpt>
      <trkpt lat="43.13795" lon="1.14276">
        <ele>289.09002686</ele>
        <time>2021-10-17T07:10:47Z</time>
      </trkpt>
      <trkpt lat="43.13795" lon="1.14272">
        <ele>289.12002563</ele>
        <time>2021-10-17T07:10:48Z</time>
      </trkpt>
      <trkpt lat="43.13795" lon="1.14268">
        <ele>289.16003418</ele>
        <time>2021-10-17T07:10:49Z</time>
      </trkpt>
      <trkpt lat="43.13795" lon="1.14264">
        <ele>289.15002441</ele>
        <time>2021-10-17T07:10:50Z</time>
      </trkpt>
      <trkpt lat="43.13796" lon="1.14258">
        <ele>289.1300354</ele>
        <time>2021-10-17T07:10:51Z</time>
      </trkpt>
      <trkpt lat="43.13796" lon="1.14254">
        <ele>289.1300354</ele>
        <time>2021-10-17T07:10:52Z</time>
      </trkpt>
      <trkpt lat="43.13796" lon="1.1425">
        <ele>289.20004272</ele>
        <time>2021-10-17T07:10:53Z</time>
      </trkpt>
      <trkpt lat="43.13796" lon="1.14246">
        <ele>289.30004883</ele>
        <time>2021-10-17T07:10:54Z</time>
      </trkpt>
      <trkpt lat="43.13796" lon="1.1424">
        <ele>289.46005249</ele>
        <time>2021-10-17T07:10:55Z</time>
      </trkpt>
      <trkpt lat="43.13796" lon="1.14236">
        <ele>289.61004639</ele>
        <time>2021-10-17T07:10:56Z</time>
      </trkpt>
      <trkpt lat="43.13797" lon="1.14232">
        <ele>289.65005493</ele>
        <time>2021-10-17T07:10:57Z</time>
      </trkpt>
      <trkpt lat="43.13797" lon="1.14228">
        <ele>289.74005127</ele>
        <time>2021-10-17T07:10:58Z</time>
      </trkpt>
      <trkpt lat="43.13797" lon="1.14224">
        <ele>289.77005005</ele>
        <time>2021-10-17T07:10:59Z</time>
      </trkpt>
      <trkpt lat="43.13797" lon="1.14218">
        <ele>289.86004639</ele>
        <time>2021-10-17T07:11:00Z</time>
      </trkpt>
      <trkpt lat="43.13797" lon="1.14214">
        <ele>289.9800415</ele>
        <time>2021-10-17T07:11:01Z</time>
      </trkpt>
      <trkpt lat="43.13797" lon="1.1421">
        <ele>290.09002686</ele>
        <time>2021-10-17T07:11:02Z</time>
      </trkpt>
      <trkpt lat="43.13797" lon="1.14206">
        <ele>290.2800293</ele>
        <time>2021-10-17T07:11:03Z</time>
      </trkpt>
      <trkpt lat="43.13797" lon="1.14202">
        <ele>290.44003296</ele>
        <time>2021-10-17T07:11:04Z</time>
      </trkpt>
      <trkpt lat="43.13797" lon="1.14196">
        <ele>290.65002441</ele>
        <time>2021-10-17T07:11:05Z</time>
      </trkpt>
      <trkpt lat="43.13797" lon="1.14192">
        <ele>290.79003906</ele>
        <time>2021-10-17T07:11:06Z</time>
      </trkpt>
      <trkpt lat="43.13797" lon="1.14187">
        <ele>290.96005249</ele>
        <time>2021-10-17T07:11:07Z</time>
      </trkpt>
      <trkpt lat="43.13797" lon="1.14183">
        <ele>291.11004639</ele>
        <time>2021-10-17T07:11:08Z</time>
      </trkpt>
      <trkpt lat="43.13796" lon="1.14176">
        <ele>291.22003174</ele>
        <time>2021-10-17T07:11:09Z</time>
      </trkpt>
      <trkpt lat="43.13796" lon="1.14171">
        <ele>291.34002686</ele>
        <time>2021-10-17T07:11:10Z</time>
      </trkpt>
      <trkpt lat="43.13796" lon="1.14167">
        <ele>291.44003296</ele>
        <time>2021-10-17T07:11:11Z</time>
      </trkpt>
      <trkpt lat="43.13795" lon="1.14163">
        <ele>291.52001953</ele>
        <time>2021-10-17T07:11:12Z</time>
      </trkpt>
      <trkpt lat="43.13795" lon="1.14157">
        <ele>291.6000061</ele>
        <time>2021-10-17T07:11:13Z</time>
      </trkpt>
      <trkpt lat="43.13795" lon="1.14153">
        <ele>291.70001221</ele>
        <time>2021-10-17T07:11:14Z</time>
      </trkpt>
      <trkpt lat="43.13795" lon="1.1415">
        <ele>291.77999878</ele>
        <time>2021-10-17T07:11:15Z</time>
      </trkpt>
      <trkpt lat="43.13796" lon="1.14146">
        <ele>291.88000488</ele>
        <time>2021-10-17T07:11:16Z</time>
      </trkpt>
      <trkpt lat="43.13797" lon="1.14142">
        <ele>291.98001099</ele>
        <time>2021-10-17T07:11:17Z</time>
      </trkpt>
      <trkpt lat="43.13798" lon="1.14137">
        <ele>292.11001587</ele>
        <time>2021-10-17T07:11:18Z</time>
      </trkpt>
      <trkpt lat="43.13799" lon="1.14133">
        <ele>292.19000244</ele>
        <time>2021-10-17T07:11:19Z</time>
      </trkpt>
      <trkpt lat="43.138" lon="1.14129">
        <ele>292.26998901</ele>
        <time>2021-10-17T07:11:20Z</time>
      </trkpt>
      <trkpt lat="43.13801" lon="1.14127">
        <ele>292.32998657</ele>
        <time>2021-10-17T07:11:21Z</time>
      </trkpt>
      <trkpt lat="43.13803" lon="1.14124">
        <ele>292.45999146</ele>
        <time>2021-10-17T07:11:22Z</time>
      </trkpt>
      <trkpt lat="43.13805" lon="1.14122">
        <ele>292.72998047</ele>
        <time>2021-10-17T07:11:23Z</time>
      </trkpt>
      <trkpt lat="43.13807" lon="1.1412">
        <ele>293.02996826</ele>
        <time>2021-10-17T07:11:24Z</time>
      </trkpt>
      <trkpt lat="43.1381" lon="1.14119">
        <ele>293.49996948</ele>
        <time>2021-10-17T07:11:25Z</time>
      </trkpt>
      <trkpt lat="43.13811" lon="1.14118">
        <ele>293.88998413</ele>
        <time>2021-10-17T07:11:26Z</time>
      </trkpt>
      <trkpt lat="43.13814" lon="1.14118">
        <ele>294.33999634</ele>
        <time>2021-10-17T07:11:27Z</time>
      </trkpt>
      <trkpt lat="43.13816" lon="1.14118">
        <ele>294.83999634</ele>
        <time>2021-10-17T07:11:28Z</time>
      </trkpt>
      <trkpt lat="43.13818" lon="1.14119">
        <ele>295.25</ele>
        <time>2021-10-17T07:11:29Z</time>
      </trkpt>
      <trkpt lat="43.13821" lon="1.14119">
        <ele>295.70999146</ele>
        <time>2021-10-17T07:11:30Z</time>
      </trkpt>
      <trkpt lat="43.13823" lon="1.14121">
        <ele>296.01998901</ele>
        <time>2021-10-17T07:11:31Z</time>
      </trkpt>
      <trkpt lat="43.13826" lon="1.14122">
        <ele>296.31997681</ele>
        <time>2021-10-17T07:11:32Z</time>
      </trkpt>
      <trkpt lat="43.13828" lon="1.14123">
        <ele>296.59997559</ele>
        <time>2021-10-17T07:11:33Z</time>
      </trkpt>
      <trkpt lat="43.13831" lon="1.14123">
        <ele>296.87997437</ele>
        <time>2021-10-17T07:11:34Z</time>
      </trkpt>
      <trkpt lat="43.13833" lon="1.14123">
        <ele>297.22998047</ele>
        <time>2021-10-17T07:11:35Z</time>
      </trkpt>
      <trkpt lat="43.13837" lon="1.14121">
        <ele>297.54998779</ele>
        <time>2021-10-17T07:11:36Z</time>
      </trkpt>
      <trkpt lat="43.13839" lon="1.1412">
        <ele>297.95999146</ele>
        <time>2021-10-17T07:11:37Z</time>
      </trkpt>
      <trkpt lat="43.13841" lon="1.14119">
        <ele>298.26998901</ele>
        <time>2021-10-17T07:11:38Z</time>
      </trkpt>
      <trkpt lat="43.13844" lon="1.14118">
        <ele>298.59997559</ele>
        <time>2021-10-17T07:11:39Z</time>
      </trkpt>
      <trkpt lat="43.13848" lon="1.14116">
        <ele>298.89996338</ele>
        <time>2021-10-17T07:11:40Z</time>
      </trkpt>
      <trkpt lat="43.1385" lon="1.14116">
        <ele>299.13995361</ele>
        <time>2021-10-17T07:11:41Z</time>
      </trkpt>
      <trkpt lat="43.13852" lon="1.14115">
        <ele>299.45996094</ele>
        <time>2021-10-17T07:11:42Z</time>
      </trkpt>
      <trkpt lat="43.13854" lon="1.14114">
        <ele>299.7199707</ele>
        <time>2021-10-17T07:11:43Z</time>
      </trkpt>
      <trkpt lat="43.13857" lon="1.14114">
        <ele>300.0199585</ele>
        <time>2021-10-17T07:11:44Z</time>
      </trkpt>
      <trkpt lat="43.1386" lon="1.14113">
        <ele>300.27996826</ele>
        <time>2021-10-17T07:11:45Z</time>
      </trkpt>
      <trkpt lat="43.13862" lon="1.14113">
        <ele>300.49996948</ele>
        <time>2021-10-17T07:11:46Z</time>
      </trkpt>
      <trkpt lat="43.13865" lon="1.14113">
        <ele>300.70996094</ele>
        <time>2021-10-17T07:11:47Z</time>
      </trkpt>
      <trkpt lat="43.13867" lon="1.14113">
        <ele>300.91995239</ele>
        <time>2021-10-17T07:11:48Z</time>
      </trkpt>
      <trkpt lat="43.13869" lon="1.14114">
        <ele>301.14996338</ele>
        <time>2021-10-17T07:11:49Z</time>
      </trkpt>
      <trkpt lat="43.13872" lon="1.14114">
        <ele>301.37997437</ele>
        <time>2021-10-17T07:11:50Z</time>
      </trkpt>
      <trkpt lat="43.13874" lon="1.14115">
        <ele>301.60998535</ele>
        <time>2021-10-17T07:11:51Z</time>
      </trkpt>
      <trkpt lat="43.13876" lon="1.14115">
        <ele>301.80999756</ele>
        <time>2021-10-17T07:11:52Z</time>
      </trkpt>
      <trkpt lat="43.13878" lon="1.14116">
        <ele>302</ele>
        <time>2021-10-17T07:11:53Z</time>
      </trkpt>
      <trkpt lat="43.13881" lon="1.14117">
        <ele>302.22000122</ele>
        <time>2021-10-17T07:11:54Z</time>
      </trkpt>
      <trkpt lat="43.13883" lon="1.14117">
        <ele>302.47000122</ele>
        <time>2021-10-17T07:11:55Z</time>
      </trkpt>
      <trkpt lat="43.13885" lon="1.14118">
        <ele>302.67001343</ele>
        <time>2021-10-17T07:11:56Z</time>
      </trkpt>
      <trkpt lat="43.13887" lon="1.14119">
        <ele>302.91000366</ele>
        <time>2021-10-17T07:11:57Z</time>
      </trkpt>
      <trkpt lat="43.1389" lon="1.14119">
        <ele>303.11999512</ele>
        <time>2021-10-17T07:11:58Z</time>
      </trkpt>
      <trkpt lat="43.13891" lon="1.14119">
        <ele>303.25</ele>
        <time>2021-10-17T07:11:59Z</time>
      </trkpt>
      <trkpt lat="43.13893" lon="1.1412">
        <ele>303.45001221</ele>
        <time>2021-10-17T07:12:00Z</time>
      </trkpt>
      <trkpt lat="43.13896" lon="1.1412">
        <ele>303.6000061</ele>
        <time>2021-10-17T07:12:01Z</time>
      </trkpt>
      <trkpt lat="43.13898" lon="1.1412">
        <ele>303.77001953</ele>
        <time>2021-10-17T07:12:02Z</time>
      </trkpt>
      <trkpt lat="43.13901" lon="1.14121">
        <ele>303.98001099</ele>
        <time>2021-10-17T07:12:03Z</time>
      </trkpt>
      <trkpt lat="43.13903" lon="1.14121">
        <ele>304.25</ele>
        <time>2021-10-17T07:12:04Z</time>
      </trkpt>
      <trkpt lat="43.13905" lon="1.14121">
        <ele>304.51000977</ele>
        <time>2021-10-17T07:12:05Z</time>
      </trkpt>
      <trkpt lat="43.13907" lon="1.14121">
        <ele>304.80999756</ele>
        <time>2021-10-17T07:12:06Z</time>
      </trkpt>
      <trkpt lat="43.1391" lon="1.14121">
        <ele>305.11999512</ele>
        <time>2021-10-17T07:12:07Z</time>
      </trkpt>
      <trkpt lat="43.13912" lon="1.1412">
        <ele>305.36999512</ele>
        <time>2021-10-17T07:12:08Z</time>
      </trkpt>
      <trkpt lat="43.13914" lon="1.1412">
        <ele>305.6000061</ele>
        <time>2021-10-17T07:12:09Z</time>
      </trkpt>
      <trkpt lat="43.13916" lon="1.1412">
        <ele>305.77001953</ele>
        <time>2021-10-17T07:12:10Z</time>
      </trkpt>
      <trkpt lat="43.13918" lon="1.1412">
        <ele>305.91003418</ele>
        <time>2021-10-17T07:12:11Z</time>
      </trkpt>
      <trkpt lat="43.13921" lon="1.1412">
        <ele>306.09002686</ele>
        <time>2021-10-17T07:12:12Z</time>
      </trkpt>
      <trkpt lat="43.13923" lon="1.14119">
        <ele>306.29003906</ele>
        <time>2021-10-17T07:12:13Z</time>
      </trkpt>
      <trkpt lat="43.13925" lon="1.14119">
        <ele>306.51004028</ele>
        <time>2021-10-17T07:12:14Z</time>
      </trkpt>
      <trkpt lat="43.13927" lon="1.14119">
        <ele>306.74005127</ele>
        <time>2021-10-17T07:12:15Z</time>
      </trkpt>
      <trkpt lat="43.13931" lon="1.14119">
        <ele>306.96005249</ele>
        <time>2021-10-17T07:12:16Z</time>
      </trkpt>
      <trkpt lat="43.13933" lon="1.14119">
        <ele>307.17004395</ele>
        <time>2021-10-17T07:12:17Z</time>
      </trkpt>
      <trkpt lat="43.13935" lon="1.14119">
        <ele>307.37005615</ele>
        <time>2021-10-17T07:12:18Z</time>
      </trkpt>
      <trkpt lat="43.13937" lon="1.14119">
        <ele>307.57006836</ele>
        <time>2021-10-17T07:12:19Z</time>
      </trkpt>
      <trkpt lat="43.13938" lon="1.14119">
        <ele>307.7600708</ele>
        <time>2021-10-17T07:12:20Z</time>
      </trkpt>
      <trkpt lat="43.13941" lon="1.1412">
        <ele>307.95007324</ele>
        <time>2021-10-17T07:12:21Z</time>
      </trkpt>
      <trkpt lat="43.13943" lon="1.1412">
        <ele>308.1600647</ele>
        <time>2021-10-17T07:12:22Z</time>
      </trkpt>
      <trkpt lat="43.13945" lon="1.14121">
        <ele>308.39007568</ele>
        <time>2021-10-17T07:12:23Z</time>
      </trkpt>
      <trkpt lat="43.13947" lon="1.14121">
        <ele>308.64007568</ele>
        <time>2021-10-17T07:12:24Z</time>
      </trkpt>
      <trkpt lat="43.1395" lon="1.14121">
        <ele>308.87008667</ele>
        <time>2021-10-17T07:12:25Z</time>
      </trkpt>
      <trkpt lat="43.13952" lon="1.14121">
        <ele>309.05007935</ele>
        <time>2021-10-17T07:12:26Z</time>
      </trkpt>
      <trkpt lat="43.13954" lon="1.14122">
        <ele>309.25009155</ele>
        <time>2021-10-17T07:12:27Z</time>
      </trkpt>
      <trkpt lat="43.13956" lon="1.14121">
        <ele>309.43008423</ele>
        <time>2021-10-17T07:12:28Z</time>
      </trkpt>
      <trkpt lat="43.13958" lon="1.14121">
        <ele>309.56008911</ele>
        <time>2021-10-17T07:12:29Z</time>
      </trkpt>
      <trkpt lat="43.13961" lon="1.14119">
        <ele>309.71008301</ele>
        <time>2021-10-17T07:12:30Z</time>
      </trkpt>
      <trkpt lat="43.13962" lon="1.14118">
        <ele>309.81008911</ele>
        <time>2021-10-17T07:12:31Z</time>
      </trkpt>
      <trkpt lat="43.13963" lon="1.14116">
        <ele>309.8600769</ele>
        <time>2021-10-17T07:12:32Z</time>
      </trkpt>
      <trkpt lat="43.13964" lon="1.14114">
        <ele>309.95007324</ele>
        <time>2021-10-17T07:12:33Z</time>
      </trkpt>
      <trkpt lat="43.13965" lon="1.14111">
        <ele>310.05007935</ele>
        <time>2021-10-17T07:12:34Z</time>
      </trkpt>
      <trkpt lat="43.13964" lon="1.14108">
        <ele>310.1600647</ele>
        <time>2021-10-17T07:12:35Z</time>
      </trkpt>
      <trkpt lat="43.13963" lon="1.14106">
        <ele>310.28005981</ele>
        <time>2021-10-17T07:12:36Z</time>
      </trkpt>
      <trkpt lat="43.13962" lon="1.14104">
        <ele>310.44006348</ele>
        <time>2021-10-17T07:12:37Z</time>
      </trkpt>
      <trkpt lat="43.1396" lon="1.14103">
        <ele>310.60006714</ele>
        <time>2021-10-17T07:12:38Z</time>
      </trkpt>
      <trkpt lat="43.13958" lon="1.14101">
        <ele>310.80007935</ele>
        <time>2021-10-17T07:12:39Z</time>
      </trkpt>
      <trkpt lat="43.13956" lon="1.141">
        <ele>310.98007202</ele>
        <time>2021-10-17T07:12:40Z</time>
      </trkpt>
      <trkpt lat="43.13954" lon="1.14099">
        <ele>311.09005737</ele>
        <time>2021-10-17T07:12:41Z</time>
      </trkpt>
      <trkpt lat="43.13953" lon="1.14099">
        <ele>311.23007202</ele>
        <time>2021-10-17T07:12:42Z</time>
      </trkpt>
      <trkpt lat="43.1395" lon="1.14098">
        <ele>311.30007935</ele>
        <time>2021-10-17T07:12:43Z</time>
      </trkpt>
      <trkpt lat="43.13948" lon="1.14098">
        <ele>311.44009399</ele>
        <time>2021-10-17T07:12:44Z</time>
      </trkpt>
      <trkpt lat="43.13946" lon="1.14098">
        <ele>311.61010742</ele>
        <time>2021-10-17T07:12:45Z</time>
      </trkpt>
      <trkpt lat="43.13944" lon="1.14097">
        <ele>311.73010254</ele>
        <time>2021-10-17T07:12:46Z</time>
      </trkpt>
      <trkpt lat="43.13942" lon="1.14096">
        <ele>311.90011597</ele>
        <time>2021-10-17T07:12:47Z</time>
      </trkpt>
      <trkpt lat="43.1394" lon="1.14095">
        <ele>312.02011108</ele>
        <time>2021-10-17T07:12:48Z</time>
      </trkpt>
      <trkpt lat="43.13938" lon="1.14094">
        <ele>312.17010498</ele>
        <time>2021-10-17T07:12:49Z</time>
      </trkpt>
      <trkpt lat="43.13936" lon="1.14093">
        <ele>312.35009766</ele>
        <time>2021-10-17T07:12:50Z</time>
      </trkpt>
      <trkpt lat="43.13935" lon="1.14092">
        <ele>312.51010132</ele>
        <time>2021-10-17T07:12:51Z</time>
      </trkpt>
      <trkpt lat="43.13932" lon="1.1409">
        <ele>312.65011597</ele>
        <time>2021-10-17T07:12:52Z</time>
      </trkpt>
      <trkpt lat="43.13931" lon="1.14089">
        <ele>312.78012085</ele>
        <time>2021-10-17T07:12:53Z</time>
      </trkpt>
      <trkpt lat="43.13929" lon="1.14088">
        <ele>312.90011597</ele>
        <time>2021-10-17T07:12:54Z</time>
      </trkpt>
      <trkpt lat="43.13928" lon="1.14087">
        <ele>313.01010132</ele>
        <time>2021-10-17T07:12:55Z</time>
      </trkpt>
      <trkpt lat="43.13926" lon="1.14085">
        <ele>313.13009644</ele>
        <time>2021-10-17T07:12:56Z</time>
      </trkpt>
      <trkpt lat="43.13924" lon="1.14081">
        <ele>313.24008179</ele>
        <time>2021-10-17T07:12:57Z</time>
      </trkpt>
      <trkpt lat="43.13923" lon="1.14079">
        <ele>313.38009644</ele>
        <time>2021-10-17T07:12:58Z</time>
      </trkpt>
      <trkpt lat="43.13922" lon="1.14077">
        <ele>313.53009033</ele>
        <time>2021-10-17T07:12:59Z</time>
      </trkpt>
      <trkpt lat="43.13922" lon="1.14075">
        <ele>313.68008423</ele>
        <time>2021-10-17T07:13:00Z</time>
      </trkpt>
      <trkpt lat="43.13921" lon="1.14071">
        <ele>313.82009888</ele>
        <time>2021-10-17T07:13:01Z</time>
      </trkpt>
      <trkpt lat="43.13921" lon="1.14069">
        <ele>313.96011353</ele>
        <time>2021-10-17T07:13:02Z</time>
      </trkpt>
      <trkpt lat="43.13921" lon="1.14067">
        <ele>314.09011841</ele>
        <time>2021-10-17T07:13:03Z</time>
      </trkpt>
      <trkpt lat="43.1392" lon="1.14065">
        <ele>314.21011353</ele>
        <time>2021-10-17T07:13:04Z</time>
      </trkpt>
      <trkpt lat="43.1392" lon="1.14063">
        <ele>314.37011719</ele>
        <time>2021-10-17T07:13:05Z</time>
      </trkpt>
      <trkpt lat="43.13919" lon="1.14059">
        <ele>314.52011108</ele>
        <time>2021-10-17T07:13:06Z</time>
      </trkpt>
      <trkpt lat="43.13919" lon="1.14057">
        <ele>314.72012329</ele>
        <time>2021-10-17T07:13:07Z</time>
      </trkpt>
      <trkpt lat="43.13919" lon="1.14054">
        <ele>314.9201355</ele>
        <time>2021-10-17T07:13:08Z</time>
      </trkpt>
      <trkpt lat="43.13919" lon="1.14051">
        <ele>315.11013794</ele>
        <time>2021-10-17T07:13:09Z</time>
      </trkpt>
      <trkpt lat="43.1392" lon="1.14047">
        <ele>315.30014038</ele>
        <time>2021-10-17T07:13:10Z</time>
      </trkpt>
      <trkpt lat="43.1392" lon="1.14045">
        <ele>315.49014282</ele>
        <time>2021-10-17T07:13:11Z</time>
      </trkpt>
      <trkpt lat="43.13921" lon="1.14042">
        <ele>315.70013428</ele>
        <time>2021-10-17T07:13:12Z</time>
      </trkpt>
      <trkpt lat="43.13921" lon="1.1404">
        <ele>315.91012573</ele>
        <time>2021-10-17T07:13:13Z</time>
      </trkpt>
      <trkpt lat="43.13921" lon="1.14037">
        <ele>316.14013672</ele>
        <time>2021-10-17T07:13:14Z</time>
      </trkpt>
      <trkpt lat="43.13922" lon="1.14033">
        <ele>316.33013916</ele>
        <time>2021-10-17T07:13:15Z</time>
      </trkpt>
      <trkpt lat="43.13922" lon="1.14031">
        <ele>316.53015137</ele>
        <time>2021-10-17T07:13:16Z</time>
      </trkpt>
      <trkpt lat="43.13922" lon="1.14029">
        <ele>316.73016357</ele>
        <time>2021-10-17T07:13:17Z</time>
      </trkpt>
      <trkpt lat="43.13923" lon="1.14026">
        <ele>316.92016602</ele>
        <time>2021-10-17T07:13:18Z</time>
      </trkpt>
      <trkpt lat="43.13923" lon="1.14023">
        <ele>317.150177</ele>
        <time>2021-10-17T07:13:19Z</time>
      </trkpt>
      <trkpt lat="43.13924" lon="1.1402">
        <ele>317.36016846</ele>
        <time>2021-10-17T07:13:20Z</time>
      </trkpt>
      <trkpt lat="43.13924" lon="1.14017">
        <ele>317.58016968</ele>
        <time>2021-10-17T07:13:21Z</time>
      </trkpt>
      <trkpt lat="43.13924" lon="1.14015">
        <ele>317.81018066</ele>
        <time>2021-10-17T07:13:22Z</time>
      </trkpt>
      <trkpt lat="43.13924" lon="1.14012">
        <ele>318.02017212</ele>
        <time>2021-10-17T07:13:23Z</time>
      </trkpt>
      <trkpt lat="43.13925" lon="1.14008">
        <ele>318.24017334</ele>
        <time>2021-10-17T07:13:24Z</time>
      </trkpt>
      <trkpt lat="43.13925" lon="1.14005">
        <ele>318.42016602</ele>
        <time>2021-10-17T07:13:25Z</time>
      </trkpt>
      <trkpt lat="43.13925" lon="1.14003">
        <ele>318.59017944</ele>
        <time>2021-10-17T07:13:26Z</time>
      </trkpt>
      <trkpt lat="43.13925" lon="1.14">
        <ele>318.73019409</ele>
        <time>2021-10-17T07:13:27Z</time>
      </trkpt>
      <trkpt lat="43.13925" lon="1.13996">
        <ele>318.88018799</ele>
        <time>2021-10-17T07:13:28Z</time>
      </trkpt>
      <trkpt lat="43.13925" lon="1.13994">
        <ele>319.04019165</ele>
        <time>2021-10-17T07:13:29Z</time>
      </trkpt>
      <trkpt lat="43.13925" lon="1.13991">
        <ele>319.20019531</ele>
        <time>2021-10-17T07:13:30Z</time>
      </trkpt>
      <trkpt lat="43.13926" lon="1.13989">
        <ele>319.4302063</ele>
        <time>2021-10-17T07:13:31Z</time>
      </trkpt>
      <trkpt lat="43.13926" lon="1.13986">
        <ele>319.63021851</ele>
        <time>2021-10-17T07:13:32Z</time>
      </trkpt>
      <trkpt lat="43.13926" lon="1.13983">
        <ele>319.86022949</ele>
        <time>2021-10-17T07:13:33Z</time>
      </trkpt>
      <trkpt lat="43.13926" lon="1.1398">
        <ele>320.09024048</ele>
        <time>2021-10-17T07:13:34Z</time>
      </trkpt>
      <trkpt lat="43.13925" lon="1.13978">
        <ele>320.3102417</ele>
        <time>2021-10-17T07:13:35Z</time>
      </trkpt>
      <trkpt lat="43.13925" lon="1.13975">
        <ele>320.53024292</ele>
        <time>2021-10-17T07:13:36Z</time>
      </trkpt>
      <trkpt lat="43.13925" lon="1.13971">
        <ele>320.74023438</ele>
        <time>2021-10-17T07:13:37Z</time>
      </trkpt>
      <trkpt lat="43.13925" lon="1.13969">
        <ele>320.98022461</ele>
        <time>2021-10-17T07:13:38Z</time>
      </trkpt>
      <trkpt lat="43.13925" lon="1.13967">
        <ele>321.23022461</ele>
        <time>2021-10-17T07:13:39Z</time>
      </trkpt>
      <trkpt lat="43.13925" lon="1.13964">
        <ele>321.49023438</ele>
        <time>2021-10-17T07:13:40Z</time>
      </trkpt>
      <trkpt lat="43.13925" lon="1.13961">
        <ele>321.77023315</ele>
        <time>2021-10-17T07:13:41Z</time>
      </trkpt>
      <trkpt lat="43.13925" lon="1.13958">
        <ele>322.03024292</ele>
        <time>2021-10-17T07:13:42Z</time>
      </trkpt>
      <trkpt lat="43.13925" lon="1.13955">
        <ele>322.29025269</ele>
        <time>2021-10-17T07:13:43Z</time>
      </trkpt>
      <trkpt lat="43.13925" lon="1.13952">
        <ele>322.52026367</ele>
        <time>2021-10-17T07:13:44Z</time>
      </trkpt>
      <trkpt lat="43.13924" lon="1.1395">
        <ele>322.75027466</ele>
        <time>2021-10-17T07:13:45Z</time>
      </trkpt>
      <trkpt lat="43.13924" lon="1.13947">
        <ele>322.96026611</ele>
        <time>2021-10-17T07:13:46Z</time>
      </trkpt>
      <trkpt lat="43.13924" lon="1.13944">
        <ele>323.17025757</ele>
        <time>2021-10-17T07:13:47Z</time>
      </trkpt>
      <trkpt lat="43.13924" lon="1.13941">
        <ele>323.37026978</ele>
        <time>2021-10-17T07:13:48Z</time>
      </trkpt>
      <trkpt lat="43.13924" lon="1.13938">
        <ele>323.6902771</ele>
        <time>2021-10-17T07:13:49Z</time>
      </trkpt>
      <trkpt lat="43.13923" lon="1.13936">
        <ele>323.6902771</ele>
        <time>2021-10-17T07:13:50Z</time>
      </trkpt>
      <trkpt lat="43.13923" lon="1.13932">
        <ele>323.81027222</ele>
        <time>2021-10-17T07:13:51Z</time>
      </trkpt>
      <trkpt lat="43.13923" lon="1.13929">
        <ele>323.97027588</ele>
        <time>2021-10-17T07:13:52Z</time>
      </trkpt>
      <trkpt lat="43.13923" lon="1.13926">
        <ele>324.11029053</ele>
        <time>2021-10-17T07:13:53Z</time>
      </trkpt>
      <trkpt lat="43.13922" lon="1.13923">
        <ele>324.2902832</ele>
        <time>2021-10-17T07:13:54Z</time>
      </trkpt>
      <trkpt lat="43.13921" lon="1.13919">
        <ele>324.46029663</ele>
        <time>2021-10-17T07:13:55Z</time>
      </trkpt>
      <trkpt lat="43.13921" lon="1.13916">
        <ele>324.61029053</ele>
        <time>2021-10-17T07:13:56Z</time>
      </trkpt>
      <trkpt lat="43.13921" lon="1.13913">
        <ele>324.81030273</ele>
        <time>2021-10-17T07:13:57Z</time>
      </trkpt>
      <trkpt lat="43.13921" lon="1.13911">
        <ele>325.01031494</ele>
        <time>2021-10-17T07:13:58Z</time>
      </trkpt>
      <trkpt lat="43.13921" lon="1.13908">
        <ele>325.23031616</ele>
        <time>2021-10-17T07:13:59Z</time>
      </trkpt>
      <trkpt lat="43.13921" lon="1.13904">
        <ele>325.45031738</ele>
        <time>2021-10-17T07:14:00Z</time>
      </trkpt>
      <trkpt lat="43.13922" lon="1.13901">
        <ele>325.66030884</ele>
        <time>2021-10-17T07:14:01Z</time>
      </trkpt>
      <trkpt lat="43.13922" lon="1.13898">
        <ele>325.87030029</ele>
        <time>2021-10-17T07:14:02Z</time>
      </trkpt>
      <trkpt lat="43.13922" lon="1.13895">
        <ele>326.04031372</ele>
        <time>2021-10-17T07:14:03Z</time>
      </trkpt>
      <trkpt lat="43.13922" lon="1.13892">
        <ele>326.23031616</ele>
        <time>2021-10-17T07:14:04Z</time>
      </trkpt>
      <trkpt lat="43.13923" lon="1.13889">
        <ele>326.45031738</ele>
        <time>2021-10-17T07:14:05Z</time>
      </trkpt>
      <trkpt lat="43.13923" lon="1.13886">
        <ele>326.6703186</ele>
        <time>2021-10-17T07:14:06Z</time>
      </trkpt>
      <trkpt lat="43.13924" lon="1.13884">
        <ele>326.98031616</ele>
        <time>2021-10-17T07:14:07Z</time>
      </trkpt>
      <trkpt lat="43.13925" lon="1.13881">
        <ele>327.29031372</ele>
        <time>2021-10-17T07:14:08Z</time>
      </trkpt>
      <trkpt lat="43.13926" lon="1.13878">
        <ele>327.5703125</ele>
        <time>2021-10-17T07:14:09Z</time>
      </trkpt>
      <trkpt lat="43.13926" lon="1.13875">
        <ele>327.8203125</ele>
        <time>2021-10-17T07:14:10Z</time>
      </trkpt>
      <trkpt lat="43.13927" lon="1.13873">
        <ele>328.04031372</ele>
        <time>2021-10-17T07:14:11Z</time>
      </trkpt>
      <trkpt lat="43.13928" lon="1.1387">
        <ele>328.26031494</ele>
        <time>2021-10-17T07:14:12Z</time>
      </trkpt>
      <trkpt lat="43.13929" lon="1.13868">
        <ele>328.49032593</ele>
        <time>2021-10-17T07:14:13Z</time>
      </trkpt>
      <trkpt lat="43.1393" lon="1.13865">
        <ele>328.72033691</ele>
        <time>2021-10-17T07:14:14Z</time>
      </trkpt>
      <trkpt lat="43.1393" lon="1.13863">
        <ele>328.92034912</ele>
        <time>2021-10-17T07:14:15Z</time>
      </trkpt>
      <trkpt lat="43.13931" lon="1.1386">
        <ele>329.12036133</ele>
        <time>2021-10-17T07:14:16Z</time>
      </trkpt>
      <trkpt lat="43.13932" lon="1.13858">
        <ele>329.31036377</ele>
        <time>2021-10-17T07:14:17Z</time>
      </trkpt>
      <trkpt lat="43.13933" lon="1.13854">
        <ele>329.53036499</ele>
        <time>2021-10-17T07:14:18Z</time>
      </trkpt>
      <trkpt lat="43.13933" lon="1.13852">
        <ele>329.71035767</ele>
        <time>2021-10-17T07:14:19Z</time>
      </trkpt>
      <trkpt lat="43.13934" lon="1.1385">
        <ele>329.91036987</ele>
        <time>2021-10-17T07:14:20Z</time>
      </trkpt>
      <trkpt lat="43.13934" lon="1.13847">
        <ele>330.13037109</ele>
        <time>2021-10-17T07:14:21Z</time>
      </trkpt>
      <trkpt lat="43.13934" lon="1.13845">
        <ele>330.30038452</ele>
        <time>2021-10-17T07:14:22Z</time>
      </trkpt>
      <trkpt lat="43.13934" lon="1.13841">
        <ele>330.49038696</ele>
        <time>2021-10-17T07:14:23Z</time>
      </trkpt>
      <trkpt lat="43.13933" lon="1.13838">
        <ele>330.61038208</ele>
        <time>2021-10-17T07:14:24Z</time>
      </trkpt>
      <trkpt lat="43.13932" lon="1.13836">
        <ele>330.70037842</ele>
        <time>2021-10-17T07:14:25Z</time>
      </trkpt>
      <trkpt lat="43.13931" lon="1.13834">
        <ele>330.8303833</ele>
        <time>2021-10-17T07:14:26Z</time>
      </trkpt>
      <trkpt lat="43.13929" lon="1.13831">
        <ele>330.91036987</ele>
        <time>2021-10-17T07:14:27Z</time>
      </trkpt>
      <trkpt lat="43.13927" lon="1.13829">
        <ele>331.05038452</ele>
        <time>2021-10-17T07:14:28Z</time>
      </trkpt>
      <trkpt lat="43.13925" lon="1.13828">
        <ele>331.19039917</ele>
        <time>2021-10-17T07:14:29Z</time>
      </trkpt>
      <trkpt lat="43.13923" lon="1.13828">
        <ele>331.30038452</ele>
        <time>2021-10-17T07:14:30Z</time>
      </trkpt>
      <trkpt lat="43.13919" lon="1.13828">
        <ele>331.4303894</ele>
        <time>2021-10-17T07:14:31Z</time>
      </trkpt>
      <trkpt lat="43.13917" lon="1.13828">
        <ele>331.51037598</ele>
        <time>2021-10-17T07:14:32Z</time>
      </trkpt>
      <trkpt lat="43.13914" lon="1.13829">
        <ele>331.5803833</ele>
        <time>2021-10-17T07:14:33Z</time>
      </trkpt>
      <trkpt lat="43.13912" lon="1.1383">
        <ele>331.69036865</ele>
        <time>2021-10-17T07:14:34Z</time>
      </trkpt>
      <trkpt lat="43.1391" lon="1.1383">
        <ele>331.79037476</ele>
        <time>2021-10-17T07:14:35Z</time>
      </trkpt>
      <trkpt lat="43.13907" lon="1.13831">
        <ele>331.90036011</ele>
        <time>2021-10-17T07:14:36Z</time>
      </trkpt>
      <trkpt lat="43.13905" lon="1.13831">
        <ele>332.06036377</ele>
        <time>2021-10-17T07:14:37Z</time>
      </trkpt>
      <trkpt lat="43.13902" lon="1.13831">
        <ele>332.20037842</ele>
        <time>2021-10-17T07:14:38Z</time>
      </trkpt>
      <trkpt lat="43.139" lon="1.13831">
        <ele>332.34039307</ele>
        <time>2021-10-17T07:14:39Z</time>
      </trkpt>
      <trkpt lat="43.13897" lon="1.13831">
        <ele>332.51040649</ele>
        <time>2021-10-17T07:14:40Z</time>
      </trkpt>
      <trkpt lat="43.13895" lon="1.13831">
        <ele>332.66040039</ele>
        <time>2021-10-17T07:14:41Z</time>
      </trkpt>
      <trkpt lat="43.13893" lon="1.1383">
        <ele>332.79040527</ele>
        <time>2021-10-17T07:14:42Z</time>
      </trkpt>
      <trkpt lat="43.13891" lon="1.1383">
        <ele>332.97039795</ele>
        <time>2021-10-17T07:14:43Z</time>
      </trkpt>
      <trkpt lat="43.13889" lon="1.13829">
        <ele>333.13040161</ele>
        <time>2021-10-17T07:14:44Z</time>
      </trkpt>
      <trkpt lat="43.13886" lon="1.13828">
        <ele>333.26040649</ele>
        <time>2021-10-17T07:14:45Z</time>
      </trkpt>
      <trkpt lat="43.13884" lon="1.13828">
        <ele>333.45040894</ele>
        <time>2021-10-17T07:14:46Z</time>
      </trkpt>
      <trkpt lat="43.13882" lon="1.13827">
        <ele>333.62042236</ele>
        <time>2021-10-17T07:14:47Z</time>
      </trkpt>
      <trkpt lat="43.13879" lon="1.13827">
        <ele>333.8104248</ele>
        <time>2021-10-17T07:14:48Z</time>
      </trkpt>
      <trkpt lat="43.13876" lon="1.13826">
        <ele>334.02041626</ele>
        <time>2021-10-17T07:14:49Z</time>
      </trkpt>
      <trkpt lat="43.13873" lon="1.13826">
        <ele>334.19042969</ele>
        <time>2021-10-17T07:14:50Z</time>
      </trkpt>
      <trkpt lat="43.13871" lon="1.13826">
        <ele>334.38043213</ele>
        <time>2021-10-17T07:14:51Z</time>
      </trkpt>
      <trkpt lat="43.13869" lon="1.13825">
        <ele>334.55044556</ele>
        <time>2021-10-17T07:14:52Z</time>
      </trkpt>
      <trkpt lat="43.13866" lon="1.13825">
        <ele>334.72045898</ele>
        <time>2021-10-17T07:14:53Z</time>
      </trkpt>
      <trkpt lat="43.13863" lon="1.13822">
        <ele>334.87045288</ele>
        <time>2021-10-17T07:14:54Z</time>
      </trkpt>
      <trkpt lat="43.13861" lon="1.1382">
        <ele>334.93045044</ele>
        <time>2021-10-17T07:14:55Z</time>
      </trkpt>
      <trkpt lat="43.1386" lon="1.13816">
        <ele>335.01043701</ele>
        <time>2021-10-17T07:14:56Z</time>
      </trkpt>
      <trkpt lat="43.1386" lon="1.13812">
        <ele>335.01043701</ele>
        <time>2021-10-17T07:14:57Z</time>
      </trkpt>
      <trkpt lat="43.13861" lon="1.13809">
        <ele>335.00042725</ele>
        <time>2021-10-17T07:14:58Z</time>
      </trkpt>
      <trkpt lat="43.13864" lon="1.13806">
        <ele>335.09042358</ele>
        <time>2021-10-17T07:14:59Z</time>
      </trkpt>
      <trkpt lat="43.13866" lon="1.13805">
        <ele>335.23043823</ele>
        <time>2021-10-17T07:15:00Z</time>
      </trkpt>
      <trkpt lat="43.13869" lon="1.13804">
        <ele>335.490448</ele>
        <time>2021-10-17T07:15:01Z</time>
      </trkpt>
      <trkpt lat="43.13871" lon="1.13803">
        <ele>335.80044556</ele>
        <time>2021-10-17T07:15:02Z</time>
      </trkpt>
      <trkpt lat="43.13874" lon="1.13802">
        <ele>336.06045532</ele>
        <time>2021-10-17T07:15:03Z</time>
      </trkpt>
      <trkpt lat="43.13876" lon="1.13801">
        <ele>336.32046509</ele>
        <time>2021-10-17T07:15:04Z</time>
      </trkpt>
      <trkpt lat="43.13878" lon="1.138">
        <ele>336.63046265</ele>
        <time>2021-10-17T07:15:05Z</time>
      </trkpt>
      <trkpt lat="43.1388" lon="1.13799">
        <ele>336.96044922</ele>
        <time>2021-10-17T07:15:06Z</time>
      </trkpt>
      <trkpt lat="43.13882" lon="1.13798">
        <ele>337.33044434</ele>
        <time>2021-10-17T07:15:07Z</time>
      </trkpt>
      <trkpt lat="43.13885" lon="1.13796">
        <ele>337.64044189</ele>
        <time>2021-10-17T07:15:08Z</time>
      </trkpt>
      <trkpt lat="43.13886" lon="1.13794">
        <ele>337.91043091</ele>
        <time>2021-10-17T07:15:09Z</time>
      </trkpt>
      <trkpt lat="43.13888" lon="1.13793">
        <ele>338.17044067</ele>
        <time>2021-10-17T07:15:10Z</time>
      </trkpt>
      <trkpt lat="43.1389" lon="1.13792">
        <ele>338.47042847</ele>
        <time>2021-10-17T07:15:11Z</time>
      </trkpt>
      <trkpt lat="43.13893" lon="1.13789">
        <ele>338.84042358</ele>
        <time>2021-10-17T07:15:12Z</time>
      </trkpt>
      <trkpt lat="43.13894" lon="1.13788">
        <ele>339.14041138</ele>
        <time>2021-10-17T07:15:13Z</time>
      </trkpt>
      <trkpt lat="43.13896" lon="1.13787">
        <ele>339.4604187</ele>
        <time>2021-10-17T07:15:14Z</time>
      </trkpt>
      <trkpt lat="43.13898" lon="1.13785">
        <ele>339.76040649</ele>
        <time>2021-10-17T07:15:15Z</time>
      </trkpt>
      <trkpt lat="43.139" lon="1.13782">
        <ele>340.01040649</ele>
        <time>2021-10-17T07:15:16Z</time>
      </trkpt>
      <trkpt lat="43.13901" lon="1.13781">
        <ele>340.29040527</ele>
        <time>2021-10-17T07:15:17Z</time>
      </trkpt>
      <trkpt lat="43.13902" lon="1.13779">
        <ele>340.55041504</ele>
        <time>2021-10-17T07:15:18Z</time>
      </trkpt>
      <trkpt lat="43.13904" lon="1.13777">
        <ele>340.87042236</ele>
        <time>2021-10-17T07:15:19Z</time>
      </trkpt>
      <trkpt lat="43.13905" lon="1.13776">
        <ele>341.17041016</ele>
        <time>2021-10-17T07:15:20Z</time>
      </trkpt>
      <trkpt lat="43.13908" lon="1.13773">
        <ele>341.49041748</ele>
        <time>2021-10-17T07:15:21Z</time>
      </trkpt>
      <trkpt lat="43.1391" lon="1.13772">
        <ele>341.80041504</ele>
        <time>2021-10-17T07:15:22Z</time>
      </trkpt>
      <trkpt lat="43.13912" lon="1.1377">
        <ele>342.07040405</ele>
        <time>2021-10-17T07:15:23Z</time>
      </trkpt>
      <trkpt lat="43.13914" lon="1.13769">
        <ele>342.34039307</ele>
        <time>2021-10-17T07:15:24Z</time>
      </trkpt>
      <trkpt lat="43.13915" lon="1.13767">
        <ele>342.66040039</ele>
        <time>2021-10-17T07:15:25Z</time>
      </trkpt>
      <trkpt lat="43.13917" lon="1.13764">
        <ele>343.02038574</ele>
        <time>2021-10-17T07:15:26Z</time>
      </trkpt>
      <trkpt lat="43.13919" lon="1.13763">
        <ele>343.38037109</ele>
        <time>2021-10-17T07:15:27Z</time>
      </trkpt>
      <trkpt lat="43.1392" lon="1.13761">
        <ele>343.77038574</ele>
        <time>2021-10-17T07:15:28Z</time>
      </trkpt>
      <trkpt lat="43.13922" lon="1.1376">
        <ele>344.09039307</ele>
        <time>2021-10-17T07:15:29Z</time>
      </trkpt>
      <trkpt lat="43.13925" lon="1.13758">
        <ele>344.36038208</ele>
        <time>2021-10-17T07:15:30Z</time>
      </trkpt>
      <trkpt lat="43.13927" lon="1.13757">
        <ele>344.63037109</ele>
        <time>2021-10-17T07:15:31Z</time>
      </trkpt>
      <trkpt lat="43.13928" lon="1.13757">
        <ele>344.88037109</ele>
        <time>2021-10-17T07:15:32Z</time>
      </trkpt>
      <trkpt lat="43.1393" lon="1.13755">
        <ele>345.15036011</ele>
        <time>2021-10-17T07:15:33Z</time>
      </trkpt>
      <trkpt lat="43.13932" lon="1.13753">
        <ele>345.49035645</ele>
        <time>2021-10-17T07:15:34Z</time>
      </trkpt>
      <trkpt lat="43.13934" lon="1.13752">
        <ele>345.800354</ele>
        <time>2021-10-17T07:15:35Z</time>
      </trkpt>
      <trkpt lat="43.13936" lon="1.13751">
        <ele>346.15036011</ele>
        <time>2021-10-17T07:15:36Z</time>
      </trkpt>
      <trkpt lat="43.13938" lon="1.13749">
        <ele>346.48034668</ele>
        <time>2021-10-17T07:15:37Z</time>
      </trkpt>
      <trkpt lat="43.13939" lon="1.13748">
        <ele>346.72033691</ele>
        <time>2021-10-17T07:15:38Z</time>
      </trkpt>
      <trkpt lat="43.13942" lon="1.13746">
        <ele>347.00033569</ele>
        <time>2021-10-17T07:15:39Z</time>
      </trkpt>
      <trkpt lat="43.13944" lon="1.13744">
        <ele>347.22033691</ele>
        <time>2021-10-17T07:15:40Z</time>
      </trkpt>
      <trkpt lat="43.13946" lon="1.13743">
        <ele>347.42034912</ele>
        <time>2021-10-17T07:15:41Z</time>
      </trkpt>
      <trkpt lat="43.13948" lon="1.13742">
        <ele>347.6003418</ele>
        <time>2021-10-17T07:15:42Z</time>
      </trkpt>
      <trkpt lat="43.13949" lon="1.13742">
        <ele>347.71032715</ele>
        <time>2021-10-17T07:15:43Z</time>
      </trkpt>
      <trkpt lat="43.13953" lon="1.13741">
        <ele>347.84033203</ele>
        <time>2021-10-17T07:15:44Z</time>
      </trkpt>
      <trkpt lat="43.13955" lon="1.1374">
        <ele>347.98034668</ele>
        <time>2021-10-17T07:15:45Z</time>
      </trkpt>
      <trkpt lat="43.13957" lon="1.13739">
        <ele>348.1003418</ele>
        <time>2021-10-17T07:15:46Z</time>
      </trkpt>
      <trkpt lat="43.13959" lon="1.13738">
        <ele>348.29034424</ele>
        <time>2021-10-17T07:15:47Z</time>
      </trkpt>
      <trkpt lat="43.13962" lon="1.13737">
        <ele>348.44033813</ele>
        <time>2021-10-17T07:15:48Z</time>
      </trkpt>
      <trkpt lat="43.13964" lon="1.13736">
        <ele>348.61035156</ele>
        <time>2021-10-17T07:15:49Z</time>
      </trkpt>
      <trkpt lat="43.13966" lon="1.13735">
        <ele>348.84036255</ele>
        <time>2021-10-17T07:15:50Z</time>
      </trkpt>
      <trkpt lat="43.13968" lon="1.13734">
        <ele>349.04037476</ele>
        <time>2021-10-17T07:15:51Z</time>
      </trkpt>
      <trkpt lat="43.13971" lon="1.13733">
        <ele>349.26037598</ele>
        <time>2021-10-17T07:15:52Z</time>
      </trkpt>
      <trkpt lat="43.13973" lon="1.13732">
        <ele>349.49038696</ele>
        <time>2021-10-17T07:15:53Z</time>
      </trkpt>
      <trkpt lat="43.13975" lon="1.13731">
        <ele>349.70037842</ele>
        <time>2021-10-17T07:15:54Z</time>
      </trkpt>
      <trkpt lat="43.13977" lon="1.1373">
        <ele>349.89038086</ele>
        <time>2021-10-17T07:15:55Z</time>
      </trkpt>
      <trkpt lat="43.13978" lon="1.13729">
        <ele>350.11038208</ele>
        <time>2021-10-17T07:15:56Z</time>
      </trkpt>
      <trkpt lat="43.13981" lon="1.13728">
        <ele>350.27038574</ele>
        <time>2021-10-17T07:15:57Z</time>
      </trkpt>
      <trkpt lat="43.13983" lon="1.13727">
        <ele>350.47039795</ele>
        <time>2021-10-17T07:15:58Z</time>
      </trkpt>
      <trkpt lat="43.13984" lon="1.13726">
        <ele>350.69039917</ele>
        <time>2021-10-17T07:15:59Z</time>
      </trkpt>
      <trkpt lat="43.13986" lon="1.13724">
        <ele>350.84039307</ele>
        <time>2021-10-17T07:16:00Z</time>
      </trkpt>
      <trkpt lat="43.13989" lon="1.13722">
        <ele>351.01040649</ele>
        <time>2021-10-17T07:16:01Z</time>
      </trkpt>
      <trkpt lat="43.13991" lon="1.1372">
        <ele>351.14041138</ele>
        <time>2021-10-17T07:16:02Z</time>
      </trkpt>
      <trkpt lat="43.13993" lon="1.13719">
        <ele>351.22039795</ele>
        <time>2021-10-17T07:16:03Z</time>
      </trkpt>
      <trkpt lat="43.13995" lon="1.13717">
        <ele>351.3604126</ele>
        <time>2021-10-17T07:16:04Z</time>
      </trkpt>
      <trkpt lat="43.13997" lon="1.13714">
        <ele>351.55041504</ele>
        <time>2021-10-17T07:16:05Z</time>
      </trkpt>
      <trkpt lat="43.14001" lon="1.13711">
        <ele>351.73040771</ele>
        <time>2021-10-17T07:16:06Z</time>
      </trkpt>
      <trkpt lat="43.14003" lon="1.13709">
        <ele>351.95040894</ele>
        <time>2021-10-17T07:16:07Z</time>
      </trkpt>
      <trkpt lat="43.14005" lon="1.13707">
        <ele>352.16040039</ele>
        <time>2021-10-17T07:16:08Z</time>
      </trkpt>
      <trkpt lat="43.14007" lon="1.13705">
        <ele>352.35040283</ele>
        <time>2021-10-17T07:16:09Z</time>
      </trkpt>
      <trkpt lat="43.1401" lon="1.13703">
        <ele>352.54040527</ele>
        <time>2021-10-17T07:16:10Z</time>
      </trkpt>
      <trkpt lat="43.14014" lon="1.13699">
        <ele>352.73040771</ele>
        <time>2021-10-17T07:16:11Z</time>
      </trkpt>
      <trkpt lat="43.14016" lon="1.13697">
        <ele>352.87042236</ele>
        <time>2021-10-17T07:16:12Z</time>
      </trkpt>
      <trkpt lat="43.14018" lon="1.13694">
        <ele>352.99041748</ele>
        <time>2021-10-17T07:16:13Z</time>
      </trkpt>
      <trkpt lat="43.1402" lon="1.13691">
        <ele>353.12042236</ele>
        <time>2021-10-17T07:16:14Z</time>
      </trkpt>
      <trkpt lat="43.14023" lon="1.13688">
        <ele>353.25042725</ele>
        <time>2021-10-17T07:16:15Z</time>
      </trkpt>
      <trkpt lat="43.14025" lon="1.13685">
        <ele>353.44042969</ele>
        <time>2021-10-17T07:16:16Z</time>
      </trkpt>
      <trkpt lat="43.14026" lon="1.13681">
        <ele>353.5604248</ele>
        <time>2021-10-17T07:16:17Z</time>
      </trkpt>
      <trkpt lat="43.14028" lon="1.13678">
        <ele>353.63043213</ele>
        <time>2021-10-17T07:16:18Z</time>
      </trkpt>
      <trkpt lat="43.14029" lon="1.13674">
        <ele>353.7104187</ele>
        <time>2021-10-17T07:16:19Z</time>
      </trkpt>
      <trkpt lat="43.14031" lon="1.13669">
        <ele>353.80041504</ele>
        <time>2021-10-17T07:16:20Z</time>
      </trkpt>
      <trkpt lat="43.14032" lon="1.13665">
        <ele>353.89041138</ele>
        <time>2021-10-17T07:16:21Z</time>
      </trkpt>
      <trkpt lat="43.14033" lon="1.13662">
        <ele>354.10040283</ele>
        <time>2021-10-17T07:16:22Z</time>
      </trkpt>
      <trkpt lat="43.14034" lon="1.13658">
        <ele>354.25039673</ele>
        <time>2021-10-17T07:16:23Z</time>
      </trkpt>
      <trkpt lat="43.14036" lon="1.13652">
        <ele>354.35040283</ele>
        <time>2021-10-17T07:16:24Z</time>
      </trkpt>
      <trkpt lat="43.14037" lon="1.13648">
        <ele>354.46038818</ele>
        <time>2021-10-17T07:16:25Z</time>
      </trkpt>
      <trkpt lat="43.14038" lon="1.13644">
        <ele>354.54037476</ele>
        <time>2021-10-17T07:16:26Z</time>
      </trkpt>
      <trkpt lat="43.14039" lon="1.1364">
        <ele>354.67037964</ele>
        <time>2021-10-17T07:16:27Z</time>
      </trkpt>
      <trkpt lat="43.1404" lon="1.13636">
        <ele>354.80038452</ele>
        <time>2021-10-17T07:16:28Z</time>
      </trkpt>
      <trkpt lat="43.14041" lon="1.1363">
        <ele>354.94039917</ele>
        <time>2021-10-17T07:16:29Z</time>
      </trkpt>
      <trkpt lat="43.14042" lon="1.13626">
        <ele>355.08041382</ele>
        <time>2021-10-17T07:16:30Z</time>
      </trkpt>
      <trkpt lat="43.14043" lon="1.13622">
        <ele>355.23040771</ele>
        <time>2021-10-17T07:16:31Z</time>
      </trkpt>
      <trkpt lat="43.14044" lon="1.13618">
        <ele>355.31039429</ele>
        <time>2021-10-17T07:16:32Z</time>
      </trkpt>
      <trkpt lat="43.14046" lon="1.13612">
        <ele>355.39038086</ele>
        <time>2021-10-17T07:16:33Z</time>
      </trkpt>
      <trkpt lat="43.14047" lon="1.13608">
        <ele>355.45037842</ele>
        <time>2021-10-17T07:16:34Z</time>
      </trkpt>
      <trkpt lat="43.14048" lon="1.13603">
        <ele>355.44036865</ele>
        <time>2021-10-17T07:16:35Z</time>
      </trkpt>
      <trkpt lat="43.14049" lon="1.13599">
        <ele>355.44036865</ele>
        <time>2021-10-17T07:16:36Z</time>
      </trkpt>
      <trkpt lat="43.14051" lon="1.13593">
        <ele>355.46035767</ele>
        <time>2021-10-17T07:16:37Z</time>
      </trkpt>
      <trkpt lat="43.14052" lon="1.13588">
        <ele>355.50036621</ele>
        <time>2021-10-17T07:16:38Z</time>
      </trkpt>
      <trkpt lat="43.14052" lon="1.13584">
        <ele>355.57037354</ele>
        <time>2021-10-17T07:16:39Z</time>
      </trkpt>
      <trkpt lat="43.14053" lon="1.1358">
        <ele>355.65036011</ele>
        <time>2021-10-17T07:16:40Z</time>
      </trkpt>
      <trkpt lat="43.14055" lon="1.13575">
        <ele>355.65036011</ele>
        <time>2021-10-17T07:16:41Z</time>
      </trkpt>
      <trkpt lat="43.14056" lon="1.13569">
        <ele>355.65036011</ele>
        <time>2021-10-17T07:16:42Z</time>
      </trkpt>
      <trkpt lat="43.14056" lon="1.13565">
        <ele>355.69036865</ele>
        <time>2021-10-17T07:16:43Z</time>
      </trkpt>
      <trkpt lat="43.14057" lon="1.1356">
        <ele>355.79037476</ele>
        <time>2021-10-17T07:16:44Z</time>
      </trkpt>
      <trkpt lat="43.14057" lon="1.13557">
        <ele>355.94036865</ele>
        <time>2021-10-17T07:16:45Z</time>
      </trkpt>
      <trkpt lat="43.14058" lon="1.13552">
        <ele>356.06036377</ele>
        <time>2021-10-17T07:16:46Z</time>
      </trkpt>
      <trkpt lat="43.14059" lon="1.13546">
        <ele>356.21035767</ele>
        <time>2021-10-17T07:16:47Z</time>
      </trkpt>
      <trkpt lat="43.14059" lon="1.13541">
        <ele>356.35037231</ele>
        <time>2021-10-17T07:16:48Z</time>
      </trkpt>
      <trkpt lat="43.14059" lon="1.13537">
        <ele>356.51037598</ele>
        <time>2021-10-17T07:16:49Z</time>
      </trkpt>
      <trkpt lat="43.1406" lon="1.13533">
        <ele>356.74038696</ele>
        <time>2021-10-17T07:16:50Z</time>
      </trkpt>
      <trkpt lat="43.14061" lon="1.13527">
        <ele>356.91040039</ele>
        <time>2021-10-17T07:16:51Z</time>
      </trkpt>
      <trkpt lat="43.14061" lon="1.13522">
        <ele>357.13040161</ele>
        <time>2021-10-17T07:16:52Z</time>
      </trkpt>
      <trkpt lat="43.14062" lon="1.13518">
        <ele>357.32040405</ele>
        <time>2021-10-17T07:16:53Z</time>
      </trkpt>
      <trkpt lat="43.14062" lon="1.13514">
        <ele>357.52041626</ele>
        <time>2021-10-17T07:16:54Z</time>
      </trkpt>
      <trkpt lat="43.14062" lon="1.13507">
        <ele>357.79040527</ele>
        <time>2021-10-17T07:16:55Z</time>
      </trkpt>
      <trkpt lat="43.14063" lon="1.13503">
        <ele>358.01040649</ele>
        <time>2021-10-17T07:16:56Z</time>
      </trkpt>
      <trkpt lat="43.14064" lon="1.13499">
        <ele>358.29040527</ele>
        <time>2021-10-17T07:16:57Z</time>
      </trkpt>
      <trkpt lat="43.14064" lon="1.13495">
        <ele>358.53039551</ele>
        <time>2021-10-17T07:16:58Z</time>
      </trkpt>
      <trkpt lat="43.14064" lon="1.13491">
        <ele>358.74038696</ele>
        <time>2021-10-17T07:16:59Z</time>
      </trkpt>
      <trkpt lat="43.14065" lon="1.13486">
        <ele>359.00039673</ele>
        <time>2021-10-17T07:17:00Z</time>
      </trkpt>
      <trkpt lat="43.14065" lon="1.13482">
        <ele>359.27038574</ele>
        <time>2021-10-17T07:17:01Z</time>
      </trkpt>
      <trkpt lat="43.14065" lon="1.13477">
        <ele>359.53039551</ele>
        <time>2021-10-17T07:17:02Z</time>
      </trkpt>
      <trkpt lat="43.14066" lon="1.13474">
        <ele>359.78039551</ele>
        <time>2021-10-17T07:17:03Z</time>
      </trkpt>
      <trkpt lat="43.14066" lon="1.1347">
        <ele>359.98040771</ele>
        <time>2021-10-17T07:17:04Z</time>
      </trkpt>
      <trkpt lat="43.14067" lon="1.13464">
        <ele>360.18041992</ele>
        <time>2021-10-17T07:17:05Z</time>
      </trkpt>
      <trkpt lat="43.14067" lon="1.1346">
        <ele>360.40042114</ele>
        <time>2021-10-17T07:17:06Z</time>
      </trkpt>
      <trkpt lat="43.14067" lon="1.13456">
        <ele>360.59042358</ele>
        <time>2021-10-17T07:17:07Z</time>
      </trkpt>
      <trkpt lat="43.14067" lon="1.13453">
        <ele>360.76043701</ele>
        <time>2021-10-17T07:17:08Z</time>
      </trkpt>
      <trkpt lat="43.14068" lon="1.13447">
        <ele>360.92044067</ele>
        <time>2021-10-17T07:17:09Z</time>
      </trkpt>
      <trkpt lat="43.14067" lon="1.13443">
        <ele>361.02044678</ele>
        <time>2021-10-17T07:17:10Z</time>
      </trkpt>
      <trkpt lat="43.14067" lon="1.13439">
        <ele>361.11044312</ele>
        <time>2021-10-17T07:17:11Z</time>
      </trkpt>
      <trkpt lat="43.14067" lon="1.13435">
        <ele>361.20043945</ele>
        <time>2021-10-17T07:17:12Z</time>
      </trkpt>
      <trkpt lat="43.14067" lon="1.1343">
        <ele>361.25042725</ele>
        <time>2021-10-17T07:17:13Z</time>
      </trkpt>
      <trkpt lat="43.14067" lon="1.13424">
        <ele>361.33041382</ele>
        <time>2021-10-17T07:17:14Z</time>
      </trkpt>
      <trkpt lat="43.14067" lon="1.13421">
        <ele>361.45040894</ele>
        <time>2021-10-17T07:17:15Z</time>
      </trkpt>
      <trkpt lat="43.14067" lon="1.13417">
        <ele>361.60040283</ele>
        <time>2021-10-17T07:17:16Z</time>
      </trkpt>
      <trkpt lat="43.14067" lon="1.13412">
        <ele>361.73040771</ele>
        <time>2021-10-17T07:17:17Z</time>
      </trkpt>
      <trkpt lat="43.14067" lon="1.13406">
        <ele>361.81039429</ele>
        <time>2021-10-17T07:17:18Z</time>
      </trkpt>
      <trkpt lat="43.14067" lon="1.13401">
        <ele>361.90039062</ele>
        <time>2021-10-17T07:17:19Z</time>
      </trkpt>
      <trkpt lat="43.14067" lon="1.13397">
        <ele>361.96038818</ele>
        <time>2021-10-17T07:17:20Z</time>
      </trkpt>
      <trkpt lat="43.14067" lon="1.13393">
        <ele>362.05038452</ele>
        <time>2021-10-17T07:17:21Z</time>
      </trkpt>
      <trkpt lat="43.14068" lon="1.13389">
        <ele>362.17037964</ele>
        <time>2021-10-17T07:17:22Z</time>
      </trkpt>
      <trkpt lat="43.14069" lon="1.13382">
        <ele>362.29037476</ele>
        <time>2021-10-17T07:17:23Z</time>
      </trkpt>
      <trkpt lat="43.14071" lon="1.13379">
        <ele>362.42037964</ele>
        <time>2021-10-17T07:17:24Z</time>
      </trkpt>
      <trkpt lat="43.14072" lon="1.13375">
        <ele>362.56039429</ele>
        <time>2021-10-17T07:17:25Z</time>
      </trkpt>
      <trkpt lat="43.14074" lon="1.13371">
        <ele>362.74038696</ele>
        <time>2021-10-17T07:17:26Z</time>
      </trkpt>
      <trkpt lat="43.14078" lon="1.13367">
        <ele>362.87039185</ele>
        <time>2021-10-17T07:17:27Z</time>
      </trkpt>
      <trkpt lat="43.14081" lon="1.13364">
        <ele>362.94039917</ele>
        <time>2021-10-17T07:17:28Z</time>
      </trkpt>
      <trkpt lat="43.14084" lon="1.13363">
        <ele>363.03039551</ele>
        <time>2021-10-17T07:17:29Z</time>
      </trkpt>
      <trkpt lat="43.14087" lon="1.13361">
        <ele>363.05038452</ele>
        <time>2021-10-17T07:17:30Z</time>
      </trkpt>
      <trkpt lat="43.1409" lon="1.1336">
        <ele>363.05038452</ele>
        <time>2021-10-17T07:17:31Z</time>
      </trkpt>
      <trkpt lat="43.14095" lon="1.13359">
        <ele>363.11038208</ele>
        <time>2021-10-17T07:17:32Z</time>
      </trkpt>
      <trkpt lat="43.14098" lon="1.13358">
        <ele>363.28039551</ele>
        <time>2021-10-17T07:17:33Z</time>
      </trkpt>
      <trkpt lat="43.14101" lon="1.13358">
        <ele>363.28039551</ele>
        <time>2021-10-17T07:17:34Z</time>
      </trkpt>
      <trkpt lat="43.14105" lon="1.13357">
        <ele>363.40039062</ele>
        <time>2021-10-17T07:17:35Z</time>
      </trkpt>
      <trkpt lat="43.1411" lon="1.13356">
        <ele>363.51037598</ele>
        <time>2021-10-17T07:17:36Z</time>
      </trkpt>
      <trkpt lat="43.14113" lon="1.13355">
        <ele>363.60037231</ele>
        <time>2021-10-17T07:17:37Z</time>
      </trkpt>
      <trkpt lat="43.14116" lon="1.13353">
        <ele>363.70037842</ele>
        <time>2021-10-17T07:17:38Z</time>
      </trkpt>
      <trkpt lat="43.14118" lon="1.1335">
        <ele>363.81036377</ele>
        <time>2021-10-17T07:17:39Z</time>
      </trkpt>
      <trkpt lat="43.14122" lon="1.13346">
        <ele>363.83035278</ele>
        <time>2021-10-17T07:17:40Z</time>
      </trkpt>
      <trkpt lat="43.14125" lon="1.13342">
        <ele>363.94033813</ele>
        <time>2021-10-17T07:17:41Z</time>
      </trkpt>
      <trkpt lat="43.14128" lon="1.13339">
        <ele>363.96032715</ele>
        <time>2021-10-17T07:17:42Z</time>
      </trkpt>
      <trkpt lat="43.1413" lon="1.13335">
        <ele>364.04031372</ele>
        <time>2021-10-17T07:17:43Z</time>
      </trkpt>
      <trkpt lat="43.14132" lon="1.13332">
        <ele>364.19030762</ele>
        <time>2021-10-17T07:17:44Z</time>
      </trkpt>
      <trkpt lat="43.14136" lon="1.13326">
        <ele>364.25030518</ele>
        <time>2021-10-17T07:17:45Z</time>
      </trkpt>
      <trkpt lat="43.14139" lon="1.13323">
        <ele>364.39031982</ele>
        <time>2021-10-17T07:17:46Z</time>
      </trkpt>
      <trkpt lat="43.14141" lon="1.13319">
        <ele>364.51031494</ele>
        <time>2021-10-17T07:17:47Z</time>
      </trkpt>
      <trkpt lat="43.14143" lon="1.13315">
        <ele>364.59030151</ele>
        <time>2021-10-17T07:17:48Z</time>
      </trkpt>
      <trkpt lat="43.14146" lon="1.13309">
        <ele>364.70028687</ele>
        <time>2021-10-17T07:17:49Z</time>
      </trkpt>
      <trkpt lat="43.14148" lon="1.13305">
        <ele>364.78027344</ele>
        <time>2021-10-17T07:17:50Z</time>
      </trkpt>
      <trkpt lat="43.14151" lon="1.13301">
        <ele>364.86026001</ele>
        <time>2021-10-17T07:17:51Z</time>
      </trkpt>
      <trkpt lat="43.14153" lon="1.13297">
        <ele>364.97024536</ele>
        <time>2021-10-17T07:17:52Z</time>
      </trkpt>
      <trkpt lat="43.14155" lon="1.13292">
        <ele>365.08023071</ele>
        <time>2021-10-17T07:17:53Z</time>
      </trkpt>
      <trkpt lat="43.14159" lon="1.13286">
        <ele>365.20022583</ele>
        <time>2021-10-17T07:17:54Z</time>
      </trkpt>
      <trkpt lat="43.14162" lon="1.13283">
        <ele>365.31021118</ele>
        <time>2021-10-17T07:17:55Z</time>
      </trkpt>
      <trkpt lat="43.14164" lon="1.13279">
        <ele>365.45022583</ele>
        <time>2021-10-17T07:17:56Z</time>
      </trkpt>
      <trkpt lat="43.14167" lon="1.13275">
        <ele>365.59024048</ele>
        <time>2021-10-17T07:17:57Z</time>
      </trkpt>
      <trkpt lat="43.14171" lon="1.1327">
        <ele>365.7102356</ele>
        <time>2021-10-17T07:17:58Z</time>
      </trkpt>
      <trkpt lat="43.14174" lon="1.13267">
        <ele>365.85025024</ele>
        <time>2021-10-17T07:17:59Z</time>
      </trkpt>
      <trkpt lat="43.14176" lon="1.13263">
        <ele>365.94024658</ele>
        <time>2021-10-17T07:18:00Z</time>
      </trkpt>
      <trkpt lat="43.14179" lon="1.1326">
        <ele>366.09024048</ele>
        <time>2021-10-17T07:18:01Z</time>
      </trkpt>
      <trkpt lat="43.14181" lon="1.13256">
        <ele>366.24023438</ele>
        <time>2021-10-17T07:18:02Z</time>
      </trkpt>
      <trkpt lat="43.14185" lon="1.13251">
        <ele>366.36022949</ele>
        <time>2021-10-17T07:18:03Z</time>
      </trkpt>
      <trkpt lat="43.14188" lon="1.13247">
        <ele>366.59024048</ele>
        <time>2021-10-17T07:18:04Z</time>
      </trkpt>
      <trkpt lat="43.1419" lon="1.13244">
        <ele>366.59024048</ele>
        <time>2021-10-17T07:18:05Z</time>
      </trkpt>
      <trkpt lat="43.14193" lon="1.13241">
        <ele>366.67022705</ele>
        <time>2021-10-17T07:18:06Z</time>
      </trkpt>
      <trkpt lat="43.14198" lon="1.13236">
        <ele>366.77023315</ele>
        <time>2021-10-17T07:18:07Z</time>
      </trkpt>
      <trkpt lat="43.142" lon="1.13233">
        <ele>366.89022827</ele>
        <time>2021-10-17T07:18:08Z</time>
      </trkpt>
      <trkpt lat="43.14203" lon="1.13229">
        <ele>366.98022461</ele>
        <time>2021-10-17T07:18:09Z</time>
      </trkpt>
      <trkpt lat="43.14206" lon="1.13226">
        <ele>367.04022217</ele>
        <time>2021-10-17T07:18:10Z</time>
      </trkpt>
      <trkpt lat="43.14209" lon="1.13224">
        <ele>367.11022949</ele>
        <time>2021-10-17T07:18:11Z</time>
      </trkpt>
      <trkpt lat="43.14213" lon="1.1322">
        <ele>367.17022705</ele>
        <time>2021-10-17T07:18:12Z</time>
      </trkpt>
      <trkpt lat="43.14217" lon="1.13218">
        <ele>367.29022217</ele>
        <time>2021-10-17T07:18:13Z</time>
      </trkpt>
      <trkpt lat="43.14219" lon="1.13215">
        <ele>367.41021729</ele>
        <time>2021-10-17T07:18:14Z</time>
      </trkpt>
      <trkpt lat="43.14222" lon="1.13211">
        <ele>367.50021362</ele>
        <time>2021-10-17T07:18:15Z</time>
      </trkpt>
      <trkpt lat="43.14225" lon="1.13209">
        <ele>367.59020996</ele>
        <time>2021-10-17T07:18:16Z</time>
      </trkpt>
      <trkpt lat="43.14229" lon="1.13206">
        <ele>367.69021606</ele>
        <time>2021-10-17T07:18:17Z</time>
      </trkpt>
      <trkpt lat="43.14233" lon="1.13205">
        <ele>367.81021118</ele>
        <time>2021-10-17T07:18:18Z</time>
      </trkpt>
      <trkpt lat="43.14237" lon="1.13205">
        <ele>367.94021606</ele>
        <time>2021-10-17T07:18:19Z</time>
      </trkpt>
      <trkpt lat="43.1424" lon="1.13204">
        <ele>368.07022095</ele>
        <time>2021-10-17T07:18:20Z</time>
      </trkpt>
      <trkpt lat="43.14245" lon="1.13204">
        <ele>368.30023193</ele>
        <time>2021-10-17T07:18:21Z</time>
      </trkpt>
      <trkpt lat="43.14248" lon="1.13204">
        <ele>368.38021851</ele>
        <time>2021-10-17T07:18:22Z</time>
      </trkpt>
      <trkpt lat="43.14251" lon="1.13205">
        <ele>368.4302063</ele>
        <time>2021-10-17T07:18:23Z</time>
      </trkpt>
      <trkpt lat="43.14255" lon="1.13205">
        <ele>368.49020386</ele>
        <time>2021-10-17T07:18:24Z</time>
      </trkpt>
      <trkpt lat="43.14258" lon="1.13205">
        <ele>368.62020874</ele>
        <time>2021-10-17T07:18:25Z</time>
      </trkpt>
      <trkpt lat="43.14263" lon="1.13206">
        <ele>368.69021606</ele>
        <time>2021-10-17T07:18:26Z</time>
      </trkpt>
      <trkpt lat="43.14266" lon="1.13206">
        <ele>368.80020142</ele>
        <time>2021-10-17T07:18:27Z</time>
      </trkpt>
      <trkpt lat="43.14269" lon="1.13207">
        <ele>368.85018921</ele>
        <time>2021-10-17T07:18:28Z</time>
      </trkpt>
      <trkpt lat="43.14272" lon="1.13207">
        <ele>368.88018799</ele>
        <time>2021-10-17T07:18:29Z</time>
      </trkpt>
      <trkpt lat="43.14277" lon="1.13208">
        <ele>368.98019409</ele>
        <time>2021-10-17T07:18:30Z</time>
      </trkpt>
      <trkpt lat="43.1428" lon="1.13208">
        <ele>369.05020142</ele>
        <time>2021-10-17T07:18:31Z</time>
      </trkpt>
      <trkpt lat="43.14283" lon="1.13208">
        <ele>369.14019775</ele>
        <time>2021-10-17T07:18:32Z</time>
      </trkpt>
      <trkpt lat="43.14287" lon="1.13209">
        <ele>369.19018555</ele>
        <time>2021-10-17T07:18:33Z</time>
      </trkpt>
      <trkpt lat="43.1429" lon="1.13209">
        <ele>369.25018311</ele>
        <time>2021-10-17T07:18:34Z</time>
      </trkpt>
      <trkpt lat="43.14295" lon="1.13209">
        <ele>369.35018921</ele>
        <time>2021-10-17T07:18:35Z</time>
      </trkpt>
      <trkpt lat="43.14298" lon="1.13209">
        <ele>369.50018311</ele>
        <time>2021-10-17T07:18:36Z</time>
      </trkpt>
      <trkpt lat="43.14301" lon="1.13209">
        <ele>369.73019409</ele>
        <time>2021-10-17T07:18:37Z</time>
      </trkpt>
      <trkpt lat="43.14304" lon="1.13209">
        <ele>369.92019653</ele>
        <time>2021-10-17T07:18:38Z</time>
      </trkpt>
      <trkpt lat="43.14309" lon="1.1321">
        <ele>370.05020142</ele>
        <time>2021-10-17T07:18:39Z</time>
      </trkpt>
      <trkpt lat="43.14312" lon="1.1321">
        <ele>370.20019531</ele>
        <time>2021-10-17T07:18:40Z</time>
      </trkpt>
      <trkpt lat="43.14316" lon="1.1321">
        <ele>370.3302002</ele>
        <time>2021-10-17T07:18:41Z</time>
      </trkpt>
      <trkpt lat="43.14319" lon="1.13209">
        <ele>370.41018677</ele>
        <time>2021-10-17T07:18:42Z</time>
      </trkpt>
      <trkpt lat="43.14325" lon="1.13209">
        <ele>370.52017212</ele>
        <time>2021-10-17T07:18:43Z</time>
      </trkpt>
      <trkpt lat="43.14328" lon="1.13209">
        <ele>370.52017212</ele>
        <time>2021-10-17T07:18:44Z</time>
      </trkpt>
      <trkpt lat="43.14332" lon="1.13208">
        <ele>370.50018311</ele>
        <time>2021-10-17T07:18:45Z</time>
      </trkpt>
      <trkpt lat="43.14336" lon="1.13208">
        <ele>370.44018555</ele>
        <time>2021-10-17T07:18:46Z</time>
      </trkpt>
      <trkpt lat="43.14341" lon="1.13207">
        <ele>370.28018188</ele>
        <time>2021-10-17T07:18:47Z</time>
      </trkpt>
      <trkpt lat="43.14348" lon="1.13206">
        <ele>370.12017822</ele>
        <time>2021-10-17T07:18:48Z</time>
      </trkpt>
      <trkpt lat="43.14352" lon="1.13205">
        <ele>369.88018799</ele>
        <time>2021-10-17T07:18:49Z</time>
      </trkpt>
      <trkpt lat="43.14357" lon="1.13204">
        <ele>369.56018066</ele>
        <time>2021-10-17T07:18:50Z</time>
      </trkpt>
      <trkpt lat="43.14362" lon="1.13203">
        <ele>369.23019409</ele>
        <time>2021-10-17T07:18:51Z</time>
      </trkpt>
      <trkpt lat="43.1437" lon="1.13202">
        <ele>368.85018921</ele>
        <time>2021-10-17T07:18:52Z</time>
      </trkpt>
      <trkpt lat="43.14375" lon="1.13201">
        <ele>368.54019165</ele>
        <time>2021-10-17T07:18:53Z</time>
      </trkpt>
      <trkpt lat="43.1438" lon="1.132">
        <ele>368.25018311</ele>
        <time>2021-10-17T07:18:54Z</time>
      </trkpt>
      <trkpt lat="43.14385" lon="1.13199">
        <ele>368.00018311</ele>
        <time>2021-10-17T07:18:55Z</time>
      </trkpt>
      <trkpt lat="43.1439" lon="1.13198">
        <ele>367.8001709</ele>
        <time>2021-10-17T07:18:56Z</time>
      </trkpt>
      <trkpt lat="43.14398" lon="1.13197">
        <ele>367.53018188</ele>
        <time>2021-10-17T07:18:57Z</time>
      </trkpt>
      <trkpt lat="43.14403" lon="1.13196">
        <ele>367.3001709</ele>
        <time>2021-10-17T07:18:58Z</time>
      </trkpt>
      <trkpt lat="43.14409" lon="1.13195">
        <ele>367.0501709</ele>
        <time>2021-10-17T07:18:59Z</time>
      </trkpt>
      <trkpt lat="43.14414" lon="1.13195">
        <ele>366.79016113</ele>
        <time>2021-10-17T07:19:00Z</time>
      </trkpt>
      <trkpt lat="43.14419" lon="1.13195">
        <ele>366.52017212</ele>
        <time>2021-10-17T07:19:01Z</time>
      </trkpt>
      <trkpt lat="43.14427" lon="1.13195">
        <ele>366.3001709</ele>
        <time>2021-10-17T07:19:02Z</time>
      </trkpt>
      <trkpt lat="43.14433" lon="1.13197">
        <ele>366.10015869</ele>
        <time>2021-10-17T07:19:03Z</time>
      </trkpt>
      <trkpt lat="43.14438" lon="1.132">
        <ele>365.81015015</ele>
        <time>2021-10-17T07:19:04Z</time>
      </trkpt>
      <trkpt lat="43.14443" lon="1.13203">
        <ele>365.62014771</ele>
        <time>2021-10-17T07:19:05Z</time>
      </trkpt>
      <trkpt lat="43.14452" lon="1.13208">
        <ele>365.29016113</ele>
        <time>2021-10-17T07:19:06Z</time>
      </trkpt>
      <trkpt lat="43.14457" lon="1.13211">
        <ele>364.91015625</ele>
        <time>2021-10-17T07:19:07Z</time>
      </trkpt>
      <trkpt lat="43.14462" lon="1.13215">
        <ele>364.58016968</ele>
        <time>2021-10-17T07:19:08Z</time>
      </trkpt>
      <trkpt lat="43.14467" lon="1.13219">
        <ele>364.17016602</ele>
        <time>2021-10-17T07:19:09Z</time>
      </trkpt>
      <trkpt lat="43.14472" lon="1.13222">
        <ele>363.86016846</ele>
        <time>2021-10-17T07:19:10Z</time>
      </trkpt>
      <trkpt lat="43.14479" lon="1.13227">
        <ele>363.61016846</ele>
        <time>2021-10-17T07:19:11Z</time>
      </trkpt>
      <trkpt lat="43.14484" lon="1.1323">
        <ele>363.34017944</ele>
        <time>2021-10-17T07:19:12Z</time>
      </trkpt>
      <trkpt lat="43.14488" lon="1.13233">
        <ele>363.10018921</ele>
        <time>2021-10-17T07:19:13Z</time>
      </trkpt>
      <trkpt lat="43.14493" lon="1.13237">
        <ele>362.94018555</ele>
        <time>2021-10-17T07:19:14Z</time>
      </trkpt>
      <trkpt lat="43.145" lon="1.13242">
        <ele>362.74017334</ele>
        <time>2021-10-17T07:19:15Z</time>
      </trkpt>
      <trkpt lat="43.14503" lon="1.13247">
        <ele>362.59017944</ele>
        <time>2021-10-17T07:19:16Z</time>
      </trkpt>
      <trkpt lat="43.14507" lon="1.13253">
        <ele>362.44018555</ele>
        <time>2021-10-17T07:19:17Z</time>
      </trkpt>
      <trkpt lat="43.14509" lon="1.1326">
        <ele>362.150177</ele>
        <time>2021-10-17T07:19:18Z</time>
      </trkpt>
      <trkpt lat="43.14512" lon="1.13267">
        <ele>361.91018677</ele>
        <time>2021-10-17T07:19:19Z</time>
      </trkpt>
      <trkpt lat="43.14516" lon="1.13276">
        <ele>361.64019775</ele>
        <time>2021-10-17T07:19:20Z</time>
      </trkpt>
      <trkpt lat="43.14519" lon="1.13282">
        <ele>361.23019409</ele>
        <time>2021-10-17T07:19:21Z</time>
      </trkpt>
      <trkpt lat="43.14523" lon="1.13286">
        <ele>360.89019775</ele>
        <time>2021-10-17T07:19:22Z</time>
      </trkpt>
      <trkpt lat="43.14528" lon="1.13288">
        <ele>360.56021118</ele>
        <time>2021-10-17T07:19:23Z</time>
      </trkpt>
      <trkpt lat="43.14535" lon="1.13289">
        <ele>360.39019775</ele>
        <time>2021-10-17T07:19:24Z</time>
      </trkpt>
      <trkpt lat="43.14539" lon="1.13288">
        <ele>360.21020508</ele>
        <time>2021-10-17T07:19:25Z</time>
      </trkpt>
      <trkpt lat="43.14544" lon="1.13286">
        <ele>360.12020874</ele>
        <time>2021-10-17T07:19:26Z</time>
      </trkpt>
      <trkpt lat="43.14549" lon="1.13284">
        <ele>360.0802002</ele>
        <time>2021-10-17T07:19:27Z</time>
      </trkpt>
      <trkpt lat="43.14554" lon="1.13281">
        <ele>359.98019409</ele>
        <time>2021-10-17T07:19:28Z</time>
      </trkpt>
      <trkpt lat="43.1456" lon="1.13276">
        <ele>360.02020264</ele>
        <time>2021-10-17T07:19:29Z</time>
      </trkpt>
      <trkpt lat="43.14565" lon="1.13273">
        <ele>360.10018921</ele>
        <time>2021-10-17T07:19:30Z</time>
      </trkpt>
      <trkpt lat="43.14569" lon="1.13269">
        <ele>360.18017578</ele>
        <time>2021-10-17T07:19:31Z</time>
      </trkpt>
      <trkpt lat="43.14573" lon="1.13265">
        <ele>360.36016846</ele>
        <time>2021-10-17T07:19:32Z</time>
      </trkpt>
      <trkpt lat="43.14578" lon="1.13259">
        <ele>360.52017212</ele>
        <time>2021-10-17T07:19:33Z</time>
      </trkpt>
      <trkpt lat="43.14582" lon="1.13257">
        <ele>360.76016235</ele>
        <time>2021-10-17T07:19:34Z</time>
      </trkpt>
      <trkpt lat="43.14586" lon="1.13253">
        <ele>361.03015137</ele>
        <time>2021-10-17T07:19:35Z</time>
      </trkpt>
      <trkpt lat="43.14589" lon="1.13249">
        <ele>361.26016235</ele>
        <time>2021-10-17T07:19:36Z</time>
      </trkpt>
      <trkpt lat="43.14593" lon="1.13245">
        <ele>361.52017212</ele>
        <time>2021-10-17T07:19:37Z</time>
      </trkpt>
      <trkpt lat="43.14598" lon="1.13239">
        <ele>361.79016113</ele>
        <time>2021-10-17T07:19:38Z</time>
      </trkpt>
      <trkpt lat="43.14601" lon="1.13236">
        <ele>362.18017578</ele>
        <time>2021-10-17T07:19:39Z</time>
      </trkpt>
      <trkpt lat="43.14604" lon="1.13232">
        <ele>362.54016113</ele>
        <time>2021-10-17T07:19:40Z</time>
      </trkpt>
      <trkpt lat="43.14607" lon="1.13229">
        <ele>362.89016724</ele>
        <time>2021-10-17T07:19:41Z</time>
      </trkpt>
      <trkpt lat="43.14612" lon="1.13225">
        <ele>363.17016602</ele>
        <time>2021-10-17T07:19:42Z</time>
      </trkpt>
      <trkpt lat="43.14615" lon="1.13223">
        <ele>363.31018066</ele>
        <time>2021-10-17T07:19:43Z</time>
      </trkpt>
      <trkpt lat="43.14619" lon="1.13222">
        <ele>363.41018677</ele>
        <time>2021-10-17T07:19:44Z</time>
      </trkpt>
      <trkpt lat="43.14623" lon="1.13221">
        <ele>363.49017334</ele>
        <time>2021-10-17T07:19:45Z</time>
      </trkpt>
      <trkpt lat="43.14627" lon="1.13221">
        <ele>363.52017212</ele>
        <time>2021-10-17T07:19:46Z</time>
      </trkpt>
      <trkpt lat="43.14634" lon="1.13224">
        <ele>363.53018188</ele>
        <time>2021-10-17T07:19:47Z</time>
      </trkpt>
      <trkpt lat="43.14639" lon="1.13225">
        <ele>363.53018188</ele>
        <time>2021-10-17T07:19:48Z</time>
      </trkpt>
      <trkpt lat="43.14643" lon="1.13227">
        <ele>363.50018311</ele>
        <time>2021-10-17T07:19:49Z</time>
      </trkpt>
      <trkpt lat="43.14648" lon="1.13229">
        <ele>363.50018311</ele>
        <time>2021-10-17T07:19:50Z</time>
      </trkpt>
      <trkpt lat="43.14654" lon="1.13231">
        <ele>363.50018311</ele>
        <time>2021-10-17T07:19:51Z</time>
      </trkpt>
      <trkpt lat="43.14658" lon="1.13232">
        <ele>363.48019409</ele>
        <time>2021-10-17T07:19:52Z</time>
      </trkpt>
      <trkpt lat="43.14662" lon="1.13233">
        <ele>363.49020386</ele>
        <time>2021-10-17T07:19:53Z</time>
      </trkpt>
      <trkpt lat="43.14665" lon="1.13235">
        <ele>363.48019409</ele>
        <time>2021-10-17T07:19:54Z</time>
      </trkpt>
      <trkpt lat="43.14669" lon="1.13238">
        <ele>363.52020264</ele>
        <time>2021-10-17T07:19:55Z</time>
      </trkpt>
      <trkpt lat="43.14672" lon="1.13239">
        <ele>363.69021606</ele>
        <time>2021-10-17T07:19:56Z</time>
      </trkpt>
      <trkpt lat="43.14674" lon="1.13241">
        <ele>363.83023071</ele>
        <time>2021-10-17T07:19:57Z</time>
      </trkpt>
      <trkpt lat="43.14677" lon="1.13242">
        <ele>364.05023193</ele>
        <time>2021-10-17T07:19:58Z</time>
      </trkpt>
      <trkpt lat="43.1468" lon="1.13243">
        <ele>364.27023315</ele>
        <time>2021-10-17T07:19:59Z</time>
      </trkpt>
      <trkpt lat="43.14683" lon="1.13245">
        <ele>364.43023682</ele>
        <time>2021-10-17T07:20:00Z</time>
      </trkpt>
      <trkpt lat="43.14686" lon="1.13247">
        <ele>364.65023804</ele>
        <time>2021-10-17T07:20:01Z</time>
      </trkpt>
      <trkpt lat="43.14688" lon="1.13249">
        <ele>364.74023438</ele>
        <time>2021-10-17T07:20:02Z</time>
      </trkpt>
      <trkpt lat="43.1469" lon="1.13253">
        <ele>364.69024658</ele>
        <time>2021-10-17T07:20:03Z</time>
      </trkpt>
      <trkpt lat="43.14692" lon="1.1326">
        <ele>364.48025513</ele>
        <time>2021-10-17T07:20:04Z</time>
      </trkpt>
      <trkpt lat="43.14693" lon="1.13265">
        <ele>364.12026978</ele>
        <time>2021-10-17T07:20:05Z</time>
      </trkpt>
      <trkpt lat="43.14692" lon="1.13271">
        <ele>363.70025635</ele>
        <time>2021-10-17T07:20:06Z</time>
      </trkpt>
      <trkpt lat="43.14692" lon="1.13277">
        <ele>363.33026123</ele>
        <time>2021-10-17T07:20:07Z</time>
      </trkpt>
      <trkpt lat="43.14692" lon="1.13283">
        <ele>363.07025146</ele>
        <time>2021-10-17T07:20:08Z</time>
      </trkpt>
      <trkpt lat="43.14693" lon="1.13291">
        <ele>362.84024048</ele>
        <time>2021-10-17T07:20:09Z</time>
      </trkpt>
      <trkpt lat="43.14693" lon="1.13296">
        <ele>362.75024414</ele>
        <time>2021-10-17T07:20:10Z</time>
      </trkpt>
      <trkpt lat="43.14693" lon="1.133">
        <ele>362.68023682</ele>
        <time>2021-10-17T07:20:11Z</time>
      </trkpt>
      <trkpt lat="43.14694" lon="1.13305">
        <ele>362.65023804</ele>
        <time>2021-10-17T07:20:12Z</time>
      </trkpt>
      <trkpt lat="43.14694" lon="1.13311">
        <ele>362.73022461</ele>
        <time>2021-10-17T07:20:13Z</time>
      </trkpt>
      <trkpt lat="43.14694" lon="1.13315">
        <ele>362.79022217</ele>
        <time>2021-10-17T07:20:14Z</time>
      </trkpt>
      <trkpt lat="43.14694" lon="1.13319">
        <ele>362.87020874</ele>
        <time>2021-10-17T07:20:15Z</time>
      </trkpt>
      <trkpt lat="43.14695" lon="1.13323">
        <ele>362.87020874</ele>
        <time>2021-10-17T07:20:16Z</time>
      </trkpt>
      <trkpt lat="43.14696" lon="1.13328">
        <ele>362.75021362</ele>
        <time>2021-10-17T07:20:17Z</time>
      </trkpt>
      <trkpt lat="43.14696" lon="1.13336">
        <ele>362.55020142</ele>
        <time>2021-10-17T07:20:18Z</time>
      </trkpt>
      <trkpt lat="43.14696" lon="1.13341">
        <ele>362.22021484</ele>
        <time>2021-10-17T07:20:19Z</time>
      </trkpt>
      <trkpt lat="43.14695" lon="1.13347">
        <ele>361.91021729</ele>
        <time>2021-10-17T07:20:20Z</time>
      </trkpt>
      <trkpt lat="43.14695" lon="1.13353">
        <ele>361.5302124</ele>
        <time>2021-10-17T07:20:21Z</time>
      </trkpt>
      <trkpt lat="43.14694" lon="1.13362">
        <ele>361.21020508</ele>
        <time>2021-10-17T07:20:22Z</time>
      </trkpt>
      <trkpt lat="43.14692" lon="1.13367">
        <ele>360.97021484</ele>
        <time>2021-10-17T07:20:23Z</time>
      </trkpt>
      <trkpt lat="43.1469" lon="1.13372">
        <ele>360.77020264</ele>
        <time>2021-10-17T07:20:24Z</time>
      </trkpt>
      <trkpt lat="43.14688" lon="1.13377">
        <ele>360.73019409</ele>
        <time>2021-10-17T07:20:25Z</time>
      </trkpt>
      <trkpt lat="43.14686" lon="1.13382">
        <ele>360.71020508</ele>
        <time>2021-10-17T07:20:26Z</time>
      </trkpt>
      <trkpt lat="43.14681" lon="1.13388">
        <ele>360.75021362</ele>
        <time>2021-10-17T07:20:27Z</time>
      </trkpt>
      <trkpt lat="43.14679" lon="1.13391">
        <ele>360.76022339</ele>
        <time>2021-10-17T07:20:28Z</time>
      </trkpt>
      <trkpt lat="43.14677" lon="1.13395">
        <ele>360.7102356</ele>
        <time>2021-10-17T07:20:29Z</time>
      </trkpt>
      <trkpt lat="43.14675" lon="1.13399">
        <ele>360.74023438</ele>
        <time>2021-10-17T07:20:30Z</time>
      </trkpt>
      <trkpt lat="43.14673" lon="1.13403">
        <ele>360.86022949</ele>
        <time>2021-10-17T07:20:31Z</time>
      </trkpt>
      <trkpt lat="43.1467" lon="1.13408">
        <ele>361.0602417</ele>
        <time>2021-10-17T07:20:32Z</time>
      </trkpt>
      <trkpt lat="43.14668" lon="1.13411">
        <ele>361.29025269</ele>
        <time>2021-10-17T07:20:33Z</time>
      </trkpt>
      <trkpt lat="43.14667" lon="1.13414">
        <ele>361.44024658</ele>
        <time>2021-10-17T07:20:34Z</time>
      </trkpt>
      <trkpt lat="43.14665" lon="1.13416">
        <ele>361.39025879</ele>
        <time>2021-10-17T07:20:35Z</time>
      </trkpt>
      <trkpt lat="43.14662" lon="1.1342">
        <ele>361.20025635</ele>
        <time>2021-10-17T07:20:36Z</time>
      </trkpt>
      <trkpt lat="43.1466" lon="1.13424">
        <ele>360.8102417</ele>
        <time>2021-10-17T07:20:37Z</time>
      </trkpt>
      <trkpt lat="43.14659" lon="1.13429">
        <ele>360.23025513</ele>
        <time>2021-10-17T07:20:38Z</time>
      </trkpt>
      <trkpt lat="43.14659" lon="1.13434">
        <ele>359.45025635</ele>
        <time>2021-10-17T07:20:39Z</time>
      </trkpt>
      <trkpt lat="43.14659" lon="1.1344">
        <ele>358.68026733</ele>
        <time>2021-10-17T07:20:40Z</time>
      </trkpt>
      <trkpt lat="43.14661" lon="1.13449">
        <ele>357.97027588</ele>
        <time>2021-10-17T07:20:41Z</time>
      </trkpt>
      <trkpt lat="43.14662" lon="1.13456">
        <ele>357.2902832</ele>
        <time>2021-10-17T07:20:42Z</time>
      </trkpt>
      <trkpt lat="43.14664" lon="1.13463">
        <ele>356.48028564</ele>
        <time>2021-10-17T07:20:43Z</time>
      </trkpt>
      <trkpt lat="43.14666" lon="1.13471">
        <ele>355.63027954</ele>
        <time>2021-10-17T07:20:44Z</time>
      </trkpt>
      <trkpt lat="43.1467" lon="1.13482">
        <ele>354.66027832</ele>
        <time>2021-10-17T07:20:45Z</time>
      </trkpt>
      <trkpt lat="43.14672" lon="1.1349">
        <ele>353.74026489</ele>
        <time>2021-10-17T07:20:46Z</time>
      </trkpt>
      <trkpt lat="43.14674" lon="1.13497">
        <ele>353.12026978</ele>
        <time>2021-10-17T07:20:47Z</time>
      </trkpt>
      <trkpt lat="43.14676" lon="1.13504">
        <ele>352.66027832</ele>
        <time>2021-10-17T07:20:48Z</time>
      </trkpt>
      <trkpt lat="43.14677" lon="1.13509">
        <ele>352.53027344</ele>
        <time>2021-10-17T07:20:49Z</time>
      </trkpt>
      <trkpt lat="43.14679" lon="1.13517">
        <ele>352.65026855</ele>
        <time>2021-10-17T07:20:50Z</time>
      </trkpt>
      <trkpt lat="43.14681" lon="1.13521">
        <ele>352.96026611</ele>
        <time>2021-10-17T07:20:51Z</time>
      </trkpt>
      <trkpt lat="43.14682" lon="1.13524">
        <ele>353.68026733</ele>
        <time>2021-10-17T07:20:52Z</time>
      </trkpt>
      <trkpt lat="43.14684" lon="1.13528">
        <ele>353.68026733</ele>
        <time>2021-10-17T07:20:53Z</time>
      </trkpt>
      <trkpt lat="43.14687" lon="1.13532">
        <ele>353.70025635</ele>
        <time>2021-10-17T07:20:54Z</time>
      </trkpt>
      <trkpt lat="43.1469" lon="1.13534">
        <ele>353.54025269</ele>
        <time>2021-10-17T07:20:55Z</time>
      </trkpt>
      <trkpt lat="43.14694" lon="1.13535">
        <ele>353.22024536</ele>
        <time>2021-10-17T07:20:56Z</time>
      </trkpt>
      <trkpt lat="43.14697" lon="1.13536">
        <ele>352.86026001</ele>
        <time>2021-10-17T07:20:57Z</time>
      </trkpt>
      <trkpt lat="43.14702" lon="1.13537">
        <ele>352.53027344</ele>
        <time>2021-10-17T07:20:58Z</time>
      </trkpt>
      <trkpt lat="43.14706" lon="1.13537">
        <ele>352.10028076</ele>
        <time>2021-10-17T07:20:59Z</time>
      </trkpt>
      <trkpt lat="43.14709" lon="1.13536">
        <ele>351.70028687</ele>
        <time>2021-10-17T07:21:00Z</time>
      </trkpt>
      <trkpt lat="43.14714" lon="1.13535">
        <ele>351.1902771</ele>
        <time>2021-10-17T07:21:01Z</time>
      </trkpt>
      <trkpt lat="43.14718" lon="1.13533">
        <ele>350.6902771</ele>
        <time>2021-10-17T07:21:02Z</time>
      </trkpt>
      <trkpt lat="43.14726" lon="1.13529">
        <ele>350.22027588</ele>
        <time>2021-10-17T07:21:03Z</time>
      </trkpt>
      <trkpt lat="43.14731" lon="1.13527">
        <ele>349.64028931</ele>
        <time>2021-10-17T07:21:04Z</time>
      </trkpt>
      <trkpt lat="43.14735" lon="1.13524">
        <ele>349.13027954</ele>
        <time>2021-10-17T07:21:05Z</time>
      </trkpt>
      <trkpt lat="43.1474" lon="1.1352">
        <ele>348.5402832</ele>
        <time>2021-10-17T07:21:06Z</time>
      </trkpt>
      <trkpt lat="43.14747" lon="1.13516">
        <ele>348.0402832</ele>
        <time>2021-10-17T07:21:07Z</time>
      </trkpt>
      <trkpt lat="43.14752" lon="1.13513">
        <ele>347.56027222</ele>
        <time>2021-10-17T07:21:08Z</time>
      </trkpt>
      <trkpt lat="43.14756" lon="1.1351">
        <ele>346.90026855</ele>
        <time>2021-10-17T07:21:09Z</time>
      </trkpt>
      <trkpt lat="43.1476" lon="1.13507">
        <ele>346.41027832</ele>
        <time>2021-10-17T07:21:10Z</time>
      </trkpt>
      <trkpt lat="43.14763" lon="1.13505">
        <ele>346.00027466</ele>
        <time>2021-10-17T07:21:11Z</time>
      </trkpt>
      <trkpt lat="43.14769" lon="1.135">
        <ele>345.58026123</ele>
        <time>2021-10-17T07:21:12Z</time>
      </trkpt>
      <trkpt lat="43.14773" lon="1.13497">
        <ele>345.06027222</ele>
        <time>2021-10-17T07:21:13Z</time>
      </trkpt>
      <trkpt lat="43.14778" lon="1.13494">
        <ele>344.50027466</ele>
        <time>2021-10-17T07:21:14Z</time>
      </trkpt>
      <trkpt lat="43.14783" lon="1.13491">
        <ele>343.70028687</ele>
        <time>2021-10-17T07:21:15Z</time>
      </trkpt>
      <trkpt lat="43.14791" lon="1.13485">
        <ele>342.99029541</ele>
        <time>2021-10-17T07:21:16Z</time>
      </trkpt>
      <trkpt lat="43.14796" lon="1.13482">
        <ele>342.44030762</ele>
        <time>2021-10-17T07:21:17Z</time>
      </trkpt>
      <trkpt lat="43.14802" lon="1.13478">
        <ele>341.9203186</ele>
        <time>2021-10-17T07:21:18Z</time>
      </trkpt>
      <trkpt lat="43.14808" lon="1.13474">
        <ele>341.53030396</ele>
        <time>2021-10-17T07:21:19Z</time>
      </trkpt>
      <trkpt lat="43.14814" lon="1.1347">
        <ele>341.20031738</ele>
        <time>2021-10-17T07:21:20Z</time>
      </trkpt>
      <trkpt lat="43.14822" lon="1.13463">
        <ele>340.94030762</ele>
        <time>2021-10-17T07:21:21Z</time>
      </trkpt>
      <trkpt lat="43.14828" lon="1.13459">
        <ele>340.7203064</ele>
        <time>2021-10-17T07:21:22Z</time>
      </trkpt>
      <trkpt lat="43.14833" lon="1.13454">
        <ele>340.60031128</ele>
        <time>2021-10-17T07:21:23Z</time>
      </trkpt>
      <trkpt lat="43.14837" lon="1.1345">
        <ele>340.48031616</ele>
        <time>2021-10-17T07:21:24Z</time>
      </trkpt>
      <trkpt lat="43.14843" lon="1.13444">
        <ele>340.37033081</ele>
        <time>2021-10-17T07:21:25Z</time>
      </trkpt>
      <trkpt lat="43.14846" lon="1.13439">
        <ele>340.38034058</ele>
        <time>2021-10-17T07:21:26Z</time>
      </trkpt>
      <trkpt lat="43.14851" lon="1.13434">
        <ele>340.36035156</ele>
        <time>2021-10-17T07:21:27Z</time>
      </trkpt>
      <trkpt lat="43.14854" lon="1.13429">
        <ele>340.42034912</ele>
        <time>2021-10-17T07:21:28Z</time>
      </trkpt>
      <trkpt lat="43.14858" lon="1.13426">
        <ele>340.51034546</ele>
        <time>2021-10-17T07:21:29Z</time>
      </trkpt>
      <trkpt lat="43.14864" lon="1.13419">
        <ele>340.56033325</ele>
        <time>2021-10-17T07:21:30Z</time>
      </trkpt>
      <trkpt lat="43.14867" lon="1.13414">
        <ele>340.6703186</ele>
        <time>2021-10-17T07:21:31Z</time>
      </trkpt>
      <trkpt lat="43.1487" lon="1.1341">
        <ele>340.71032715</ele>
        <time>2021-10-17T07:21:32Z</time>
      </trkpt>
      <trkpt lat="43.14873" lon="1.13406">
        <ele>340.81033325</ele>
        <time>2021-10-17T07:21:33Z</time>
      </trkpt>
      <trkpt lat="43.14877" lon="1.13403">
        <ele>340.80032349</ele>
        <time>2021-10-17T07:21:34Z</time>
      </trkpt>
      <trkpt lat="43.14882" lon="1.13398">
        <ele>340.78033447</ele>
        <time>2021-10-17T07:21:35Z</time>
      </trkpt>
      <trkpt lat="43.14885" lon="1.13394">
        <ele>340.71032715</ele>
        <time>2021-10-17T07:21:36Z</time>
      </trkpt>
      <trkpt lat="43.14888" lon="1.1339">
        <ele>340.59033203</ele>
        <time>2021-10-17T07:21:37Z</time>
      </trkpt>
      <trkpt lat="43.14892" lon="1.13387">
        <ele>340.61032104</ele>
        <time>2021-10-17T07:21:38Z</time>
      </trkpt>
      <trkpt lat="43.14896" lon="1.13383">
        <ele>340.59033203</ele>
        <time>2021-10-17T07:21:39Z</time>
      </trkpt>
      <trkpt lat="43.14899" lon="1.1338">
        <ele>340.72033691</ele>
        <time>2021-10-17T07:21:40Z</time>
      </trkpt>
      <trkpt lat="43.14902" lon="1.13377">
        <ele>340.86035156</ele>
        <time>2021-10-17T07:21:41Z</time>
      </trkpt>
      <trkpt lat="43.14905" lon="1.13374">
        <ele>340.99035645</ele>
        <time>2021-10-17T07:21:42Z</time>
      </trkpt>
      <trkpt lat="43.14908" lon="1.13369">
        <ele>341.18035889</ele>
        <time>2021-10-17T07:21:43Z</time>
      </trkpt>
      <trkpt lat="43.14909" lon="1.13364">
        <ele>341.22036743</ele>
        <time>2021-10-17T07:21:44Z</time>
      </trkpt>
      <trkpt lat="43.14911" lon="1.1336">
        <ele>341.31036377</ele>
        <time>2021-10-17T07:21:45Z</time>
      </trkpt>
      <trkpt lat="43.14912" lon="1.13354">
        <ele>341.08035278</ele>
        <time>2021-10-17T07:21:46Z</time>
      </trkpt>
      <trkpt lat="43.14915" lon="1.1335">
        <ele>340.62036133</ele>
        <time>2021-10-17T07:21:47Z</time>
      </trkpt>
      <trkpt lat="43.14919" lon="1.13343">
        <ele>340.19036865</ele>
        <time>2021-10-17T07:21:48Z</time>
      </trkpt>
      <trkpt lat="43.14922" lon="1.13338">
        <ele>339.69036865</ele>
        <time>2021-10-17T07:21:49Z</time>
      </trkpt>
      <trkpt lat="43.14926" lon="1.13334">
        <ele>339.35037231</ele>
        <time>2021-10-17T07:21:50Z</time>
      </trkpt>
      <trkpt lat="43.14929" lon="1.13329">
        <ele>339.15036011</ele>
        <time>2021-10-17T07:21:51Z</time>
      </trkpt>
      <trkpt lat="43.14935" lon="1.13322">
        <ele>338.86035156</ele>
        <time>2021-10-17T07:21:52Z</time>
      </trkpt>
      <trkpt lat="43.14938" lon="1.13317">
        <ele>338.550354</ele>
        <time>2021-10-17T07:21:53Z</time>
      </trkpt>
      <trkpt lat="43.14942" lon="1.13311">
        <ele>338.28036499</ele>
        <time>2021-10-17T07:21:54Z</time>
      </trkpt>
      <trkpt lat="43.14946" lon="1.13306">
        <ele>338.02035522</ele>
        <time>2021-10-17T07:21:55Z</time>
      </trkpt>
      <trkpt lat="43.14951" lon="1.13302">
        <ele>337.71035767</ele>
        <time>2021-10-17T07:21:56Z</time>
      </trkpt>
      <trkpt lat="43.14957" lon="1.13297">
        <ele>337.38037109</ele>
        <time>2021-10-17T07:21:57Z</time>
      </trkpt>
      <trkpt lat="43.14961" lon="1.13292">
        <ele>337.12036133</ele>
        <time>2021-10-17T07:21:58Z</time>
      </trkpt>
      <trkpt lat="43.14964" lon="1.13288">
        <ele>336.96035767</ele>
        <time>2021-10-17T07:21:59Z</time>
      </trkpt>
      <trkpt lat="43.14967" lon="1.13283">
        <ele>336.93035889</ele>
        <time>2021-10-17T07:22:00Z</time>
      </trkpt>
      <trkpt lat="43.14972" lon="1.13275">
        <ele>336.93035889</ele>
        <time>2021-10-17T07:22:01Z</time>
      </trkpt>
      <trkpt lat="43.14975" lon="1.1327">
        <ele>336.49035645</ele>
        <time>2021-10-17T07:22:02Z</time>
      </trkpt>
      <trkpt lat="43.14978" lon="1.13264">
        <ele>336.07034302</ele>
        <time>2021-10-17T07:22:03Z</time>
      </trkpt>
      <trkpt lat="43.14981" lon="1.13259">
        <ele>335.4503479</ele>
        <time>2021-10-17T07:22:04Z</time>
      </trkpt>
      <trkpt lat="43.14985" lon="1.13255">
        <ele>334.50033569</ele>
        <time>2021-10-17T07:22:05Z</time>
      </trkpt>
      <trkpt lat="43.14992" lon="1.1325">
        <ele>334.15032959</ele>
        <time>2021-10-17T07:22:06Z</time>
      </trkpt>
      <trkpt lat="43.14995" lon="1.13249">
        <ele>333.73031616</ele>
        <time>2021-10-17T07:22:07Z</time>
      </trkpt>
      <trkpt lat="43.14997" lon="1.13249">
        <ele>333.61032104</ele>
        <time>2021-10-17T07:22:08Z</time>
      </trkpt>
      <trkpt lat="43.14999" lon="1.1325">
        <ele>333.90032959</ele>
        <time>2021-10-17T07:22:09Z</time>
      </trkpt>
      <trkpt lat="43.15001" lon="1.13252">
        <ele>333.94033813</ele>
        <time>2021-10-17T07:22:10Z</time>
      </trkpt>
      <trkpt lat="43.15003" lon="1.13258">
        <ele>333.9503479</ele>
        <time>2021-10-17T07:22:11Z</time>
      </trkpt>
      <trkpt lat="43.15002" lon="1.13262">
        <ele>333.78033447</ele>
        <time>2021-10-17T07:22:12Z</time>
      </trkpt>
      <trkpt lat="43.15001" lon="1.13265">
        <ele>333.46032715</ele>
        <time>2021-10-17T07:22:13Z</time>
      </trkpt>
      <trkpt lat="43.14999" lon="1.13268">
        <ele>333.25033569</ele>
        <time>2021-10-17T07:22:14Z</time>
      </trkpt>
      <trkpt lat="43.14997" lon="1.13274">
        <ele>332.9503479</ele>
        <time>2021-10-17T07:22:15Z</time>
      </trkpt>
      <trkpt lat="43.14995" lon="1.13278">
        <ele>332.61035156</ele>
        <time>2021-10-17T07:22:16Z</time>
      </trkpt>
      <trkpt lat="43.14994" lon="1.13282">
        <ele>332.14035034</ele>
        <time>2021-10-17T07:22:17Z</time>
      </trkpt>
      <trkpt lat="43.14993" lon="1.13286">
        <ele>331.66033936</ele>
        <time>2021-10-17T07:22:18Z</time>
      </trkpt>
      <trkpt lat="43.14993" lon="1.13289">
        <ele>331.42034912</ele>
        <time>2021-10-17T07:22:19Z</time>
      </trkpt>
      <trkpt lat="43.14992" lon="1.13295">
        <ele>331.23034668</ele>
        <time>2021-10-17T07:22:20Z</time>
      </trkpt>
      <trkpt lat="43.14991" lon="1.13299">
        <ele>330.98034668</ele>
        <time>2021-10-17T07:22:21Z</time>
      </trkpt>
      <trkpt lat="43.1499" lon="1.13303">
        <ele>330.66033936</ele>
        <time>2021-10-17T07:22:22Z</time>
      </trkpt>
      <trkpt lat="43.14989" lon="1.13307">
        <ele>330.02032471</ele>
        <time>2021-10-17T07:22:23Z</time>
      </trkpt>
      <trkpt lat="43.14988" lon="1.13313">
        <ele>329.23031616</ele>
        <time>2021-10-17T07:22:24Z</time>
      </trkpt>
      <trkpt lat="43.14988" lon="1.13318">
        <ele>328.39031982</ele>
        <time>2021-10-17T07:22:25Z</time>
      </trkpt>
      <trkpt lat="43.14986" lon="1.13322">
        <ele>327.50030518</ele>
        <time>2021-10-17T07:22:26Z</time>
      </trkpt>
      <trkpt lat="43.14985" lon="1.13327">
        <ele>326.69030762</ele>
        <time>2021-10-17T07:22:27Z</time>
      </trkpt>
      <trkpt lat="43.14983" lon="1.13334">
        <ele>326.06030273</ele>
        <time>2021-10-17T07:22:28Z</time>
      </trkpt>
      <trkpt lat="43.14981" lon="1.13339">
        <ele>325.27029419</ele>
        <time>2021-10-17T07:22:29Z</time>
      </trkpt>
      <trkpt lat="43.14979" lon="1.13344">
        <ele>324.43029785</ele>
        <time>2021-10-17T07:22:30Z</time>
      </trkpt>
      <trkpt lat="43.14977" lon="1.1335">
        <ele>323.53030396</ele>
        <time>2021-10-17T07:22:31Z</time>
      </trkpt>
      <trkpt lat="43.14975" lon="1.13355">
        <ele>322.62030029</ele>
        <time>2021-10-17T07:22:32Z</time>
      </trkpt>
      <trkpt lat="43.14973" lon="1.13362">
        <ele>321.95028687</ele>
        <time>2021-10-17T07:22:33Z</time>
      </trkpt>
      <trkpt lat="43.14972" lon="1.13366">
        <ele>321.49029541</ele>
        <time>2021-10-17T07:22:34Z</time>
      </trkpt>
      <trkpt lat="43.1497" lon="1.13369">
        <ele>321.24029541</ele>
        <time>2021-10-17T07:22:35Z</time>
      </trkpt>
      <trkpt lat="43.14969" lon="1.13371">
        <ele>321.05029297</ele>
        <time>2021-10-17T07:22:36Z</time>
      </trkpt>
      <trkpt lat="43.14967" lon="1.13375">
        <ele>320.94030762</ele>
        <time>2021-10-17T07:22:37Z</time>
      </trkpt>
      <trkpt lat="43.14965" lon="1.13379">
        <ele>320.64031982</ele>
        <time>2021-10-17T07:22:38Z</time>
      </trkpt>
      <trkpt lat="43.14964" lon="1.13384">
        <ele>320.15032959</ele>
        <time>2021-10-17T07:22:39Z</time>
      </trkpt>
      <trkpt lat="43.14963" lon="1.13389">
        <ele>319.51031494</ele>
        <time>2021-10-17T07:22:40Z</time>
      </trkpt>
      <trkpt lat="43.14963" lon="1.13394">
        <ele>318.69030762</ele>
        <time>2021-10-17T07:22:41Z</time>
      </trkpt>
      <trkpt lat="43.14961" lon="1.13399">
        <ele>317.7203064</ele>
        <time>2021-10-17T07:22:42Z</time>
      </trkpt>
      <trkpt lat="43.1496" lon="1.13403">
        <ele>316.75030518</ele>
        <time>2021-10-17T07:22:43Z</time>
      </trkpt>
      <trkpt lat="43.14959" lon="1.13407">
        <ele>315.83029175</ele>
        <time>2021-10-17T07:22:44Z</time>
      </trkpt>
      <trkpt lat="43.14959" lon="1.1341">
        <ele>315.23028564</ele>
        <time>2021-10-17T07:22:45Z</time>
      </trkpt>
      <trkpt lat="43.14961" lon="1.13412">
        <ele>314.92028809</ele>
        <time>2021-10-17T07:22:46Z</time>
      </trkpt>
      <trkpt lat="43.14962" lon="1.13412">
        <ele>314.78027344</ele>
        <time>2021-10-17T07:22:47Z</time>
      </trkpt>
      <trkpt lat="43.14964" lon="1.13413">
        <ele>314.77026367</ele>
        <time>2021-10-17T07:22:48Z</time>
      </trkpt>
      <trkpt lat="43.14965" lon="1.13413">
        <ele>314.70025635</ele>
        <time>2021-10-17T07:22:49Z</time>
      </trkpt>
      <trkpt lat="43.14967" lon="1.13412">
        <ele>314.50024414</ele>
        <time>2021-10-17T07:22:50Z</time>
      </trkpt>
      <trkpt lat="43.14971" lon="1.13408">
        <ele>314.27023315</ele>
        <time>2021-10-17T07:22:51Z</time>
      </trkpt>
      <trkpt lat="43.14973" lon="1.13405">
        <ele>313.9102478</ele>
        <time>2021-10-17T07:22:52Z</time>
      </trkpt>
      <trkpt lat="43.14976" lon="1.13403">
        <ele>313.40023804</ele>
        <time>2021-10-17T07:22:53Z</time>
      </trkpt>
      <trkpt lat="43.14979" lon="1.13401">
        <ele>312.95022583</ele>
        <time>2021-10-17T07:22:54Z</time>
      </trkpt>
      <trkpt lat="43.14982" lon="1.13397">
        <ele>312.69021606</ele>
        <time>2021-10-17T07:22:55Z</time>
      </trkpt>
      <trkpt lat="43.14984" lon="1.13395">
        <ele>312.59020996</ele>
        <time>2021-10-17T07:22:56Z</time>
      </trkpt>
      <trkpt lat="43.14985" lon="1.13392">
        <ele>312.70019531</ele>
        <time>2021-10-17T07:22:57Z</time>
      </trkpt>
      <trkpt lat="43.14987" lon="1.13389">
        <ele>312.82019043</ele>
        <time>2021-10-17T07:22:58Z</time>
      </trkpt>
      <trkpt lat="43.14989" lon="1.13386">
        <ele>312.67019653</ele>
        <time>2021-10-17T07:22:59Z</time>
      </trkpt>
      <trkpt lat="43.14992" lon="1.13382">
        <ele>312.36019897</ele>
        <time>2021-10-17T07:23:00Z</time>
      </trkpt>
      <trkpt lat="43.14995" lon="1.13378">
        <ele>311.91018677</ele>
        <time>2021-10-17T07:23:01Z</time>
      </trkpt>
      <trkpt lat="43.14997" lon="1.13376">
        <ele>311.47018433</ele>
        <time>2021-10-17T07:23:02Z</time>
      </trkpt>
      <trkpt lat="43.14999" lon="1.13373">
        <ele>310.98019409</ele>
        <time>2021-10-17T07:23:03Z</time>
      </trkpt>
      <trkpt lat="43.15002" lon="1.13369">
        <ele>310.60018921</ele>
        <time>2021-10-17T07:23:04Z</time>
      </trkpt>
      <trkpt lat="43.15004" lon="1.13368">
        <ele>309.86019897</ele>
        <time>2021-10-17T07:23:05Z</time>
      </trkpt>
      <trkpt lat="43.15007" lon="1.13366">
        <ele>309.12020874</ele>
        <time>2021-10-17T07:23:06Z</time>
      </trkpt>
      <trkpt lat="43.1501" lon="1.13364">
        <ele>308.3302002</ele>
        <time>2021-10-17T07:23:07Z</time>
      </trkpt>
      <trkpt lat="43.15012" lon="1.13362">
        <ele>307.38018799</ele>
        <time>2021-10-17T07:23:08Z</time>
      </trkpt>
      <trkpt lat="43.15017" lon="1.13357">
        <ele>306.54019165</ele>
        <time>2021-10-17T07:23:09Z</time>
      </trkpt>
      <trkpt lat="43.15019" lon="1.13354">
        <ele>305.37017822</ele>
        <time>2021-10-17T07:23:10Z</time>
      </trkpt>
      <trkpt lat="43.15022" lon="1.1335">
        <ele>304.31018066</ele>
        <time>2021-10-17T07:23:11Z</time>
      </trkpt>
      <trkpt lat="43.15026" lon="1.13347">
        <ele>303.33016968</ele>
        <time>2021-10-17T07:23:12Z</time>
      </trkpt>
      <trkpt lat="43.1503" lon="1.13342">
        <ele>302.44015503</ele>
        <time>2021-10-17T07:23:13Z</time>
      </trkpt>
      <trkpt lat="43.15032" lon="1.13339">
        <ele>301.85015869</ele>
        <time>2021-10-17T07:23:14Z</time>
      </trkpt>
      <trkpt lat="43.15034" lon="1.13336">
        <ele>301.28015137</ele>
        <time>2021-10-17T07:23:15Z</time>
      </trkpt>
      <trkpt lat="43.15037" lon="1.13333">
        <ele>300.70016479</ele>
        <time>2021-10-17T07:23:16Z</time>
      </trkpt>
      <trkpt lat="43.15039" lon="1.13331">
        <ele>300.27017212</ele>
        <time>2021-10-17T07:23:17Z</time>
      </trkpt>
      <trkpt lat="43.15042" lon="1.13327">
        <ele>299.59017944</ele>
        <time>2021-10-17T07:23:18Z</time>
      </trkpt>
      <trkpt lat="43.15045" lon="1.13325">
        <ele>298.900177</ele>
        <time>2021-10-17T07:23:19Z</time>
      </trkpt>
      <trkpt lat="43.15047" lon="1.13322">
        <ele>297.89016724</ele>
        <time>2021-10-17T07:23:20Z</time>
      </trkpt>
      <trkpt lat="43.1505" lon="1.13318">
        <ele>296.78018188</ele>
        <time>2021-10-17T07:23:21Z</time>
      </trkpt>
      <trkpt lat="43.15054" lon="1.13312">
        <ele>295.78018188</ele>
        <time>2021-10-17T07:23:22Z</time>
      </trkpt>
      <trkpt lat="43.15057" lon="1.13308">
        <ele>294.74017334</ele>
        <time>2021-10-17T07:23:23Z</time>
      </trkpt>
      <trkpt lat="43.15059" lon="1.13303">
        <ele>293.87017822</ele>
        <time>2021-10-17T07:23:24Z</time>
      </trkpt>
      <trkpt lat="43.15061" lon="1.13299">
        <ele>293.08016968</ele>
        <time>2021-10-17T07:23:25Z</time>
      </trkpt>
      <trkpt lat="43.15064" lon="1.13295">
        <ele>292.35015869</ele>
        <time>2021-10-17T07:23:26Z</time>
      </trkpt>
      <trkpt lat="43.15069" lon="1.1329">
        <ele>291.45016479</ele>
        <time>2021-10-17T07:23:27Z</time>
      </trkpt>
      <trkpt lat="43.15071" lon="1.13287">
        <ele>290.46017456</ele>
        <time>2021-10-17T07:23:28Z</time>
      </trkpt>
      <trkpt lat="43.15072" lon="1.13283">
        <ele>289.53018188</ele>
        <time>2021-10-17T07:23:29Z</time>
      </trkpt>
      <trkpt lat="43.15074" lon="1.13279">
        <ele>288.19018555</ele>
        <time>2021-10-17T07:23:30Z</time>
      </trkpt>
      <trkpt lat="43.15077" lon="1.13271">
        <ele>286.57019043</ele>
        <time>2021-10-17T07:23:31Z</time>
      </trkpt>
      <trkpt lat="43.15079" lon="1.13267">
        <ele>285.27020264</ele>
        <time>2021-10-17T07:23:32Z</time>
      </trkpt>
      <trkpt lat="43.15081" lon="1.13263">
        <ele>283.86019897</ele>
        <time>2021-10-17T07:23:33Z</time>
      </trkpt>
      <trkpt lat="43.15083" lon="1.13259">
        <ele>282.67019653</ele>
        <time>2021-10-17T07:23:34Z</time>
      </trkpt>
      <trkpt lat="43.15085" lon="1.13255">
        <ele>281.82019043</ele>
        <time>2021-10-17T07:23:35Z</time>
      </trkpt>
      <trkpt lat="43.15086" lon="1.13248">
        <ele>280.89019775</ele>
        <time>2021-10-17T07:23:36Z</time>
      </trkpt>
      <trkpt lat="43.15087" lon="1.13243">
        <ele>280.01019287</ele>
        <time>2021-10-17T07:23:37Z</time>
      </trkpt>
      <trkpt lat="43.15087" lon="1.13239">
        <ele>279.31018066</ele>
        <time>2021-10-17T07:23:38Z</time>
      </trkpt>
      <trkpt lat="43.15088" lon="1.13235">
        <ele>278.58016968</ele>
        <time>2021-10-17T07:23:39Z</time>
      </trkpt>
      <trkpt lat="43.1509" lon="1.1323">
        <ele>277.67016602</ele>
        <time>2021-10-17T07:23:40Z</time>
      </trkpt>
      <trkpt lat="43.15093" lon="1.13226">
        <ele>276.82015991</ele>
        <time>2021-10-17T07:23:41Z</time>
      </trkpt>
      <trkpt lat="43.15094" lon="1.13223">
        <ele>275.98016357</ele>
        <time>2021-10-17T07:23:42Z</time>
      </trkpt>
      <trkpt lat="43.15095" lon="1.1322">
        <ele>275.34014893</ele>
        <time>2021-10-17T07:23:43Z</time>
      </trkpt>
      <trkpt lat="43.15096" lon="1.13215">
        <ele>274.79016113</ele>
        <time>2021-10-17T07:23:44Z</time>
      </trkpt>
      <trkpt lat="43.15097" lon="1.13212">
        <ele>274.21017456</ele>
        <time>2021-10-17T07:23:45Z</time>
      </trkpt>
      <trkpt lat="43.15096" lon="1.13209">
        <ele>273.650177</ele>
        <time>2021-10-17T07:23:46Z</time>
      </trkpt>
      <trkpt lat="43.15097" lon="1.13206">
        <ele>273.06018066</ele>
        <time>2021-10-17T07:23:47Z</time>
      </trkpt>
      <trkpt lat="43.15097" lon="1.13203">
        <ele>272.63018799</ele>
        <time>2021-10-17T07:23:48Z</time>
      </trkpt>
      <trkpt lat="43.15097" lon="1.13201">
        <ele>272.37017822</ele>
        <time>2021-10-17T07:23:49Z</time>
      </trkpt>
      <trkpt lat="43.15097" lon="1.13197">
        <ele>272.23016357</ele>
        <time>2021-10-17T07:23:50Z</time>
      </trkpt>
      <trkpt lat="43.15097" lon="1.13196">
        <ele>272.24017334</ele>
        <time>2021-10-17T07:23:51Z</time>
      </trkpt>
      <trkpt lat="43.15102" lon="1.13184">
        <ele>272.13018799</ele>
        <time>2021-10-17T07:24:00Z</time>
      </trkpt>
      <trkpt lat="43.15102" lon="1.13183">
        <ele>271.97018433</ele>
        <time>2021-10-17T07:24:01Z</time>
      </trkpt>
      <trkpt lat="43.15102" lon="1.13182">
        <ele>271.82019043</ele>
        <time>2021-10-17T07:24:02Z</time>
      </trkpt>
      <trkpt lat="43.15102" lon="1.13181">
        <ele>271.78018188</ele>
        <time>2021-10-17T07:24:03Z</time>
      </trkpt>
      <trkpt lat="43.15103" lon="1.1318">
        <ele>271.73019409</ele>
        <time>2021-10-17T07:24:04Z</time>
      </trkpt>
      <trkpt lat="43.15109" lon="1.13177">
        <ele>274.1802063</ele>
        <time>2021-10-17T07:27:07Z</time>
      </trkpt>
      <trkpt lat="43.1511" lon="1.13178">
        <ele>274.24020386</ele>
        <time>2021-10-17T07:27:08Z</time>
      </trkpt>
      <trkpt lat="43.15111" lon="1.13178">
        <ele>274.2802124</ele>
        <time>2021-10-17T07:27:09Z</time>
      </trkpt>
      <trkpt lat="43.15113" lon="1.13178">
        <ele>274.2802124</ele>
        <time>2021-10-17T07:27:10Z</time>
      </trkpt>
      <trkpt lat="43.15114" lon="1.13178">
        <ele>274.27020264</ele>
        <time>2021-10-17T07:27:11Z</time>
      </trkpt>
      <trkpt lat="43.15117" lon="1.13177">
        <ele>274.1802063</ele>
        <time>2021-10-17T07:27:12Z</time>
      </trkpt>
      <trkpt lat="43.15119" lon="1.13177">
        <ele>274.0802002</ele>
        <time>2021-10-17T07:27:13Z</time>
      </trkpt>
      <trkpt lat="43.1512" lon="1.13178">
        <ele>273.90020752</ele>
        <time>2021-10-17T07:27:14Z</time>
      </trkpt>
      <trkpt lat="43.15121" lon="1.13178">
        <ele>273.7802124</ele>
        <time>2021-10-17T07:27:15Z</time>
      </trkpt>
      <trkpt lat="43.15122" lon="1.13177">
        <ele>273.74020386</ele>
        <time>2021-10-17T07:27:16Z</time>
      </trkpt>
      <trkpt lat="43.15125" lon="1.13173">
        <ele>273.74020386</ele>
        <time>2021-10-17T07:27:35Z</time>
      </trkpt>
      <trkpt lat="43.15127" lon="1.13173">
        <ele>273.73019409</ele>
        <time>2021-10-17T07:27:36Z</time>
      </trkpt>
      <trkpt lat="43.15129" lon="1.13172">
        <ele>273.62020874</ele>
        <time>2021-10-17T07:27:37Z</time>
      </trkpt>
      <trkpt lat="43.15131" lon="1.13171">
        <ele>273.46020508</ele>
        <time>2021-10-17T07:27:38Z</time>
      </trkpt>
      <trkpt lat="43.15135" lon="1.13171">
        <ele>273.37020874</ele>
        <time>2021-10-17T07:27:39Z</time>
      </trkpt>
      <trkpt lat="43.15138" lon="1.13171">
        <ele>273.34020996</ele>
        <time>2021-10-17T07:27:40Z</time>
      </trkpt>
      <trkpt lat="43.1514" lon="1.1317">
        <ele>273.31021118</ele>
        <time>2021-10-17T07:27:41Z</time>
      </trkpt>
      <trkpt lat="43.15143" lon="1.1317">
        <ele>273.30020142</ele>
        <time>2021-10-17T07:27:42Z</time>
      </trkpt>
      <trkpt lat="43.15145" lon="1.13169">
        <ele>273.29019165</ele>
        <time>2021-10-17T07:27:43Z</time>
      </trkpt>
      <trkpt lat="43.15149" lon="1.13169">
        <ele>273.19018555</ele>
        <time>2021-10-17T07:27:44Z</time>
      </trkpt>
      <trkpt lat="43.15152" lon="1.13169">
        <ele>273.11019897</ele>
        <time>2021-10-17T07:27:45Z</time>
      </trkpt>
      <trkpt lat="43.15155" lon="1.13169">
        <ele>273.07019043</ele>
        <time>2021-10-17T07:27:46Z</time>
      </trkpt>
      <trkpt lat="43.15158" lon="1.13169">
        <ele>272.93017578</ele>
        <time>2021-10-17T07:27:47Z</time>
      </trkpt>
      <trkpt lat="43.15164" lon="1.13168">
        <ele>272.83016968</ele>
        <time>2021-10-17T07:27:48Z</time>
      </trkpt>
      <trkpt lat="43.15167" lon="1.13169">
        <ele>272.75018311</ele>
        <time>2021-10-17T07:27:49Z</time>
      </trkpt>
      <trkpt lat="43.15171" lon="1.13168">
        <ele>272.61016846</ele>
        <time>2021-10-17T07:27:50Z</time>
      </trkpt>
      <trkpt lat="43.15175" lon="1.13168">
        <ele>272.77017212</ele>
        <time>2021-10-17T07:27:51Z</time>
      </trkpt>
      <trkpt lat="43.1518" lon="1.13166">
        <ele>272.71017456</ele>
        <time>2021-10-17T07:27:52Z</time>
      </trkpt>
      <trkpt lat="43.15183" lon="1.13165">
        <ele>272.69018555</ele>
        <time>2021-10-17T07:27:53Z</time>
      </trkpt>
      <trkpt lat="43.15186" lon="1.13164">
        <ele>272.78018188</ele>
        <time>2021-10-17T07:27:54Z</time>
      </trkpt>
      <trkpt lat="43.1519" lon="1.13164">
        <ele>272.58016968</ele>
        <time>2021-10-17T07:27:55Z</time>
      </trkpt>
      <trkpt lat="43.15193" lon="1.13164">
        <ele>272.56018066</ele>
        <time>2021-10-17T07:27:56Z</time>
      </trkpt>
      <trkpt lat="43.15195" lon="1.13163">
        <ele>272.62017822</ele>
        <time>2021-10-17T07:27:57Z</time>
      </trkpt>
      <trkpt lat="43.15197" lon="1.13163">
        <ele>272.44018555</ele>
        <time>2021-10-17T07:27:58Z</time>
      </trkpt>
      <trkpt lat="43.15198" lon="1.13161">
        <ele>272.29019165</ele>
        <time>2021-10-17T07:27:59Z</time>
      </trkpt>
      <trkpt lat="43.15199" lon="1.13159">
        <ele>272.03018188</ele>
        <time>2021-10-17T07:28:00Z</time>
      </trkpt>
      <trkpt lat="43.152" lon="1.13154">
        <ele>271.69018555</ele>
        <time>2021-10-17T07:28:01Z</time>
      </trkpt>
      <trkpt lat="43.152" lon="1.13148">
        <ele>271.44018555</ele>
        <time>2021-10-17T07:28:02Z</time>
      </trkpt>
      <trkpt lat="43.152" lon="1.13144">
        <ele>271.150177</ele>
        <time>2021-10-17T07:28:03Z</time>
      </trkpt>
      <trkpt lat="43.152" lon="1.1314">
        <ele>270.99017334</ele>
        <time>2021-10-17T07:28:04Z</time>
      </trkpt>
      <trkpt lat="43.15201" lon="1.13138">
        <ele>270.86016846</ele>
        <time>2021-10-17T07:28:05Z</time>
      </trkpt>
      <trkpt lat="43.15203" lon="1.13136">
        <ele>270.86016846</ele>
        <time>2021-10-17T07:28:06Z</time>
      </trkpt>
      <trkpt lat="43.15204" lon="1.13135">
        <ele>270.89016724</ele>
        <time>2021-10-17T07:28:07Z</time>
      </trkpt>
      <trkpt lat="43.15205" lon="1.13134">
        <ele>270.88015747</ele>
        <time>2021-10-17T07:28:08Z</time>
      </trkpt>
      <trkpt lat="43.15207" lon="1.13132">
        <ele>270.82015991</ele>
        <time>2021-10-17T07:28:09Z</time>
      </trkpt>
      <trkpt lat="43.15208" lon="1.13131">
        <ele>270.69015503</ele>
        <time>2021-10-17T07:28:10Z</time>
      </trkpt>
      <trkpt lat="43.1521" lon="1.13129">
        <ele>270.48016357</ele>
        <time>2021-10-17T07:28:11Z</time>
      </trkpt>
      <trkpt lat="43.15211" lon="1.13128">
        <ele>270.38015747</ele>
        <time>2021-10-17T07:28:12Z</time>
      </trkpt>
      <trkpt lat="43.15212" lon="1.13126">
        <ele>270.28015137</ele>
        <time>2021-10-17T07:28:13Z</time>
      </trkpt>
      <trkpt lat="43.15212" lon="1.13124">
        <ele>270.21014404</ele>
        <time>2021-10-17T07:28:14Z</time>
      </trkpt>
      <trkpt lat="43.15214" lon="1.13122">
        <ele>270.25015259</ele>
        <time>2021-10-17T07:28:15Z</time>
      </trkpt>
      <trkpt lat="43.15216" lon="1.1312">
        <ele>270.25015259</ele>
        <time>2021-10-17T07:28:16Z</time>
      </trkpt>
      <trkpt lat="43.15217" lon="1.13119">
        <ele>270.31015015</ele>
        <time>2021-10-17T07:28:17Z</time>
      </trkpt>
      <trkpt lat="43.15219" lon="1.13118">
        <ele>270.37014771</ele>
        <time>2021-10-17T07:28:18Z</time>
      </trkpt>
      <trkpt lat="43.15221" lon="1.13117">
        <ele>270.56015015</ele>
        <time>2021-10-17T07:28:19Z</time>
      </trkpt>
      <trkpt lat="43.15224" lon="1.13115">
        <ele>270.80014038</ele>
        <time>2021-10-17T07:28:20Z</time>
      </trkpt>
      <trkpt lat="43.15226" lon="1.13114">
        <ele>271.05014038</ele>
        <time>2021-10-17T07:28:21Z</time>
      </trkpt>
      <trkpt lat="43.15228" lon="1.13113">
        <ele>271.21014404</ele>
        <time>2021-10-17T07:28:22Z</time>
      </trkpt>
      <trkpt lat="43.15231" lon="1.13111">
        <ele>271.48013306</ele>
        <time>2021-10-17T07:28:23Z</time>
      </trkpt>
      <trkpt lat="43.15237" lon="1.13109">
        <ele>271.65014648</ele>
        <time>2021-10-17T07:28:24Z</time>
      </trkpt>
      <trkpt lat="43.1524" lon="1.13109">
        <ele>271.79016113</ele>
        <time>2021-10-17T07:28:25Z</time>
      </trkpt>
      <trkpt lat="43.15243" lon="1.13109">
        <ele>272.04016113</ele>
        <time>2021-10-17T07:28:26Z</time>
      </trkpt>
      <trkpt lat="43.15244" lon="1.13109">
        <ele>272.07015991</ele>
        <time>2021-10-17T07:28:27Z</time>
      </trkpt>
      <trkpt lat="43.15245" lon="1.13109">
        <ele>272.21017456</ele>
        <time>2021-10-17T07:28:28Z</time>
      </trkpt>
      <trkpt lat="43.15246" lon="1.13109">
        <ele>272.35018921</ele>
        <time>2021-10-17T07:28:29Z</time>
      </trkpt>
      <trkpt lat="43.15248" lon="1.13108">
        <ele>272.70019531</ele>
        <time>2021-10-17T07:28:32Z</time>
      </trkpt>
      <trkpt lat="43.1525" lon="1.13107">
        <ele>272.70019531</ele>
        <time>2021-10-17T07:28:33Z</time>
      </trkpt>
      <trkpt lat="43.15252" lon="1.13104">
        <ele>272.66018677</ele>
        <time>2021-10-17T07:28:34Z</time>
      </trkpt>
      <trkpt lat="43.15253" lon="1.131">
        <ele>272.62017822</ele>
        <time>2021-10-17T07:28:35Z</time>
      </trkpt>
      <trkpt lat="43.15255" lon="1.13096">
        <ele>272.57019043</ele>
        <time>2021-10-17T07:28:36Z</time>
      </trkpt>
      <trkpt lat="43.15256" lon="1.13089">
        <ele>272.50018311</ele>
        <time>2021-10-17T07:28:37Z</time>
      </trkpt>
      <trkpt lat="43.15257" lon="1.13084">
        <ele>272.35018921</ele>
        <time>2021-10-17T07:28:38Z</time>
      </trkpt>
      <trkpt lat="43.15258" lon="1.13079">
        <ele>272.26019287</ele>
        <time>2021-10-17T07:28:39Z</time>
      </trkpt>
      <trkpt lat="43.15259" lon="1.13075">
        <ele>272.20019531</ele>
        <time>2021-10-17T07:28:40Z</time>
      </trkpt>
      <trkpt lat="43.15259" lon="1.1307">
        <ele>272.24020386</ele>
        <time>2021-10-17T07:28:41Z</time>
      </trkpt>
      <trkpt lat="43.15261" lon="1.13063">
        <ele>272.38021851</ele>
        <time>2021-10-17T07:28:42Z</time>
      </trkpt>
      <trkpt lat="43.15262" lon="1.13057">
        <ele>272.44021606</ele>
        <time>2021-10-17T07:28:43Z</time>
      </trkpt>
      <trkpt lat="43.15263" lon="1.13052">
        <ele>272.46020508</ele>
        <time>2021-10-17T07:28:44Z</time>
      </trkpt>
      <trkpt lat="43.15264" lon="1.13047">
        <ele>272.37020874</ele>
        <time>2021-10-17T07:28:45Z</time>
      </trkpt>
      <trkpt lat="43.15266" lon="1.1304">
        <ele>272.21020508</ele>
        <time>2021-10-17T07:28:46Z</time>
      </trkpt>
      <trkpt lat="43.15266" lon="1.13035">
        <ele>272.04019165</ele>
        <time>2021-10-17T07:28:47Z</time>
      </trkpt>
      <trkpt lat="43.15267" lon="1.1303">
        <ele>272.04019165</ele>
        <time>2021-10-17T07:28:48Z</time>
      </trkpt>
      <trkpt lat="43.15267" lon="1.13026">
        <ele>272.03018188</ele>
        <time>2021-10-17T07:28:49Z</time>
      </trkpt>
      <trkpt lat="43.15268" lon="1.13021">
        <ele>272.03018188</ele>
        <time>2021-10-17T07:28:50Z</time>
      </trkpt>
      <trkpt lat="43.15269" lon="1.13015">
        <ele>272.00018311</ele>
        <time>2021-10-17T07:28:51Z</time>
      </trkpt>
      <trkpt lat="43.1527" lon="1.13011">
        <ele>271.96017456</ele>
        <time>2021-10-17T07:28:52Z</time>
      </trkpt>
      <trkpt lat="43.1527" lon="1.13007">
        <ele>271.94018555</ele>
        <time>2021-10-17T07:28:53Z</time>
      </trkpt>
      <trkpt lat="43.15271" lon="1.13003">
        <ele>271.94018555</ele>
        <time>2021-10-17T07:28:54Z</time>
      </trkpt>
      <trkpt lat="43.15272" lon="1.12996">
        <ele>271.87017822</ele>
        <time>2021-10-17T07:28:55Z</time>
      </trkpt>
      <trkpt lat="43.15273" lon="1.12992">
        <ele>271.84017944</ele>
        <time>2021-10-17T07:28:56Z</time>
      </trkpt>
      <trkpt lat="43.15273" lon="1.12988">
        <ele>271.8001709</ele>
        <time>2021-10-17T07:28:57Z</time>
      </trkpt>
      <trkpt lat="43.15274" lon="1.12984">
        <ele>271.77017212</ele>
        <time>2021-10-17T07:28:58Z</time>
      </trkpt>
      <trkpt lat="43.15274" lon="1.1298">
        <ele>271.81018066</ele>
        <time>2021-10-17T07:28:59Z</time>
      </trkpt>
      <trkpt lat="43.15276" lon="1.12974">
        <ele>271.85018921</ele>
        <time>2021-10-17T07:29:00Z</time>
      </trkpt>
      <trkpt lat="43.15277" lon="1.12971">
        <ele>271.85018921</ele>
        <time>2021-10-17T07:29:01Z</time>
      </trkpt>
      <trkpt lat="43.15277" lon="1.12967">
        <ele>271.87017822</ele>
        <time>2021-10-17T07:29:02Z</time>
      </trkpt>
      <trkpt lat="43.15279" lon="1.12963">
        <ele>271.84017944</ele>
        <time>2021-10-17T07:29:03Z</time>
      </trkpt>
      <trkpt lat="43.1528" lon="1.1296">
        <ele>271.8001709</ele>
        <time>2021-10-17T07:29:04Z</time>
      </trkpt>
      <trkpt lat="43.15282" lon="1.12955">
        <ele>271.8001709</ele>
        <time>2021-10-17T07:29:05Z</time>
      </trkpt>
      <trkpt lat="43.15284" lon="1.12951">
        <ele>271.73016357</ele>
        <time>2021-10-17T07:29:06Z</time>
      </trkpt>
      <trkpt lat="43.15285" lon="1.12948">
        <ele>271.650177</ele>
        <time>2021-10-17T07:29:07Z</time>
      </trkpt>
      <trkpt lat="43.15287" lon="1.12945">
        <ele>271.61016846</ele>
        <time>2021-10-17T07:29:08Z</time>
      </trkpt>
      <trkpt lat="43.15289" lon="1.12939">
        <ele>271.57015991</ele>
        <time>2021-10-17T07:29:09Z</time>
      </trkpt>
      <trkpt lat="43.1529" lon="1.12935">
        <ele>271.54016113</ele>
        <time>2021-10-17T07:29:10Z</time>
      </trkpt>
      <trkpt lat="43.15292" lon="1.12932">
        <ele>271.53015137</ele>
        <time>2021-10-17T07:29:11Z</time>
      </trkpt>
      <trkpt lat="43.15294" lon="1.12929">
        <ele>271.53015137</ele>
        <time>2021-10-17T07:29:12Z</time>
      </trkpt>
      <trkpt lat="43.15295" lon="1.12926">
        <ele>271.48016357</ele>
        <time>2021-10-17T07:29:13Z</time>
      </trkpt>
      <trkpt lat="43.15296" lon="1.12921">
        <ele>271.46017456</ele>
        <time>2021-10-17T07:29:14Z</time>
      </trkpt>
      <trkpt lat="43.15297" lon="1.12919">
        <ele>271.52017212</ele>
        <time>2021-10-17T07:29:15Z</time>
      </trkpt>
      <trkpt lat="43.15298" lon="1.12916">
        <ele>271.59017944</ele>
        <time>2021-10-17T07:29:16Z</time>
      </trkpt>
      <trkpt lat="43.15299" lon="1.12914">
        <ele>271.70016479</ele>
        <time>2021-10-17T07:29:17Z</time>
      </trkpt>
      <trkpt lat="43.153" lon="1.1291">
        <ele>271.8001709</ele>
        <time>2021-10-17T07:29:18Z</time>
      </trkpt>
      <trkpt lat="43.15301" lon="1.12908">
        <ele>271.86016846</ele>
        <time>2021-10-17T07:29:19Z</time>
      </trkpt>
      <trkpt lat="43.15302" lon="1.12906">
        <ele>271.900177</ele>
        <time>2021-10-17T07:29:20Z</time>
      </trkpt>
      <trkpt lat="43.15303" lon="1.12904">
        <ele>271.89016724</ele>
        <time>2021-10-17T07:29:21Z</time>
      </trkpt>
      <trkpt lat="43.15305" lon="1.12901">
        <ele>271.88015747</ele>
        <time>2021-10-17T07:29:22Z</time>
      </trkpt>
      <trkpt lat="43.15308" lon="1.12899">
        <ele>271.88015747</ele>
        <time>2021-10-17T07:29:23Z</time>
      </trkpt>
      <trkpt lat="43.1531" lon="1.12897">
        <ele>271.88015747</ele>
        <time>2021-10-17T07:29:24Z</time>
      </trkpt>
      <trkpt lat="43.15312" lon="1.12895">
        <ele>271.94015503</ele>
        <time>2021-10-17T07:29:25Z</time>
      </trkpt>
      <trkpt lat="43.15314" lon="1.12893">
        <ele>271.97015381</ele>
        <time>2021-10-17T07:29:26Z</time>
      </trkpt>
      <trkpt lat="43.15317" lon="1.1289">
        <ele>272.00015259</ele>
        <time>2021-10-17T07:29:27Z</time>
      </trkpt>
      <trkpt lat="43.1532" lon="1.12888">
        <ele>271.97015381</ele>
        <time>2021-10-17T07:29:28Z</time>
      </trkpt>
      <trkpt lat="43.15322" lon="1.12885">
        <ele>271.93014526</ele>
        <time>2021-10-17T07:29:29Z</time>
      </trkpt>
      <trkpt lat="43.15324" lon="1.12881">
        <ele>271.88015747</ele>
        <time>2021-10-17T07:29:30Z</time>
      </trkpt>
      <trkpt lat="43.15329" lon="1.12876">
        <ele>271.78015137</ele>
        <time>2021-10-17T07:29:31Z</time>
      </trkpt>
      <trkpt lat="43.15333" lon="1.12872">
        <ele>271.71014404</ele>
        <time>2021-10-17T07:29:32Z</time>
      </trkpt>
      <trkpt lat="43.15337" lon="1.12869">
        <ele>271.64013672</ele>
        <time>2021-10-17T07:29:33Z</time>
      </trkpt>
      <trkpt lat="43.1534" lon="1.12865">
        <ele>271.63012695</ele>
        <time>2021-10-17T07:29:34Z</time>
      </trkpt>
      <trkpt lat="43.15343" lon="1.1286">
        <ele>271.66012573</ele>
        <time>2021-10-17T07:29:35Z</time>
      </trkpt>
      <trkpt lat="43.15349" lon="1.12854">
        <ele>271.69012451</ele>
        <time>2021-10-17T07:29:36Z</time>
      </trkpt>
      <trkpt lat="43.15353" lon="1.1285">
        <ele>271.75012207</ele>
        <time>2021-10-17T07:29:37Z</time>
      </trkpt>
      <trkpt lat="43.15357" lon="1.12846">
        <ele>271.82012939</ele>
        <time>2021-10-17T07:29:38Z</time>
      </trkpt>
      <trkpt lat="43.1536" lon="1.12842">
        <ele>271.88012695</ele>
        <time>2021-10-17T07:29:39Z</time>
      </trkpt>
      <trkpt lat="43.15366" lon="1.12836">
        <ele>271.97012329</ele>
        <time>2021-10-17T07:29:40Z</time>
      </trkpt>
      <trkpt lat="43.1537" lon="1.12833">
        <ele>272.09011841</ele>
        <time>2021-10-17T07:29:41Z</time>
      </trkpt>
      <trkpt lat="43.15374" lon="1.12829">
        <ele>272.25012207</ele>
        <time>2021-10-17T07:29:42Z</time>
      </trkpt>
      <trkpt lat="43.15378" lon="1.12826">
        <ele>272.47012329</ele>
        <time>2021-10-17T07:29:43Z</time>
      </trkpt>
      <trkpt lat="43.15381" lon="1.12823">
        <ele>272.69012451</ele>
        <time>2021-10-17T07:29:44Z</time>
      </trkpt>
      <trkpt lat="43.15387" lon="1.12818">
        <ele>272.90011597</ele>
        <time>2021-10-17T07:29:45Z</time>
      </trkpt>
      <trkpt lat="43.1539" lon="1.12815">
        <ele>273.11010742</ele>
        <time>2021-10-17T07:29:46Z</time>
      </trkpt>
      <trkpt lat="43.15395" lon="1.12813">
        <ele>273.28012085</ele>
        <time>2021-10-17T07:29:47Z</time>
      </trkpt>
      <trkpt lat="43.15399" lon="1.12811">
        <ele>273.50012207</ele>
        <time>2021-10-17T07:29:48Z</time>
      </trkpt>
      <trkpt lat="43.15403" lon="1.12809">
        <ele>273.76013184</ele>
        <time>2021-10-17T07:29:49Z</time>
      </trkpt>
      <trkpt lat="43.1541" lon="1.12806">
        <ele>273.99014282</ele>
        <time>2021-10-17T07:29:50Z</time>
      </trkpt>
      <trkpt lat="43.15414" lon="1.12804">
        <ele>274.39013672</ele>
        <time>2021-10-17T07:29:51Z</time>
      </trkpt>
      <trkpt lat="43.15418" lon="1.12802">
        <ele>274.72012329</ele>
        <time>2021-10-17T07:29:52Z</time>
      </trkpt>
      <trkpt lat="43.15422" lon="1.128">
        <ele>275.03012085</ele>
        <time>2021-10-17T07:29:53Z</time>
      </trkpt>
      <trkpt lat="43.15428" lon="1.12798">
        <ele>275.31011963</ele>
        <time>2021-10-17T07:29:54Z</time>
      </trkpt>
      <trkpt lat="43.15432" lon="1.12796">
        <ele>275.50012207</ele>
        <time>2021-10-17T07:29:55Z</time>
      </trkpt>
      <trkpt lat="43.15436" lon="1.12794">
        <ele>275.80010986</ele>
        <time>2021-10-17T07:29:56Z</time>
      </trkpt>
      <trkpt lat="43.1544" lon="1.12792">
        <ele>276.07009888</ele>
        <time>2021-10-17T07:29:57Z</time>
      </trkpt>
      <trkpt lat="43.15446" lon="1.1279">
        <ele>276.40008545</ele>
        <time>2021-10-17T07:29:58Z</time>
      </trkpt>
      <trkpt lat="43.1545" lon="1.12789">
        <ele>276.73007202</ele>
        <time>2021-10-17T07:29:59Z</time>
      </trkpt>
      <trkpt lat="43.15454" lon="1.12788">
        <ele>277.02008057</ele>
        <time>2021-10-17T07:30:00Z</time>
      </trkpt>
      <trkpt lat="43.15458" lon="1.12787">
        <ele>277.31008911</ele>
        <time>2021-10-17T07:30:01Z</time>
      </trkpt>
      <trkpt lat="43.15462" lon="1.12786">
        <ele>277.5401001</ele>
        <time>2021-10-17T07:30:02Z</time>
      </trkpt>
      <trkpt lat="43.15468" lon="1.12784">
        <ele>277.67010498</ele>
        <time>2021-10-17T07:30:03Z</time>
      </trkpt>
      <trkpt lat="43.15472" lon="1.12782">
        <ele>277.66009521</ele>
        <time>2021-10-17T07:30:04Z</time>
      </trkpt>
      <trkpt lat="43.15477" lon="1.1278">
        <ele>277.56008911</ele>
        <time>2021-10-17T07:30:05Z</time>
      </trkpt>
      <trkpt lat="43.15481" lon="1.12778">
        <ele>277.33007812</ele>
        <time>2021-10-17T07:30:06Z</time>
      </trkpt>
      <trkpt lat="43.15489" lon="1.12775">
        <ele>276.98007202</ele>
        <time>2021-10-17T07:30:07Z</time>
      </trkpt>
      <trkpt lat="43.15495" lon="1.12773">
        <ele>276.58007812</ele>
        <time>2021-10-17T07:30:08Z</time>
      </trkpt>
      <trkpt lat="43.155" lon="1.12771">
        <ele>276.14007568</ele>
        <time>2021-10-17T07:30:09Z</time>
      </trkpt>
      <trkpt lat="43.15506" lon="1.12769">
        <ele>275.72006226</ele>
        <time>2021-10-17T07:30:10Z</time>
      </trkpt>
      <trkpt lat="43.15511" lon="1.12767">
        <ele>275.27005005</ele>
        <time>2021-10-17T07:30:11Z</time>
      </trkpt>
      <trkpt lat="43.1552" lon="1.12764">
        <ele>274.79003906</ele>
        <time>2021-10-17T07:30:12Z</time>
      </trkpt>
      <trkpt lat="43.15525" lon="1.12761">
        <ele>274.2800293</ele>
        <time>2021-10-17T07:30:13Z</time>
      </trkpt>
      <trkpt lat="43.15531" lon="1.12757">
        <ele>273.86001587</ele>
        <time>2021-10-17T07:30:14Z</time>
      </trkpt>
      <trkpt lat="43.15537" lon="1.12753">
        <ele>273.37002563</ele>
        <time>2021-10-17T07:30:15Z</time>
      </trkpt>
      <trkpt lat="43.15543" lon="1.12749">
        <ele>272.99002075</ele>
        <time>2021-10-17T07:30:16Z</time>
      </trkpt>
      <trkpt lat="43.15551" lon="1.12743">
        <ele>272.57000732</ele>
        <time>2021-10-17T07:30:17Z</time>
      </trkpt>
      <trkpt lat="43.15556" lon="1.12738">
        <ele>272.11999512</ele>
        <time>2021-10-17T07:30:18Z</time>
      </trkpt>
      <trkpt lat="43.1556" lon="1.12733">
        <ele>271.80999756</ele>
        <time>2021-10-17T07:30:19Z</time>
      </trkpt>
      <trkpt lat="43.15565" lon="1.12727">
        <ele>271.35998535</ele>
        <time>2021-10-17T07:30:20Z</time>
      </trkpt>
      <trkpt lat="43.15571" lon="1.12718">
        <ele>270.98999023</ele>
        <time>2021-10-17T07:30:21Z</time>
      </trkpt>
      <trkpt lat="43.15575" lon="1.12712">
        <ele>270.57998657</ele>
        <time>2021-10-17T07:30:22Z</time>
      </trkpt>
      <trkpt lat="43.15578" lon="1.12705">
        <ele>270.25997925</ele>
        <time>2021-10-17T07:30:23Z</time>
      </trkpt>
      <trkpt lat="43.1558" lon="1.12698">
        <ele>270.10998535</ele>
        <time>2021-10-17T07:30:24Z</time>
      </trkpt>
      <trkpt lat="43.15583" lon="1.12691">
        <ele>270.08999634</ele>
        <time>2021-10-17T07:30:25Z</time>
      </trkpt>
      <trkpt lat="43.15587" lon="1.12681">
        <ele>270.32000732</ele>
        <time>2021-10-17T07:30:26Z</time>
      </trkpt>
      <trkpt lat="43.1559" lon="1.12674">
        <ele>270.45001221</ele>
        <time>2021-10-17T07:30:27Z</time>
      </trkpt>
      <trkpt lat="43.15592" lon="1.12668">
        <ele>270.57000732</ele>
        <time>2021-10-17T07:30:28Z</time>
      </trkpt>
      <trkpt lat="43.15595" lon="1.12661">
        <ele>270.61001587</ele>
        <time>2021-10-17T07:30:29Z</time>
      </trkpt>
      <trkpt lat="43.15598" lon="1.12651">
        <ele>270.51000977</ele>
        <time>2021-10-17T07:30:30Z</time>
      </trkpt>
      <trkpt lat="43.156" lon="1.12644">
        <ele>270.41000366</ele>
        <time>2021-10-17T07:30:31Z</time>
      </trkpt>
      <trkpt lat="43.15603" lon="1.12638">
        <ele>270.29000854</ele>
        <time>2021-10-17T07:30:32Z</time>
      </trkpt>
      <trkpt lat="43.15605" lon="1.12632">
        <ele>270.21002197</ele>
        <time>2021-10-17T07:30:33Z</time>
      </trkpt>
      <trkpt lat="43.15609" lon="1.12622">
        <ele>270.17001343</ele>
        <time>2021-10-17T07:30:34Z</time>
      </trkpt>
      <trkpt lat="43.15611" lon="1.12615">
        <ele>270.18002319</ele>
        <time>2021-10-17T07:30:35Z</time>
      </trkpt>
      <trkpt lat="43.15614" lon="1.12609">
        <ele>270.20001221</ele>
        <time>2021-10-17T07:30:36Z</time>
      </trkpt>
      <trkpt lat="43.15616" lon="1.12603">
        <ele>270.27999878</ele>
        <time>2021-10-17T07:30:37Z</time>
      </trkpt>
      <trkpt lat="43.15618" lon="1.12596">
        <ele>270.26998901</ele>
        <time>2021-10-17T07:30:38Z</time>
      </trkpt>
      <trkpt lat="43.15622" lon="1.12586">
        <ele>270.35998535</ele>
        <time>2021-10-17T07:30:39Z</time>
      </trkpt>
      <trkpt lat="43.15624" lon="1.1258">
        <ele>270.40997314</ele>
        <time>2021-10-17T07:30:40Z</time>
      </trkpt>
      <trkpt lat="43.15627" lon="1.12574">
        <ele>270.38998413</ele>
        <time>2021-10-17T07:30:41Z</time>
      </trkpt>
      <trkpt lat="43.15629" lon="1.12567">
        <ele>270.33999634</ele>
        <time>2021-10-17T07:30:42Z</time>
      </trkpt>
      <trkpt lat="43.15633" lon="1.12558">
        <ele>270.27999878</ele>
        <time>2021-10-17T07:30:43Z</time>
      </trkpt>
      <trkpt lat="43.15635" lon="1.12551">
        <ele>270.30999756</ele>
        <time>2021-10-17T07:30:44Z</time>
      </trkpt>
      <trkpt lat="43.15637" lon="1.12545">
        <ele>270.36999512</ele>
        <time>2021-10-17T07:30:45Z</time>
      </trkpt>
      <trkpt lat="43.1564" lon="1.12539">
        <ele>270.44998169</ele>
        <time>2021-10-17T07:30:46Z</time>
      </trkpt>
      <trkpt lat="43.15642" lon="1.12532">
        <ele>270.45999146</ele>
        <time>2021-10-17T07:30:47Z</time>
      </trkpt>
      <trkpt lat="43.15646" lon="1.12523">
        <ele>270.45999146</ele>
        <time>2021-10-17T07:30:48Z</time>
      </trkpt>
      <trkpt lat="43.15648" lon="1.12516">
        <ele>270.42999268</ele>
        <time>2021-10-17T07:30:49Z</time>
      </trkpt>
      <trkpt lat="43.1565" lon="1.1251">
        <ele>270.44000244</ele>
        <time>2021-10-17T07:30:50Z</time>
      </trkpt>
      <trkpt lat="43.15653" lon="1.12504">
        <ele>270.45999146</ele>
        <time>2021-10-17T07:30:51Z</time>
      </trkpt>
      <trkpt lat="43.15655" lon="1.12497">
        <ele>270.44000244</ele>
        <time>2021-10-17T07:30:52Z</time>
      </trkpt>
      <trkpt lat="43.15659" lon="1.12488">
        <ele>270.42999268</ele>
        <time>2021-10-17T07:30:53Z</time>
      </trkpt>
      <trkpt lat="43.15661" lon="1.12482">
        <ele>270.41998291</ele>
        <time>2021-10-17T07:30:54Z</time>
      </trkpt>
      <trkpt lat="43.15664" lon="1.12476">
        <ele>270.38998413</ele>
        <time>2021-10-17T07:30:55Z</time>
      </trkpt>
      <trkpt lat="43.15666" lon="1.12471">
        <ele>270.42999268</ele>
        <time>2021-10-17T07:30:56Z</time>
      </trkpt>
      <trkpt lat="43.1567" lon="1.12462">
        <ele>270.47000122</ele>
        <time>2021-10-17T07:30:57Z</time>
      </trkpt>
      <trkpt lat="43.15672" lon="1.12456">
        <ele>270.61001587</ele>
        <time>2021-10-17T07:30:58Z</time>
      </trkpt>
      <trkpt lat="43.15674" lon="1.12451">
        <ele>270.77001953</ele>
        <time>2021-10-17T07:30:59Z</time>
      </trkpt>
      <trkpt lat="43.15676" lon="1.12446">
        <ele>270.91003418</ele>
        <time>2021-10-17T07:31:00Z</time>
      </trkpt>
      <trkpt lat="43.15679" lon="1.1244">
        <ele>271.01004028</ele>
        <time>2021-10-17T07:31:01Z</time>
      </trkpt>
      <trkpt lat="43.15683" lon="1.12433">
        <ele>270.99005127</ele>
        <time>2021-10-17T07:31:02Z</time>
      </trkpt>
      <trkpt lat="43.15687" lon="1.12428">
        <ele>271.00006104</ele>
        <time>2021-10-17T07:31:03Z</time>
      </trkpt>
      <trkpt lat="43.1569" lon="1.12423">
        <ele>271.00006104</ele>
        <time>2021-10-17T07:31:04Z</time>
      </trkpt>
      <trkpt lat="43.15694" lon="1.12419">
        <ele>271.04006958</ele>
        <time>2021-10-17T07:31:05Z</time>
      </trkpt>
      <trkpt lat="43.157" lon="1.12413">
        <ele>271.1100769</ele>
        <time>2021-10-17T07:31:06Z</time>
      </trkpt>
      <trkpt lat="43.15704" lon="1.12409">
        <ele>271.14007568</ele>
        <time>2021-10-17T07:31:07Z</time>
      </trkpt>
      <trkpt lat="43.15708" lon="1.12405">
        <ele>271.1600647</ele>
        <time>2021-10-17T07:31:08Z</time>
      </trkpt>
      <trkpt lat="43.15712" lon="1.12402">
        <ele>271.1600647</ele>
        <time>2021-10-17T07:31:09Z</time>
      </trkpt>
      <trkpt lat="43.15718" lon="1.12396">
        <ele>271.22006226</ele>
        <time>2021-10-17T07:31:10Z</time>
      </trkpt>
      <trkpt lat="43.15722" lon="1.12393">
        <ele>271.2600708</ele>
        <time>2021-10-17T07:31:11Z</time>
      </trkpt>
      <trkpt lat="43.15726" lon="1.1239">
        <ele>271.30007935</ele>
        <time>2021-10-17T07:31:12Z</time>
      </trkpt>
      <trkpt lat="43.15729" lon="1.12386">
        <ele>271.24008179</ele>
        <time>2021-10-17T07:31:13Z</time>
      </trkpt>
      <trkpt lat="43.15732" lon="1.12382">
        <ele>271.09008789</ele>
        <time>2021-10-17T07:31:14Z</time>
      </trkpt>
      <trkpt lat="43.15738" lon="1.12376">
        <ele>270.91009521</ele>
        <time>2021-10-17T07:31:15Z</time>
      </trkpt>
      <trkpt lat="43.15742" lon="1.12371">
        <ele>270.68008423</ele>
        <time>2021-10-17T07:31:16Z</time>
      </trkpt>
      <trkpt lat="43.15745" lon="1.12367">
        <ele>270.47009277</ele>
        <time>2021-10-17T07:31:17Z</time>
      </trkpt>
      <trkpt lat="43.15749" lon="1.12361">
        <ele>270.21008301</ele>
        <time>2021-10-17T07:31:18Z</time>
      </trkpt>
      <trkpt lat="43.15755" lon="1.12353">
        <ele>269.92007446</ele>
        <time>2021-10-17T07:31:19Z</time>
      </trkpt>
      <trkpt lat="43.15759" lon="1.12347">
        <ele>269.63006592</ele>
        <time>2021-10-17T07:31:20Z</time>
      </trkpt>
      <trkpt lat="43.15762" lon="1.12342">
        <ele>269.38006592</ele>
        <time>2021-10-17T07:31:21Z</time>
      </trkpt>
      <trkpt lat="43.15766" lon="1.12337">
        <ele>269.24005127</ele>
        <time>2021-10-17T07:31:22Z</time>
      </trkpt>
      <trkpt lat="43.1577" lon="1.12332">
        <ele>269.11004639</ele>
        <time>2021-10-17T07:31:23Z</time>
      </trkpt>
      <trkpt lat="43.15777" lon="1.12325">
        <ele>268.96005249</ele>
        <time>2021-10-17T07:31:24Z</time>
      </trkpt>
      <trkpt lat="43.15781" lon="1.1232">
        <ele>268.84005737</ele>
        <time>2021-10-17T07:31:25Z</time>
      </trkpt>
      <trkpt lat="43.15786" lon="1.12316">
        <ele>268.70004272</ele>
        <time>2021-10-17T07:31:26Z</time>
      </trkpt>
      <trkpt lat="43.15791" lon="1.12311">
        <ele>268.57003784</ele>
        <time>2021-10-17T07:31:27Z</time>
      </trkpt>
      <trkpt lat="43.15797" lon="1.12305">
        <ele>268.45004272</ele>
        <time>2021-10-17T07:31:28Z</time>
      </trkpt>
      <trkpt lat="43.15802" lon="1.12301">
        <ele>268.32003784</ele>
        <time>2021-10-17T07:31:29Z</time>
      </trkpt>
      <trkpt lat="43.15806" lon="1.12298">
        <ele>268.10003662</ele>
        <time>2021-10-17T07:31:30Z</time>
      </trkpt>
      <trkpt lat="43.15812" lon="1.12295">
        <ele>267.90002441</ele>
        <time>2021-10-17T07:31:31Z</time>
      </trkpt>
      <trkpt lat="43.15817" lon="1.12292">
        <ele>267.76000977</ele>
        <time>2021-10-17T07:31:32Z</time>
      </trkpt>
      <trkpt lat="43.15824" lon="1.12288">
        <ele>267.65002441</ele>
        <time>2021-10-17T07:31:33Z</time>
      </trkpt>
      <trkpt lat="43.15829" lon="1.12286">
        <ele>267.64001465</ele>
        <time>2021-10-17T07:31:34Z</time>
      </trkpt>
      <trkpt lat="43.15834" lon="1.12283">
        <ele>267.73001099</ele>
        <time>2021-10-17T07:31:35Z</time>
      </trkpt>
      <trkpt lat="43.15839" lon="1.12281">
        <ele>267.86001587</ele>
        <time>2021-10-17T07:31:36Z</time>
      </trkpt>
      <trkpt lat="43.15844" lon="1.1228">
        <ele>267.93002319</ele>
        <time>2021-10-17T07:31:37Z</time>
      </trkpt>
      <trkpt lat="43.15851" lon="1.12278">
        <ele>267.99002075</ele>
        <time>2021-10-17T07:31:38Z</time>
      </trkpt>
      <trkpt lat="43.15855" lon="1.12276">
        <ele>267.93002319</ele>
        <time>2021-10-17T07:31:39Z</time>
      </trkpt>
      <trkpt lat="43.1586" lon="1.12273">
        <ele>267.73001099</ele>
        <time>2021-10-17T07:31:40Z</time>
      </trkpt>
      <trkpt lat="43.15865" lon="1.12271">
        <ele>267.49002075</ele>
        <time>2021-10-17T07:31:41Z</time>
      </trkpt>
      <trkpt lat="43.15873" lon="1.12269">
        <ele>267.22003174</ele>
        <time>2021-10-17T07:31:42Z</time>
      </trkpt>
      <trkpt lat="43.15878" lon="1.12266">
        <ele>266.9800415</ele>
        <time>2021-10-17T07:31:43Z</time>
      </trkpt>
      <trkpt lat="43.15883" lon="1.12264">
        <ele>266.79003906</ele>
        <time>2021-10-17T07:31:44Z</time>
      </trkpt>
      <trkpt lat="43.15888" lon="1.12262">
        <ele>266.61004639</ele>
        <time>2021-10-17T07:31:45Z</time>
      </trkpt>
      <trkpt lat="43.15893" lon="1.12261">
        <ele>266.42004395</ele>
        <time>2021-10-17T07:31:46Z</time>
      </trkpt>
      <trkpt lat="43.15901" lon="1.12258">
        <ele>266.24005127</ele>
        <time>2021-10-17T07:31:47Z</time>
      </trkpt>
      <trkpt lat="43.15906" lon="1.12257">
        <ele>266.10003662</ele>
        <time>2021-10-17T07:31:48Z</time>
      </trkpt>
      <trkpt lat="43.15911" lon="1.12255">
        <ele>266.01004028</ele>
        <time>2021-10-17T07:31:49Z</time>
      </trkpt>
      <trkpt lat="43.15916" lon="1.12252">
        <ele>265.95004272</ele>
        <time>2021-10-17T07:31:50Z</time>
      </trkpt>
      <trkpt lat="43.15923" lon="1.12249">
        <ele>265.92004395</ele>
        <time>2021-10-17T07:31:51Z</time>
      </trkpt>
      <trkpt lat="43.15928" lon="1.12248">
        <ele>265.87005615</ele>
        <time>2021-10-17T07:31:52Z</time>
      </trkpt>
      <trkpt lat="43.15933" lon="1.12246">
        <ele>265.86004639</ele>
        <time>2021-10-17T07:31:53Z</time>
      </trkpt>
      <trkpt lat="43.15937" lon="1.12244">
        <ele>265.86004639</ele>
        <time>2021-10-17T07:31:54Z</time>
      </trkpt>
      <trkpt lat="43.15942" lon="1.12242">
        <ele>265.86004639</ele>
        <time>2021-10-17T07:31:55Z</time>
      </trkpt>
      <trkpt lat="43.15949" lon="1.1224">
        <ele>265.93005371</ele>
        <time>2021-10-17T07:31:56Z</time>
      </trkpt>
      <trkpt lat="43.15954" lon="1.12239">
        <ele>266.05004883</ele>
        <time>2021-10-17T07:31:57Z</time>
      </trkpt>
      <trkpt lat="43.15959" lon="1.12237">
        <ele>266.18005371</ele>
        <time>2021-10-17T07:31:58Z</time>
      </trkpt>
      <trkpt lat="43.15963" lon="1.12235">
        <ele>266.32006836</ele>
        <time>2021-10-17T07:31:59Z</time>
      </trkpt>
      <trkpt lat="43.1597" lon="1.12233">
        <ele>266.47006226</ele>
        <time>2021-10-17T07:32:00Z</time>
      </trkpt>
      <trkpt lat="43.15975" lon="1.12231">
        <ele>266.59005737</ele>
        <time>2021-10-17T07:32:01Z</time>
      </trkpt>
      <trkpt lat="43.15979" lon="1.12229">
        <ele>266.71005249</ele>
        <time>2021-10-17T07:32:02Z</time>
      </trkpt>
      <trkpt lat="43.15984" lon="1.12228">
        <ele>266.87005615</ele>
        <time>2021-10-17T07:32:03Z</time>
      </trkpt>
      <trkpt lat="43.1599" lon="1.12225">
        <ele>267.00006104</ele>
        <time>2021-10-17T07:32:04Z</time>
      </trkpt>
      <trkpt lat="43.15995" lon="1.12224">
        <ele>267.1600647</ele>
        <time>2021-10-17T07:32:05Z</time>
      </trkpt>
      <trkpt lat="43.15999" lon="1.12222">
        <ele>267.30007935</ele>
        <time>2021-10-17T07:32:06Z</time>
      </trkpt>
      <trkpt lat="43.16003" lon="1.1222">
        <ele>267.38006592</ele>
        <time>2021-10-17T07:32:07Z</time>
      </trkpt>
      <trkpt lat="43.16007" lon="1.12217">
        <ele>267.40005493</ele>
        <time>2021-10-17T07:32:08Z</time>
      </trkpt>
      <trkpt lat="43.16013" lon="1.12213">
        <ele>267.32006836</ele>
        <time>2021-10-17T07:32:09Z</time>
      </trkpt>
      <trkpt lat="43.16018" lon="1.12211">
        <ele>267.28005981</ele>
        <time>2021-10-17T07:32:10Z</time>
      </trkpt>
      <trkpt lat="43.16022" lon="1.12208">
        <ele>267.23007202</ele>
        <time>2021-10-17T07:32:11Z</time>
      </trkpt>
      <trkpt lat="43.16025" lon="1.12205">
        <ele>267.21008301</ele>
        <time>2021-10-17T07:32:12Z</time>
      </trkpt>
      <trkpt lat="43.16031" lon="1.122">
        <ele>267.28009033</ele>
        <time>2021-10-17T07:32:13Z</time>
      </trkpt>
      <trkpt lat="43.16035" lon="1.12197">
        <ele>267.2901001</ele>
        <time>2021-10-17T07:32:14Z</time>
      </trkpt>
      <trkpt lat="43.16039" lon="1.12194">
        <ele>267.27011108</ele>
        <time>2021-10-17T07:32:15Z</time>
      </trkpt>
      <trkpt lat="43.16043" lon="1.12191">
        <ele>267.18011475</ele>
        <time>2021-10-17T07:32:16Z</time>
      </trkpt>
      <trkpt lat="43.16047" lon="1.12188">
        <ele>267.07012939</ele>
        <time>2021-10-17T07:32:17Z</time>
      </trkpt>
      <trkpt lat="43.16053" lon="1.12184">
        <ele>266.9201355</ele>
        <time>2021-10-17T07:32:18Z</time>
      </trkpt>
      <trkpt lat="43.16057" lon="1.12181">
        <ele>266.82012939</ele>
        <time>2021-10-17T07:32:19Z</time>
      </trkpt>
      <trkpt lat="43.16061" lon="1.12177">
        <ele>266.79013062</ele>
        <time>2021-10-17T07:32:20Z</time>
      </trkpt>
      <trkpt lat="43.16065" lon="1.12174">
        <ele>266.97012329</ele>
        <time>2021-10-17T07:32:21Z</time>
      </trkpt>
      <trkpt lat="43.16071" lon="1.12169">
        <ele>266.97012329</ele>
        <time>2021-10-17T07:32:22Z</time>
      </trkpt>
      <trkpt lat="43.16075" lon="1.12165">
        <ele>266.9201355</ele>
        <time>2021-10-17T07:32:23Z</time>
      </trkpt>
      <trkpt lat="43.16079" lon="1.12162">
        <ele>266.9201355</ele>
        <time>2021-10-17T07:32:24Z</time>
      </trkpt>
      <trkpt lat="43.16083" lon="1.12158">
        <ele>266.85012817</ele>
        <time>2021-10-17T07:32:25Z</time>
      </trkpt>
      <trkpt lat="43.16087" lon="1.12155">
        <ele>266.85012817</ele>
        <time>2021-10-17T07:32:26Z</time>
      </trkpt>
      <trkpt lat="43.16093" lon="1.1215">
        <ele>266.86013794</ele>
        <time>2021-10-17T07:32:27Z</time>
      </trkpt>
      <trkpt lat="43.16096" lon="1.12147">
        <ele>266.83013916</ele>
        <time>2021-10-17T07:32:28Z</time>
      </trkpt>
      <trkpt lat="43.16101" lon="1.12143">
        <ele>266.82012939</ele>
        <time>2021-10-17T07:32:29Z</time>
      </trkpt>
      <trkpt lat="43.16104" lon="1.1214">
        <ele>266.75012207</ele>
        <time>2021-10-17T07:32:30Z</time>
      </trkpt>
      <trkpt lat="43.1611" lon="1.12135">
        <ele>266.73013306</ele>
        <time>2021-10-17T07:32:31Z</time>
      </trkpt>
      <trkpt lat="43.16114" lon="1.12132">
        <ele>266.72012329</ele>
        <time>2021-10-17T07:32:32Z</time>
      </trkpt>
      <trkpt lat="43.16118" lon="1.12128">
        <ele>266.71011353</ele>
        <time>2021-10-17T07:32:33Z</time>
      </trkpt>
      <trkpt lat="43.16122" lon="1.12125">
        <ele>266.68011475</ele>
        <time>2021-10-17T07:32:34Z</time>
      </trkpt>
      <trkpt lat="43.16126" lon="1.12121">
        <ele>266.63012695</ele>
        <time>2021-10-17T07:32:35Z</time>
      </trkpt>
      <trkpt lat="43.16131" lon="1.12116">
        <ele>266.56011963</ele>
        <time>2021-10-17T07:32:36Z</time>
      </trkpt>
      <trkpt lat="43.16135" lon="1.12112">
        <ele>266.52011108</ele>
        <time>2021-10-17T07:32:37Z</time>
      </trkpt>
      <trkpt lat="43.16139" lon="1.12109">
        <ele>266.52011108</ele>
        <time>2021-10-17T07:32:38Z</time>
      </trkpt>
      <trkpt lat="43.16143" lon="1.12106">
        <ele>266.50012207</ele>
        <time>2021-10-17T07:32:39Z</time>
      </trkpt>
      <trkpt lat="43.16146" lon="1.12103">
        <ele>266.4201355</ele>
        <time>2021-10-17T07:32:40Z</time>
      </trkpt>
      <trkpt lat="43.16151" lon="1.12099">
        <ele>266.41012573</ele>
        <time>2021-10-17T07:32:41Z</time>
      </trkpt>
      <trkpt lat="43.16155" lon="1.12096">
        <ele>266.37011719</ele>
        <time>2021-10-17T07:32:42Z</time>
      </trkpt>
      <trkpt lat="43.16158" lon="1.12093">
        <ele>266.45010376</ele>
        <time>2021-10-17T07:32:43Z</time>
      </trkpt>
      <trkpt lat="43.16162" lon="1.1209">
        <ele>266.55010986</ele>
        <time>2021-10-17T07:32:44Z</time>
      </trkpt>
      <trkpt lat="43.16168" lon="1.12086">
        <ele>266.57009888</ele>
        <time>2021-10-17T07:32:45Z</time>
      </trkpt>
      <trkpt lat="43.16171" lon="1.12083">
        <ele>266.58010864</ele>
        <time>2021-10-17T07:32:46Z</time>
      </trkpt>
      <trkpt lat="43.16175" lon="1.1208">
        <ele>266.4901123</ele>
        <time>2021-10-17T07:32:47Z</time>
      </trkpt>
      <trkpt lat="43.16179" lon="1.12078">
        <ele>266.46011353</ele>
        <time>2021-10-17T07:32:48Z</time>
      </trkpt>
      <trkpt lat="43.16183" lon="1.12075">
        <ele>266.47012329</ele>
        <time>2021-10-17T07:32:49Z</time>
      </trkpt>
      <trkpt lat="43.16189" lon="1.12073">
        <ele>266.46011353</ele>
        <time>2021-10-17T07:32:50Z</time>
      </trkpt>
      <trkpt lat="43.16192" lon="1.12072">
        <ele>266.4901123</ele>
        <time>2021-10-17T07:32:51Z</time>
      </trkpt>
      <trkpt lat="43.16196" lon="1.12072">
        <ele>266.61010742</ele>
        <time>2021-10-17T07:32:52Z</time>
      </trkpt>
      <trkpt lat="43.16199" lon="1.12071">
        <ele>266.69009399</ele>
        <time>2021-10-17T07:32:53Z</time>
      </trkpt>
      <trkpt lat="43.16203" lon="1.12071">
        <ele>266.88009644</ele>
        <time>2021-10-17T07:32:54Z</time>
      </trkpt>
      <trkpt lat="43.16206" lon="1.12072">
        <ele>267.05010986</ele>
        <time>2021-10-17T07:32:55Z</time>
      </trkpt>
      <trkpt lat="43.1621" lon="1.12072">
        <ele>267.20010376</ele>
        <time>2021-10-17T07:32:56Z</time>
      </trkpt>
      <trkpt lat="43.16213" lon="1.12072">
        <ele>267.37011719</ele>
        <time>2021-10-17T07:32:57Z</time>
      </trkpt>
      <trkpt lat="43.16219" lon="1.12073">
        <ele>267.55010986</ele>
        <time>2021-10-17T07:32:58Z</time>
      </trkpt>
      <trkpt lat="43.16222" lon="1.12073">
        <ele>267.76010132</ele>
        <time>2021-10-17T07:32:59Z</time>
      </trkpt>
      <trkpt lat="43.16226" lon="1.12073">
        <ele>267.8901062</ele>
        <time>2021-10-17T07:33:00Z</time>
      </trkpt>
      <trkpt lat="43.1623" lon="1.12074">
        <ele>268.01010132</ele>
        <time>2021-10-17T07:33:01Z</time>
      </trkpt>
      <trkpt lat="43.16233" lon="1.12074">
        <ele>268.16009521</ele>
        <time>2021-10-17T07:33:02Z</time>
      </trkpt>
      <trkpt lat="43.16239" lon="1.12074">
        <ele>268.28009033</ele>
        <time>2021-10-17T07:33:03Z</time>
      </trkpt>
      <trkpt lat="43.16242" lon="1.12074">
        <ele>268.44009399</ele>
        <time>2021-10-17T07:33:04Z</time>
      </trkpt>
      <trkpt lat="43.16246" lon="1.12074">
        <ele>268.55007935</ele>
        <time>2021-10-17T07:33:05Z</time>
      </trkpt>
      <trkpt lat="43.16249" lon="1.12075">
        <ele>268.60006714</ele>
        <time>2021-10-17T07:33:06Z</time>
      </trkpt>
      <trkpt lat="43.16255" lon="1.12075">
        <ele>268.64007568</ele>
        <time>2021-10-17T07:33:07Z</time>
      </trkpt>
      <trkpt lat="43.16258" lon="1.12075">
        <ele>268.73007202</ele>
        <time>2021-10-17T07:33:08Z</time>
      </trkpt>
      <trkpt lat="43.16262" lon="1.12075">
        <ele>268.83007812</ele>
        <time>2021-10-17T07:33:09Z</time>
      </trkpt>
      <trkpt lat="43.16265" lon="1.12075">
        <ele>268.94006348</ele>
        <time>2021-10-17T07:33:10Z</time>
      </trkpt>
      <trkpt lat="43.16268" lon="1.12075">
        <ele>269.0100708</ele>
        <time>2021-10-17T07:33:11Z</time>
      </trkpt>
      <trkpt lat="43.16274" lon="1.12074">
        <ele>269.05007935</ele>
        <time>2021-10-17T07:33:12Z</time>
      </trkpt>
      <trkpt lat="43.16278" lon="1.12074">
        <ele>269.1100769</ele>
        <time>2021-10-17T07:33:13Z</time>
      </trkpt>
      <trkpt lat="43.16282" lon="1.12073">
        <ele>269.08007812</ele>
        <time>2021-10-17T07:33:14Z</time>
      </trkpt>
      <trkpt lat="43.16285" lon="1.12072">
        <ele>269.1100769</ele>
        <time>2021-10-17T07:33:15Z</time>
      </trkpt>
      <trkpt lat="43.16289" lon="1.1207">
        <ele>269.09008789</ele>
        <time>2021-10-17T07:33:16Z</time>
      </trkpt>
      <trkpt lat="43.16295" lon="1.12068">
        <ele>269.07009888</ele>
        <time>2021-10-17T07:33:17Z</time>
      </trkpt>
      <trkpt lat="43.16298" lon="1.12065">
        <ele>269.08010864</ele>
        <time>2021-10-17T07:33:18Z</time>
      </trkpt>
      <trkpt lat="43.16302" lon="1.12063">
        <ele>269.02011108</ele>
        <time>2021-10-17T07:33:19Z</time>
      </trkpt>
      <trkpt lat="43.16306" lon="1.1206">
        <ele>268.91012573</ele>
        <time>2021-10-17T07:33:20Z</time>
      </trkpt>
      <trkpt lat="43.16312" lon="1.12056">
        <ele>268.7401123</ele>
        <time>2021-10-17T07:33:21Z</time>
      </trkpt>
      <trkpt lat="43.16315" lon="1.12052">
        <ele>268.57009888</ele>
        <time>2021-10-17T07:33:22Z</time>
      </trkpt>
      <trkpt lat="43.16319" lon="1.12049">
        <ele>268.3901062</ele>
        <time>2021-10-17T07:33:23Z</time>
      </trkpt>
      <trkpt lat="43.16322" lon="1.12046">
        <ele>268.2901001</ele>
        <time>2021-10-17T07:33:24Z</time>
      </trkpt>
      <trkpt lat="43.16328" lon="1.12041">
        <ele>268.2401123</ele>
        <time>2021-10-17T07:33:25Z</time>
      </trkpt>
      <trkpt lat="43.16331" lon="1.12038">
        <ele>268.19012451</ele>
        <time>2021-10-17T07:33:26Z</time>
      </trkpt>
      <trkpt lat="43.16335" lon="1.12035">
        <ele>268.15011597</ele>
        <time>2021-10-17T07:33:27Z</time>
      </trkpt>
      <trkpt lat="43.16338" lon="1.12032">
        <ele>268.08010864</ele>
        <time>2021-10-17T07:33:28Z</time>
      </trkpt>
      <trkpt lat="43.16341" lon="1.12029">
        <ele>268.05010986</ele>
        <time>2021-10-17T07:33:29Z</time>
      </trkpt>
      <trkpt lat="43.16346" lon="1.12023">
        <ele>267.91009521</ele>
        <time>2021-10-17T07:33:30Z</time>
      </trkpt>
      <trkpt lat="43.1635" lon="1.12019">
        <ele>267.76010132</ele>
        <time>2021-10-17T07:33:31Z</time>
      </trkpt>
      <trkpt lat="43.16354" lon="1.12015">
        <ele>267.57009888</ele>
        <time>2021-10-17T07:33:32Z</time>
      </trkpt>
      <trkpt lat="43.16357" lon="1.12012">
        <ele>267.32009888</ele>
        <time>2021-10-17T07:33:33Z</time>
      </trkpt>
      <trkpt lat="43.16361" lon="1.12009">
        <ele>267.1401062</ele>
        <time>2021-10-17T07:33:34Z</time>
      </trkpt>
      <trkpt lat="43.16367" lon="1.12004">
        <ele>266.93011475</ele>
        <time>2021-10-17T07:33:35Z</time>
      </trkpt>
      <trkpt lat="43.16372" lon="1.12001">
        <ele>266.65011597</ele>
        <time>2021-10-17T07:33:36Z</time>
      </trkpt>
      <trkpt lat="43.16376" lon="1.11998">
        <ele>266.36010742</ele>
        <time>2021-10-17T07:33:37Z</time>
      </trkpt>
      <trkpt lat="43.1638" lon="1.11995">
        <ele>266.1401062</ele>
        <time>2021-10-17T07:33:38Z</time>
      </trkpt>
      <trkpt lat="43.16384" lon="1.11989">
        <ele>266.09011841</ele>
        <time>2021-10-17T07:33:39Z</time>
      </trkpt>
      <trkpt lat="43.16385" lon="1.11985">
        <ele>266.17010498</ele>
        <time>2021-10-17T07:33:40Z</time>
      </trkpt>
      <trkpt lat="43.16385" lon="1.11979">
        <ele>266.26010132</ele>
        <time>2021-10-17T07:33:41Z</time>
      </trkpt>
      <trkpt lat="43.16384" lon="1.11974">
        <ele>266.28009033</ele>
        <time>2021-10-17T07:33:42Z</time>
      </trkpt>
      <trkpt lat="43.16384" lon="1.11969">
        <ele>266.18008423</ele>
        <time>2021-10-17T07:33:43Z</time>
      </trkpt>
      <trkpt lat="43.16385" lon="1.11961">
        <ele>266.08007812</ele>
        <time>2021-10-17T07:33:44Z</time>
      </trkpt>
      <trkpt lat="43.16387" lon="1.11956">
        <ele>266.07006836</ele>
        <time>2021-10-17T07:33:45Z</time>
      </trkpt>
      <trkpt lat="43.16389" lon="1.11952">
        <ele>266.25006104</ele>
        <time>2021-10-17T07:33:46Z</time>
      </trkpt>
      <trkpt lat="43.16391" lon="1.11949">
        <ele>266.57006836</ele>
        <time>2021-10-17T07:33:47Z</time>
      </trkpt>
      <trkpt lat="43.16393" lon="1.11945">
        <ele>266.97006226</ele>
        <time>2021-10-17T07:33:48Z</time>
      </trkpt>
      <trkpt lat="43.16394" lon="1.11943">
        <ele>267.39007568</ele>
        <time>2021-10-17T07:33:49Z</time>
      </trkpt>
      <trkpt lat="43.16395" lon="1.11941">
        <ele>267.73007202</ele>
        <time>2021-10-17T07:33:50Z</time>
      </trkpt>
      <trkpt lat="43.16396" lon="1.11941">
        <ele>268.03005981</ele>
        <time>2021-10-17T07:33:51Z</time>
      </trkpt>
      <trkpt lat="43.16397" lon="1.1194">
        <ele>268.19006348</ele>
        <time>2021-10-17T07:33:52Z</time>
      </trkpt>
      <trkpt lat="43.16397" lon="1.1194">
        <ele>268.3600769</ele>
        <time>2021-10-17T07:33:53Z</time>
      </trkpt>
      <trkpt lat="43.164" lon="1.11935">
        <ele>268.58007812</ele>
        <time>2021-10-17T07:34:11Z</time>
      </trkpt>
      <trkpt lat="43.16401" lon="1.11933">
        <ele>268.59008789</ele>
        <time>2021-10-17T07:34:12Z</time>
      </trkpt>
      <trkpt lat="43.16403" lon="1.11931">
        <ele>268.60009766</ele>
        <time>2021-10-17T07:34:13Z</time>
      </trkpt>
      <trkpt lat="43.16405" lon="1.11929">
        <ele>268.65008545</ele>
        <time>2021-10-17T07:34:14Z</time>
      </trkpt>
      <trkpt lat="43.16409" lon="1.11926">
        <ele>268.67007446</ele>
        <time>2021-10-17T07:34:15Z</time>
      </trkpt>
      <trkpt lat="43.16412" lon="1.11923">
        <ele>268.72006226</ele>
        <time>2021-10-17T07:34:16Z</time>
      </trkpt>
      <trkpt lat="43.16414" lon="1.1192">
        <ele>268.87005615</ele>
        <time>2021-10-17T07:34:17Z</time>
      </trkpt>
      <trkpt lat="43.16415" lon="1.11916">
        <ele>268.9800415</ele>
        <time>2021-10-17T07:34:18Z</time>
      </trkpt>
      <trkpt lat="43.16417" lon="1.11912">
        <ele>269.18005371</ele>
        <time>2021-10-17T07:34:19Z</time>
      </trkpt>
      <trkpt lat="43.16417" lon="1.11907">
        <ele>269.40005493</ele>
        <time>2021-10-17T07:34:20Z</time>
      </trkpt>
      <trkpt lat="43.16418" lon="1.11903">
        <ele>269.74005127</ele>
        <time>2021-10-17T07:34:21Z</time>
      </trkpt>
      <trkpt lat="43.16418" lon="1.119">
        <ele>270.01004028</ele>
        <time>2021-10-17T07:34:22Z</time>
      </trkpt>
      <trkpt lat="43.16419" lon="1.11897">
        <ele>270.31002808</ele>
        <time>2021-10-17T07:34:23Z</time>
      </trkpt>
      <trkpt lat="43.16421" lon="1.11892">
        <ele>270.62002563</ele>
        <time>2021-10-17T07:34:24Z</time>
      </trkpt>
      <trkpt lat="43.16422" lon="1.11889">
        <ele>270.96002197</ele>
        <time>2021-10-17T07:34:25Z</time>
      </trkpt>
      <trkpt lat="43.16423" lon="1.11886">
        <ele>271.32000732</ele>
        <time>2021-10-17T07:34:26Z</time>
      </trkpt>
      <trkpt lat="43.16424" lon="1.11883">
        <ele>271.67999268</ele>
        <time>2021-10-17T07:34:27Z</time>
      </trkpt>
      <trkpt lat="43.16425" lon="1.1188">
        <ele>272.11999512</ele>
        <time>2021-10-17T07:34:28Z</time>
      </trkpt>
      <trkpt lat="43.16427" lon="1.11877">
        <ele>272.51000977</ele>
        <time>2021-10-17T07:34:29Z</time>
      </trkpt>
      <trkpt lat="43.16429" lon="1.11874">
        <ele>272.89001465</ele>
        <time>2021-10-17T07:34:30Z</time>
      </trkpt>
      <trkpt lat="43.16431" lon="1.11873">
        <ele>273.22000122</ele>
        <time>2021-10-17T07:34:31Z</time>
      </trkpt>
      <trkpt lat="43.16432" lon="1.11871">
        <ele>273.42001343</ele>
        <time>2021-10-17T07:34:32Z</time>
      </trkpt>
      <trkpt lat="43.16435" lon="1.11866">
        <ele>273.52001953</ele>
        <time>2021-10-17T07:34:33Z</time>
      </trkpt>
      <trkpt lat="43.16438" lon="1.11864">
        <ele>273.54000854</ele>
        <time>2021-10-17T07:34:34Z</time>
      </trkpt>
      <trkpt lat="43.1644" lon="1.11861">
        <ele>273.54000854</ele>
        <time>2021-10-17T07:34:35Z</time>
      </trkpt>
      <trkpt lat="43.16443" lon="1.11858">
        <ele>273.44000244</ele>
        <time>2021-10-17T07:34:36Z</time>
      </trkpt>
      <trkpt lat="43.16445" lon="1.11854">
        <ele>273.32000732</ele>
        <time>2021-10-17T07:34:37Z</time>
      </trkpt>
      <trkpt lat="43.16449" lon="1.11848">
        <ele>273.13000488</ele>
        <time>2021-10-17T07:34:38Z</time>
      </trkpt>
      <trkpt lat="43.16452" lon="1.11843">
        <ele>272.8999939</ele>
        <time>2021-10-17T07:34:39Z</time>
      </trkpt>
      <trkpt lat="43.16455" lon="1.11839">
        <ele>272.57000732</ele>
        <time>2021-10-17T07:34:40Z</time>
      </trkpt>
      <trkpt lat="43.16459" lon="1.11834">
        <ele>272.07000732</ele>
        <time>2021-10-17T07:34:41Z</time>
      </trkpt>
      <trkpt lat="43.16466" lon="1.11828">
        <ele>271.38000488</ele>
        <time>2021-10-17T07:34:42Z</time>
      </trkpt>
      <trkpt lat="43.16471" lon="1.11825">
        <ele>270.3500061</ele>
        <time>2021-10-17T07:34:43Z</time>
      </trkpt>
      <trkpt lat="43.16476" lon="1.11821">
        <ele>269.45999146</ele>
        <time>2021-10-17T07:34:44Z</time>
      </trkpt>
      <trkpt lat="43.16482" lon="1.11817">
        <ele>268.85998535</ele>
        <time>2021-10-17T07:34:45Z</time>
      </trkpt>
      <trkpt lat="43.16486" lon="1.11813">
        <ele>268.65997314</ele>
        <time>2021-10-17T07:34:46Z</time>
      </trkpt>
      <trkpt lat="43.16493" lon="1.11806">
        <ele>268.89996338</ele>
        <time>2021-10-17T07:34:47Z</time>
      </trkpt>
      <trkpt lat="43.16497" lon="1.118">
        <ele>269.28997803</ele>
        <time>2021-10-17T07:34:48Z</time>
      </trkpt>
      <trkpt lat="43.165" lon="1.11795">
        <ele>269.67999268</ele>
        <time>2021-10-17T07:34:49Z</time>
      </trkpt>
      <trkpt lat="43.16503" lon="1.1179">
        <ele>269.92999268</ele>
        <time>2021-10-17T07:34:50Z</time>
      </trkpt>
      <trkpt lat="43.16507" lon="1.11782">
        <ele>270.20999146</ele>
        <time>2021-10-17T07:34:51Z</time>
      </trkpt>
      <trkpt lat="43.16509" lon="1.11777">
        <ele>270.42999268</ele>
        <time>2021-10-17T07:34:52Z</time>
      </trkpt>
      <trkpt lat="43.16512" lon="1.11772">
        <ele>270.66998291</ele>
        <time>2021-10-17T07:34:53Z</time>
      </trkpt>
      <trkpt lat="43.16514" lon="1.11767">
        <ele>270.93997192</ele>
        <time>2021-10-17T07:34:54Z</time>
      </trkpt>
      <trkpt lat="43.16517" lon="1.11759">
        <ele>271.15997314</ele>
        <time>2021-10-17T07:34:55Z</time>
      </trkpt>
      <trkpt lat="43.16519" lon="1.11754">
        <ele>271.48995972</ele>
        <time>2021-10-17T07:34:56Z</time>
      </trkpt>
      <trkpt lat="43.16521" lon="1.1175">
        <ele>271.7699585</ele>
        <time>2021-10-17T07:34:57Z</time>
      </trkpt>
      <trkpt lat="43.16523" lon="1.11745">
        <ele>272.09994507</ele>
        <time>2021-10-17T07:34:58Z</time>
      </trkpt>
      <trkpt lat="43.16524" lon="1.11741">
        <ele>272.40994263</ele>
        <time>2021-10-17T07:34:59Z</time>
      </trkpt>
      <trkpt lat="43.16526" lon="1.11735">
        <ele>272.68994141</ele>
        <time>2021-10-17T07:35:00Z</time>
      </trkpt>
      <trkpt lat="43.16528" lon="1.11731">
        <ele>272.99993896</ele>
        <time>2021-10-17T07:35:01Z</time>
      </trkpt>
      <trkpt lat="43.16529" lon="1.11727">
        <ele>273.28994751</ele>
        <time>2021-10-17T07:35:02Z</time>
      </trkpt>
      <trkpt lat="43.16531" lon="1.11723">
        <ele>273.55993652</ele>
        <time>2021-10-17T07:35:03Z</time>
      </trkpt>
      <trkpt lat="43.16532" lon="1.11719">
        <ele>273.79992676</ele>
        <time>2021-10-17T07:35:04Z</time>
      </trkpt>
      <trkpt lat="43.16534" lon="1.11714">
        <ele>274.04992676</ele>
        <time>2021-10-17T07:35:05Z</time>
      </trkpt>
      <trkpt lat="43.16535" lon="1.1171">
        <ele>274.3399353</ele>
        <time>2021-10-17T07:35:06Z</time>
      </trkpt>
      <trkpt lat="43.16537" lon="1.11707">
        <ele>274.66992188</ele>
        <time>2021-10-17T07:35:07Z</time>
      </trkpt>
      <trkpt lat="43.16538" lon="1.11704">
        <ele>275.00991821</ele>
        <time>2021-10-17T07:35:08Z</time>
      </trkpt>
      <trkpt lat="43.1654" lon="1.11699">
        <ele>275.31991577</ele>
        <time>2021-10-17T07:35:09Z</time>
      </trkpt>
      <trkpt lat="43.16542" lon="1.11695">
        <ele>275.57992554</ele>
        <time>2021-10-17T07:35:10Z</time>
      </trkpt>
      <trkpt lat="43.16543" lon="1.11692">
        <ele>275.78991699</ele>
        <time>2021-10-17T07:35:11Z</time>
      </trkpt>
      <trkpt lat="43.16545" lon="1.11688">
        <ele>276.02990723</ele>
        <time>2021-10-17T07:35:12Z</time>
      </trkpt>
      <trkpt lat="43.16546" lon="1.11685">
        <ele>276.30990601</ele>
        <time>2021-10-17T07:35:13Z</time>
      </trkpt>
      <trkpt lat="43.16548" lon="1.11679">
        <ele>276.55990601</ele>
        <time>2021-10-17T07:35:14Z</time>
      </trkpt>
      <trkpt lat="43.16549" lon="1.11675">
        <ele>276.82989502</ele>
        <time>2021-10-17T07:35:15Z</time>
      </trkpt>
      <trkpt lat="43.1655" lon="1.11671">
        <ele>277.09988403</ele>
        <time>2021-10-17T07:35:16Z</time>
      </trkpt>
      <trkpt lat="43.16551" lon="1.11668">
        <ele>277.26989746</ele>
        <time>2021-10-17T07:35:17Z</time>
      </trkpt>
      <trkpt lat="43.16552" lon="1.11662">
        <ele>277.46990967</ele>
        <time>2021-10-17T07:35:18Z</time>
      </trkpt>
      <trkpt lat="43.16552" lon="1.11658">
        <ele>277.67990112</ele>
        <time>2021-10-17T07:35:19Z</time>
      </trkpt>
      <trkpt lat="43.16553" lon="1.11654">
        <ele>277.86990356</ele>
        <time>2021-10-17T07:35:20Z</time>
      </trkpt>
      <trkpt lat="43.16553" lon="1.1165">
        <ele>278.03991699</ele>
        <time>2021-10-17T07:35:21Z</time>
      </trkpt>
      <trkpt lat="43.16553" lon="1.11643">
        <ele>278.15991211</ele>
        <time>2021-10-17T07:35:22Z</time>
      </trkpt>
      <trkpt lat="43.16554" lon="1.11639">
        <ele>278.31991577</ele>
        <time>2021-10-17T07:35:23Z</time>
      </trkpt>
      <trkpt lat="43.16554" lon="1.11635">
        <ele>278.40991211</ele>
        <time>2021-10-17T07:35:24Z</time>
      </trkpt>
      <trkpt lat="43.16555" lon="1.11631">
        <ele>278.54992676</ele>
        <time>2021-10-17T07:35:25Z</time>
      </trkpt>
      <trkpt lat="43.16556" lon="1.11627">
        <ele>278.71994019</ele>
        <time>2021-10-17T07:35:26Z</time>
      </trkpt>
      <trkpt lat="43.16557" lon="1.11621">
        <ele>278.78994751</ele>
        <time>2021-10-17T07:35:27Z</time>
      </trkpt>
      <trkpt lat="43.16558" lon="1.11618">
        <ele>278.92996216</ele>
        <time>2021-10-17T07:35:28Z</time>
      </trkpt>
      <trkpt lat="43.16559" lon="1.11614">
        <ele>279.08996582</ele>
        <time>2021-10-17T07:35:29Z</time>
      </trkpt>
      <trkpt lat="43.1656" lon="1.1161">
        <ele>279.18997192</ele>
        <time>2021-10-17T07:35:30Z</time>
      </trkpt>
      <trkpt lat="43.16561" lon="1.11607">
        <ele>279.29995728</ele>
        <time>2021-10-17T07:35:31Z</time>
      </trkpt>
      <trkpt lat="43.16563" lon="1.11602">
        <ele>279.35995483</ele>
        <time>2021-10-17T07:35:32Z</time>
      </trkpt>
      <trkpt lat="43.16564" lon="1.11599">
        <ele>279.38995361</ele>
        <time>2021-10-17T07:35:33Z</time>
      </trkpt>
      <trkpt lat="43.16566" lon="1.11595">
        <ele>279.46994019</ele>
        <time>2021-10-17T07:35:34Z</time>
      </trkpt>
      <trkpt lat="43.16568" lon="1.11592">
        <ele>279.54992676</ele>
        <time>2021-10-17T07:35:35Z</time>
      </trkpt>
      <trkpt lat="43.1657" lon="1.11587">
        <ele>279.68994141</ele>
        <time>2021-10-17T07:35:36Z</time>
      </trkpt>
      <trkpt lat="43.16573" lon="1.11584">
        <ele>279.82995605</ele>
        <time>2021-10-17T07:35:37Z</time>
      </trkpt>
      <trkpt lat="43.16575" lon="1.11581">
        <ele>279.93994141</ele>
        <time>2021-10-17T07:35:38Z</time>
      </trkpt>
      <trkpt lat="43.16577" lon="1.11579">
        <ele>280.07995605</ele>
        <time>2021-10-17T07:35:39Z</time>
      </trkpt>
      <trkpt lat="43.16581" lon="1.11574">
        <ele>280.17996216</ele>
        <time>2021-10-17T07:35:40Z</time>
      </trkpt>
      <trkpt lat="43.16583" lon="1.11572">
        <ele>280.22994995</ele>
        <time>2021-10-17T07:35:41Z</time>
      </trkpt>
      <trkpt lat="43.16586" lon="1.11569">
        <ele>280.27993774</ele>
        <time>2021-10-17T07:35:42Z</time>
      </trkpt>
      <trkpt lat="43.16588" lon="1.11566">
        <ele>280.28994751</ele>
        <time>2021-10-17T07:35:43Z</time>
      </trkpt>
      <trkpt lat="43.16591" lon="1.11563">
        <ele>280.25994873</ele>
        <time>2021-10-17T07:35:44Z</time>
      </trkpt>
      <trkpt lat="43.16595" lon="1.11559">
        <ele>280.23995972</ele>
        <time>2021-10-17T07:35:45Z</time>
      </trkpt>
      <trkpt lat="43.16598" lon="1.11556">
        <ele>280.23995972</ele>
        <time>2021-10-17T07:35:46Z</time>
      </trkpt>
      <trkpt lat="43.16601" lon="1.11553">
        <ele>280.23995972</ele>
        <time>2021-10-17T07:35:47Z</time>
      </trkpt>
      <trkpt lat="43.16604" lon="1.11551">
        <ele>280.22994995</ele>
        <time>2021-10-17T07:35:48Z</time>
      </trkpt>
      <trkpt lat="43.16607" lon="1.11548">
        <ele>280.18994141</ele>
        <time>2021-10-17T07:35:49Z</time>
      </trkpt>
      <trkpt lat="43.16612" lon="1.11543">
        <ele>280.09994507</ele>
        <time>2021-10-17T07:35:50Z</time>
      </trkpt>
      <trkpt lat="43.16615" lon="1.1154">
        <ele>279.93994141</ele>
        <time>2021-10-17T07:35:51Z</time>
      </trkpt>
      <trkpt lat="43.16619" lon="1.11536">
        <ele>279.79992676</ele>
        <time>2021-10-17T07:35:52Z</time>
      </trkpt>
      <trkpt lat="43.16623" lon="1.11533">
        <ele>279.60992432</ele>
        <time>2021-10-17T07:35:53Z</time>
      </trkpt>
      <trkpt lat="43.16629" lon="1.11528">
        <ele>279.40991211</ele>
        <time>2021-10-17T07:35:54Z</time>
      </trkpt>
      <trkpt lat="43.16633" lon="1.11524">
        <ele>279.25991821</ele>
        <time>2021-10-17T07:35:55Z</time>
      </trkpt>
      <trkpt lat="43.16637" lon="1.11521">
        <ele>279.1399231</ele>
        <time>2021-10-17T07:35:56Z</time>
      </trkpt>
      <trkpt lat="43.16641" lon="1.11518">
        <ele>279.01992798</ele>
        <time>2021-10-17T07:35:57Z</time>
      </trkpt>
      <trkpt lat="43.16648" lon="1.11514">
        <ele>278.96994019</ele>
        <time>2021-10-17T07:35:58Z</time>
      </trkpt>
      <trkpt lat="43.16652" lon="1.11511">
        <ele>278.87994385</ele>
        <time>2021-10-17T07:35:59Z</time>
      </trkpt>
      <trkpt lat="43.16656" lon="1.11509">
        <ele>278.69995117</ele>
        <time>2021-10-17T07:36:00Z</time>
      </trkpt>
      <trkpt lat="43.1666" lon="1.11507">
        <ele>278.59994507</ele>
        <time>2021-10-17T07:36:01Z</time>
      </trkpt>
      <trkpt lat="43.16665" lon="1.11504">
        <ele>278.44995117</ele>
        <time>2021-10-17T07:36:02Z</time>
      </trkpt>
      <trkpt lat="43.16672" lon="1.115">
        <ele>278.21994019</ele>
        <time>2021-10-17T07:36:03Z</time>
      </trkpt>
      <trkpt lat="43.16677" lon="1.11498">
        <ele>278.02993774</ele>
        <time>2021-10-17T07:36:04Z</time>
      </trkpt>
      <trkpt lat="43.16681" lon="1.11496">
        <ele>277.81994629</ele>
        <time>2021-10-17T07:36:05Z</time>
      </trkpt>
      <trkpt lat="43.16686" lon="1.11494">
        <ele>277.66995239</ele>
        <time>2021-10-17T07:36:06Z</time>
      </trkpt>
      <trkpt lat="43.1669" lon="1.11492">
        <ele>277.63995361</ele>
        <time>2021-10-17T07:36:07Z</time>
      </trkpt>
      <trkpt lat="43.16697" lon="1.11489">
        <ele>277.64996338</ele>
        <time>2021-10-17T07:36:08Z</time>
      </trkpt>
      <trkpt lat="43.167" lon="1.11487">
        <ele>277.7699585</ele>
        <time>2021-10-17T07:36:09Z</time>
      </trkpt>
      <trkpt lat="43.16704" lon="1.11486">
        <ele>277.95996094</ele>
        <time>2021-10-17T07:36:10Z</time>
      </trkpt>
      <trkpt lat="43.16708" lon="1.11484">
        <ele>278.27996826</ele>
        <time>2021-10-17T07:36:11Z</time>
      </trkpt>
      <trkpt lat="43.16713" lon="1.11481">
        <ele>278.67996216</ele>
        <time>2021-10-17T07:36:12Z</time>
      </trkpt>
      <trkpt lat="43.16716" lon="1.11479">
        <ele>279.08996582</ele>
        <time>2021-10-17T07:36:13Z</time>
      </trkpt>
      <trkpt lat="43.16719" lon="1.11477">
        <ele>279.44995117</ele>
        <time>2021-10-17T07:36:14Z</time>
      </trkpt>
      <trkpt lat="43.16722" lon="1.11475">
        <ele>279.77993774</ele>
        <time>2021-10-17T07:36:15Z</time>
      </trkpt>
      <trkpt lat="43.16725" lon="1.11472">
        <ele>280.03994751</ele>
        <time>2021-10-17T07:36:16Z</time>
      </trkpt>
      <trkpt lat="43.1673" lon="1.11468">
        <ele>280.28994751</ele>
        <time>2021-10-17T07:36:17Z</time>
      </trkpt>
      <trkpt lat="43.16732" lon="1.11465">
        <ele>280.5899353</ele>
        <time>2021-10-17T07:36:18Z</time>
      </trkpt>
      <trkpt lat="43.16735" lon="1.11462">
        <ele>280.90994263</ele>
        <time>2021-10-17T07:36:19Z</time>
      </trkpt>
      <trkpt lat="43.16737" lon="1.11459">
        <ele>281.26992798</ele>
        <time>2021-10-17T07:36:20Z</time>
      </trkpt>
      <trkpt lat="43.16741" lon="1.11454">
        <ele>281.67993164</ele>
        <time>2021-10-17T07:36:21Z</time>
      </trkpt>
      <trkpt lat="43.16743" lon="1.11451">
        <ele>282.06994629</ele>
        <time>2021-10-17T07:36:22Z</time>
      </trkpt>
      <trkpt lat="43.16745" lon="1.11448">
        <ele>282.38995361</ele>
        <time>2021-10-17T07:36:23Z</time>
      </trkpt>
      <trkpt lat="43.16747" lon="1.11444">
        <ele>282.73995972</ele>
        <time>2021-10-17T07:36:24Z</time>
      </trkpt>
      <trkpt lat="43.1675" lon="1.1144">
        <ele>283.04995728</ele>
        <time>2021-10-17T07:36:25Z</time>
      </trkpt>
      <trkpt lat="43.16752" lon="1.11437">
        <ele>283.39996338</ele>
        <time>2021-10-17T07:36:26Z</time>
      </trkpt>
      <trkpt lat="43.16754" lon="1.11434">
        <ele>283.82995605</ele>
        <time>2021-10-17T07:36:27Z</time>
      </trkpt>
      <trkpt lat="43.16756" lon="1.11431">
        <ele>284.19995117</ele>
        <time>2021-10-17T07:36:28Z</time>
      </trkpt>
      <trkpt lat="43.16757" lon="1.11428">
        <ele>284.65994263</ele>
        <time>2021-10-17T07:36:29Z</time>
      </trkpt>
      <trkpt lat="43.1676" lon="1.11424">
        <ele>285.06994629</ele>
        <time>2021-10-17T07:36:30Z</time>
      </trkpt>
      <trkpt lat="43.16762" lon="1.11421">
        <ele>285.43994141</ele>
        <time>2021-10-17T07:36:31Z</time>
      </trkpt>
      <trkpt lat="43.16763" lon="1.11418">
        <ele>285.86993408</ele>
        <time>2021-10-17T07:36:32Z</time>
      </trkpt>
      <trkpt lat="43.16765" lon="1.11415">
        <ele>286.17993164</ele>
        <time>2021-10-17T07:36:33Z</time>
      </trkpt>
      <trkpt lat="43.16767" lon="1.11413">
        <ele>286.53991699</ele>
        <time>2021-10-17T07:36:34Z</time>
      </trkpt>
      <trkpt lat="43.16769" lon="1.11408">
        <ele>286.94992065</ele>
        <time>2021-10-17T07:36:35Z</time>
      </trkpt>
      <trkpt lat="43.16771" lon="1.11406">
        <ele>287.34991455</ele>
        <time>2021-10-17T07:36:36Z</time>
      </trkpt>
      <trkpt lat="43.16772" lon="1.11403">
        <ele>287.74990845</ele>
        <time>2021-10-17T07:36:37Z</time>
      </trkpt>
      <trkpt lat="43.16774" lon="1.114">
        <ele>288.06991577</ele>
        <time>2021-10-17T07:36:38Z</time>
      </trkpt>
      <trkpt lat="43.16777" lon="1.11395">
        <ele>288.36990356</ele>
        <time>2021-10-17T07:36:39Z</time>
      </trkpt>
      <trkpt lat="43.16779" lon="1.11392">
        <ele>288.61990356</ele>
        <time>2021-10-17T07:36:40Z</time>
      </trkpt>
      <trkpt lat="43.16781" lon="1.1139">
        <ele>288.92990112</ele>
        <time>2021-10-17T07:36:41Z</time>
      </trkpt>
      <trkpt lat="43.16783" lon="1.11387">
        <ele>289.21990967</ele>
        <time>2021-10-17T07:36:42Z</time>
      </trkpt>
      <trkpt lat="43.16785" lon="1.11384">
        <ele>289.4598999</ele>
        <time>2021-10-17T07:36:43Z</time>
      </trkpt>
      <trkpt lat="43.16787" lon="1.1138">
        <ele>289.69989014</ele>
        <time>2021-10-17T07:36:44Z</time>
      </trkpt>
      <trkpt lat="43.16789" lon="1.11376">
        <ele>289.8598938</ele>
        <time>2021-10-17T07:36:45Z</time>
      </trkpt>
      <trkpt lat="43.16791" lon="1.11373">
        <ele>290.03988647</ele>
        <time>2021-10-17T07:36:46Z</time>
      </trkpt>
      <trkpt lat="43.16793" lon="1.1137">
        <ele>290.17990112</ele>
        <time>2021-10-17T07:36:47Z</time>
      </trkpt>
      <trkpt lat="43.16796" lon="1.11365">
        <ele>290.30990601</ele>
        <time>2021-10-17T07:36:48Z</time>
      </trkpt>
      <trkpt lat="43.16798" lon="1.11362">
        <ele>290.38989258</ele>
        <time>2021-10-17T07:36:49Z</time>
      </trkpt>
      <trkpt lat="43.168" lon="1.11359">
        <ele>290.46987915</ele>
        <time>2021-10-17T07:36:50Z</time>
      </trkpt>
      <trkpt lat="43.16802" lon="1.11356">
        <ele>290.54986572</ele>
        <time>2021-10-17T07:36:51Z</time>
      </trkpt>
      <trkpt lat="43.16804" lon="1.11353">
        <ele>290.60986328</ele>
        <time>2021-10-17T07:36:52Z</time>
      </trkpt>
      <trkpt lat="43.16807" lon="1.11348">
        <ele>290.74987793</ele>
        <time>2021-10-17T07:36:53Z</time>
      </trkpt>
      <trkpt lat="43.16809" lon="1.11345">
        <ele>290.90988159</ele>
        <time>2021-10-17T07:36:54Z</time>
      </trkpt>
      <trkpt lat="43.16811" lon="1.11342">
        <ele>291.07989502</ele>
        <time>2021-10-17T07:36:55Z</time>
      </trkpt>
      <trkpt lat="43.16813" lon="1.11338">
        <ele>291.2598877</ele>
        <time>2021-10-17T07:36:56Z</time>
      </trkpt>
      <trkpt lat="43.16816" lon="1.11333">
        <ele>291.37988281</ele>
        <time>2021-10-17T07:36:57Z</time>
      </trkpt>
      <trkpt lat="43.16818" lon="1.1133">
        <ele>291.48986816</ele>
        <time>2021-10-17T07:36:58Z</time>
      </trkpt>
      <trkpt lat="43.1682" lon="1.11326">
        <ele>291.53985596</ele>
        <time>2021-10-17T07:36:59Z</time>
      </trkpt>
      <trkpt lat="43.16822" lon="1.11323">
        <ele>291.58984375</ele>
        <time>2021-10-17T07:37:00Z</time>
      </trkpt>
      <trkpt lat="43.16824" lon="1.11317">
        <ele>291.71984863</ele>
        <time>2021-10-17T07:37:01Z</time>
      </trkpt>
      <trkpt lat="43.16825" lon="1.11313">
        <ele>291.87985229</ele>
        <time>2021-10-17T07:37:02Z</time>
      </trkpt>
      <trkpt lat="43.16827" lon="1.11309">
        <ele>292.06985474</ele>
        <time>2021-10-17T07:37:03Z</time>
      </trkpt>
      <trkpt lat="43.16827" lon="1.11305">
        <ele>292.27984619</ele>
        <time>2021-10-17T07:37:04Z</time>
      </trkpt>
      <trkpt lat="43.16828" lon="1.11301">
        <ele>292.48983765</ele>
        <time>2021-10-17T07:37:05Z</time>
      </trkpt>
      <trkpt lat="43.16829" lon="1.11295">
        <ele>292.63983154</ele>
        <time>2021-10-17T07:37:06Z</time>
      </trkpt>
      <trkpt lat="43.16829" lon="1.11291">
        <ele>292.86984253</ele>
        <time>2021-10-17T07:37:07Z</time>
      </trkpt>
      <trkpt lat="43.16829" lon="1.11287">
        <ele>293.14984131</ele>
        <time>2021-10-17T07:37:08Z</time>
      </trkpt>
      <trkpt lat="43.1683" lon="1.11283">
        <ele>293.38983154</ele>
        <time>2021-10-17T07:37:09Z</time>
      </trkpt>
      <trkpt lat="43.1683" lon="1.11278">
        <ele>293.66983032</ele>
        <time>2021-10-17T07:37:10Z</time>
      </trkpt>
      <trkpt lat="43.1683" lon="1.11274">
        <ele>293.90982056</ele>
        <time>2021-10-17T07:37:11Z</time>
      </trkpt>
      <trkpt lat="43.1683" lon="1.1127">
        <ele>294.099823</ele>
        <time>2021-10-17T07:37:12Z</time>
      </trkpt>
      <trkpt lat="43.1683" lon="1.11266">
        <ele>294.30981445</ele>
        <time>2021-10-17T07:37:13Z</time>
      </trkpt>
      <trkpt lat="43.1683" lon="1.11262">
        <ele>294.49981689</ele>
        <time>2021-10-17T07:37:14Z</time>
      </trkpt>
      <trkpt lat="43.1683" lon="1.11256">
        <ele>294.70980835</ele>
        <time>2021-10-17T07:37:15Z</time>
      </trkpt>
      <trkpt lat="43.1683" lon="1.11253">
        <ele>294.9197998</ele>
        <time>2021-10-17T07:37:16Z</time>
      </trkpt>
      <trkpt lat="43.16831" lon="1.11249">
        <ele>295.11981201</ele>
        <time>2021-10-17T07:37:17Z</time>
      </trkpt>
      <trkpt lat="43.1683" lon="1.11246">
        <ele>295.33981323</ele>
        <time>2021-10-17T07:37:18Z</time>
      </trkpt>
      <trkpt lat="43.1683" lon="1.11242">
        <ele>295.52981567</ele>
        <time>2021-10-17T07:37:19Z</time>
      </trkpt>
      <trkpt lat="43.1683" lon="1.11236">
        <ele>295.71981812</ele>
        <time>2021-10-17T07:37:20Z</time>
      </trkpt>
      <trkpt lat="43.1683" lon="1.11233">
        <ele>295.79980469</ele>
        <time>2021-10-17T07:37:21Z</time>
      </trkpt>
      <trkpt lat="43.16831" lon="1.11229">
        <ele>295.97979736</ele>
        <time>2021-10-17T07:37:22Z</time>
      </trkpt>
      <trkpt lat="43.16831" lon="1.11226">
        <ele>296.1697998</ele>
        <time>2021-10-17T07:37:23Z</time>
      </trkpt>
      <trkpt lat="43.1683" lon="1.1122">
        <ele>296.39981079</ele>
        <time>2021-10-17T07:37:24Z</time>
      </trkpt>
      <trkpt lat="43.16831" lon="1.11216">
        <ele>296.6697998</ele>
        <time>2021-10-17T07:37:25Z</time>
      </trkpt>
      <trkpt lat="43.16831" lon="1.11213">
        <ele>296.88980103</ele>
        <time>2021-10-17T07:37:26Z</time>
      </trkpt>
      <trkpt lat="43.16831" lon="1.11209">
        <ele>297.09979248</ele>
        <time>2021-10-17T07:37:27Z</time>
      </trkpt>
      <trkpt lat="43.16831" lon="1.11206">
        <ele>297.33978271</ele>
        <time>2021-10-17T07:37:28Z</time>
      </trkpt>
      <trkpt lat="43.16831" lon="1.11201">
        <ele>297.60977173</ele>
        <time>2021-10-17T07:37:29Z</time>
      </trkpt>
      <trkpt lat="43.16831" lon="1.11197">
        <ele>297.90975952</ele>
        <time>2021-10-17T07:37:30Z</time>
      </trkpt>
      <trkpt lat="43.16831" lon="1.11194">
        <ele>298.22976685</ele>
        <time>2021-10-17T07:37:31Z</time>
      </trkpt>
      <trkpt lat="43.16831" lon="1.1119">
        <ele>298.54977417</ele>
        <time>2021-10-17T07:37:32Z</time>
      </trkpt>
      <trkpt lat="43.16831" lon="1.11185">
        <ele>298.80978394</ele>
        <time>2021-10-17T07:37:33Z</time>
      </trkpt>
      <trkpt lat="43.16831" lon="1.11181">
        <ele>299.04977417</ele>
        <time>2021-10-17T07:37:34Z</time>
      </trkpt>
      <trkpt lat="43.16831" lon="1.11178">
        <ele>299.30978394</ele>
        <time>2021-10-17T07:37:35Z</time>
      </trkpt>
      <trkpt lat="43.16831" lon="1.11174">
        <ele>299.52978516</ele>
        <time>2021-10-17T07:37:36Z</time>
      </trkpt>
      <trkpt lat="43.16831" lon="1.11169">
        <ele>299.75979614</ele>
        <time>2021-10-17T07:37:37Z</time>
      </trkpt>
      <trkpt lat="43.16831" lon="1.11165">
        <ele>300.02978516</ele>
        <time>2021-10-17T07:37:38Z</time>
      </trkpt>
      <trkpt lat="43.16831" lon="1.11161">
        <ele>300.30978394</ele>
        <time>2021-10-17T07:37:39Z</time>
      </trkpt>
      <trkpt lat="43.16831" lon="1.11157">
        <ele>300.60977173</ele>
        <time>2021-10-17T07:37:40Z</time>
      </trkpt>
      <trkpt lat="43.16831" lon="1.11152">
        <ele>300.99978638</ele>
        <time>2021-10-17T07:37:41Z</time>
      </trkpt>
      <trkpt lat="43.16831" lon="1.11149">
        <ele>301.34979248</ele>
        <time>2021-10-17T07:37:42Z</time>
      </trkpt>
      <trkpt lat="43.16831" lon="1.11145">
        <ele>301.69979858</ele>
        <time>2021-10-17T07:37:43Z</time>
      </trkpt>
      <trkpt lat="43.16831" lon="1.11142">
        <ele>302.01980591</ele>
        <time>2021-10-17T07:37:44Z</time>
      </trkpt>
      <trkpt lat="43.16832" lon="1.11139">
        <ele>302.27981567</ele>
        <time>2021-10-17T07:37:45Z</time>
      </trkpt>
      <trkpt lat="43.16831" lon="1.11136">
        <ele>302.53982544</ele>
        <time>2021-10-17T07:37:46Z</time>
      </trkpt>
      <trkpt lat="43.16832" lon="1.11131">
        <ele>302.76983643</ele>
        <time>2021-10-17T07:37:47Z</time>
      </trkpt>
      <trkpt lat="43.16832" lon="1.11128">
        <ele>303.00982666</ele>
        <time>2021-10-17T07:37:48Z</time>
      </trkpt>
      <trkpt lat="43.16832" lon="1.11124">
        <ele>303.20983887</ele>
        <time>2021-10-17T07:37:49Z</time>
      </trkpt>
      <trkpt lat="43.16832" lon="1.1112">
        <ele>303.37985229</ele>
        <time>2021-10-17T07:37:50Z</time>
      </trkpt>
      <trkpt lat="43.16832" lon="1.11115">
        <ele>303.51986694</ele>
        <time>2021-10-17T07:37:51Z</time>
      </trkpt>
      <trkpt lat="43.16831" lon="1.11111">
        <ele>303.5798645</ele>
        <time>2021-10-17T07:37:52Z</time>
      </trkpt>
      <trkpt lat="43.1683" lon="1.11107">
        <ele>303.69985962</ele>
        <time>2021-10-17T07:37:53Z</time>
      </trkpt>
      <trkpt lat="43.1683" lon="1.11104">
        <ele>303.86987305</ele>
        <time>2021-10-17T07:37:54Z</time>
      </trkpt>
      <trkpt lat="43.16829" lon="1.111">
        <ele>303.94985962</ele>
        <time>2021-10-17T07:37:55Z</time>
      </trkpt>
      <trkpt lat="43.16828" lon="1.11095">
        <ele>304.10986328</ele>
        <time>2021-10-17T07:37:56Z</time>
      </trkpt>
      <trkpt lat="43.16827" lon="1.11091">
        <ele>304.26986694</ele>
        <time>2021-10-17T07:37:57Z</time>
      </trkpt>
      <trkpt lat="43.16827" lon="1.11088">
        <ele>304.37985229</ele>
        <time>2021-10-17T07:37:58Z</time>
      </trkpt>
      <trkpt lat="43.16826" lon="1.11085">
        <ele>304.60986328</ele>
        <time>2021-10-17T07:37:59Z</time>
      </trkpt>
      <trkpt lat="43.16826" lon="1.11079">
        <ele>304.80987549</ele>
        <time>2021-10-17T07:38:00Z</time>
      </trkpt>
      <trkpt lat="43.16826" lon="1.11076">
        <ele>304.99987793</ele>
        <time>2021-10-17T07:38:01Z</time>
      </trkpt>
      <trkpt lat="43.16827" lon="1.11072">
        <ele>305.20986938</ele>
        <time>2021-10-17T07:38:02Z</time>
      </trkpt>
      <trkpt lat="43.16826" lon="1.11069">
        <ele>305.33987427</ele>
        <time>2021-10-17T07:38:03Z</time>
      </trkpt>
      <trkpt lat="43.16826" lon="1.11065">
        <ele>305.48986816</ele>
        <time>2021-10-17T07:38:04Z</time>
      </trkpt>
      <trkpt lat="43.16827" lon="1.11059">
        <ele>305.63986206</ele>
        <time>2021-10-17T07:38:05Z</time>
      </trkpt>
      <trkpt lat="43.16827" lon="1.11056">
        <ele>305.78985596</ele>
        <time>2021-10-17T07:38:06Z</time>
      </trkpt>
      <trkpt lat="43.16827" lon="1.11052">
        <ele>305.91986084</ele>
        <time>2021-10-17T07:38:07Z</time>
      </trkpt>
      <trkpt lat="43.16827" lon="1.11048">
        <ele>306.05987549</ele>
        <time>2021-10-17T07:38:08Z</time>
      </trkpt>
      <trkpt lat="43.16828" lon="1.11042">
        <ele>306.19989014</ele>
        <time>2021-10-17T07:38:09Z</time>
      </trkpt>
      <trkpt lat="43.16828" lon="1.11038">
        <ele>306.28988647</ele>
        <time>2021-10-17T07:38:10Z</time>
      </trkpt>
      <trkpt lat="43.16828" lon="1.11034">
        <ele>306.42990112</ele>
        <time>2021-10-17T07:38:11Z</time>
      </trkpt>
      <trkpt lat="43.16828" lon="1.1103">
        <ele>306.51989746</ele>
        <time>2021-10-17T07:38:12Z</time>
      </trkpt>
      <trkpt lat="43.16829" lon="1.11025">
        <ele>306.6098938</ele>
        <time>2021-10-17T07:38:13Z</time>
      </trkpt>
      <trkpt lat="43.16829" lon="1.11021">
        <ele>306.79989624</ele>
        <time>2021-10-17T07:38:14Z</time>
      </trkpt>
      <trkpt lat="43.16829" lon="1.11017">
        <ele>306.99990845</ele>
        <time>2021-10-17T07:38:15Z</time>
      </trkpt>
      <trkpt lat="43.1683" lon="1.11014">
        <ele>307.25991821</ele>
        <time>2021-10-17T07:38:16Z</time>
      </trkpt>
      <trkpt lat="43.1683" lon="1.1101">
        <ele>307.4899292</ele>
        <time>2021-10-17T07:38:17Z</time>
      </trkpt>
      <trkpt lat="43.1683" lon="1.11004">
        <ele>307.6399231</ele>
        <time>2021-10-17T07:38:18Z</time>
      </trkpt>
      <trkpt lat="43.1683" lon="1.11">
        <ele>307.7399292</ele>
        <time>2021-10-17T07:38:19Z</time>
      </trkpt>
      <trkpt lat="43.1683" lon="1.10996">
        <ele>307.80993652</ele>
        <time>2021-10-17T07:38:20Z</time>
      </trkpt>
      <trkpt lat="43.16831" lon="1.10991">
        <ele>307.77993774</ele>
        <time>2021-10-17T07:38:21Z</time>
      </trkpt>
      <trkpt lat="43.16831" lon="1.10987">
        <ele>307.80993652</ele>
        <time>2021-10-17T07:38:22Z</time>
      </trkpt>
      <trkpt lat="43.16831" lon="1.10982">
        <ele>307.87994385</ele>
        <time>2021-10-17T07:38:23Z</time>
      </trkpt>
      <trkpt lat="43.16831" lon="1.10978">
        <ele>307.92993164</ele>
        <time>2021-10-17T07:38:24Z</time>
      </trkpt>
      <trkpt lat="43.16831" lon="1.10974">
        <ele>308.06994629</ele>
        <time>2021-10-17T07:38:25Z</time>
      </trkpt>
      <trkpt lat="43.16831" lon="1.1097">
        <ele>308.21994019</ele>
        <time>2021-10-17T07:38:26Z</time>
      </trkpt>
      <trkpt lat="43.1683" lon="1.10965">
        <ele>308.36993408</ele>
        <time>2021-10-17T07:38:27Z</time>
      </trkpt>
      <trkpt lat="43.16829" lon="1.10961">
        <ele>308.50994873</ele>
        <time>2021-10-17T07:38:28Z</time>
      </trkpt>
      <trkpt lat="43.16828" lon="1.10958">
        <ele>308.5899353</ele>
        <time>2021-10-17T07:38:29Z</time>
      </trkpt>
      <trkpt lat="43.16827" lon="1.10955">
        <ele>308.67993164</ele>
        <time>2021-10-17T07:38:30Z</time>
      </trkpt>
      <trkpt lat="43.16825" lon="1.10952">
        <ele>308.74993896</ele>
        <time>2021-10-17T07:38:31Z</time>
      </trkpt>
      <trkpt lat="43.16823" lon="1.10947">
        <ele>308.78994751</ele>
        <time>2021-10-17T07:38:32Z</time>
      </trkpt>
      <trkpt lat="43.16821" lon="1.10945">
        <ele>308.8399353</ele>
        <time>2021-10-17T07:38:33Z</time>
      </trkpt>
      <trkpt lat="43.16819" lon="1.10942">
        <ele>308.87994385</ele>
        <time>2021-10-17T07:38:34Z</time>
      </trkpt>
      <trkpt lat="43.16817" lon="1.1094">
        <ele>308.97994995</ele>
        <time>2021-10-17T07:38:35Z</time>
      </trkpt>
      <trkpt lat="43.16814" lon="1.10936">
        <ele>309.17996216</ele>
        <time>2021-10-17T07:38:36Z</time>
      </trkpt>
      <trkpt lat="43.16812" lon="1.10934">
        <ele>309.39996338</ele>
        <time>2021-10-17T07:38:37Z</time>
      </trkpt>
      <trkpt lat="43.1681" lon="1.10933">
        <ele>309.66995239</ele>
        <time>2021-10-17T07:38:38Z</time>
      </trkpt>
      <trkpt lat="43.16807" lon="1.10931">
        <ele>309.87994385</ele>
        <time>2021-10-17T07:38:39Z</time>
      </trkpt>
      <trkpt lat="43.16805" lon="1.10929">
        <ele>310.06994629</ele>
        <time>2021-10-17T07:38:40Z</time>
      </trkpt>
      <trkpt lat="43.16801" lon="1.10927">
        <ele>310.23995972</ele>
        <time>2021-10-17T07:38:41Z</time>
      </trkpt>
      <trkpt lat="43.16799" lon="1.10926">
        <ele>310.58996582</ele>
        <time>2021-10-17T07:38:42Z</time>
      </trkpt>
      <trkpt lat="43.16797" lon="1.10925">
        <ele>310.58996582</ele>
        <time>2021-10-17T07:38:43Z</time>
      </trkpt>
      <trkpt lat="43.16794" lon="1.10923">
        <ele>310.78997803</ele>
        <time>2021-10-17T07:38:44Z</time>
      </trkpt>
      <trkpt lat="43.16791" lon="1.10921">
        <ele>311.01998901</ele>
        <time>2021-10-17T07:38:45Z</time>
      </trkpt>
      <trkpt lat="43.16788" lon="1.1092">
        <ele>311.25</ele>
        <time>2021-10-17T07:38:46Z</time>
      </trkpt>
      <trkpt lat="43.16786" lon="1.10918">
        <ele>311.48999023</ele>
        <time>2021-10-17T07:38:47Z</time>
      </trkpt>
      <trkpt lat="43.16783" lon="1.10917">
        <ele>311.69000244</ele>
        <time>2021-10-17T07:38:48Z</time>
      </trkpt>
      <trkpt lat="43.16781" lon="1.10915">
        <ele>311.8500061</ele>
        <time>2021-10-17T07:38:49Z</time>
      </trkpt>
      <trkpt lat="43.16777" lon="1.10913">
        <ele>312.02999878</ele>
        <time>2021-10-17T07:38:50Z</time>
      </trkpt>
      <trkpt lat="43.16774" lon="1.10911">
        <ele>312.13000488</ele>
        <time>2021-10-17T07:38:51Z</time>
      </trkpt>
      <trkpt lat="43.16772" lon="1.1091">
        <ele>312.27999878</ele>
        <time>2021-10-17T07:38:52Z</time>
      </trkpt>
      <trkpt lat="43.16769" lon="1.10908">
        <ele>312.42001343</ele>
        <time>2021-10-17T07:38:53Z</time>
      </trkpt>
      <trkpt lat="43.16766" lon="1.10905">
        <ele>312.58001709</ele>
        <time>2021-10-17T07:38:54Z</time>
      </trkpt>
      <trkpt lat="43.16763" lon="1.10903">
        <ele>312.72003174</ele>
        <time>2021-10-17T07:38:55Z</time>
      </trkpt>
      <trkpt lat="43.16761" lon="1.109">
        <ele>312.83001709</ele>
        <time>2021-10-17T07:38:56Z</time>
      </trkpt>
      <trkpt lat="43.16758" lon="1.10898">
        <ele>312.95001221</ele>
        <time>2021-10-17T07:38:57Z</time>
      </trkpt>
      <trkpt lat="43.16755" lon="1.10894">
        <ele>313.04000854</ele>
        <time>2021-10-17T07:38:58Z</time>
      </trkpt>
      <trkpt lat="43.16753" lon="1.10892">
        <ele>313.11001587</ele>
        <time>2021-10-17T07:38:59Z</time>
      </trkpt>
      <trkpt lat="43.16751" lon="1.10889">
        <ele>313.21002197</ele>
        <time>2021-10-17T07:39:00Z</time>
      </trkpt>
      <trkpt lat="43.16749" lon="1.10886">
        <ele>313.33001709</ele>
        <time>2021-10-17T07:39:01Z</time>
      </trkpt>
      <trkpt lat="43.16747" lon="1.10884">
        <ele>313.44000244</ele>
        <time>2021-10-17T07:39:02Z</time>
      </trkpt>
      <trkpt lat="43.16744" lon="1.10879">
        <ele>313.63000488</ele>
        <time>2021-10-17T07:39:03Z</time>
      </trkpt>
      <trkpt lat="43.16741" lon="1.10876">
        <ele>313.80001831</ele>
        <time>2021-10-17T07:39:04Z</time>
      </trkpt>
      <trkpt lat="43.16739" lon="1.10873">
        <ele>313.94003296</ele>
        <time>2021-10-17T07:39:05Z</time>
      </trkpt>
      <trkpt lat="43.16737" lon="1.1087">
        <ele>314.09002686</ele>
        <time>2021-10-17T07:39:06Z</time>
      </trkpt>
      <trkpt lat="43.16734" lon="1.10865">
        <ele>314.15002441</ele>
        <time>2021-10-17T07:39:07Z</time>
      </trkpt>
      <trkpt lat="43.16732" lon="1.10862">
        <ele>314.15002441</ele>
        <time>2021-10-17T07:39:08Z</time>
      </trkpt>
      <trkpt lat="43.16729" lon="1.10858">
        <ele>314.14001465</ele>
        <time>2021-10-17T07:39:09Z</time>
      </trkpt>
      <trkpt lat="43.16727" lon="1.10855">
        <ele>314.12002563</ele>
        <time>2021-10-17T07:39:10Z</time>
      </trkpt>
      <trkpt lat="43.16725" lon="1.10852">
        <ele>314.1300354</ele>
        <time>2021-10-17T07:39:11Z</time>
      </trkpt>
      <trkpt lat="43.16722" lon="1.10847">
        <ele>314.17004395</ele>
        <time>2021-10-17T07:39:12Z</time>
      </trkpt>
      <trkpt lat="43.16719" lon="1.10844">
        <ele>314.25003052</ele>
        <time>2021-10-17T07:39:13Z</time>
      </trkpt>
      <trkpt lat="43.16717" lon="1.1084">
        <ele>314.34002686</ele>
        <time>2021-10-17T07:39:14Z</time>
      </trkpt>
      <trkpt lat="43.16715" lon="1.10837">
        <ele>314.40002441</ele>
        <time>2021-10-17T07:39:15Z</time>
      </trkpt>
      <trkpt lat="43.16712" lon="1.10834">
        <ele>314.46002197</ele>
        <time>2021-10-17T07:39:16Z</time>
      </trkpt>
      <trkpt lat="43.16709" lon="1.10829">
        <ele>314.48001099</ele>
        <time>2021-10-17T07:39:17Z</time>
      </trkpt>
      <trkpt lat="43.16707" lon="1.10826">
        <ele>314.5</ele>
        <time>2021-10-17T07:39:18Z</time>
      </trkpt>
      <trkpt lat="43.16705" lon="1.10823">
        <ele>314.54998779</ele>
        <time>2021-10-17T07:39:19Z</time>
      </trkpt>
      <trkpt lat="43.16702" lon="1.10821">
        <ele>314.60998535</ele>
        <time>2021-10-17T07:39:20Z</time>
      </trkpt>
      <trkpt lat="43.16698" lon="1.10819">
        <ele>314.56997681</ele>
        <time>2021-10-17T07:39:21Z</time>
      </trkpt>
      <trkpt lat="43.16696" lon="1.10819">
        <ele>314.60998535</ele>
        <time>2021-10-17T07:39:22Z</time>
      </trkpt>
      <trkpt lat="43.16693" lon="1.1082">
        <ele>314.62997437</ele>
        <time>2021-10-17T07:39:23Z</time>
      </trkpt>
      <trkpt lat="43.1669" lon="1.10823">
        <ele>314.7199707</ele>
        <time>2021-10-17T07:39:24Z</time>
      </trkpt>
      <trkpt lat="43.16688" lon="1.10826">
        <ele>314.7199707</ele>
        <time>2021-10-17T07:39:25Z</time>
      </trkpt>
      <trkpt lat="43.16685" lon="1.10831">
        <ele>314.68997192</ele>
        <time>2021-10-17T07:39:26Z</time>
      </trkpt>
      <trkpt lat="43.16683" lon="1.10835">
        <ele>314.66998291</ele>
        <time>2021-10-17T07:39:27Z</time>
      </trkpt>
      <trkpt lat="43.16681" lon="1.10839">
        <ele>314.49996948</ele>
        <time>2021-10-17T07:39:28Z</time>
      </trkpt>
      <trkpt lat="43.16679" lon="1.10843">
        <ele>314.4699707</ele>
        <time>2021-10-17T07:39:29Z</time>
      </trkpt>
      <trkpt lat="43.16676" lon="1.1085">
        <ele>314.47998047</ele>
        <time>2021-10-17T07:39:30Z</time>
      </trkpt>
      <trkpt lat="43.16673" lon="1.10854">
        <ele>314.47998047</ele>
        <time>2021-10-17T07:39:31Z</time>
      </trkpt>
      <trkpt lat="43.1667" lon="1.10858">
        <ele>314.48999023</ele>
        <time>2021-10-17T07:39:32Z</time>
      </trkpt>
      <trkpt lat="43.16667" lon="1.10863">
        <ele>314.45999146</ele>
        <time>2021-10-17T07:39:33Z</time>
      </trkpt>
      <trkpt lat="43.16664" lon="1.1087">
        <ele>314.35998535</ele>
        <time>2021-10-17T07:39:34Z</time>
      </trkpt>
      <trkpt lat="43.16661" lon="1.10876">
        <ele>314.26998901</ele>
        <time>2021-10-17T07:39:35Z</time>
      </trkpt>
      <trkpt lat="43.16658" lon="1.10881">
        <ele>314.22000122</ele>
        <time>2021-10-17T07:39:36Z</time>
      </trkpt>
      <trkpt lat="43.16656" lon="1.10886">
        <ele>314.23001099</ele>
        <time>2021-10-17T07:39:37Z</time>
      </trkpt>
      <trkpt lat="43.16653" lon="1.1089">
        <ele>314.33999634</ele>
        <time>2021-10-17T07:39:38Z</time>
      </trkpt>
      <trkpt lat="43.1665" lon="1.10897">
        <ele>314.41000366</ele>
        <time>2021-10-17T07:39:39Z</time>
      </trkpt>
      <trkpt lat="43.16647" lon="1.10902">
        <ele>314.55001831</ele>
        <time>2021-10-17T07:39:40Z</time>
      </trkpt>
      <trkpt lat="43.16645" lon="1.10906">
        <ele>314.61001587</ele>
        <time>2021-10-17T07:39:41Z</time>
      </trkpt>
      <trkpt lat="43.16643" lon="1.1091">
        <ele>314.59002686</ele>
        <time>2021-10-17T07:39:42Z</time>
      </trkpt>
      <trkpt lat="43.1664" lon="1.10914">
        <ele>314.59002686</ele>
        <time>2021-10-17T07:39:43Z</time>
      </trkpt>
      <trkpt lat="43.16637" lon="1.1092">
        <ele>314.55001831</ele>
        <time>2021-10-17T07:39:44Z</time>
      </trkpt>
      <trkpt lat="43.16635" lon="1.10924">
        <ele>314.52001953</ele>
        <time>2021-10-17T07:39:45Z</time>
      </trkpt>
      <trkpt lat="43.16633" lon="1.10928">
        <ele>314.41003418</ele>
        <time>2021-10-17T07:39:46Z</time>
      </trkpt>
      <trkpt lat="43.1663" lon="1.10932">
        <ele>314.32003784</ele>
        <time>2021-10-17T07:39:47Z</time>
      </trkpt>
      <trkpt lat="43.16626" lon="1.10937">
        <ele>314.30004883</ele>
        <time>2021-10-17T07:39:48Z</time>
      </trkpt>
      <trkpt lat="43.16623" lon="1.10939">
        <ele>314.16003418</ele>
        <time>2021-10-17T07:39:49Z</time>
      </trkpt>
      <trkpt lat="43.16618" lon="1.1094">
        <ele>314.06002808</ele>
        <time>2021-10-17T07:39:50Z</time>
      </trkpt>
      <trkpt lat="43.16614" lon="1.10939">
        <ele>313.96002197</ele>
        <time>2021-10-17T07:39:51Z</time>
      </trkpt>
      <trkpt lat="43.16609" lon="1.10935">
        <ele>313.84002686</ele>
        <time>2021-10-17T07:39:52Z</time>
      </trkpt>
      <trkpt lat="43.16606" lon="1.10932">
        <ele>313.89001465</ele>
        <time>2021-10-17T07:39:53Z</time>
      </trkpt>
      <trkpt lat="43.16604" lon="1.10928">
        <ele>314.0300293</ele>
        <time>2021-10-17T07:39:54Z</time>
      </trkpt>
      <trkpt lat="43.16601" lon="1.10924">
        <ele>314.21002197</ele>
        <time>2021-10-17T07:39:55Z</time>
      </trkpt>
      <trkpt lat="43.16599" lon="1.1092">
        <ele>314.47003174</ele>
        <time>2021-10-17T07:39:56Z</time>
      </trkpt>
      <trkpt lat="43.16595" lon="1.10913">
        <ele>314.66003418</ele>
        <time>2021-10-17T07:39:57Z</time>
      </trkpt>
      <trkpt lat="43.16593" lon="1.10909">
        <ele>314.82003784</ele>
        <time>2021-10-17T07:39:58Z</time>
      </trkpt>
      <trkpt lat="43.1659" lon="1.10904">
        <ele>314.89004517</ele>
        <time>2021-10-17T07:39:59Z</time>
      </trkpt>
      <trkpt lat="43.16588" lon="1.109">
        <ele>314.91003418</ele>
        <time>2021-10-17T07:40:00Z</time>
      </trkpt>
      <trkpt lat="43.16586" lon="1.10895">
        <ele>314.93002319</ele>
        <time>2021-10-17T07:40:01Z</time>
      </trkpt>
      <trkpt lat="43.16583" lon="1.10889">
        <ele>315.0300293</ele>
        <time>2021-10-17T07:40:02Z</time>
      </trkpt>
      <trkpt lat="43.1658" lon="1.10885">
        <ele>315.20004272</ele>
        <time>2021-10-17T07:40:03Z</time>
      </trkpt>
      <trkpt lat="43.16578" lon="1.10881">
        <ele>315.33004761</ele>
        <time>2021-10-17T07:40:04Z</time>
      </trkpt>
      <trkpt lat="43.16576" lon="1.10877">
        <ele>315.51004028</ele>
        <time>2021-10-17T07:40:05Z</time>
      </trkpt>
      <trkpt lat="43.16573" lon="1.10871">
        <ele>315.64004517</ele>
        <time>2021-10-17T07:40:06Z</time>
      </trkpt>
      <trkpt lat="43.16571" lon="1.10867">
        <ele>315.78005981</ele>
        <time>2021-10-17T07:40:07Z</time>
      </trkpt>
      <trkpt lat="43.16569" lon="1.10863">
        <ele>315.88006592</ele>
        <time>2021-10-17T07:40:08Z</time>
      </trkpt>
      <trkpt lat="43.16567" lon="1.10859">
        <ele>315.99005127</ele>
        <time>2021-10-17T07:40:09Z</time>
      </trkpt>
      <trkpt lat="43.16564" lon="1.10853">
        <ele>316.09005737</ele>
        <time>2021-10-17T07:40:10Z</time>
      </trkpt>
      <trkpt lat="43.16562" lon="1.10849">
        <ele>316.15005493</ele>
        <time>2021-10-17T07:40:11Z</time>
      </trkpt>
      <trkpt lat="43.1656" lon="1.10845">
        <ele>316.30004883</ele>
        <time>2021-10-17T07:40:12Z</time>
      </trkpt>
      <trkpt lat="43.16558" lon="1.10841">
        <ele>316.42004395</ele>
        <time>2021-10-17T07:40:13Z</time>
      </trkpt>
      <trkpt lat="43.16556" lon="1.10836">
        <ele>316.56005859</ele>
        <time>2021-10-17T07:40:14Z</time>
      </trkpt>
      <trkpt lat="43.16553" lon="1.1083">
        <ele>316.65005493</ele>
        <time>2021-10-17T07:40:15Z</time>
      </trkpt>
      <trkpt lat="43.16551" lon="1.10826">
        <ele>316.72006226</ele>
        <time>2021-10-17T07:40:16Z</time>
      </trkpt>
      <trkpt lat="43.16549" lon="1.10822">
        <ele>316.74005127</ele>
        <time>2021-10-17T07:40:17Z</time>
      </trkpt>
      <trkpt lat="43.16547" lon="1.10818">
        <ele>316.78005981</ele>
        <time>2021-10-17T07:40:18Z</time>
      </trkpt>
      <trkpt lat="43.16545" lon="1.10814">
        <ele>316.89004517</ele>
        <time>2021-10-17T07:40:19Z</time>
      </trkpt>
      <trkpt lat="43.16543" lon="1.10808">
        <ele>317.05004883</ele>
        <time>2021-10-17T07:40:20Z</time>
      </trkpt>
      <trkpt lat="43.16541" lon="1.10804">
        <ele>317.10003662</ele>
        <time>2021-10-17T07:40:21Z</time>
      </trkpt>
      <trkpt lat="43.16539" lon="1.10799">
        <ele>317.2300415</ele>
        <time>2021-10-17T07:40:22Z</time>
      </trkpt>
      <trkpt lat="43.16538" lon="1.10795">
        <ele>317.37005615</ele>
        <time>2021-10-17T07:40:23Z</time>
      </trkpt>
      <trkpt lat="43.16535" lon="1.10789">
        <ele>317.42004395</ele>
        <time>2021-10-17T07:40:24Z</time>
      </trkpt>
      <trkpt lat="43.16533" lon="1.10785">
        <ele>317.42004395</ele>
        <time>2021-10-17T07:40:25Z</time>
      </trkpt>
      <trkpt lat="43.16532" lon="1.1078">
        <ele>317.43005371</ele>
        <time>2021-10-17T07:40:26Z</time>
      </trkpt>
      <trkpt lat="43.1653" lon="1.10776">
        <ele>317.47006226</ele>
        <time>2021-10-17T07:40:27Z</time>
      </trkpt>
      <trkpt lat="43.16528" lon="1.10769">
        <ele>317.50006104</ele>
        <time>2021-10-17T07:40:28Z</time>
      </trkpt>
      <trkpt lat="43.16526" lon="1.10765">
        <ele>317.62005615</ele>
        <time>2021-10-17T07:40:29Z</time>
      </trkpt>
      <trkpt lat="43.16525" lon="1.10761">
        <ele>317.78005981</ele>
        <time>2021-10-17T07:40:30Z</time>
      </trkpt>
      <trkpt lat="43.16523" lon="1.10757">
        <ele>317.88006592</ele>
        <time>2021-10-17T07:40:31Z</time>
      </trkpt>
      <trkpt lat="43.16522" lon="1.10753">
        <ele>318.06005859</ele>
        <time>2021-10-17T07:40:32Z</time>
      </trkpt>
      <trkpt lat="43.16519" lon="1.10747">
        <ele>318.1600647</ele>
        <time>2021-10-17T07:40:33Z</time>
      </trkpt>
      <trkpt lat="43.16517" lon="1.10743">
        <ele>318.28005981</ele>
        <time>2021-10-17T07:40:34Z</time>
      </trkpt>
      <trkpt lat="43.16516" lon="1.10738">
        <ele>318.37005615</ele>
        <time>2021-10-17T07:40:35Z</time>
      </trkpt>
      <trkpt lat="43.16514" lon="1.10734">
        <ele>318.42004395</ele>
        <time>2021-10-17T07:40:36Z</time>
      </trkpt>
      <trkpt lat="43.16512" lon="1.1073">
        <ele>318.54003906</ele>
        <time>2021-10-17T07:40:37Z</time>
      </trkpt>
      <trkpt lat="43.1651" lon="1.10724">
        <ele>318.62002563</ele>
        <time>2021-10-17T07:40:38Z</time>
      </trkpt>
      <trkpt lat="43.16509" lon="1.1072">
        <ele>318.77001953</ele>
        <time>2021-10-17T07:40:39Z</time>
      </trkpt>
      <trkpt lat="43.16507" lon="1.10716">
        <ele>318.93002319</ele>
        <time>2021-10-17T07:40:40Z</time>
      </trkpt>
      <trkpt lat="43.16506" lon="1.10712">
        <ele>319.10003662</ele>
        <time>2021-10-17T07:40:41Z</time>
      </trkpt>
      <trkpt lat="43.16504" lon="1.10705">
        <ele>319.30004883</ele>
        <time>2021-10-17T07:40:42Z</time>
      </trkpt>
      <trkpt lat="43.16502" lon="1.10701">
        <ele>319.53005981</ele>
        <time>2021-10-17T07:40:43Z</time>
      </trkpt>
      <trkpt lat="43.16501" lon="1.10697">
        <ele>319.9100647</ele>
        <time>2021-10-17T07:40:44Z</time>
      </trkpt>
      <trkpt lat="43.16499" lon="1.10693">
        <ele>319.9100647</ele>
        <time>2021-10-17T07:40:45Z</time>
      </trkpt>
      <trkpt lat="43.16497" lon="1.10689">
        <ele>320.10006714</ele>
        <time>2021-10-17T07:40:46Z</time>
      </trkpt>
      <trkpt lat="43.16495" lon="1.10682">
        <ele>320.25006104</ele>
        <time>2021-10-17T07:40:47Z</time>
      </trkpt>
      <trkpt lat="43.16492" lon="1.10678">
        <ele>320.42007446</ele>
        <time>2021-10-17T07:40:48Z</time>
      </trkpt>
      <trkpt lat="43.16491" lon="1.10674">
        <ele>320.55007935</ele>
        <time>2021-10-17T07:40:49Z</time>
      </trkpt>
      <trkpt lat="43.16489" lon="1.1067">
        <ele>320.68008423</ele>
        <time>2021-10-17T07:40:50Z</time>
      </trkpt>
      <trkpt lat="43.16487" lon="1.10663">
        <ele>320.78009033</ele>
        <time>2021-10-17T07:40:51Z</time>
      </trkpt>
      <trkpt lat="43.16486" lon="1.10659">
        <ele>320.91009521</ele>
        <time>2021-10-17T07:40:52Z</time>
      </trkpt>
      <trkpt lat="43.16484" lon="1.10655">
        <ele>321.02008057</ele>
        <time>2021-10-17T07:40:53Z</time>
      </trkpt>
      <trkpt lat="43.16482" lon="1.10651">
        <ele>321.14007568</ele>
        <time>2021-10-17T07:40:54Z</time>
      </trkpt>
      <trkpt lat="43.16481" lon="1.10648">
        <ele>321.32006836</ele>
        <time>2021-10-17T07:40:55Z</time>
      </trkpt>
      <trkpt lat="43.16478" lon="1.10644">
        <ele>321.46008301</ele>
        <time>2021-10-17T07:40:56Z</time>
      </trkpt>
      <trkpt lat="43.16477" lon="1.10641">
        <ele>321.66009521</ele>
        <time>2021-10-17T07:40:57Z</time>
      </trkpt>
      <trkpt lat="43.16476" lon="1.1064">
        <ele>321.82009888</ele>
        <time>2021-10-17T07:40:58Z</time>
      </trkpt>
      <trkpt lat="43.16476" lon="1.10638">
        <ele>321.94009399</ele>
        <time>2021-10-17T07:40:59Z</time>
      </trkpt>
      <trkpt lat="43.16476" lon="1.10638">
        <ele>322.20010376</ele>
        <time>2021-10-17T07:41:00Z</time>
      </trkpt>
      <trkpt lat="43.16475" lon="1.10635">
        <ele>321.68011475</ele>
        <time>2021-10-17T07:44:21Z</time>
      </trkpt>
      <trkpt lat="43.16474" lon="1.10632">
        <ele>321.67010498</ele>
        <time>2021-10-17T07:44:22Z</time>
      </trkpt>
      <trkpt lat="43.16472" lon="1.10627">
        <ele>321.61010742</ele>
        <time>2021-10-17T07:44:23Z</time>
      </trkpt>
      <trkpt lat="43.16471" lon="1.10624">
        <ele>321.57009888</ele>
        <time>2021-10-17T07:44:24Z</time>
      </trkpt>
      <trkpt lat="43.1647" lon="1.10621">
        <ele>321.55010986</ele>
        <time>2021-10-17T07:44:25Z</time>
      </trkpt>
      <trkpt lat="43.16468" lon="1.10617">
        <ele>321.58010864</ele>
        <time>2021-10-17T07:44:26Z</time>
      </trkpt>
      <trkpt lat="43.16465" lon="1.10612">
        <ele>321.71011353</ele>
        <time>2021-10-17T07:44:27Z</time>
      </trkpt>
      <trkpt lat="43.16464" lon="1.10609">
        <ele>321.90011597</ele>
        <time>2021-10-17T07:44:28Z</time>
      </trkpt>
      <trkpt lat="43.16462" lon="1.10605">
        <ele>322.06011963</ele>
        <time>2021-10-17T07:44:29Z</time>
      </trkpt>
      <trkpt lat="43.1646" lon="1.10602">
        <ele>322.21011353</ele>
        <time>2021-10-17T07:44:30Z</time>
      </trkpt>
      <trkpt lat="43.16457" lon="1.10597">
        <ele>322.36010742</ele>
        <time>2021-10-17T07:44:31Z</time>
      </trkpt>
      <trkpt lat="43.16455" lon="1.10594">
        <ele>322.53012085</ele>
        <time>2021-10-17T07:44:32Z</time>
      </trkpt>
      <trkpt lat="43.16453" lon="1.10591">
        <ele>322.76013184</ele>
        <time>2021-10-17T07:44:33Z</time>
      </trkpt>
      <trkpt lat="43.1645" lon="1.10588">
        <ele>322.95013428</ele>
        <time>2021-10-17T07:44:34Z</time>
      </trkpt>
      <trkpt lat="43.16448" lon="1.10584">
        <ele>323.15014648</ele>
        <time>2021-10-17T07:44:35Z</time>
      </trkpt>
      <trkpt lat="43.16445" lon="1.10579">
        <ele>323.36013794</ele>
        <time>2021-10-17T07:44:36Z</time>
      </trkpt>
      <trkpt lat="43.16443" lon="1.10576">
        <ele>323.58013916</ele>
        <time>2021-10-17T07:44:37Z</time>
      </trkpt>
      <trkpt lat="43.16442" lon="1.10573">
        <ele>323.90014648</ele>
        <time>2021-10-17T07:44:38Z</time>
      </trkpt>
      <trkpt lat="43.1644" lon="1.1057">
        <ele>324.22015381</ele>
        <time>2021-10-17T07:44:39Z</time>
      </trkpt>
      <trkpt lat="43.16436" lon="1.10566">
        <ele>324.5201416</ele>
        <time>2021-10-17T07:44:40Z</time>
      </trkpt>
      <trkpt lat="43.16434" lon="1.10563">
        <ele>324.85012817</ele>
        <time>2021-10-17T07:44:41Z</time>
      </trkpt>
      <trkpt lat="43.16432" lon="1.1056">
        <ele>325.14013672</ele>
        <time>2021-10-17T07:44:42Z</time>
      </trkpt>
      <trkpt lat="43.16431" lon="1.10557">
        <ele>325.40014648</ele>
        <time>2021-10-17T07:44:43Z</time>
      </trkpt>
      <trkpt lat="43.16429" lon="1.10555">
        <ele>325.72015381</ele>
        <time>2021-10-17T07:44:44Z</time>
      </trkpt>
      <trkpt lat="43.16427" lon="1.10551">
        <ele>326.01016235</ele>
        <time>2021-10-17T07:44:45Z</time>
      </trkpt>
      <trkpt lat="43.16425" lon="1.10548">
        <ele>326.35015869</ele>
        <time>2021-10-17T07:44:46Z</time>
      </trkpt>
      <trkpt lat="43.16424" lon="1.10545">
        <ele>326.74017334</ele>
        <time>2021-10-17T07:44:47Z</time>
      </trkpt>
      <trkpt lat="43.16422" lon="1.10542">
        <ele>327.07015991</ele>
        <time>2021-10-17T07:44:48Z</time>
      </trkpt>
      <trkpt lat="43.1642" lon="1.10538">
        <ele>327.46017456</ele>
        <time>2021-10-17T07:44:49Z</time>
      </trkpt>
      <trkpt lat="43.16419" lon="1.10535">
        <ele>327.85018921</ele>
        <time>2021-10-17T07:44:50Z</time>
      </trkpt>
      <trkpt lat="43.16418" lon="1.10532">
        <ele>328.24020386</ele>
        <time>2021-10-17T07:44:51Z</time>
      </trkpt>
      <trkpt lat="43.16416" lon="1.10529">
        <ele>328.67019653</ele>
        <time>2021-10-17T07:44:52Z</time>
      </trkpt>
      <trkpt lat="43.16415" lon="1.10526">
        <ele>329.11019897</ele>
        <time>2021-10-17T07:44:53Z</time>
      </trkpt>
      <trkpt lat="43.16413" lon="1.10522">
        <ele>329.52020264</ele>
        <time>2021-10-17T07:44:54Z</time>
      </trkpt>
      <trkpt lat="43.16411" lon="1.10519">
        <ele>329.98019409</ele>
        <time>2021-10-17T07:44:55Z</time>
      </trkpt>
      <trkpt lat="43.1641" lon="1.10516">
        <ele>330.37020874</ele>
        <time>2021-10-17T07:44:56Z</time>
      </trkpt>
      <trkpt lat="43.16408" lon="1.10513">
        <ele>330.71020508</ele>
        <time>2021-10-17T07:44:57Z</time>
      </trkpt>
      <trkpt lat="43.16407" lon="1.1051">
        <ele>331.0302124</ele>
        <time>2021-10-17T07:44:58Z</time>
      </trkpt>
      <trkpt lat="43.16405" lon="1.10505">
        <ele>331.29022217</ele>
        <time>2021-10-17T07:44:59Z</time>
      </trkpt>
      <trkpt lat="43.16403" lon="1.10502">
        <ele>331.63021851</ele>
        <time>2021-10-17T07:45:00Z</time>
      </trkpt>
      <trkpt lat="43.16401" lon="1.105">
        <ele>331.94021606</ele>
        <time>2021-10-17T07:45:01Z</time>
      </trkpt>
      <trkpt lat="43.164" lon="1.10497">
        <ele>332.37020874</ele>
        <time>2021-10-17T07:45:02Z</time>
      </trkpt>
      <trkpt lat="43.16397" lon="1.10493">
        <ele>332.71020508</ele>
        <time>2021-10-17T07:45:03Z</time>
      </trkpt>
      <trkpt lat="43.16395" lon="1.10491">
        <ele>333.02020264</ele>
        <time>2021-10-17T07:45:04Z</time>
      </trkpt>
      <trkpt lat="43.16393" lon="1.10489">
        <ele>333.34020996</ele>
        <time>2021-10-17T07:45:05Z</time>
      </trkpt>
      <trkpt lat="43.16391" lon="1.10487">
        <ele>333.5302124</ele>
        <time>2021-10-17T07:45:06Z</time>
      </trkpt>
      <trkpt lat="43.16388" lon="1.10484">
        <ele>333.75021362</ele>
        <time>2021-10-17T07:45:07Z</time>
      </trkpt>
      <trkpt lat="43.16386" lon="1.10482">
        <ele>333.96020508</ele>
        <time>2021-10-17T07:45:08Z</time>
      </trkpt>
      <trkpt lat="43.16383" lon="1.10481">
        <ele>334.21020508</ele>
        <time>2021-10-17T07:45:09Z</time>
      </trkpt>
      <trkpt lat="43.16381" lon="1.10479">
        <ele>334.52020264</ele>
        <time>2021-10-17T07:45:10Z</time>
      </trkpt>
      <trkpt lat="43.16379" lon="1.10478">
        <ele>334.84020996</ele>
        <time>2021-10-17T07:45:11Z</time>
      </trkpt>
      <trkpt lat="43.16376" lon="1.10476">
        <ele>335.21020508</ele>
        <time>2021-10-17T07:45:12Z</time>
      </trkpt>
      <trkpt lat="43.16374" lon="1.10475">
        <ele>335.54019165</ele>
        <time>2021-10-17T07:45:13Z</time>
      </trkpt>
      <trkpt lat="43.16371" lon="1.10473">
        <ele>335.85018921</ele>
        <time>2021-10-17T07:45:14Z</time>
      </trkpt>
      <trkpt lat="43.16369" lon="1.10472">
        <ele>336.20019531</ele>
        <time>2021-10-17T07:45:15Z</time>
      </trkpt>
      <trkpt lat="43.16366" lon="1.10469">
        <ele>336.56018066</ele>
        <time>2021-10-17T07:45:16Z</time>
      </trkpt>
      <trkpt lat="43.16363" lon="1.10467">
        <ele>336.900177</ele>
        <time>2021-10-17T07:45:17Z</time>
      </trkpt>
      <trkpt lat="43.16361" lon="1.10464">
        <ele>337.28018188</ele>
        <time>2021-10-17T07:45:18Z</time>
      </trkpt>
      <trkpt lat="43.1636" lon="1.10462">
        <ele>337.69018555</ele>
        <time>2021-10-17T07:45:19Z</time>
      </trkpt>
      <trkpt lat="43.16359" lon="1.10461">
        <ele>338.03018188</ele>
        <time>2021-10-17T07:45:20Z</time>
      </trkpt>
      <trkpt lat="43.16357" lon="1.10459">
        <ele>338.400177</ele>
        <time>2021-10-17T07:45:21Z</time>
      </trkpt>
      <trkpt lat="43.16355" lon="1.10458">
        <ele>338.72018433</ele>
        <time>2021-10-17T07:45:22Z</time>
      </trkpt>
      <trkpt lat="43.16353" lon="1.10456">
        <ele>338.99017334</ele>
        <time>2021-10-17T07:45:23Z</time>
      </trkpt>
      <trkpt lat="43.1635" lon="1.10454">
        <ele>339.32015991</ele>
        <time>2021-10-17T07:45:24Z</time>
      </trkpt>
      <trkpt lat="43.16348" lon="1.10452">
        <ele>339.65014648</ele>
        <time>2021-10-17T07:45:25Z</time>
      </trkpt>
      <trkpt lat="43.16345" lon="1.10449">
        <ele>340.01013184</ele>
        <time>2021-10-17T07:45:26Z</time>
      </trkpt>
      <trkpt lat="43.16344" lon="1.10448">
        <ele>340.48013306</ele>
        <time>2021-10-17T07:45:27Z</time>
      </trkpt>
      <trkpt lat="43.16342" lon="1.10447">
        <ele>340.91012573</ele>
        <time>2021-10-17T07:45:28Z</time>
      </trkpt>
      <trkpt lat="43.1634" lon="1.10446">
        <ele>341.33013916</ele>
        <time>2021-10-17T07:45:29Z</time>
      </trkpt>
      <trkpt lat="43.16337" lon="1.10443">
        <ele>341.74014282</ele>
        <time>2021-10-17T07:45:30Z</time>
      </trkpt>
      <trkpt lat="43.16335" lon="1.10442">
        <ele>342.12014771</ele>
        <time>2021-10-17T07:45:31Z</time>
      </trkpt>
      <trkpt lat="43.16333" lon="1.1044">
        <ele>342.49014282</ele>
        <time>2021-10-17T07:45:32Z</time>
      </trkpt>
      <trkpt lat="43.16332" lon="1.10439">
        <ele>342.82012939</ele>
        <time>2021-10-17T07:45:33Z</time>
      </trkpt>
      <trkpt lat="43.16328" lon="1.10436">
        <ele>343.15011597</ele>
        <time>2021-10-17T07:45:34Z</time>
      </trkpt>
      <trkpt lat="43.16326" lon="1.10434">
        <ele>343.36010742</ele>
        <time>2021-10-17T07:45:35Z</time>
      </trkpt>
      <trkpt lat="43.16325" lon="1.10431">
        <ele>343.63009644</ele>
        <time>2021-10-17T07:45:36Z</time>
      </trkpt>
      <trkpt lat="43.16323" lon="1.10429">
        <ele>343.85009766</ele>
        <time>2021-10-17T07:45:37Z</time>
      </trkpt>
      <trkpt lat="43.16321" lon="1.10427">
        <ele>344.20010376</ele>
        <time>2021-10-17T07:45:38Z</time>
      </trkpt>
      <trkpt lat="43.16319" lon="1.10425">
        <ele>344.57009888</ele>
        <time>2021-10-17T07:45:39Z</time>
      </trkpt>
      <trkpt lat="43.16317" lon="1.10423">
        <ele>344.88009644</ele>
        <time>2021-10-17T07:45:40Z</time>
      </trkpt>
      <trkpt lat="43.16316" lon="1.10421">
        <ele>345.35009766</ele>
        <time>2021-10-17T07:45:41Z</time>
      </trkpt>
      <trkpt lat="43.16315" lon="1.1042">
        <ele>345.7401123</ele>
        <time>2021-10-17T07:45:42Z</time>
      </trkpt>
      <trkpt lat="43.16312" lon="1.10417">
        <ele>346.19012451</ele>
        <time>2021-10-17T07:45:43Z</time>
      </trkpt>
      <trkpt lat="43.16312" lon="1.10415">
        <ele>346.66012573</ele>
        <time>2021-10-17T07:45:44Z</time>
      </trkpt>
      <trkpt lat="43.16311" lon="1.10413">
        <ele>347.10012817</ele>
        <time>2021-10-17T07:45:45Z</time>
      </trkpt>
      <trkpt lat="43.16311" lon="1.1041">
        <ele>347.5201416</ele>
        <time>2021-10-17T07:45:46Z</time>
      </trkpt>
      <trkpt lat="43.16311" lon="1.10407">
        <ele>347.90014648</ele>
        <time>2021-10-17T07:45:47Z</time>
      </trkpt>
      <trkpt lat="43.16312" lon="1.10405">
        <ele>348.39013672</ele>
        <time>2021-10-17T07:45:48Z</time>
      </trkpt>
      <trkpt lat="43.16313" lon="1.10404">
        <ele>348.90014648</ele>
        <time>2021-10-17T07:45:49Z</time>
      </trkpt>
      <trkpt lat="43.16313" lon="1.10403">
        <ele>349.39013672</ele>
        <time>2021-10-17T07:45:50Z</time>
      </trkpt>
      <trkpt lat="43.16314" lon="1.10401">
        <ele>350.05014038</ele>
        <time>2021-10-17T07:45:51Z</time>
      </trkpt>
      <trkpt lat="43.16315" lon="1.104">
        <ele>350.55014038</ele>
        <time>2021-10-17T07:45:52Z</time>
      </trkpt>
      <trkpt lat="43.16316" lon="1.104">
        <ele>350.86013794</ele>
        <time>2021-10-17T07:45:53Z</time>
      </trkpt>
      <trkpt lat="43.16318" lon="1.10399">
        <ele>351.21014404</ele>
        <time>2021-10-17T07:45:54Z</time>
      </trkpt>
      <trkpt lat="43.16319" lon="1.10396">
        <ele>351.43014526</ele>
        <time>2021-10-17T07:45:55Z</time>
      </trkpt>
      <trkpt lat="43.1632" lon="1.10394">
        <ele>351.70013428</ele>
        <time>2021-10-17T07:45:56Z</time>
      </trkpt>
      <trkpt lat="43.16322" lon="1.10391">
        <ele>352.09014893</ele>
        <time>2021-10-17T07:45:57Z</time>
      </trkpt>
      <trkpt lat="43.16323" lon="1.10388">
        <ele>352.40014648</ele>
        <time>2021-10-17T07:45:58Z</time>
      </trkpt>
      <trkpt lat="43.16325" lon="1.10386">
        <ele>352.80014038</ele>
        <time>2021-10-17T07:45:59Z</time>
      </trkpt>
      <trkpt lat="43.16326" lon="1.10384">
        <ele>353.15014648</ele>
        <time>2021-10-17T07:46:00Z</time>
      </trkpt>
      <trkpt lat="43.16327" lon="1.10381">
        <ele>353.44015503</ele>
        <time>2021-10-17T07:46:01Z</time>
      </trkpt>
      <trkpt lat="43.16328" lon="1.10378">
        <ele>353.81015015</ele>
        <time>2021-10-17T07:46:02Z</time>
      </trkpt>
      <trkpt lat="43.16328" lon="1.10375">
        <ele>354.23016357</ele>
        <time>2021-10-17T07:46:03Z</time>
      </trkpt>
      <trkpt lat="43.16329" lon="1.10373">
        <ele>354.72015381</ele>
        <time>2021-10-17T07:46:04Z</time>
      </trkpt>
      <trkpt lat="43.16336" lon="1.1036">
        <ele>358.32998657</ele>
        <time>2021-10-17T07:46:05Z</time>
      </trkpt>
      <trkpt lat="43.16336" lon="1.10357">
        <ele>358.95999146</ele>
        <time>2021-10-17T07:46:06Z</time>
      </trkpt>
      <trkpt lat="43.16335" lon="1.10353">
        <ele>359.42999268</ele>
        <time>2021-10-17T07:46:07Z</time>
      </trkpt>
      <trkpt lat="43.16334" lon="1.1035">
        <ele>359.8500061</ele>
        <time>2021-10-17T07:46:08Z</time>
      </trkpt>
      <trkpt lat="43.16333" lon="1.10349">
        <ele>360.36001587</ele>
        <time>2021-10-17T07:46:09Z</time>
      </trkpt>
      <trkpt lat="43.16331" lon="1.10347">
        <ele>360.70001221</ele>
        <time>2021-10-17T07:46:10Z</time>
      </trkpt>
      <trkpt lat="43.1633" lon="1.10346">
        <ele>361.08001709</ele>
        <time>2021-10-17T07:46:11Z</time>
      </trkpt>
      <trkpt lat="43.16328" lon="1.10346">
        <ele>361.56002808</ele>
        <time>2021-10-17T07:46:12Z</time>
      </trkpt>
      <trkpt lat="43.16327" lon="1.10344">
        <ele>361.92001343</ele>
        <time>2021-10-17T07:46:13Z</time>
      </trkpt>
      <trkpt lat="43.16327" lon="1.10342">
        <ele>362.37002563</ele>
        <time>2021-10-17T07:46:14Z</time>
      </trkpt>
      <trkpt lat="43.16325" lon="1.10338">
        <ele>362.87002563</ele>
        <time>2021-10-17T07:46:15Z</time>
      </trkpt>
      <trkpt lat="43.16323" lon="1.10338">
        <ele>363.15002441</ele>
        <time>2021-10-17T07:46:16Z</time>
      </trkpt>
      <trkpt lat="43.16321" lon="1.10336">
        <ele>363.46002197</ele>
        <time>2021-10-17T07:46:17Z</time>
      </trkpt>
      <trkpt lat="43.1632" lon="1.10334">
        <ele>363.81002808</ele>
        <time>2021-10-17T07:46:18Z</time>
      </trkpt>
      <trkpt lat="43.16317" lon="1.10331">
        <ele>363.96002197</ele>
        <time>2021-10-17T07:46:19Z</time>
      </trkpt>
      <trkpt lat="43.16316" lon="1.10331">
        <ele>364.27001953</ele>
        <time>2021-10-17T07:46:20Z</time>
      </trkpt>
      <trkpt lat="43.16314" lon="1.10329">
        <ele>364.56002808</ele>
        <time>2021-10-17T07:46:21Z</time>
      </trkpt>
      <trkpt lat="43.16312" lon="1.10329">
        <ele>364.79003906</ele>
        <time>2021-10-17T07:46:22Z</time>
      </trkpt>
      <trkpt lat="43.16311" lon="1.10329">
        <ele>365.26004028</ele>
        <time>2021-10-17T07:46:23Z</time>
      </trkpt>
      <trkpt lat="43.16309" lon="1.1033">
        <ele>365.65005493</ele>
        <time>2021-10-17T07:46:24Z</time>
      </trkpt>
      <trkpt lat="43.16307" lon="1.10329">
        <ele>366.05004883</ele>
        <time>2021-10-17T07:46:25Z</time>
      </trkpt>
      <trkpt lat="43.16305" lon="1.10327">
        <ele>366.52005005</ele>
        <time>2021-10-17T07:46:26Z</time>
      </trkpt>
      <trkpt lat="43.16302" lon="1.10325">
        <ele>366.89004517</ele>
        <time>2021-10-17T07:46:27Z</time>
      </trkpt>
      <trkpt lat="43.163" lon="1.10325">
        <ele>367.29003906</ele>
        <time>2021-10-17T07:46:28Z</time>
      </trkpt>
      <trkpt lat="43.16298" lon="1.10325">
        <ele>367.72003174</ele>
        <time>2021-10-17T07:46:29Z</time>
      </trkpt>
      <trkpt lat="43.16296" lon="1.10325">
        <ele>368.02001953</ele>
        <time>2021-10-17T07:46:30Z</time>
      </trkpt>
      <trkpt lat="43.16295" lon="1.10325">
        <ele>368.39001465</ele>
        <time>2021-10-17T07:46:31Z</time>
      </trkpt>
      <trkpt lat="43.16294" lon="1.10326">
        <ele>368.79000854</ele>
        <time>2021-10-17T07:46:32Z</time>
      </trkpt>
      <trkpt lat="43.16292" lon="1.10324">
        <ele>369.11999512</ele>
        <time>2021-10-17T07:46:33Z</time>
      </trkpt>
      <trkpt lat="43.1629" lon="1.10324">
        <ele>369.5</ele>
        <time>2021-10-17T07:46:34Z</time>
      </trkpt>
      <trkpt lat="43.16289" lon="1.10323">
        <ele>369.69000244</ele>
        <time>2021-10-17T07:46:35Z</time>
      </trkpt>
      <trkpt lat="43.16287" lon="1.10321">
        <ele>369.88000488</ele>
        <time>2021-10-17T07:46:36Z</time>
      </trkpt>
      <trkpt lat="43.16287" lon="1.10319">
        <ele>370.1000061</ele>
        <time>2021-10-17T07:46:37Z</time>
      </trkpt>
      <trkpt lat="43.16287" lon="1.10317">
        <ele>370.30999756</ele>
        <time>2021-10-17T07:46:38Z</time>
      </trkpt>
      <trkpt lat="43.16288" lon="1.10317">
        <ele>370.54000854</ele>
        <time>2021-10-17T07:46:39Z</time>
      </trkpt>
      <trkpt lat="43.16289" lon="1.10317">
        <ele>370.91000366</ele>
        <time>2021-10-17T07:46:40Z</time>
      </trkpt>
      <trkpt lat="43.16289" lon="1.10316">
        <ele>370.91000366</ele>
        <time>2021-10-17T07:46:41Z</time>
      </trkpt>
      <trkpt lat="43.16288" lon="1.10317">
        <ele>371.02999878</ele>
        <time>2021-10-17T07:46:42Z</time>
      </trkpt>
      <trkpt lat="43.16287" lon="1.10317">
        <ele>371.19000244</ele>
        <time>2021-10-17T07:46:43Z</time>
      </trkpt>
      <trkpt lat="43.1629" lon="1.10322">
        <ele>371.63000488</ele>
        <time>2021-10-17T07:48:29Z</time>
      </trkpt>
      <trkpt lat="43.16293" lon="1.10318">
        <ele>371.6000061</ele>
        <time>2021-10-17T07:48:30Z</time>
      </trkpt>
      <trkpt lat="43.16295" lon="1.10316">
        <ele>371.61999512</ele>
        <time>2021-10-17T07:48:31Z</time>
      </trkpt>
      <trkpt lat="43.16297" lon="1.10315">
        <ele>371.75</ele>
        <time>2021-10-17T07:48:32Z</time>
      </trkpt>
      <trkpt lat="43.16299" lon="1.10312">
        <ele>372.04000854</ele>
        <time>2021-10-17T07:48:33Z</time>
      </trkpt>
      <trkpt lat="43.16301" lon="1.1031">
        <ele>372.48001099</ele>
        <time>2021-10-17T07:48:34Z</time>
      </trkpt>
      <trkpt lat="43.16304" lon="1.10308">
        <ele>372.98001099</ele>
        <time>2021-10-17T07:48:35Z</time>
      </trkpt>
      <trkpt lat="43.16305" lon="1.10306">
        <ele>373.55001831</ele>
        <time>2021-10-17T07:48:36Z</time>
      </trkpt>
      <trkpt lat="43.16307" lon="1.10305">
        <ele>373.99002075</ele>
        <time>2021-10-17T07:48:37Z</time>
      </trkpt>
      <trkpt lat="43.16308" lon="1.10304">
        <ele>374.37002563</ele>
        <time>2021-10-17T07:48:38Z</time>
      </trkpt>
      <trkpt lat="43.16311" lon="1.10302">
        <ele>374.75003052</ele>
        <time>2021-10-17T07:48:39Z</time>
      </trkpt>
      <trkpt lat="43.16313" lon="1.10301">
        <ele>375.09002686</ele>
        <time>2021-10-17T07:48:40Z</time>
      </trkpt>
      <trkpt lat="43.16315" lon="1.10299">
        <ele>375.45001221</ele>
        <time>2021-10-17T07:48:41Z</time>
      </trkpt>
      <trkpt lat="43.16316" lon="1.10297">
        <ele>375.76000977</ele>
        <time>2021-10-17T07:48:42Z</time>
      </trkpt>
      <trkpt lat="43.16318" lon="1.10296">
        <ele>375.98001099</ele>
        <time>2021-10-17T07:48:43Z</time>
      </trkpt>
      <trkpt lat="43.1632" lon="1.10294">
        <ele>376.14001465</ele>
        <time>2021-10-17T07:48:44Z</time>
      </trkpt>
      <trkpt lat="43.16321" lon="1.10293">
        <ele>376.42001343</ele>
        <time>2021-10-17T07:48:45Z</time>
      </trkpt>
      <trkpt lat="43.16322" lon="1.10293">
        <ele>376.71002197</ele>
        <time>2021-10-17T07:48:46Z</time>
      </trkpt>
      <trkpt lat="43.16323" lon="1.10292">
        <ele>377.02001953</ele>
        <time>2021-10-17T07:48:47Z</time>
      </trkpt>
      <trkpt lat="43.16325" lon="1.10291">
        <ele>377.3500061</ele>
        <time>2021-10-17T07:48:48Z</time>
      </trkpt>
      <trkpt lat="43.16326" lon="1.10291">
        <ele>377.57000732</ele>
        <time>2021-10-17T07:48:49Z</time>
      </trkpt>
      <trkpt lat="43.16328" lon="1.1029">
        <ele>377.80999756</ele>
        <time>2021-10-17T07:48:50Z</time>
      </trkpt>
      <trkpt lat="43.16329" lon="1.10288">
        <ele>378.07998657</ele>
        <time>2021-10-17T07:48:51Z</time>
      </trkpt>
      <trkpt lat="43.16331" lon="1.10286">
        <ele>378.37997437</ele>
        <time>2021-10-17T07:48:52Z</time>
      </trkpt>
      <trkpt lat="43.16333" lon="1.10285">
        <ele>378.60998535</ele>
        <time>2021-10-17T07:48:53Z</time>
      </trkpt>
      <trkpt lat="43.16334" lon="1.10285">
        <ele>378.86999512</ele>
        <time>2021-10-17T07:48:54Z</time>
      </trkpt>
      <trkpt lat="43.16336" lon="1.10285">
        <ele>379.04998779</ele>
        <time>2021-10-17T07:48:55Z</time>
      </trkpt>
      <trkpt lat="43.16337" lon="1.10285">
        <ele>379.11999512</ele>
        <time>2021-10-17T07:48:56Z</time>
      </trkpt>
      <trkpt lat="43.16339" lon="1.10285">
        <ele>379.13998413</ele>
        <time>2021-10-17T07:48:57Z</time>
      </trkpt>
      <trkpt lat="43.16341" lon="1.10286">
        <ele>379.12997437</ele>
        <time>2021-10-17T07:48:58Z</time>
      </trkpt>
      <trkpt lat="43.16342" lon="1.10284">
        <ele>379.12997437</ele>
        <time>2021-10-17T07:48:59Z</time>
      </trkpt>
      <trkpt lat="43.16344" lon="1.10284">
        <ele>379.13998413</ele>
        <time>2021-10-17T07:49:00Z</time>
      </trkpt>
      <trkpt lat="43.16347" lon="1.10283">
        <ele>379.1499939</ele>
        <time>2021-10-17T07:49:01Z</time>
      </trkpt>
      <trkpt lat="43.16349" lon="1.10282">
        <ele>379.16998291</ele>
        <time>2021-10-17T07:49:02Z</time>
      </trkpt>
      <trkpt lat="43.1635" lon="1.10281">
        <ele>379.3999939</ele>
        <time>2021-10-17T07:49:03Z</time>
      </trkpt>
      <trkpt lat="43.16351" lon="1.1028">
        <ele>379.66000366</ele>
        <time>2021-10-17T07:49:04Z</time>
      </trkpt>
      <trkpt lat="43.16352" lon="1.10281">
        <ele>379.8999939</ele>
        <time>2021-10-17T07:49:05Z</time>
      </trkpt>
      <trkpt lat="43.16353" lon="1.10283">
        <ele>379.95999146</ele>
        <time>2021-10-17T07:49:06Z</time>
      </trkpt>
      <trkpt lat="43.16354" lon="1.10284">
        <ele>379.66998291</ele>
        <time>2021-10-17T07:49:07Z</time>
      </trkpt>
      <trkpt lat="43.16354" lon="1.10286">
        <ele>379.20999146</ele>
        <time>2021-10-17T07:49:08Z</time>
      </trkpt>
      <trkpt lat="43.16355" lon="1.10287">
        <ele>378.55999756</ele>
        <time>2021-10-17T07:49:09Z</time>
      </trkpt>
      <trkpt lat="43.16357" lon="1.10292">
        <ele>377.80999756</ele>
        <time>2021-10-17T07:49:10Z</time>
      </trkpt>
      <trkpt lat="43.16358" lon="1.10295">
        <ele>376.85998535</ele>
        <time>2021-10-17T07:49:11Z</time>
      </trkpt>
      <trkpt lat="43.16359" lon="1.10297">
        <ele>375.77999878</ele>
        <time>2021-10-17T07:49:12Z</time>
      </trkpt>
      <trkpt lat="43.1636" lon="1.10299">
        <ele>374.63000488</ele>
        <time>2021-10-17T07:49:13Z</time>
      </trkpt>
      <trkpt lat="43.16361" lon="1.10301">
        <ele>373.42999268</ele>
        <time>2021-10-17T07:49:14Z</time>
      </trkpt>
      <trkpt lat="43.16363" lon="1.10303">
        <ele>372.23999023</ele>
        <time>2021-10-17T07:49:15Z</time>
      </trkpt>
      <trkpt lat="43.16364" lon="1.10304">
        <ele>371.16000366</ele>
        <time>2021-10-17T07:49:16Z</time>
      </trkpt>
      <trkpt lat="43.16365" lon="1.10306">
        <ele>370.1000061</ele>
        <time>2021-10-17T07:49:17Z</time>
      </trkpt>
      <trkpt lat="43.16366" lon="1.10305">
        <ele>369.38000488</ele>
        <time>2021-10-17T07:49:18Z</time>
      </trkpt>
      <trkpt lat="43.16369" lon="1.10306">
        <ele>368.72000122</ele>
        <time>2021-10-17T07:49:19Z</time>
      </trkpt>
      <trkpt lat="43.1637" lon="1.10307">
        <ele>368.16000366</ele>
        <time>2021-10-17T07:49:20Z</time>
      </trkpt>
      <trkpt lat="43.16371" lon="1.10307">
        <ele>367.91000366</ele>
        <time>2021-10-17T07:49:21Z</time>
      </trkpt>
      <trkpt lat="43.16372" lon="1.10306">
        <ele>367.3500061</ele>
        <time>2021-10-17T07:49:22Z</time>
      </trkpt>
      <trkpt lat="43.16376" lon="1.10303">
        <ele>367.08999634</ele>
        <time>2021-10-17T07:49:23Z</time>
      </trkpt>
      <trkpt lat="43.1638" lon="1.10298">
        <ele>366.79998779</ele>
        <time>2021-10-17T07:49:24Z</time>
      </trkpt>
      <trkpt lat="43.16383" lon="1.10296">
        <ele>366.59997559</ele>
        <time>2021-10-17T07:49:25Z</time>
      </trkpt>
      <trkpt lat="43.16385" lon="1.10293">
        <ele>366.62997437</ele>
        <time>2021-10-17T07:49:26Z</time>
      </trkpt>
      <trkpt lat="43.16387" lon="1.10292">
        <ele>366.72998047</ele>
        <time>2021-10-17T07:49:27Z</time>
      </trkpt>
      <trkpt lat="43.16389" lon="1.10287">
        <ele>367.01998901</ele>
        <time>2021-10-17T07:49:28Z</time>
      </trkpt>
      <trkpt lat="43.16392" lon="1.10284">
        <ele>367.13998413</ele>
        <time>2021-10-17T07:49:29Z</time>
      </trkpt>
      <trkpt lat="43.16393" lon="1.10282">
        <ele>367.22998047</ele>
        <time>2021-10-17T07:49:30Z</time>
      </trkpt>
      <trkpt lat="43.16395" lon="1.10281">
        <ele>367.33996582</ele>
        <time>2021-10-17T07:49:31Z</time>
      </trkpt>
      <trkpt lat="43.16396" lon="1.10278">
        <ele>367.33996582</ele>
        <time>2021-10-17T07:49:32Z</time>
      </trkpt>
      <trkpt lat="43.16399" lon="1.10273">
        <ele>367.45996094</ele>
        <time>2021-10-17T07:49:33Z</time>
      </trkpt>
      <trkpt lat="43.16402" lon="1.1027">
        <ele>367.66995239</ele>
        <time>2021-10-17T07:49:34Z</time>
      </trkpt>
      <trkpt lat="43.16404" lon="1.10268">
        <ele>367.78994751</ele>
        <time>2021-10-17T07:49:35Z</time>
      </trkpt>
      <trkpt lat="43.16407" lon="1.10267">
        <ele>367.97994995</ele>
        <time>2021-10-17T07:49:36Z</time>
      </trkpt>
      <trkpt lat="43.16409" lon="1.10265">
        <ele>368.07995605</ele>
        <time>2021-10-17T07:49:37Z</time>
      </trkpt>
      <trkpt lat="43.16411" lon="1.10262">
        <ele>368.15994263</ele>
        <time>2021-10-17T07:49:38Z</time>
      </trkpt>
      <trkpt lat="43.16413" lon="1.1026">
        <ele>368.29995728</ele>
        <time>2021-10-17T07:49:39Z</time>
      </trkpt>
      <trkpt lat="43.16416" lon="1.10259">
        <ele>368.47994995</ele>
        <time>2021-10-17T07:49:40Z</time>
      </trkpt>
      <trkpt lat="43.16418" lon="1.10258">
        <ele>368.72994995</ele>
        <time>2021-10-17T07:49:41Z</time>
      </trkpt>
      <trkpt lat="43.16422" lon="1.10256">
        <ele>368.98995972</ele>
        <time>2021-10-17T07:49:42Z</time>
      </trkpt>
      <trkpt lat="43.16424" lon="1.10255">
        <ele>369.20996094</ele>
        <time>2021-10-17T07:49:43Z</time>
      </trkpt>
      <trkpt lat="43.16427" lon="1.10254">
        <ele>369.41995239</ele>
        <time>2021-10-17T07:49:44Z</time>
      </trkpt>
      <trkpt lat="43.16429" lon="1.10253">
        <ele>369.54995728</ele>
        <time>2021-10-17T07:49:45Z</time>
      </trkpt>
      <trkpt lat="43.16432" lon="1.10252">
        <ele>369.63995361</ele>
        <time>2021-10-17T07:49:46Z</time>
      </trkpt>
      <trkpt lat="43.16435" lon="1.1025">
        <ele>369.72994995</ele>
        <time>2021-10-17T07:49:47Z</time>
      </trkpt>
      <trkpt lat="43.16436" lon="1.10249">
        <ele>369.77993774</ele>
        <time>2021-10-17T07:49:48Z</time>
      </trkpt>
      <trkpt lat="43.16438" lon="1.10247">
        <ele>369.89993286</ele>
        <time>2021-10-17T07:49:49Z</time>
      </trkpt>
      <trkpt lat="43.1644" lon="1.10245">
        <ele>369.9899292</ele>
        <time>2021-10-17T07:49:50Z</time>
      </trkpt>
      <trkpt lat="43.16443" lon="1.10242">
        <ele>370.1399231</ele>
        <time>2021-10-17T07:49:51Z</time>
      </trkpt>
      <trkpt lat="43.16444" lon="1.10239">
        <ele>370.29992676</ele>
        <time>2021-10-17T07:49:52Z</time>
      </trkpt>
      <trkpt lat="43.16448" lon="1.10239">
        <ele>370.41992188</ele>
        <time>2021-10-17T07:49:53Z</time>
      </trkpt>
      <trkpt lat="43.1645" lon="1.10238">
        <ele>370.59991455</ele>
        <time>2021-10-17T07:49:54Z</time>
      </trkpt>
      <trkpt lat="43.16452" lon="1.10236">
        <ele>370.7399292</ele>
        <time>2021-10-17T07:49:55Z</time>
      </trkpt>
      <trkpt lat="43.16454" lon="1.10235">
        <ele>370.8899231</ele>
        <time>2021-10-17T07:49:56Z</time>
      </trkpt>
      <trkpt lat="43.16455" lon="1.10233">
        <ele>371.10992432</ele>
        <time>2021-10-17T07:49:57Z</time>
      </trkpt>
      <trkpt lat="43.16456" lon="1.10231">
        <ele>371.3399353</ele>
        <time>2021-10-17T07:49:58Z</time>
      </trkpt>
      <trkpt lat="43.16458" lon="1.10229">
        <ele>371.52993774</ele>
        <time>2021-10-17T07:49:59Z</time>
      </trkpt>
      <trkpt lat="43.16461" lon="1.10227">
        <ele>371.74993896</ele>
        <time>2021-10-17T07:50:00Z</time>
      </trkpt>
      <trkpt lat="43.16462" lon="1.10226">
        <ele>371.96994019</ele>
        <time>2021-10-17T07:50:01Z</time>
      </trkpt>
      <trkpt lat="43.16464" lon="1.10224">
        <ele>372.12994385</ele>
        <time>2021-10-17T07:50:02Z</time>
      </trkpt>
      <trkpt lat="43.16465" lon="1.10224">
        <ele>372.32995605</ele>
        <time>2021-10-17T07:50:03Z</time>
      </trkpt>
      <trkpt lat="43.16467" lon="1.10222">
        <ele>372.53994751</ele>
        <time>2021-10-17T07:50:04Z</time>
      </trkpt>
      <trkpt lat="43.16468" lon="1.10221">
        <ele>372.68994141</ele>
        <time>2021-10-17T07:50:05Z</time>
      </trkpt>
      <trkpt lat="43.16469" lon="1.1022">
        <ele>372.88995361</ele>
        <time>2021-10-17T07:50:06Z</time>
      </trkpt>
      <trkpt lat="43.16471" lon="1.10219">
        <ele>373.16995239</ele>
        <time>2021-10-17T07:50:07Z</time>
      </trkpt>
      <trkpt lat="43.16472" lon="1.10217">
        <ele>373.16995239</ele>
        <time>2021-10-17T07:50:08Z</time>
      </trkpt>
      <trkpt lat="43.16474" lon="1.10215">
        <ele>373.30996704</ele>
        <time>2021-10-17T07:50:09Z</time>
      </trkpt>
      <trkpt lat="43.16476" lon="1.10214">
        <ele>373.30996704</ele>
        <time>2021-10-17T07:50:10Z</time>
      </trkpt>
      <trkpt lat="43.16478" lon="1.10212">
        <ele>373.23995972</ele>
        <time>2021-10-17T07:50:11Z</time>
      </trkpt>
      <trkpt lat="43.1648" lon="1.1021">
        <ele>373.19995117</ele>
        <time>2021-10-17T07:50:12Z</time>
      </trkpt>
      <trkpt lat="43.16483" lon="1.10209">
        <ele>373.12994385</ele>
        <time>2021-10-17T07:50:13Z</time>
      </trkpt>
      <trkpt lat="43.16486" lon="1.1021">
        <ele>373.07995605</ele>
        <time>2021-10-17T07:50:14Z</time>
      </trkpt>
      <trkpt lat="43.16487" lon="1.10212">
        <ele>373.07995605</ele>
        <time>2021-10-17T07:50:15Z</time>
      </trkpt>
      <trkpt lat="43.16488" lon="1.10214">
        <ele>372.95996094</ele>
        <time>2021-10-17T07:50:16Z</time>
      </trkpt>
      <trkpt lat="43.16488" lon="1.10217">
        <ele>372.62997437</ele>
        <time>2021-10-17T07:50:17Z</time>
      </trkpt>
      <trkpt lat="43.16489" lon="1.10222">
        <ele>372.05996704</ele>
        <time>2021-10-17T07:50:18Z</time>
      </trkpt>
      <trkpt lat="43.1649" lon="1.10225">
        <ele>371.24996948</ele>
        <time>2021-10-17T07:50:19Z</time>
      </trkpt>
      <trkpt lat="43.1649" lon="1.10228">
        <ele>370.30996704</ele>
        <time>2021-10-17T07:50:20Z</time>
      </trkpt>
      <trkpt lat="43.16491" lon="1.10231">
        <ele>369.27996826</ele>
        <time>2021-10-17T07:50:21Z</time>
      </trkpt>
      <trkpt lat="43.16495" lon="1.10234">
        <ele>368.3699646</ele>
        <time>2021-10-17T07:50:22Z</time>
      </trkpt>
      <trkpt lat="43.16497" lon="1.10235">
        <ele>367.52996826</ele>
        <time>2021-10-17T07:50:23Z</time>
      </trkpt>
      <trkpt lat="43.16498" lon="1.10234">
        <ele>366.79995728</ele>
        <time>2021-10-17T07:50:24Z</time>
      </trkpt>
      <trkpt lat="43.165" lon="1.10233">
        <ele>366.29995728</ele>
        <time>2021-10-17T07:50:25Z</time>
      </trkpt>
      <trkpt lat="43.16502" lon="1.10232">
        <ele>365.93997192</ele>
        <time>2021-10-17T07:50:26Z</time>
      </trkpt>
      <trkpt lat="43.16504" lon="1.10229">
        <ele>365.75997925</ele>
        <time>2021-10-17T07:50:27Z</time>
      </trkpt>
      <trkpt lat="43.16506" lon="1.10227">
        <ele>365.75997925</ele>
        <time>2021-10-17T07:50:28Z</time>
      </trkpt>
      <trkpt lat="43.16508" lon="1.10224">
        <ele>365.73999023</ele>
        <time>2021-10-17T07:50:29Z</time>
      </trkpt>
      <trkpt lat="43.16509" lon="1.10223">
        <ele>365.75</ele>
        <time>2021-10-17T07:50:30Z</time>
      </trkpt>
      <trkpt lat="43.16511" lon="1.10221">
        <ele>365.79000854</ele>
        <time>2021-10-17T07:50:31Z</time>
      </trkpt>
      <trkpt lat="43.16513" lon="1.10219">
        <ele>365.83001709</ele>
        <time>2021-10-17T07:50:32Z</time>
      </trkpt>
      <trkpt lat="43.16516" lon="1.10217">
        <ele>365.99002075</ele>
        <time>2021-10-17T07:50:33Z</time>
      </trkpt>
      <trkpt lat="43.16518" lon="1.10215">
        <ele>366.15002441</ele>
        <time>2021-10-17T07:50:34Z</time>
      </trkpt>
      <trkpt lat="43.16521" lon="1.10213">
        <ele>366.45001221</ele>
        <time>2021-10-17T07:50:35Z</time>
      </trkpt>
      <trkpt lat="43.16524" lon="1.1021">
        <ele>366.73001099</ele>
        <time>2021-10-17T07:50:36Z</time>
      </trkpt>
      <trkpt lat="43.16525" lon="1.10207">
        <ele>366.94000244</ele>
        <time>2021-10-17T07:50:37Z</time>
      </trkpt>
      <trkpt lat="43.16526" lon="1.10205">
        <ele>367.16000366</ele>
        <time>2021-10-17T07:50:38Z</time>
      </trkpt>
      <trkpt lat="43.16527" lon="1.10202">
        <ele>367.42001343</ele>
        <time>2021-10-17T07:50:39Z</time>
      </trkpt>
      <trkpt lat="43.16529" lon="1.10199">
        <ele>367.67001343</ele>
        <time>2021-10-17T07:50:40Z</time>
      </trkpt>
      <trkpt lat="43.1653" lon="1.10196">
        <ele>368.02999878</ele>
        <time>2021-10-17T07:50:41Z</time>
      </trkpt>
      <trkpt lat="43.1653" lon="1.10195">
        <ele>368.47000122</ele>
        <time>2021-10-17T07:50:42Z</time>
      </trkpt>
      <trkpt lat="43.16531" lon="1.10193">
        <ele>368.76000977</ele>
        <time>2021-10-17T07:50:43Z</time>
      </trkpt>
      <trkpt lat="43.16532" lon="1.1019">
        <ele>369.02001953</ele>
        <time>2021-10-17T07:50:44Z</time>
      </trkpt>
      <trkpt lat="43.16534" lon="1.10186">
        <ele>369.23001099</ele>
        <time>2021-10-17T07:50:45Z</time>
      </trkpt>
      <trkpt lat="43.16535" lon="1.10184">
        <ele>369.39001465</ele>
        <time>2021-10-17T07:50:46Z</time>
      </trkpt>
      <trkpt lat="43.16535" lon="1.10182">
        <ele>369.61001587</ele>
        <time>2021-10-17T07:50:47Z</time>
      </trkpt>
      <trkpt lat="43.16536" lon="1.1018">
        <ele>369.84002686</ele>
        <time>2021-10-17T07:50:48Z</time>
      </trkpt>
      <trkpt lat="43.16538" lon="1.10178">
        <ele>370.07003784</ele>
        <time>2021-10-17T07:50:49Z</time>
      </trkpt>
      <trkpt lat="43.16539" lon="1.10176">
        <ele>370.31002808</ele>
        <time>2021-10-17T07:50:50Z</time>
      </trkpt>
      <trkpt lat="43.16541" lon="1.10175">
        <ele>370.47003174</ele>
        <time>2021-10-17T07:50:51Z</time>
      </trkpt>
      <trkpt lat="43.16542" lon="1.10172">
        <ele>370.56002808</ele>
        <time>2021-10-17T07:50:52Z</time>
      </trkpt>
      <trkpt lat="43.16544" lon="1.1017">
        <ele>370.65002441</ele>
        <time>2021-10-17T07:50:53Z</time>
      </trkpt>
      <trkpt lat="43.16547" lon="1.10167">
        <ele>370.69003296</ele>
        <time>2021-10-17T07:50:54Z</time>
      </trkpt>
      <trkpt lat="43.16548" lon="1.10165">
        <ele>370.70004272</ele>
        <time>2021-10-17T07:50:55Z</time>
      </trkpt>
      <trkpt lat="43.1655" lon="1.10163">
        <ele>370.80004883</ele>
        <time>2021-10-17T07:50:56Z</time>
      </trkpt>
      <trkpt lat="43.16552" lon="1.10161">
        <ele>370.8800354</ele>
        <time>2021-10-17T07:50:57Z</time>
      </trkpt>
      <trkpt lat="43.16554" lon="1.10159">
        <ele>370.93002319</ele>
        <time>2021-10-17T07:50:58Z</time>
      </trkpt>
      <trkpt lat="43.16556" lon="1.10157">
        <ele>370.92001343</ele>
        <time>2021-10-17T07:50:59Z</time>
      </trkpt>
      <trkpt lat="43.16558" lon="1.10155">
        <ele>370.90002441</ele>
        <time>2021-10-17T07:51:00Z</time>
      </trkpt>
      <trkpt lat="43.1656" lon="1.10155">
        <ele>370.76000977</ele>
        <time>2021-10-17T07:51:01Z</time>
      </trkpt>
      <trkpt lat="43.16562" lon="1.10154">
        <ele>370.57000732</ele>
        <time>2021-10-17T07:51:02Z</time>
      </trkpt>
      <trkpt lat="43.16567" lon="1.10154">
        <ele>370.41000366</ele>
        <time>2021-10-17T07:51:03Z</time>
      </trkpt>
      <trkpt lat="43.16571" lon="1.10153">
        <ele>370.11001587</ele>
        <time>2021-10-17T07:51:04Z</time>
      </trkpt>
      <trkpt lat="43.16576" lon="1.10153">
        <ele>369.7800293</ele>
        <time>2021-10-17T07:51:05Z</time>
      </trkpt>
      <trkpt lat="43.16581" lon="1.10152">
        <ele>369.33001709</ele>
        <time>2021-10-17T07:51:06Z</time>
      </trkpt>
      <trkpt lat="43.16585" lon="1.10151">
        <ele>368.81002808</ele>
        <time>2021-10-17T07:51:07Z</time>
      </trkpt>
      <trkpt lat="43.16591" lon="1.1015">
        <ele>368.42001343</ele>
        <time>2021-10-17T07:51:08Z</time>
      </trkpt>
      <trkpt lat="43.16593" lon="1.10151">
        <ele>368.1000061</ele>
        <time>2021-10-17T07:51:09Z</time>
      </trkpt>
      <trkpt lat="43.16596" lon="1.10151">
        <ele>367.99002075</ele>
        <time>2021-10-17T07:51:10Z</time>
      </trkpt>
      <trkpt lat="43.166" lon="1.1015">
        <ele>368.04000854</ele>
        <time>2021-10-17T07:51:11Z</time>
      </trkpt>
      <trkpt lat="43.16606" lon="1.1015">
        <ele>368.14001465</ele>
        <time>2021-10-17T07:51:12Z</time>
      </trkpt>
      <trkpt lat="43.16609" lon="1.1015">
        <ele>368.34002686</ele>
        <time>2021-10-17T07:51:13Z</time>
      </trkpt>
      <trkpt lat="43.16612" lon="1.10149">
        <ele>368.50003052</ele>
        <time>2021-10-17T07:51:14Z</time>
      </trkpt>
      <trkpt lat="43.16614" lon="1.10148">
        <ele>368.68002319</ele>
        <time>2021-10-17T07:51:15Z</time>
      </trkpt>
      <trkpt lat="43.16616" lon="1.10144">
        <ele>368.8800354</ele>
        <time>2021-10-17T07:51:16Z</time>
      </trkpt>
      <trkpt lat="43.16617" lon="1.1014">
        <ele>369.08004761</ele>
        <time>2021-10-17T07:51:17Z</time>
      </trkpt>
      <trkpt lat="43.16618" lon="1.10137">
        <ele>369.41003418</ele>
        <time>2021-10-17T07:51:18Z</time>
      </trkpt>
      <trkpt lat="43.16619" lon="1.10134">
        <ele>369.70004272</ele>
        <time>2021-10-17T07:51:19Z</time>
      </trkpt>
      <trkpt lat="43.16619" lon="1.10131">
        <ele>369.93005371</ele>
        <time>2021-10-17T07:51:20Z</time>
      </trkpt>
      <trkpt lat="43.1662" lon="1.10125">
        <ele>370.11004639</ele>
        <time>2021-10-17T07:51:21Z</time>
      </trkpt>
      <trkpt lat="43.1662" lon="1.10122">
        <ele>370.30004883</ele>
        <time>2021-10-17T07:51:22Z</time>
      </trkpt>
      <trkpt lat="43.16621" lon="1.10118">
        <ele>370.41003418</ele>
        <time>2021-10-17T07:51:23Z</time>
      </trkpt>
      <trkpt lat="43.16621" lon="1.10114">
        <ele>370.51004028</ele>
        <time>2021-10-17T07:51:24Z</time>
      </trkpt>
      <trkpt lat="43.16622" lon="1.10108">
        <ele>370.67004395</ele>
        <time>2021-10-17T07:51:25Z</time>
      </trkpt>
      <trkpt lat="43.16623" lon="1.10103">
        <ele>370.67004395</ele>
        <time>2021-10-17T07:51:26Z</time>
      </trkpt>
      <trkpt lat="43.16623" lon="1.10099">
        <ele>370.67004395</ele>
        <time>2021-10-17T07:51:27Z</time>
      </trkpt>
      <trkpt lat="43.16624" lon="1.10095">
        <ele>370.64004517</ele>
        <time>2021-10-17T07:51:28Z</time>
      </trkpt>
      <trkpt lat="43.16625" lon="1.1009">
        <ele>370.55004883</ele>
        <time>2021-10-17T07:51:29Z</time>
      </trkpt>
      <trkpt lat="43.16626" lon="1.10084">
        <ele>370.46005249</ele>
        <time>2021-10-17T07:51:30Z</time>
      </trkpt>
      <trkpt lat="43.16626" lon="1.1008">
        <ele>370.38006592</ele>
        <time>2021-10-17T07:51:31Z</time>
      </trkpt>
      <trkpt lat="43.16626" lon="1.10075">
        <ele>370.29006958</ele>
        <time>2021-10-17T07:51:32Z</time>
      </trkpt>
      <trkpt lat="43.16627" lon="1.1007">
        <ele>370.1600647</ele>
        <time>2021-10-17T07:51:33Z</time>
      </trkpt>
      <trkpt lat="43.16628" lon="1.10063">
        <ele>369.96005249</ele>
        <time>2021-10-17T07:51:34Z</time>
      </trkpt>
      <trkpt lat="43.16629" lon="1.10058">
        <ele>369.65005493</ele>
        <time>2021-10-17T07:51:35Z</time>
      </trkpt>
      <trkpt lat="43.16629" lon="1.10052">
        <ele>369.34005737</ele>
        <time>2021-10-17T07:51:36Z</time>
      </trkpt>
      <trkpt lat="43.16631" lon="1.10046">
        <ele>368.94006348</ele>
        <time>2021-10-17T07:51:37Z</time>
      </trkpt>
      <trkpt lat="43.16632" lon="1.10039">
        <ele>368.57006836</ele>
        <time>2021-10-17T07:51:38Z</time>
      </trkpt>
      <trkpt lat="43.16634" lon="1.1003">
        <ele>368.05007935</ele>
        <time>2021-10-17T07:51:39Z</time>
      </trkpt>
      <trkpt lat="43.16636" lon="1.10024">
        <ele>367.54006958</ele>
        <time>2021-10-17T07:51:40Z</time>
      </trkpt>
      <trkpt lat="43.16638" lon="1.10018">
        <ele>366.98007202</ele>
        <time>2021-10-17T07:51:41Z</time>
      </trkpt>
      <trkpt lat="43.1664" lon="1.10012">
        <ele>366.4100647</ele>
        <time>2021-10-17T07:51:42Z</time>
      </trkpt>
      <trkpt lat="43.16643" lon="1.10004">
        <ele>366.00006104</ele>
        <time>2021-10-17T07:51:43Z</time>
      </trkpt>
      <trkpt lat="43.16644" lon="1.09998">
        <ele>365.54006958</ele>
        <time>2021-10-17T07:51:44Z</time>
      </trkpt>
      <trkpt lat="43.16645" lon="1.09992">
        <ele>365.06005859</ele>
        <time>2021-10-17T07:51:45Z</time>
      </trkpt>
      <trkpt lat="43.16647" lon="1.09987">
        <ele>364.54006958</ele>
        <time>2021-10-17T07:51:46Z</time>
      </trkpt>
      <trkpt lat="43.16648" lon="1.09982">
        <ele>363.95007324</ele>
        <time>2021-10-17T07:51:47Z</time>
      </trkpt>
      <trkpt lat="43.16651" lon="1.09975">
        <ele>363.44006348</ele>
        <time>2021-10-17T07:51:48Z</time>
      </trkpt>
      <trkpt lat="43.16654" lon="1.09971">
        <ele>363.09005737</ele>
        <time>2021-10-17T07:51:49Z</time>
      </trkpt>
      <trkpt lat="43.16657" lon="1.09967">
        <ele>362.6600647</ele>
        <time>2021-10-17T07:51:50Z</time>
      </trkpt>
      <trkpt lat="43.16661" lon="1.09964">
        <ele>362.31005859</ele>
        <time>2021-10-17T07:51:51Z</time>
      </trkpt>
      <trkpt lat="43.16664" lon="1.09961">
        <ele>361.80004883</ele>
        <time>2021-10-17T07:51:52Z</time>
      </trkpt>
      <trkpt lat="43.16669" lon="1.09954">
        <ele>361.34005737</ele>
        <time>2021-10-17T07:51:53Z</time>
      </trkpt>
      <trkpt lat="43.16673" lon="1.0995">
        <ele>361.08004761</ele>
        <time>2021-10-17T07:51:54Z</time>
      </trkpt>
      <trkpt lat="43.16678" lon="1.09946">
        <ele>360.69003296</ele>
        <time>2021-10-17T07:51:55Z</time>
      </trkpt>
      <trkpt lat="43.16682" lon="1.09942">
        <ele>360.44003296</ele>
        <time>2021-10-17T07:51:56Z</time>
      </trkpt>
      <trkpt lat="43.16688" lon="1.09935">
        <ele>359.99002075</ele>
        <time>2021-10-17T07:51:57Z</time>
      </trkpt>
      <trkpt lat="43.16691" lon="1.0993">
        <ele>359.33001709</ele>
        <time>2021-10-17T07:51:58Z</time>
      </trkpt>
      <trkpt lat="43.16694" lon="1.09926">
        <ele>359.00003052</ele>
        <time>2021-10-17T07:51:59Z</time>
      </trkpt>
      <trkpt lat="43.16698" lon="1.09921">
        <ele>358.42004395</ele>
        <time>2021-10-17T07:52:00Z</time>
      </trkpt>
      <trkpt lat="43.16701" lon="1.09915">
        <ele>357.91003418</ele>
        <time>2021-10-17T07:52:01Z</time>
      </trkpt>
      <trkpt lat="43.16704" lon="1.09911">
        <ele>357.42004395</ele>
        <time>2021-10-17T07:52:02Z</time>
      </trkpt>
      <trkpt lat="43.16706" lon="1.09909">
        <ele>356.70004272</ele>
        <time>2021-10-17T07:52:03Z</time>
      </trkpt>
      <trkpt lat="43.16708" lon="1.09907">
        <ele>356.37005615</ele>
        <time>2021-10-17T07:52:04Z</time>
      </trkpt>
      <trkpt lat="43.1671" lon="1.09904">
        <ele>356.09005737</ele>
        <time>2021-10-17T07:52:05Z</time>
      </trkpt>
      <trkpt lat="43.16712" lon="1.09901">
        <ele>355.99005127</ele>
        <time>2021-10-17T07:52:06Z</time>
      </trkpt>
      <trkpt lat="43.16712" lon="1.09897">
        <ele>355.83004761</ele>
        <time>2021-10-17T07:52:07Z</time>
      </trkpt>
      <trkpt lat="43.16712" lon="1.09894">
        <ele>355.39004517</ele>
        <time>2021-10-17T07:52:08Z</time>
      </trkpt>
      <trkpt lat="43.16712" lon="1.09891">
        <ele>354.95004272</ele>
        <time>2021-10-17T07:52:09Z</time>
      </trkpt>
      <trkpt lat="43.16714" lon="1.09887">
        <ele>354.45004272</ele>
        <time>2021-10-17T07:52:10Z</time>
      </trkpt>
      <trkpt lat="43.16716" lon="1.09885">
        <ele>354.00003052</ele>
        <time>2021-10-17T07:52:11Z</time>
      </trkpt>
      <trkpt lat="43.16718" lon="1.09883">
        <ele>353.66003418</ele>
        <time>2021-10-17T07:52:12Z</time>
      </trkpt>
      <trkpt lat="43.16721" lon="1.09881">
        <ele>353.32003784</ele>
        <time>2021-10-17T07:52:13Z</time>
      </trkpt>
      <trkpt lat="43.16723" lon="1.09879">
        <ele>353.06002808</ele>
        <time>2021-10-17T07:52:14Z</time>
      </trkpt>
      <trkpt lat="43.16728" lon="1.09875">
        <ele>352.7800293</ele>
        <time>2021-10-17T07:52:15Z</time>
      </trkpt>
      <trkpt lat="43.16729" lon="1.09873">
        <ele>352.43002319</ele>
        <time>2021-10-17T07:52:16Z</time>
      </trkpt>
      <trkpt lat="43.16732" lon="1.09871">
        <ele>352.10003662</ele>
        <time>2021-10-17T07:52:17Z</time>
      </trkpt>
      <trkpt lat="43.16735" lon="1.09869">
        <ele>351.6300354</ele>
        <time>2021-10-17T07:52:18Z</time>
      </trkpt>
      <trkpt lat="43.16738" lon="1.09867">
        <ele>351.17004395</ele>
        <time>2021-10-17T07:52:19Z</time>
      </trkpt>
      <trkpt lat="43.16741" lon="1.09863">
        <ele>350.71005249</ele>
        <time>2021-10-17T07:52:20Z</time>
      </trkpt>
      <trkpt lat="43.16744" lon="1.09861">
        <ele>350.29003906</ele>
        <time>2021-10-17T07:52:21Z</time>
      </trkpt>
      <trkpt lat="43.16747" lon="1.09858">
        <ele>349.8800354</ele>
        <time>2021-10-17T07:52:22Z</time>
      </trkpt>
      <trkpt lat="43.1675" lon="1.09855">
        <ele>349.4800415</ele>
        <time>2021-10-17T07:52:23Z</time>
      </trkpt>
      <trkpt lat="43.16753" lon="1.09849">
        <ele>349.02005005</ele>
        <time>2021-10-17T07:52:24Z</time>
      </trkpt>
      <trkpt lat="43.16756" lon="1.09845">
        <ele>348.52005005</ele>
        <time>2021-10-17T07:52:25Z</time>
      </trkpt>
      <trkpt lat="43.16759" lon="1.0984">
        <ele>347.85003662</ele>
        <time>2021-10-17T07:52:26Z</time>
      </trkpt>
      <trkpt lat="43.16762" lon="1.09836">
        <ele>346.94003296</ele>
        <time>2021-10-17T07:52:27Z</time>
      </trkpt>
      <trkpt lat="43.16766" lon="1.09829">
        <ele>346.16003418</ele>
        <time>2021-10-17T07:52:28Z</time>
      </trkpt>
      <trkpt lat="43.16769" lon="1.09824">
        <ele>345.25003052</ele>
        <time>2021-10-17T07:52:29Z</time>
      </trkpt>
      <trkpt lat="43.16771" lon="1.0982">
        <ele>344.55001831</ele>
        <time>2021-10-17T07:52:30Z</time>
      </trkpt>
      <trkpt lat="43.16774" lon="1.09815">
        <ele>343.92001343</ele>
        <time>2021-10-17T07:52:31Z</time>
      </trkpt>
      <trkpt lat="43.16777" lon="1.09812">
        <ele>343.20001221</ele>
        <time>2021-10-17T07:52:32Z</time>
      </trkpt>
      <trkpt lat="43.16781" lon="1.09808">
        <ele>342.68002319</ele>
        <time>2021-10-17T07:52:33Z</time>
      </trkpt>
      <trkpt lat="43.16783" lon="1.09804">
        <ele>342.20001221</ele>
        <time>2021-10-17T07:52:34Z</time>
      </trkpt>
      <trkpt lat="43.16784" lon="1.098">
        <ele>341.77001953</ele>
        <time>2021-10-17T07:52:35Z</time>
      </trkpt>
      <trkpt lat="43.16787" lon="1.09795">
        <ele>341.41003418</ele>
        <time>2021-10-17T07:52:36Z</time>
      </trkpt>
      <trkpt lat="43.1679" lon="1.0979">
        <ele>340.72003174</ele>
        <time>2021-10-17T07:52:37Z</time>
      </trkpt>
      <trkpt lat="43.16794" lon="1.09783">
        <ele>339.7800293</ele>
        <time>2021-10-17T07:52:38Z</time>
      </trkpt>
      <trkpt lat="43.16796" lon="1.0978">
        <ele>339.12002563</ele>
        <time>2021-10-17T07:52:39Z</time>
      </trkpt>
      <trkpt lat="43.16797" lon="1.09777">
        <ele>338.5300293</ele>
        <time>2021-10-17T07:52:40Z</time>
      </trkpt>
      <trkpt lat="43.16799" lon="1.09774">
        <ele>338.09002686</ele>
        <time>2021-10-17T07:52:41Z</time>
      </trkpt>
      <trkpt lat="43.16801" lon="1.09767">
        <ele>337.77001953</ele>
        <time>2021-10-17T07:52:42Z</time>
      </trkpt>
      <trkpt lat="43.16803" lon="1.09764">
        <ele>337.22003174</ele>
        <time>2021-10-17T07:52:43Z</time>
      </trkpt>
      <trkpt lat="43.16805" lon="1.09759">
        <ele>336.50003052</ele>
        <time>2021-10-17T07:52:44Z</time>
      </trkpt>
      <trkpt lat="43.16807" lon="1.09754">
        <ele>335.7300415</ele>
        <time>2021-10-17T07:52:45Z</time>
      </trkpt>
      <trkpt lat="43.16809" lon="1.09748">
        <ele>334.87005615</ele>
        <time>2021-10-17T07:52:46Z</time>
      </trkpt>
      <trkpt lat="43.16811" lon="1.09744">
        <ele>333.94006348</ele>
        <time>2021-10-17T07:52:47Z</time>
      </trkpt>
      <trkpt lat="43.16812" lon="1.0974">
        <ele>333.17007446</ele>
        <time>2021-10-17T07:52:48Z</time>
      </trkpt>
      <trkpt lat="43.16814" lon="1.09736">
        <ele>332.28005981</ele>
        <time>2021-10-17T07:52:49Z</time>
      </trkpt>
      <trkpt lat="43.16815" lon="1.09731">
        <ele>331.46005249</ele>
        <time>2021-10-17T07:52:50Z</time>
      </trkpt>
      <trkpt lat="43.16818" lon="1.09724">
        <ele>330.52005005</ele>
        <time>2021-10-17T07:52:51Z</time>
      </trkpt>
      <trkpt lat="43.16819" lon="1.09718">
        <ele>329.50006104</ele>
        <time>2021-10-17T07:52:52Z</time>
      </trkpt>
      <trkpt lat="43.1682" lon="1.09713">
        <ele>328.5100708</ele>
        <time>2021-10-17T07:52:53Z</time>
      </trkpt>
      <trkpt lat="43.16821" lon="1.09708">
        <ele>327.48007202</ele>
        <time>2021-10-17T07:52:54Z</time>
      </trkpt>
      <trkpt lat="43.16824" lon="1.09701">
        <ele>326.93008423</ele>
        <time>2021-10-17T07:52:55Z</time>
      </trkpt>
      <trkpt lat="43.16825" lon="1.09697">
        <ele>325.92007446</ele>
        <time>2021-10-17T07:52:56Z</time>
      </trkpt>
      <trkpt lat="43.16826" lon="1.09694">
        <ele>325.1100769</ele>
        <time>2021-10-17T07:52:57Z</time>
      </trkpt>
      <trkpt lat="43.16827" lon="1.09691">
        <ele>324.47006226</ele>
        <time>2021-10-17T07:52:58Z</time>
      </trkpt>
      <trkpt lat="43.16829" lon="1.09688">
        <ele>323.5100708</ele>
        <time>2021-10-17T07:52:59Z</time>
      </trkpt>
      <trkpt lat="43.16832" lon="1.09681">
        <ele>322.62005615</ele>
        <time>2021-10-17T07:53:00Z</time>
      </trkpt>
      <trkpt lat="43.16833" lon="1.09678">
        <ele>321.81005859</ele>
        <time>2021-10-17T07:53:01Z</time>
      </trkpt>
      <trkpt lat="43.16835" lon="1.09674">
        <ele>320.87005615</ele>
        <time>2021-10-17T07:53:02Z</time>
      </trkpt>
      <trkpt lat="43.16836" lon="1.09671">
        <ele>319.79006958</ele>
        <time>2021-10-17T07:53:03Z</time>
      </trkpt>
      <trkpt lat="43.16838" lon="1.09666">
        <ele>319.13006592</ele>
        <time>2021-10-17T07:53:04Z</time>
      </trkpt>
      <trkpt lat="43.1684" lon="1.09661">
        <ele>318.34005737</ele>
        <time>2021-10-17T07:53:05Z</time>
      </trkpt>
      <trkpt lat="43.16842" lon="1.09657">
        <ele>317.5100708</ele>
        <time>2021-10-17T07:53:06Z</time>
      </trkpt>
      <trkpt lat="43.16844" lon="1.09653">
        <ele>316.98007202</ele>
        <time>2021-10-17T07:53:07Z</time>
      </trkpt>
      <trkpt lat="43.16846" lon="1.09649">
        <ele>316.19006348</ele>
        <time>2021-10-17T07:53:08Z</time>
      </trkpt>
      <trkpt lat="43.16849" lon="1.09644">
        <ele>315.24005127</ele>
        <time>2021-10-17T07:53:09Z</time>
      </trkpt>
      <trkpt lat="43.16851" lon="1.09641">
        <ele>314.40005493</ele>
        <time>2021-10-17T07:53:10Z</time>
      </trkpt>
      <trkpt lat="43.16852" lon="1.09638">
        <ele>313.49005127</ele>
        <time>2021-10-17T07:53:11Z</time>
      </trkpt>
      <trkpt lat="43.16854" lon="1.09634">
        <ele>312.75006104</ele>
        <time>2021-10-17T07:53:12Z</time>
      </trkpt>
      <trkpt lat="43.16858" lon="1.09629">
        <ele>312.14007568</ele>
        <time>2021-10-17T07:53:13Z</time>
      </trkpt>
      <trkpt lat="43.1686" lon="1.09625">
        <ele>311.5100708</ele>
        <time>2021-10-17T07:53:14Z</time>
      </trkpt>
      <trkpt lat="43.16862" lon="1.09622">
        <ele>310.67007446</ele>
        <time>2021-10-17T07:53:15Z</time>
      </trkpt>
      <trkpt lat="43.16864" lon="1.09619">
        <ele>310.05007935</ele>
        <time>2021-10-17T07:53:16Z</time>
      </trkpt>
      <trkpt lat="43.16864" lon="1.09616">
        <ele>309.32006836</ele>
        <time>2021-10-17T07:53:17Z</time>
      </trkpt>
      <trkpt lat="43.16865" lon="1.09613">
        <ele>308.65005493</ele>
        <time>2021-10-17T07:53:18Z</time>
      </trkpt>
      <trkpt lat="43.16866" lon="1.09612">
        <ele>308.34005737</ele>
        <time>2021-10-17T07:53:19Z</time>
      </trkpt>
      <trkpt lat="43.16867" lon="1.0961">
        <ele>307.79006958</ele>
        <time>2021-10-17T07:53:20Z</time>
      </trkpt>
      <trkpt lat="43.16867" lon="1.09609">
        <ele>308.24008179</ele>
        <time>2021-10-17T07:53:21Z</time>
      </trkpt>
      <trkpt lat="43.16868" lon="1.09606">
        <ele>307.87008667</ele>
        <time>2021-10-17T07:53:22Z</time>
      </trkpt>
      <trkpt lat="43.16869" lon="1.09605">
        <ele>307.51010132</ele>
        <time>2021-10-17T07:53:23Z</time>
      </trkpt>
      <trkpt lat="43.1687" lon="1.09603">
        <ele>307.1401062</ele>
        <time>2021-10-17T07:53:24Z</time>
      </trkpt>
      <trkpt lat="43.1687" lon="1.09602">
        <ele>306.73010254</ele>
        <time>2021-10-17T07:53:25Z</time>
      </trkpt>
      <trkpt lat="43.16871" lon="1.09601">
        <ele>306.45010376</ele>
        <time>2021-10-17T07:53:26Z</time>
      </trkpt>
      <trkpt lat="43.16873" lon="1.096">
        <ele>306.06008911</ele>
        <time>2021-10-17T07:53:27Z</time>
      </trkpt>
      <trkpt lat="43.16873" lon="1.09599">
        <ele>305.85009766</ele>
        <time>2021-10-17T07:53:28Z</time>
      </trkpt>
      <trkpt lat="43.16874" lon="1.09597">
        <ele>305.53009033</ele>
        <time>2021-10-17T07:53:29Z</time>
      </trkpt>
      <trkpt lat="43.16875" lon="1.09595">
        <ele>305.19009399</ele>
        <time>2021-10-17T07:53:30Z</time>
      </trkpt>
      <trkpt lat="43.16876" lon="1.09593">
        <ele>304.7901001</ele>
        <time>2021-10-17T07:53:31Z</time>
      </trkpt>
      <trkpt lat="43.16877" lon="1.09591">
        <ele>304.18011475</ele>
        <time>2021-10-17T07:53:32Z</time>
      </trkpt>
      <trkpt lat="43.16877" lon="1.09589">
        <ele>303.7401123</ele>
        <time>2021-10-17T07:53:33Z</time>
      </trkpt>
      <trkpt lat="43.16878" lon="1.09586">
        <ele>303.28012085</ele>
        <time>2021-10-17T07:53:34Z</time>
      </trkpt>
      <trkpt lat="43.16878" lon="1.09583">
        <ele>302.72012329</ele>
        <time>2021-10-17T07:53:35Z</time>
      </trkpt>
      <trkpt lat="43.16879" lon="1.09579">
        <ele>302.16012573</ele>
        <time>2021-10-17T07:53:36Z</time>
      </trkpt>
      <trkpt lat="43.1688" lon="1.09577">
        <ele>301.61013794</ele>
        <time>2021-10-17T07:53:37Z</time>
      </trkpt>
      <trkpt lat="43.16881" lon="1.09574">
        <ele>301.01013184</ele>
        <time>2021-10-17T07:53:38Z</time>
      </trkpt>
      <trkpt lat="43.16882" lon="1.0957">
        <ele>300.46014404</ele>
        <time>2021-10-17T07:53:39Z</time>
      </trkpt>
      <trkpt lat="43.16883" lon="1.09567">
        <ele>300.09014893</ele>
        <time>2021-10-17T07:53:40Z</time>
      </trkpt>
      <trkpt lat="43.16883" lon="1.09566">
        <ele>299.70013428</ele>
        <time>2021-10-17T07:53:41Z</time>
      </trkpt>
      <trkpt lat="43.16884" lon="1.09567">
        <ele>299.36013794</ele>
        <time>2021-10-17T07:53:42Z</time>
      </trkpt>
      <trkpt lat="43.16884" lon="1.09559">
        <ele>298.98013306</ele>
        <time>2021-10-17T07:53:50Z</time>
      </trkpt>
      <trkpt lat="43.16884" lon="1.09558">
        <ele>298.80014038</ele>
        <time>2021-10-17T07:53:51Z</time>
      </trkpt>
      <trkpt lat="43.16884" lon="1.09556">
        <ele>298.5201416</ele>
        <time>2021-10-17T07:53:52Z</time>
      </trkpt>
      <trkpt lat="43.16884" lon="1.09556">
        <ele>298.21014404</ele>
        <time>2021-10-17T07:53:53Z</time>
      </trkpt>
      <trkpt lat="43.16884" lon="1.09554">
        <ele>297.88015747</ele>
        <time>2021-10-17T07:53:54Z</time>
      </trkpt>
      <trkpt lat="43.16884" lon="1.09553">
        <ele>297.59014893</ele>
        <time>2021-10-17T07:53:55Z</time>
      </trkpt>
      <trkpt lat="43.16883" lon="1.09551">
        <ele>297.32015991</ele>
        <time>2021-10-17T07:53:56Z</time>
      </trkpt>
      <trkpt lat="43.16882" lon="1.09549">
        <ele>296.90014648</ele>
        <time>2021-10-17T07:53:57Z</time>
      </trkpt>
      <trkpt lat="43.16883" lon="1.09546">
        <ele>296.51013184</ele>
        <time>2021-10-17T07:53:58Z</time>
      </trkpt>
      <trkpt lat="43.16884" lon="1.09543">
        <ele>295.94012451</ele>
        <time>2021-10-17T07:53:59Z</time>
      </trkpt>
      <trkpt lat="43.16884" lon="1.09542">
        <ele>295.76013184</ele>
        <time>2021-10-17T07:54:00Z</time>
      </trkpt>
      <trkpt lat="43.16886" lon="1.0954">
        <ele>295.87011719</ele>
        <time>2021-10-17T07:54:01Z</time>
      </trkpt>
      <trkpt lat="43.16887" lon="1.09537">
        <ele>295.9901123</ele>
        <time>2021-10-17T07:54:02Z</time>
      </trkpt>
      <trkpt lat="43.16888" lon="1.09533">
        <ele>296.60009766</ele>
        <time>2021-10-17T07:54:03Z</time>
      </trkpt>
      <trkpt lat="43.1689" lon="1.0953">
        <ele>297.30010986</ele>
        <time>2021-10-17T07:54:04Z</time>
      </trkpt>
      <trkpt lat="43.16892" lon="1.09527">
        <ele>297.81011963</ele>
        <time>2021-10-17T07:54:05Z</time>
      </trkpt>
      <trkpt lat="43.16894" lon="1.09525">
        <ele>298.40011597</ele>
        <time>2021-10-17T07:54:06Z</time>
      </trkpt>
      <trkpt lat="43.16895" lon="1.09521">
        <ele>299.08010864</ele>
        <time>2021-10-17T07:54:07Z</time>
      </trkpt>
      <trkpt lat="43.16897" lon="1.09515">
        <ele>299.51010132</ele>
        <time>2021-10-17T07:54:08Z</time>
      </trkpt>
      <trkpt lat="43.16898" lon="1.09513">
        <ele>300.16009521</ele>
        <time>2021-10-17T07:54:09Z</time>
      </trkpt>
      <trkpt lat="43.16899" lon="1.09511">
        <ele>300.83010864</ele>
        <time>2021-10-17T07:54:10Z</time>
      </trkpt>
      <trkpt lat="43.169" lon="1.0951">
        <ele>301.30010986</ele>
        <time>2021-10-17T07:54:11Z</time>
      </trkpt>
      <trkpt lat="43.16902" lon="1.09507">
        <ele>301.75012207</ele>
        <time>2021-10-17T07:54:12Z</time>
      </trkpt>
      <trkpt lat="43.16904" lon="1.09506">
        <ele>302.11010742</ele>
        <time>2021-10-17T07:54:13Z</time>
      </trkpt>
      <trkpt lat="43.16904" lon="1.09506">
        <ele>302.46011353</ele>
        <time>2021-10-17T07:54:14Z</time>
      </trkpt>
      <trkpt lat="43.16905" lon="1.09506">
        <ele>302.78012085</ele>
        <time>2021-10-17T07:54:15Z</time>
      </trkpt>
      <trkpt lat="43.16905" lon="1.09506">
        <ele>302.9901123</ele>
        <time>2021-10-17T07:54:16Z</time>
      </trkpt>
      <trkpt lat="43.16905" lon="1.09505">
        <ele>303.17010498</ele>
        <time>2021-10-17T07:54:17Z</time>
      </trkpt>
      <trkpt lat="43.16912" lon="1.09503">
        <ele>303.37011719</ele>
        <time>2021-10-17T07:55:00Z</time>
      </trkpt>
      <trkpt lat="43.16913" lon="1.095">
        <ele>303.34011841</ele>
        <time>2021-10-17T07:55:01Z</time>
      </trkpt>
      <trkpt lat="43.16913" lon="1.09497">
        <ele>303.3901062</ele>
        <time>2021-10-17T07:55:02Z</time>
      </trkpt>
      <trkpt lat="43.16913" lon="1.09495">
        <ele>303.65011597</ele>
        <time>2021-10-17T07:55:03Z</time>
      </trkpt>
      <trkpt lat="43.16912" lon="1.09493">
        <ele>303.65011597</ele>
        <time>2021-10-17T07:55:04Z</time>
      </trkpt>
      <trkpt lat="43.16912" lon="1.09491">
        <ele>303.80010986</ele>
        <time>2021-10-17T07:55:05Z</time>
      </trkpt>
      <trkpt lat="43.16912" lon="1.09487">
        <ele>303.96011353</ele>
        <time>2021-10-17T07:55:06Z</time>
      </trkpt>
      <trkpt lat="43.16912" lon="1.09484">
        <ele>304.13012695</ele>
        <time>2021-10-17T07:55:07Z</time>
      </trkpt>
      <trkpt lat="43.16911" lon="1.09481">
        <ele>304.2701416</ele>
        <time>2021-10-17T07:55:08Z</time>
      </trkpt>
      <trkpt lat="43.16911" lon="1.09479">
        <ele>304.48013306</ele>
        <time>2021-10-17T07:55:09Z</time>
      </trkpt>
      <trkpt lat="43.16912" lon="1.09477">
        <ele>304.72012329</ele>
        <time>2021-10-17T07:55:10Z</time>
      </trkpt>
      <trkpt lat="43.16912" lon="1.09473">
        <ele>304.95013428</ele>
        <time>2021-10-17T07:55:11Z</time>
      </trkpt>
      <trkpt lat="43.16912" lon="1.0947">
        <ele>305.19012451</ele>
        <time>2021-10-17T07:55:12Z</time>
      </trkpt>
      <trkpt lat="43.16912" lon="1.09467">
        <ele>305.4201355</ele>
        <time>2021-10-17T07:55:13Z</time>
      </trkpt>
      <trkpt lat="43.16913" lon="1.09465">
        <ele>305.6701355</ele>
        <time>2021-10-17T07:55:14Z</time>
      </trkpt>
      <trkpt lat="43.16913" lon="1.0946">
        <ele>305.94012451</ele>
        <time>2021-10-17T07:55:15Z</time>
      </trkpt>
      <trkpt lat="43.16913" lon="1.09458">
        <ele>306.23013306</ele>
        <time>2021-10-17T07:55:16Z</time>
      </trkpt>
      <trkpt lat="43.16914" lon="1.09455">
        <ele>306.54013062</ele>
        <time>2021-10-17T07:55:17Z</time>
      </trkpt>
      <trkpt lat="43.16914" lon="1.09452">
        <ele>306.80014038</ele>
        <time>2021-10-17T07:55:18Z</time>
      </trkpt>
      <trkpt lat="43.16914" lon="1.09448">
        <ele>307.08013916</ele>
        <time>2021-10-17T07:55:19Z</time>
      </trkpt>
      <trkpt lat="43.16914" lon="1.09445">
        <ele>307.33013916</ele>
        <time>2021-10-17T07:55:20Z</time>
      </trkpt>
      <trkpt lat="43.16915" lon="1.09442">
        <ele>307.60012817</ele>
        <time>2021-10-17T07:55:21Z</time>
      </trkpt>
      <trkpt lat="43.16915" lon="1.09439">
        <ele>307.88012695</ele>
        <time>2021-10-17T07:55:22Z</time>
      </trkpt>
      <trkpt lat="43.16915" lon="1.09436">
        <ele>308.19012451</ele>
        <time>2021-10-17T07:55:23Z</time>
      </trkpt>
      <trkpt lat="43.16915" lon="1.09432">
        <ele>308.54013062</ele>
        <time>2021-10-17T07:55:24Z</time>
      </trkpt>
      <trkpt lat="43.16916" lon="1.09429">
        <ele>308.9201355</ele>
        <time>2021-10-17T07:55:25Z</time>
      </trkpt>
      <trkpt lat="43.16916" lon="1.09427">
        <ele>309.25012207</ele>
        <time>2021-10-17T07:55:26Z</time>
      </trkpt>
      <trkpt lat="43.16917" lon="1.09424">
        <ele>309.60012817</ele>
        <time>2021-10-17T07:55:27Z</time>
      </trkpt>
      <trkpt lat="43.16918" lon="1.09419">
        <ele>309.96011353</ele>
        <time>2021-10-17T07:55:28Z</time>
      </trkpt>
      <trkpt lat="43.16917" lon="1.09415">
        <ele>310.2401123</ele>
        <time>2021-10-17T07:55:29Z</time>
      </trkpt>
      <trkpt lat="43.16916" lon="1.09411">
        <ele>310.45010376</ele>
        <time>2021-10-17T07:55:30Z</time>
      </trkpt>
      <trkpt lat="43.16915" lon="1.09406">
        <ele>310.48010254</ele>
        <time>2021-10-17T07:55:31Z</time>
      </trkpt>
      <trkpt lat="43.16913" lon="1.09402">
        <ele>310.37011719</ele>
        <time>2021-10-17T07:55:32Z</time>
      </trkpt>
      <trkpt lat="43.16911" lon="1.09395">
        <ele>310.17010498</ele>
        <time>2021-10-17T07:55:33Z</time>
      </trkpt>
      <trkpt lat="43.16909" lon="1.09391">
        <ele>309.9901123</ele>
        <time>2021-10-17T07:55:34Z</time>
      </trkpt>
      <trkpt lat="43.16906" lon="1.09387">
        <ele>309.81011963</ele>
        <time>2021-10-17T07:55:35Z</time>
      </trkpt>
      <trkpt lat="43.16903" lon="1.09383">
        <ele>309.63012695</ele>
        <time>2021-10-17T07:55:36Z</time>
      </trkpt>
      <trkpt lat="43.16898" lon="1.09378">
        <ele>309.44012451</ele>
        <time>2021-10-17T07:55:37Z</time>
      </trkpt>
      <trkpt lat="43.16894" lon="1.09376">
        <ele>309.23013306</ele>
        <time>2021-10-17T07:55:38Z</time>
      </trkpt>
      <trkpt lat="43.16889" lon="1.09375">
        <ele>308.96014404</ele>
        <time>2021-10-17T07:55:39Z</time>
      </trkpt>
      <trkpt lat="43.16884" lon="1.09374">
        <ele>308.72015381</ele>
        <time>2021-10-17T07:55:40Z</time>
      </trkpt>
      <trkpt lat="43.1688" lon="1.09375">
        <ele>308.5201416</ele>
        <time>2021-10-17T07:55:41Z</time>
      </trkpt>
      <trkpt lat="43.16874" lon="1.09379">
        <ele>308.36013794</ele>
        <time>2021-10-17T07:55:42Z</time>
      </trkpt>
      <trkpt lat="43.1687" lon="1.09382">
        <ele>308.2701416</ele>
        <time>2021-10-17T07:55:43Z</time>
      </trkpt>
      <trkpt lat="43.16867" lon="1.09385">
        <ele>308.16015625</ele>
        <time>2021-10-17T07:55:44Z</time>
      </trkpt>
      <trkpt lat="43.16863" lon="1.09389">
        <ele>307.96014404</ele>
        <time>2021-10-17T07:55:45Z</time>
      </trkpt>
      <trkpt lat="43.16859" lon="1.09393">
        <ele>307.63015747</ele>
        <time>2021-10-17T07:55:46Z</time>
      </trkpt>
      <trkpt lat="43.16853" lon="1.094">
        <ele>307.22015381</ele>
        <time>2021-10-17T07:55:47Z</time>
      </trkpt>
      <trkpt lat="43.16848" lon="1.09405">
        <ele>306.72015381</ele>
        <time>2021-10-17T07:55:48Z</time>
      </trkpt>
      <trkpt lat="43.16843" lon="1.0941">
        <ele>306.13015747</ele>
        <time>2021-10-17T07:55:49Z</time>
      </trkpt>
      <trkpt lat="43.16837" lon="1.09413">
        <ele>305.48016357</ele>
        <time>2021-10-17T07:55:50Z</time>
      </trkpt>
      <trkpt lat="43.16828" lon="1.09417">
        <ele>304.77017212</ele>
        <time>2021-10-17T07:55:51Z</time>
      </trkpt>
      <trkpt lat="43.16821" lon="1.09417">
        <ele>304.12017822</ele>
        <time>2021-10-17T07:55:52Z</time>
      </trkpt>
      <trkpt lat="43.16815" lon="1.09417">
        <ele>303.69018555</ele>
        <time>2021-10-17T07:55:53Z</time>
      </trkpt>
      <trkpt lat="43.16809" lon="1.09417">
        <ele>303.46017456</ele>
        <time>2021-10-17T07:55:54Z</time>
      </trkpt>
      <trkpt lat="43.16801" lon="1.09415">
        <ele>303.46017456</ele>
        <time>2021-10-17T07:55:55Z</time>
      </trkpt>
      <trkpt lat="43.16795" lon="1.09414">
        <ele>303.64016724</ele>
        <time>2021-10-17T07:55:56Z</time>
      </trkpt>
      <trkpt lat="43.1679" lon="1.09413">
        <ele>303.89016724</ele>
        <time>2021-10-17T07:55:57Z</time>
      </trkpt>
      <trkpt lat="43.16786" lon="1.09412">
        <ele>304.24017334</ele>
        <time>2021-10-17T07:55:58Z</time>
      </trkpt>
      <trkpt lat="43.16782" lon="1.09411">
        <ele>304.58016968</ele>
        <time>2021-10-17T07:55:59Z</time>
      </trkpt>
      <trkpt lat="43.16777" lon="1.09411">
        <ele>304.92016602</ele>
        <time>2021-10-17T07:56:00Z</time>
      </trkpt>
      <trkpt lat="43.16774" lon="1.09411">
        <ele>305.32015991</ele>
        <time>2021-10-17T07:56:01Z</time>
      </trkpt>
      <trkpt lat="43.1677" lon="1.0941">
        <ele>305.58016968</ele>
        <time>2021-10-17T07:56:02Z</time>
      </trkpt>
      <trkpt lat="43.16767" lon="1.0941">
        <ele>305.79016113</ele>
        <time>2021-10-17T07:56:03Z</time>
      </trkpt>
      <trkpt lat="43.16764" lon="1.09409">
        <ele>305.97015381</ele>
        <time>2021-10-17T07:56:04Z</time>
      </trkpt>
      <trkpt lat="43.16759" lon="1.09408">
        <ele>306.04016113</ele>
        <time>2021-10-17T07:56:05Z</time>
      </trkpt>
      <trkpt lat="43.16756" lon="1.09407">
        <ele>306.21017456</ele>
        <time>2021-10-17T07:56:06Z</time>
      </trkpt>
      <trkpt lat="43.16753" lon="1.09407">
        <ele>306.39016724</ele>
        <time>2021-10-17T07:56:07Z</time>
      </trkpt>
      <trkpt lat="43.16749" lon="1.09408">
        <ele>306.58016968</ele>
        <time>2021-10-17T07:56:08Z</time>
      </trkpt>
      <trkpt lat="43.16744" lon="1.09407">
        <ele>306.82015991</ele>
        <time>2021-10-17T07:56:09Z</time>
      </trkpt>
      <trkpt lat="43.1674" lon="1.09407">
        <ele>307.13015747</ele>
        <time>2021-10-17T07:56:10Z</time>
      </trkpt>
      <trkpt lat="43.16736" lon="1.09407">
        <ele>307.40014648</ele>
        <time>2021-10-17T07:56:11Z</time>
      </trkpt>
      <trkpt lat="43.16733" lon="1.09406">
        <ele>307.66015625</ele>
        <time>2021-10-17T07:56:12Z</time>
      </trkpt>
      <trkpt lat="43.16727" lon="1.09405">
        <ele>307.89016724</ele>
        <time>2021-10-17T07:56:13Z</time>
      </trkpt>
      <trkpt lat="43.16723" lon="1.09405">
        <ele>308.02017212</ele>
        <time>2021-10-17T07:56:14Z</time>
      </trkpt>
      <trkpt lat="43.16719" lon="1.09404">
        <ele>308.19018555</ele>
        <time>2021-10-17T07:56:15Z</time>
      </trkpt>
      <trkpt lat="43.16716" lon="1.09403">
        <ele>308.3302002</ele>
        <time>2021-10-17T07:56:16Z</time>
      </trkpt>
      <trkpt lat="43.16712" lon="1.09402">
        <ele>308.46020508</ele>
        <time>2021-10-17T07:56:17Z</time>
      </trkpt>
      <trkpt lat="43.16708" lon="1.09402">
        <ele>308.61019897</ele>
        <time>2021-10-17T07:56:18Z</time>
      </trkpt>
      <trkpt lat="43.16705" lon="1.09401">
        <ele>308.77020264</ele>
        <time>2021-10-17T07:56:19Z</time>
      </trkpt>
      <trkpt lat="43.16702" lon="1.094">
        <ele>308.96020508</ele>
        <time>2021-10-17T07:56:20Z</time>
      </trkpt>
      <trkpt lat="43.16698" lon="1.09399">
        <ele>309.12020874</ele>
        <time>2021-10-17T07:56:21Z</time>
      </trkpt>
      <trkpt lat="43.16693" lon="1.09399">
        <ele>309.27020264</ele>
        <time>2021-10-17T07:56:22Z</time>
      </trkpt>
      <trkpt lat="43.1669" lon="1.09399">
        <ele>309.41021729</ele>
        <time>2021-10-17T07:56:23Z</time>
      </trkpt>
      <trkpt lat="43.16686" lon="1.09397">
        <ele>309.5302124</ele>
        <time>2021-10-17T07:56:24Z</time>
      </trkpt>
      <trkpt lat="43.16683" lon="1.09396">
        <ele>309.62020874</ele>
        <time>2021-10-17T07:56:25Z</time>
      </trkpt>
      <trkpt lat="43.16679" lon="1.09395">
        <ele>309.72021484</ele>
        <time>2021-10-17T07:56:26Z</time>
      </trkpt>
      <trkpt lat="43.16675" lon="1.09395">
        <ele>309.80020142</ele>
        <time>2021-10-17T07:56:27Z</time>
      </trkpt>
      <trkpt lat="43.16672" lon="1.09395">
        <ele>309.85018921</ele>
        <time>2021-10-17T07:56:28Z</time>
      </trkpt>
      <trkpt lat="43.16668" lon="1.09395">
        <ele>309.93017578</ele>
        <time>2021-10-17T07:56:29Z</time>
      </trkpt>
      <trkpt lat="43.16665" lon="1.09396">
        <ele>309.98016357</ele>
        <time>2021-10-17T07:56:30Z</time>
      </trkpt>
      <trkpt lat="43.16659" lon="1.09396">
        <ele>310.0501709</ele>
        <time>2021-10-17T07:56:31Z</time>
      </trkpt>
      <trkpt lat="43.16656" lon="1.09396">
        <ele>310.16015625</ele>
        <time>2021-10-17T07:56:32Z</time>
      </trkpt>
      <trkpt lat="43.16652" lon="1.09396">
        <ele>310.2701416</ele>
        <time>2021-10-17T07:56:33Z</time>
      </trkpt>
      <trkpt lat="43.16649" lon="1.09398">
        <ele>310.36013794</ele>
        <time>2021-10-17T07:56:34Z</time>
      </trkpt>
      <trkpt lat="43.16645" lon="1.094">
        <ele>310.44012451</ele>
        <time>2021-10-17T07:56:35Z</time>
      </trkpt>
      <trkpt lat="43.16641" lon="1.09405">
        <ele>310.46011353</ele>
        <time>2021-10-17T07:56:36Z</time>
      </trkpt>
      <trkpt lat="43.16638" lon="1.09408">
        <ele>310.50012207</ele>
        <time>2021-10-17T07:56:37Z</time>
      </trkpt>
      <trkpt lat="43.16635" lon="1.09411">
        <ele>310.55010986</ele>
        <time>2021-10-17T07:56:38Z</time>
      </trkpt>
      <trkpt lat="43.16633" lon="1.09412">
        <ele>310.61010742</ele>
        <time>2021-10-17T07:56:39Z</time>
      </trkpt>
      <trkpt lat="43.1663" lon="1.09416">
        <ele>310.6401062</ele>
        <time>2021-10-17T07:56:40Z</time>
      </trkpt>
      <trkpt lat="43.16627" lon="1.09417">
        <ele>310.71011353</ele>
        <time>2021-10-17T07:56:41Z</time>
      </trkpt>
      <trkpt lat="43.16624" lon="1.09419">
        <ele>310.71011353</ele>
        <time>2021-10-17T07:56:42Z</time>
      </trkpt>
      <trkpt lat="43.1662" lon="1.09421">
        <ele>310.72012329</ele>
        <time>2021-10-17T07:56:43Z</time>
      </trkpt>
      <trkpt lat="43.16617" lon="1.09425">
        <ele>310.81011963</ele>
        <time>2021-10-17T07:56:44Z</time>
      </trkpt>
      <trkpt lat="43.16611" lon="1.09429">
        <ele>310.85012817</ele>
        <time>2021-10-17T07:56:45Z</time>
      </trkpt>
      <trkpt lat="43.16608" lon="1.09431">
        <ele>310.86013794</ele>
        <time>2021-10-17T07:56:46Z</time>
      </trkpt>
      <trkpt lat="43.16606" lon="1.09434">
        <ele>310.88012695</ele>
        <time>2021-10-17T07:56:47Z</time>
      </trkpt>
      <trkpt lat="43.16603" lon="1.09437">
        <ele>310.9201355</ele>
        <time>2021-10-17T07:56:48Z</time>
      </trkpt>
      <trkpt lat="43.16597" lon="1.09441">
        <ele>311.01013184</ele>
        <time>2021-10-17T07:56:49Z</time>
      </trkpt>
      <trkpt lat="43.16593" lon="1.09443">
        <ele>311.10012817</ele>
        <time>2021-10-17T07:56:50Z</time>
      </trkpt>
      <trkpt lat="43.16589" lon="1.09446">
        <ele>311.23013306</ele>
        <time>2021-10-17T07:56:51Z</time>
      </trkpt>
      <trkpt lat="43.16585" lon="1.09448">
        <ele>311.31011963</ele>
        <time>2021-10-17T07:56:52Z</time>
      </trkpt>
      <trkpt lat="43.1658" lon="1.0945">
        <ele>311.37011719</ele>
        <time>2021-10-17T07:56:53Z</time>
      </trkpt>
      <trkpt lat="43.16574" lon="1.09453">
        <ele>311.48010254</ele>
        <time>2021-10-17T07:56:54Z</time>
      </trkpt>
      <trkpt lat="43.16571" lon="1.09455">
        <ele>311.56008911</ele>
        <time>2021-10-17T07:56:55Z</time>
      </trkpt>
      <trkpt lat="43.16568" lon="1.09457">
        <ele>311.67007446</ele>
        <time>2021-10-17T07:56:56Z</time>
      </trkpt>
      <trkpt lat="43.16564" lon="1.09459">
        <ele>311.82006836</ele>
        <time>2021-10-17T07:56:57Z</time>
      </trkpt>
      <trkpt lat="43.16559" lon="1.0946">
        <ele>312.05007935</ele>
        <time>2021-10-17T07:56:58Z</time>
      </trkpt>
      <trkpt lat="43.16555" lon="1.0946">
        <ele>312.05007935</ele>
        <time>2021-10-17T07:56:59Z</time>
      </trkpt>
      <trkpt lat="43.16552" lon="1.0946">
        <ele>312.08007812</ele>
        <time>2021-10-17T07:57:00Z</time>
      </trkpt>
      <trkpt lat="43.16547" lon="1.0946">
        <ele>312.10006714</ele>
        <time>2021-10-17T07:57:01Z</time>
      </trkpt>
      <trkpt lat="43.16545" lon="1.09461">
        <ele>312.17007446</ele>
        <time>2021-10-17T07:57:02Z</time>
      </trkpt>
      <trkpt lat="43.16541" lon="1.09463">
        <ele>312.20007324</ele>
        <time>2021-10-17T07:57:03Z</time>
      </trkpt>
      <trkpt lat="43.16538" lon="1.09465">
        <ele>312.29006958</ele>
        <time>2021-10-17T07:57:04Z</time>
      </trkpt>
      <trkpt lat="43.16535" lon="1.09465">
        <ele>312.42007446</ele>
        <time>2021-10-17T07:57:05Z</time>
      </trkpt>
      <trkpt lat="43.16532" lon="1.09465">
        <ele>312.49008179</ele>
        <time>2021-10-17T07:57:06Z</time>
      </trkpt>
      <trkpt lat="43.16528" lon="1.09466">
        <ele>312.64007568</ele>
        <time>2021-10-17T07:57:07Z</time>
      </trkpt>
      <trkpt lat="43.16526" lon="1.09466">
        <ele>312.7600708</ele>
        <time>2021-10-17T07:57:08Z</time>
      </trkpt>
      <trkpt lat="43.16523" lon="1.09467">
        <ele>312.83007812</ele>
        <time>2021-10-17T07:57:09Z</time>
      </trkpt>
      <trkpt lat="43.1652" lon="1.09468">
        <ele>312.99008179</ele>
        <time>2021-10-17T07:57:10Z</time>
      </trkpt>
      <trkpt lat="43.16516" lon="1.09468">
        <ele>313.08007812</ele>
        <time>2021-10-17T07:57:11Z</time>
      </trkpt>
      <trkpt lat="43.16509" lon="1.09466">
        <ele>313.19006348</ele>
        <time>2021-10-17T07:57:12Z</time>
      </trkpt>
      <trkpt lat="43.16505" lon="1.09465">
        <ele>313.34005737</ele>
        <time>2021-10-17T07:57:13Z</time>
      </trkpt>
      <trkpt lat="43.16502" lon="1.09464">
        <ele>313.44006348</ele>
        <time>2021-10-17T07:57:14Z</time>
      </trkpt>
      <trkpt lat="43.16499" lon="1.09464">
        <ele>313.57006836</ele>
        <time>2021-10-17T07:57:15Z</time>
      </trkpt>
      <trkpt lat="43.16495" lon="1.09464">
        <ele>313.74008179</ele>
        <time>2021-10-17T07:57:16Z</time>
      </trkpt>
      <trkpt lat="43.16492" lon="1.09465">
        <ele>313.87008667</ele>
        <time>2021-10-17T07:57:17Z</time>
      </trkpt>
      <trkpt lat="43.1649" lon="1.09465">
        <ele>314.0401001</ele>
        <time>2021-10-17T07:57:18Z</time>
      </trkpt>
      <trkpt lat="43.16487" lon="1.09464">
        <ele>314.20010376</ele>
        <time>2021-10-17T07:57:19Z</time>
      </trkpt>
      <trkpt lat="43.16484" lon="1.09464">
        <ele>314.33010864</ele>
        <time>2021-10-17T07:57:20Z</time>
      </trkpt>
      <trkpt lat="43.1648" lon="1.09463">
        <ele>315.26010132</ele>
        <time>2021-10-17T07:57:21Z</time>
      </trkpt>
      <trkpt lat="43.16477" lon="1.09464">
        <ele>315.35009766</ele>
        <time>2021-10-17T07:57:22Z</time>
      </trkpt>
      <trkpt lat="43.16475" lon="1.09464">
        <ele>315.3901062</ele>
        <time>2021-10-17T07:57:23Z</time>
      </trkpt>
      <trkpt lat="43.16472" lon="1.09464">
        <ele>315.45010376</ele>
        <time>2021-10-17T07:57:24Z</time>
      </trkpt>
      <trkpt lat="43.16471" lon="1.09461">
        <ele>315.4901123</ele>
        <time>2021-10-17T07:57:25Z</time>
      </trkpt>
      <trkpt lat="43.16471" lon="1.09459">
        <ele>315.55010986</ele>
        <time>2021-10-17T07:57:26Z</time>
      </trkpt>
      <trkpt lat="43.16471" lon="1.09456">
        <ele>315.66009521</ele>
        <time>2021-10-17T07:57:27Z</time>
      </trkpt>
      <trkpt lat="43.16471" lon="1.09455">
        <ele>315.83010864</ele>
        <time>2021-10-17T07:57:28Z</time>
      </trkpt>
      <trkpt lat="43.16473" lon="1.09454">
        <ele>316.0401001</ele>
        <time>2021-10-17T07:57:29Z</time>
      </trkpt>
      <trkpt lat="43.16475" lon="1.09453">
        <ele>316.28009033</ele>
        <time>2021-10-17T07:57:30Z</time>
      </trkpt>
      <trkpt lat="43.16478" lon="1.09452">
        <ele>316.47009277</ele>
        <time>2021-10-17T07:57:31Z</time>
      </trkpt>
      <trkpt lat="43.1648" lon="1.09451">
        <ele>316.58007812</ele>
        <time>2021-10-17T07:57:32Z</time>
      </trkpt>
      <trkpt lat="43.16481" lon="1.0945">
        <ele>316.67007446</ele>
        <time>2021-10-17T07:57:33Z</time>
      </trkpt>
      <trkpt lat="43.16483" lon="1.09448">
        <ele>316.73007202</ele>
        <time>2021-10-17T07:57:34Z</time>
      </trkpt>
      <trkpt lat="43.16487" lon="1.09446">
        <ele>316.83007812</ele>
        <time>2021-10-17T07:57:35Z</time>
      </trkpt>
      <trkpt lat="43.1649" lon="1.09445">
        <ele>317.03009033</ele>
        <time>2021-10-17T07:57:36Z</time>
      </trkpt>
      <trkpt lat="43.16493" lon="1.09443">
        <ele>317.23010254</ele>
        <time>2021-10-17T07:57:37Z</time>
      </trkpt>
      <trkpt lat="43.16497" lon="1.09442">
        <ele>317.36010742</ele>
        <time>2021-10-17T07:57:38Z</time>
      </trkpt>
      <trkpt lat="43.16501" lon="1.09441">
        <ele>317.56011963</ele>
        <time>2021-10-17T07:57:39Z</time>
      </trkpt>
      <trkpt lat="43.16503" lon="1.09439">
        <ele>317.62011719</ele>
        <time>2021-10-17T07:57:40Z</time>
      </trkpt>
      <trkpt lat="43.16506" lon="1.0944">
        <ele>317.80010986</ele>
        <time>2021-10-17T07:57:41Z</time>
      </trkpt>
      <trkpt lat="43.16507" lon="1.0944">
        <ele>318.1401062</ele>
        <time>2021-10-17T07:57:42Z</time>
      </trkpt>
      <trkpt lat="43.16509" lon="1.09439">
        <ele>318.40011597</ele>
        <time>2021-10-17T07:57:43Z</time>
      </trkpt>
      <trkpt lat="43.16513" lon="1.09438">
        <ele>318.79013062</ele>
        <time>2021-10-17T07:57:44Z</time>
      </trkpt>
      <trkpt lat="43.16516" lon="1.09436">
        <ele>319.12011719</ele>
        <time>2021-10-17T07:57:45Z</time>
      </trkpt>
      <trkpt lat="43.16519" lon="1.09435">
        <ele>319.51013184</ele>
        <time>2021-10-17T07:57:46Z</time>
      </trkpt>
      <trkpt lat="43.16521" lon="1.09435">
        <ele>319.95013428</ele>
        <time>2021-10-17T07:57:47Z</time>
      </trkpt>
      <trkpt lat="43.16525" lon="1.09433">
        <ele>320.29013062</ele>
        <time>2021-10-17T07:57:48Z</time>
      </trkpt>
      <trkpt lat="43.16527" lon="1.09433">
        <ele>320.58013916</ele>
        <time>2021-10-17T07:57:49Z</time>
      </trkpt>
      <trkpt lat="43.16529" lon="1.09432">
        <ele>320.75015259</ele>
        <time>2021-10-17T07:57:50Z</time>
      </trkpt>
      <trkpt lat="43.16531" lon="1.09429">
        <ele>320.92016602</ele>
        <time>2021-10-17T07:57:51Z</time>
      </trkpt>
      <trkpt lat="43.16535" lon="1.09427">
        <ele>321.14016724</ele>
        <time>2021-10-17T07:57:52Z</time>
      </trkpt>
      <trkpt lat="43.16537" lon="1.09426">
        <ele>321.36016846</ele>
        <time>2021-10-17T07:57:53Z</time>
      </trkpt>
      <trkpt lat="43.1654" lon="1.09424">
        <ele>321.57015991</ele>
        <time>2021-10-17T07:57:54Z</time>
      </trkpt>
      <trkpt lat="43.16542" lon="1.09423">
        <ele>321.73016357</ele>
        <time>2021-10-17T07:57:55Z</time>
      </trkpt>
      <trkpt lat="43.16544" lon="1.09421">
        <ele>322.04016113</ele>
        <time>2021-10-17T07:57:56Z</time>
      </trkpt>
      <trkpt lat="43.16548" lon="1.09419">
        <ele>322.04016113</ele>
        <time>2021-10-17T07:57:57Z</time>
      </trkpt>
      <trkpt lat="43.16549" lon="1.09418">
        <ele>322.21017456</ele>
        <time>2021-10-17T07:57:58Z</time>
      </trkpt>
      <trkpt lat="43.16551" lon="1.09417">
        <ele>322.47018433</ele>
        <time>2021-10-17T07:57:59Z</time>
      </trkpt>
      <trkpt lat="43.16553" lon="1.09416">
        <ele>322.70019531</ele>
        <time>2021-10-17T07:58:00Z</time>
      </trkpt>
      <trkpt lat="43.16555" lon="1.09415">
        <ele>322.94018555</ele>
        <time>2021-10-17T07:58:01Z</time>
      </trkpt>
      <trkpt lat="43.16559" lon="1.09411">
        <ele>323.19018555</ele>
        <time>2021-10-17T07:58:02Z</time>
      </trkpt>
      <trkpt lat="43.1656" lon="1.0941">
        <ele>323.36019897</ele>
        <time>2021-10-17T07:58:03Z</time>
      </trkpt>
      <trkpt lat="43.16562" lon="1.09408">
        <ele>323.63018799</ele>
        <time>2021-10-17T07:58:04Z</time>
      </trkpt>
      <trkpt lat="43.16564" lon="1.09407">
        <ele>323.87017822</ele>
        <time>2021-10-17T07:58:05Z</time>
      </trkpt>
      <trkpt lat="43.16566" lon="1.09405">
        <ele>324.08016968</ele>
        <time>2021-10-17T07:58:06Z</time>
      </trkpt>
      <trkpt lat="43.16568" lon="1.09403">
        <ele>324.34017944</ele>
        <time>2021-10-17T07:58:07Z</time>
      </trkpt>
      <trkpt lat="43.16569" lon="1.09401">
        <ele>324.59017944</ele>
        <time>2021-10-17T07:58:08Z</time>
      </trkpt>
      <trkpt lat="43.16571" lon="1.09399">
        <ele>324.91018677</ele>
        <time>2021-10-17T07:58:09Z</time>
      </trkpt>
      <trkpt lat="43.16573" lon="1.09397">
        <ele>325.21017456</ele>
        <time>2021-10-17T07:58:10Z</time>
      </trkpt>
      <trkpt lat="43.16575" lon="1.09395">
        <ele>325.52017212</ele>
        <time>2021-10-17T07:58:11Z</time>
      </trkpt>
      <trkpt lat="43.16577" lon="1.09393">
        <ele>325.77017212</ele>
        <time>2021-10-17T07:58:12Z</time>
      </trkpt>
      <trkpt lat="43.16579" lon="1.09391">
        <ele>326.01016235</ele>
        <time>2021-10-17T07:58:13Z</time>
      </trkpt>
      <trkpt lat="43.16582" lon="1.09389">
        <ele>326.31015015</ele>
        <time>2021-10-17T07:58:14Z</time>
      </trkpt>
      <trkpt lat="43.16585" lon="1.09386">
        <ele>326.53015137</ele>
        <time>2021-10-17T07:58:15Z</time>
      </trkpt>
      <trkpt lat="43.16587" lon="1.09384">
        <ele>326.76016235</ele>
        <time>2021-10-17T07:58:16Z</time>
      </trkpt>
      <trkpt lat="43.16589" lon="1.09382">
        <ele>327.00015259</ele>
        <time>2021-10-17T07:58:17Z</time>
      </trkpt>
      <trkpt lat="43.16591" lon="1.09381">
        <ele>327.22015381</ele>
        <time>2021-10-17T07:58:18Z</time>
      </trkpt>
      <trkpt lat="43.16593" lon="1.0938">
        <ele>327.55014038</ele>
        <time>2021-10-17T07:58:19Z</time>
      </trkpt>
      <trkpt lat="43.16596" lon="1.09377">
        <ele>327.80014038</ele>
        <time>2021-10-17T07:58:20Z</time>
      </trkpt>
      <trkpt lat="43.16597" lon="1.09375">
        <ele>328.00015259</ele>
        <time>2021-10-17T07:58:21Z</time>
      </trkpt>
      <trkpt lat="43.16599" lon="1.09373">
        <ele>328.17016602</ele>
        <time>2021-10-17T07:58:22Z</time>
      </trkpt>
      <trkpt lat="43.16601" lon="1.09371">
        <ele>328.3001709</ele>
        <time>2021-10-17T07:58:23Z</time>
      </trkpt>
      <trkpt lat="43.16605" lon="1.09368">
        <ele>328.47018433</ele>
        <time>2021-10-17T07:58:24Z</time>
      </trkpt>
      <trkpt lat="43.16608" lon="1.09366">
        <ele>328.59017944</ele>
        <time>2021-10-17T07:58:25Z</time>
      </trkpt>
      <trkpt lat="43.1661" lon="1.09363">
        <ele>328.74017334</ele>
        <time>2021-10-17T07:58:26Z</time>
      </trkpt>
      <trkpt lat="43.16611" lon="1.09361">
        <ele>328.84017944</ele>
        <time>2021-10-17T07:58:27Z</time>
      </trkpt>
      <trkpt lat="43.16613" lon="1.09359">
        <ele>329.00018311</ele>
        <time>2021-10-17T07:58:28Z</time>
      </trkpt>
      <trkpt lat="43.16615" lon="1.09355">
        <ele>329.23019409</ele>
        <time>2021-10-17T07:58:29Z</time>
      </trkpt>
      <trkpt lat="43.16617" lon="1.09352">
        <ele>329.40020752</ele>
        <time>2021-10-17T07:58:30Z</time>
      </trkpt>
      <trkpt lat="43.16618" lon="1.09348">
        <ele>329.61019897</ele>
        <time>2021-10-17T07:58:31Z</time>
      </trkpt>
      <trkpt lat="43.1662" lon="1.09345">
        <ele>329.7802124</ele>
        <time>2021-10-17T07:58:32Z</time>
      </trkpt>
      <trkpt lat="43.16622" lon="1.09341">
        <ele>329.97021484</ele>
        <time>2021-10-17T07:58:33Z</time>
      </trkpt>
      <trkpt lat="43.16624" lon="1.09338">
        <ele>330.22021484</ele>
        <time>2021-10-17T07:58:34Z</time>
      </trkpt>
      <trkpt lat="43.16625" lon="1.09335">
        <ele>330.49020386</ele>
        <time>2021-10-17T07:58:35Z</time>
      </trkpt>
      <trkpt lat="43.16626" lon="1.09332">
        <ele>330.77020264</ele>
        <time>2021-10-17T07:58:36Z</time>
      </trkpt>
      <trkpt lat="43.16627" lon="1.0933">
        <ele>331.00021362</ele>
        <time>2021-10-17T07:58:37Z</time>
      </trkpt>
      <trkpt lat="43.16629" lon="1.09325">
        <ele>331.25021362</ele>
        <time>2021-10-17T07:58:38Z</time>
      </trkpt>
      <trkpt lat="43.16629" lon="1.09323">
        <ele>331.50021362</ele>
        <time>2021-10-17T07:58:39Z</time>
      </trkpt>
      <trkpt lat="43.1663" lon="1.09319">
        <ele>331.72021484</ele>
        <time>2021-10-17T07:58:40Z</time>
      </trkpt>
      <trkpt lat="43.16631" lon="1.09316">
        <ele>331.95022583</ele>
        <time>2021-10-17T07:58:41Z</time>
      </trkpt>
      <trkpt lat="43.16631" lon="1.09314">
        <ele>332.15023804</ele>
        <time>2021-10-17T07:58:42Z</time>
      </trkpt>
      <trkpt lat="43.16633" lon="1.09309">
        <ele>332.34024048</ele>
        <time>2021-10-17T07:58:43Z</time>
      </trkpt>
      <trkpt lat="43.16633" lon="1.09306">
        <ele>332.51025391</ele>
        <time>2021-10-17T07:58:44Z</time>
      </trkpt>
      <trkpt lat="43.16634" lon="1.09303">
        <ele>332.67025757</ele>
        <time>2021-10-17T07:58:45Z</time>
      </trkpt>
      <trkpt lat="43.16635" lon="1.09298">
        <ele>332.80026245</ele>
        <time>2021-10-17T07:58:46Z</time>
      </trkpt>
      <trkpt lat="43.16635" lon="1.09295">
        <ele>332.87026978</ele>
        <time>2021-10-17T07:58:47Z</time>
      </trkpt>
      <trkpt lat="43.16636" lon="1.09293">
        <ele>333.00027466</ele>
        <time>2021-10-17T07:58:48Z</time>
      </trkpt>
      <trkpt lat="43.16638" lon="1.0929">
        <ele>333.13027954</ele>
        <time>2021-10-17T07:58:49Z</time>
      </trkpt>
      <trkpt lat="43.16639" lon="1.09287">
        <ele>333.27029419</ele>
        <time>2021-10-17T07:58:50Z</time>
      </trkpt>
      <trkpt lat="43.1664" lon="1.09282">
        <ele>333.42028809</ele>
        <time>2021-10-17T07:58:51Z</time>
      </trkpt>
      <trkpt lat="43.16641" lon="1.09279">
        <ele>333.52029419</ele>
        <time>2021-10-17T07:58:52Z</time>
      </trkpt>
      <trkpt lat="43.16641" lon="1.09275">
        <ele>333.60028076</ele>
        <time>2021-10-17T07:58:53Z</time>
      </trkpt>
      <trkpt lat="43.16642" lon="1.09271">
        <ele>333.590271</ele>
        <time>2021-10-17T07:58:54Z</time>
      </trkpt>
      <trkpt lat="43.16643" lon="1.09267">
        <ele>333.62026978</ele>
        <time>2021-10-17T07:58:55Z</time>
      </trkpt>
      <trkpt lat="43.16643" lon="1.09265">
        <ele>333.65026855</ele>
        <time>2021-10-17T07:58:56Z</time>
      </trkpt>
      <trkpt lat="43.16644" lon="1.09262">
        <ele>333.61026001</ele>
        <time>2021-10-17T07:58:57Z</time>
      </trkpt>
      <trkpt lat="43.16644" lon="1.09258">
        <ele>333.63024902</ele>
        <time>2021-10-17T07:58:58Z</time>
      </trkpt>
      <trkpt lat="43.16645" lon="1.09256">
        <ele>333.55026245</ele>
        <time>2021-10-17T07:58:59Z</time>
      </trkpt>
      <trkpt lat="43.16645" lon="1.0925">
        <ele>333.46026611</ele>
        <time>2021-10-17T07:59:00Z</time>
      </trkpt>
      <trkpt lat="43.16645" lon="1.09245">
        <ele>333.42025757</ele>
        <time>2021-10-17T07:59:01Z</time>
      </trkpt>
      <trkpt lat="43.16646" lon="1.09241">
        <ele>333.4102478</ele>
        <time>2021-10-17T07:59:02Z</time>
      </trkpt>
      <trkpt lat="43.16646" lon="1.09236">
        <ele>333.4102478</ele>
        <time>2021-10-17T07:59:03Z</time>
      </trkpt>
      <trkpt lat="43.16647" lon="1.0923">
        <ele>333.43023682</ele>
        <time>2021-10-17T07:59:04Z</time>
      </trkpt>
      <trkpt lat="43.16647" lon="1.09226">
        <ele>333.49023438</ele>
        <time>2021-10-17T07:59:05Z</time>
      </trkpt>
      <trkpt lat="43.16648" lon="1.09222">
        <ele>333.58023071</ele>
        <time>2021-10-17T07:59:06Z</time>
      </trkpt>
      <trkpt lat="43.16648" lon="1.09218">
        <ele>333.78024292</ele>
        <time>2021-10-17T07:59:07Z</time>
      </trkpt>
      <trkpt lat="43.16648" lon="1.09214">
        <ele>334.02023315</ele>
        <time>2021-10-17T07:59:08Z</time>
      </trkpt>
      <trkpt lat="43.16649" lon="1.09208">
        <ele>334.02023315</ele>
        <time>2021-10-17T07:59:09Z</time>
      </trkpt>
      <trkpt lat="43.16649" lon="1.09204">
        <ele>334.0602417</ele>
        <time>2021-10-17T07:59:10Z</time>
      </trkpt>
      <trkpt lat="43.16648" lon="1.092">
        <ele>334.09024048</ele>
        <time>2021-10-17T07:59:11Z</time>
      </trkpt>
      <trkpt lat="43.16649" lon="1.09197">
        <ele>334.15023804</ele>
        <time>2021-10-17T07:59:12Z</time>
      </trkpt>
      <trkpt lat="43.1665" lon="1.09191">
        <ele>334.39022827</ele>
        <time>2021-10-17T07:59:13Z</time>
      </trkpt>
      <trkpt lat="43.16651" lon="1.09188">
        <ele>334.65023804</ele>
        <time>2021-10-17T07:59:14Z</time>
      </trkpt>
      <trkpt lat="43.1665" lon="1.09184">
        <ele>334.84024048</ele>
        <time>2021-10-17T07:59:15Z</time>
      </trkpt>
      <trkpt lat="43.16649" lon="1.09181">
        <ele>335.24023438</ele>
        <time>2021-10-17T07:59:16Z</time>
      </trkpt>
      <trkpt lat="43.16646" lon="1.09177">
        <ele>335.50024414</ele>
        <time>2021-10-17T07:59:17Z</time>
      </trkpt>
      <trkpt lat="43.16644" lon="1.09171">
        <ele>335.79025269</ele>
        <time>2021-10-17T07:59:18Z</time>
      </trkpt>
      <trkpt lat="43.16644" lon="1.09168">
        <ele>336.13024902</ele>
        <time>2021-10-17T07:59:19Z</time>
      </trkpt>
      <trkpt lat="43.16645" lon="1.09165">
        <ele>336.24023438</ele>
        <time>2021-10-17T07:59:20Z</time>
      </trkpt>
      <trkpt lat="43.16646" lon="1.09162">
        <ele>336.34024048</ele>
        <time>2021-10-17T07:59:21Z</time>
      </trkpt>
      <trkpt lat="43.16646" lon="1.09159">
        <ele>336.43023682</ele>
        <time>2021-10-17T07:59:22Z</time>
      </trkpt>
      <trkpt lat="43.16647" lon="1.09156">
        <ele>336.52023315</ele>
        <time>2021-10-17T07:59:23Z</time>
      </trkpt>
      <trkpt lat="43.16649" lon="1.09155">
        <ele>336.62023926</ele>
        <time>2021-10-17T07:59:24Z</time>
      </trkpt>
      <trkpt lat="43.16649" lon="1.09152">
        <ele>336.7102356</ele>
        <time>2021-10-17T07:59:25Z</time>
      </trkpt>
      <trkpt lat="43.16649" lon="1.09148">
        <ele>336.7102356</ele>
        <time>2021-10-17T07:59:26Z</time>
      </trkpt>
      <trkpt lat="43.16647" lon="1.09141">
        <ele>336.68023682</ele>
        <time>2021-10-17T07:59:27Z</time>
      </trkpt>
      <trkpt lat="43.16647" lon="1.09137">
        <ele>336.58023071</ele>
        <time>2021-10-17T07:59:28Z</time>
      </trkpt>
      <trkpt lat="43.16649" lon="1.09134">
        <ele>336.54022217</ele>
        <time>2021-10-17T07:59:29Z</time>
      </trkpt>
      <trkpt lat="43.1665" lon="1.09131">
        <ele>336.52023315</ele>
        <time>2021-10-17T07:59:30Z</time>
      </trkpt>
      <trkpt lat="43.1665" lon="1.09129">
        <ele>336.54022217</ele>
        <time>2021-10-17T07:59:31Z</time>
      </trkpt>
      <trkpt lat="43.1665" lon="1.09127">
        <ele>336.62020874</ele>
        <time>2021-10-17T07:59:32Z</time>
      </trkpt>
      <trkpt lat="43.1665" lon="1.09125">
        <ele>336.6802063</ele>
        <time>2021-10-17T07:59:33Z</time>
      </trkpt>
      <trkpt lat="43.16646" lon="1.09118">
        <ele>336.9302063</ele>
        <time>2021-10-17T07:59:43Z</time>
      </trkpt>
      <trkpt lat="43.16647" lon="1.09116">
        <ele>336.92019653</ele>
        <time>2021-10-17T07:59:44Z</time>
      </trkpt>
      <trkpt lat="43.16648" lon="1.09112">
        <ele>336.92019653</ele>
        <time>2021-10-17T07:59:45Z</time>
      </trkpt>
      <trkpt lat="43.16648" lon="1.0911">
        <ele>337.02020264</ele>
        <time>2021-10-17T07:59:46Z</time>
      </trkpt>
      <trkpt lat="43.16649" lon="1.09108">
        <ele>337.07019043</ele>
        <time>2021-10-17T07:59:47Z</time>
      </trkpt>
      <trkpt lat="43.1665" lon="1.09108">
        <ele>337.25018311</ele>
        <time>2021-10-17T07:59:48Z</time>
      </trkpt>
      <trkpt lat="43.16651" lon="1.09108">
        <ele>337.53018188</ele>
        <time>2021-10-17T07:59:49Z</time>
      </trkpt>
      <trkpt lat="43.16654" lon="1.09107">
        <ele>337.79019165</ele>
        <time>2021-10-17T07:59:50Z</time>
      </trkpt>
      <trkpt lat="43.16655" lon="1.09107">
        <ele>338.11019897</ele>
        <time>2021-10-17T07:59:51Z</time>
      </trkpt>
      <trkpt lat="43.16656" lon="1.09108">
        <ele>338.5302124</ele>
        <time>2021-10-17T07:59:52Z</time>
      </trkpt>
      <trkpt lat="43.16657" lon="1.09109">
        <ele>338.90020752</ele>
        <time>2021-10-17T07:59:53Z</time>
      </trkpt>
      <trkpt lat="43.16659" lon="1.09112">
        <ele>339.29022217</ele>
        <time>2021-10-17T07:59:54Z</time>
      </trkpt>
      <trkpt lat="43.1666" lon="1.09114">
        <ele>339.70022583</ele>
        <time>2021-10-17T07:59:55Z</time>
      </trkpt>
      <trkpt lat="43.16661" lon="1.09115">
        <ele>339.97021484</ele>
        <time>2021-10-17T07:59:56Z</time>
      </trkpt>
      <trkpt lat="43.16662" lon="1.09117">
        <ele>340.32022095</ele>
        <time>2021-10-17T07:59:57Z</time>
      </trkpt>
      <trkpt lat="43.16664" lon="1.09118">
        <ele>340.62020874</ele>
        <time>2021-10-17T07:59:58Z</time>
      </trkpt>
      <trkpt lat="43.16665" lon="1.0912">
        <ele>340.90020752</ele>
        <time>2021-10-17T07:59:59Z</time>
      </trkpt>
      <trkpt lat="43.16667" lon="1.09121">
        <ele>341.23019409</ele>
        <time>2021-10-17T08:00:00Z</time>
      </trkpt>
      <trkpt lat="43.16667" lon="1.09121">
        <ele>341.55020142</ele>
        <time>2021-10-17T08:00:01Z</time>
      </trkpt>
      <trkpt lat="43.16669" lon="1.09121">
        <ele>341.90020752</ele>
        <time>2021-10-17T08:00:02Z</time>
      </trkpt>
      <trkpt lat="43.1667" lon="1.0912">
        <ele>342.30020142</ele>
        <time>2021-10-17T08:00:03Z</time>
      </trkpt>
      <trkpt lat="43.16671" lon="1.09119">
        <ele>342.76019287</ele>
        <time>2021-10-17T08:00:04Z</time>
      </trkpt>
      <trkpt lat="43.16671" lon="1.09117">
        <ele>343.11019897</ele>
        <time>2021-10-17T08:00:05Z</time>
      </trkpt>
      <trkpt lat="43.16672" lon="1.09115">
        <ele>343.5302124</ele>
        <time>2021-10-17T08:00:06Z</time>
      </trkpt>
      <trkpt lat="43.16672" lon="1.09112">
        <ele>343.90020752</ele>
        <time>2021-10-17T08:00:07Z</time>
      </trkpt>
      <trkpt lat="43.16672" lon="1.0911">
        <ele>344.24020386</ele>
        <time>2021-10-17T08:00:08Z</time>
      </trkpt>
      <trkpt lat="43.16674" lon="1.09108">
        <ele>344.70019531</ele>
        <time>2021-10-17T08:00:09Z</time>
      </trkpt>
      <trkpt lat="43.16675" lon="1.09106">
        <ele>345.13018799</ele>
        <time>2021-10-17T08:00:10Z</time>
      </trkpt>
      <trkpt lat="43.16676" lon="1.09104">
        <ele>345.67019653</ele>
        <time>2021-10-17T08:00:11Z</time>
      </trkpt>
      <trkpt lat="43.16677" lon="1.09104">
        <ele>346.1802063</ele>
        <time>2021-10-17T08:00:12Z</time>
      </trkpt>
      <trkpt lat="43.16678" lon="1.09104">
        <ele>346.71020508</ele>
        <time>2021-10-17T08:00:13Z</time>
      </trkpt>
      <trkpt lat="43.1668" lon="1.09103">
        <ele>347.25021362</ele>
        <time>2021-10-17T08:00:14Z</time>
      </trkpt>
      <trkpt lat="43.16682" lon="1.09102">
        <ele>347.82022095</ele>
        <time>2021-10-17T08:00:15Z</time>
      </trkpt>
      <trkpt lat="43.16685" lon="1.09101">
        <ele>348.2802124</ele>
        <time>2021-10-17T08:00:16Z</time>
      </trkpt>
      <trkpt lat="43.16689" lon="1.091">
        <ele>348.79022217</ele>
        <time>2021-10-17T08:00:17Z</time>
      </trkpt>
      <trkpt lat="43.16692" lon="1.09098">
        <ele>349.18023682</ele>
        <time>2021-10-17T08:00:18Z</time>
      </trkpt>
      <trkpt lat="43.16694" lon="1.09096">
        <ele>349.4602356</ele>
        <time>2021-10-17T08:00:19Z</time>
      </trkpt>
      <trkpt lat="43.16696" lon="1.09094">
        <ele>349.83023071</ele>
        <time>2021-10-17T08:00:20Z</time>
      </trkpt>
      <trkpt lat="43.16698" lon="1.09092">
        <ele>350.15023804</ele>
        <time>2021-10-17T08:00:21Z</time>
      </trkpt>
      <trkpt lat="43.167" lon="1.0909">
        <ele>350.47024536</ele>
        <time>2021-10-17T08:00:22Z</time>
      </trkpt>
      <trkpt lat="43.16702" lon="1.09089">
        <ele>350.70025635</ele>
        <time>2021-10-17T08:00:23Z</time>
      </trkpt>
      <trkpt lat="43.16704" lon="1.09086">
        <ele>350.96026611</ele>
        <time>2021-10-17T08:00:24Z</time>
      </trkpt>
      <trkpt lat="43.16705" lon="1.09084">
        <ele>351.12026978</ele>
        <time>2021-10-17T08:00:25Z</time>
      </trkpt>
      <trkpt lat="43.16707" lon="1.0908">
        <ele>351.20025635</ele>
        <time>2021-10-17T08:00:26Z</time>
      </trkpt>
      <trkpt lat="43.16709" lon="1.09077">
        <ele>351.32025146</ele>
        <time>2021-10-17T08:00:27Z</time>
      </trkpt>
      <trkpt lat="43.1671" lon="1.09074">
        <ele>351.34024048</ele>
        <time>2021-10-17T08:00:28Z</time>
      </trkpt>
      <trkpt lat="43.16711" lon="1.09071">
        <ele>351.32025146</ele>
        <time>2021-10-17T08:00:29Z</time>
      </trkpt>
      <trkpt lat="43.16714" lon="1.09066">
        <ele>351.39025879</ele>
        <time>2021-10-17T08:00:30Z</time>
      </trkpt>
      <trkpt lat="43.16715" lon="1.09063">
        <ele>351.38024902</ele>
        <time>2021-10-17T08:00:31Z</time>
      </trkpt>
      <trkpt lat="43.16715" lon="1.09059">
        <ele>351.37023926</ele>
        <time>2021-10-17T08:00:32Z</time>
      </trkpt>
      <trkpt lat="43.16717" lon="1.09056">
        <ele>351.34024048</ele>
        <time>2021-10-17T08:00:33Z</time>
      </trkpt>
      <trkpt lat="43.16718" lon="1.0905">
        <ele>351.09024048</ele>
        <time>2021-10-17T08:00:34Z</time>
      </trkpt>
      <trkpt lat="43.16718" lon="1.09047">
        <ele>350.9602356</ele>
        <time>2021-10-17T08:00:35Z</time>
      </trkpt>
      <trkpt lat="43.16718" lon="1.09043">
        <ele>350.83023071</ele>
        <time>2021-10-17T08:00:36Z</time>
      </trkpt>
      <trkpt lat="43.16719" lon="1.09039">
        <ele>350.60021973</ele>
        <time>2021-10-17T08:00:37Z</time>
      </trkpt>
      <trkpt lat="43.16719" lon="1.09035">
        <ele>350.63021851</ele>
        <time>2021-10-17T08:00:38Z</time>
      </trkpt>
      <trkpt lat="43.1672" lon="1.09029">
        <ele>350.58023071</ele>
        <time>2021-10-17T08:00:39Z</time>
      </trkpt>
      <trkpt lat="43.16721" lon="1.09026">
        <ele>350.58023071</ele>
        <time>2021-10-17T08:00:40Z</time>
      </trkpt>
      <trkpt lat="43.16721" lon="1.09022">
        <ele>350.68023682</ele>
        <time>2021-10-17T08:00:41Z</time>
      </trkpt>
      <trkpt lat="43.16722" lon="1.09019">
        <ele>350.75024414</ele>
        <time>2021-10-17T08:00:42Z</time>
      </trkpt>
      <trkpt lat="43.16723" lon="1.09014">
        <ele>350.86022949</ele>
        <time>2021-10-17T08:00:43Z</time>
      </trkpt>
      <trkpt lat="43.16723" lon="1.0901">
        <ele>350.94021606</ele>
        <time>2021-10-17T08:00:44Z</time>
      </trkpt>
      <trkpt lat="43.16723" lon="1.09006">
        <ele>351.05020142</ele>
        <time>2021-10-17T08:00:45Z</time>
      </trkpt>
      <trkpt lat="43.16722" lon="1.09002">
        <ele>351.11019897</ele>
        <time>2021-10-17T08:00:46Z</time>
      </trkpt>
      <trkpt lat="43.16721" lon="1.08999">
        <ele>351.14019775</ele>
        <time>2021-10-17T08:00:47Z</time>
      </trkpt>
      <trkpt lat="43.16719" lon="1.08993">
        <ele>351.20019531</ele>
        <time>2021-10-17T08:00:48Z</time>
      </trkpt>
      <trkpt lat="43.16717" lon="1.0899">
        <ele>351.20019531</ele>
        <time>2021-10-17T08:00:49Z</time>
      </trkpt>
      <trkpt lat="43.16715" lon="1.08987">
        <ele>351.1802063</ele>
        <time>2021-10-17T08:00:50Z</time>
      </trkpt>
      <trkpt lat="43.16714" lon="1.08983">
        <ele>351.25021362</ele>
        <time>2021-10-17T08:00:51Z</time>
      </trkpt>
      <trkpt lat="43.16712" lon="1.08978">
        <ele>351.26022339</ele>
        <time>2021-10-17T08:00:52Z</time>
      </trkpt>
      <trkpt lat="43.16711" lon="1.08975">
        <ele>351.34020996</ele>
        <time>2021-10-17T08:00:53Z</time>
      </trkpt>
      <trkpt lat="43.1671" lon="1.08971">
        <ele>351.44021606</ele>
        <time>2021-10-17T08:00:54Z</time>
      </trkpt>
      <trkpt lat="43.16709" lon="1.08968">
        <ele>351.45022583</ele>
        <time>2021-10-17T08:00:55Z</time>
      </trkpt>
      <trkpt lat="43.16708" lon="1.08964">
        <ele>351.55023193</ele>
        <time>2021-10-17T08:00:56Z</time>
      </trkpt>
      <trkpt lat="43.16706" lon="1.08959">
        <ele>351.64022827</ele>
        <time>2021-10-17T08:00:57Z</time>
      </trkpt>
      <trkpt lat="43.16704" lon="1.08956">
        <ele>351.75021362</ele>
        <time>2021-10-17T08:00:58Z</time>
      </trkpt>
      <trkpt lat="43.16703" lon="1.08953">
        <ele>351.91021729</ele>
        <time>2021-10-17T08:00:59Z</time>
      </trkpt>
      <trkpt lat="43.16702" lon="1.0895">
        <ele>352.00021362</ele>
        <time>2021-10-17T08:01:00Z</time>
      </trkpt>
      <trkpt lat="43.167" lon="1.08946">
        <ele>352.0802002</ele>
        <time>2021-10-17T08:01:01Z</time>
      </trkpt>
      <trkpt lat="43.16699" lon="1.08943">
        <ele>352.19018555</ele>
        <time>2021-10-17T08:01:02Z</time>
      </trkpt>
      <trkpt lat="43.16698" lon="1.0894">
        <ele>352.31018066</ele>
        <time>2021-10-17T08:01:03Z</time>
      </trkpt>
      <trkpt lat="43.16697" lon="1.08937">
        <ele>352.44018555</ele>
        <time>2021-10-17T08:01:04Z</time>
      </trkpt>
      <trkpt lat="43.16696" lon="1.08934">
        <ele>352.59017944</ele>
        <time>2021-10-17T08:01:05Z</time>
      </trkpt>
      <trkpt lat="43.16694" lon="1.08931">
        <ele>352.74017334</ele>
        <time>2021-10-17T08:01:06Z</time>
      </trkpt>
      <trkpt lat="43.16693" lon="1.08928">
        <ele>352.89016724</ele>
        <time>2021-10-17T08:01:07Z</time>
      </trkpt>
      <trkpt lat="43.16693" lon="1.08925">
        <ele>353.03018188</ele>
        <time>2021-10-17T08:01:08Z</time>
      </trkpt>
      <trkpt lat="43.16692" lon="1.08922">
        <ele>353.26019287</ele>
        <time>2021-10-17T08:01:09Z</time>
      </trkpt>
      <trkpt lat="43.16691" lon="1.0892">
        <ele>353.42019653</ele>
        <time>2021-10-17T08:01:10Z</time>
      </trkpt>
      <trkpt lat="43.1669" lon="1.08916">
        <ele>353.54019165</ele>
        <time>2021-10-17T08:01:11Z</time>
      </trkpt>
      <trkpt lat="43.16689" lon="1.08913">
        <ele>353.67019653</ele>
        <time>2021-10-17T08:01:12Z</time>
      </trkpt>
      <trkpt lat="43.16688" lon="1.0891">
        <ele>353.90020752</ele>
        <time>2021-10-17T08:01:13Z</time>
      </trkpt>
      <trkpt lat="43.16688" lon="1.08908">
        <ele>354.0302124</ele>
        <time>2021-10-17T08:01:14Z</time>
      </trkpt>
      <trkpt lat="43.16687" lon="1.08903">
        <ele>354.16021729</ele>
        <time>2021-10-17T08:01:15Z</time>
      </trkpt>
      <trkpt lat="43.16687" lon="1.08901">
        <ele>354.39022827</ele>
        <time>2021-10-17T08:01:16Z</time>
      </trkpt>
      <trkpt lat="43.16686" lon="1.08898">
        <ele>354.43023682</ele>
        <time>2021-10-17T08:01:17Z</time>
      </trkpt>
      <trkpt lat="43.16686" lon="1.08895">
        <ele>354.60025024</ele>
        <time>2021-10-17T08:01:18Z</time>
      </trkpt>
      <trkpt lat="43.16686" lon="1.08892">
        <ele>354.79025269</ele>
        <time>2021-10-17T08:01:19Z</time>
      </trkpt>
      <trkpt lat="43.16686" lon="1.08888">
        <ele>354.83026123</ele>
        <time>2021-10-17T08:01:20Z</time>
      </trkpt>
      <trkpt lat="43.16686" lon="1.08885">
        <ele>354.95025635</ele>
        <time>2021-10-17T08:01:21Z</time>
      </trkpt>
      <trkpt lat="43.16686" lon="1.08882">
        <ele>355.04025269</ele>
        <time>2021-10-17T08:01:22Z</time>
      </trkpt>
      <trkpt lat="43.16686" lon="1.08879">
        <ele>355.12023926</ele>
        <time>2021-10-17T08:01:23Z</time>
      </trkpt>
      <trkpt lat="43.16686" lon="1.08875">
        <ele>355.25024414</ele>
        <time>2021-10-17T08:01:24Z</time>
      </trkpt>
      <trkpt lat="43.16687" lon="1.08873">
        <ele>355.34024048</ele>
        <time>2021-10-17T08:01:25Z</time>
      </trkpt>
      <trkpt lat="43.16687" lon="1.0887">
        <ele>355.4602356</ele>
        <time>2021-10-17T08:01:26Z</time>
      </trkpt>
      <trkpt lat="43.16688" lon="1.08867">
        <ele>355.60025024</ele>
        <time>2021-10-17T08:01:27Z</time>
      </trkpt>
      <trkpt lat="43.16689" lon="1.08865">
        <ele>355.70025635</ele>
        <time>2021-10-17T08:01:28Z</time>
      </trkpt>
      <trkpt lat="43.1669" lon="1.08862">
        <ele>355.85025024</ele>
        <time>2021-10-17T08:01:29Z</time>
      </trkpt>
      <trkpt lat="43.16691" lon="1.08859">
        <ele>356.01025391</ele>
        <time>2021-10-17T08:01:30Z</time>
      </trkpt>
      <trkpt lat="43.16692" lon="1.08857">
        <ele>356.17025757</ele>
        <time>2021-10-17T08:01:31Z</time>
      </trkpt>
      <trkpt lat="43.16693" lon="1.08855">
        <ele>356.35025024</ele>
        <time>2021-10-17T08:01:32Z</time>
      </trkpt>
      <trkpt lat="43.16695" lon="1.08852">
        <ele>356.50024414</ele>
        <time>2021-10-17T08:01:33Z</time>
      </trkpt>
      <trkpt lat="43.16697" lon="1.0885">
        <ele>356.60025024</ele>
        <time>2021-10-17T08:01:34Z</time>
      </trkpt>
      <trkpt lat="43.16699" lon="1.08849">
        <ele>356.72024536</ele>
        <time>2021-10-17T08:01:35Z</time>
      </trkpt>
      <trkpt lat="43.16701" lon="1.08848">
        <ele>356.84024048</ele>
        <time>2021-10-17T08:01:36Z</time>
      </trkpt>
      <trkpt lat="43.16703" lon="1.08846">
        <ele>356.93023682</ele>
        <time>2021-10-17T08:01:37Z</time>
      </trkpt>
      <trkpt lat="43.16704" lon="1.08844">
        <ele>356.98022461</ele>
        <time>2021-10-17T08:01:38Z</time>
      </trkpt>
      <trkpt lat="43.16706" lon="1.08843">
        <ele>357.02023315</ele>
        <time>2021-10-17T08:01:39Z</time>
      </trkpt>
      <trkpt lat="43.16708" lon="1.08842">
        <ele>357.19024658</ele>
        <time>2021-10-17T08:01:40Z</time>
      </trkpt>
      <trkpt lat="43.16709" lon="1.08841">
        <ele>357.37023926</ele>
        <time>2021-10-17T08:01:41Z</time>
      </trkpt>
      <trkpt lat="43.16712" lon="1.08839">
        <ele>357.62023926</ele>
        <time>2021-10-17T08:01:42Z</time>
      </trkpt>
      <trkpt lat="43.16714" lon="1.08838">
        <ele>357.82025146</ele>
        <time>2021-10-17T08:01:43Z</time>
      </trkpt>
      <trkpt lat="43.16715" lon="1.08837">
        <ele>357.95025635</ele>
        <time>2021-10-17T08:01:44Z</time>
      </trkpt>
      <trkpt lat="43.16717" lon="1.08836">
        <ele>358.090271</ele>
        <time>2021-10-17T08:01:45Z</time>
      </trkpt>
      <trkpt lat="43.16719" lon="1.08835">
        <ele>358.23028564</ele>
        <time>2021-10-17T08:01:46Z</time>
      </trkpt>
      <trkpt lat="43.16722" lon="1.08834">
        <ele>358.32028198</ele>
        <time>2021-10-17T08:01:47Z</time>
      </trkpt>
      <trkpt lat="43.16723" lon="1.08833">
        <ele>358.40026855</ele>
        <time>2021-10-17T08:01:48Z</time>
      </trkpt>
      <trkpt lat="43.16725" lon="1.08832">
        <ele>358.46026611</ele>
        <time>2021-10-17T08:01:49Z</time>
      </trkpt>
      <trkpt lat="43.16727" lon="1.08832">
        <ele>358.590271</ele>
        <time>2021-10-17T08:01:50Z</time>
      </trkpt>
      <trkpt lat="43.1673" lon="1.08831">
        <ele>358.74026489</ele>
        <time>2021-10-17T08:01:51Z</time>
      </trkpt>
      <trkpt lat="43.16732" lon="1.08831">
        <ele>358.87026978</ele>
        <time>2021-10-17T08:01:52Z</time>
      </trkpt>
      <trkpt lat="43.16734" lon="1.0883">
        <ele>359.01028442</ele>
        <time>2021-10-17T08:01:53Z</time>
      </trkpt>
      <trkpt lat="43.16736" lon="1.08829">
        <ele>359.090271</ele>
        <time>2021-10-17T08:01:54Z</time>
      </trkpt>
      <trkpt lat="43.16738" lon="1.08829">
        <ele>359.17025757</ele>
        <time>2021-10-17T08:01:55Z</time>
      </trkpt>
      <trkpt lat="43.16741" lon="1.08828">
        <ele>359.22024536</ele>
        <time>2021-10-17T08:01:56Z</time>
      </trkpt>
      <trkpt lat="43.16743" lon="1.08826">
        <ele>359.32025146</ele>
        <time>2021-10-17T08:01:57Z</time>
      </trkpt>
      <trkpt lat="43.16744" lon="1.08825">
        <ele>359.45025635</ele>
        <time>2021-10-17T08:01:58Z</time>
      </trkpt>
      <trkpt lat="43.16746" lon="1.08824">
        <ele>359.64025879</ele>
        <time>2021-10-17T08:01:59Z</time>
      </trkpt>
      <trkpt lat="43.16748" lon="1.08822">
        <ele>359.86026001</ele>
        <time>2021-10-17T08:02:00Z</time>
      </trkpt>
      <trkpt lat="43.16749" lon="1.0882">
        <ele>360.06027222</ele>
        <time>2021-10-17T08:02:01Z</time>
      </trkpt>
      <trkpt lat="43.1675" lon="1.08818">
        <ele>360.27026367</ele>
        <time>2021-10-17T08:02:02Z</time>
      </trkpt>
      <trkpt lat="43.16751" lon="1.08815">
        <ele>360.50027466</ele>
        <time>2021-10-17T08:02:03Z</time>
      </trkpt>
      <trkpt lat="43.16752" lon="1.08812">
        <ele>360.68026733</ele>
        <time>2021-10-17T08:02:04Z</time>
      </trkpt>
      <trkpt lat="43.16753" lon="1.0881">
        <ele>360.98025513</ele>
        <time>2021-10-17T08:02:05Z</time>
      </trkpt>
      <trkpt lat="43.16754" lon="1.08807">
        <ele>361.29025269</ele>
        <time>2021-10-17T08:02:06Z</time>
      </trkpt>
      <trkpt lat="43.16755" lon="1.08805">
        <ele>361.61026001</ele>
        <time>2021-10-17T08:02:07Z</time>
      </trkpt>
      <trkpt lat="43.16756" lon="1.08803">
        <ele>362.05026245</ele>
        <time>2021-10-17T08:02:08Z</time>
      </trkpt>
      <trkpt lat="43.16757" lon="1.08799">
        <ele>362.33026123</ele>
        <time>2021-10-17T08:02:09Z</time>
      </trkpt>
      <trkpt lat="43.16758" lon="1.08796">
        <ele>362.60025024</ele>
        <time>2021-10-17T08:02:10Z</time>
      </trkpt>
      <trkpt lat="43.16759" lon="1.08794">
        <ele>362.95025635</ele>
        <time>2021-10-17T08:02:11Z</time>
      </trkpt>
      <trkpt lat="43.1676" lon="1.08792">
        <ele>363.18026733</ele>
        <time>2021-10-17T08:02:12Z</time>
      </trkpt>
      <trkpt lat="43.16761" lon="1.08789">
        <ele>363.55026245</ele>
        <time>2021-10-17T08:02:13Z</time>
      </trkpt>
      <trkpt lat="43.16762" lon="1.08786">
        <ele>363.840271</ele>
        <time>2021-10-17T08:02:14Z</time>
      </trkpt>
      <trkpt lat="43.16763" lon="1.08784">
        <ele>364.0402832</ele>
        <time>2021-10-17T08:02:15Z</time>
      </trkpt>
      <trkpt lat="43.16764" lon="1.08781">
        <ele>364.36029053</ele>
        <time>2021-10-17T08:02:16Z</time>
      </trkpt>
      <trkpt lat="43.16765" lon="1.08779">
        <ele>364.64028931</ele>
        <time>2021-10-17T08:02:17Z</time>
      </trkpt>
      <trkpt lat="43.16767" lon="1.08775">
        <ele>365.02029419</ele>
        <time>2021-10-17T08:02:18Z</time>
      </trkpt>
      <trkpt lat="43.16768" lon="1.08773">
        <ele>365.44030762</ele>
        <time>2021-10-17T08:02:19Z</time>
      </trkpt>
      <trkpt lat="43.16768" lon="1.0877">
        <ele>365.85031128</ele>
        <time>2021-10-17T08:02:20Z</time>
      </trkpt>
      <trkpt lat="43.16769" lon="1.08768">
        <ele>366.62030029</ele>
        <time>2021-10-17T08:02:21Z</time>
      </trkpt>
      <trkpt lat="43.1677" lon="1.08765">
        <ele>366.95028687</ele>
        <time>2021-10-17T08:02:22Z</time>
      </trkpt>
      <trkpt lat="43.16771" lon="1.08762">
        <ele>367.26028442</ele>
        <time>2021-10-17T08:02:23Z</time>
      </trkpt>
      <trkpt lat="43.16772" lon="1.0876">
        <ele>367.50027466</ele>
        <time>2021-10-17T08:02:24Z</time>
      </trkpt>
      <trkpt lat="43.16773" lon="1.08758">
        <ele>367.85028076</ele>
        <time>2021-10-17T08:02:25Z</time>
      </trkpt>
      <trkpt lat="43.16774" lon="1.08756">
        <ele>368.16027832</ele>
        <time>2021-10-17T08:02:26Z</time>
      </trkpt>
      <trkpt lat="43.16775" lon="1.08753">
        <ele>368.48028564</ele>
        <time>2021-10-17T08:02:27Z</time>
      </trkpt>
      <trkpt lat="43.16776" lon="1.08751">
        <ele>368.88027954</ele>
        <time>2021-10-17T08:02:28Z</time>
      </trkpt>
      <trkpt lat="43.16777" lon="1.08749">
        <ele>369.18026733</ele>
        <time>2021-10-17T08:02:29Z</time>
      </trkpt>
      <trkpt lat="43.16778" lon="1.08746">
        <ele>369.52026367</ele>
        <time>2021-10-17T08:02:30Z</time>
      </trkpt>
      <trkpt lat="43.16779" lon="1.08744">
        <ele>369.81027222</ele>
        <time>2021-10-17T08:02:31Z</time>
      </trkpt>
      <trkpt lat="43.1678" lon="1.08741">
        <ele>370.13027954</ele>
        <time>2021-10-17T08:02:32Z</time>
      </trkpt>
      <trkpt lat="43.1678" lon="1.08739">
        <ele>370.52029419</ele>
        <time>2021-10-17T08:02:33Z</time>
      </trkpt>
      <trkpt lat="43.16781" lon="1.08736">
        <ele>370.84030151</ele>
        <time>2021-10-17T08:02:34Z</time>
      </trkpt>
      <trkpt lat="43.16782" lon="1.08734">
        <ele>371.14028931</ele>
        <time>2021-10-17T08:02:35Z</time>
      </trkpt>
      <trkpt lat="43.16783" lon="1.08731">
        <ele>371.47027588</ele>
        <time>2021-10-17T08:02:36Z</time>
      </trkpt>
      <trkpt lat="43.16783" lon="1.08728">
        <ele>371.7902832</ele>
        <time>2021-10-17T08:02:37Z</time>
      </trkpt>
      <trkpt lat="43.16784" lon="1.08726">
        <ele>372.10028076</ele>
        <time>2021-10-17T08:02:38Z</time>
      </trkpt>
      <trkpt lat="43.16784" lon="1.08724">
        <ele>372.61029053</ele>
        <time>2021-10-17T08:02:39Z</time>
      </trkpt>
      <trkpt lat="43.16785" lon="1.08721">
        <ele>372.99029541</ele>
        <time>2021-10-17T08:02:40Z</time>
      </trkpt>
      <trkpt lat="43.16785" lon="1.08718">
        <ele>373.42028809</ele>
        <time>2021-10-17T08:02:41Z</time>
      </trkpt>
      <trkpt lat="43.16786" lon="1.08716">
        <ele>373.87030029</ele>
        <time>2021-10-17T08:02:42Z</time>
      </trkpt>
      <trkpt lat="43.16786" lon="1.08714">
        <ele>374.27029419</ele>
        <time>2021-10-17T08:02:43Z</time>
      </trkpt>
      <trkpt lat="43.16787" lon="1.08712">
        <ele>374.59030151</ele>
        <time>2021-10-17T08:02:44Z</time>
      </trkpt>
      <trkpt lat="43.16788" lon="1.08709">
        <ele>375.02029419</ele>
        <time>2021-10-17T08:02:45Z</time>
      </trkpt>
      <trkpt lat="43.16789" lon="1.08707">
        <ele>375.2902832</ele>
        <time>2021-10-17T08:02:46Z</time>
      </trkpt>
      <trkpt lat="43.1679" lon="1.08706">
        <ele>375.90026855</ele>
        <time>2021-10-17T08:02:47Z</time>
      </trkpt>
      <trkpt lat="43.16791" lon="1.08705">
        <ele>375.90026855</ele>
        <time>2021-10-17T08:02:48Z</time>
      </trkpt>
      <trkpt lat="43.16793" lon="1.08702">
        <ele>376.08026123</ele>
        <time>2021-10-17T08:02:49Z</time>
      </trkpt>
      <trkpt lat="43.16794" lon="1.08701">
        <ele>376.82025146</ele>
        <time>2021-10-17T08:02:50Z</time>
      </trkpt>
      <trkpt lat="43.16795" lon="1.087">
        <ele>376.82025146</ele>
        <time>2021-10-17T08:02:51Z</time>
      </trkpt>
      <trkpt lat="43.16797" lon="1.08699">
        <ele>377.14025879</ele>
        <time>2021-10-17T08:02:52Z</time>
      </trkpt>
      <trkpt lat="43.16798" lon="1.08697">
        <ele>377.51025391</ele>
        <time>2021-10-17T08:02:53Z</time>
      </trkpt>
      <trkpt lat="43.168" lon="1.08695">
        <ele>377.71026611</ele>
        <time>2021-10-17T08:02:54Z</time>
      </trkpt>
      <trkpt lat="43.16802" lon="1.08694">
        <ele>377.98025513</ele>
        <time>2021-10-17T08:02:55Z</time>
      </trkpt>
      <trkpt lat="43.16803" lon="1.08692">
        <ele>378.19024658</ele>
        <time>2021-10-17T08:02:56Z</time>
      </trkpt>
      <trkpt lat="43.16804" lon="1.0869">
        <ele>378.52023315</ele>
        <time>2021-10-17T08:02:57Z</time>
      </trkpt>
      <trkpt lat="43.16805" lon="1.08689">
        <ele>378.88021851</ele>
        <time>2021-10-17T08:02:58Z</time>
      </trkpt>
      <trkpt lat="43.16805" lon="1.08685">
        <ele>378.30023193</ele>
        <time>2021-10-17T08:04:58Z</time>
      </trkpt>
      <trkpt lat="43.16804" lon="1.08684">
        <ele>378.32022095</ele>
        <time>2021-10-17T08:04:59Z</time>
      </trkpt>
      <trkpt lat="43.16802" lon="1.08683">
        <ele>378.30023193</ele>
        <time>2021-10-17T08:05:00Z</time>
      </trkpt>
      <trkpt lat="43.168" lon="1.08682">
        <ele>378.33023071</ele>
        <time>2021-10-17T08:05:01Z</time>
      </trkpt>
      <trkpt lat="43.16798" lon="1.0868">
        <ele>378.45022583</ele>
        <time>2021-10-17T08:05:02Z</time>
      </trkpt>
      <trkpt lat="43.16796" lon="1.08679">
        <ele>378.52023315</ele>
        <time>2021-10-17T08:05:03Z</time>
      </trkpt>
      <trkpt lat="43.16794" lon="1.08676">
        <ele>378.74023438</ele>
        <time>2021-10-17T08:05:04Z</time>
      </trkpt>
      <trkpt lat="43.16793" lon="1.08673">
        <ele>378.9602356</ele>
        <time>2021-10-17T08:05:05Z</time>
      </trkpt>
      <trkpt lat="43.16793" lon="1.08671">
        <ele>379.24023438</ele>
        <time>2021-10-17T08:05:06Z</time>
      </trkpt>
      <trkpt lat="43.16793" lon="1.08668">
        <ele>379.61022949</ele>
        <time>2021-10-17T08:05:07Z</time>
      </trkpt>
      <trkpt lat="43.16794" lon="1.08666">
        <ele>379.87023926</ele>
        <time>2021-10-17T08:05:08Z</time>
      </trkpt>
      <trkpt lat="43.16795" lon="1.08663">
        <ele>380.1602478</ele>
        <time>2021-10-17T08:05:09Z</time>
      </trkpt>
      <trkpt lat="43.16796" lon="1.0866">
        <ele>380.38024902</ele>
        <time>2021-10-17T08:05:10Z</time>
      </trkpt>
      <trkpt lat="43.16796" lon="1.08658">
        <ele>380.62023926</ele>
        <time>2021-10-17T08:05:11Z</time>
      </trkpt>
      <trkpt lat="43.16797" lon="1.08655">
        <ele>380.90023804</ele>
        <time>2021-10-17T08:05:12Z</time>
      </trkpt>
      <trkpt lat="43.16798" lon="1.08653">
        <ele>381.20022583</ele>
        <time>2021-10-17T08:05:13Z</time>
      </trkpt>
      <trkpt lat="43.16799" lon="1.0865">
        <ele>381.48022461</ele>
        <time>2021-10-17T08:05:14Z</time>
      </trkpt>
      <trkpt lat="43.168" lon="1.08648">
        <ele>381.73022461</ele>
        <time>2021-10-17T08:05:15Z</time>
      </trkpt>
      <trkpt lat="43.16801" lon="1.08646">
        <ele>382.0302124</ele>
        <time>2021-10-17T08:05:16Z</time>
      </trkpt>
      <trkpt lat="43.16802" lon="1.08643">
        <ele>382.27020264</ele>
        <time>2021-10-17T08:05:17Z</time>
      </trkpt>
      <trkpt lat="43.16802" lon="1.08641">
        <ele>382.47021484</ele>
        <time>2021-10-17T08:05:18Z</time>
      </trkpt>
      <trkpt lat="43.16803" lon="1.08637">
        <ele>382.67022705</ele>
        <time>2021-10-17T08:05:19Z</time>
      </trkpt>
      <trkpt lat="43.16804" lon="1.08635">
        <ele>382.7802124</ele>
        <time>2021-10-17T08:05:20Z</time>
      </trkpt>
      <trkpt lat="43.16804" lon="1.08632">
        <ele>381.90020752</ele>
        <time>2021-10-17T08:05:21Z</time>
      </trkpt>
      <trkpt lat="43.16805" lon="1.08629">
        <ele>382.04022217</ele>
        <time>2021-10-17T08:05:22Z</time>
      </trkpt>
      <trkpt lat="43.16806" lon="1.08627">
        <ele>382.16021729</ele>
        <time>2021-10-17T08:05:23Z</time>
      </trkpt>
      <trkpt lat="43.16806" lon="1.08624">
        <ele>382.26022339</ele>
        <time>2021-10-17T08:05:24Z</time>
      </trkpt>
      <trkpt lat="43.16807" lon="1.08622">
        <ele>382.36022949</ele>
        <time>2021-10-17T08:05:25Z</time>
      </trkpt>
      <trkpt lat="43.16807" lon="1.0862">
        <ele>382.47021484</ele>
        <time>2021-10-17T08:05:26Z</time>
      </trkpt>
      <trkpt lat="43.16808" lon="1.08616">
        <ele>382.59020996</ele>
        <time>2021-10-17T08:05:27Z</time>
      </trkpt>
      <trkpt lat="43.16808" lon="1.08613">
        <ele>382.72021484</ele>
        <time>2021-10-17T08:05:28Z</time>
      </trkpt>
      <trkpt lat="43.16808" lon="1.0861">
        <ele>382.82022095</ele>
        <time>2021-10-17T08:05:29Z</time>
      </trkpt>
      <trkpt lat="43.16809" lon="1.08607">
        <ele>382.92022705</ele>
        <time>2021-10-17T08:05:30Z</time>
      </trkpt>
      <trkpt lat="43.16809" lon="1.08603">
        <ele>382.9602356</ele>
        <time>2021-10-17T08:05:31Z</time>
      </trkpt>
      <trkpt lat="43.1681" lon="1.08598">
        <ele>382.99023438</ele>
        <time>2021-10-17T08:05:32Z</time>
      </trkpt>
      <trkpt lat="43.1681" lon="1.08594">
        <ele>383.03024292</ele>
        <time>2021-10-17T08:05:33Z</time>
      </trkpt>
      <trkpt lat="43.16811" lon="1.0859">
        <ele>383.05023193</ele>
        <time>2021-10-17T08:05:34Z</time>
      </trkpt>
      <trkpt lat="43.16811" lon="1.08586">
        <ele>383.11022949</ele>
        <time>2021-10-17T08:05:35Z</time>
      </trkpt>
      <trkpt lat="43.16811" lon="1.08579">
        <ele>383.12023926</ele>
        <time>2021-10-17T08:05:36Z</time>
      </trkpt>
      <trkpt lat="43.16811" lon="1.08575">
        <ele>383.08023071</ele>
        <time>2021-10-17T08:05:37Z</time>
      </trkpt>
      <trkpt lat="43.1681" lon="1.08571">
        <ele>383.04022217</ele>
        <time>2021-10-17T08:05:38Z</time>
      </trkpt>
      <trkpt lat="43.1681" lon="1.08567">
        <ele>382.99023438</ele>
        <time>2021-10-17T08:05:39Z</time>
      </trkpt>
      <trkpt lat="43.16811" lon="1.08563">
        <ele>382.94024658</ele>
        <time>2021-10-17T08:05:40Z</time>
      </trkpt>
      <trkpt lat="43.16812" lon="1.08557">
        <ele>382.9102478</ele>
        <time>2021-10-17T08:05:41Z</time>
      </trkpt>
      <trkpt lat="43.16814" lon="1.08553">
        <ele>382.80026245</ele>
        <time>2021-10-17T08:05:42Z</time>
      </trkpt>
      <trkpt lat="43.16816" lon="1.08549">
        <ele>382.62026978</ele>
        <time>2021-10-17T08:05:43Z</time>
      </trkpt>
      <trkpt lat="43.16818" lon="1.08545">
        <ele>382.4402771</ele>
        <time>2021-10-17T08:05:44Z</time>
      </trkpt>
      <trkpt lat="43.1682" lon="1.08539">
        <ele>382.30026245</ele>
        <time>2021-10-17T08:05:45Z</time>
      </trkpt>
      <trkpt lat="43.16822" lon="1.08536">
        <ele>382.340271</ele>
        <time>2021-10-17T08:05:46Z</time>
      </trkpt>
      <trkpt lat="43.16822" lon="1.08533">
        <ele>382.49026489</ele>
        <time>2021-10-17T08:05:47Z</time>
      </trkpt>
      <trkpt lat="43.16823" lon="1.08529">
        <ele>382.80026245</ele>
        <time>2021-10-17T08:05:48Z</time>
      </trkpt>
      <trkpt lat="43.16825" lon="1.08525">
        <ele>383.1602478</ele>
        <time>2021-10-17T08:05:49Z</time>
      </trkpt>
      <trkpt lat="43.16826" lon="1.08522">
        <ele>383.51025391</ele>
        <time>2021-10-17T08:05:50Z</time>
      </trkpt>
      <trkpt lat="43.16827" lon="1.08519">
        <ele>383.90026855</ele>
        <time>2021-10-17T08:05:51Z</time>
      </trkpt>
      <trkpt lat="43.16828" lon="1.08516">
        <ele>384.27026367</ele>
        <time>2021-10-17T08:05:52Z</time>
      </trkpt>
      <trkpt lat="43.16828" lon="1.08513">
        <ele>384.63024902</ele>
        <time>2021-10-17T08:05:53Z</time>
      </trkpt>
      <trkpt lat="43.1683" lon="1.08509">
        <ele>384.95025635</ele>
        <time>2021-10-17T08:05:54Z</time>
      </trkpt>
      <trkpt lat="43.16831" lon="1.08506">
        <ele>385.29025269</ele>
        <time>2021-10-17T08:05:55Z</time>
      </trkpt>
      <trkpt lat="43.16832" lon="1.08504">
        <ele>385.6602478</ele>
        <time>2021-10-17T08:05:56Z</time>
      </trkpt>
      <trkpt lat="43.16833" lon="1.08501">
        <ele>386.08026123</ele>
        <time>2021-10-17T08:05:57Z</time>
      </trkpt>
      <trkpt lat="43.16834" lon="1.08498">
        <ele>386.50027466</ele>
        <time>2021-10-17T08:05:58Z</time>
      </trkpt>
      <trkpt lat="43.16835" lon="1.08496">
        <ele>386.90026855</ele>
        <time>2021-10-17T08:05:59Z</time>
      </trkpt>
      <trkpt lat="43.16836" lon="1.08493">
        <ele>387.30026245</ele>
        <time>2021-10-17T08:06:00Z</time>
      </trkpt>
      <trkpt lat="43.16837" lon="1.08491">
        <ele>387.6902771</ele>
        <time>2021-10-17T08:06:01Z</time>
      </trkpt>
      <trkpt lat="43.16837" lon="1.08489">
        <ele>388.13027954</ele>
        <time>2021-10-17T08:06:02Z</time>
      </trkpt>
      <trkpt lat="43.16838" lon="1.08485">
        <ele>388.56027222</ele>
        <time>2021-10-17T08:06:03Z</time>
      </trkpt>
      <trkpt lat="43.16839" lon="1.08483">
        <ele>388.96026611</ele>
        <time>2021-10-17T08:06:04Z</time>
      </trkpt>
      <trkpt lat="43.1684" lon="1.0848">
        <ele>389.28027344</ele>
        <time>2021-10-17T08:06:05Z</time>
      </trkpt>
      <trkpt lat="43.1684" lon="1.08478">
        <ele>389.61026001</ele>
        <time>2021-10-17T08:06:06Z</time>
      </trkpt>
      <trkpt lat="43.16841" lon="1.08476">
        <ele>389.94024658</ele>
        <time>2021-10-17T08:06:07Z</time>
      </trkpt>
      <trkpt lat="43.16842" lon="1.08473">
        <ele>390.25024414</ele>
        <time>2021-10-17T08:06:08Z</time>
      </trkpt>
      <trkpt lat="43.16843" lon="1.08471">
        <ele>390.65023804</ele>
        <time>2021-10-17T08:06:09Z</time>
      </trkpt>
      <trkpt lat="43.16843" lon="1.08468">
        <ele>390.99023438</ele>
        <time>2021-10-17T08:06:10Z</time>
      </trkpt>
      <trkpt lat="43.16844" lon="1.08466">
        <ele>391.33023071</ele>
        <time>2021-10-17T08:06:11Z</time>
      </trkpt>
      <trkpt lat="43.16845" lon="1.08463">
        <ele>391.63021851</ele>
        <time>2021-10-17T08:06:12Z</time>
      </trkpt>
      <trkpt lat="43.16845" lon="1.0846">
        <ele>391.9302063</ele>
        <time>2021-10-17T08:06:13Z</time>
      </trkpt>
      <trkpt lat="43.16845" lon="1.08458">
        <ele>392.23019409</ele>
        <time>2021-10-17T08:06:14Z</time>
      </trkpt>
      <trkpt lat="43.16845" lon="1.08456">
        <ele>392.5802002</ele>
        <time>2021-10-17T08:06:15Z</time>
      </trkpt>
      <trkpt lat="43.16846" lon="1.08454">
        <ele>392.97021484</ele>
        <time>2021-10-17T08:06:16Z</time>
      </trkpt>
      <trkpt lat="43.16847" lon="1.0845">
        <ele>393.30020142</ele>
        <time>2021-10-17T08:06:17Z</time>
      </trkpt>
      <trkpt lat="43.16847" lon="1.08448">
        <ele>393.64019775</ele>
        <time>2021-10-17T08:06:18Z</time>
      </trkpt>
      <trkpt lat="43.16847" lon="1.08446">
        <ele>393.94018555</ele>
        <time>2021-10-17T08:06:19Z</time>
      </trkpt>
      <trkpt lat="43.16847" lon="1.08443">
        <ele>394.24017334</ele>
        <time>2021-10-17T08:06:20Z</time>
      </trkpt>
      <trkpt lat="43.16848" lon="1.0844">
        <ele>394.73016357</ele>
        <time>2021-10-17T08:06:21Z</time>
      </trkpt>
      <trkpt lat="43.16849" lon="1.08438">
        <ele>395.11016846</ele>
        <time>2021-10-17T08:06:22Z</time>
      </trkpt>
      <trkpt lat="43.16849" lon="1.08435">
        <ele>395.48016357</ele>
        <time>2021-10-17T08:06:23Z</time>
      </trkpt>
      <trkpt lat="43.1685" lon="1.08433">
        <ele>395.84014893</ele>
        <time>2021-10-17T08:06:24Z</time>
      </trkpt>
      <trkpt lat="43.1685" lon="1.08431">
        <ele>396.15014648</ele>
        <time>2021-10-17T08:06:25Z</time>
      </trkpt>
      <trkpt lat="43.16851" lon="1.08428">
        <ele>396.43014526</ele>
        <time>2021-10-17T08:06:26Z</time>
      </trkpt>
      <trkpt lat="43.16851" lon="1.08425">
        <ele>396.71014404</ele>
        <time>2021-10-17T08:06:27Z</time>
      </trkpt>
      <trkpt lat="43.16851" lon="1.08423">
        <ele>396.99014282</ele>
        <time>2021-10-17T08:06:28Z</time>
      </trkpt>
      <trkpt lat="43.16851" lon="1.08421">
        <ele>397.25015259</ele>
        <time>2021-10-17T08:06:29Z</time>
      </trkpt>
      <trkpt lat="43.16852" lon="1.08418">
        <ele>397.58013916</ele>
        <time>2021-10-17T08:06:30Z</time>
      </trkpt>
      <trkpt lat="43.16853" lon="1.08416">
        <ele>397.90014648</ele>
        <time>2021-10-17T08:06:31Z</time>
      </trkpt>
      <trkpt lat="43.16854" lon="1.08414">
        <ele>398.28015137</ele>
        <time>2021-10-17T08:06:32Z</time>
      </trkpt>
      <trkpt lat="43.16854" lon="1.08412">
        <ele>398.71014404</ele>
        <time>2021-10-17T08:06:33Z</time>
      </trkpt>
      <trkpt lat="43.16856" lon="1.08409">
        <ele>399.13015747</ele>
        <time>2021-10-17T08:06:34Z</time>
      </trkpt>
      <trkpt lat="43.16856" lon="1.08407">
        <ele>399.52017212</ele>
        <time>2021-10-17T08:06:35Z</time>
      </trkpt>
      <trkpt lat="43.16857" lon="1.08405">
        <ele>399.85015869</ele>
        <time>2021-10-17T08:06:36Z</time>
      </trkpt>
      <trkpt lat="43.16857" lon="1.08403">
        <ele>400.15014648</ele>
        <time>2021-10-17T08:06:37Z</time>
      </trkpt>
      <trkpt lat="43.16858" lon="1.08401">
        <ele>400.37014771</ele>
        <time>2021-10-17T08:06:38Z</time>
      </trkpt>
      <trkpt lat="43.16859" lon="1.08398">
        <ele>400.64013672</ele>
        <time>2021-10-17T08:06:39Z</time>
      </trkpt>
      <trkpt lat="43.1686" lon="1.08396">
        <ele>400.89013672</ele>
        <time>2021-10-17T08:06:40Z</time>
      </trkpt>
      <trkpt lat="43.1686" lon="1.08394">
        <ele>401.14013672</ele>
        <time>2021-10-17T08:06:41Z</time>
      </trkpt>
      <trkpt lat="43.16861" lon="1.08392">
        <ele>401.4201355</ele>
        <time>2021-10-17T08:06:42Z</time>
      </trkpt>
      <trkpt lat="43.16862" lon="1.08389">
        <ele>401.68014526</ele>
        <time>2021-10-17T08:06:43Z</time>
      </trkpt>
      <trkpt lat="43.16863" lon="1.08387">
        <ele>401.96014404</ele>
        <time>2021-10-17T08:06:44Z</time>
      </trkpt>
      <trkpt lat="43.16864" lon="1.08384">
        <ele>402.20013428</ele>
        <time>2021-10-17T08:06:45Z</time>
      </trkpt>
      <trkpt lat="43.16865" lon="1.08382">
        <ele>402.46014404</ele>
        <time>2021-10-17T08:06:46Z</time>
      </trkpt>
      <trkpt lat="43.16866" lon="1.08381">
        <ele>402.6701355</ele>
        <time>2021-10-17T08:06:47Z</time>
      </trkpt>
      <trkpt lat="43.16867" lon="1.08378">
        <ele>402.86013794</ele>
        <time>2021-10-17T08:06:48Z</time>
      </trkpt>
      <trkpt lat="43.16868" lon="1.08376">
        <ele>403.06015015</ele>
        <time>2021-10-17T08:06:49Z</time>
      </trkpt>
      <trkpt lat="43.16869" lon="1.08375">
        <ele>403.22015381</ele>
        <time>2021-10-17T08:06:50Z</time>
      </trkpt>
      <trkpt lat="43.1687" lon="1.08373">
        <ele>403.40014648</ele>
        <time>2021-10-17T08:06:51Z</time>
      </trkpt>
      <trkpt lat="43.16872" lon="1.0837">
        <ele>403.5201416</ele>
        <time>2021-10-17T08:06:52Z</time>
      </trkpt>
      <trkpt lat="43.16873" lon="1.08369">
        <ele>403.63012695</ele>
        <time>2021-10-17T08:06:53Z</time>
      </trkpt>
      <trkpt lat="43.16874" lon="1.08367">
        <ele>403.80014038</ele>
        <time>2021-10-17T08:06:54Z</time>
      </trkpt>
      <trkpt lat="43.16875" lon="1.08365">
        <ele>404.01013184</ele>
        <time>2021-10-17T08:06:55Z</time>
      </trkpt>
      <trkpt lat="43.16876" lon="1.08363">
        <ele>404.21014404</ele>
        <time>2021-10-17T08:06:56Z</time>
      </trkpt>
      <trkpt lat="43.16877" lon="1.0836">
        <ele>404.41015625</ele>
        <time>2021-10-17T08:06:57Z</time>
      </trkpt>
      <trkpt lat="43.16878" lon="1.08358">
        <ele>404.54016113</ele>
        <time>2021-10-17T08:06:58Z</time>
      </trkpt>
      <trkpt lat="43.16879" lon="1.08356">
        <ele>404.63015747</ele>
        <time>2021-10-17T08:06:59Z</time>
      </trkpt>
      <trkpt lat="43.1688" lon="1.08354">
        <ele>404.8001709</ele>
        <time>2021-10-17T08:07:00Z</time>
      </trkpt>
      <trkpt lat="43.16881" lon="1.08352">
        <ele>404.94018555</ele>
        <time>2021-10-17T08:07:01Z</time>
      </trkpt>
      <trkpt lat="43.16882" lon="1.0835">
        <ele>405.12017822</ele>
        <time>2021-10-17T08:07:02Z</time>
      </trkpt>
      <trkpt lat="43.16883" lon="1.08348">
        <ele>405.31018066</ele>
        <time>2021-10-17T08:07:03Z</time>
      </trkpt>
      <trkpt lat="43.16884" lon="1.08347">
        <ele>405.46017456</ele>
        <time>2021-10-17T08:07:04Z</time>
      </trkpt>
      <trkpt lat="43.16885" lon="1.08345">
        <ele>405.650177</ele>
        <time>2021-10-17T08:07:05Z</time>
      </trkpt>
      <trkpt lat="43.16886" lon="1.08343">
        <ele>405.79019165</ele>
        <time>2021-10-17T08:07:06Z</time>
      </trkpt>
      <trkpt lat="43.16887" lon="1.08342">
        <ele>405.91018677</ele>
        <time>2021-10-17T08:07:07Z</time>
      </trkpt>
      <trkpt lat="43.16888" lon="1.0834">
        <ele>406.02017212</ele>
        <time>2021-10-17T08:07:08Z</time>
      </trkpt>
      <trkpt lat="43.16888" lon="1.08339">
        <ele>406.14016724</ele>
        <time>2021-10-17T08:07:09Z</time>
      </trkpt>
      <trkpt lat="43.16889" lon="1.08336">
        <ele>406.28018188</ele>
        <time>2021-10-17T08:07:10Z</time>
      </trkpt>
      <trkpt lat="43.1689" lon="1.08334">
        <ele>406.47018433</ele>
        <time>2021-10-17T08:07:11Z</time>
      </trkpt>
      <trkpt lat="43.16891" lon="1.08333">
        <ele>406.69018555</ele>
        <time>2021-10-17T08:07:12Z</time>
      </trkpt>
      <trkpt lat="43.16892" lon="1.08332">
        <ele>406.93017578</ele>
        <time>2021-10-17T08:07:13Z</time>
      </trkpt>
      <trkpt lat="43.16893" lon="1.0833">
        <ele>407.18017578</ele>
        <time>2021-10-17T08:07:14Z</time>
      </trkpt>
      <trkpt lat="43.16895" lon="1.08328">
        <ele>407.38018799</ele>
        <time>2021-10-17T08:07:15Z</time>
      </trkpt>
      <trkpt lat="43.16897" lon="1.08326">
        <ele>407.57019043</ele>
        <time>2021-10-17T08:07:16Z</time>
      </trkpt>
      <trkpt lat="43.16898" lon="1.08324">
        <ele>407.67019653</ele>
        <time>2021-10-17T08:07:17Z</time>
      </trkpt>
      <trkpt lat="43.169" lon="1.08322">
        <ele>407.73019409</ele>
        <time>2021-10-17T08:07:18Z</time>
      </trkpt>
      <trkpt lat="43.16901" lon="1.0832">
        <ele>407.76019287</ele>
        <time>2021-10-17T08:07:19Z</time>
      </trkpt>
      <trkpt lat="43.16904" lon="1.08316">
        <ele>407.72018433</ele>
        <time>2021-10-17T08:07:20Z</time>
      </trkpt>
      <trkpt lat="43.16906" lon="1.08314">
        <ele>407.78018188</ele>
        <time>2021-10-17T08:07:21Z</time>
      </trkpt>
      <trkpt lat="43.16908" lon="1.08311">
        <ele>407.72018433</ele>
        <time>2021-10-17T08:07:22Z</time>
      </trkpt>
      <trkpt lat="43.1691" lon="1.08308">
        <ele>407.58016968</ele>
        <time>2021-10-17T08:07:23Z</time>
      </trkpt>
      <trkpt lat="43.16912" lon="1.08304">
        <ele>407.41015625</ele>
        <time>2021-10-17T08:07:24Z</time>
      </trkpt>
      <trkpt lat="43.16914" lon="1.08301">
        <ele>407.35015869</ele>
        <time>2021-10-17T08:07:25Z</time>
      </trkpt>
      <trkpt lat="43.16916" lon="1.08298">
        <ele>407.33016968</ele>
        <time>2021-10-17T08:07:26Z</time>
      </trkpt>
      <trkpt lat="43.16917" lon="1.08295">
        <ele>407.42016602</ele>
        <time>2021-10-17T08:07:27Z</time>
      </trkpt>
      <trkpt lat="43.16919" lon="1.0829">
        <ele>407.45016479</ele>
        <time>2021-10-17T08:07:28Z</time>
      </trkpt>
      <trkpt lat="43.16921" lon="1.08287">
        <ele>407.45016479</ele>
        <time>2021-10-17T08:07:29Z</time>
      </trkpt>
      <trkpt lat="43.16922" lon="1.08284">
        <ele>407.45016479</ele>
        <time>2021-10-17T08:07:30Z</time>
      </trkpt>
      <trkpt lat="43.16923" lon="1.08281">
        <ele>407.50015259</ele>
        <time>2021-10-17T08:07:31Z</time>
      </trkpt>
      <trkpt lat="43.16924" lon="1.08279">
        <ele>407.65014648</ele>
        <time>2021-10-17T08:07:32Z</time>
      </trkpt>
      <trkpt lat="43.16926" lon="1.08275">
        <ele>407.83013916</ele>
        <time>2021-10-17T08:07:33Z</time>
      </trkpt>
      <trkpt lat="43.16928" lon="1.08272">
        <ele>408.07012939</ele>
        <time>2021-10-17T08:07:34Z</time>
      </trkpt>
      <trkpt lat="43.16929" lon="1.0827">
        <ele>408.16012573</ele>
        <time>2021-10-17T08:07:35Z</time>
      </trkpt>
      <trkpt lat="43.16931" lon="1.08266">
        <ele>408.27011108</ele>
        <time>2021-10-17T08:07:36Z</time>
      </trkpt>
      <trkpt lat="43.16933" lon="1.08263">
        <ele>408.27011108</ele>
        <time>2021-10-17T08:07:37Z</time>
      </trkpt>
      <trkpt lat="43.16934" lon="1.08261">
        <ele>408.36010742</ele>
        <time>2021-10-17T08:07:38Z</time>
      </trkpt>
      <trkpt lat="43.16937" lon="1.08258">
        <ele>408.4901123</ele>
        <time>2021-10-17T08:07:39Z</time>
      </trkpt>
      <trkpt lat="43.16939" lon="1.08256">
        <ele>408.7401123</ele>
        <time>2021-10-17T08:07:40Z</time>
      </trkpt>
      <trkpt lat="43.16941" lon="1.08255">
        <ele>408.90011597</ele>
        <time>2021-10-17T08:07:41Z</time>
      </trkpt>
      <trkpt lat="43.16944" lon="1.08253">
        <ele>409.10012817</ele>
        <time>2021-10-17T08:07:42Z</time>
      </trkpt>
      <trkpt lat="43.16947" lon="1.08253">
        <ele>409.22012329</ele>
        <time>2021-10-17T08:07:43Z</time>
      </trkpt>
      <trkpt lat="43.16949" lon="1.08253">
        <ele>409.34011841</ele>
        <time>2021-10-17T08:07:44Z</time>
      </trkpt>
      <trkpt lat="43.1695" lon="1.08252">
        <ele>409.55010986</ele>
        <time>2021-10-17T08:07:45Z</time>
      </trkpt>
      <trkpt lat="43.16954" lon="1.08251">
        <ele>409.62011719</ele>
        <time>2021-10-17T08:07:46Z</time>
      </trkpt>
      <trkpt lat="43.16956" lon="1.08251">
        <ele>409.79013062</ele>
        <time>2021-10-17T08:07:47Z</time>
      </trkpt>
      <trkpt lat="43.16958" lon="1.08252">
        <ele>409.94012451</ele>
        <time>2021-10-17T08:07:48Z</time>
      </trkpt>
      <trkpt lat="43.1696" lon="1.08252">
        <ele>410.13012695</ele>
        <time>2021-10-17T08:07:49Z</time>
      </trkpt>
      <trkpt lat="43.16963" lon="1.08252">
        <ele>410.46011353</ele>
        <time>2021-10-17T08:07:50Z</time>
      </trkpt>
      <trkpt lat="43.16966" lon="1.08253">
        <ele>410.87011719</ele>
        <time>2021-10-17T08:07:51Z</time>
      </trkpt>
      <trkpt lat="43.16968" lon="1.08255">
        <ele>411.26013184</ele>
        <time>2021-10-17T08:07:52Z</time>
      </trkpt>
      <trkpt lat="43.16969" lon="1.08255">
        <ele>411.58013916</ele>
        <time>2021-10-17T08:07:53Z</time>
      </trkpt>
      <trkpt lat="43.16972" lon="1.08255">
        <ele>411.91012573</ele>
        <time>2021-10-17T08:07:54Z</time>
      </trkpt>
      <trkpt lat="43.16975" lon="1.08255">
        <ele>412.21011353</ele>
        <time>2021-10-17T08:07:55Z</time>
      </trkpt>
      <trkpt lat="43.16979" lon="1.08255">
        <ele>412.45010376</ele>
        <time>2021-10-17T08:07:56Z</time>
      </trkpt>
      <trkpt lat="43.16982" lon="1.08255">
        <ele>412.7401123</ele>
        <time>2021-10-17T08:07:57Z</time>
      </trkpt>
      <trkpt lat="43.16984" lon="1.08255">
        <ele>412.98010254</ele>
        <time>2021-10-17T08:07:58Z</time>
      </trkpt>
      <trkpt lat="43.16987" lon="1.08256">
        <ele>413.15011597</ele>
        <time>2021-10-17T08:07:59Z</time>
      </trkpt>
      <trkpt lat="43.1699" lon="1.08258">
        <ele>413.35012817</ele>
        <time>2021-10-17T08:08:00Z</time>
      </trkpt>
      <trkpt lat="43.16992" lon="1.08259">
        <ele>413.55014038</ele>
        <time>2021-10-17T08:08:01Z</time>
      </trkpt>
      <trkpt lat="43.16994" lon="1.08261">
        <ele>413.78015137</ele>
        <time>2021-10-17T08:08:02Z</time>
      </trkpt>
      <trkpt lat="43.16996" lon="1.08264">
        <ele>414.03015137</ele>
        <time>2021-10-17T08:08:03Z</time>
      </trkpt>
      <trkpt lat="43.16999" lon="1.08267">
        <ele>414.26016235</ele>
        <time>2021-10-17T08:08:04Z</time>
      </trkpt>
      <trkpt lat="43.17001" lon="1.08268">
        <ele>414.47015381</ele>
        <time>2021-10-17T08:08:05Z</time>
      </trkpt>
      <trkpt lat="43.17003" lon="1.0827">
        <ele>414.61016846</ele>
        <time>2021-10-17T08:08:06Z</time>
      </trkpt>
      <trkpt lat="43.17006" lon="1.08271">
        <ele>414.78018188</ele>
        <time>2021-10-17T08:08:07Z</time>
      </trkpt>
      <trkpt lat="43.17008" lon="1.08271">
        <ele>414.96017456</ele>
        <time>2021-10-17T08:08:08Z</time>
      </trkpt>
      <trkpt lat="43.17012" lon="1.08271">
        <ele>415.08016968</ele>
        <time>2021-10-17T08:08:09Z</time>
      </trkpt>
      <trkpt lat="43.17014" lon="1.0827">
        <ele>415.21017456</ele>
        <time>2021-10-17T08:08:10Z</time>
      </trkpt>
      <trkpt lat="43.17016" lon="1.08269">
        <ele>415.29016113</ele>
        <time>2021-10-17T08:08:11Z</time>
      </trkpt>
      <trkpt lat="43.17017" lon="1.08267">
        <ele>415.42016602</ele>
        <time>2021-10-17T08:08:12Z</time>
      </trkpt>
      <trkpt lat="43.1702" lon="1.08264">
        <ele>415.61016846</ele>
        <time>2021-10-17T08:08:13Z</time>
      </trkpt>
      <trkpt lat="43.17022" lon="1.08262">
        <ele>415.73016357</ele>
        <time>2021-10-17T08:08:14Z</time>
      </trkpt>
      <trkpt lat="43.17024" lon="1.08259">
        <ele>415.87017822</ele>
        <time>2021-10-17T08:08:15Z</time>
      </trkpt>
      <trkpt lat="43.17025" lon="1.08256">
        <ele>416.01019287</ele>
        <time>2021-10-17T08:08:16Z</time>
      </trkpt>
      <trkpt lat="43.17027" lon="1.08253">
        <ele>416.0802002</ele>
        <time>2021-10-17T08:08:17Z</time>
      </trkpt>
      <trkpt lat="43.17029" lon="1.0825">
        <ele>416.21020508</ele>
        <time>2021-10-17T08:08:18Z</time>
      </trkpt>
      <trkpt lat="43.1703" lon="1.08249">
        <ele>416.39019775</ele>
        <time>2021-10-17T08:08:19Z</time>
      </trkpt>
      <trkpt lat="43.17032" lon="1.08247">
        <ele>416.52020264</ele>
        <time>2021-10-17T08:08:20Z</time>
      </trkpt>
      <trkpt lat="43.17034" lon="1.08244">
        <ele>416.75021362</ele>
        <time>2021-10-17T08:08:21Z</time>
      </trkpt>
      <trkpt lat="43.17036" lon="1.08241">
        <ele>416.87020874</ele>
        <time>2021-10-17T08:08:22Z</time>
      </trkpt>
      <trkpt lat="43.17038" lon="1.08237">
        <ele>416.94021606</ele>
        <time>2021-10-17T08:08:23Z</time>
      </trkpt>
      <trkpt lat="43.1704" lon="1.08235">
        <ele>417.01022339</ele>
        <time>2021-10-17T08:08:24Z</time>
      </trkpt>
      <trkpt lat="43.17042" lon="1.08233">
        <ele>417.09020996</ele>
        <time>2021-10-17T08:08:25Z</time>
      </trkpt>
      <trkpt lat="43.17043" lon="1.08231">
        <ele>417.34020996</ele>
        <time>2021-10-17T08:08:26Z</time>
      </trkpt>
      <trkpt lat="43.17046" lon="1.08228">
        <ele>417.54022217</ele>
        <time>2021-10-17T08:08:27Z</time>
      </trkpt>
      <trkpt lat="43.17048" lon="1.08226">
        <ele>417.80023193</ele>
        <time>2021-10-17T08:08:28Z</time>
      </trkpt>
      <trkpt lat="43.1705" lon="1.08224">
        <ele>417.93023682</ele>
        <time>2021-10-17T08:08:29Z</time>
      </trkpt>
      <trkpt lat="43.17052" lon="1.08222">
        <ele>418.05023193</ele>
        <time>2021-10-17T08:08:30Z</time>
      </trkpt>
      <trkpt lat="43.17055" lon="1.08219">
        <ele>418.18023682</ele>
        <time>2021-10-17T08:08:31Z</time>
      </trkpt>
      <trkpt lat="43.17056" lon="1.08215">
        <ele>418.32025146</ele>
        <time>2021-10-17T08:08:32Z</time>
      </trkpt>
      <trkpt lat="43.17058" lon="1.08211">
        <ele>418.54025269</ele>
        <time>2021-10-17T08:08:33Z</time>
      </trkpt>
      <trkpt lat="43.17059" lon="1.08208">
        <ele>418.67025757</ele>
        <time>2021-10-17T08:08:34Z</time>
      </trkpt>
      <trkpt lat="43.17061" lon="1.08206">
        <ele>418.85025024</ele>
        <time>2021-10-17T08:08:35Z</time>
      </trkpt>
      <trkpt lat="43.17063" lon="1.08202">
        <ele>418.92025757</ele>
        <time>2021-10-17T08:08:36Z</time>
      </trkpt>
      <trkpt lat="43.17064" lon="1.082">
        <ele>419.05026245</ele>
        <time>2021-10-17T08:08:37Z</time>
      </trkpt>
      <trkpt lat="43.17066" lon="1.08198">
        <ele>419.25027466</ele>
        <time>2021-10-17T08:08:38Z</time>
      </trkpt>
      <trkpt lat="43.17068" lon="1.08195">
        <ele>419.51028442</ele>
        <time>2021-10-17T08:08:39Z</time>
      </trkpt>
      <trkpt lat="43.1707" lon="1.08192">
        <ele>419.72027588</ele>
        <time>2021-10-17T08:08:40Z</time>
      </trkpt>
      <trkpt lat="43.17071" lon="1.0819">
        <ele>419.96026611</ele>
        <time>2021-10-17T08:08:41Z</time>
      </trkpt>
      <trkpt lat="43.17071" lon="1.08187">
        <ele>420.16027832</ele>
        <time>2021-10-17T08:08:42Z</time>
      </trkpt>
      <trkpt lat="43.17072" lon="1.08183">
        <ele>420.37026978</ele>
        <time>2021-10-17T08:08:43Z</time>
      </trkpt>
      <trkpt lat="43.17073" lon="1.08182">
        <ele>420.66027832</ele>
        <time>2021-10-17T08:08:44Z</time>
      </trkpt>
      <trkpt lat="43.17075" lon="1.08179">
        <ele>420.93026733</ele>
        <time>2021-10-17T08:08:45Z</time>
      </trkpt>
      <trkpt lat="43.17076" lon="1.08176">
        <ele>421.24026489</ele>
        <time>2021-10-17T08:08:46Z</time>
      </trkpt>
      <trkpt lat="43.17076" lon="1.08175">
        <ele>421.50027466</ele>
        <time>2021-10-17T08:08:47Z</time>
      </trkpt>
      <trkpt lat="43.17077" lon="1.08173">
        <ele>421.80026245</ele>
        <time>2021-10-17T08:08:48Z</time>
      </trkpt>
      <trkpt lat="43.17077" lon="1.08171">
        <ele>422.02026367</ele>
        <time>2021-10-17T08:08:49Z</time>
      </trkpt>
      <trkpt lat="43.17077" lon="1.08168">
        <ele>422.21026611</ele>
        <time>2021-10-17T08:08:50Z</time>
      </trkpt>
      <trkpt lat="43.17078" lon="1.08166">
        <ele>422.38027954</ele>
        <time>2021-10-17T08:08:51Z</time>
      </trkpt>
      <trkpt lat="43.17078" lon="1.08164">
        <ele>422.56027222</ele>
        <time>2021-10-17T08:08:52Z</time>
      </trkpt>
      <trkpt lat="43.17078" lon="1.08163">
        <ele>422.71026611</ele>
        <time>2021-10-17T08:08:53Z</time>
      </trkpt>
      <trkpt lat="43.17078" lon="1.08162">
        <ele>422.82025146</ele>
        <time>2021-10-17T08:08:54Z</time>
      </trkpt>
      <trkpt lat="43.17079" lon="1.08162">
        <ele>422.96026611</ele>
        <time>2021-10-17T08:08:55Z</time>
      </trkpt>
      <trkpt lat="43.17082" lon="1.08158">
        <ele>423.11026001</ele>
        <time>2021-10-17T08:09:16Z</time>
      </trkpt>
      <trkpt lat="43.17083" lon="1.08156">
        <ele>423.13024902</ele>
        <time>2021-10-17T08:09:17Z</time>
      </trkpt>
      <trkpt lat="43.17085" lon="1.08154">
        <ele>423.0602417</ele>
        <time>2021-10-17T08:09:18Z</time>
      </trkpt>
      <trkpt lat="43.17086" lon="1.08152">
        <ele>423.03024292</ele>
        <time>2021-10-17T08:09:19Z</time>
      </trkpt>
      <trkpt lat="43.17088" lon="1.0815">
        <ele>422.90023804</ele>
        <time>2021-10-17T08:09:20Z</time>
      </trkpt>
      <trkpt lat="43.1709" lon="1.08146">
        <ele>422.99023438</ele>
        <time>2021-10-17T08:09:21Z</time>
      </trkpt>
      <trkpt lat="43.17092" lon="1.08143">
        <ele>422.92022705</ele>
        <time>2021-10-17T08:09:22Z</time>
      </trkpt>
      <trkpt lat="43.17093" lon="1.08141">
        <ele>422.75021362</ele>
        <time>2021-10-17T08:09:23Z</time>
      </trkpt>
      <trkpt lat="43.17096" lon="1.08138">
        <ele>422.52020264</ele>
        <time>2021-10-17T08:09:24Z</time>
      </trkpt>
      <trkpt lat="43.17097" lon="1.08132">
        <ele>422.32019043</ele>
        <time>2021-10-17T08:09:25Z</time>
      </trkpt>
      <trkpt lat="43.17099" lon="1.08127">
        <ele>421.88018799</ele>
        <time>2021-10-17T08:09:26Z</time>
      </trkpt>
      <trkpt lat="43.171" lon="1.08123">
        <ele>421.27020264</ele>
        <time>2021-10-17T08:09:27Z</time>
      </trkpt>
      <trkpt lat="43.171" lon="1.08118">
        <ele>420.79019165</ele>
        <time>2021-10-17T08:09:28Z</time>
      </trkpt>
      <trkpt lat="43.171" lon="1.08114">
        <ele>420.26019287</ele>
        <time>2021-10-17T08:09:29Z</time>
      </trkpt>
      <trkpt lat="43.17099" lon="1.08109">
        <ele>419.98019409</ele>
        <time>2021-10-17T08:09:30Z</time>
      </trkpt>
      <trkpt lat="43.171" lon="1.08105">
        <ele>419.85018921</ele>
        <time>2021-10-17T08:09:31Z</time>
      </trkpt>
      <trkpt lat="43.171" lon="1.08101">
        <ele>419.80020142</ele>
        <time>2021-10-17T08:09:32Z</time>
      </trkpt>
      <trkpt lat="43.17101" lon="1.08097">
        <ele>419.82019043</ele>
        <time>2021-10-17T08:09:33Z</time>
      </trkpt>
      <trkpt lat="43.17101" lon="1.08091">
        <ele>419.82019043</ele>
        <time>2021-10-17T08:09:34Z</time>
      </trkpt>
      <trkpt lat="43.17102" lon="1.08087">
        <ele>420.03018188</ele>
        <time>2021-10-17T08:09:35Z</time>
      </trkpt>
      <trkpt lat="43.17103" lon="1.08083">
        <ele>420.14016724</ele>
        <time>2021-10-17T08:09:36Z</time>
      </trkpt>
      <trkpt lat="43.17104" lon="1.08079">
        <ele>420.21017456</ele>
        <time>2021-10-17T08:09:37Z</time>
      </trkpt>
      <trkpt lat="43.17105" lon="1.08075">
        <ele>420.33016968</ele>
        <time>2021-10-17T08:09:38Z</time>
      </trkpt>
      <trkpt lat="43.17107" lon="1.0807">
        <ele>420.31018066</ele>
        <time>2021-10-17T08:09:39Z</time>
      </trkpt>
      <trkpt lat="43.17109" lon="1.08067">
        <ele>420.44018555</ele>
        <time>2021-10-17T08:09:40Z</time>
      </trkpt>
      <trkpt lat="43.17111" lon="1.08064">
        <ele>420.70019531</ele>
        <time>2021-10-17T08:09:41Z</time>
      </trkpt>
      <trkpt lat="43.17113" lon="1.0806">
        <ele>420.97018433</ele>
        <time>2021-10-17T08:09:42Z</time>
      </trkpt>
      <trkpt lat="43.17115" lon="1.08055">
        <ele>421.39019775</ele>
        <time>2021-10-17T08:09:43Z</time>
      </trkpt>
      <trkpt lat="43.17116" lon="1.08052">
        <ele>421.66018677</ele>
        <time>2021-10-17T08:09:44Z</time>
      </trkpt>
      <trkpt lat="43.17119" lon="1.0805">
        <ele>421.92019653</ele>
        <time>2021-10-17T08:09:45Z</time>
      </trkpt>
      <trkpt lat="43.17121" lon="1.08048">
        <ele>422.30020142</ele>
        <time>2021-10-17T08:09:46Z</time>
      </trkpt>
      <trkpt lat="43.17123" lon="1.08046">
        <ele>422.6802063</ele>
        <time>2021-10-17T08:09:47Z</time>
      </trkpt>
      <trkpt lat="43.17125" lon="1.08042">
        <ele>423.1802063</ele>
        <time>2021-10-17T08:09:48Z</time>
      </trkpt>
      <trkpt lat="43.17127" lon="1.0804">
        <ele>423.69021606</ele>
        <time>2021-10-17T08:09:49Z</time>
      </trkpt>
      <trkpt lat="43.1713" lon="1.08038">
        <ele>424.20022583</ele>
        <time>2021-10-17T08:09:50Z</time>
      </trkpt>
      <trkpt lat="43.17132" lon="1.08037">
        <ele>424.73022461</ele>
        <time>2021-10-17T08:09:51Z</time>
      </trkpt>
      <trkpt lat="43.17134" lon="1.08034">
        <ele>425.23022461</ele>
        <time>2021-10-17T08:09:52Z</time>
      </trkpt>
      <trkpt lat="43.17136" lon="1.08033">
        <ele>425.72021484</ele>
        <time>2021-10-17T08:09:53Z</time>
      </trkpt>
      <trkpt lat="43.17138" lon="1.08032">
        <ele>426.17022705</ele>
        <time>2021-10-17T08:09:54Z</time>
      </trkpt>
      <trkpt lat="43.1714" lon="1.0803">
        <ele>426.40023804</ele>
        <time>2021-10-17T08:09:55Z</time>
      </trkpt>
      <trkpt lat="43.17142" lon="1.08029">
        <ele>426.50024414</ele>
        <time>2021-10-17T08:09:56Z</time>
      </trkpt>
      <trkpt lat="43.17146" lon="1.08026">
        <ele>426.54025269</ele>
        <time>2021-10-17T08:09:57Z</time>
      </trkpt>
      <trkpt lat="43.17147" lon="1.08024">
        <ele>426.55026245</ele>
        <time>2021-10-17T08:09:58Z</time>
      </trkpt>
      <trkpt lat="43.17149" lon="1.08022">
        <ele>426.63024902</ele>
        <time>2021-10-17T08:09:59Z</time>
      </trkpt>
      <trkpt lat="43.17152" lon="1.0802">
        <ele>426.83026123</ele>
        <time>2021-10-17T08:10:00Z</time>
      </trkpt>
      <trkpt lat="43.17154" lon="1.08019">
        <ele>427.01025391</ele>
        <time>2021-10-17T08:10:01Z</time>
      </trkpt>
      <trkpt lat="43.17157" lon="1.08015">
        <ele>427.12023926</ele>
        <time>2021-10-17T08:10:02Z</time>
      </trkpt>
      <trkpt lat="43.17159" lon="1.08014">
        <ele>427.17022705</ele>
        <time>2021-10-17T08:10:03Z</time>
      </trkpt>
      <trkpt lat="43.17161" lon="1.08012">
        <ele>427.17022705</ele>
        <time>2021-10-17T08:10:04Z</time>
      </trkpt>
      <trkpt lat="43.17164" lon="1.08009">
        <ele>427.0602417</ele>
        <time>2021-10-17T08:10:05Z</time>
      </trkpt>
      <trkpt lat="43.17168" lon="1.08004">
        <ele>426.83023071</ele>
        <time>2021-10-17T08:10:06Z</time>
      </trkpt>
      <trkpt lat="43.1717" lon="1.08001">
        <ele>426.50024414</ele>
        <time>2021-10-17T08:10:07Z</time>
      </trkpt>
      <trkpt lat="43.17173" lon="1.07999">
        <ele>426.17025757</ele>
        <time>2021-10-17T08:10:08Z</time>
      </trkpt>
      <trkpt lat="43.17175" lon="1.07996">
        <ele>425.82025146</ele>
        <time>2021-10-17T08:10:09Z</time>
      </trkpt>
      <trkpt lat="43.17177" lon="1.07993">
        <ele>425.55026245</ele>
        <time>2021-10-17T08:10:10Z</time>
      </trkpt>
      <trkpt lat="43.17181" lon="1.07988">
        <ele>425.32025146</ele>
        <time>2021-10-17T08:10:11Z</time>
      </trkpt>
      <trkpt lat="43.17184" lon="1.07986">
        <ele>425.05026245</ele>
        <time>2021-10-17T08:10:12Z</time>
      </trkpt>
      <trkpt lat="43.17185" lon="1.07983">
        <ele>424.86026001</ele>
        <time>2021-10-17T08:10:13Z</time>
      </trkpt>
      <trkpt lat="43.17188" lon="1.0798">
        <ele>424.78027344</ele>
        <time>2021-10-17T08:10:14Z</time>
      </trkpt>
      <trkpt lat="43.17192" lon="1.07976">
        <ele>424.590271</ele>
        <time>2021-10-17T08:10:15Z</time>
      </trkpt>
      <trkpt lat="43.17195" lon="1.07972">
        <ele>424.50027466</ele>
        <time>2021-10-17T08:10:16Z</time>
      </trkpt>
      <trkpt lat="43.17198" lon="1.07969">
        <ele>424.31027222</ele>
        <time>2021-10-17T08:10:17Z</time>
      </trkpt>
      <trkpt lat="43.172" lon="1.07966">
        <ele>423.63027954</ele>
        <time>2021-10-17T08:10:18Z</time>
      </trkpt>
      <trkpt lat="43.17202" lon="1.07963">
        <ele>423.63027954</ele>
        <time>2021-10-17T08:10:19Z</time>
      </trkpt>
      <trkpt lat="43.17206" lon="1.07959">
        <ele>423.22027588</ele>
        <time>2021-10-17T08:10:20Z</time>
      </trkpt>
      <trkpt lat="43.17207" lon="1.07956">
        <ele>422.840271</ele>
        <time>2021-10-17T08:10:21Z</time>
      </trkpt>
      <trkpt lat="43.17209" lon="1.07954">
        <ele>422.51028442</ele>
        <time>2021-10-17T08:10:22Z</time>
      </trkpt>
      <trkpt lat="43.17211" lon="1.07953">
        <ele>422.20028687</ele>
        <time>2021-10-17T08:10:23Z</time>
      </trkpt>
      <trkpt lat="43.17213" lon="1.07951">
        <ele>421.89028931</ele>
        <time>2021-10-17T08:10:24Z</time>
      </trkpt>
      <trkpt lat="43.17215" lon="1.0795">
        <ele>421.6902771</ele>
        <time>2021-10-17T08:10:25Z</time>
      </trkpt>
      <trkpt lat="43.17216" lon="1.07949">
        <ele>421.57028198</ele>
        <time>2021-10-17T08:10:26Z</time>
      </trkpt>
      <trkpt lat="43.17217" lon="1.07948">
        <ele>421.56027222</ele>
        <time>2021-10-17T08:10:27Z</time>
      </trkpt>
      <trkpt lat="43.17219" lon="1.07947">
        <ele>421.60028076</ele>
        <time>2021-10-17T08:10:28Z</time>
      </trkpt>
      <trkpt lat="43.17221" lon="1.07943">
        <ele>421.60028076</ele>
        <time>2021-10-17T08:10:29Z</time>
      </trkpt>
      <trkpt lat="43.17221" lon="1.07941">
        <ele>421.53027344</ele>
        <time>2021-10-17T08:10:30Z</time>
      </trkpt>
      <trkpt lat="43.17221" lon="1.07938">
        <ele>421.49026489</ele>
        <time>2021-10-17T08:10:31Z</time>
      </trkpt>
      <trkpt lat="43.17222" lon="1.07936">
        <ele>421.50027466</ele>
        <time>2021-10-17T08:10:32Z</time>
      </trkpt>
      <trkpt lat="43.17223" lon="1.07931">
        <ele>421.50027466</ele>
        <time>2021-10-17T08:10:33Z</time>
      </trkpt>
      <trkpt lat="43.17223" lon="1.07929">
        <ele>421.57028198</ele>
        <time>2021-10-17T08:10:34Z</time>
      </trkpt>
      <trkpt lat="43.17224" lon="1.07926">
        <ele>421.65026855</ele>
        <time>2021-10-17T08:10:35Z</time>
      </trkpt>
      <trkpt lat="43.17225" lon="1.07924">
        <ele>421.76025391</ele>
        <time>2021-10-17T08:10:36Z</time>
      </trkpt>
      <trkpt lat="43.17226" lon="1.07921">
        <ele>421.84024048</ele>
        <time>2021-10-17T08:10:37Z</time>
      </trkpt>
      <trkpt lat="43.17226" lon="1.07919">
        <ele>421.95022583</ele>
        <time>2021-10-17T08:10:38Z</time>
      </trkpt>
      <trkpt lat="43.17227" lon="1.07918">
        <ele>422.01022339</ele>
        <time>2021-10-17T08:10:39Z</time>
      </trkpt>
      <trkpt lat="43.17228" lon="1.07916">
        <ele>422.0302124</ele>
        <time>2021-10-17T08:10:40Z</time>
      </trkpt>
      <trkpt lat="43.17229" lon="1.07915">
        <ele>422.07022095</ele>
        <time>2021-10-17T08:10:41Z</time>
      </trkpt>
      <trkpt lat="43.17229" lon="1.07912">
        <ele>422.10021973</ele>
        <time>2021-10-17T08:10:42Z</time>
      </trkpt>
      <trkpt lat="43.17229" lon="1.07909">
        <ele>422.10021973</ele>
        <time>2021-10-17T08:10:43Z</time>
      </trkpt>
      <trkpt lat="43.17228" lon="1.07907">
        <ele>422.07022095</ele>
        <time>2021-10-17T08:10:44Z</time>
      </trkpt>
      <trkpt lat="43.17227" lon="1.07905">
        <ele>422.14022827</ele>
        <time>2021-10-17T08:10:45Z</time>
      </trkpt>
      <trkpt lat="43.17226" lon="1.07904">
        <ele>422.27023315</ele>
        <time>2021-10-17T08:10:46Z</time>
      </trkpt>
      <trkpt lat="43.17226" lon="1.07901">
        <ele>422.48022461</ele>
        <time>2021-10-17T08:10:47Z</time>
      </trkpt>
      <trkpt lat="43.17226" lon="1.079">
        <ele>422.74023438</ele>
        <time>2021-10-17T08:10:48Z</time>
      </trkpt>
      <trkpt lat="43.17226" lon="1.07899">
        <ele>422.89022827</ele>
        <time>2021-10-17T08:10:49Z</time>
      </trkpt>
      <trkpt lat="43.17226" lon="1.07899">
        <ele>422.93023682</ele>
        <time>2021-10-17T08:10:50Z</time>
      </trkpt>
      <trkpt lat="43.17227" lon="1.07896">
        <ele>422.93023682</ele>
        <time>2021-10-17T08:10:51Z</time>
      </trkpt>
      <trkpt lat="43.17228" lon="1.07894">
        <ele>422.90023804</ele>
        <time>2021-10-17T08:10:52Z</time>
      </trkpt>
      <trkpt lat="43.17229" lon="1.07892">
        <ele>422.78024292</ele>
        <time>2021-10-17T08:10:53Z</time>
      </trkpt>
      <trkpt lat="43.17231" lon="1.07889">
        <ele>422.65023804</ele>
        <time>2021-10-17T08:10:54Z</time>
      </trkpt>
      <trkpt lat="43.17233" lon="1.07884">
        <ele>422.49023438</ele>
        <time>2021-10-17T08:10:55Z</time>
      </trkpt>
      <trkpt lat="43.17235" lon="1.07882">
        <ele>422.38024902</ele>
        <time>2021-10-17T08:10:56Z</time>
      </trkpt>
      <trkpt lat="43.17237" lon="1.07879">
        <ele>422.30026245</ele>
        <time>2021-10-17T08:10:57Z</time>
      </trkpt>
      <trkpt lat="43.17238" lon="1.07876">
        <ele>422.24026489</ele>
        <time>2021-10-17T08:10:58Z</time>
      </trkpt>
      <trkpt lat="43.17239" lon="1.07873">
        <ele>422.1902771</ele>
        <time>2021-10-17T08:10:59Z</time>
      </trkpt>
      <trkpt lat="43.1724" lon="1.07868">
        <ele>422.13027954</ele>
        <time>2021-10-17T08:11:00Z</time>
      </trkpt>
      <trkpt lat="43.17241" lon="1.07864">
        <ele>422.16027832</ele>
        <time>2021-10-17T08:11:01Z</time>
      </trkpt>
      <trkpt lat="43.17242" lon="1.07861">
        <ele>422.23028564</ele>
        <time>2021-10-17T08:11:02Z</time>
      </trkpt>
      <trkpt lat="43.17243" lon="1.07858">
        <ele>422.41027832</ele>
        <time>2021-10-17T08:11:03Z</time>
      </trkpt>
      <trkpt lat="43.17246" lon="1.07853">
        <ele>422.45028687</ele>
        <time>2021-10-17T08:11:04Z</time>
      </trkpt>
      <trkpt lat="43.17247" lon="1.0785">
        <ele>422.46029663</ele>
        <time>2021-10-17T08:11:05Z</time>
      </trkpt>
      <trkpt lat="43.17248" lon="1.07847">
        <ele>422.43029785</ele>
        <time>2021-10-17T08:11:06Z</time>
      </trkpt>
      <trkpt lat="43.17249" lon="1.07844">
        <ele>422.26028442</ele>
        <time>2021-10-17T08:11:07Z</time>
      </trkpt>
      <trkpt lat="43.17251" lon="1.07841">
        <ele>422.13027954</ele>
        <time>2021-10-17T08:11:08Z</time>
      </trkpt>
      <trkpt lat="43.17253" lon="1.07835">
        <ele>421.82028198</ele>
        <time>2021-10-17T08:11:09Z</time>
      </trkpt>
      <trkpt lat="43.17255" lon="1.07831">
        <ele>421.37026978</ele>
        <time>2021-10-17T08:11:10Z</time>
      </trkpt>
      <trkpt lat="43.17256" lon="1.07827">
        <ele>420.9402771</ele>
        <time>2021-10-17T08:11:11Z</time>
      </trkpt>
      <trkpt lat="43.17257" lon="1.07822">
        <ele>420.43026733</ele>
        <time>2021-10-17T08:11:12Z</time>
      </trkpt>
      <trkpt lat="43.1726" lon="1.07814">
        <ele>419.83026123</ele>
        <time>2021-10-17T08:11:13Z</time>
      </trkpt>
      <trkpt lat="43.17263" lon="1.07809">
        <ele>419.25027466</ele>
        <time>2021-10-17T08:11:14Z</time>
      </trkpt>
      <trkpt lat="43.17265" lon="1.07804">
        <ele>418.4402771</ele>
        <time>2021-10-17T08:11:15Z</time>
      </trkpt>
      <trkpt lat="43.17266" lon="1.07799">
        <ele>417.51028442</ele>
        <time>2021-10-17T08:11:16Z</time>
      </trkpt>
      <trkpt lat="43.17266" lon="1.07794">
        <ele>416.840271</ele>
        <time>2021-10-17T08:11:17Z</time>
      </trkpt>
      <trkpt lat="43.17269" lon="1.07786">
        <ele>416.06027222</ele>
        <time>2021-10-17T08:11:18Z</time>
      </trkpt>
      <trkpt lat="43.1727" lon="1.07781">
        <ele>415.40026855</ele>
        <time>2021-10-17T08:11:19Z</time>
      </trkpt>
      <trkpt lat="43.17271" lon="1.07775">
        <ele>414.7902832</ele>
        <time>2021-10-17T08:11:20Z</time>
      </trkpt>
      <trkpt lat="43.17273" lon="1.0777">
        <ele>414.36029053</ele>
        <time>2021-10-17T08:11:21Z</time>
      </trkpt>
      <trkpt lat="43.17276" lon="1.07761">
        <ele>413.47027588</ele>
        <time>2021-10-17T08:11:22Z</time>
      </trkpt>
      <trkpt lat="43.17278" lon="1.07756">
        <ele>412.36029053</ele>
        <time>2021-10-17T08:11:23Z</time>
      </trkpt>
      <trkpt lat="43.1728" lon="1.07751">
        <ele>411.35028076</ele>
        <time>2021-10-17T08:11:24Z</time>
      </trkpt>
      <trkpt lat="43.17281" lon="1.07745">
        <ele>410.45028687</ele>
        <time>2021-10-17T08:11:25Z</time>
      </trkpt>
      <trkpt lat="43.17282" lon="1.07739">
        <ele>409.6902771</ele>
        <time>2021-10-17T08:11:26Z</time>
      </trkpt>
      <trkpt lat="43.17284" lon="1.0773">
        <ele>409.03027344</ele>
        <time>2021-10-17T08:11:27Z</time>
      </trkpt>
      <trkpt lat="43.17286" lon="1.07725">
        <ele>408.40026855</ele>
        <time>2021-10-17T08:11:28Z</time>
      </trkpt>
      <trkpt lat="43.17286" lon="1.07719">
        <ele>407.7902832</ele>
        <time>2021-10-17T08:11:29Z</time>
      </trkpt>
      <trkpt lat="43.17285" lon="1.07714">
        <ele>407.22027588</ele>
        <time>2021-10-17T08:11:30Z</time>
      </trkpt>
      <trkpt lat="43.17285" lon="1.07709">
        <ele>406.77026367</ele>
        <time>2021-10-17T08:11:31Z</time>
      </trkpt>
      <trkpt lat="43.17286" lon="1.07704">
        <ele>406.56027222</ele>
        <time>2021-10-17T08:11:32Z</time>
      </trkpt>
      <trkpt lat="43.17286" lon="1.07699">
        <ele>406.27026367</ele>
        <time>2021-10-17T08:11:33Z</time>
      </trkpt>
      <trkpt lat="43.17287" lon="1.07694">
        <ele>405.78027344</ele>
        <time>2021-10-17T08:11:34Z</time>
      </trkpt>
      <trkpt lat="43.17287" lon="1.07689">
        <ele>405.28027344</ele>
        <time>2021-10-17T08:11:35Z</time>
      </trkpt>
      <trkpt lat="43.17287" lon="1.0768">
        <ele>404.49026489</ele>
        <time>2021-10-17T08:11:36Z</time>
      </trkpt>
      <trkpt lat="43.17287" lon="1.07674">
        <ele>403.80026245</ele>
        <time>2021-10-17T08:11:37Z</time>
      </trkpt>
      <trkpt lat="43.17287" lon="1.07669">
        <ele>403.25027466</ele>
        <time>2021-10-17T08:11:38Z</time>
      </trkpt>
      <trkpt lat="43.17287" lon="1.07665">
        <ele>402.66027832</ele>
        <time>2021-10-17T08:11:39Z</time>
      </trkpt>
      <trkpt lat="43.17287" lon="1.0766">
        <ele>401.88027954</ele>
        <time>2021-10-17T08:11:40Z</time>
      </trkpt>
      <trkpt lat="43.17288" lon="1.0765">
        <ele>401.1902771</ele>
        <time>2021-10-17T08:11:41Z</time>
      </trkpt>
      <trkpt lat="43.17289" lon="1.07644">
        <ele>400.25027466</ele>
        <time>2021-10-17T08:11:42Z</time>
      </trkpt>
      <trkpt lat="43.1729" lon="1.0764">
        <ele>399.42028809</ele>
        <time>2021-10-17T08:11:43Z</time>
      </trkpt>
      <trkpt lat="43.17291" lon="1.07634">
        <ele>398.82028198</ele>
        <time>2021-10-17T08:11:44Z</time>
      </trkpt>
      <trkpt lat="43.17293" lon="1.07627">
        <ele>398.07028198</ele>
        <time>2021-10-17T08:11:45Z</time>
      </trkpt>
      <trkpt lat="43.17295" lon="1.07622">
        <ele>397.56027222</ele>
        <time>2021-10-17T08:11:46Z</time>
      </trkpt>
      <trkpt lat="43.17298" lon="1.07619">
        <ele>396.83026123</ele>
        <time>2021-10-17T08:11:47Z</time>
      </trkpt>
      <trkpt lat="43.17302" lon="1.07615">
        <ele>395.96026611</ele>
        <time>2021-10-17T08:11:48Z</time>
      </trkpt>
      <trkpt lat="43.17305" lon="1.0761">
        <ele>395.10028076</ele>
        <time>2021-10-17T08:11:49Z</time>
      </trkpt>
      <trkpt lat="43.1731" lon="1.07602">
        <ele>394.12026978</ele>
        <time>2021-10-17T08:11:50Z</time>
      </trkpt>
      <trkpt lat="43.17313" lon="1.07597">
        <ele>393.33026123</ele>
        <time>2021-10-17T08:11:51Z</time>
      </trkpt>
      <trkpt lat="43.17315" lon="1.07592">
        <ele>392.44024658</ele>
        <time>2021-10-17T08:11:52Z</time>
      </trkpt>
      <trkpt lat="43.17317" lon="1.07586">
        <ele>391.62023926</ele>
        <time>2021-10-17T08:11:53Z</time>
      </trkpt>
      <trkpt lat="43.17319" lon="1.07577">
        <ele>390.76025391</ele>
        <time>2021-10-17T08:11:54Z</time>
      </trkpt>
      <trkpt lat="43.17322" lon="1.07571">
        <ele>389.67025757</ele>
        <time>2021-10-17T08:11:55Z</time>
      </trkpt>
      <trkpt lat="43.17325" lon="1.07566">
        <ele>388.71026611</ele>
        <time>2021-10-17T08:11:56Z</time>
      </trkpt>
      <trkpt lat="43.17327" lon="1.0756">
        <ele>387.55026245</ele>
        <time>2021-10-17T08:11:57Z</time>
      </trkpt>
      <trkpt lat="43.17329" lon="1.07553">
        <ele>386.49026489</ele>
        <time>2021-10-17T08:11:58Z</time>
      </trkpt>
      <trkpt lat="43.17331" lon="1.07547">
        <ele>385.48025513</ele>
        <time>2021-10-17T08:11:59Z</time>
      </trkpt>
      <trkpt lat="43.17333" lon="1.07541">
        <ele>384.36026001</ele>
        <time>2021-10-17T08:12:00Z</time>
      </trkpt>
      <trkpt lat="43.17336" lon="1.07534">
        <ele>383.090271</ele>
        <time>2021-10-17T08:12:01Z</time>
      </trkpt>
      <trkpt lat="43.1734" lon="1.07528">
        <ele>381.88027954</ele>
        <time>2021-10-17T08:12:02Z</time>
      </trkpt>
      <trkpt lat="43.17346" lon="1.07518">
        <ele>380.70028687</ele>
        <time>2021-10-17T08:12:03Z</time>
      </trkpt>
      <trkpt lat="43.17349" lon="1.07512">
        <ele>379.53027344</ele>
        <time>2021-10-17T08:12:04Z</time>
      </trkpt>
      <trkpt lat="43.17354" lon="1.07506">
        <ele>378.66027832</ele>
        <time>2021-10-17T08:12:05Z</time>
      </trkpt>
      <trkpt lat="43.17357" lon="1.07501">
        <ele>377.71026611</ele>
        <time>2021-10-17T08:12:06Z</time>
      </trkpt>
      <trkpt lat="43.17359" lon="1.07496">
        <ele>376.66027832</ele>
        <time>2021-10-17T08:12:07Z</time>
      </trkpt>
      <trkpt lat="43.17364" lon="1.07489">
        <ele>375.95028687</ele>
        <time>2021-10-17T08:12:08Z</time>
      </trkpt>
      <trkpt lat="43.17365" lon="1.07483">
        <ele>375.09030151</ele>
        <time>2021-10-17T08:12:09Z</time>
      </trkpt>
      <trkpt lat="43.17367" lon="1.07476">
        <ele>374.30029297</ele>
        <time>2021-10-17T08:12:10Z</time>
      </trkpt>
      <trkpt lat="43.1737" lon="1.07471">
        <ele>373.36029053</ele>
        <time>2021-10-17T08:12:11Z</time>
      </trkpt>
      <trkpt lat="43.17372" lon="1.07462">
        <ele>372.00030518</ele>
        <time>2021-10-17T08:12:12Z</time>
      </trkpt>
      <trkpt lat="43.17374" lon="1.07457">
        <ele>370.69030762</ele>
        <time>2021-10-17T08:12:13Z</time>
      </trkpt>
      <trkpt lat="43.17376" lon="1.07452">
        <ele>369.39031982</ele>
        <time>2021-10-17T08:12:14Z</time>
      </trkpt>
      <trkpt lat="43.17378" lon="1.07447">
        <ele>368.2203064</ele>
        <time>2021-10-17T08:12:15Z</time>
      </trkpt>
      <trkpt lat="43.1738" lon="1.0744">
        <ele>367.34030151</ele>
        <time>2021-10-17T08:12:16Z</time>
      </trkpt>
      <trkpt lat="43.17381" lon="1.07433">
        <ele>366.42028809</ele>
        <time>2021-10-17T08:12:17Z</time>
      </trkpt>
      <trkpt lat="43.17383" lon="1.07427">
        <ele>365.32028198</ele>
        <time>2021-10-17T08:12:18Z</time>
      </trkpt>
      <trkpt lat="43.17385" lon="1.07423">
        <ele>364.28027344</ele>
        <time>2021-10-17T08:12:19Z</time>
      </trkpt>
      <trkpt lat="43.17386" lon="1.07418">
        <ele>363.24026489</ele>
        <time>2021-10-17T08:12:20Z</time>
      </trkpt>
      <trkpt lat="43.1739" lon="1.07411">
        <ele>362.12026978</ele>
        <time>2021-10-17T08:12:21Z</time>
      </trkpt>
      <trkpt lat="43.17392" lon="1.07407">
        <ele>361.15026855</ele>
        <time>2021-10-17T08:12:22Z</time>
      </trkpt>
      <trkpt lat="43.17393" lon="1.07403">
        <ele>359.95025635</ele>
        <time>2021-10-17T08:12:23Z</time>
      </trkpt>
      <trkpt lat="43.17395" lon="1.07399">
        <ele>358.63024902</ele>
        <time>2021-10-17T08:12:24Z</time>
      </trkpt>
      <trkpt lat="43.17398" lon="1.07392">
        <ele>357.39025879</ele>
        <time>2021-10-17T08:12:25Z</time>
      </trkpt>
      <trkpt lat="43.174" lon="1.07388">
        <ele>356.17025757</ele>
        <time>2021-10-17T08:12:26Z</time>
      </trkpt>
      <trkpt lat="43.174" lon="1.07383">
        <ele>355.00024414</ele>
        <time>2021-10-17T08:12:27Z</time>
      </trkpt>
      <trkpt lat="43.17403" lon="1.07381">
        <ele>353.87023926</ele>
        <time>2021-10-17T08:12:28Z</time>
      </trkpt>
      <trkpt lat="43.17405" lon="1.07377">
        <ele>352.72024536</ele>
        <time>2021-10-17T08:12:29Z</time>
      </trkpt>
      <trkpt lat="43.17408" lon="1.07372">
        <ele>351.35025024</ele>
        <time>2021-10-17T08:12:30Z</time>
      </trkpt>
      <trkpt lat="43.17409" lon="1.07367">
        <ele>350.07025146</ele>
        <time>2021-10-17T08:12:31Z</time>
      </trkpt>
      <trkpt lat="43.17412" lon="1.07363">
        <ele>348.82025146</ele>
        <time>2021-10-17T08:12:32Z</time>
      </trkpt>
      <trkpt lat="43.17414" lon="1.07357">
        <ele>347.53024292</ele>
        <time>2021-10-17T08:12:33Z</time>
      </trkpt>
      <trkpt lat="43.17419" lon="1.07348">
        <ele>346.03024292</ele>
        <time>2021-10-17T08:12:34Z</time>
      </trkpt>
      <trkpt lat="43.17421" lon="1.07342">
        <ele>344.68023682</ele>
        <time>2021-10-17T08:12:35Z</time>
      </trkpt>
      <trkpt lat="43.17422" lon="1.07336">
        <ele>343.4102478</ele>
        <time>2021-10-17T08:12:36Z</time>
      </trkpt>
      <trkpt lat="43.17422" lon="1.07329">
        <ele>341.93023682</ele>
        <time>2021-10-17T08:12:37Z</time>
      </trkpt>
      <trkpt lat="43.17424" lon="1.07322">
        <ele>340.9102478</ele>
        <time>2021-10-17T08:12:38Z</time>
      </trkpt>
      <trkpt lat="43.17429" lon="1.07316">
        <ele>340.02023315</ele>
        <time>2021-10-17T08:12:39Z</time>
      </trkpt>
      <trkpt lat="43.17432" lon="1.07313">
        <ele>339.09024048</ele>
        <time>2021-10-17T08:12:40Z</time>
      </trkpt>
      <trkpt lat="43.17434" lon="1.0731">
        <ele>338.75024414</ele>
        <time>2021-10-17T08:12:41Z</time>
      </trkpt>
      <trkpt lat="43.17435" lon="1.07307">
        <ele>338.49023438</ele>
        <time>2021-10-17T08:12:42Z</time>
      </trkpt>
      <trkpt lat="43.17436" lon="1.07303">
        <ele>338.25024414</ele>
        <time>2021-10-17T08:12:43Z</time>
      </trkpt>
      <trkpt lat="43.17436" lon="1.073">
        <ele>337.86022949</ele>
        <time>2021-10-17T08:12:44Z</time>
      </trkpt>
      <trkpt lat="43.17437" lon="1.07297">
        <ele>337.11022949</ele>
        <time>2021-10-17T08:12:45Z</time>
      </trkpt>
      <trkpt lat="43.17439" lon="1.07294">
        <ele>335.91021729</ele>
        <time>2021-10-17T08:12:46Z</time>
      </trkpt>
      <trkpt lat="43.17442" lon="1.0729">
        <ele>334.71020508</ele>
        <time>2021-10-17T08:12:47Z</time>
      </trkpt>
      <trkpt lat="43.17444" lon="1.07286">
        <ele>333.48019409</ele>
        <time>2021-10-17T08:12:48Z</time>
      </trkpt>
      <trkpt lat="43.17446" lon="1.07282">
        <ele>332.36019897</ele>
        <time>2021-10-17T08:12:49Z</time>
      </trkpt>
      <trkpt lat="43.17447" lon="1.07278">
        <ele>331.60018921</ele>
        <time>2021-10-17T08:12:50Z</time>
      </trkpt>
      <trkpt lat="43.17448" lon="1.07274">
        <ele>330.650177</ele>
        <time>2021-10-17T08:12:51Z</time>
      </trkpt>
      <trkpt lat="43.17449" lon="1.07268">
        <ele>329.82019043</ele>
        <time>2021-10-17T08:12:52Z</time>
      </trkpt>
      <trkpt lat="43.17448" lon="1.07264">
        <ele>329.13018799</ele>
        <time>2021-10-17T08:12:53Z</time>
      </trkpt>
      <trkpt lat="43.17449" lon="1.07261">
        <ele>328.57019043</ele>
        <time>2021-10-17T08:12:54Z</time>
      </trkpt>
      <trkpt lat="43.1745" lon="1.07259">
        <ele>328.16018677</ele>
        <time>2021-10-17T08:12:55Z</time>
      </trkpt>
      <trkpt lat="43.17451" lon="1.07258">
        <ele>327.72018433</ele>
        <time>2021-10-17T08:12:56Z</time>
      </trkpt>
      <trkpt lat="43.17453" lon="1.07256">
        <ele>327.27017212</ele>
        <time>2021-10-17T08:12:57Z</time>
      </trkpt>
      <trkpt lat="43.17453" lon="1.07255">
        <ele>326.58016968</ele>
        <time>2021-10-17T08:12:58Z</time>
      </trkpt>
      <trkpt lat="43.17454" lon="1.07254">
        <ele>326.02017212</ele>
        <time>2021-10-17T08:12:59Z</time>
      </trkpt>
      <trkpt lat="43.17454" lon="1.07253">
        <ele>325.38015747</ele>
        <time>2021-10-17T08:13:00Z</time>
      </trkpt>
      <trkpt lat="43.17456" lon="1.07252">
        <ele>324.69015503</ele>
        <time>2021-10-17T08:13:01Z</time>
      </trkpt>
      <trkpt lat="43.17458" lon="1.07249">
        <ele>324.20016479</ele>
        <time>2021-10-17T08:13:02Z</time>
      </trkpt>
      <trkpt lat="43.17459" lon="1.07249">
        <ele>323.59017944</ele>
        <time>2021-10-17T08:13:03Z</time>
      </trkpt>
      <trkpt lat="43.1746" lon="1.07247">
        <ele>323.17016602</ele>
        <time>2021-10-17T08:13:04Z</time>
      </trkpt>
      <trkpt lat="43.17461" lon="1.07247">
        <ele>322.75015259</ele>
        <time>2021-10-17T08:13:05Z</time>
      </trkpt>
      <trkpt lat="43.17461" lon="1.07245">
        <ele>322.36013794</ele>
        <time>2021-10-17T08:13:06Z</time>
      </trkpt>
      <trkpt lat="43.17469" lon="1.07233">
        <ele>320.0201416</ele>
        <time>2021-10-17T08:13:20Z</time>
      </trkpt>
      <trkpt lat="43.17469" lon="1.07232">
        <ele>319.6701355</ele>
        <time>2021-10-17T08:13:21Z</time>
      </trkpt>
      <trkpt lat="43.17469" lon="1.0723">
        <ele>319.23013306</ele>
        <time>2021-10-17T08:13:22Z</time>
      </trkpt>
      <trkpt lat="43.1747" lon="1.07229">
        <ele>318.66012573</ele>
        <time>2021-10-17T08:13:23Z</time>
      </trkpt>
      <trkpt lat="43.17471" lon="1.07227">
        <ele>318.16012573</ele>
        <time>2021-10-17T08:13:24Z</time>
      </trkpt>
      <trkpt lat="43.17471" lon="1.07225">
        <ele>317.75012207</ele>
        <time>2021-10-17T08:13:25Z</time>
      </trkpt>
      <trkpt lat="43.1747" lon="1.07224">
        <ele>317.46011353</ele>
        <time>2021-10-17T08:13:26Z</time>
      </trkpt>
      <trkpt lat="43.17469" lon="1.07223">
        <ele>317.2401123</ele>
        <time>2021-10-17T08:13:27Z</time>
      </trkpt>
      <trkpt lat="43.17469" lon="1.07222">
        <ele>317.0401001</ele>
        <time>2021-10-17T08:13:28Z</time>
      </trkpt>
      <trkpt lat="43.17469" lon="1.07221">
        <ele>316.82009888</ele>
        <time>2021-10-17T08:13:29Z</time>
      </trkpt>
      <trkpt lat="43.17469" lon="1.0722">
        <ele>316.56008911</ele>
        <time>2021-10-17T08:13:30Z</time>
      </trkpt>
      <trkpt lat="43.17469" lon="1.07216">
        <ele>316.05007935</ele>
        <time>2021-10-17T08:13:32Z</time>
      </trkpt>
      <trkpt lat="43.17471" lon="1.07214">
        <ele>315.70007324</ele>
        <time>2021-10-17T08:13:33Z</time>
      </trkpt>
      <trkpt lat="43.17471" lon="1.07213">
        <ele>315.31005859</ele>
        <time>2021-10-17T08:13:34Z</time>
      </trkpt>
      <trkpt lat="43.17471" lon="1.07212">
        <ele>314.95007324</ele>
        <time>2021-10-17T08:13:35Z</time>
      </trkpt>
      <trkpt lat="43.17471" lon="1.07211">
        <ele>314.60006714</ele>
        <time>2021-10-17T08:13:36Z</time>
      </trkpt>
      <trkpt lat="43.17472" lon="1.07208">
        <ele>314.40005493</ele>
        <time>2021-10-17T08:13:37Z</time>
      </trkpt>
      <trkpt lat="43.17473" lon="1.07206">
        <ele>314.20004272</ele>
        <time>2021-10-17T08:13:38Z</time>
      </trkpt>
      <trkpt lat="43.17473" lon="1.07205">
        <ele>313.8800354</ele>
        <time>2021-10-17T08:13:39Z</time>
      </trkpt>
      <trkpt lat="43.17473" lon="1.07204">
        <ele>313.56002808</ele>
        <time>2021-10-17T08:13:40Z</time>
      </trkpt>
      <trkpt lat="43.17472" lon="1.07202">
        <ele>313.11001587</ele>
        <time>2021-10-17T08:13:41Z</time>
      </trkpt>
      <trkpt lat="43.17471" lon="1.07201">
        <ele>312.72000122</ele>
        <time>2021-10-17T08:13:42Z</time>
      </trkpt>
      <trkpt lat="43.17472" lon="1.07201">
        <ele>312.45001221</ele>
        <time>2021-10-17T08:13:43Z</time>
      </trkpt>
      <trkpt lat="43.17472" lon="1.07199">
        <ele>312.12002563</ele>
        <time>2021-10-17T08:13:44Z</time>
      </trkpt>
      <trkpt lat="43.17472" lon="1.07198">
        <ele>311.87002563</ele>
        <time>2021-10-17T08:13:45Z</time>
      </trkpt>
      <trkpt lat="43.17472" lon="1.07197">
        <ele>311.47003174</ele>
        <time>2021-10-17T08:13:46Z</time>
      </trkpt>
      <trkpt lat="43.17472" lon="1.07195">
        <ele>310.97003174</ele>
        <time>2021-10-17T08:13:47Z</time>
      </trkpt>
      <trkpt lat="43.17472" lon="1.07192">
        <ele>310.43002319</ele>
        <time>2021-10-17T08:13:48Z</time>
      </trkpt>
      <trkpt lat="43.17473" lon="1.0719">
        <ele>309.65002441</ele>
        <time>2021-10-17T08:13:49Z</time>
      </trkpt>
      <trkpt lat="43.17473" lon="1.07188">
        <ele>308.80001831</ele>
        <time>2021-10-17T08:13:50Z</time>
      </trkpt>
      <trkpt lat="43.17474" lon="1.07186">
        <ele>308.09002686</ele>
        <time>2021-10-17T08:13:51Z</time>
      </trkpt>
      <trkpt lat="43.17473" lon="1.07184">
        <ele>307.4800415</ele>
        <time>2021-10-17T08:13:52Z</time>
      </trkpt>
      <trkpt lat="43.17474" lon="1.07183">
        <ele>307.11004639</ele>
        <time>2021-10-17T08:13:53Z</time>
      </trkpt>
      <trkpt lat="43.17473" lon="1.07181">
        <ele>306.86004639</ele>
        <time>2021-10-17T08:13:54Z</time>
      </trkpt>
      <trkpt lat="43.17472" lon="1.07177">
        <ele>306.56005859</ele>
        <time>2021-10-17T08:13:55Z</time>
      </trkpt>
      <trkpt lat="43.17471" lon="1.07175">
        <ele>306.27005005</ele>
        <time>2021-10-17T08:13:56Z</time>
      </trkpt>
      <trkpt lat="43.17469" lon="1.07172">
        <ele>305.99005127</ele>
        <time>2021-10-17T08:13:57Z</time>
      </trkpt>
      <trkpt lat="43.17467" lon="1.07169">
        <ele>305.87005615</ele>
        <time>2021-10-17T08:13:58Z</time>
      </trkpt>
      <trkpt lat="43.17465" lon="1.07167">
        <ele>305.70004272</ele>
        <time>2021-10-17T08:13:59Z</time>
      </trkpt>
      <trkpt lat="43.17462" lon="1.07164">
        <ele>305.50003052</ele>
        <time>2021-10-17T08:14:00Z</time>
      </trkpt>
      <trkpt lat="43.17461" lon="1.07163">
        <ele>305.57003784</ele>
        <time>2021-10-17T08:14:01Z</time>
      </trkpt>
      <trkpt lat="43.17459" lon="1.07161">
        <ele>305.54003906</ele>
        <time>2021-10-17T08:14:02Z</time>
      </trkpt>
      <trkpt lat="43.17458" lon="1.0716">
        <ele>305.34002686</ele>
        <time>2021-10-17T08:14:03Z</time>
      </trkpt>
      <trkpt lat="43.17456" lon="1.07156">
        <ele>305.27001953</ele>
        <time>2021-10-17T08:14:04Z</time>
      </trkpt>
      <trkpt lat="43.17455" lon="1.07154">
        <ele>304.89001465</ele>
        <time>2021-10-17T08:14:05Z</time>
      </trkpt>
      <trkpt lat="43.17453" lon="1.07151">
        <ele>304.67001343</ele>
        <time>2021-10-17T08:14:06Z</time>
      </trkpt>
      <trkpt lat="43.17452" lon="1.0715">
        <ele>304.65002441</ele>
        <time>2021-10-17T08:14:07Z</time>
      </trkpt>
      <trkpt lat="43.17451" lon="1.07147">
        <ele>304.7800293</ele>
        <time>2021-10-17T08:14:08Z</time>
      </trkpt>
      <trkpt lat="43.17449" lon="1.07142">
        <ele>305.00003052</ele>
        <time>2021-10-17T08:14:09Z</time>
      </trkpt>
      <trkpt lat="43.17447" lon="1.0714">
        <ele>305.15002441</ele>
        <time>2021-10-17T08:14:10Z</time>
      </trkpt>
      <trkpt lat="43.17445" lon="1.07138">
        <ele>305.33001709</ele>
        <time>2021-10-17T08:14:11Z</time>
      </trkpt>
      <trkpt lat="43.17444" lon="1.07135">
        <ele>305.38000488</ele>
        <time>2021-10-17T08:14:12Z</time>
      </trkpt>
      <trkpt lat="43.17441" lon="1.07131">
        <ele>305.39001465</ele>
        <time>2021-10-17T08:14:13Z</time>
      </trkpt>
      <trkpt lat="43.17439" lon="1.07129">
        <ele>305.54000854</ele>
        <time>2021-10-17T08:14:14Z</time>
      </trkpt>
      <trkpt lat="43.17438" lon="1.07128">
        <ele>305.95001221</ele>
        <time>2021-10-17T08:14:15Z</time>
      </trkpt>
      <trkpt lat="43.17437" lon="1.07126">
        <ele>306.38000488</ele>
        <time>2021-10-17T08:14:16Z</time>
      </trkpt>
      <trkpt lat="43.17436" lon="1.07124">
        <ele>306.98001099</ele>
        <time>2021-10-17T08:14:17Z</time>
      </trkpt>
      <trkpt lat="43.17435" lon="1.07122">
        <ele>307.6000061</ele>
        <time>2021-10-17T08:14:18Z</time>
      </trkpt>
      <trkpt lat="43.17434" lon="1.07121">
        <ele>307.95001221</ele>
        <time>2021-10-17T08:14:19Z</time>
      </trkpt>
      <trkpt lat="43.17434" lon="1.07119">
        <ele>308.12002563</ele>
        <time>2021-10-17T08:14:20Z</time>
      </trkpt>
      <trkpt lat="43.17435" lon="1.07119">
        <ele>308.17001343</ele>
        <time>2021-10-17T08:14:21Z</time>
      </trkpt>
      <trkpt lat="43.17434" lon="1.07119">
        <ele>308.04000854</ele>
        <time>2021-10-17T08:14:22Z</time>
      </trkpt>
      <trkpt lat="43.17432" lon="1.07118">
        <ele>307.91000366</ele>
        <time>2021-10-17T08:14:23Z</time>
      </trkpt>
      <trkpt lat="43.1743" lon="1.07116">
        <ele>307.89001465</ele>
        <time>2021-10-17T08:14:24Z</time>
      </trkpt>
      <trkpt lat="43.17428" lon="1.07115">
        <ele>307.90002441</ele>
        <time>2021-10-17T08:14:25Z</time>
      </trkpt>
      <trkpt lat="43.17426" lon="1.07113">
        <ele>307.92001343</ele>
        <time>2021-10-17T08:14:26Z</time>
      </trkpt>
      <trkpt lat="43.17425" lon="1.07112">
        <ele>307.99002075</ele>
        <time>2021-10-17T08:14:27Z</time>
      </trkpt>
      <trkpt lat="43.17424" lon="1.07111">
        <ele>308.09002686</ele>
        <time>2021-10-17T08:14:28Z</time>
      </trkpt>
      <trkpt lat="43.17423" lon="1.07109">
        <ele>308.30001831</ele>
        <time>2021-10-17T08:14:29Z</time>
      </trkpt>
      <trkpt lat="43.17421" lon="1.07106">
        <ele>308.49002075</ele>
        <time>2021-10-17T08:14:30Z</time>
      </trkpt>
      <trkpt lat="43.1742" lon="1.07102">
        <ele>308.66003418</ele>
        <time>2021-10-17T08:14:31Z</time>
      </trkpt>
      <trkpt lat="43.17418" lon="1.071">
        <ele>308.79003906</ele>
        <time>2021-10-17T08:14:32Z</time>
      </trkpt>
      <trkpt lat="43.17417" lon="1.07097">
        <ele>308.75003052</ele>
        <time>2021-10-17T08:14:33Z</time>
      </trkpt>
      <trkpt lat="43.17415" lon="1.07094">
        <ele>308.81002808</ele>
        <time>2021-10-17T08:14:34Z</time>
      </trkpt>
      <trkpt lat="43.17414" lon="1.07092">
        <ele>308.94003296</ele>
        <time>2021-10-17T08:14:35Z</time>
      </trkpt>
      <trkpt lat="43.1741" lon="1.07089">
        <ele>309.09002686</ele>
        <time>2021-10-17T08:14:36Z</time>
      </trkpt>
      <trkpt lat="43.17408" lon="1.07087">
        <ele>309.27001953</ele>
        <time>2021-10-17T08:14:37Z</time>
      </trkpt>
      <trkpt lat="43.17405" lon="1.07085">
        <ele>309.42001343</ele>
        <time>2021-10-17T08:14:38Z</time>
      </trkpt>
      <trkpt lat="43.17403" lon="1.07084">
        <ele>309.45001221</ele>
        <time>2021-10-17T08:14:39Z</time>
      </trkpt>
      <trkpt lat="43.17401" lon="1.07082">
        <ele>309.55001831</ele>
        <time>2021-10-17T08:14:40Z</time>
      </trkpt>
      <trkpt lat="43.17399" lon="1.07079">
        <ele>309.63000488</ele>
        <time>2021-10-17T08:14:41Z</time>
      </trkpt>
      <trkpt lat="43.17397" lon="1.07077">
        <ele>309.69000244</ele>
        <time>2021-10-17T08:14:42Z</time>
      </trkpt>
      <trkpt lat="43.17394" lon="1.07075">
        <ele>309.83999634</ele>
        <time>2021-10-17T08:14:43Z</time>
      </trkpt>
      <trkpt lat="43.17393" lon="1.07074">
        <ele>309.82998657</ele>
        <time>2021-10-17T08:14:44Z</time>
      </trkpt>
      <trkpt lat="43.1739" lon="1.07072">
        <ele>309.88998413</ele>
        <time>2021-10-17T08:14:45Z</time>
      </trkpt>
      <trkpt lat="43.17387" lon="1.07071">
        <ele>309.92999268</ele>
        <time>2021-10-17T08:14:46Z</time>
      </trkpt>
      <trkpt lat="43.17385" lon="1.0707">
        <ele>309.92999268</ele>
        <time>2021-10-17T08:14:47Z</time>
      </trkpt>
      <trkpt lat="43.17383" lon="1.07069">
        <ele>310.00997925</ele>
        <time>2021-10-17T08:14:48Z</time>
      </trkpt>
      <trkpt lat="43.1738" lon="1.07068">
        <ele>310.05996704</ele>
        <time>2021-10-17T08:14:49Z</time>
      </trkpt>
      <trkpt lat="43.17379" lon="1.07069">
        <ele>310.14996338</ele>
        <time>2021-10-17T08:14:50Z</time>
      </trkpt>
      <trkpt lat="43.17377" lon="1.07069">
        <ele>310.23995972</ele>
        <time>2021-10-17T08:14:51Z</time>
      </trkpt>
      <trkpt lat="43.17375" lon="1.0707">
        <ele>310.33996582</ele>
        <time>2021-10-17T08:14:52Z</time>
      </trkpt>
      <trkpt lat="43.17373" lon="1.0707">
        <ele>310.31997681</ele>
        <time>2021-10-17T08:14:53Z</time>
      </trkpt>
      <trkpt lat="43.1737" lon="1.0707">
        <ele>310.26998901</ele>
        <time>2021-10-17T08:14:54Z</time>
      </trkpt>
      <trkpt lat="43.17368" lon="1.07071">
        <ele>310.25997925</ele>
        <time>2021-10-17T08:14:55Z</time>
      </trkpt>
      <trkpt lat="43.17366" lon="1.07071">
        <ele>310.2199707</ele>
        <time>2021-10-17T08:14:56Z</time>
      </trkpt>
      <trkpt lat="43.17365" lon="1.0707">
        <ele>310.23995972</ele>
        <time>2021-10-17T08:14:57Z</time>
      </trkpt>
      <trkpt lat="43.17363" lon="1.07071">
        <ele>310.34994507</ele>
        <time>2021-10-17T08:14:58Z</time>
      </trkpt>
      <trkpt lat="43.1736" lon="1.07071">
        <ele>310.32995605</ele>
        <time>2021-10-17T08:14:59Z</time>
      </trkpt>
      <trkpt lat="43.17358" lon="1.0707">
        <ele>310.28994751</ele>
        <time>2021-10-17T08:15:00Z</time>
      </trkpt>
      <trkpt lat="43.17356" lon="1.07071">
        <ele>310.28994751</ele>
        <time>2021-10-17T08:15:01Z</time>
      </trkpt>
      <trkpt lat="43.17355" lon="1.07071">
        <ele>310.24993896</ele>
        <time>2021-10-17T08:15:02Z</time>
      </trkpt>
      <trkpt lat="43.17352" lon="1.07072">
        <ele>310.32992554</ele>
        <time>2021-10-17T08:15:03Z</time>
      </trkpt>
      <trkpt lat="43.17351" lon="1.07072">
        <ele>310.45993042</ele>
        <time>2021-10-17T08:15:04Z</time>
      </trkpt>
      <trkpt lat="43.1735" lon="1.07072">
        <ele>310.47991943</ele>
        <time>2021-10-17T08:15:05Z</time>
      </trkpt>
      <trkpt lat="43.17348" lon="1.07072">
        <ele>310.46990967</ele>
        <time>2021-10-17T08:15:06Z</time>
      </trkpt>
      <trkpt lat="43.17345" lon="1.07072">
        <ele>310.22991943</ele>
        <time>2021-10-17T08:15:07Z</time>
      </trkpt>
      <trkpt lat="43.17343" lon="1.07074">
        <ele>309.95993042</ele>
        <time>2021-10-17T08:15:08Z</time>
      </trkpt>
      <trkpt lat="43.17342" lon="1.07077">
        <ele>309.72991943</ele>
        <time>2021-10-17T08:15:09Z</time>
      </trkpt>
      <trkpt lat="43.1734" lon="1.07079">
        <ele>309.51992798</ele>
        <time>2021-10-17T08:15:10Z</time>
      </trkpt>
      <trkpt lat="43.17337" lon="1.07082">
        <ele>309.47991943</ele>
        <time>2021-10-17T08:15:11Z</time>
      </trkpt>
      <trkpt lat="43.17334" lon="1.07084">
        <ele>309.3899231</ele>
        <time>2021-10-17T08:15:12Z</time>
      </trkpt>
      <trkpt lat="43.17333" lon="1.07086">
        <ele>309.3899231</ele>
        <time>2021-10-17T08:15:13Z</time>
      </trkpt>
      <trkpt lat="43.17331" lon="1.07087">
        <ele>309.4899292</ele>
        <time>2021-10-17T08:15:14Z</time>
      </trkpt>
      <trkpt lat="43.17329" lon="1.07088">
        <ele>309.4899292</ele>
        <time>2021-10-17T08:15:15Z</time>
      </trkpt>
      <trkpt lat="43.17326" lon="1.07088">
        <ele>309.6399231</ele>
        <time>2021-10-17T08:15:16Z</time>
      </trkpt>
      <trkpt lat="43.17324" lon="1.07089">
        <ele>309.69992065</ele>
        <time>2021-10-17T08:15:17Z</time>
      </trkpt>
      <trkpt lat="43.17323" lon="1.07092">
        <ele>309.76992798</ele>
        <time>2021-10-17T08:15:18Z</time>
      </trkpt>
      <trkpt lat="43.17322" lon="1.07094">
        <ele>309.77993774</ele>
        <time>2021-10-17T08:15:19Z</time>
      </trkpt>
      <trkpt lat="43.17321" lon="1.07096">
        <ele>309.93994141</ele>
        <time>2021-10-17T08:15:20Z</time>
      </trkpt>
      <trkpt lat="43.17319" lon="1.07097">
        <ele>311.87994385</ele>
        <time>2021-10-17T08:15:21Z</time>
      </trkpt>
      <trkpt lat="43.17317" lon="1.071">
        <ele>312.31994629</ele>
        <time>2021-10-17T08:15:22Z</time>
      </trkpt>
      <trkpt lat="43.17315" lon="1.07101">
        <ele>312.8399353</ele>
        <time>2021-10-17T08:15:23Z</time>
      </trkpt>
      <trkpt lat="43.17313" lon="1.07102">
        <ele>313.18994141</ele>
        <time>2021-10-17T08:15:24Z</time>
      </trkpt>
      <trkpt lat="43.17311" lon="1.07104">
        <ele>313.57995605</ele>
        <time>2021-10-17T08:15:25Z</time>
      </trkpt>
      <trkpt lat="43.17309" lon="1.07105">
        <ele>314.03994751</ele>
        <time>2021-10-17T08:15:26Z</time>
      </trkpt>
      <trkpt lat="43.17308" lon="1.07107">
        <ele>314.53994751</ele>
        <time>2021-10-17T08:15:27Z</time>
      </trkpt>
      <trkpt lat="43.17307" lon="1.07108">
        <ele>315.28994751</ele>
        <time>2021-10-17T08:15:28Z</time>
      </trkpt>
      <trkpt lat="43.17307" lon="1.07111">
        <ele>315.90994263</ele>
        <time>2021-10-17T08:15:29Z</time>
      </trkpt>
      <trkpt lat="43.17305" lon="1.07113">
        <ele>316.37994385</ele>
        <time>2021-10-17T08:15:30Z</time>
      </trkpt>
      <trkpt lat="43.17304" lon="1.07115">
        <ele>316.88995361</ele>
        <time>2021-10-17T08:15:31Z</time>
      </trkpt>
      <trkpt lat="43.17302" lon="1.07115">
        <ele>317.19995117</ele>
        <time>2021-10-17T08:15:32Z</time>
      </trkpt>
      <trkpt lat="43.17301" lon="1.07116">
        <ele>317.43994141</ele>
        <time>2021-10-17T08:15:33Z</time>
      </trkpt>
      <trkpt lat="43.17297" lon="1.07117">
        <ele>317.82995605</ele>
        <time>2021-10-17T08:15:34Z</time>
      </trkpt>
      <trkpt lat="43.17295" lon="1.07118">
        <ele>318.12994385</ele>
        <time>2021-10-17T08:15:35Z</time>
      </trkpt>
      <trkpt lat="43.17293" lon="1.07118">
        <ele>318.49993896</ele>
        <time>2021-10-17T08:15:36Z</time>
      </trkpt>
      <trkpt lat="43.17292" lon="1.07118">
        <ele>318.7399292</ele>
        <time>2021-10-17T08:15:37Z</time>
      </trkpt>
      <trkpt lat="43.1729" lon="1.07117">
        <ele>318.90994263</ele>
        <time>2021-10-17T08:15:38Z</time>
      </trkpt>
      <trkpt lat="43.17288" lon="1.07118">
        <ele>319.02993774</ele>
        <time>2021-10-17T08:15:39Z</time>
      </trkpt>
      <trkpt lat="43.17286" lon="1.07118">
        <ele>319.03994751</ele>
        <time>2021-10-17T08:15:40Z</time>
      </trkpt>
      <trkpt lat="43.17284" lon="1.07118">
        <ele>319.19995117</ele>
        <time>2021-10-17T08:15:41Z</time>
      </trkpt>
      <trkpt lat="43.17282" lon="1.07118">
        <ele>319.39996338</ele>
        <time>2021-10-17T08:15:42Z</time>
      </trkpt>
      <trkpt lat="43.1728" lon="1.07116">
        <ele>319.67996216</ele>
        <time>2021-10-17T08:15:43Z</time>
      </trkpt>
      <trkpt lat="43.17278" lon="1.07116">
        <ele>319.95996094</ele>
        <time>2021-10-17T08:15:44Z</time>
      </trkpt>
      <trkpt lat="43.17276" lon="1.07115">
        <ele>320.05996704</ele>
        <time>2021-10-17T08:15:45Z</time>
      </trkpt>
      <trkpt lat="43.17275" lon="1.07115">
        <ele>320.16995239</ele>
        <time>2021-10-17T08:15:46Z</time>
      </trkpt>
      <trkpt lat="43.17272" lon="1.07113">
        <ele>320.12994385</ele>
        <time>2021-10-17T08:15:47Z</time>
      </trkpt>
      <trkpt lat="43.17268" lon="1.0711">
        <ele>319.96994019</ele>
        <time>2021-10-17T08:15:48Z</time>
      </trkpt>
      <trkpt lat="43.17264" lon="1.07108">
        <ele>319.69995117</ele>
        <time>2021-10-17T08:15:49Z</time>
      </trkpt>
      <trkpt lat="43.17262" lon="1.07106">
        <ele>319.39996338</ele>
        <time>2021-10-17T08:15:50Z</time>
      </trkpt>
      <trkpt lat="43.17261" lon="1.07104">
        <ele>319.23995972</ele>
        <time>2021-10-17T08:15:51Z</time>
      </trkpt>
      <trkpt lat="43.17259" lon="1.07101">
        <ele>319.20996094</ele>
        <time>2021-10-17T08:15:52Z</time>
      </trkpt>
      <trkpt lat="43.17257" lon="1.071">
        <ele>319.33996582</ele>
        <time>2021-10-17T08:15:53Z</time>
      </trkpt>
      <trkpt lat="43.17256" lon="1.07099">
        <ele>319.29995728</ele>
        <time>2021-10-17T08:15:54Z</time>
      </trkpt>
      <trkpt lat="43.17256" lon="1.07097">
        <ele>318.99996948</ele>
        <time>2021-10-17T08:15:55Z</time>
      </trkpt>
      <trkpt lat="43.17255" lon="1.07094">
        <ele>318.44998169</ele>
        <time>2021-10-17T08:15:56Z</time>
      </trkpt>
      <trkpt lat="43.17252" lon="1.07089">
        <ele>317.68997192</ele>
        <time>2021-10-17T08:15:57Z</time>
      </trkpt>
      <trkpt lat="43.17251" lon="1.07086">
        <ele>316.83996582</ele>
        <time>2021-10-17T08:15:58Z</time>
      </trkpt>
      <trkpt lat="43.17251" lon="1.07084">
        <ele>316.02996826</ele>
        <time>2021-10-17T08:15:59Z</time>
      </trkpt>
      <trkpt lat="43.1725" lon="1.07081">
        <ele>315.25997925</ele>
        <time>2021-10-17T08:16:00Z</time>
      </trkpt>
      <trkpt lat="43.17248" lon="1.07076">
        <ele>314.47998047</ele>
        <time>2021-10-17T08:16:01Z</time>
      </trkpt>
      <trkpt lat="43.17248" lon="1.07075">
        <ele>313.92999268</ele>
        <time>2021-10-17T08:16:02Z</time>
      </trkpt>
      <trkpt lat="43.17249" lon="1.07074">
        <ele>313.45999146</ele>
        <time>2021-10-17T08:16:03Z</time>
      </trkpt>
      <trkpt lat="43.1725" lon="1.07073">
        <ele>313.07998657</ele>
        <time>2021-10-17T08:16:04Z</time>
      </trkpt>
      <trkpt lat="43.17251" lon="1.07073">
        <ele>312.87997437</ele>
        <time>2021-10-17T08:16:05Z</time>
      </trkpt>
      <trkpt lat="43.17252" lon="1.07074">
        <ele>312.56997681</ele>
        <time>2021-10-17T08:16:06Z</time>
      </trkpt>
      <trkpt lat="43.17253" lon="1.07074">
        <ele>312.33996582</ele>
        <time>2021-10-17T08:16:07Z</time>
      </trkpt>
      <trkpt lat="43.17254" lon="1.07074">
        <ele>312.06997681</ele>
        <time>2021-10-17T08:16:08Z</time>
      </trkpt>
      <trkpt lat="43.17256" lon="1.07074">
        <ele>311.75997925</ele>
        <time>2021-10-17T08:16:09Z</time>
      </trkpt>
      <trkpt lat="43.17256" lon="1.07072">
        <ele>311.41998291</ele>
        <time>2021-10-17T08:16:10Z</time>
      </trkpt>
      <trkpt lat="43.17258" lon="1.07073">
        <ele>311.25997925</ele>
        <time>2021-10-17T08:16:11Z</time>
      </trkpt>
      <trkpt lat="43.17259" lon="1.07073">
        <ele>311.26998901</ele>
        <time>2021-10-17T08:16:12Z</time>
      </trkpt>
      <trkpt lat="43.1726" lon="1.07072">
        <ele>311.44000244</ele>
        <time>2021-10-17T08:16:13Z</time>
      </trkpt>
      <trkpt lat="43.17261" lon="1.07073">
        <ele>311.79998779</ele>
        <time>2021-10-17T08:16:14Z</time>
      </trkpt>
      <trkpt lat="43.17263" lon="1.07072">
        <ele>312.00997925</ele>
        <time>2021-10-17T08:16:15Z</time>
      </trkpt>
      <trkpt lat="43.17262" lon="1.07073">
        <ele>312.23999023</ele>
        <time>2021-10-17T08:16:16Z</time>
      </trkpt>
      <trkpt lat="43.1726" lon="1.07079">
        <ele>312.23999023</ele>
        <time>2021-10-17T08:17:05Z</time>
      </trkpt>
      <trkpt lat="43.17262" lon="1.07081">
        <ele>312.17999268</ele>
        <time>2021-10-17T08:17:06Z</time>
      </trkpt>
      <trkpt lat="43.17264" lon="1.0708">
        <ele>312.22000122</ele>
        <time>2021-10-17T08:17:07Z</time>
      </trkpt>
      <trkpt lat="43.17267" lon="1.0708">
        <ele>312.32998657</ele>
        <time>2021-10-17T08:17:08Z</time>
      </trkpt>
      <trkpt lat="43.17269" lon="1.07081">
        <ele>312.43997192</ele>
        <time>2021-10-17T08:17:09Z</time>
      </trkpt>
      <trkpt lat="43.17272" lon="1.0708">
        <ele>312.59997559</ele>
        <time>2021-10-17T08:17:10Z</time>
      </trkpt>
      <trkpt lat="43.17274" lon="1.07079">
        <ele>312.78997803</ele>
        <time>2021-10-17T08:17:11Z</time>
      </trkpt>
      <trkpt lat="43.17276" lon="1.07079">
        <ele>312.93997192</ele>
        <time>2021-10-17T08:17:12Z</time>
      </trkpt>
      <trkpt lat="43.17279" lon="1.07079">
        <ele>313.24996948</ele>
        <time>2021-10-17T08:17:13Z</time>
      </trkpt>
      <trkpt lat="43.17281" lon="1.07077">
        <ele>313.56997681</ele>
        <time>2021-10-17T08:17:14Z</time>
      </trkpt>
      <trkpt lat="43.17283" lon="1.07075">
        <ele>313.78997803</ele>
        <time>2021-10-17T08:17:15Z</time>
      </trkpt>
      <trkpt lat="43.17284" lon="1.07072">
        <ele>314.04998779</ele>
        <time>2021-10-17T08:17:16Z</time>
      </trkpt>
      <trkpt lat="43.17286" lon="1.0707">
        <ele>314.17999268</ele>
        <time>2021-10-17T08:17:17Z</time>
      </trkpt>
      <trkpt lat="43.17287" lon="1.07069">
        <ele>314.22998047</ele>
        <time>2021-10-17T08:17:18Z</time>
      </trkpt>
      <trkpt lat="43.17289" lon="1.07067">
        <ele>314.34997559</ele>
        <time>2021-10-17T08:17:19Z</time>
      </trkpt>
      <trkpt lat="43.17291" lon="1.07065">
        <ele>314.24996948</ele>
        <time>2021-10-17T08:17:20Z</time>
      </trkpt>
      <trkpt lat="43.17293" lon="1.07064">
        <ele>314.12997437</ele>
        <time>2021-10-17T08:17:21Z</time>
      </trkpt>
      <trkpt lat="43.17296" lon="1.07062">
        <ele>314.05996704</ele>
        <time>2021-10-17T08:17:22Z</time>
      </trkpt>
      <trkpt lat="43.17297" lon="1.0706">
        <ele>313.90997314</ele>
        <time>2021-10-17T08:17:23Z</time>
      </trkpt>
      <trkpt lat="43.173" lon="1.07058">
        <ele>313.85998535</ele>
        <time>2021-10-17T08:17:24Z</time>
      </trkpt>
      <trkpt lat="43.17303" lon="1.07057">
        <ele>313.81997681</ele>
        <time>2021-10-17T08:17:25Z</time>
      </trkpt>
      <trkpt lat="43.17303" lon="1.07056">
        <ele>313.85998535</ele>
        <time>2021-10-17T08:17:26Z</time>
      </trkpt>
      <trkpt lat="43.17303" lon="1.07056">
        <ele>313.85998535</ele>
        <time>2021-10-17T08:17:27Z</time>
      </trkpt>
      <trkpt lat="43.17304" lon="1.07056">
        <ele>314.02999878</ele>
        <time>2021-10-17T08:17:28Z</time>
      </trkpt>
      <trkpt lat="43.17303" lon="1.07055">
        <ele>314.27999878</ele>
        <time>2021-10-17T08:17:29Z</time>
      </trkpt>
      <trkpt lat="43.17302" lon="1.07054">
        <ele>314.42999268</ele>
        <time>2021-10-17T08:17:30Z</time>
      </trkpt>
      <trkpt lat="43.17299" lon="1.07053">
        <ele>314.79998779</ele>
        <time>2021-10-17T08:17:31Z</time>
      </trkpt>
      <trkpt lat="43.17297" lon="1.07052">
        <ele>315.1499939</ele>
        <time>2021-10-17T08:17:32Z</time>
      </trkpt>
      <trkpt lat="43.17295" lon="1.07049">
        <ele>315.48999023</ele>
        <time>2021-10-17T08:17:33Z</time>
      </trkpt>
      <trkpt lat="43.17293" lon="1.07047">
        <ele>315.8999939</ele>
        <time>2021-10-17T08:17:34Z</time>
      </trkpt>
      <trkpt lat="43.17292" lon="1.07046">
        <ele>316.16000366</ele>
        <time>2021-10-17T08:17:35Z</time>
      </trkpt>
      <trkpt lat="43.1729" lon="1.07045">
        <ele>316.45001221</ele>
        <time>2021-10-17T08:17:36Z</time>
      </trkpt>
      <trkpt lat="43.17288" lon="1.07043">
        <ele>316.71002197</ele>
        <time>2021-10-17T08:17:37Z</time>
      </trkpt>
      <trkpt lat="43.17287" lon="1.07043">
        <ele>317.10003662</ele>
        <time>2021-10-17T08:17:38Z</time>
      </trkpt>
      <trkpt lat="43.17286" lon="1.07042">
        <ele>317.52005005</ele>
        <time>2021-10-17T08:17:39Z</time>
      </trkpt>
      <trkpt lat="43.17282" lon="1.0704">
        <ele>317.92004395</ele>
        <time>2021-10-17T08:17:40Z</time>
      </trkpt>
      <trkpt lat="43.1728" lon="1.07039">
        <ele>318.27005005</ele>
        <time>2021-10-17T08:17:41Z</time>
      </trkpt>
      <trkpt lat="43.17278" lon="1.07038">
        <ele>318.6300354</ele>
        <time>2021-10-17T08:17:42Z</time>
      </trkpt>
      <trkpt lat="43.17277" lon="1.07038">
        <ele>319.10003662</ele>
        <time>2021-10-17T08:17:43Z</time>
      </trkpt>
      <trkpt lat="43.17275" lon="1.07038">
        <ele>319.59002686</ele>
        <time>2021-10-17T08:17:44Z</time>
      </trkpt>
      <trkpt lat="43.17272" lon="1.07037">
        <ele>320.11001587</ele>
        <time>2021-10-17T08:17:45Z</time>
      </trkpt>
      <trkpt lat="43.1727" lon="1.07036">
        <ele>320.63000488</ele>
        <time>2021-10-17T08:17:46Z</time>
      </trkpt>
      <trkpt lat="43.17268" lon="1.07035">
        <ele>321.11999512</ele>
        <time>2021-10-17T08:17:47Z</time>
      </trkpt>
      <trkpt lat="43.17266" lon="1.07035">
        <ele>321.63000488</ele>
        <time>2021-10-17T08:17:48Z</time>
      </trkpt>
      <trkpt lat="43.17265" lon="1.07034">
        <ele>322.1499939</ele>
        <time>2021-10-17T08:17:49Z</time>
      </trkpt>
      <trkpt lat="43.17263" lon="1.07032">
        <ele>322.5</ele>
        <time>2021-10-17T08:17:50Z</time>
      </trkpt>
      <trkpt lat="43.17262" lon="1.0703">
        <ele>322.82000732</ele>
        <time>2021-10-17T08:17:51Z</time>
      </trkpt>
      <trkpt lat="43.17261" lon="1.07028">
        <ele>322.92001343</ele>
        <time>2021-10-17T08:17:52Z</time>
      </trkpt>
      <trkpt lat="43.17261" lon="1.07027">
        <ele>323.11001587</ele>
        <time>2021-10-17T08:17:53Z</time>
      </trkpt>
      <trkpt lat="43.1726" lon="1.07025">
        <ele>323.32000732</ele>
        <time>2021-10-17T08:17:54Z</time>
      </trkpt>
      <trkpt lat="43.1726" lon="1.07024">
        <ele>323.51000977</ele>
        <time>2021-10-17T08:17:55Z</time>
      </trkpt>
      <trkpt lat="43.1726" lon="1.07022">
        <ele>323.90002441</ele>
        <time>2021-10-17T08:17:56Z</time>
      </trkpt>
      <trkpt lat="43.1726" lon="1.07021">
        <ele>324.20001221</ele>
        <time>2021-10-17T08:17:57Z</time>
      </trkpt>
      <trkpt lat="43.1726" lon="1.07019">
        <ele>324.55999756</ele>
        <time>2021-10-17T08:17:58Z</time>
      </trkpt>
      <trkpt lat="43.17259" lon="1.07013">
        <ele>324.88000488</ele>
        <time>2021-10-17T08:17:59Z</time>
      </trkpt>
      <trkpt lat="43.17258" lon="1.0701">
        <ele>325.22000122</ele>
        <time>2021-10-17T08:18:00Z</time>
      </trkpt>
      <trkpt lat="43.17257" lon="1.07007">
        <ele>325.58999634</ele>
        <time>2021-10-17T08:18:01Z</time>
      </trkpt>
      <trkpt lat="43.17256" lon="1.07003">
        <ele>325.91000366</ele>
        <time>2021-10-17T08:18:02Z</time>
      </trkpt>
      <trkpt lat="43.17256" lon="1.07">
        <ele>326.27999878</ele>
        <time>2021-10-17T08:18:03Z</time>
      </trkpt>
      <trkpt lat="43.17256" lon="1.06998">
        <ele>326.54998779</ele>
        <time>2021-10-17T08:18:04Z</time>
      </trkpt>
      <trkpt lat="43.17255" lon="1.06996">
        <ele>326.83999634</ele>
        <time>2021-10-17T08:18:05Z</time>
      </trkpt>
      <trkpt lat="43.17259" lon="1.06991">
        <ele>329.01998901</ele>
        <time>2021-10-17T08:18:05Z</time>
      </trkpt>
      <trkpt lat="43.17258" lon="1.06987">
        <ele>329.30999756</ele>
        <time>2021-10-17T08:18:06Z</time>
      </trkpt>
      <trkpt lat="43.17258" lon="1.06985">
        <ele>329.54998779</ele>
        <time>2021-10-17T08:18:07Z</time>
      </trkpt>
      <trkpt lat="43.17257" lon="1.06982">
        <ele>329.82998657</ele>
        <time>2021-10-17T08:18:08Z</time>
      </trkpt>
      <trkpt lat="43.17257" lon="1.06979">
        <ele>330.06997681</ele>
        <time>2021-10-17T08:18:09Z</time>
      </trkpt>
      <trkpt lat="43.17257" lon="1.06978">
        <ele>330.29998779</ele>
        <time>2021-10-17T08:18:10Z</time>
      </trkpt>
      <trkpt lat="43.17256" lon="1.06975">
        <ele>330.52999878</ele>
        <time>2021-10-17T08:18:11Z</time>
      </trkpt>
      <trkpt lat="43.17256" lon="1.06972">
        <ele>330.72000122</ele>
        <time>2021-10-17T08:18:12Z</time>
      </trkpt>
      <trkpt lat="43.17255" lon="1.06969">
        <ele>330.94000244</ele>
        <time>2021-10-17T08:18:13Z</time>
      </trkpt>
      <trkpt lat="43.17255" lon="1.06966">
        <ele>331.11999512</ele>
        <time>2021-10-17T08:18:14Z</time>
      </trkpt>
      <trkpt lat="43.17255" lon="1.06962">
        <ele>331.42999268</ele>
        <time>2021-10-17T08:18:15Z</time>
      </trkpt>
      <trkpt lat="43.17255" lon="1.06959">
        <ele>331.70999146</ele>
        <time>2021-10-17T08:18:16Z</time>
      </trkpt>
      <trkpt lat="43.17254" lon="1.06956">
        <ele>331.95999146</ele>
        <time>2021-10-17T08:18:17Z</time>
      </trkpt>
      <trkpt lat="43.17254" lon="1.06953">
        <ele>332.16000366</ele>
        <time>2021-10-17T08:18:18Z</time>
      </trkpt>
      <trkpt lat="43.17254" lon="1.0695">
        <ele>332.29000854</ele>
        <time>2021-10-17T08:18:19Z</time>
      </trkpt>
      <trkpt lat="43.17254" lon="1.06947">
        <ele>332.44000244</ele>
        <time>2021-10-17T08:18:20Z</time>
      </trkpt>
      <trkpt lat="43.17254" lon="1.06942">
        <ele>332.66000366</ele>
        <time>2021-10-17T08:18:21Z</time>
      </trkpt>
      <trkpt lat="43.17254" lon="1.06939">
        <ele>332.95999146</ele>
        <time>2021-10-17T08:18:22Z</time>
      </trkpt>
      <trkpt lat="43.17254" lon="1.06936">
        <ele>333.22998047</ele>
        <time>2021-10-17T08:18:23Z</time>
      </trkpt>
      <trkpt lat="43.17254" lon="1.06933">
        <ele>333.50997925</ele>
        <time>2021-10-17T08:18:24Z</time>
      </trkpt>
      <trkpt lat="43.17255" lon="1.06927">
        <ele>333.74996948</ele>
        <time>2021-10-17T08:18:25Z</time>
      </trkpt>
      <trkpt lat="43.17255" lon="1.06924">
        <ele>334.03997803</ele>
        <time>2021-10-17T08:18:26Z</time>
      </trkpt>
      <trkpt lat="43.17255" lon="1.06921">
        <ele>334.29998779</ele>
        <time>2021-10-17T08:18:27Z</time>
      </trkpt>
      <trkpt lat="43.17255" lon="1.06918">
        <ele>334.66998291</ele>
        <time>2021-10-17T08:18:28Z</time>
      </trkpt>
      <trkpt lat="43.17256" lon="1.06914">
        <ele>334.99996948</ele>
        <time>2021-10-17T08:18:29Z</time>
      </trkpt>
      <trkpt lat="43.17256" lon="1.06911">
        <ele>335.34997559</ele>
        <time>2021-10-17T08:18:30Z</time>
      </trkpt>
      <trkpt lat="43.17255" lon="1.06908">
        <ele>335.75997925</ele>
        <time>2021-10-17T08:18:31Z</time>
      </trkpt>
      <trkpt lat="43.17255" lon="1.06907">
        <ele>336.16998291</ele>
        <time>2021-10-17T08:18:32Z</time>
      </trkpt>
      <trkpt lat="43.17255" lon="1.06904">
        <ele>336.57998657</ele>
        <time>2021-10-17T08:18:33Z</time>
      </trkpt>
      <trkpt lat="43.17255" lon="1.06901">
        <ele>336.94998169</ele>
        <time>2021-10-17T08:18:34Z</time>
      </trkpt>
      <trkpt lat="43.17255" lon="1.06898">
        <ele>337.28997803</ele>
        <time>2021-10-17T08:18:35Z</time>
      </trkpt>
      <trkpt lat="43.17256" lon="1.06895">
        <ele>337.51998901</ele>
        <time>2021-10-17T08:18:36Z</time>
      </trkpt>
      <trkpt lat="43.17255" lon="1.06892">
        <ele>337.81997681</ele>
        <time>2021-10-17T08:18:37Z</time>
      </trkpt>
      <trkpt lat="43.17255" lon="1.06888">
        <ele>338.02996826</ele>
        <time>2021-10-17T08:18:38Z</time>
      </trkpt>
      <trkpt lat="43.17255" lon="1.06886">
        <ele>338.19998169</ele>
        <time>2021-10-17T08:18:39Z</time>
      </trkpt>
      <trkpt lat="43.17255" lon="1.06881">
        <ele>338.50997925</ele>
        <time>2021-10-17T08:18:40Z</time>
      </trkpt>
      <trkpt lat="43.17254" lon="1.06877">
        <ele>338.73999023</ele>
        <time>2021-10-17T08:18:41Z</time>
      </trkpt>
      <trkpt lat="43.17252" lon="1.06876">
        <ele>339.03997803</ele>
        <time>2021-10-17T08:18:42Z</time>
      </trkpt>
      <trkpt lat="43.17251" lon="1.06873">
        <ele>339.34997559</ele>
        <time>2021-10-17T08:18:43Z</time>
      </trkpt>
      <trkpt lat="43.17251" lon="1.06871">
        <ele>339.53997803</ele>
        <time>2021-10-17T08:18:44Z</time>
      </trkpt>
      <trkpt lat="43.17251" lon="1.06868">
        <ele>339.72998047</ele>
        <time>2021-10-17T08:18:45Z</time>
      </trkpt>
      <trkpt lat="43.1725" lon="1.06865">
        <ele>339.99996948</ele>
        <time>2021-10-17T08:18:46Z</time>
      </trkpt>
      <trkpt lat="43.1725" lon="1.06862">
        <ele>340.28997803</ele>
        <time>2021-10-17T08:18:47Z</time>
      </trkpt>
      <trkpt lat="43.1725" lon="1.06858">
        <ele>340.57998657</ele>
        <time>2021-10-17T08:18:48Z</time>
      </trkpt>
      <trkpt lat="43.17249" lon="1.06854">
        <ele>340.87997437</ele>
        <time>2021-10-17T08:18:49Z</time>
      </trkpt>
      <trkpt lat="43.17249" lon="1.06851">
        <ele>341.09997559</ele>
        <time>2021-10-17T08:18:50Z</time>
      </trkpt>
      <trkpt lat="43.17249" lon="1.06848">
        <ele>341.31997681</ele>
        <time>2021-10-17T08:18:51Z</time>
      </trkpt>
      <trkpt lat="43.17249" lon="1.06843">
        <ele>341.50997925</ele>
        <time>2021-10-17T08:18:52Z</time>
      </trkpt>
      <trkpt lat="43.17249" lon="1.0684">
        <ele>341.72998047</ele>
        <time>2021-10-17T08:18:53Z</time>
      </trkpt>
      <trkpt lat="43.17249" lon="1.06837">
        <ele>341.87997437</ele>
        <time>2021-10-17T08:18:54Z</time>
      </trkpt>
      <trkpt lat="43.1725" lon="1.06835">
        <ele>342.12997437</ele>
        <time>2021-10-17T08:18:55Z</time>
      </trkpt>
      <trkpt lat="43.1725" lon="1.06833">
        <ele>342.35998535</ele>
        <time>2021-10-17T08:18:56Z</time>
      </trkpt>
      <trkpt lat="43.17251" lon="1.0683">
        <ele>342.60998535</ele>
        <time>2021-10-17T08:18:57Z</time>
      </trkpt>
      <trkpt lat="43.17251" lon="1.06828">
        <ele>342.84997559</ele>
        <time>2021-10-17T08:18:58Z</time>
      </trkpt>
      <trkpt lat="43.17248" lon="1.06826">
        <ele>342.94998169</ele>
        <time>2021-10-17T08:18:59Z</time>
      </trkpt>
      <trkpt lat="43.17248" lon="1.06824">
        <ele>342.93997192</ele>
        <time>2021-10-17T08:19:00Z</time>
      </trkpt>
      <trkpt lat="43.17245" lon="1.06819">
        <ele>342.69998169</ele>
        <time>2021-10-17T08:19:01Z</time>
      </trkpt>
      <trkpt lat="43.17243" lon="1.06815">
        <ele>342.28997803</ele>
        <time>2021-10-17T08:19:02Z</time>
      </trkpt>
      <trkpt lat="43.1724" lon="1.0681">
        <ele>341.59997559</ele>
        <time>2021-10-17T08:19:03Z</time>
      </trkpt>
      <trkpt lat="43.17238" lon="1.06804">
        <ele>340.74996948</ele>
        <time>2021-10-17T08:19:04Z</time>
      </trkpt>
      <trkpt lat="43.17236" lon="1.06797">
        <ele>339.66998291</ele>
        <time>2021-10-17T08:19:05Z</time>
      </trkpt>
      <trkpt lat="43.17233" lon="1.06788">
        <ele>338.55999756</ele>
        <time>2021-10-17T08:19:06Z</time>
      </trkpt>
      <trkpt lat="43.17231" lon="1.06781">
        <ele>337.77999878</ele>
        <time>2021-10-17T08:19:07Z</time>
      </trkpt>
      <trkpt lat="43.1723" lon="1.06775">
        <ele>337.27999878</ele>
        <time>2021-10-17T08:19:08Z</time>
      </trkpt>
      <trkpt lat="43.17229" lon="1.06771">
        <ele>337.17999268</ele>
        <time>2021-10-17T08:19:09Z</time>
      </trkpt>
      <trkpt lat="43.1723" lon="1.06765">
        <ele>337.3500061</ele>
        <time>2021-10-17T08:19:10Z</time>
      </trkpt>
      <trkpt lat="43.1723" lon="1.06762">
        <ele>337.55001831</ele>
        <time>2021-10-17T08:19:11Z</time>
      </trkpt>
      <trkpt lat="43.17231" lon="1.0676">
        <ele>337.87002563</ele>
        <time>2021-10-17T08:19:12Z</time>
      </trkpt>
      <trkpt lat="43.17232" lon="1.06757">
        <ele>338.24002075</ele>
        <time>2021-10-17T08:19:13Z</time>
      </trkpt>
      <trkpt lat="43.17233" lon="1.06753">
        <ele>338.6000061</ele>
        <time>2021-10-17T08:19:14Z</time>
      </trkpt>
      <trkpt lat="43.17233" lon="1.06749">
        <ele>339.02999878</ele>
        <time>2021-10-17T08:19:15Z</time>
      </trkpt>
      <trkpt lat="43.17234" lon="1.06747">
        <ele>339.41000366</ele>
        <time>2021-10-17T08:19:16Z</time>
      </trkpt>
      <trkpt lat="43.17235" lon="1.06744">
        <ele>339.8500061</ele>
        <time>2021-10-17T08:19:17Z</time>
      </trkpt>
      <trkpt lat="43.17235" lon="1.0674">
        <ele>340.26000977</ele>
        <time>2021-10-17T08:19:18Z</time>
      </trkpt>
      <trkpt lat="43.17236" lon="1.06736">
        <ele>340.52999878</ele>
        <time>2021-10-17T08:19:19Z</time>
      </trkpt>
      <trkpt lat="43.17235" lon="1.0673">
        <ele>340.79998779</ele>
        <time>2021-10-17T08:19:20Z</time>
      </trkpt>
      <trkpt lat="43.17235" lon="1.06728">
        <ele>341.02999878</ele>
        <time>2021-10-17T08:19:21Z</time>
      </trkpt>
      <trkpt lat="43.17234" lon="1.06724">
        <ele>341.32998657</ele>
        <time>2021-10-17T08:19:22Z</time>
      </trkpt>
      <trkpt lat="43.17234" lon="1.0672">
        <ele>341.65997314</ele>
        <time>2021-10-17T08:19:23Z</time>
      </trkpt>
      <trkpt lat="43.17234" lon="1.06716">
        <ele>341.98995972</ele>
        <time>2021-10-17T08:19:24Z</time>
      </trkpt>
      <trkpt lat="43.17235" lon="1.06713">
        <ele>342.25994873</ele>
        <time>2021-10-17T08:19:25Z</time>
      </trkpt>
      <trkpt lat="43.17236" lon="1.0671">
        <ele>342.48995972</ele>
        <time>2021-10-17T08:19:26Z</time>
      </trkpt>
      <trkpt lat="43.17236" lon="1.06707">
        <ele>342.74996948</ele>
        <time>2021-10-17T08:19:27Z</time>
      </trkpt>
      <trkpt lat="43.17237" lon="1.06703">
        <ele>343.00997925</ele>
        <time>2021-10-17T08:19:28Z</time>
      </trkpt>
      <trkpt lat="43.17238" lon="1.067">
        <ele>343.34997559</ele>
        <time>2021-10-17T08:19:29Z</time>
      </trkpt>
      <trkpt lat="43.17239" lon="1.06698">
        <ele>343.67996216</ele>
        <time>2021-10-17T08:19:30Z</time>
      </trkpt>
      <trkpt lat="43.1724" lon="1.06696">
        <ele>344.04995728</ele>
        <time>2021-10-17T08:19:31Z</time>
      </trkpt>
      <trkpt lat="43.17243" lon="1.06695">
        <ele>344.50994873</ele>
        <time>2021-10-17T08:19:32Z</time>
      </trkpt>
      <trkpt lat="43.17245" lon="1.06692">
        <ele>344.95996094</ele>
        <time>2021-10-17T08:19:33Z</time>
      </trkpt>
      <trkpt lat="43.17246" lon="1.0669">
        <ele>345.49996948</ele>
        <time>2021-10-17T08:19:34Z</time>
      </trkpt>
      <trkpt lat="43.17246" lon="1.06688">
        <ele>346.02996826</ele>
        <time>2021-10-17T08:19:35Z</time>
      </trkpt>
      <trkpt lat="43.17246" lon="1.06686">
        <ele>346.54995728</ele>
        <time>2021-10-17T08:19:36Z</time>
      </trkpt>
      <trkpt lat="43.17247" lon="1.06682">
        <ele>346.99996948</ele>
        <time>2021-10-17T08:19:37Z</time>
      </trkpt>
      <trkpt lat="43.17246" lon="1.0668">
        <ele>347.32995605</ele>
        <time>2021-10-17T08:19:38Z</time>
      </trkpt>
      <trkpt lat="43.17246" lon="1.06677">
        <ele>347.60995483</ele>
        <time>2021-10-17T08:19:39Z</time>
      </trkpt>
      <trkpt lat="43.17246" lon="1.06675">
        <ele>347.77996826</ele>
        <time>2021-10-17T08:19:40Z</time>
      </trkpt>
      <trkpt lat="43.17245" lon="1.06673">
        <ele>347.94998169</ele>
        <time>2021-10-17T08:19:41Z</time>
      </trkpt>
      <trkpt lat="43.17245" lon="1.06671">
        <ele>348.01998901</ele>
        <time>2021-10-17T08:19:42Z</time>
      </trkpt>
      <trkpt lat="43.17245" lon="1.06668">
        <ele>348.09997559</ele>
        <time>2021-10-17T08:19:43Z</time>
      </trkpt>
      <trkpt lat="43.17246" lon="1.06666">
        <ele>348.22998047</ele>
        <time>2021-10-17T08:19:44Z</time>
      </trkpt>
      <trkpt lat="43.17247" lon="1.06664">
        <ele>348.3999939</ele>
        <time>2021-10-17T08:19:45Z</time>
      </trkpt>
      <trkpt lat="43.17248" lon="1.06662">
        <ele>348.82998657</ele>
        <time>2021-10-17T08:19:46Z</time>
      </trkpt>
      <trkpt lat="43.17249" lon="1.06661">
        <ele>349.25997925</ele>
        <time>2021-10-17T08:19:47Z</time>
      </trkpt>
      <trkpt lat="43.17249" lon="1.06659">
        <ele>349.63998413</ele>
        <time>2021-10-17T08:19:48Z</time>
      </trkpt>
      <trkpt lat="43.17249" lon="1.06657">
        <ele>350.00997925</ele>
        <time>2021-10-17T08:19:49Z</time>
      </trkpt>
      <trkpt lat="43.17249" lon="1.06655">
        <ele>350.17999268</ele>
        <time>2021-10-17T08:19:50Z</time>
      </trkpt>
      <trkpt lat="43.17248" lon="1.06653">
        <ele>350.29998779</ele>
        <time>2021-10-17T08:19:51Z</time>
      </trkpt>
      <trkpt lat="43.17247" lon="1.06652">
        <ele>350.36999512</ele>
        <time>2021-10-17T08:19:52Z</time>
      </trkpt>
      <trkpt lat="43.17247" lon="1.06652">
        <ele>350.38000488</ele>
        <time>2021-10-17T08:19:53Z</time>
      </trkpt>
      <trkpt lat="43.17248" lon="1.06651">
        <ele>350.38000488</ele>
        <time>2021-10-17T08:19:54Z</time>
      </trkpt>
      <trkpt lat="43.17247" lon="1.0665">
        <ele>350.33001709</ele>
        <time>2021-10-17T08:19:55Z</time>
      </trkpt>
      <trkpt lat="43.17246" lon="1.06649">
        <ele>350.33001709</ele>
        <time>2021-10-17T08:19:56Z</time>
      </trkpt>
      <trkpt lat="43.17244" lon="1.06647">
        <ele>350.30001831</ele>
        <time>2021-10-17T08:19:57Z</time>
      </trkpt>
      <trkpt lat="43.17243" lon="1.06646">
        <ele>350.27001953</ele>
        <time>2021-10-17T08:19:58Z</time>
      </trkpt>
      <trkpt lat="43.17241" lon="1.06645">
        <ele>350.23001099</ele>
        <time>2021-10-17T08:19:59Z</time>
      </trkpt>
      <trkpt lat="43.17239" lon="1.06643">
        <ele>350.11001587</ele>
        <time>2021-10-17T08:20:00Z</time>
      </trkpt>
      <trkpt lat="43.17238" lon="1.0664">
        <ele>349.94000244</ele>
        <time>2021-10-17T08:20:01Z</time>
      </trkpt>
      <trkpt lat="43.17236" lon="1.06638">
        <ele>349.67999268</ele>
        <time>2021-10-17T08:20:02Z</time>
      </trkpt>
      <trkpt lat="43.17234" lon="1.06635">
        <ele>349.42999268</ele>
        <time>2021-10-17T08:20:03Z</time>
      </trkpt>
      <trkpt lat="43.17231" lon="1.06633">
        <ele>349.19000244</ele>
        <time>2021-10-17T08:20:04Z</time>
      </trkpt>
      <trkpt lat="43.17228" lon="1.06631">
        <ele>349.05999756</ele>
        <time>2021-10-17T08:20:05Z</time>
      </trkpt>
      <trkpt lat="43.17226" lon="1.0663">
        <ele>349.01998901</ele>
        <time>2021-10-17T08:20:06Z</time>
      </trkpt>
      <trkpt lat="43.17224" lon="1.06629">
        <ele>349.03997803</ele>
        <time>2021-10-17T08:20:07Z</time>
      </trkpt>
      <trkpt lat="43.17222" lon="1.06628">
        <ele>349.09997559</ele>
        <time>2021-10-17T08:20:08Z</time>
      </trkpt>
      <trkpt lat="43.1722" lon="1.06628">
        <ele>349.13998413</ele>
        <time>2021-10-17T08:20:09Z</time>
      </trkpt>
      <trkpt lat="43.17218" lon="1.06627">
        <ele>349.20999146</ele>
        <time>2021-10-17T08:20:10Z</time>
      </trkpt>
      <trkpt lat="43.17216" lon="1.06625">
        <ele>349.20999146</ele>
        <time>2021-10-17T08:20:11Z</time>
      </trkpt>
      <trkpt lat="43.17215" lon="1.06624">
        <ele>349.25997925</ele>
        <time>2021-10-17T08:20:12Z</time>
      </trkpt>
      <trkpt lat="43.17214" lon="1.06621">
        <ele>349.37997437</ele>
        <time>2021-10-17T08:20:13Z</time>
      </trkpt>
      <trkpt lat="43.17214" lon="1.0662">
        <ele>349.4699707</ele>
        <time>2021-10-17T08:20:14Z</time>
      </trkpt>
      <trkpt lat="43.17214" lon="1.06617">
        <ele>349.65997314</ele>
        <time>2021-10-17T08:20:15Z</time>
      </trkpt>
      <trkpt lat="43.17214" lon="1.06614">
        <ele>349.74996948</ele>
        <time>2021-10-17T08:20:16Z</time>
      </trkpt>
      <trkpt lat="43.17214" lon="1.06612">
        <ele>349.80996704</ele>
        <time>2021-10-17T08:20:17Z</time>
      </trkpt>
      <trkpt lat="43.17214" lon="1.06608">
        <ele>349.85995483</ele>
        <time>2021-10-17T08:20:18Z</time>
      </trkpt>
      <trkpt lat="43.17215" lon="1.06606">
        <ele>349.90994263</ele>
        <time>2021-10-17T08:20:19Z</time>
      </trkpt>
      <trkpt lat="43.17215" lon="1.06605">
        <ele>350.03994751</ele>
        <time>2021-10-17T08:20:20Z</time>
      </trkpt>
      <trkpt lat="43.17215" lon="1.06603">
        <ele>350.18994141</ele>
        <time>2021-10-17T08:20:21Z</time>
      </trkpt>
      <trkpt lat="43.17215" lon="1.06602">
        <ele>350.39993286</ele>
        <time>2021-10-17T08:20:22Z</time>
      </trkpt>
      <trkpt lat="43.17215" lon="1.06598">
        <ele>350.46994019</ele>
        <time>2021-10-17T08:20:23Z</time>
      </trkpt>
      <trkpt lat="43.17215" lon="1.06596">
        <ele>350.42993164</ele>
        <time>2021-10-17T08:20:24Z</time>
      </trkpt>
      <trkpt lat="43.17214" lon="1.06593">
        <ele>350.39993286</ele>
        <time>2021-10-17T08:20:25Z</time>
      </trkpt>
      <trkpt lat="43.17215" lon="1.0659">
        <ele>350.30993652</ele>
        <time>2021-10-17T08:20:26Z</time>
      </trkpt>
      <trkpt lat="43.17215" lon="1.06585">
        <ele>350.30993652</ele>
        <time>2021-10-17T08:20:27Z</time>
      </trkpt>
      <trkpt lat="43.17216" lon="1.06582">
        <ele>350.41992188</ele>
        <time>2021-10-17T08:20:28Z</time>
      </trkpt>
      <trkpt lat="43.17216" lon="1.0658">
        <ele>350.44992065</ele>
        <time>2021-10-17T08:20:29Z</time>
      </trkpt>
      <trkpt lat="43.17216" lon="1.06578">
        <ele>350.4899292</ele>
        <time>2021-10-17T08:20:30Z</time>
      </trkpt>
      <trkpt lat="43.17216" lon="1.06575">
        <ele>350.4899292</ele>
        <time>2021-10-17T08:20:31Z</time>
      </trkpt>
      <trkpt lat="43.17216" lon="1.06571">
        <ele>350.44992065</ele>
        <time>2021-10-17T08:20:32Z</time>
      </trkpt>
      <trkpt lat="43.17217" lon="1.06569">
        <ele>350.46990967</ele>
        <time>2021-10-17T08:20:33Z</time>
      </trkpt>
      <trkpt lat="43.17217" lon="1.06567">
        <ele>350.47991943</ele>
        <time>2021-10-17T08:20:34Z</time>
      </trkpt>
      <trkpt lat="43.17217" lon="1.06566">
        <ele>350.47991943</ele>
        <time>2021-10-17T08:20:35Z</time>
      </trkpt>
      <trkpt lat="43.17218" lon="1.06564">
        <ele>350.47991943</ele>
        <time>2021-10-17T08:20:36Z</time>
      </trkpt>
      <trkpt lat="43.17219" lon="1.06562">
        <ele>350.44992065</ele>
        <time>2021-10-17T08:20:37Z</time>
      </trkpt>
      <trkpt lat="43.1722" lon="1.06561">
        <ele>350.37991333</ele>
        <time>2021-10-17T08:20:38Z</time>
      </trkpt>
      <trkpt lat="43.1722" lon="1.06561">
        <ele>350.33990479</ele>
        <time>2021-10-17T08:20:39Z</time>
      </trkpt>
      <trkpt lat="43.17219" lon="1.06561">
        <ele>350.30990601</ele>
        <time>2021-10-17T08:20:40Z</time>
      </trkpt>
      <trkpt lat="43.17219" lon="1.0656">
        <ele>350.66000366</ele>
        <time>2021-10-17T08:20:40Z</time>
      </trkpt>
      <trkpt lat="43.1722" lon="1.06556">
        <ele>353.17001343</ele>
        <time>2021-10-17T08:23:37Z</time>
      </trkpt>
      <trkpt lat="43.1722" lon="1.06554">
        <ele>353.09002686</ele>
        <time>2021-10-17T08:23:38Z</time>
      </trkpt>
      <trkpt lat="43.17221" lon="1.06552">
        <ele>352.99002075</ele>
        <time>2021-10-17T08:23:39Z</time>
      </trkpt>
      <trkpt lat="43.17222" lon="1.06549">
        <ele>352.82000732</ele>
        <time>2021-10-17T08:23:40Z</time>
      </trkpt>
      <trkpt lat="43.17222" lon="1.06547">
        <ele>352.70001221</ele>
        <time>2021-10-17T08:23:41Z</time>
      </trkpt>
      <trkpt lat="43.17223" lon="1.06544">
        <ele>352.57000732</ele>
        <time>2021-10-17T08:23:42Z</time>
      </trkpt>
      <trkpt lat="43.17224" lon="1.06542">
        <ele>352.38000488</ele>
        <time>2021-10-17T08:23:43Z</time>
      </trkpt>
      <trkpt lat="43.17224" lon="1.06541">
        <ele>352.20999146</ele>
        <time>2021-10-17T08:23:44Z</time>
      </trkpt>
      <trkpt lat="43.17225" lon="1.06538">
        <ele>352.02999878</ele>
        <time>2021-10-17T08:23:45Z</time>
      </trkpt>
      <trkpt lat="43.17227" lon="1.06536">
        <ele>351.85998535</ele>
        <time>2021-10-17T08:23:46Z</time>
      </trkpt>
      <trkpt lat="43.17227" lon="1.06534">
        <ele>351.67999268</ele>
        <time>2021-10-17T08:23:47Z</time>
      </trkpt>
      <trkpt lat="43.17228" lon="1.06531">
        <ele>351.52999878</ele>
        <time>2021-10-17T08:23:48Z</time>
      </trkpt>
      <trkpt lat="43.1723" lon="1.06527">
        <ele>351.32000732</ele>
        <time>2021-10-17T08:23:49Z</time>
      </trkpt>
      <trkpt lat="43.17231" lon="1.06524">
        <ele>351.11001587</ele>
        <time>2021-10-17T08:23:50Z</time>
      </trkpt>
      <trkpt lat="43.17232" lon="1.06521">
        <ele>350.98001099</ele>
        <time>2021-10-17T08:23:51Z</time>
      </trkpt>
      <trkpt lat="43.17233" lon="1.06518">
        <ele>350.79000854</ele>
        <time>2021-10-17T08:23:52Z</time>
      </trkpt>
      <trkpt lat="43.17234" lon="1.06514">
        <ele>350.68002319</ele>
        <time>2021-10-17T08:23:53Z</time>
      </trkpt>
      <trkpt lat="43.17236" lon="1.06509">
        <ele>350.57003784</ele>
        <time>2021-10-17T08:23:54Z</time>
      </trkpt>
      <trkpt lat="43.17238" lon="1.06504">
        <ele>350.39004517</ele>
        <time>2021-10-17T08:23:55Z</time>
      </trkpt>
      <trkpt lat="43.1724" lon="1.065">
        <ele>350.16003418</ele>
        <time>2021-10-17T08:23:56Z</time>
      </trkpt>
      <trkpt lat="43.17242" lon="1.06496">
        <ele>349.84002686</ele>
        <time>2021-10-17T08:23:57Z</time>
      </trkpt>
      <trkpt lat="43.17245" lon="1.06489">
        <ele>349.65002441</ele>
        <time>2021-10-17T08:23:58Z</time>
      </trkpt>
      <trkpt lat="43.17246" lon="1.06484">
        <ele>349.36001587</ele>
        <time>2021-10-17T08:23:59Z</time>
      </trkpt>
      <trkpt lat="43.17247" lon="1.06478">
        <ele>349.16000366</ele>
        <time>2021-10-17T08:24:00Z</time>
      </trkpt>
      <trkpt lat="43.17248" lon="1.06473">
        <ele>348.83999634</ele>
        <time>2021-10-17T08:24:01Z</time>
      </trkpt>
      <trkpt lat="43.17249" lon="1.06469">
        <ele>348.45999146</ele>
        <time>2021-10-17T08:24:02Z</time>
      </trkpt>
      <trkpt lat="43.1725" lon="1.06463">
        <ele>348.38998413</ele>
        <time>2021-10-17T08:24:03Z</time>
      </trkpt>
      <trkpt lat="43.1725" lon="1.06459">
        <ele>348.38998413</ele>
        <time>2021-10-17T08:24:04Z</time>
      </trkpt>
      <trkpt lat="43.17251" lon="1.06456">
        <ele>348.53997803</ele>
        <time>2021-10-17T08:24:05Z</time>
      </trkpt>
      <trkpt lat="43.17251" lon="1.06452">
        <ele>348.57998657</ele>
        <time>2021-10-17T08:24:06Z</time>
      </trkpt>
      <trkpt lat="43.17252" lon="1.06447">
        <ele>348.57998657</ele>
        <time>2021-10-17T08:24:07Z</time>
      </trkpt>
      <trkpt lat="43.17253" lon="1.06442">
        <ele>348.44998169</ele>
        <time>2021-10-17T08:24:08Z</time>
      </trkpt>
      <trkpt lat="43.17254" lon="1.06438">
        <ele>348.34997559</ele>
        <time>2021-10-17T08:24:09Z</time>
      </trkpt>
      <trkpt lat="43.17256" lon="1.06434">
        <ele>348.29998779</ele>
        <time>2021-10-17T08:24:10Z</time>
      </trkpt>
      <trkpt lat="43.17257" lon="1.0643">
        <ele>348.04998779</ele>
        <time>2021-10-17T08:24:11Z</time>
      </trkpt>
      <trkpt lat="43.17259" lon="1.06424">
        <ele>347.86999512</ele>
        <time>2021-10-17T08:24:12Z</time>
      </trkpt>
      <trkpt lat="43.1726" lon="1.0642">
        <ele>347.67999268</ele>
        <time>2021-10-17T08:24:13Z</time>
      </trkpt>
      <trkpt lat="43.17261" lon="1.06415">
        <ele>347.42999268</ele>
        <time>2021-10-17T08:24:14Z</time>
      </trkpt>
      <trkpt lat="43.17264" lon="1.06411">
        <ele>347.22998047</ele>
        <time>2021-10-17T08:24:15Z</time>
      </trkpt>
      <trkpt lat="43.17267" lon="1.06404">
        <ele>346.81997681</ele>
        <time>2021-10-17T08:24:16Z</time>
      </trkpt>
      <trkpt lat="43.1727" lon="1.064">
        <ele>346.33996582</ele>
        <time>2021-10-17T08:24:17Z</time>
      </trkpt>
      <trkpt lat="43.17274" lon="1.06395">
        <ele>345.70996094</ele>
        <time>2021-10-17T08:24:18Z</time>
      </trkpt>
      <trkpt lat="43.17277" lon="1.06391">
        <ele>344.79995728</ele>
        <time>2021-10-17T08:24:19Z</time>
      </trkpt>
      <trkpt lat="43.1728" lon="1.06386">
        <ele>344.03994751</ele>
        <time>2021-10-17T08:24:20Z</time>
      </trkpt>
      <trkpt lat="43.17284" lon="1.06377">
        <ele>343.03994751</ele>
        <time>2021-10-17T08:24:21Z</time>
      </trkpt>
      <trkpt lat="43.17285" lon="1.0637">
        <ele>341.95996094</ele>
        <time>2021-10-17T08:24:22Z</time>
      </trkpt>
      <trkpt lat="43.17288" lon="1.06365">
        <ele>341.16995239</ele>
        <time>2021-10-17T08:24:23Z</time>
      </trkpt>
      <trkpt lat="43.17289" lon="1.06359">
        <ele>340.21994019</ele>
        <time>2021-10-17T08:24:24Z</time>
      </trkpt>
      <trkpt lat="43.17292" lon="1.06352">
        <ele>339.64993286</ele>
        <time>2021-10-17T08:24:25Z</time>
      </trkpt>
      <trkpt lat="43.17294" lon="1.06349">
        <ele>339.17993164</ele>
        <time>2021-10-17T08:24:26Z</time>
      </trkpt>
      <trkpt lat="43.17297" lon="1.06346">
        <ele>338.67993164</ele>
        <time>2021-10-17T08:24:27Z</time>
      </trkpt>
      <trkpt lat="43.17299" lon="1.06342">
        <ele>338.26992798</ele>
        <time>2021-10-17T08:24:28Z</time>
      </trkpt>
      <trkpt lat="43.17301" lon="1.06339">
        <ele>337.90994263</ele>
        <time>2021-10-17T08:24:29Z</time>
      </trkpt>
      <trkpt lat="43.17304" lon="1.06334">
        <ele>337.17993164</ele>
        <time>2021-10-17T08:24:30Z</time>
      </trkpt>
      <trkpt lat="43.17306" lon="1.0633">
        <ele>337.17993164</ele>
        <time>2021-10-17T08:24:31Z</time>
      </trkpt>
      <trkpt lat="43.17308" lon="1.06327">
        <ele>336.89993286</ele>
        <time>2021-10-17T08:24:32Z</time>
      </trkpt>
      <trkpt lat="43.1731" lon="1.06323">
        <ele>336.43994141</ele>
        <time>2021-10-17T08:24:33Z</time>
      </trkpt>
      <trkpt lat="43.17313" lon="1.0632">
        <ele>336.28994751</ele>
        <time>2021-10-17T08:24:34Z</time>
      </trkpt>
      <trkpt lat="43.17315" lon="1.06317">
        <ele>336.11993408</ele>
        <time>2021-10-17T08:24:35Z</time>
      </trkpt>
      <trkpt lat="43.17316" lon="1.06314">
        <ele>335.93994141</ele>
        <time>2021-10-17T08:24:36Z</time>
      </trkpt>
      <trkpt lat="43.17318" lon="1.06312">
        <ele>335.88995361</ele>
        <time>2021-10-17T08:24:37Z</time>
      </trkpt>
      <trkpt lat="43.1732" lon="1.06311">
        <ele>335.71994019</ele>
        <time>2021-10-17T08:24:38Z</time>
      </trkpt>
      <trkpt lat="43.17322" lon="1.06307">
        <ele>335.67993164</ele>
        <time>2021-10-17T08:24:39Z</time>
      </trkpt>
      <trkpt lat="43.17324" lon="1.06304">
        <ele>335.5899353</ele>
        <time>2021-10-17T08:24:40Z</time>
      </trkpt>
      <trkpt lat="43.17325" lon="1.06301">
        <ele>335.56994629</ele>
        <time>2021-10-17T08:24:41Z</time>
      </trkpt>
      <trkpt lat="43.17326" lon="1.06296">
        <ele>335.48995972</ele>
        <time>2021-10-17T08:24:42Z</time>
      </trkpt>
      <trkpt lat="43.17328" lon="1.0629">
        <ele>335.31994629</ele>
        <time>2021-10-17T08:24:43Z</time>
      </trkpt>
      <trkpt lat="43.1733" lon="1.06288">
        <ele>335.20996094</ele>
        <time>2021-10-17T08:24:44Z</time>
      </trkpt>
      <trkpt lat="43.17333" lon="1.06285">
        <ele>334.88995361</ele>
        <time>2021-10-17T08:24:45Z</time>
      </trkpt>
      <trkpt lat="43.17336" lon="1.06281">
        <ele>334.63995361</ele>
        <time>2021-10-17T08:24:46Z</time>
      </trkpt>
      <trkpt lat="43.17337" lon="1.06277">
        <ele>334.33996582</ele>
        <time>2021-10-17T08:24:47Z</time>
      </trkpt>
      <trkpt lat="43.17342" lon="1.06273">
        <ele>333.98995972</ele>
        <time>2021-10-17T08:24:48Z</time>
      </trkpt>
      <trkpt lat="43.17344" lon="1.06271">
        <ele>333.80996704</ele>
        <time>2021-10-17T08:24:49Z</time>
      </trkpt>
      <trkpt lat="43.17346" lon="1.06268">
        <ele>333.53997803</ele>
        <time>2021-10-17T08:24:50Z</time>
      </trkpt>
      <trkpt lat="43.17348" lon="1.06266">
        <ele>333.25997925</ele>
        <time>2021-10-17T08:24:51Z</time>
      </trkpt>
      <trkpt lat="43.1735" lon="1.06264">
        <ele>333.13998413</ele>
        <time>2021-10-17T08:24:52Z</time>
      </trkpt>
      <trkpt lat="43.17352" lon="1.0626">
        <ele>332.93997192</ele>
        <time>2021-10-17T08:24:53Z</time>
      </trkpt>
      <trkpt lat="43.17354" lon="1.06257">
        <ele>332.73995972</ele>
        <time>2021-10-17T08:24:54Z</time>
      </trkpt>
      <trkpt lat="43.17356" lon="1.06255">
        <ele>332.59994507</ele>
        <time>2021-10-17T08:24:55Z</time>
      </trkpt>
      <trkpt lat="43.17359" lon="1.06252">
        <ele>332.23995972</ele>
        <time>2021-10-17T08:24:56Z</time>
      </trkpt>
      <trkpt lat="43.17362" lon="1.06247">
        <ele>331.82995605</ele>
        <time>2021-10-17T08:24:57Z</time>
      </trkpt>
      <trkpt lat="43.17364" lon="1.06244">
        <ele>331.65994263</ele>
        <time>2021-10-17T08:24:58Z</time>
      </trkpt>
      <trkpt lat="43.17365" lon="1.06238">
        <ele>331.55993652</ele>
        <time>2021-10-17T08:24:59Z</time>
      </trkpt>
      <trkpt lat="43.17366" lon="1.06233">
        <ele>331.49993896</ele>
        <time>2021-10-17T08:25:00Z</time>
      </trkpt>
      <trkpt lat="43.17369" lon="1.06229">
        <ele>331.46994019</ele>
        <time>2021-10-17T08:25:01Z</time>
      </trkpt>
      <trkpt lat="43.17372" lon="1.06221">
        <ele>331.26992798</ele>
        <time>2021-10-17T08:25:02Z</time>
      </trkpt>
      <trkpt lat="43.17374" lon="1.06216">
        <ele>331.09991455</ele>
        <time>2021-10-17T08:25:03Z</time>
      </trkpt>
      <trkpt lat="43.17376" lon="1.06211">
        <ele>330.97991943</ele>
        <time>2021-10-17T08:25:04Z</time>
      </trkpt>
      <trkpt lat="43.17378" lon="1.06207">
        <ele>330.79992676</ele>
        <time>2021-10-17T08:25:05Z</time>
      </trkpt>
      <trkpt lat="43.17381" lon="1.062">
        <ele>330.60992432</ele>
        <time>2021-10-17T08:25:06Z</time>
      </trkpt>
      <trkpt lat="43.17383" lon="1.06196">
        <ele>330.27993774</ele>
        <time>2021-10-17T08:25:07Z</time>
      </trkpt>
      <trkpt lat="43.17385" lon="1.06191">
        <ele>330.11993408</ele>
        <time>2021-10-17T08:25:08Z</time>
      </trkpt>
      <trkpt lat="43.17388" lon="1.06187">
        <ele>329.94992065</ele>
        <time>2021-10-17T08:25:09Z</time>
      </trkpt>
      <trkpt lat="43.17393" lon="1.06181">
        <ele>329.84991455</ele>
        <time>2021-10-17T08:25:10Z</time>
      </trkpt>
      <trkpt lat="43.17396" lon="1.06176">
        <ele>329.83990479</ele>
        <time>2021-10-17T08:25:11Z</time>
      </trkpt>
      <trkpt lat="43.17399" lon="1.0617">
        <ele>329.68991089</ele>
        <time>2021-10-17T08:25:12Z</time>
      </trkpt>
      <trkpt lat="43.17402" lon="1.06165">
        <ele>329.59991455</ele>
        <time>2021-10-17T08:25:13Z</time>
      </trkpt>
      <trkpt lat="43.17405" lon="1.0616">
        <ele>329.53991699</ele>
        <time>2021-10-17T08:25:14Z</time>
      </trkpt>
      <trkpt lat="43.17408" lon="1.06152">
        <ele>329.57992554</ele>
        <time>2021-10-17T08:25:15Z</time>
      </trkpt>
      <trkpt lat="43.17411" lon="1.06146">
        <ele>329.57992554</ele>
        <time>2021-10-17T08:25:16Z</time>
      </trkpt>
      <trkpt lat="43.17413" lon="1.06141">
        <ele>329.65991211</ele>
        <time>2021-10-17T08:25:17Z</time>
      </trkpt>
      <trkpt lat="43.17415" lon="1.06136">
        <ele>329.64990234</ele>
        <time>2021-10-17T08:25:18Z</time>
      </trkpt>
      <trkpt lat="43.17417" lon="1.0613">
        <ele>329.6098938</ele>
        <time>2021-10-17T08:25:19Z</time>
      </trkpt>
      <trkpt lat="43.1742" lon="1.06122">
        <ele>329.58990479</ele>
        <time>2021-10-17T08:25:20Z</time>
      </trkpt>
      <trkpt lat="43.17422" lon="1.06116">
        <ele>329.40991211</ele>
        <time>2021-10-17T08:25:21Z</time>
      </trkpt>
      <trkpt lat="43.17423" lon="1.0611">
        <ele>329.21990967</ele>
        <time>2021-10-17T08:25:22Z</time>
      </trkpt>
      <trkpt lat="43.17425" lon="1.06103">
        <ele>328.80990601</ele>
        <time>2021-10-17T08:25:23Z</time>
      </trkpt>
      <trkpt lat="43.17427" lon="1.06093">
        <ele>328.19992065</ele>
        <time>2021-10-17T08:25:24Z</time>
      </trkpt>
      <trkpt lat="43.17429" lon="1.06087">
        <ele>327.80990601</ele>
        <time>2021-10-17T08:25:25Z</time>
      </trkpt>
      <trkpt lat="43.17431" lon="1.06081">
        <ele>327.50991821</ele>
        <time>2021-10-17T08:25:26Z</time>
      </trkpt>
      <trkpt lat="43.17432" lon="1.06074">
        <ele>327.35992432</ele>
        <time>2021-10-17T08:25:27Z</time>
      </trkpt>
      <trkpt lat="43.17434" lon="1.06065">
        <ele>327.49993896</ele>
        <time>2021-10-17T08:25:28Z</time>
      </trkpt>
      <trkpt lat="43.17436" lon="1.06059">
        <ele>327.54992676</ele>
        <time>2021-10-17T08:25:29Z</time>
      </trkpt>
      <trkpt lat="43.17438" lon="1.06054">
        <ele>327.59991455</ele>
        <time>2021-10-17T08:25:30Z</time>
      </trkpt>
      <trkpt lat="43.17439" lon="1.06049">
        <ele>327.60992432</ele>
        <time>2021-10-17T08:25:31Z</time>
      </trkpt>
      <trkpt lat="43.17441" lon="1.06043">
        <ele>327.67993164</ele>
        <time>2021-10-17T08:25:32Z</time>
      </trkpt>
      <trkpt lat="43.17443" lon="1.06035">
        <ele>327.70993042</ele>
        <time>2021-10-17T08:25:33Z</time>
      </trkpt>
      <trkpt lat="43.17445" lon="1.0603">
        <ele>327.67993164</ele>
        <time>2021-10-17T08:25:34Z</time>
      </trkpt>
      <trkpt lat="43.17446" lon="1.06025">
        <ele>327.56994629</ele>
        <time>2021-10-17T08:25:35Z</time>
      </trkpt>
      <trkpt lat="43.17447" lon="1.06019">
        <ele>327.3399353</ele>
        <time>2021-10-17T08:25:36Z</time>
      </trkpt>
      <trkpt lat="43.17449" lon="1.06013">
        <ele>327.06994629</ele>
        <time>2021-10-17T08:25:37Z</time>
      </trkpt>
      <trkpt lat="43.1745" lon="1.06006">
        <ele>326.81994629</ele>
        <time>2021-10-17T08:25:38Z</time>
      </trkpt>
      <trkpt lat="43.17451" lon="1.06001">
        <ele>326.5899353</ele>
        <time>2021-10-17T08:25:39Z</time>
      </trkpt>
      <trkpt lat="43.17451" lon="1.05996">
        <ele>326.4899292</ele>
        <time>2021-10-17T08:25:40Z</time>
      </trkpt>
      <trkpt lat="43.17452" lon="1.05991">
        <ele>326.40994263</ele>
        <time>2021-10-17T08:25:41Z</time>
      </trkpt>
      <trkpt lat="43.17453" lon="1.05987">
        <ele>326.49993896</ele>
        <time>2021-10-17T08:25:42Z</time>
      </trkpt>
      <trkpt lat="43.17454" lon="1.05983">
        <ele>326.68994141</ele>
        <time>2021-10-17T08:25:43Z</time>
      </trkpt>
      <trkpt lat="43.17454" lon="1.05981">
        <ele>326.71994019</ele>
        <time>2021-10-17T08:25:44Z</time>
      </trkpt>
      <trkpt lat="43.17455" lon="1.05979">
        <ele>326.79992676</ele>
        <time>2021-10-17T08:25:45Z</time>
      </trkpt>
      <trkpt lat="43.17458" lon="1.05974">
        <ele>326.72991943</ele>
        <time>2021-10-17T08:25:46Z</time>
      </trkpt>
      <trkpt lat="43.17461" lon="1.05971">
        <ele>326.4899292</ele>
        <time>2021-10-17T08:25:47Z</time>
      </trkpt>
      <trkpt lat="43.17463" lon="1.05967">
        <ele>326.0899353</ele>
        <time>2021-10-17T08:25:48Z</time>
      </trkpt>
      <trkpt lat="43.17464" lon="1.05966">
        <ele>325.61999512</ele>
        <time>2021-10-17T08:25:48Z</time>
      </trkpt>
      <trkpt lat="43.17466" lon="1.05962">
        <ele>325.22000122</ele>
        <time>2021-10-17T08:25:49Z</time>
      </trkpt>
      <trkpt lat="43.17468" lon="1.05958">
        <ele>324.70999146</ele>
        <time>2021-10-17T08:25:50Z</time>
      </trkpt>
      <trkpt lat="43.17471" lon="1.0595">
        <ele>324.10998535</ele>
        <time>2021-10-17T08:25:51Z</time>
      </trkpt>
      <trkpt lat="43.17474" lon="1.05945">
        <ele>323.48999023</ele>
        <time>2021-10-17T08:25:52Z</time>
      </trkpt>
      <trkpt lat="43.17477" lon="1.05939">
        <ele>322.59997559</ele>
        <time>2021-10-17T08:25:53Z</time>
      </trkpt>
      <trkpt lat="43.1748" lon="1.05934">
        <ele>321.83996582</ele>
        <time>2021-10-17T08:25:54Z</time>
      </trkpt>
      <trkpt lat="43.17482" lon="1.05924">
        <ele>321.15997314</ele>
        <time>2021-10-17T08:25:55Z</time>
      </trkpt>
      <trkpt lat="43.17483" lon="1.05918">
        <ele>320.87997437</ele>
        <time>2021-10-17T08:25:56Z</time>
      </trkpt>
      <trkpt lat="43.17485" lon="1.05911">
        <ele>320.67996216</ele>
        <time>2021-10-17T08:25:57Z</time>
      </trkpt>
      <trkpt lat="43.17486" lon="1.05904">
        <ele>320.13995361</ele>
        <time>2021-10-17T08:25:58Z</time>
      </trkpt>
      <trkpt lat="43.17488" lon="1.05896">
        <ele>319.42996216</ele>
        <time>2021-10-17T08:25:59Z</time>
      </trkpt>
      <trkpt lat="43.1749" lon="1.05883">
        <ele>318.55996704</ele>
        <time>2021-10-17T08:26:00Z</time>
      </trkpt>
      <trkpt lat="43.17492" lon="1.05874">
        <ele>317.68997192</ele>
        <time>2021-10-17T08:26:01Z</time>
      </trkpt>
      <trkpt lat="43.17494" lon="1.05866">
        <ele>317.09997559</ele>
        <time>2021-10-17T08:26:02Z</time>
      </trkpt>
      <trkpt lat="43.17496" lon="1.05859">
        <ele>316.94998169</ele>
        <time>2021-10-17T08:26:03Z</time>
      </trkpt>
      <trkpt lat="43.175" lon="1.05849">
        <ele>316.91998291</ele>
        <time>2021-10-17T08:26:04Z</time>
      </trkpt>
      <trkpt lat="43.17503" lon="1.05842">
        <ele>316.92999268</ele>
        <time>2021-10-17T08:26:05Z</time>
      </trkpt>
      <trkpt lat="43.17505" lon="1.05836">
        <ele>316.94998169</ele>
        <time>2021-10-17T08:26:06Z</time>
      </trkpt>
      <trkpt lat="43.17508" lon="1.05831">
        <ele>317.00997925</ele>
        <time>2021-10-17T08:26:07Z</time>
      </trkpt>
      <trkpt lat="43.1751" lon="1.05827">
        <ele>317.01998901</ele>
        <time>2021-10-17T08:26:08Z</time>
      </trkpt>
      <trkpt lat="43.17516" lon="1.05824">
        <ele>317.16000366</ele>
        <time>2021-10-17T08:26:09Z</time>
      </trkpt>
      <trkpt lat="43.17519" lon="1.05821">
        <ele>317.33001709</ele>
        <time>2021-10-17T08:26:10Z</time>
      </trkpt>
      <trkpt lat="43.17523" lon="1.05819">
        <ele>317.50003052</ele>
        <time>2021-10-17T08:26:11Z</time>
      </trkpt>
      <trkpt lat="43.17527" lon="1.05816">
        <ele>317.50003052</ele>
        <time>2021-10-17T08:26:12Z</time>
      </trkpt>
      <trkpt lat="43.17535" lon="1.05813">
        <ele>317.3800354</ele>
        <time>2021-10-17T08:26:13Z</time>
      </trkpt>
      <trkpt lat="43.17539" lon="1.0581">
        <ele>317.32003784</ele>
        <time>2021-10-17T08:26:14Z</time>
      </trkpt>
      <trkpt lat="43.17544" lon="1.05809">
        <ele>317.20004272</ele>
        <time>2021-10-17T08:26:15Z</time>
      </trkpt>
      <trkpt lat="43.17548" lon="1.05809">
        <ele>317.17004395</ele>
        <time>2021-10-17T08:26:16Z</time>
      </trkpt>
      <trkpt lat="43.17555" lon="1.05809">
        <ele>317.16003418</ele>
        <time>2021-10-17T08:26:17Z</time>
      </trkpt>
      <trkpt lat="43.1756" lon="1.0581">
        <ele>316.7800293</ele>
        <time>2021-10-17T08:26:18Z</time>
      </trkpt>
      <trkpt lat="43.17564" lon="1.0581">
        <ele>316.30001831</ele>
        <time>2021-10-17T08:26:19Z</time>
      </trkpt>
      <trkpt lat="43.17567" lon="1.05812">
        <ele>315.82000732</ele>
        <time>2021-10-17T08:26:20Z</time>
      </trkpt>
      <trkpt lat="43.17571" lon="1.05813">
        <ele>316.79000854</ele>
        <time>2021-10-17T08:26:21Z</time>
      </trkpt>
      <trkpt lat="43.17577" lon="1.05815">
        <ele>316.77999878</ele>
        <time>2021-10-17T08:26:22Z</time>
      </trkpt>
      <trkpt lat="43.17581" lon="1.05815">
        <ele>316.73999023</ele>
        <time>2021-10-17T08:26:23Z</time>
      </trkpt>
      <trkpt lat="43.17586" lon="1.05814">
        <ele>316.53997803</ele>
        <time>2021-10-17T08:26:24Z</time>
      </trkpt>
      <trkpt lat="43.1759" lon="1.05814">
        <ele>316.19998169</ele>
        <time>2021-10-17T08:26:25Z</time>
      </trkpt>
      <trkpt lat="43.17595" lon="1.05813">
        <ele>315.95999146</ele>
        <time>2021-10-17T08:26:26Z</time>
      </trkpt>
      <trkpt lat="43.17602" lon="1.05813">
        <ele>315.94000244</ele>
        <time>2021-10-17T08:26:27Z</time>
      </trkpt>
      <trkpt lat="43.17606" lon="1.05813">
        <ele>315.94000244</ele>
        <time>2021-10-17T08:26:28Z</time>
      </trkpt>
      <trkpt lat="43.1761" lon="1.05813">
        <ele>315.92999268</ele>
        <time>2021-10-17T08:26:29Z</time>
      </trkpt>
      <trkpt lat="43.17614" lon="1.05813">
        <ele>315.94998169</ele>
        <time>2021-10-17T08:26:30Z</time>
      </trkpt>
      <trkpt lat="43.17618" lon="1.05813">
        <ele>315.8999939</ele>
        <time>2021-10-17T08:26:31Z</time>
      </trkpt>
      <trkpt lat="43.17624" lon="1.05811">
        <ele>316.04998779</ele>
        <time>2021-10-17T08:26:32Z</time>
      </trkpt>
      <trkpt lat="43.17629" lon="1.05809">
        <ele>316.22998047</ele>
        <time>2021-10-17T08:26:33Z</time>
      </trkpt>
      <trkpt lat="43.17634" lon="1.05806">
        <ele>316.26998901</ele>
        <time>2021-10-17T08:26:34Z</time>
      </trkpt>
      <trkpt lat="43.17638" lon="1.05802">
        <ele>316.09997559</ele>
        <time>2021-10-17T08:26:35Z</time>
      </trkpt>
      <trkpt lat="43.17643" lon="1.05798">
        <ele>315.9699707</ele>
        <time>2021-10-17T08:26:36Z</time>
      </trkpt>
      <trkpt lat="43.17646" lon="1.05796">
        <ele>315.93997192</ele>
        <time>2021-10-17T08:26:37Z</time>
      </trkpt>
      <trkpt lat="43.17649" lon="1.05793">
        <ele>315.99996948</ele>
        <time>2021-10-17T08:26:38Z</time>
      </trkpt>
      <trkpt lat="43.17652" lon="1.0579">
        <ele>316.19998169</ele>
        <time>2021-10-17T08:26:39Z</time>
      </trkpt>
      <trkpt lat="43.17654" lon="1.05788">
        <ele>316.42999268</ele>
        <time>2021-10-17T08:26:40Z</time>
      </trkpt>
      <trkpt lat="43.17656" lon="1.05783">
        <ele>316.63000488</ele>
        <time>2021-10-17T08:26:41Z</time>
      </trkpt>
      <trkpt lat="43.17658" lon="1.05781">
        <ele>316.82000732</ele>
        <time>2021-10-17T08:26:42Z</time>
      </trkpt>
      <trkpt lat="43.1766" lon="1.05777">
        <ele>317.23001099</ele>
        <time>2021-10-17T08:26:43Z</time>
      </trkpt>
      <trkpt lat="43.17662" lon="1.05774">
        <ele>317.52999878</ele>
        <time>2021-10-17T08:26:44Z</time>
      </trkpt>
      <trkpt lat="43.17665" lon="1.05768">
        <ele>317.82000732</ele>
        <time>2021-10-17T08:26:45Z</time>
      </trkpt>
      <trkpt lat="43.17667" lon="1.05764">
        <ele>318.08999634</ele>
        <time>2021-10-17T08:26:46Z</time>
      </trkpt>
      <trkpt lat="43.17669" lon="1.05759">
        <ele>318.20999146</ele>
        <time>2021-10-17T08:26:47Z</time>
      </trkpt>
      <trkpt lat="43.17671" lon="1.05755">
        <ele>318.3500061</ele>
        <time>2021-10-17T08:26:48Z</time>
      </trkpt>
      <trkpt lat="43.17673" lon="1.05751">
        <ele>318.49002075</ele>
        <time>2021-10-17T08:26:49Z</time>
      </trkpt>
      <trkpt lat="43.17676" lon="1.05743">
        <ele>318.71002197</ele>
        <time>2021-10-17T08:26:50Z</time>
      </trkpt>
      <trkpt lat="43.17677" lon="1.05739">
        <ele>318.96002197</ele>
        <time>2021-10-17T08:26:51Z</time>
      </trkpt>
      <trkpt lat="43.17679" lon="1.05735">
        <ele>319.20001221</ele>
        <time>2021-10-17T08:26:52Z</time>
      </trkpt>
      <trkpt lat="43.17681" lon="1.05731">
        <ele>319.51000977</ele>
        <time>2021-10-17T08:26:53Z</time>
      </trkpt>
      <trkpt lat="43.17685" lon="1.05727">
        <ele>319.75</ele>
        <time>2021-10-17T08:26:54Z</time>
      </trkpt>
      <trkpt lat="43.17688" lon="1.05724">
        <ele>320.07998657</ele>
        <time>2021-10-17T08:26:55Z</time>
      </trkpt>
      <trkpt lat="43.1769" lon="1.05721">
        <ele>320.42999268</ele>
        <time>2021-10-17T08:26:56Z</time>
      </trkpt>
      <trkpt lat="43.17692" lon="1.05718">
        <ele>320.80999756</ele>
        <time>2021-10-17T08:26:57Z</time>
      </trkpt>
      <trkpt lat="43.17696" lon="1.05713">
        <ele>321.25</ele>
        <time>2021-10-17T08:26:58Z</time>
      </trkpt>
      <trkpt lat="43.17698" lon="1.05711">
        <ele>321.60998535</ele>
        <time>2021-10-17T08:26:59Z</time>
      </trkpt>
      <trkpt lat="43.177" lon="1.05708">
        <ele>322.02999878</ele>
        <time>2021-10-17T08:27:00Z</time>
      </trkpt>
      <trkpt lat="43.17702" lon="1.05705">
        <ele>322.6000061</ele>
        <time>2021-10-17T08:27:01Z</time>
      </trkpt>
      <trkpt lat="43.17704" lon="1.05703">
        <ele>323.17001343</ele>
        <time>2021-10-17T08:27:02Z</time>
      </trkpt>
      <trkpt lat="43.17707" lon="1.05699">
        <ele>323.77999878</ele>
        <time>2021-10-17T08:27:03Z</time>
      </trkpt>
      <trkpt lat="43.17709" lon="1.05696">
        <ele>324.42001343</ele>
        <time>2021-10-17T08:27:04Z</time>
      </trkpt>
      <trkpt lat="43.1771" lon="1.05693">
        <ele>324.93002319</ele>
        <time>2021-10-17T08:27:05Z</time>
      </trkpt>
      <trkpt lat="43.17712" lon="1.05691">
        <ele>325.45001221</ele>
        <time>2021-10-17T08:27:06Z</time>
      </trkpt>
      <trkpt lat="43.17715" lon="1.05688">
        <ele>325.91000366</ele>
        <time>2021-10-17T08:27:07Z</time>
      </trkpt>
      <trkpt lat="43.17718" lon="1.05684">
        <ele>326.32000732</ele>
        <time>2021-10-17T08:27:08Z</time>
      </trkpt>
      <trkpt lat="43.1772" lon="1.05682">
        <ele>326.66000366</ele>
        <time>2021-10-17T08:27:09Z</time>
      </trkpt>
      <trkpt lat="43.17723" lon="1.0568">
        <ele>326.98001099</ele>
        <time>2021-10-17T08:27:10Z</time>
      </trkpt>
      <trkpt lat="43.17725" lon="1.05678">
        <ele>327.38000488</ele>
        <time>2021-10-17T08:27:11Z</time>
      </trkpt>
      <trkpt lat="43.17727" lon="1.05676">
        <ele>327.8500061</ele>
        <time>2021-10-17T08:27:12Z</time>
      </trkpt>
      <trkpt lat="43.1773" lon="1.05673">
        <ele>329.02001953</ele>
        <time>2021-10-17T08:27:13Z</time>
      </trkpt>
      <trkpt lat="43.17732" lon="1.0567">
        <ele>329.02001953</ele>
        <time>2021-10-17T08:27:14Z</time>
      </trkpt>
      <trkpt lat="43.17735" lon="1.05667">
        <ele>329.65002441</ele>
        <time>2021-10-17T08:27:15Z</time>
      </trkpt>
      <trkpt lat="43.17738" lon="1.05664">
        <ele>330.22003174</ele>
        <time>2021-10-17T08:27:16Z</time>
      </trkpt>
      <trkpt lat="43.17739" lon="1.05661">
        <ele>330.82003784</ele>
        <time>2021-10-17T08:27:17Z</time>
      </trkpt>
      <trkpt lat="43.1774" lon="1.05658">
        <ele>331.45004272</ele>
        <time>2021-10-17T08:27:18Z</time>
      </trkpt>
      <trkpt lat="43.17741" lon="1.05655">
        <ele>332.1300354</ele>
        <time>2021-10-17T08:27:19Z</time>
      </trkpt>
      <trkpt lat="43.17741" lon="1.05652">
        <ele>332.76004028</ele>
        <time>2021-10-17T08:27:20Z</time>
      </trkpt>
      <trkpt lat="43.17743" lon="1.05649">
        <ele>333.35003662</ele>
        <time>2021-10-17T08:27:21Z</time>
      </trkpt>
      <trkpt lat="43.17743" lon="1.05646">
        <ele>333.85003662</ele>
        <time>2021-10-17T08:27:22Z</time>
      </trkpt>
      <trkpt lat="43.17744" lon="1.05642">
        <ele>334.39004517</ele>
        <time>2021-10-17T08:27:23Z</time>
      </trkpt>
      <trkpt lat="43.17744" lon="1.05639">
        <ele>334.84005737</ele>
        <time>2021-10-17T08:27:24Z</time>
      </trkpt>
      <trkpt lat="43.17746" lon="1.05635">
        <ele>335.27005005</ele>
        <time>2021-10-17T08:27:25Z</time>
      </trkpt>
      <trkpt lat="43.17746" lon="1.05632">
        <ele>335.84005737</ele>
        <time>2021-10-17T08:27:26Z</time>
      </trkpt>
      <trkpt lat="43.17747" lon="1.05629">
        <ele>336.22006226</ele>
        <time>2021-10-17T08:27:27Z</time>
      </trkpt>
      <trkpt lat="43.17747" lon="1.05626">
        <ele>336.7600708</ele>
        <time>2021-10-17T08:27:28Z</time>
      </trkpt>
      <trkpt lat="43.17749" lon="1.05623">
        <ele>337.21008301</ele>
        <time>2021-10-17T08:27:29Z</time>
      </trkpt>
      <trkpt lat="43.17751" lon="1.0562">
        <ele>337.59008789</ele>
        <time>2021-10-17T08:27:30Z</time>
      </trkpt>
      <trkpt lat="43.17751" lon="1.05616">
        <ele>338.01010132</ele>
        <time>2021-10-17T08:27:31Z</time>
      </trkpt>
      <trkpt lat="43.17752" lon="1.05613">
        <ele>338.45010376</ele>
        <time>2021-10-17T08:27:32Z</time>
      </trkpt>
      <trkpt lat="43.17752" lon="1.0561">
        <ele>338.84011841</ele>
        <time>2021-10-17T08:27:33Z</time>
      </trkpt>
      <trkpt lat="43.17753" lon="1.05607">
        <ele>339.34011841</ele>
        <time>2021-10-17T08:27:34Z</time>
      </trkpt>
      <trkpt lat="43.17755" lon="1.05602">
        <ele>339.81011963</ele>
        <time>2021-10-17T08:27:35Z</time>
      </trkpt>
      <trkpt lat="43.17756" lon="1.05599">
        <ele>340.22012329</ele>
        <time>2021-10-17T08:27:36Z</time>
      </trkpt>
      <trkpt lat="43.17757" lon="1.05596">
        <ele>340.7401123</ele>
        <time>2021-10-17T08:27:37Z</time>
      </trkpt>
      <trkpt lat="43.17758" lon="1.05594">
        <ele>341.07009888</ele>
        <time>2021-10-17T08:27:38Z</time>
      </trkpt>
      <trkpt lat="43.1776" lon="1.0559">
        <ele>341.52011108</ele>
        <time>2021-10-17T08:27:39Z</time>
      </trkpt>
      <trkpt lat="43.17762" lon="1.05587">
        <ele>341.85009766</ele>
        <time>2021-10-17T08:27:40Z</time>
      </trkpt>
      <trkpt lat="43.17764" lon="1.05585">
        <ele>342.17010498</ele>
        <time>2021-10-17T08:27:41Z</time>
      </trkpt>
      <trkpt lat="43.17766" lon="1.05582">
        <ele>342.51010132</ele>
        <time>2021-10-17T08:27:42Z</time>
      </trkpt>
      <trkpt lat="43.17766" lon="1.05579">
        <ele>342.70010376</ele>
        <time>2021-10-17T08:27:43Z</time>
      </trkpt>
      <trkpt lat="43.17769" lon="1.05576">
        <ele>343.0401001</ele>
        <time>2021-10-17T08:27:44Z</time>
      </trkpt>
      <trkpt lat="43.17771" lon="1.05574">
        <ele>343.36010742</ele>
        <time>2021-10-17T08:27:45Z</time>
      </trkpt>
      <trkpt lat="43.17772" lon="1.05571">
        <ele>343.57009888</ele>
        <time>2021-10-17T08:27:46Z</time>
      </trkpt>
      <trkpt lat="43.17773" lon="1.05568">
        <ele>343.88009644</ele>
        <time>2021-10-17T08:27:47Z</time>
      </trkpt>
      <trkpt lat="43.17775" lon="1.05565">
        <ele>343.95010376</ele>
        <time>2021-10-17T08:27:48Z</time>
      </trkpt>
      <trkpt lat="43.17776" lon="1.05562">
        <ele>344.0401001</ele>
        <time>2021-10-17T08:27:49Z</time>
      </trkpt>
      <trkpt lat="43.17778" lon="1.05559">
        <ele>344.15008545</ele>
        <time>2021-10-17T08:27:50Z</time>
      </trkpt>
      <trkpt lat="43.17779" lon="1.05556">
        <ele>344.16009521</ele>
        <time>2021-10-17T08:27:51Z</time>
      </trkpt>
      <trkpt lat="43.17781" lon="1.05553">
        <ele>344.27008057</ele>
        <time>2021-10-17T08:27:52Z</time>
      </trkpt>
      <trkpt lat="43.17783" lon="1.05549">
        <ele>344.22009277</ele>
        <time>2021-10-17T08:27:53Z</time>
      </trkpt>
      <trkpt lat="43.17785" lon="1.05546">
        <ele>344.23010254</ele>
        <time>2021-10-17T08:27:54Z</time>
      </trkpt>
      <trkpt lat="43.17786" lon="1.05543">
        <ele>344.25009155</ele>
        <time>2021-10-17T08:27:55Z</time>
      </trkpt>
      <trkpt lat="43.17787" lon="1.0554">
        <ele>344.25009155</ele>
        <time>2021-10-17T08:27:56Z</time>
      </trkpt>
      <trkpt lat="43.17789" lon="1.05535">
        <ele>344.25009155</ele>
        <time>2021-10-17T08:27:57Z</time>
      </trkpt>
      <trkpt lat="43.17791" lon="1.05531">
        <ele>344.25009155</ele>
        <time>2021-10-17T08:27:58Z</time>
      </trkpt>
      <trkpt lat="43.1779" lon="1.05527">
        <ele>344.07009888</ele>
        <time>2021-10-17T08:27:59Z</time>
      </trkpt>
      <trkpt lat="43.17792" lon="1.05522">
        <ele>343.77011108</ele>
        <time>2021-10-17T08:28:00Z</time>
      </trkpt>
      <trkpt lat="43.17796" lon="1.05516">
        <ele>343.27011108</ele>
        <time>2021-10-17T08:28:01Z</time>
      </trkpt>
      <trkpt lat="43.17798" lon="1.05512">
        <ele>342.76010132</ele>
        <time>2021-10-17T08:28:02Z</time>
      </trkpt>
      <trkpt lat="43.17801" lon="1.05509">
        <ele>342.2901001</ele>
        <time>2021-10-17T08:28:03Z</time>
      </trkpt>
      <trkpt lat="43.17804" lon="1.05505">
        <ele>342.03009033</ele>
        <time>2021-10-17T08:28:04Z</time>
      </trkpt>
      <trkpt lat="43.17806" lon="1.05502">
        <ele>341.93008423</ele>
        <time>2021-10-17T08:28:05Z</time>
      </trkpt>
      <trkpt lat="43.17808" lon="1.05497">
        <ele>341.83007812</ele>
        <time>2021-10-17T08:28:06Z</time>
      </trkpt>
      <trkpt lat="43.1781" lon="1.05494">
        <ele>341.93008423</ele>
        <time>2021-10-17T08:28:07Z</time>
      </trkpt>
      <trkpt lat="43.17812" lon="1.0549">
        <ele>341.83007812</ele>
        <time>2021-10-17T08:28:08Z</time>
      </trkpt>
      <trkpt lat="43.17813" lon="1.05487">
        <ele>341.9100647</ele>
        <time>2021-10-17T08:28:09Z</time>
      </trkpt>
      <trkpt lat="43.17816" lon="1.05482">
        <ele>342.14007568</ele>
        <time>2021-10-17T08:28:10Z</time>
      </trkpt>
      <trkpt lat="43.17818" lon="1.05479">
        <ele>342.2600708</ele>
        <time>2021-10-17T08:28:11Z</time>
      </trkpt>
      <trkpt lat="43.17819" lon="1.05476">
        <ele>342.78005981</ele>
        <time>2021-10-17T08:28:12Z</time>
      </trkpt>
      <trkpt lat="43.1782" lon="1.05473">
        <ele>343.13006592</ele>
        <time>2021-10-17T08:28:13Z</time>
      </trkpt>
      <trkpt lat="43.17822" lon="1.0547">
        <ele>343.58007812</ele>
        <time>2021-10-17T08:28:14Z</time>
      </trkpt>
      <trkpt lat="43.17824" lon="1.05465">
        <ele>344.14007568</ele>
        <time>2021-10-17T08:28:15Z</time>
      </trkpt>
      <trkpt lat="43.17825" lon="1.05461">
        <ele>344.55007935</ele>
        <time>2021-10-17T08:28:16Z</time>
      </trkpt>
      <trkpt lat="43.17826" lon="1.05457">
        <ele>345.02008057</ele>
        <time>2021-10-17T08:28:17Z</time>
      </trkpt>
      <trkpt lat="43.17826" lon="1.05453">
        <ele>345.40008545</ele>
        <time>2021-10-17T08:28:18Z</time>
      </trkpt>
      <trkpt lat="43.17828" lon="1.05448">
        <ele>345.65008545</ele>
        <time>2021-10-17T08:28:19Z</time>
      </trkpt>
      <trkpt lat="43.17829" lon="1.05445">
        <ele>345.87008667</ele>
        <time>2021-10-17T08:28:20Z</time>
      </trkpt>
      <trkpt lat="43.17831" lon="1.05442">
        <ele>346.0401001</ele>
        <time>2021-10-17T08:28:21Z</time>
      </trkpt>
      <trkpt lat="43.17832" lon="1.05439">
        <ele>346.27011108</ele>
        <time>2021-10-17T08:28:22Z</time>
      </trkpt>
      <trkpt lat="43.17833" lon="1.05436">
        <ele>346.44012451</ele>
        <time>2021-10-17T08:28:23Z</time>
      </trkpt>
      <trkpt lat="43.17834" lon="1.05431">
        <ele>346.56011963</ele>
        <time>2021-10-17T08:28:24Z</time>
      </trkpt>
      <trkpt lat="43.17835" lon="1.05428">
        <ele>346.66012573</ele>
        <time>2021-10-17T08:28:25Z</time>
      </trkpt>
      <trkpt lat="43.17836" lon="1.05424">
        <ele>346.7401123</ele>
        <time>2021-10-17T08:28:26Z</time>
      </trkpt>
      <trkpt lat="43.17837" lon="1.05421">
        <ele>346.85009766</ele>
        <time>2021-10-17T08:28:27Z</time>
      </trkpt>
      <trkpt lat="43.17837" lon="1.05417">
        <ele>346.9901123</ele>
        <time>2021-10-17T08:28:28Z</time>
      </trkpt>
      <trkpt lat="43.17839" lon="1.05412">
        <ele>347.23010254</ele>
        <time>2021-10-17T08:28:29Z</time>
      </trkpt>
      <trkpt lat="43.17841" lon="1.05409">
        <ele>347.4901123</ele>
        <time>2021-10-17T08:28:30Z</time>
      </trkpt>
      <trkpt lat="43.17841" lon="1.05405">
        <ele>347.80010986</ele>
        <time>2021-10-17T08:28:31Z</time>
      </trkpt>
      <trkpt lat="43.17842" lon="1.05401">
        <ele>348.17010498</ele>
        <time>2021-10-17T08:28:32Z</time>
      </trkpt>
      <trkpt lat="43.17844" lon="1.05396">
        <ele>348.4901123</ele>
        <time>2021-10-17T08:28:33Z</time>
      </trkpt>
      <trkpt lat="43.17845" lon="1.05394">
        <ele>348.81011963</ele>
        <time>2021-10-17T08:28:34Z</time>
      </trkpt>
      <trkpt lat="43.17846" lon="1.05391">
        <ele>349.06011963</ele>
        <time>2021-10-17T08:28:35Z</time>
      </trkpt>
      <trkpt lat="43.17847" lon="1.05388">
        <ele>349.36010742</ele>
        <time>2021-10-17T08:28:36Z</time>
      </trkpt>
      <trkpt lat="43.17849" lon="1.05385">
        <ele>349.81011963</ele>
        <time>2021-10-17T08:28:37Z</time>
      </trkpt>
      <trkpt lat="43.1785" lon="1.05382">
        <ele>350.19012451</ele>
        <time>2021-10-17T08:28:38Z</time>
      </trkpt>
      <trkpt lat="43.17851" lon="1.0538">
        <ele>350.6701355</ele>
        <time>2021-10-17T08:28:39Z</time>
      </trkpt>
      <trkpt lat="43.17853" lon="1.05377">
        <ele>351.08013916</ele>
        <time>2021-10-17T08:28:40Z</time>
      </trkpt>
      <trkpt lat="43.17854" lon="1.05374">
        <ele>351.41012573</ele>
        <time>2021-10-17T08:28:41Z</time>
      </trkpt>
      <trkpt lat="43.17855" lon="1.05371">
        <ele>351.7401123</ele>
        <time>2021-10-17T08:28:42Z</time>
      </trkpt>
      <trkpt lat="43.17856" lon="1.05368">
        <ele>352.07009888</ele>
        <time>2021-10-17T08:28:43Z</time>
      </trkpt>
      <trkpt lat="43.17857" lon="1.05365">
        <ele>352.33010864</ele>
        <time>2021-10-17T08:28:44Z</time>
      </trkpt>
      <trkpt lat="43.17859" lon="1.05362">
        <ele>352.56011963</ele>
        <time>2021-10-17T08:28:45Z</time>
      </trkpt>
      <trkpt lat="43.17861" lon="1.05358">
        <ele>352.82012939</ele>
        <time>2021-10-17T08:28:46Z</time>
      </trkpt>
      <trkpt lat="43.17862" lon="1.05356">
        <ele>353.0201416</ele>
        <time>2021-10-17T08:28:47Z</time>
      </trkpt>
      <trkpt lat="43.17864" lon="1.05353">
        <ele>353.20013428</ele>
        <time>2021-10-17T08:28:48Z</time>
      </trkpt>
      <trkpt lat="43.17864" lon="1.0535">
        <ele>353.34014893</ele>
        <time>2021-10-17T08:28:49Z</time>
      </trkpt>
      <trkpt lat="43.17865" lon="1.05348">
        <ele>353.43014526</ele>
        <time>2021-10-17T08:28:50Z</time>
      </trkpt>
      <trkpt lat="43.17865" lon="1.05344">
        <ele>353.58013916</ele>
        <time>2021-10-17T08:28:51Z</time>
      </trkpt>
      <trkpt lat="43.17866" lon="1.0534">
        <ele>353.79013062</ele>
        <time>2021-10-17T08:28:52Z</time>
      </trkpt>
      <trkpt lat="43.17867" lon="1.05337">
        <ele>354.05014038</ele>
        <time>2021-10-17T08:28:53Z</time>
      </trkpt>
      <trkpt lat="43.17867" lon="1.05334">
        <ele>354.45013428</ele>
        <time>2021-10-17T08:28:54Z</time>
      </trkpt>
      <trkpt lat="43.17868" lon="1.05331">
        <ele>354.80014038</ele>
        <time>2021-10-17T08:28:55Z</time>
      </trkpt>
      <trkpt lat="43.17868" lon="1.05326">
        <ele>355.21014404</ele>
        <time>2021-10-17T08:28:56Z</time>
      </trkpt>
      <trkpt lat="43.17869" lon="1.05323">
        <ele>355.58013916</ele>
        <time>2021-10-17T08:28:57Z</time>
      </trkpt>
      <trkpt lat="43.17869" lon="1.0532">
        <ele>356.0201416</ele>
        <time>2021-10-17T08:28:58Z</time>
      </trkpt>
      <trkpt lat="43.17869" lon="1.05317">
        <ele>356.46014404</ele>
        <time>2021-10-17T08:28:59Z</time>
      </trkpt>
      <trkpt lat="43.1787" lon="1.05313">
        <ele>356.90014648</ele>
        <time>2021-10-17T08:29:00Z</time>
      </trkpt>
      <trkpt lat="43.1787" lon="1.0531">
        <ele>357.51013184</ele>
        <time>2021-10-17T08:29:01Z</time>
      </trkpt>
      <trkpt lat="43.1787" lon="1.05307">
        <ele>357.91012573</ele>
        <time>2021-10-17T08:29:02Z</time>
      </trkpt>
      <trkpt lat="43.17871" lon="1.05304">
        <ele>358.35012817</ele>
        <time>2021-10-17T08:29:03Z</time>
      </trkpt>
      <trkpt lat="43.17872" lon="1.05301">
        <ele>358.82012939</ele>
        <time>2021-10-17T08:29:04Z</time>
      </trkpt>
      <trkpt lat="43.17872" lon="1.05297">
        <ele>359.14013672</ele>
        <time>2021-10-17T08:29:05Z</time>
      </trkpt>
      <trkpt lat="43.17873" lon="1.05294">
        <ele>359.61013794</ele>
        <time>2021-10-17T08:29:06Z</time>
      </trkpt>
      <trkpt lat="43.17873" lon="1.05291">
        <ele>360.07012939</ele>
        <time>2021-10-17T08:29:07Z</time>
      </trkpt>
      <trkpt lat="43.17874" lon="1.05288">
        <ele>360.53012085</ele>
        <time>2021-10-17T08:29:08Z</time>
      </trkpt>
      <trkpt lat="43.17876" lon="1.05284">
        <ele>360.97012329</ele>
        <time>2021-10-17T08:29:09Z</time>
      </trkpt>
      <trkpt lat="43.17876" lon="1.05281">
        <ele>361.33010864</ele>
        <time>2021-10-17T08:29:10Z</time>
      </trkpt>
      <trkpt lat="43.17877" lon="1.05279">
        <ele>361.76010132</ele>
        <time>2021-10-17T08:29:11Z</time>
      </trkpt>
      <trkpt lat="43.17878" lon="1.05277">
        <ele>362.12008667</ele>
        <time>2021-10-17T08:29:12Z</time>
      </trkpt>
      <trkpt lat="43.17879" lon="1.05275">
        <ele>362.55007935</ele>
        <time>2021-10-17T08:29:13Z</time>
      </trkpt>
      <trkpt lat="43.1788" lon="1.05273">
        <ele>363.00009155</ele>
        <time>2021-10-17T08:29:14Z</time>
      </trkpt>
      <trkpt lat="43.1788" lon="1.05271">
        <ele>363.31008911</ele>
        <time>2021-10-17T08:29:15Z</time>
      </trkpt>
      <trkpt lat="43.17881" lon="1.0527">
        <ele>363.5401001</ele>
        <time>2021-10-17T08:29:16Z</time>
      </trkpt>
      <trkpt lat="43.17881" lon="1.05269">
        <ele>363.65008545</ele>
        <time>2021-10-17T08:29:17Z</time>
      </trkpt>
      <trkpt lat="43.1788" lon="1.05269">
        <ele>363.69009399</ele>
        <time>2021-10-17T08:29:18Z</time>
      </trkpt>
      <trkpt lat="43.1788" lon="1.05269">
        <ele>363.72009277</ele>
        <time>2021-10-17T08:29:19Z</time>
      </trkpt>
      <trkpt lat="43.17881" lon="1.05268">
        <ele>364.20001221</ele>
        <time>2021-10-17T08:29:19Z</time>
      </trkpt>
      <trkpt lat="43.17884" lon="1.05265">
        <ele>364.02001953</ele>
        <time>2021-10-17T08:33:32Z</time>
      </trkpt>
      <trkpt lat="43.17885" lon="1.05264">
        <ele>363.95001221</ele>
        <time>2021-10-17T08:33:33Z</time>
      </trkpt>
      <trkpt lat="43.17886" lon="1.05262">
        <ele>363.77999878</ele>
        <time>2021-10-17T08:33:34Z</time>
      </trkpt>
      <trkpt lat="43.17888" lon="1.0526">
        <ele>363.5</ele>
        <time>2021-10-17T08:33:35Z</time>
      </trkpt>
      <trkpt lat="43.17889" lon="1.05258">
        <ele>363.27999878</ele>
        <time>2021-10-17T08:33:36Z</time>
      </trkpt>
      <trkpt lat="43.17892" lon="1.05255">
        <ele>362.80999756</ele>
        <time>2021-10-17T08:33:37Z</time>
      </trkpt>
      <trkpt lat="43.17894" lon="1.05252">
        <ele>362.07998657</ele>
        <time>2021-10-17T08:33:38Z</time>
      </trkpt>
      <trkpt lat="43.17898" lon="1.05245">
        <ele>361.08999634</ele>
        <time>2021-10-17T08:33:39Z</time>
      </trkpt>
      <trkpt lat="43.17902" lon="1.05242">
        <ele>359.88998413</ele>
        <time>2021-10-17T08:33:40Z</time>
      </trkpt>
      <trkpt lat="43.17906" lon="1.05238">
        <ele>358.40997314</ele>
        <time>2021-10-17T08:33:41Z</time>
      </trkpt>
      <trkpt lat="43.1791" lon="1.05235">
        <ele>357.20996094</ele>
        <time>2021-10-17T08:33:42Z</time>
      </trkpt>
      <trkpt lat="43.17914" lon="1.05232">
        <ele>356.06994629</ele>
        <time>2021-10-17T08:33:43Z</time>
      </trkpt>
      <trkpt lat="43.1792" lon="1.05228">
        <ele>355.20996094</ele>
        <time>2021-10-17T08:33:44Z</time>
      </trkpt>
      <trkpt lat="43.17924" lon="1.05225">
        <ele>354.81994629</ele>
        <time>2021-10-17T08:33:45Z</time>
      </trkpt>
      <trkpt lat="43.17927" lon="1.05222">
        <ele>354.27993774</ele>
        <time>2021-10-17T08:33:46Z</time>
      </trkpt>
      <trkpt lat="43.17932" lon="1.05219">
        <ele>353.89993286</ele>
        <time>2021-10-17T08:33:47Z</time>
      </trkpt>
      <trkpt lat="43.17938" lon="1.05218">
        <ele>353.31994629</ele>
        <time>2021-10-17T08:33:48Z</time>
      </trkpt>
      <trkpt lat="43.17941" lon="1.05217">
        <ele>352.69995117</ele>
        <time>2021-10-17T08:33:49Z</time>
      </trkpt>
      <trkpt lat="43.17945" lon="1.05215">
        <ele>352.30993652</ele>
        <time>2021-10-17T08:33:50Z</time>
      </trkpt>
      <trkpt lat="43.1795" lon="1.05213">
        <ele>351.85992432</ele>
        <time>2021-10-17T08:33:51Z</time>
      </trkpt>
      <trkpt lat="43.17956" lon="1.05212">
        <ele>351.29992676</ele>
        <time>2021-10-17T08:33:52Z</time>
      </trkpt>
      <trkpt lat="43.1796" lon="1.05208">
        <ele>350.68994141</ele>
        <time>2021-10-17T08:33:53Z</time>
      </trkpt>
      <trkpt lat="43.17965" lon="1.05206">
        <ele>349.62994385</ele>
        <time>2021-10-17T08:33:54Z</time>
      </trkpt>
      <trkpt lat="43.17969" lon="1.05203">
        <ele>348.67993164</ele>
        <time>2021-10-17T08:33:55Z</time>
      </trkpt>
      <trkpt lat="43.17972" lon="1.05201">
        <ele>348.00991821</ele>
        <time>2021-10-17T08:33:56Z</time>
      </trkpt>
      <trkpt lat="43.17978" lon="1.05199">
        <ele>347.21990967</ele>
        <time>2021-10-17T08:33:57Z</time>
      </trkpt>
      <trkpt lat="43.17982" lon="1.05199">
        <ele>346.54989624</ele>
        <time>2021-10-17T08:33:58Z</time>
      </trkpt>
      <trkpt lat="43.17987" lon="1.05198">
        <ele>345.79989624</ele>
        <time>2021-10-17T08:33:59Z</time>
      </trkpt>
      <trkpt lat="43.17992" lon="1.05199">
        <ele>345.08990479</ele>
        <time>2021-10-17T08:34:00Z</time>
      </trkpt>
      <trkpt lat="43.18" lon="1.05198">
        <ele>344.43991089</ele>
        <time>2021-10-17T08:34:01Z</time>
      </trkpt>
      <trkpt lat="43.18005" lon="1.05197">
        <ele>344.17990112</ele>
        <time>2021-10-17T08:34:02Z</time>
      </trkpt>
      <trkpt lat="43.1801" lon="1.05195">
        <ele>344.06991577</ele>
        <time>2021-10-17T08:34:03Z</time>
      </trkpt>
      <trkpt lat="43.18015" lon="1.05192">
        <ele>343.86990356</ele>
        <time>2021-10-17T08:34:04Z</time>
      </trkpt>
      <trkpt lat="43.18019" lon="1.05189">
        <ele>343.86990356</ele>
        <time>2021-10-17T08:34:05Z</time>
      </trkpt>
      <trkpt lat="43.18025" lon="1.05185">
        <ele>343.87991333</ele>
        <time>2021-10-17T08:34:06Z</time>
      </trkpt>
      <trkpt lat="43.18027" lon="1.0518">
        <ele>344.03991699</ele>
        <time>2021-10-17T08:34:07Z</time>
      </trkpt>
      <trkpt lat="43.18029" lon="1.05176">
        <ele>344.22991943</ele>
        <time>2021-10-17T08:34:08Z</time>
      </trkpt>
      <trkpt lat="43.1803" lon="1.05172">
        <ele>344.35992432</ele>
        <time>2021-10-17T08:34:09Z</time>
      </trkpt>
      <trkpt lat="43.18032" lon="1.05167">
        <ele>344.51992798</ele>
        <time>2021-10-17T08:34:10Z</time>
      </trkpt>
      <trkpt lat="43.18034" lon="1.05162">
        <ele>344.45993042</ele>
        <time>2021-10-17T08:34:11Z</time>
      </trkpt>
      <trkpt lat="43.18036" lon="1.05158">
        <ele>344.31991577</ele>
        <time>2021-10-17T08:34:12Z</time>
      </trkpt>
      <trkpt lat="43.18039" lon="1.05154">
        <ele>344.05990601</ele>
        <time>2021-10-17T08:34:13Z</time>
      </trkpt>
      <trkpt lat="43.18042" lon="1.05151">
        <ele>343.69992065</ele>
        <time>2021-10-17T08:34:14Z</time>
      </trkpt>
      <trkpt lat="43.18048" lon="1.05147">
        <ele>343.04992676</ele>
        <time>2021-10-17T08:34:15Z</time>
      </trkpt>
      <trkpt lat="43.18052" lon="1.05145">
        <ele>342.49993896</ele>
        <time>2021-10-17T08:34:16Z</time>
      </trkpt>
      <trkpt lat="43.18057" lon="1.05144">
        <ele>341.81994629</ele>
        <time>2021-10-17T08:34:17Z</time>
      </trkpt>
      <trkpt lat="43.18061" lon="1.05145">
        <ele>341.07995605</ele>
        <time>2021-10-17T08:34:18Z</time>
      </trkpt>
      <trkpt lat="43.18067" lon="1.05147">
        <ele>340.92996216</ele>
        <time>2021-10-17T08:34:19Z</time>
      </trkpt>
      <trkpt lat="43.18071" lon="1.05148">
        <ele>340.59997559</ele>
        <time>2021-10-17T08:34:20Z</time>
      </trkpt>
      <trkpt lat="43.18075" lon="1.05149">
        <ele>340.67996216</ele>
        <time>2021-10-17T08:34:21Z</time>
      </trkpt>
      <trkpt lat="43.18078" lon="1.05149">
        <ele>340.89996338</ele>
        <time>2021-10-17T08:34:22Z</time>
      </trkpt>
      <trkpt lat="43.18081" lon="1.05148">
        <ele>340.99996948</ele>
        <time>2021-10-17T08:34:23Z</time>
      </trkpt>
      <trkpt lat="43.18087" lon="1.05146">
        <ele>341.18997192</ele>
        <time>2021-10-17T08:34:24Z</time>
      </trkpt>
      <trkpt lat="43.1809" lon="1.05145">
        <ele>341.16998291</ele>
        <time>2021-10-17T08:34:25Z</time>
      </trkpt>
      <trkpt lat="43.18093" lon="1.05143">
        <ele>341.10998535</ele>
        <time>2021-10-17T08:34:26Z</time>
      </trkpt>
      <trkpt lat="43.18097" lon="1.05143">
        <ele>340.95999146</ele>
        <time>2021-10-17T08:34:27Z</time>
      </trkpt>
      <trkpt lat="43.18102" lon="1.05142">
        <ele>340.69000244</ele>
        <time>2021-10-17T08:34:28Z</time>
      </trkpt>
      <trkpt lat="43.18106" lon="1.05142">
        <ele>340.64001465</ele>
        <time>2021-10-17T08:34:29Z</time>
      </trkpt>
      <trkpt lat="43.1811" lon="1.05141">
        <ele>340.49002075</ele>
        <time>2021-10-17T08:34:30Z</time>
      </trkpt>
      <trkpt lat="43.18111" lon="1.05141">
        <ele>340.29998779</ele>
        <time>2021-10-17T08:34:30Z</time>
      </trkpt>
      <trkpt lat="43.18114" lon="1.0514">
        <ele>340.17999268</ele>
        <time>2021-10-17T08:34:31Z</time>
      </trkpt>
      <trkpt lat="43.18117" lon="1.0514">
        <ele>340.23999023</ele>
        <time>2021-10-17T08:34:32Z</time>
      </trkpt>
      <trkpt lat="43.18121" lon="1.05136">
        <ele>340.22000122</ele>
        <time>2021-10-17T08:34:33Z</time>
      </trkpt>
      <trkpt lat="43.18124" lon="1.05133">
        <ele>340.32998657</ele>
        <time>2021-10-17T08:34:34Z</time>
      </trkpt>
      <trkpt lat="43.18128" lon="1.05131">
        <ele>340.38998413</ele>
        <time>2021-10-17T08:34:35Z</time>
      </trkpt>
      <trkpt lat="43.18131" lon="1.05127">
        <ele>340.37997437</ele>
        <time>2021-10-17T08:34:36Z</time>
      </trkpt>
      <trkpt lat="43.18135" lon="1.05124">
        <ele>340.1199646</ele>
        <time>2021-10-17T08:34:37Z</time>
      </trkpt>
      <trkpt lat="43.1814" lon="1.05119">
        <ele>339.7699585</ele>
        <time>2021-10-17T08:34:38Z</time>
      </trkpt>
      <trkpt lat="43.18144" lon="1.05116">
        <ele>339.35995483</ele>
        <time>2021-10-17T08:34:39Z</time>
      </trkpt>
      <trkpt lat="43.18149" lon="1.05112">
        <ele>338.68994141</ele>
        <time>2021-10-17T08:34:40Z</time>
      </trkpt>
      <trkpt lat="43.18153" lon="1.05109">
        <ele>338.30993652</ele>
        <time>2021-10-17T08:34:41Z</time>
      </trkpt>
      <trkpt lat="43.18159" lon="1.05106">
        <ele>338.06994629</ele>
        <time>2021-10-17T08:34:42Z</time>
      </trkpt>
      <trkpt lat="43.18163" lon="1.05105">
        <ele>337.85995483</ele>
        <time>2021-10-17T08:34:43Z</time>
      </trkpt>
      <trkpt lat="43.18167" lon="1.05105">
        <ele>337.94995117</ele>
        <time>2021-10-17T08:34:44Z</time>
      </trkpt>
      <trkpt lat="43.18172" lon="1.05104">
        <ele>337.96994019</ele>
        <time>2021-10-17T08:34:45Z</time>
      </trkpt>
      <trkpt lat="43.18177" lon="1.05103">
        <ele>337.75994873</ele>
        <time>2021-10-17T08:34:46Z</time>
      </trkpt>
      <trkpt lat="43.18184" lon="1.05101">
        <ele>337.71994019</ele>
        <time>2021-10-17T08:34:47Z</time>
      </trkpt>
      <trkpt lat="43.18188" lon="1.051">
        <ele>337.65994263</ele>
        <time>2021-10-17T08:34:48Z</time>
      </trkpt>
      <trkpt lat="43.18194" lon="1.051">
        <ele>337.46994019</ele>
        <time>2021-10-17T08:34:49Z</time>
      </trkpt>
      <trkpt lat="43.18198" lon="1.05099">
        <ele>337.32992554</ele>
        <time>2021-10-17T08:34:50Z</time>
      </trkpt>
      <trkpt lat="43.18204" lon="1.05097">
        <ele>337.01992798</ele>
        <time>2021-10-17T08:34:51Z</time>
      </trkpt>
      <trkpt lat="43.18208" lon="1.05095">
        <ele>336.57992554</ele>
        <time>2021-10-17T08:34:52Z</time>
      </trkpt>
      <trkpt lat="43.18211" lon="1.05093">
        <ele>336.35992432</ele>
        <time>2021-10-17T08:34:53Z</time>
      </trkpt>
      <trkpt lat="43.18213" lon="1.05089">
        <ele>336.00991821</ele>
        <time>2021-10-17T08:34:54Z</time>
      </trkpt>
      <trkpt lat="43.18215" lon="1.05086">
        <ele>335.61990356</ele>
        <time>2021-10-17T08:34:55Z</time>
      </trkpt>
      <trkpt lat="43.18217" lon="1.05082">
        <ele>335.3598938</ele>
        <time>2021-10-17T08:34:56Z</time>
      </trkpt>
      <trkpt lat="43.18218" lon="1.05079">
        <ele>335.02990723</ele>
        <time>2021-10-17T08:34:57Z</time>
      </trkpt>
      <trkpt lat="43.18219" lon="1.05076">
        <ele>334.83990479</ele>
        <time>2021-10-17T08:34:58Z</time>
      </trkpt>
      <trkpt lat="43.18219" lon="1.05074">
        <ele>334.72991943</ele>
        <time>2021-10-17T08:34:59Z</time>
      </trkpt>
      <trkpt lat="43.1822" lon="1.05071">
        <ele>334.72991943</ele>
        <time>2021-10-17T08:35:00Z</time>
      </trkpt>
      <trkpt lat="43.1822" lon="1.05069">
        <ele>334.71990967</ele>
        <time>2021-10-17T08:35:01Z</time>
      </trkpt>
      <trkpt lat="43.18222" lon="1.05069">
        <ele>334.76989746</ele>
        <time>2021-10-17T08:35:02Z</time>
      </trkpt>
      <trkpt lat="43.18223" lon="1.05069">
        <ele>334.84988403</ele>
        <time>2021-10-17T08:35:03Z</time>
      </trkpt>
      <trkpt lat="43.18225" lon="1.0507">
        <ele>334.77987671</ele>
        <time>2021-10-17T08:35:04Z</time>
      </trkpt>
      <trkpt lat="43.18227" lon="1.05074">
        <ele>334.42987061</ele>
        <time>2021-10-17T08:35:05Z</time>
      </trkpt>
      <trkpt lat="43.18228" lon="1.05077">
        <ele>333.99987793</ele>
        <time>2021-10-17T08:35:06Z</time>
      </trkpt>
      <trkpt lat="43.18229" lon="1.05081">
        <ele>333.27987671</ele>
        <time>2021-10-17T08:35:07Z</time>
      </trkpt>
      <trkpt lat="43.1823" lon="1.05085">
        <ele>332.52987671</ele>
        <time>2021-10-17T08:35:08Z</time>
      </trkpt>
      <trkpt lat="43.18231" lon="1.0509">
        <ele>331.77987671</ele>
        <time>2021-10-17T08:35:09Z</time>
      </trkpt>
      <trkpt lat="43.18232" lon="1.05094">
        <ele>330.95986938</ele>
        <time>2021-10-17T08:35:10Z</time>
      </trkpt>
      <trkpt lat="43.18232" lon="1.05097">
        <ele>330.17987061</ele>
        <time>2021-10-17T08:35:11Z</time>
      </trkpt>
      <trkpt lat="43.18233" lon="1.051">
        <ele>329.41986084</ele>
        <time>2021-10-17T08:35:12Z</time>
      </trkpt>
      <trkpt lat="43.18234" lon="1.05104">
        <ele>328.79986572</ele>
        <time>2021-10-17T08:35:13Z</time>
      </trkpt>
      <trkpt lat="43.18236" lon="1.05109">
        <ele>328.13986206</ele>
        <time>2021-10-17T08:35:14Z</time>
      </trkpt>
      <trkpt lat="43.18236" lon="1.05111">
        <ele>327.67987061</ele>
        <time>2021-10-17T08:35:15Z</time>
      </trkpt>
      <trkpt lat="43.18238" lon="1.05112">
        <ele>327.04986572</ele>
        <time>2021-10-17T08:35:16Z</time>
      </trkpt>
      <trkpt lat="43.18238" lon="1.05115">
        <ele>326.48986816</ele>
        <time>2021-10-17T08:35:17Z</time>
      </trkpt>
      <trkpt lat="43.18239" lon="1.05118">
        <ele>325.75985718</ele>
        <time>2021-10-17T08:35:18Z</time>
      </trkpt>
      <trkpt lat="43.18239" lon="1.0512">
        <ele>324.84985352</ele>
        <time>2021-10-17T08:35:19Z</time>
      </trkpt>
      <trkpt lat="43.18239" lon="1.05123">
        <ele>324.0798645</ele>
        <time>2021-10-17T08:35:20Z</time>
      </trkpt>
      <trkpt lat="43.1824" lon="1.05127">
        <ele>323.23986816</ele>
        <time>2021-10-17T08:35:21Z</time>
      </trkpt>
      <trkpt lat="43.1824" lon="1.05132">
        <ele>322.53985596</ele>
        <time>2021-10-17T08:35:22Z</time>
      </trkpt>
      <trkpt lat="43.1824" lon="1.05135">
        <ele>322.23986816</ele>
        <time>2021-10-17T08:35:23Z</time>
      </trkpt>
      <trkpt lat="43.1824" lon="1.05139">
        <ele>321.41986084</ele>
        <time>2021-10-17T08:35:24Z</time>
      </trkpt>
      <trkpt lat="43.1824" lon="1.05142">
        <ele>320.48986816</ele>
        <time>2021-10-17T08:35:25Z</time>
      </trkpt>
      <trkpt lat="43.18241" lon="1.05146">
        <ele>319.8298645</ele>
        <time>2021-10-17T08:35:26Z</time>
      </trkpt>
      <trkpt lat="43.18242" lon="1.0515">
        <ele>318.61987305</ele>
        <time>2021-10-17T08:35:27Z</time>
      </trkpt>
      <trkpt lat="43.18243" lon="1.05154">
        <ele>317.76986694</ele>
        <time>2021-10-17T08:35:28Z</time>
      </trkpt>
      <trkpt lat="43.18243" lon="1.05157">
        <ele>317.08987427</ele>
        <time>2021-10-17T08:35:29Z</time>
      </trkpt>
      <trkpt lat="43.18243" lon="1.05161">
        <ele>316.13986206</ele>
        <time>2021-10-17T08:35:30Z</time>
      </trkpt>
      <trkpt lat="43.18243" lon="1.05165">
        <ele>315.31985474</ele>
        <time>2021-10-17T08:35:31Z</time>
      </trkpt>
      <trkpt lat="43.18243" lon="1.05171">
        <ele>314.4798584</ele>
        <time>2021-10-17T08:35:32Z</time>
      </trkpt>
      <trkpt lat="43.18243" lon="1.05176">
        <ele>313.51986694</ele>
        <time>2021-10-17T08:35:33Z</time>
      </trkpt>
      <trkpt lat="43.18244" lon="1.0518">
        <ele>312.49987793</ele>
        <time>2021-10-17T08:35:34Z</time>
      </trkpt>
      <trkpt lat="43.18245" lon="1.05186">
        <ele>311.39987183</ele>
        <time>2021-10-17T08:35:35Z</time>
      </trkpt>
      <trkpt lat="43.18246" lon="1.05192">
        <ele>310.38986206</ele>
        <time>2021-10-17T08:35:36Z</time>
      </trkpt>
      <trkpt lat="43.18247" lon="1.05197">
        <ele>309.23986816</ele>
        <time>2021-10-17T08:35:37Z</time>
      </trkpt>
      <trkpt lat="43.18248" lon="1.05202">
        <ele>308.24987793</ele>
        <time>2021-10-17T08:35:38Z</time>
      </trkpt>
      <trkpt lat="43.18249" lon="1.05207">
        <ele>307.29986572</ele>
        <time>2021-10-17T08:35:39Z</time>
      </trkpt>
      <trkpt lat="43.18249" lon="1.05214">
        <ele>306.27987671</ele>
        <time>2021-10-17T08:35:40Z</time>
      </trkpt>
      <trkpt lat="43.18249" lon="1.05219">
        <ele>305.49987793</ele>
        <time>2021-10-17T08:35:41Z</time>
      </trkpt>
      <trkpt lat="43.18248" lon="1.05224">
        <ele>304.64987183</ele>
        <time>2021-10-17T08:35:42Z</time>
      </trkpt>
      <trkpt lat="43.18248" lon="1.05229">
        <ele>303.96987915</ele>
        <time>2021-10-17T08:35:43Z</time>
      </trkpt>
      <trkpt lat="43.18247" lon="1.05232">
        <ele>303.45986938</ele>
        <time>2021-10-17T08:35:44Z</time>
      </trkpt>
      <trkpt lat="43.18248" lon="1.05237">
        <ele>302.98986816</ele>
        <time>2021-10-17T08:35:45Z</time>
      </trkpt>
      <trkpt lat="43.18249" lon="1.05241">
        <ele>302.78985596</ele>
        <time>2021-10-17T08:35:46Z</time>
      </trkpt>
      <trkpt lat="43.1825" lon="1.05244">
        <ele>302.39984131</ele>
        <time>2021-10-17T08:35:47Z</time>
      </trkpt>
      <trkpt lat="43.1825" lon="1.05247">
        <ele>302.13983154</ele>
        <time>2021-10-17T08:35:48Z</time>
      </trkpt>
      <trkpt lat="43.18249" lon="1.0525">
        <ele>301.42984009</ele>
        <time>2021-10-17T08:35:49Z</time>
      </trkpt>
      <trkpt lat="43.18248" lon="1.05255">
        <ele>300.58984375</ele>
        <time>2021-10-17T08:35:50Z</time>
      </trkpt>
      <trkpt lat="43.18248" lon="1.05258">
        <ele>300.14984131</ele>
        <time>2021-10-17T08:35:51Z</time>
      </trkpt>
      <trkpt lat="43.18249" lon="1.05261">
        <ele>299.35983276</ele>
        <time>2021-10-17T08:35:52Z</time>
      </trkpt>
      <trkpt lat="43.18249" lon="1.05263">
        <ele>299.02984619</ele>
        <time>2021-10-17T08:35:53Z</time>
      </trkpt>
      <trkpt lat="43.1825" lon="1.05265">
        <ele>298.61984253</ele>
        <time>2021-10-17T08:35:54Z</time>
      </trkpt>
      <trkpt lat="43.18252" lon="1.05268">
        <ele>298.09985352</ele>
        <time>2021-10-17T08:35:55Z</time>
      </trkpt>
      <trkpt lat="43.18254" lon="1.05271">
        <ele>297.58984375</ele>
        <time>2021-10-17T08:35:56Z</time>
      </trkpt>
      <trkpt lat="43.18257" lon="1.05274">
        <ele>296.89984131</ele>
        <time>2021-10-17T08:35:57Z</time>
      </trkpt>
      <trkpt lat="43.18259" lon="1.05276">
        <ele>296.24984741</ele>
        <time>2021-10-17T08:35:58Z</time>
      </trkpt>
      <trkpt lat="43.18264" lon="1.05279">
        <ele>295.54983521</ele>
        <time>2021-10-17T08:35:59Z</time>
      </trkpt>
      <trkpt lat="43.18267" lon="1.05279">
        <ele>294.93984985</ele>
        <time>2021-10-17T08:36:00Z</time>
      </trkpt>
      <trkpt lat="43.18268" lon="1.05279">
        <ele>294.65985107</ele>
        <time>2021-10-17T08:36:01Z</time>
      </trkpt>
      <trkpt lat="43.18269" lon="1.05278">
        <ele>294.52984619</ele>
        <time>2021-10-17T08:36:02Z</time>
      </trkpt>
      <trkpt lat="43.18273" lon="1.05278">
        <ele>294.37985229</ele>
        <time>2021-10-17T08:36:03Z</time>
      </trkpt>
      <trkpt lat="43.18275" lon="1.05278">
        <ele>294.36984253</ele>
        <time>2021-10-17T08:36:04Z</time>
      </trkpt>
      <trkpt lat="43.18277" lon="1.05279">
        <ele>294.24984741</ele>
        <time>2021-10-17T08:36:05Z</time>
      </trkpt>
      <trkpt lat="43.1828" lon="1.05279">
        <ele>294.14984131</ele>
        <time>2021-10-17T08:36:06Z</time>
      </trkpt>
      <trkpt lat="43.18283" lon="1.05278">
        <ele>294.18984985</ele>
        <time>2021-10-17T08:36:07Z</time>
      </trkpt>
      <trkpt lat="43.18288" lon="1.0528">
        <ele>294.28985596</ele>
        <time>2021-10-17T08:36:08Z</time>
      </trkpt>
      <trkpt lat="43.18291" lon="1.05281">
        <ele>294.35986328</ele>
        <time>2021-10-17T08:36:09Z</time>
      </trkpt>
      <trkpt lat="43.18294" lon="1.05284">
        <ele>294.49987793</ele>
        <time>2021-10-17T08:36:10Z</time>
      </trkpt>
      <trkpt lat="43.18298" lon="1.05287">
        <ele>294.58987427</ele>
        <time>2021-10-17T08:36:11Z</time>
      </trkpt>
      <trkpt lat="43.18302" lon="1.0529">
        <ele>294.67987061</ele>
        <time>2021-10-17T08:36:12Z</time>
      </trkpt>
      <trkpt lat="43.18306" lon="1.05291">
        <ele>294.91986084</ele>
        <time>2021-10-17T08:36:13Z</time>
      </trkpt>
      <trkpt lat="43.18309" lon="1.05293">
        <ele>294.99984741</ele>
        <time>2021-10-17T08:36:14Z</time>
      </trkpt>
      <trkpt lat="43.18312" lon="1.05294">
        <ele>295.08984375</ele>
        <time>2021-10-17T08:36:15Z</time>
      </trkpt>
      <trkpt lat="43.18316" lon="1.05298">
        <ele>295.30984497</ele>
        <time>2021-10-17T08:36:16Z</time>
      </trkpt>
      <trkpt lat="43.18319" lon="1.053">
        <ele>295.30984497</ele>
        <time>2021-10-17T08:36:17Z</time>
      </trkpt>
      <trkpt lat="43.18322" lon="1.05302">
        <ele>295.51983643</ele>
        <time>2021-10-17T08:36:18Z</time>
      </trkpt>
      <trkpt lat="43.18324" lon="1.05304">
        <ele>295.73983765</ele>
        <time>2021-10-17T08:36:19Z</time>
      </trkpt>
      <trkpt lat="43.18327" lon="1.05305">
        <ele>296.00982666</ele>
        <time>2021-10-17T08:36:20Z</time>
      </trkpt>
      <trkpt lat="43.18331" lon="1.05308">
        <ele>296.25982666</ele>
        <time>2021-10-17T08:36:21Z</time>
      </trkpt>
      <trkpt lat="43.18334" lon="1.0531">
        <ele>296.43981934</ele>
        <time>2021-10-17T08:36:22Z</time>
      </trkpt>
      <trkpt lat="43.18336" lon="1.05312">
        <ele>296.63983154</ele>
        <time>2021-10-17T08:36:23Z</time>
      </trkpt>
      <trkpt lat="43.18338" lon="1.05315">
        <ele>296.80984497</ele>
        <time>2021-10-17T08:36:24Z</time>
      </trkpt>
      <trkpt lat="43.1834" lon="1.05317">
        <ele>297.03985596</ele>
        <time>2021-10-17T08:36:25Z</time>
      </trkpt>
      <trkpt lat="43.18343" lon="1.05321">
        <ele>297.60986328</ele>
        <time>2021-10-17T08:36:26Z</time>
      </trkpt>
      <trkpt lat="43.18344" lon="1.05324">
        <ele>297.60986328</ele>
        <time>2021-10-17T08:36:27Z</time>
      </trkpt>
      <trkpt lat="43.18346" lon="1.05327">
        <ele>297.89987183</ele>
        <time>2021-10-17T08:36:28Z</time>
      </trkpt>
      <trkpt lat="43.18348" lon="1.0533">
        <ele>298.06988525</ele>
        <time>2021-10-17T08:36:29Z</time>
      </trkpt>
      <trkpt lat="43.1835" lon="1.05335">
        <ele>298.17987061</ele>
        <time>2021-10-17T08:36:30Z</time>
      </trkpt>
      <trkpt lat="43.18351" lon="1.05338">
        <ele>298.31988525</ele>
        <time>2021-10-17T08:36:31Z</time>
      </trkpt>
      <trkpt lat="43.18353" lon="1.05342">
        <ele>298.37988281</ele>
        <time>2021-10-17T08:36:32Z</time>
      </trkpt>
      <trkpt lat="43.18354" lon="1.05346">
        <ele>298.3598938</ele>
        <time>2021-10-17T08:36:33Z</time>
      </trkpt>
      <trkpt lat="43.18355" lon="1.05352">
        <ele>298.4598999</ele>
        <time>2021-10-17T08:36:34Z</time>
      </trkpt>
      <trkpt lat="43.18356" lon="1.05356">
        <ele>298.40991211</ele>
        <time>2021-10-17T08:36:35Z</time>
      </trkpt>
      <trkpt lat="43.18357" lon="1.0536">
        <ele>298.35992432</ele>
        <time>2021-10-17T08:36:36Z</time>
      </trkpt>
      <trkpt lat="43.18357" lon="1.05364">
        <ele>298.41992188</ele>
        <time>2021-10-17T08:36:37Z</time>
      </trkpt>
      <trkpt lat="43.18358" lon="1.05368">
        <ele>298.32992554</ele>
        <time>2021-10-17T08:36:38Z</time>
      </trkpt>
      <trkpt lat="43.18359" lon="1.05374">
        <ele>298.29992676</ele>
        <time>2021-10-17T08:36:39Z</time>
      </trkpt>
      <trkpt lat="43.1836" lon="1.05378">
        <ele>298.27993774</ele>
        <time>2021-10-17T08:36:40Z</time>
      </trkpt>
      <trkpt lat="43.18361" lon="1.05383">
        <ele>298.27993774</ele>
        <time>2021-10-17T08:36:41Z</time>
      </trkpt>
      <trkpt lat="43.18362" lon="1.05386">
        <ele>298.26992798</ele>
        <time>2021-10-17T08:36:42Z</time>
      </trkpt>
      <trkpt lat="43.18364" lon="1.0539">
        <ele>298.2399292</ele>
        <time>2021-10-17T08:36:43Z</time>
      </trkpt>
      <trkpt lat="43.18365" lon="1.05396">
        <ele>298.29992676</ele>
        <time>2021-10-17T08:36:44Z</time>
      </trkpt>
      <trkpt lat="43.18366" lon="1.054">
        <ele>298.19992065</ele>
        <time>2021-10-17T08:36:45Z</time>
      </trkpt>
      <trkpt lat="43.18368" lon="1.05404">
        <ele>298.17993164</ele>
        <time>2021-10-17T08:36:46Z</time>
      </trkpt>
      <trkpt lat="43.1837" lon="1.05407">
        <ele>298.14993286</ele>
        <time>2021-10-17T08:36:47Z</time>
      </trkpt>
      <trkpt lat="43.18374" lon="1.05413">
        <ele>297.99993896</ele>
        <time>2021-10-17T08:36:48Z</time>
      </trkpt>
      <trkpt lat="43.18377" lon="1.05417">
        <ele>297.87994385</ele>
        <time>2021-10-17T08:36:49Z</time>
      </trkpt>
      <trkpt lat="43.18379" lon="1.0542">
        <ele>297.67993164</ele>
        <time>2021-10-17T08:36:50Z</time>
      </trkpt>
      <trkpt lat="43.18382" lon="1.05423">
        <ele>297.56994629</ele>
        <time>2021-10-17T08:36:51Z</time>
      </trkpt>
      <trkpt lat="43.18386" lon="1.05427">
        <ele>297.55993652</ele>
        <time>2021-10-17T08:36:52Z</time>
      </trkpt>
      <trkpt lat="43.1839" lon="1.05432">
        <ele>297.40994263</ele>
        <time>2021-10-17T08:36:53Z</time>
      </trkpt>
      <trkpt lat="43.18393" lon="1.05435">
        <ele>297.36993408</ele>
        <time>2021-10-17T08:36:54Z</time>
      </trkpt>
      <trkpt lat="43.18396" lon="1.05438">
        <ele>297.27993774</ele>
        <time>2021-10-17T08:36:55Z</time>
      </trkpt>
      <trkpt lat="43.18398" lon="1.05441">
        <ele>297.30993652</ele>
        <time>2021-10-17T08:36:56Z</time>
      </trkpt>
      <trkpt lat="43.18403" lon="1.05446">
        <ele>297.41992188</ele>
        <time>2021-10-17T08:36:57Z</time>
      </trkpt>
      <trkpt lat="43.18405" lon="1.0545">
        <ele>297.45993042</ele>
        <time>2021-10-17T08:36:58Z</time>
      </trkpt>
      <trkpt lat="43.18408" lon="1.05452">
        <ele>297.54992676</ele>
        <time>2021-10-17T08:36:59Z</time>
      </trkpt>
      <trkpt lat="43.1841" lon="1.05456">
        <ele>297.45993042</ele>
        <time>2021-10-17T08:37:00Z</time>
      </trkpt>
      <trkpt lat="43.18413" lon="1.05459">
        <ele>297.43994141</ele>
        <time>2021-10-17T08:37:01Z</time>
      </trkpt>
      <trkpt lat="43.18417" lon="1.05464">
        <ele>297.46994019</ele>
        <time>2021-10-17T08:37:02Z</time>
      </trkpt>
      <trkpt lat="43.1842" lon="1.05467">
        <ele>297.37994385</ele>
        <time>2021-10-17T08:37:03Z</time>
      </trkpt>
      <trkpt lat="43.18421" lon="1.05469">
        <ele>297.29995728</ele>
        <time>2021-10-17T08:37:04Z</time>
      </trkpt>
      <trkpt lat="43.18423" lon="1.05471">
        <ele>297.33996582</ele>
        <time>2021-10-17T08:37:05Z</time>
      </trkpt>
      <trkpt lat="43.18425" lon="1.05473">
        <ele>297.32995605</ele>
        <time>2021-10-17T08:37:06Z</time>
      </trkpt>
      <trkpt lat="43.18425" lon="1.05473">
        <ele>297.41995239</ele>
        <time>2021-10-17T08:37:07Z</time>
      </trkpt>
      <trkpt lat="43.18425" lon="1.05474">
        <ele>297.52993774</ele>
        <time>2021-10-17T08:37:08Z</time>
      </trkpt>
      <trkpt lat="43.18431" lon="1.05476">
        <ele>296.98001099</ele>
        <time>2021-10-17T08:37:34Z</time>
      </trkpt>
      <trkpt lat="43.18432" lon="1.05476">
        <ele>296.96002197</ele>
        <time>2021-10-17T08:37:35Z</time>
      </trkpt>
      <trkpt lat="43.18434" lon="1.05477">
        <ele>296.94003296</ele>
        <time>2021-10-17T08:37:36Z</time>
      </trkpt>
      <trkpt lat="43.18438" lon="1.05476">
        <ele>296.94003296</ele>
        <time>2021-10-17T08:37:37Z</time>
      </trkpt>
      <trkpt lat="43.1844" lon="1.05475">
        <ele>296.9800415</ele>
        <time>2021-10-17T08:37:38Z</time>
      </trkpt>
      <trkpt lat="43.18442" lon="1.05473">
        <ele>297.0300293</ele>
        <time>2021-10-17T08:37:39Z</time>
      </trkpt>
      <trkpt lat="43.18444" lon="1.05471">
        <ele>297.21002197</ele>
        <time>2021-10-17T08:37:40Z</time>
      </trkpt>
      <trkpt lat="43.18446" lon="1.0547">
        <ele>297.37002563</ele>
        <time>2021-10-17T08:37:41Z</time>
      </trkpt>
      <trkpt lat="43.18449" lon="1.05469">
        <ele>297.58001709</ele>
        <time>2021-10-17T08:37:42Z</time>
      </trkpt>
      <trkpt lat="43.18452" lon="1.05469">
        <ele>297.84002686</ele>
        <time>2021-10-17T08:37:43Z</time>
      </trkpt>
      <trkpt lat="43.18454" lon="1.05469">
        <ele>298.11001587</ele>
        <time>2021-10-17T08:37:44Z</time>
      </trkpt>
      <trkpt lat="43.18457" lon="1.05469">
        <ele>298.45001221</ele>
        <time>2021-10-17T08:37:45Z</time>
      </trkpt>
      <trkpt lat="43.1846" lon="1.05468">
        <ele>298.80999756</ele>
        <time>2021-10-17T08:37:46Z</time>
      </trkpt>
      <trkpt lat="43.18463" lon="1.05468">
        <ele>299.16998291</ele>
        <time>2021-10-17T08:37:47Z</time>
      </trkpt>
      <trkpt lat="43.18465" lon="1.05468">
        <ele>299.49996948</ele>
        <time>2021-10-17T08:37:48Z</time>
      </trkpt>
      <trkpt lat="43.18468" lon="1.05468">
        <ele>299.80996704</ele>
        <time>2021-10-17T08:37:49Z</time>
      </trkpt>
      <trkpt lat="43.1847" lon="1.05468">
        <ele>300.08996582</ele>
        <time>2021-10-17T08:37:50Z</time>
      </trkpt>
      <trkpt lat="43.18474" lon="1.05467">
        <ele>300.31997681</ele>
        <time>2021-10-17T08:37:51Z</time>
      </trkpt>
      <trkpt lat="43.18477" lon="1.05467">
        <ele>300.56997681</ele>
        <time>2021-10-17T08:37:52Z</time>
      </trkpt>
      <trkpt lat="43.1848" lon="1.05467">
        <ele>300.74996948</ele>
        <time>2021-10-17T08:37:53Z</time>
      </trkpt>
      <trkpt lat="43.18482" lon="1.05467">
        <ele>300.94998169</ele>
        <time>2021-10-17T08:37:54Z</time>
      </trkpt>
      <trkpt lat="43.18484" lon="1.05467">
        <ele>301.23999023</ele>
        <time>2021-10-17T08:37:55Z</time>
      </trkpt>
      <trkpt lat="43.18487" lon="1.05466">
        <ele>301.50997925</ele>
        <time>2021-10-17T08:37:56Z</time>
      </trkpt>
      <trkpt lat="43.18489" lon="1.05466">
        <ele>301.8999939</ele>
        <time>2021-10-17T08:37:57Z</time>
      </trkpt>
      <trkpt lat="43.18492" lon="1.05465">
        <ele>302.30999756</ele>
        <time>2021-10-17T08:37:58Z</time>
      </trkpt>
      <trkpt lat="43.18494" lon="1.05464">
        <ele>302.73999023</ele>
        <time>2021-10-17T08:37:59Z</time>
      </trkpt>
      <trkpt lat="43.18497" lon="1.05463">
        <ele>303.17999268</ele>
        <time>2021-10-17T08:38:00Z</time>
      </trkpt>
      <trkpt lat="43.18499" lon="1.05462">
        <ele>303.53997803</ele>
        <time>2021-10-17T08:38:01Z</time>
      </trkpt>
      <trkpt lat="43.18501" lon="1.05461">
        <ele>303.88998413</ele>
        <time>2021-10-17T08:38:02Z</time>
      </trkpt>
      <trkpt lat="43.18503" lon="1.0546">
        <ele>304.2199707</ele>
        <time>2021-10-17T08:38:03Z</time>
      </trkpt>
      <trkpt lat="43.18506" lon="1.05459">
        <ele>304.58996582</ele>
        <time>2021-10-17T08:38:04Z</time>
      </trkpt>
      <trkpt lat="43.18509" lon="1.05457">
        <ele>305.03997803</ele>
        <time>2021-10-17T08:38:05Z</time>
      </trkpt>
      <trkpt lat="43.18511" lon="1.05456">
        <ele>305.44998169</ele>
        <time>2021-10-17T08:38:06Z</time>
      </trkpt>
      <trkpt lat="43.18512" lon="1.05455">
        <ele>305.92999268</ele>
        <time>2021-10-17T08:38:07Z</time>
      </trkpt>
      <trkpt lat="43.18515" lon="1.05454">
        <ele>306.3999939</ele>
        <time>2021-10-17T08:38:08Z</time>
      </trkpt>
      <trkpt lat="43.18517" lon="1.05453">
        <ele>306.85998535</ele>
        <time>2021-10-17T08:38:09Z</time>
      </trkpt>
      <trkpt lat="43.1852" lon="1.05452">
        <ele>307.38998413</ele>
        <time>2021-10-17T08:38:10Z</time>
      </trkpt>
      <trkpt lat="43.18522" lon="1.05451">
        <ele>307.76998901</ele>
        <time>2021-10-17T08:38:11Z</time>
      </trkpt>
      <trkpt lat="43.18524" lon="1.05451">
        <ele>308.16000366</ele>
        <time>2021-10-17T08:38:12Z</time>
      </trkpt>
      <trkpt lat="43.18526" lon="1.0545">
        <ele>308.52999878</ele>
        <time>2021-10-17T08:38:13Z</time>
      </trkpt>
      <trkpt lat="43.18528" lon="1.05449">
        <ele>308.79998779</ele>
        <time>2021-10-17T08:38:14Z</time>
      </trkpt>
      <trkpt lat="43.1853" lon="1.05448">
        <ele>309.15997314</ele>
        <time>2021-10-17T08:38:15Z</time>
      </trkpt>
      <trkpt lat="43.18532" lon="1.05447">
        <ele>309.41998291</ele>
        <time>2021-10-17T08:38:16Z</time>
      </trkpt>
      <trkpt lat="43.18534" lon="1.05446">
        <ele>309.66998291</ele>
        <time>2021-10-17T08:38:17Z</time>
      </trkpt>
      <trkpt lat="43.18536" lon="1.05445">
        <ele>309.9699707</ele>
        <time>2021-10-17T08:38:18Z</time>
      </trkpt>
      <trkpt lat="43.18539" lon="1.05444">
        <ele>310.33996582</ele>
        <time>2021-10-17T08:38:19Z</time>
      </trkpt>
      <trkpt lat="43.18541" lon="1.05443">
        <ele>310.74996948</ele>
        <time>2021-10-17T08:38:20Z</time>
      </trkpt>
      <trkpt lat="43.18543" lon="1.05442">
        <ele>311.17996216</ele>
        <time>2021-10-17T08:38:21Z</time>
      </trkpt>
      <trkpt lat="43.18545" lon="1.0544">
        <ele>311.54995728</ele>
        <time>2021-10-17T08:38:22Z</time>
      </trkpt>
      <trkpt lat="43.18547" lon="1.05439">
        <ele>311.82995605</ele>
        <time>2021-10-17T08:38:23Z</time>
      </trkpt>
      <trkpt lat="43.18549" lon="1.05438">
        <ele>312.13995361</ele>
        <time>2021-10-17T08:38:24Z</time>
      </trkpt>
      <trkpt lat="43.18551" lon="1.05437">
        <ele>312.48995972</ele>
        <time>2021-10-17T08:38:25Z</time>
      </trkpt>
      <trkpt lat="43.18552" lon="1.05436">
        <ele>312.87997437</ele>
        <time>2021-10-17T08:38:26Z</time>
      </trkpt>
      <trkpt lat="43.18555" lon="1.05434">
        <ele>313.26998901</ele>
        <time>2021-10-17T08:38:27Z</time>
      </trkpt>
      <trkpt lat="43.18557" lon="1.05434">
        <ele>313.60998535</ele>
        <time>2021-10-17T08:38:28Z</time>
      </trkpt>
      <trkpt lat="43.18559" lon="1.05433">
        <ele>313.86999512</ele>
        <time>2021-10-17T08:38:29Z</time>
      </trkpt>
      <trkpt lat="43.18562" lon="1.05433">
        <ele>314.11999512</ele>
        <time>2021-10-17T08:38:30Z</time>
      </trkpt>
      <trkpt lat="43.18564" lon="1.05432">
        <ele>314.36999512</ele>
        <time>2021-10-17T08:38:31Z</time>
      </trkpt>
      <trkpt lat="43.18567" lon="1.05431">
        <ele>314.60998535</ele>
        <time>2021-10-17T08:38:32Z</time>
      </trkpt>
      <trkpt lat="43.18569" lon="1.05431">
        <ele>314.88998413</ele>
        <time>2021-10-17T08:38:33Z</time>
      </trkpt>
      <trkpt lat="43.18571" lon="1.05431">
        <ele>315.07998657</ele>
        <time>2021-10-17T08:38:34Z</time>
      </trkpt>
      <trkpt lat="43.18573" lon="1.05432">
        <ele>315.25</ele>
        <time>2021-10-17T08:38:35Z</time>
      </trkpt>
      <trkpt lat="43.18575" lon="1.05432">
        <ele>315.41000366</ele>
        <time>2021-10-17T08:38:36Z</time>
      </trkpt>
      <trkpt lat="43.18577" lon="1.05432">
        <ele>315.6000061</ele>
        <time>2021-10-17T08:38:37Z</time>
      </trkpt>
      <trkpt lat="43.18577" lon="1.05432">
        <ele>315.80999756</ele>
        <time>2021-10-17T08:38:38Z</time>
      </trkpt>
      <trkpt lat="43.18578" lon="1.05432">
        <ele>316.01000977</ele>
        <time>2021-10-17T08:38:39Z</time>
      </trkpt>
      <trkpt lat="43.18579" lon="1.05432">
        <ele>316.17001343</ele>
        <time>2021-10-17T08:38:40Z</time>
      </trkpt>
      <trkpt lat="43.18581" lon="1.05431">
        <ele>316.22000122</ele>
        <time>2021-10-17T08:38:41Z</time>
      </trkpt>
      <trkpt lat="43.18582" lon="1.05429">
        <ele>316.23001099</ele>
        <time>2021-10-17T08:38:42Z</time>
      </trkpt>
      <trkpt lat="43.18582" lon="1.05427">
        <ele>316.27999878</ele>
        <time>2021-10-17T08:38:43Z</time>
      </trkpt>
      <trkpt lat="43.18582" lon="1.05424">
        <ele>316.30999756</ele>
        <time>2021-10-17T08:38:44Z</time>
      </trkpt>
      <trkpt lat="43.18583" lon="1.05422">
        <ele>316.41000366</ele>
        <time>2021-10-17T08:38:45Z</time>
      </trkpt>
      <trkpt lat="43.18582" lon="1.05419">
        <ele>316.57000732</ele>
        <time>2021-10-17T08:38:46Z</time>
      </trkpt>
      <trkpt lat="43.18582" lon="1.05417">
        <ele>316.67001343</ele>
        <time>2021-10-17T08:38:47Z</time>
      </trkpt>
      <trkpt lat="43.18581" lon="1.05415">
        <ele>316.80001831</ele>
        <time>2021-10-17T08:38:48Z</time>
      </trkpt>
      <trkpt lat="43.1858" lon="1.05413">
        <ele>316.90002441</ele>
        <time>2021-10-17T08:38:49Z</time>
      </trkpt>
      <trkpt lat="43.18579" lon="1.05409">
        <ele>316.94003296</ele>
        <time>2021-10-17T08:38:50Z</time>
      </trkpt>
      <trkpt lat="43.18579" lon="1.05407">
        <ele>316.94003296</ele>
        <time>2021-10-17T08:38:51Z</time>
      </trkpt>
      <trkpt lat="43.18578" lon="1.05405">
        <ele>317.00003052</ele>
        <time>2021-10-17T08:38:52Z</time>
      </trkpt>
      <trkpt lat="43.18577" lon="1.05404">
        <ele>317.0300293</ele>
        <time>2021-10-17T08:38:53Z</time>
      </trkpt>
      <trkpt lat="43.18577" lon="1.05403">
        <ele>317.11001587</ele>
        <time>2021-10-17T08:38:54Z</time>
      </trkpt>
      <trkpt lat="43.18576" lon="1.05402">
        <ele>317.26000977</ele>
        <time>2021-10-17T08:38:55Z</time>
      </trkpt>
      <trkpt lat="43.18576" lon="1.05402">
        <ele>317.30001831</ele>
        <time>2021-10-17T08:38:56Z</time>
      </trkpt>
      <trkpt lat="43.18577" lon="1.05402">
        <ele>317.42001343</ele>
        <time>2021-10-17T08:38:57Z</time>
      </trkpt>
      <trkpt lat="43.18573" lon="1.05396">
        <ele>317.13000488</ele>
        <time>2021-10-17T08:40:04Z</time>
      </trkpt>
      <trkpt lat="43.18572" lon="1.05394">
        <ele>317.1499939</ele>
        <time>2021-10-17T08:40:05Z</time>
      </trkpt>
      <trkpt lat="43.18571" lon="1.0539">
        <ele>317.22998047</ele>
        <time>2021-10-17T08:40:06Z</time>
      </trkpt>
      <trkpt lat="43.18571" lon="1.05387">
        <ele>317.22998047</ele>
        <time>2021-10-17T08:40:07Z</time>
      </trkpt>
      <trkpt lat="43.1857" lon="1.05383">
        <ele>317.23999023</ele>
        <time>2021-10-17T08:40:08Z</time>
      </trkpt>
      <trkpt lat="43.1857" lon="1.05378">
        <ele>317.23999023</ele>
        <time>2021-10-17T08:40:09Z</time>
      </trkpt>
      <trkpt lat="43.18569" lon="1.05372">
        <ele>317.16998291</ele>
        <time>2021-10-17T08:40:10Z</time>
      </trkpt>
      <trkpt lat="43.18568" lon="1.05368">
        <ele>317.25997925</ele>
        <time>2021-10-17T08:40:11Z</time>
      </trkpt>
      <trkpt lat="43.18567" lon="1.05364">
        <ele>317.23999023</ele>
        <time>2021-10-17T08:40:12Z</time>
      </trkpt>
      <trkpt lat="43.18566" lon="1.0536">
        <ele>317.33999634</ele>
        <time>2021-10-17T08:40:13Z</time>
      </trkpt>
      <trkpt lat="43.18565" lon="1.05357">
        <ele>317.5</ele>
        <time>2021-10-17T08:40:14Z</time>
      </trkpt>
      <trkpt lat="43.18562" lon="1.05352">
        <ele>317.54998779</ele>
        <time>2021-10-17T08:40:15Z</time>
      </trkpt>
      <trkpt lat="43.1856" lon="1.05349">
        <ele>317.67999268</ele>
        <time>2021-10-17T08:40:16Z</time>
      </trkpt>
      <trkpt lat="43.18558" lon="1.05346">
        <ele>317.72000122</ele>
        <time>2021-10-17T08:40:17Z</time>
      </trkpt>
      <trkpt lat="43.18556" lon="1.05343">
        <ele>317.82000732</ele>
        <time>2021-10-17T08:40:18Z</time>
      </trkpt>
      <trkpt lat="43.18553" lon="1.05339">
        <ele>318.01000977</ele>
        <time>2021-10-17T08:40:19Z</time>
      </trkpt>
      <trkpt lat="43.1855" lon="1.05337">
        <ele>318.21002197</ele>
        <time>2021-10-17T08:40:20Z</time>
      </trkpt>
      <trkpt lat="43.18548" lon="1.05335">
        <ele>318.41003418</ele>
        <time>2021-10-17T08:40:21Z</time>
      </trkpt>
      <trkpt lat="43.18546" lon="1.05333">
        <ele>318.51004028</ele>
        <time>2021-10-17T08:40:22Z</time>
      </trkpt>
      <trkpt lat="43.18543" lon="1.05331">
        <ele>318.70004272</ele>
        <time>2021-10-17T08:40:23Z</time>
      </trkpt>
      <trkpt lat="43.1854" lon="1.05328">
        <ele>318.85003662</ele>
        <time>2021-10-17T08:40:24Z</time>
      </trkpt>
      <trkpt lat="43.18538" lon="1.05326">
        <ele>319.07003784</ele>
        <time>2021-10-17T08:40:25Z</time>
      </trkpt>
      <trkpt lat="43.18537" lon="1.05323">
        <ele>319.43002319</ele>
        <time>2021-10-17T08:40:26Z</time>
      </trkpt>
      <trkpt lat="43.18535" lon="1.05321">
        <ele>319.65002441</ele>
        <time>2021-10-17T08:40:27Z</time>
      </trkpt>
      <trkpt lat="43.18533" lon="1.05318">
        <ele>320.00003052</ele>
        <time>2021-10-17T08:40:28Z</time>
      </trkpt>
      <trkpt lat="43.1853" lon="1.05315">
        <ele>320.45004272</ele>
        <time>2021-10-17T08:40:29Z</time>
      </trkpt>
      <trkpt lat="43.18529" lon="1.05313">
        <ele>320.90005493</ele>
        <time>2021-10-17T08:40:30Z</time>
      </trkpt>
      <trkpt lat="43.18528" lon="1.05311">
        <ele>321.44006348</ele>
        <time>2021-10-17T08:40:31Z</time>
      </trkpt>
      <trkpt lat="43.18526" lon="1.0531">
        <ele>321.95007324</ele>
        <time>2021-10-17T08:40:32Z</time>
      </trkpt>
      <trkpt lat="43.18524" lon="1.05308">
        <ele>322.29006958</ele>
        <time>2021-10-17T08:40:33Z</time>
      </trkpt>
      <trkpt lat="43.18523" lon="1.05306">
        <ele>322.57006836</ele>
        <time>2021-10-17T08:40:34Z</time>
      </trkpt>
      <trkpt lat="43.18521" lon="1.05305">
        <ele>322.80007935</ele>
        <time>2021-10-17T08:40:35Z</time>
      </trkpt>
      <trkpt lat="43.18519" lon="1.05304">
        <ele>323.15008545</ele>
        <time>2021-10-17T08:40:36Z</time>
      </trkpt>
      <trkpt lat="43.18518" lon="1.05302">
        <ele>323.59008789</ele>
        <time>2021-10-17T08:40:37Z</time>
      </trkpt>
      <trkpt lat="43.18516" lon="1.053">
        <ele>323.95007324</ele>
        <time>2021-10-17T08:40:38Z</time>
      </trkpt>
      <trkpt lat="43.18514" lon="1.05299">
        <ele>324.38006592</ele>
        <time>2021-10-17T08:40:39Z</time>
      </trkpt>
      <trkpt lat="43.18512" lon="1.05297">
        <ele>324.70007324</ele>
        <time>2021-10-17T08:40:40Z</time>
      </trkpt>
      <trkpt lat="43.18511" lon="1.05295">
        <ele>325.14007568</ele>
        <time>2021-10-17T08:40:41Z</time>
      </trkpt>
      <trkpt lat="43.18509" lon="1.05292">
        <ele>325.57006836</ele>
        <time>2021-10-17T08:40:42Z</time>
      </trkpt>
      <trkpt lat="43.18508" lon="1.0529">
        <ele>326.10006714</ele>
        <time>2021-10-17T08:40:43Z</time>
      </trkpt>
      <trkpt lat="43.18506" lon="1.05289">
        <ele>326.54006958</ele>
        <time>2021-10-17T08:40:44Z</time>
      </trkpt>
      <trkpt lat="43.18505" lon="1.05288">
        <ele>326.82006836</ele>
        <time>2021-10-17T08:40:45Z</time>
      </trkpt>
      <trkpt lat="43.18503" lon="1.05286">
        <ele>327.23007202</ele>
        <time>2021-10-17T08:40:46Z</time>
      </trkpt>
      <trkpt lat="43.18501" lon="1.05285">
        <ele>327.60006714</ele>
        <time>2021-10-17T08:40:47Z</time>
      </trkpt>
      <trkpt lat="43.18498" lon="1.05282">
        <ele>328.0100708</ele>
        <time>2021-10-17T08:40:48Z</time>
      </trkpt>
      <trkpt lat="43.18496" lon="1.05281">
        <ele>328.39007568</ele>
        <time>2021-10-17T08:40:49Z</time>
      </trkpt>
      <trkpt lat="43.18495" lon="1.0528">
        <ele>328.72006226</ele>
        <time>2021-10-17T08:40:50Z</time>
      </trkpt>
      <trkpt lat="43.18494" lon="1.05278">
        <ele>329.00006104</ele>
        <time>2021-10-17T08:40:51Z</time>
      </trkpt>
      <trkpt lat="43.18492" lon="1.05277">
        <ele>329.23007202</ele>
        <time>2021-10-17T08:40:52Z</time>
      </trkpt>
      <trkpt lat="43.18491" lon="1.05275">
        <ele>329.49008179</ele>
        <time>2021-10-17T08:40:53Z</time>
      </trkpt>
      <trkpt lat="43.1849" lon="1.05273">
        <ele>329.69009399</ele>
        <time>2021-10-17T08:40:54Z</time>
      </trkpt>
      <trkpt lat="43.18489" lon="1.05272">
        <ele>329.85009766</ele>
        <time>2021-10-17T08:40:55Z</time>
      </trkpt>
      <trkpt lat="43.18486" lon="1.05268">
        <ele>330.03009033</ele>
        <time>2021-10-17T08:40:56Z</time>
      </trkpt>
      <trkpt lat="43.18485" lon="1.05267">
        <ele>330.24008179</ele>
        <time>2021-10-17T08:40:57Z</time>
      </trkpt>
      <trkpt lat="43.18484" lon="1.05266">
        <ele>330.47009277</ele>
        <time>2021-10-17T08:40:58Z</time>
      </trkpt>
      <trkpt lat="43.18483" lon="1.05264">
        <ele>330.66009521</ele>
        <time>2021-10-17T08:40:59Z</time>
      </trkpt>
      <trkpt lat="43.18481" lon="1.05263">
        <ele>330.91009521</ele>
        <time>2021-10-17T08:41:00Z</time>
      </trkpt>
      <trkpt lat="43.1848" lon="1.0526">
        <ele>331.09008789</ele>
        <time>2021-10-17T08:41:01Z</time>
      </trkpt>
      <trkpt lat="43.18478" lon="1.05259">
        <ele>331.30007935</ele>
        <time>2021-10-17T08:41:02Z</time>
      </trkpt>
      <trkpt lat="43.18477" lon="1.05257">
        <ele>331.59008789</ele>
        <time>2021-10-17T08:41:03Z</time>
      </trkpt>
      <trkpt lat="43.18475" lon="1.05257">
        <ele>331.84008789</ele>
        <time>2021-10-17T08:41:04Z</time>
      </trkpt>
      <trkpt lat="43.18473" lon="1.05255">
        <ele>332.03009033</ele>
        <time>2021-10-17T08:41:05Z</time>
      </trkpt>
      <trkpt lat="43.18471" lon="1.05254">
        <ele>332.27008057</ele>
        <time>2021-10-17T08:41:06Z</time>
      </trkpt>
      <trkpt lat="43.1847" lon="1.05254">
        <ele>332.50009155</ele>
        <time>2021-10-17T08:41:07Z</time>
      </trkpt>
      <trkpt lat="43.18468" lon="1.05253">
        <ele>332.6401062</ele>
        <time>2021-10-17T08:41:08Z</time>
      </trkpt>
      <trkpt lat="43.18465" lon="1.05253">
        <ele>332.7901001</ele>
        <time>2021-10-17T08:41:09Z</time>
      </trkpt>
      <trkpt lat="43.18463" lon="1.05252">
        <ele>332.82009888</ele>
        <time>2021-10-17T08:41:10Z</time>
      </trkpt>
      <trkpt lat="43.18461" lon="1.05251">
        <ele>332.77011108</ele>
        <time>2021-10-17T08:41:11Z</time>
      </trkpt>
      <trkpt lat="43.18459" lon="1.05251">
        <ele>332.77011108</ele>
        <time>2021-10-17T08:41:12Z</time>
      </trkpt>
      <trkpt lat="43.18457" lon="1.0525">
        <ele>332.80010986</ele>
        <time>2021-10-17T08:41:13Z</time>
      </trkpt>
      <trkpt lat="43.18454" lon="1.05249">
        <ele>332.87011719</ele>
        <time>2021-10-17T08:41:14Z</time>
      </trkpt>
      <trkpt lat="43.18452" lon="1.05249">
        <ele>333.00012207</ele>
        <time>2021-10-17T08:41:15Z</time>
      </trkpt>
      <trkpt lat="43.1845" lon="1.05249">
        <ele>333.19012451</ele>
        <time>2021-10-17T08:41:16Z</time>
      </trkpt>
      <trkpt lat="43.18448" lon="1.05248">
        <ele>333.32012939</ele>
        <time>2021-10-17T08:41:17Z</time>
      </trkpt>
      <trkpt lat="43.18446" lon="1.05248">
        <ele>333.47012329</ele>
        <time>2021-10-17T08:41:18Z</time>
      </trkpt>
      <trkpt lat="43.18444" lon="1.05248">
        <ele>333.59011841</ele>
        <time>2021-10-17T08:41:19Z</time>
      </trkpt>
      <trkpt lat="43.18442" lon="1.05248">
        <ele>333.65011597</ele>
        <time>2021-10-17T08:41:20Z</time>
      </trkpt>
      <trkpt lat="43.18441" lon="1.05248">
        <ele>333.84011841</ele>
        <time>2021-10-17T08:41:21Z</time>
      </trkpt>
      <trkpt lat="43.18439" lon="1.05247">
        <ele>334.00012207</ele>
        <time>2021-10-17T08:41:22Z</time>
      </trkpt>
      <trkpt lat="43.18436" lon="1.05247">
        <ele>334.1701355</ele>
        <time>2021-10-17T08:41:23Z</time>
      </trkpt>
      <trkpt lat="43.18435" lon="1.05247">
        <ele>334.29013062</ele>
        <time>2021-10-17T08:41:24Z</time>
      </trkpt>
      <trkpt lat="43.18433" lon="1.05246">
        <ele>334.43014526</ele>
        <time>2021-10-17T08:41:25Z</time>
      </trkpt>
      <trkpt lat="43.18432" lon="1.05246">
        <ele>334.59014893</ele>
        <time>2021-10-17T08:41:26Z</time>
      </trkpt>
      <trkpt lat="43.1843" lon="1.05245">
        <ele>334.81015015</ele>
        <time>2021-10-17T08:41:27Z</time>
      </trkpt>
      <trkpt lat="43.18429" lon="1.05245">
        <ele>335.09014893</ele>
        <time>2021-10-17T08:41:28Z</time>
      </trkpt>
      <trkpt lat="43.18428" lon="1.05245">
        <ele>335.2701416</ele>
        <time>2021-10-17T08:41:29Z</time>
      </trkpt>
      <trkpt lat="43.18427" lon="1.05244">
        <ele>335.44015503</ele>
        <time>2021-10-17T08:41:30Z</time>
      </trkpt>
      <trkpt lat="43.18427" lon="1.05244">
        <ele>335.56015015</ele>
        <time>2021-10-17T08:41:31Z</time>
      </trkpt>
      <trkpt lat="43.18427" lon="1.05245">
        <ele>335.65014648</ele>
        <time>2021-10-17T08:41:32Z</time>
      </trkpt>
      <trkpt lat="43.18427" lon="1.05245">
        <ele>335.75015259</ele>
        <time>2021-10-17T08:41:33Z</time>
      </trkpt>
      <trkpt lat="43.18425" lon="1.05243">
        <ele>335.82000732</ele>
        <time>2021-10-17T08:43:08Z</time>
      </trkpt>
      <trkpt lat="43.18424" lon="1.05242">
        <ele>335.77001953</ele>
        <time>2021-10-17T08:43:09Z</time>
      </trkpt>
      <trkpt lat="43.18423" lon="1.05239">
        <ele>335.74002075</ele>
        <time>2021-10-17T08:43:10Z</time>
      </trkpt>
      <trkpt lat="43.18421" lon="1.05238">
        <ele>335.65002441</ele>
        <time>2021-10-17T08:43:11Z</time>
      </trkpt>
      <trkpt lat="43.18419" lon="1.05236">
        <ele>335.50003052</ele>
        <time>2021-10-17T08:43:12Z</time>
      </trkpt>
      <trkpt lat="43.18415" lon="1.05234">
        <ele>335.24002075</ele>
        <time>2021-10-17T08:43:13Z</time>
      </trkpt>
      <trkpt lat="43.18412" lon="1.05231">
        <ele>334.7800293</ele>
        <time>2021-10-17T08:43:14Z</time>
      </trkpt>
      <trkpt lat="43.18406" lon="1.05225">
        <ele>334.1300354</ele>
        <time>2021-10-17T08:43:15Z</time>
      </trkpt>
      <trkpt lat="43.18402" lon="1.05221">
        <ele>333.50003052</ele>
        <time>2021-10-17T08:43:16Z</time>
      </trkpt>
      <trkpt lat="43.18399" lon="1.05217">
        <ele>332.99002075</ele>
        <time>2021-10-17T08:43:17Z</time>
      </trkpt>
      <trkpt lat="43.18397" lon="1.05214">
        <ele>332.54000854</ele>
        <time>2021-10-17T08:43:18Z</time>
      </trkpt>
      <trkpt lat="43.18393" lon="1.0521">
        <ele>332.33999634</ele>
        <time>2021-10-17T08:43:19Z</time>
      </trkpt>
      <trkpt lat="43.18389" lon="1.05204">
        <ele>332.07998657</ele>
        <time>2021-10-17T08:43:20Z</time>
      </trkpt>
      <trkpt lat="43.18387" lon="1.05199">
        <ele>331.67999268</ele>
        <time>2021-10-17T08:43:21Z</time>
      </trkpt>
      <trkpt lat="43.18383" lon="1.05195">
        <ele>331.26998901</ele>
        <time>2021-10-17T08:43:22Z</time>
      </trkpt>
      <trkpt lat="43.1838" lon="1.0519">
        <ele>330.66000366</ele>
        <time>2021-10-17T08:43:23Z</time>
      </trkpt>
      <trkpt lat="43.18375" lon="1.05184">
        <ele>329.97000122</ele>
        <time>2021-10-17T08:43:24Z</time>
      </trkpt>
      <trkpt lat="43.18371" lon="1.0518">
        <ele>329.23001099</ele>
        <time>2021-10-17T08:43:25Z</time>
      </trkpt>
      <trkpt lat="43.18368" lon="1.05177">
        <ele>328.69000244</ele>
        <time>2021-10-17T08:43:26Z</time>
      </trkpt>
      <trkpt lat="43.18364" lon="1.05175">
        <ele>328.22000122</ele>
        <time>2021-10-17T08:43:27Z</time>
      </trkpt>
      <trkpt lat="43.18362" lon="1.05173">
        <ele>327.92999268</ele>
        <time>2021-10-17T08:43:28Z</time>
      </trkpt>
      <trkpt lat="43.18359" lon="1.05169">
        <ele>327.61999512</ele>
        <time>2021-10-17T08:43:29Z</time>
      </trkpt>
      <trkpt lat="43.18358" lon="1.05165">
        <ele>326.97000122</ele>
        <time>2021-10-17T08:43:30Z</time>
      </trkpt>
      <trkpt lat="43.18356" lon="1.0516">
        <ele>326.23999023</ele>
        <time>2021-10-17T08:43:31Z</time>
      </trkpt>
      <trkpt lat="43.18354" lon="1.05155">
        <ele>325.32998657</ele>
        <time>2021-10-17T08:43:32Z</time>
      </trkpt>
      <trkpt lat="43.18352" lon="1.05149">
        <ele>324.47998047</ele>
        <time>2021-10-17T08:43:33Z</time>
      </trkpt>
      <trkpt lat="43.18351" lon="1.05143">
        <ele>323.78997803</ele>
        <time>2021-10-17T08:43:34Z</time>
      </trkpt>
      <trkpt lat="43.18352" lon="1.05137">
        <ele>323.16998291</ele>
        <time>2021-10-17T08:43:35Z</time>
      </trkpt>
      <trkpt lat="43.18353" lon="1.05131">
        <ele>322.41998291</ele>
        <time>2021-10-17T08:43:36Z</time>
      </trkpt>
      <trkpt lat="43.18353" lon="1.05125">
        <ele>321.76998901</ele>
        <time>2021-10-17T08:43:37Z</time>
      </trkpt>
      <trkpt lat="43.18353" lon="1.05115">
        <ele>321.11999512</ele>
        <time>2021-10-17T08:43:38Z</time>
      </trkpt>
      <trkpt lat="43.18352" lon="1.05108">
        <ele>320.3999939</ele>
        <time>2021-10-17T08:43:39Z</time>
      </trkpt>
      <trkpt lat="43.18351" lon="1.051">
        <ele>319.85998535</ele>
        <time>2021-10-17T08:43:40Z</time>
      </trkpt>
      <trkpt lat="43.1835" lon="1.05091">
        <ele>319.36999512</ele>
        <time>2021-10-17T08:43:41Z</time>
      </trkpt>
      <trkpt lat="43.18348" lon="1.05081">
        <ele>319.08999634</ele>
        <time>2021-10-17T08:43:42Z</time>
      </trkpt>
      <trkpt lat="43.18347" lon="1.05075">
        <ele>318.98001099</ele>
        <time>2021-10-17T08:43:43Z</time>
      </trkpt>
      <trkpt lat="43.18346" lon="1.0507">
        <ele>318.96002197</ele>
        <time>2021-10-17T08:43:44Z</time>
      </trkpt>
      <trkpt lat="43.18345" lon="1.05063">
        <ele>318.73001099</ele>
        <time>2021-10-17T08:43:45Z</time>
      </trkpt>
      <trkpt lat="43.18342" lon="1.05053">
        <ele>318.19000244</ele>
        <time>2021-10-17T08:43:46Z</time>
      </trkpt>
      <trkpt lat="43.1834" lon="1.05045">
        <ele>317.5</ele>
        <time>2021-10-17T08:43:47Z</time>
      </trkpt>
      <trkpt lat="43.18338" lon="1.05037">
        <ele>316.73999023</ele>
        <time>2021-10-17T08:43:48Z</time>
      </trkpt>
      <trkpt lat="43.18336" lon="1.05029">
        <ele>315.94998169</ele>
        <time>2021-10-17T08:43:49Z</time>
      </trkpt>
      <trkpt lat="43.18334" lon="1.05021">
        <ele>315.43997192</ele>
        <time>2021-10-17T08:43:50Z</time>
      </trkpt>
      <trkpt lat="43.1833" lon="1.05009">
        <ele>314.82998657</ele>
        <time>2021-10-17T08:43:51Z</time>
      </trkpt>
      <trkpt lat="43.18328" lon="1.05002">
        <ele>314.04998779</ele>
        <time>2021-10-17T08:43:52Z</time>
      </trkpt>
      <trkpt lat="43.18325" lon="1.04995">
        <ele>313.48999023</ele>
        <time>2021-10-17T08:43:53Z</time>
      </trkpt>
      <trkpt lat="43.18323" lon="1.04989">
        <ele>312.88000488</ele>
        <time>2021-10-17T08:43:54Z</time>
      </trkpt>
      <trkpt lat="43.18322" lon="1.04981">
        <ele>312.42999268</ele>
        <time>2021-10-17T08:43:55Z</time>
      </trkpt>
      <trkpt lat="43.18321" lon="1.04974">
        <ele>312.10998535</ele>
        <time>2021-10-17T08:43:56Z</time>
      </trkpt>
      <trkpt lat="43.18322" lon="1.04969">
        <ele>311.79998779</ele>
        <time>2021-10-17T08:43:57Z</time>
      </trkpt>
      <trkpt lat="43.18323" lon="1.04963">
        <ele>311.33999634</ele>
        <time>2021-10-17T08:43:58Z</time>
      </trkpt>
      <trkpt lat="43.18324" lon="1.04958">
        <ele>311.05999756</ele>
        <time>2021-10-17T08:43:59Z</time>
      </trkpt>
      <trkpt lat="43.18324" lon="1.04947">
        <ele>311.07998657</ele>
        <time>2021-10-17T08:44:00Z</time>
      </trkpt>
      <trkpt lat="43.18325" lon="1.0494">
        <ele>311.34997559</ele>
        <time>2021-10-17T08:44:01Z</time>
      </trkpt>
      <trkpt lat="43.18326" lon="1.04935">
        <ele>311.80996704</ele>
        <time>2021-10-17T08:44:02Z</time>
      </trkpt>
      <trkpt lat="43.18328" lon="1.04932">
        <ele>312.27996826</ele>
        <time>2021-10-17T08:44:03Z</time>
      </trkpt>
      <trkpt lat="43.18329" lon="1.04926">
        <ele>312.74996948</ele>
        <time>2021-10-17T08:44:04Z</time>
      </trkpt>
      <trkpt lat="43.18331" lon="1.04923">
        <ele>313.12997437</ele>
        <time>2021-10-17T08:44:05Z</time>
      </trkpt>
      <trkpt lat="43.18332" lon="1.04922">
        <ele>313.60998535</ele>
        <time>2021-10-17T08:44:06Z</time>
      </trkpt>
      <trkpt lat="43.18331" lon="1.04919">
        <ele>314.17999268</ele>
        <time>2021-10-17T08:44:07Z</time>
      </trkpt>
      <trkpt lat="43.18331" lon="1.04916">
        <ele>314.6499939</ele>
        <time>2021-10-17T08:44:08Z</time>
      </trkpt>
      <trkpt lat="43.18331" lon="1.04911">
        <ele>314.98999023</ele>
        <time>2021-10-17T08:44:09Z</time>
      </trkpt>
      <trkpt lat="43.18332" lon="1.04909">
        <ele>315.38000488</ele>
        <time>2021-10-17T08:44:10Z</time>
      </trkpt>
      <trkpt lat="43.18333" lon="1.04905">
        <ele>315.83001709</ele>
        <time>2021-10-17T08:44:11Z</time>
      </trkpt>
      <trkpt lat="43.18334" lon="1.04902">
        <ele>316.3500061</ele>
        <time>2021-10-17T08:44:12Z</time>
      </trkpt>
      <trkpt lat="43.18336" lon="1.04899">
        <ele>316.92999268</ele>
        <time>2021-10-17T08:44:13Z</time>
      </trkpt>
      <trkpt lat="43.18337" lon="1.04897">
        <ele>317.38000488</ele>
        <time>2021-10-17T08:44:14Z</time>
      </trkpt>
      <trkpt lat="43.18337" lon="1.04895">
        <ele>317.72000122</ele>
        <time>2021-10-17T08:44:15Z</time>
      </trkpt>
      <trkpt lat="43.18336" lon="1.04894">
        <ele>318.13000488</ele>
        <time>2021-10-17T08:44:16Z</time>
      </trkpt>
      <trkpt lat="43.18336" lon="1.04892">
        <ele>318.48999023</ele>
        <time>2021-10-17T08:44:17Z</time>
      </trkpt>
      <trkpt lat="43.18336" lon="1.04888">
        <ele>318.94998169</ele>
        <time>2021-10-17T08:44:18Z</time>
      </trkpt>
      <trkpt lat="43.18337" lon="1.04886">
        <ele>319.43997192</ele>
        <time>2021-10-17T08:44:19Z</time>
      </trkpt>
      <trkpt lat="43.18338" lon="1.04885">
        <ele>319.8699646</ele>
        <time>2021-10-17T08:44:20Z</time>
      </trkpt>
      <trkpt lat="43.18339" lon="1.04883">
        <ele>320.37997437</ele>
        <time>2021-10-17T08:44:21Z</time>
      </trkpt>
      <trkpt lat="43.18339" lon="1.04882">
        <ele>320.88998413</ele>
        <time>2021-10-17T08:44:22Z</time>
      </trkpt>
      <trkpt lat="43.1834" lon="1.04877">
        <ele>321.32998657</ele>
        <time>2021-10-17T08:44:23Z</time>
      </trkpt>
      <trkpt lat="43.18341" lon="1.04874">
        <ele>321.82998657</ele>
        <time>2021-10-17T08:44:24Z</time>
      </trkpt>
      <trkpt lat="43.18341" lon="1.04872">
        <ele>322.37997437</ele>
        <time>2021-10-17T08:44:25Z</time>
      </trkpt>
      <trkpt lat="43.18341" lon="1.04869">
        <ele>322.92996216</ele>
        <time>2021-10-17T08:44:26Z</time>
      </trkpt>
      <trkpt lat="43.18342" lon="1.04864">
        <ele>323.49996948</ele>
        <time>2021-10-17T08:44:27Z</time>
      </trkpt>
      <trkpt lat="43.18342" lon="1.0486">
        <ele>324.07995605</ele>
        <time>2021-10-17T08:44:28Z</time>
      </trkpt>
      <trkpt lat="43.18343" lon="1.04857">
        <ele>324.56994629</ele>
        <time>2021-10-17T08:44:29Z</time>
      </trkpt>
      <trkpt lat="43.18342" lon="1.04854">
        <ele>325.05993652</ele>
        <time>2021-10-17T08:44:30Z</time>
      </trkpt>
      <trkpt lat="43.18343" lon="1.0485">
        <ele>325.53994751</ele>
        <time>2021-10-17T08:44:31Z</time>
      </trkpt>
      <trkpt lat="43.18343" lon="1.04847">
        <ele>325.97994995</ele>
        <time>2021-10-17T08:44:32Z</time>
      </trkpt>
      <trkpt lat="43.18342" lon="1.04844">
        <ele>326.46994019</ele>
        <time>2021-10-17T08:44:33Z</time>
      </trkpt>
      <trkpt lat="43.18343" lon="1.04842">
        <ele>326.96994019</ele>
        <time>2021-10-17T08:44:34Z</time>
      </trkpt>
      <trkpt lat="43.18344" lon="1.04837">
        <ele>327.43994141</ele>
        <time>2021-10-17T08:44:35Z</time>
      </trkpt>
      <trkpt lat="43.18345" lon="1.04832">
        <ele>327.92993164</ele>
        <time>2021-10-17T08:44:36Z</time>
      </trkpt>
      <trkpt lat="43.18345" lon="1.0483">
        <ele>328.26992798</ele>
        <time>2021-10-17T08:44:37Z</time>
      </trkpt>
      <trkpt lat="43.18346" lon="1.04827">
        <ele>328.60992432</ele>
        <time>2021-10-17T08:44:38Z</time>
      </trkpt>
      <trkpt lat="43.18346" lon="1.04824">
        <ele>329.05993652</ele>
        <time>2021-10-17T08:44:39Z</time>
      </trkpt>
      <trkpt lat="43.18346" lon="1.04821">
        <ele>329.44995117</ele>
        <time>2021-10-17T08:44:40Z</time>
      </trkpt>
      <trkpt lat="43.18347" lon="1.04817">
        <ele>329.92996216</ele>
        <time>2021-10-17T08:44:41Z</time>
      </trkpt>
      <trkpt lat="43.18348" lon="1.04815">
        <ele>330.43997192</ele>
        <time>2021-10-17T08:44:42Z</time>
      </trkpt>
      <trkpt lat="43.18349" lon="1.04812">
        <ele>330.83996582</ele>
        <time>2021-10-17T08:44:43Z</time>
      </trkpt>
      <trkpt lat="43.1835" lon="1.04809">
        <ele>331.15997314</ele>
        <time>2021-10-17T08:44:44Z</time>
      </trkpt>
      <trkpt lat="43.18352" lon="1.04805">
        <ele>331.43997192</ele>
        <time>2021-10-17T08:44:45Z</time>
      </trkpt>
      <trkpt lat="43.18353" lon="1.04802">
        <ele>331.58996582</ele>
        <time>2021-10-17T08:44:46Z</time>
      </trkpt>
      <trkpt lat="43.18353" lon="1.048">
        <ele>331.70996094</ele>
        <time>2021-10-17T08:44:47Z</time>
      </trkpt>
      <trkpt lat="43.18354" lon="1.04797">
        <ele>331.8699646</ele>
        <time>2021-10-17T08:44:48Z</time>
      </trkpt>
      <trkpt lat="43.18354" lon="1.04794">
        <ele>331.95996094</ele>
        <time>2021-10-17T08:44:49Z</time>
      </trkpt>
      <trkpt lat="43.18354" lon="1.04789">
        <ele>332.08996582</ele>
        <time>2021-10-17T08:44:50Z</time>
      </trkpt>
      <trkpt lat="43.18355" lon="1.04785">
        <ele>332.18997192</ele>
        <time>2021-10-17T08:44:51Z</time>
      </trkpt>
      <trkpt lat="43.18355" lon="1.04782">
        <ele>332.27996826</ele>
        <time>2021-10-17T08:44:52Z</time>
      </trkpt>
      <trkpt lat="43.18356" lon="1.04778">
        <ele>332.44998169</ele>
        <time>2021-10-17T08:44:53Z</time>
      </trkpt>
      <trkpt lat="43.18357" lon="1.04773">
        <ele>332.59997559</ele>
        <time>2021-10-17T08:44:54Z</time>
      </trkpt>
      <trkpt lat="43.18357" lon="1.0477">
        <ele>332.83996582</ele>
        <time>2021-10-17T08:44:55Z</time>
      </trkpt>
      <trkpt lat="43.18357" lon="1.04767">
        <ele>332.97998047</ele>
        <time>2021-10-17T08:44:56Z</time>
      </trkpt>
      <trkpt lat="43.18357" lon="1.04764">
        <ele>333.08996582</ele>
        <time>2021-10-17T08:44:57Z</time>
      </trkpt>
      <trkpt lat="43.18358" lon="1.04762">
        <ele>333.2199707</ele>
        <time>2021-10-17T08:44:58Z</time>
      </trkpt>
      <trkpt lat="43.18359" lon="1.04757">
        <ele>333.37997437</ele>
        <time>2021-10-17T08:44:59Z</time>
      </trkpt>
      <trkpt lat="43.1836" lon="1.04754">
        <ele>333.56997681</ele>
        <time>2021-10-17T08:45:00Z</time>
      </trkpt>
      <trkpt lat="43.1836" lon="1.04751">
        <ele>333.72998047</ele>
        <time>2021-10-17T08:45:01Z</time>
      </trkpt>
      <trkpt lat="43.1836" lon="1.04747">
        <ele>333.87997437</ele>
        <time>2021-10-17T08:45:02Z</time>
      </trkpt>
      <trkpt lat="43.18361" lon="1.04743">
        <ele>333.97998047</ele>
        <time>2021-10-17T08:45:03Z</time>
      </trkpt>
      <trkpt lat="43.18361" lon="1.04739">
        <ele>334.03997803</ele>
        <time>2021-10-17T08:45:04Z</time>
      </trkpt>
      <trkpt lat="43.18362" lon="1.04736">
        <ele>334.20999146</ele>
        <time>2021-10-17T08:45:05Z</time>
      </trkpt>
      <trkpt lat="43.18362" lon="1.04733">
        <ele>334.32998657</ele>
        <time>2021-10-17T08:45:06Z</time>
      </trkpt>
      <trkpt lat="43.18362" lon="1.04729">
        <ele>334.38998413</ele>
        <time>2021-10-17T08:45:07Z</time>
      </trkpt>
      <trkpt lat="43.18363" lon="1.04724">
        <ele>334.56997681</ele>
        <time>2021-10-17T08:45:08Z</time>
      </trkpt>
      <trkpt lat="43.18363" lon="1.04721">
        <ele>334.69998169</ele>
        <time>2021-10-17T08:45:09Z</time>
      </trkpt>
      <trkpt lat="43.18363" lon="1.04717">
        <ele>334.75997925</ele>
        <time>2021-10-17T08:45:10Z</time>
      </trkpt>
      <trkpt lat="43.18363" lon="1.04713">
        <ele>334.84997559</ele>
        <time>2021-10-17T08:45:11Z</time>
      </trkpt>
      <trkpt lat="43.18364" lon="1.04708">
        <ele>334.84997559</ele>
        <time>2021-10-17T08:45:12Z</time>
      </trkpt>
      <trkpt lat="43.18364" lon="1.04704">
        <ele>334.81997681</ele>
        <time>2021-10-17T08:45:13Z</time>
      </trkpt>
      <trkpt lat="43.18364" lon="1.047">
        <ele>334.79998779</ele>
        <time>2021-10-17T08:45:14Z</time>
      </trkpt>
      <trkpt lat="43.18364" lon="1.04696">
        <ele>334.75</ele>
        <time>2021-10-17T08:45:15Z</time>
      </trkpt>
      <trkpt lat="43.18365" lon="1.04692">
        <ele>334.69000244</ele>
        <time>2021-10-17T08:45:16Z</time>
      </trkpt>
      <trkpt lat="43.18365" lon="1.04685">
        <ele>334.58999634</ele>
        <time>2021-10-17T08:45:17Z</time>
      </trkpt>
      <trkpt lat="43.18365" lon="1.04681">
        <ele>334.57998657</ele>
        <time>2021-10-17T08:45:18Z</time>
      </trkpt>
      <trkpt lat="43.18365" lon="1.04676">
        <ele>334.52999878</ele>
        <time>2021-10-17T08:45:19Z</time>
      </trkpt>
      <trkpt lat="43.18366" lon="1.04672">
        <ele>334.52999878</ele>
        <time>2021-10-17T08:45:20Z</time>
      </trkpt>
      <trkpt lat="43.18367" lon="1.04665">
        <ele>334.57000732</ele>
        <time>2021-10-17T08:45:21Z</time>
      </trkpt>
      <trkpt lat="43.18368" lon="1.04661">
        <ele>334.52999878</ele>
        <time>2021-10-17T08:45:22Z</time>
      </trkpt>
      <trkpt lat="43.18368" lon="1.04655">
        <ele>334.38998413</ele>
        <time>2021-10-17T08:45:23Z</time>
      </trkpt>
      <trkpt lat="43.18368" lon="1.0465">
        <ele>334.27999878</ele>
        <time>2021-10-17T08:45:24Z</time>
      </trkpt>
      <trkpt lat="43.18369" lon="1.04644">
        <ele>333.92999268</ele>
        <time>2021-10-17T08:45:25Z</time>
      </trkpt>
      <trkpt lat="43.1837" lon="1.04635">
        <ele>333.51998901</ele>
        <time>2021-10-17T08:45:26Z</time>
      </trkpt>
      <trkpt lat="43.1837" lon="1.04629">
        <ele>333.09997559</ele>
        <time>2021-10-17T08:45:27Z</time>
      </trkpt>
      <trkpt lat="43.18371" lon="1.04623">
        <ele>332.43997192</ele>
        <time>2021-10-17T08:45:28Z</time>
      </trkpt>
      <trkpt lat="43.18372" lon="1.04616">
        <ele>332.0199585</ele>
        <time>2021-10-17T08:45:29Z</time>
      </trkpt>
      <trkpt lat="43.18373" lon="1.04607">
        <ele>331.73995972</ele>
        <time>2021-10-17T08:45:30Z</time>
      </trkpt>
      <trkpt lat="43.18374" lon="1.04601">
        <ele>331.49996948</ele>
        <time>2021-10-17T08:45:31Z</time>
      </trkpt>
      <trkpt lat="43.18373" lon="1.04595">
        <ele>331.52996826</ele>
        <time>2021-10-17T08:45:32Z</time>
      </trkpt>
      <trkpt lat="43.18373" lon="1.0459">
        <ele>331.54995728</ele>
        <time>2021-10-17T08:45:33Z</time>
      </trkpt>
      <trkpt lat="43.18373" lon="1.04585">
        <ele>331.59994507</ele>
        <time>2021-10-17T08:45:34Z</time>
      </trkpt>
      <trkpt lat="43.18373" lon="1.04579">
        <ele>331.7699585</ele>
        <time>2021-10-17T08:45:35Z</time>
      </trkpt>
      <trkpt lat="43.18373" lon="1.04574">
        <ele>331.72994995</ele>
        <time>2021-10-17T08:45:36Z</time>
      </trkpt>
      <trkpt lat="43.18373" lon="1.04571">
        <ele>331.74993896</ele>
        <time>2021-10-17T08:45:37Z</time>
      </trkpt>
      <trkpt lat="43.18374" lon="1.04568">
        <ele>331.59994507</ele>
        <time>2021-10-17T08:45:38Z</time>
      </trkpt>
      <trkpt lat="43.18374" lon="1.04565">
        <ele>331.47994995</ele>
        <time>2021-10-17T08:45:39Z</time>
      </trkpt>
      <trkpt lat="43.18374" lon="1.04564">
        <ele>331.45996094</ele>
        <time>2021-10-17T08:45:40Z</time>
      </trkpt>
      <trkpt lat="43.18374" lon="1.04563">
        <ele>331.3699646</ele>
        <time>2021-10-17T08:45:41Z</time>
      </trkpt>
      <trkpt lat="43.18373" lon="1.04561">
        <ele>331.23995972</ele>
        <time>2021-10-17T08:45:42Z</time>
      </trkpt>
      <trkpt lat="43.18373" lon="1.04558">
        <ele>330.9699707</ele>
        <time>2021-10-17T08:45:43Z</time>
      </trkpt>
      <trkpt lat="43.18373" lon="1.04555">
        <ele>330.80996704</ele>
        <time>2021-10-17T08:45:44Z</time>
      </trkpt>
      <trkpt lat="43.18372" lon="1.04553">
        <ele>330.38995361</ele>
        <time>2021-10-17T08:45:45Z</time>
      </trkpt>
      <trkpt lat="43.18371" lon="1.04549">
        <ele>330.07995605</ele>
        <time>2021-10-17T08:45:46Z</time>
      </trkpt>
      <trkpt lat="43.1837" lon="1.04546">
        <ele>329.77996826</ele>
        <time>2021-10-17T08:45:47Z</time>
      </trkpt>
      <trkpt lat="43.18368" lon="1.04541">
        <ele>329.33996582</ele>
        <time>2021-10-17T08:45:48Z</time>
      </trkpt>
      <trkpt lat="43.18366" lon="1.04537">
        <ele>329.0199585</ele>
        <time>2021-10-17T08:45:49Z</time>
      </trkpt>
      <trkpt lat="43.18364" lon="1.04534">
        <ele>328.65997314</ele>
        <time>2021-10-17T08:45:50Z</time>
      </trkpt>
      <trkpt lat="43.18363" lon="1.04531">
        <ele>328.42996216</ele>
        <time>2021-10-17T08:45:51Z</time>
      </trkpt>
      <trkpt lat="43.18361" lon="1.04528">
        <ele>328.14996338</ele>
        <time>2021-10-17T08:45:52Z</time>
      </trkpt>
      <trkpt lat="43.18359" lon="1.04523">
        <ele>328.0199585</ele>
        <time>2021-10-17T08:45:53Z</time>
      </trkpt>
      <trkpt lat="43.18358" lon="1.0452">
        <ele>327.8699646</ele>
        <time>2021-10-17T08:45:54Z</time>
      </trkpt>
      <trkpt lat="43.18357" lon="1.04517">
        <ele>327.54995728</ele>
        <time>2021-10-17T08:45:55Z</time>
      </trkpt>
      <trkpt lat="43.18357" lon="1.04514">
        <ele>327.24996948</ele>
        <time>2021-10-17T08:45:56Z</time>
      </trkpt>
      <trkpt lat="43.18357" lon="1.04511">
        <ele>326.89996338</ele>
        <time>2021-10-17T08:45:57Z</time>
      </trkpt>
      <trkpt lat="43.18356" lon="1.04507">
        <ele>326.64996338</ele>
        <time>2021-10-17T08:45:58Z</time>
      </trkpt>
      <trkpt lat="43.18355" lon="1.04505">
        <ele>326.32995605</ele>
        <time>2021-10-17T08:45:59Z</time>
      </trkpt>
      <trkpt lat="43.18354" lon="1.04502">
        <ele>326.10995483</ele>
        <time>2021-10-17T08:46:00Z</time>
      </trkpt>
      <trkpt lat="43.18354" lon="1.04498">
        <ele>325.82995605</ele>
        <time>2021-10-17T08:46:01Z</time>
      </trkpt>
      <trkpt lat="43.18352" lon="1.04492">
        <ele>325.35995483</ele>
        <time>2021-10-17T08:46:02Z</time>
      </trkpt>
      <trkpt lat="43.18351" lon="1.04489">
        <ele>324.98995972</ele>
        <time>2021-10-17T08:46:03Z</time>
      </trkpt>
      <trkpt lat="43.18349" lon="1.04484">
        <ele>324.59994507</ele>
        <time>2021-10-17T08:46:04Z</time>
      </trkpt>
      <trkpt lat="43.18348" lon="1.04479">
        <ele>324.20993042</ele>
        <time>2021-10-17T08:46:05Z</time>
      </trkpt>
      <trkpt lat="43.18345" lon="1.04469">
        <ele>323.91992188</ele>
        <time>2021-10-17T08:46:06Z</time>
      </trkpt>
      <trkpt lat="43.18344" lon="1.04463">
        <ele>323.7399292</ele>
        <time>2021-10-17T08:46:07Z</time>
      </trkpt>
      <trkpt lat="43.18343" lon="1.04457">
        <ele>323.50991821</ele>
        <time>2021-10-17T08:46:08Z</time>
      </trkpt>
      <trkpt lat="43.18341" lon="1.04451">
        <ele>323.32992554</ele>
        <time>2021-10-17T08:46:09Z</time>
      </trkpt>
      <trkpt lat="43.18343" lon="1.04444">
        <ele>323.16992188</ele>
        <time>2021-10-17T08:46:10Z</time>
      </trkpt>
      <trkpt lat="43.18343" lon="1.0444">
        <ele>323.0899353</ele>
        <time>2021-10-17T08:46:11Z</time>
      </trkpt>
      <trkpt lat="43.18342" lon="1.04434">
        <ele>323.06994629</ele>
        <time>2021-10-17T08:46:12Z</time>
      </trkpt>
      <trkpt lat="43.18342" lon="1.0443">
        <ele>323.14993286</ele>
        <time>2021-10-17T08:46:13Z</time>
      </trkpt>
      <trkpt lat="43.18342" lon="1.04426">
        <ele>323.46994019</ele>
        <time>2021-10-17T08:46:14Z</time>
      </trkpt>
      <trkpt lat="43.18342" lon="1.0442">
        <ele>323.72994995</ele>
        <time>2021-10-17T08:46:15Z</time>
      </trkpt>
      <trkpt lat="43.18341" lon="1.04416">
        <ele>324.10995483</ele>
        <time>2021-10-17T08:46:16Z</time>
      </trkpt>
      <trkpt lat="43.18341" lon="1.04411">
        <ele>324.56994629</ele>
        <time>2021-10-17T08:46:17Z</time>
      </trkpt>
      <trkpt lat="43.1834" lon="1.04407">
        <ele>324.85995483</ele>
        <time>2021-10-17T08:46:18Z</time>
      </trkpt>
      <trkpt lat="43.1834" lon="1.04402">
        <ele>325.20996094</ele>
        <time>2021-10-17T08:46:19Z</time>
      </trkpt>
      <trkpt lat="43.18339" lon="1.04393">
        <ele>325.45996094</ele>
        <time>2021-10-17T08:46:20Z</time>
      </trkpt>
      <trkpt lat="43.18337" lon="1.04388">
        <ele>325.45996094</ele>
        <time>2021-10-17T08:46:21Z</time>
      </trkpt>
      <trkpt lat="43.18337" lon="1.04383">
        <ele>325.23995972</ele>
        <time>2021-10-17T08:46:22Z</time>
      </trkpt>
      <trkpt lat="43.18337" lon="1.04377">
        <ele>324.73995972</ele>
        <time>2021-10-17T08:46:23Z</time>
      </trkpt>
      <trkpt lat="43.18339" lon="1.0437">
        <ele>324.12997437</ele>
        <time>2021-10-17T08:46:24Z</time>
      </trkpt>
      <trkpt lat="43.18339" lon="1.04364">
        <ele>323.50997925</ele>
        <time>2021-10-17T08:46:25Z</time>
      </trkpt>
      <trkpt lat="43.1834" lon="1.04358">
        <ele>323.19998169</ele>
        <time>2021-10-17T08:46:26Z</time>
      </trkpt>
      <trkpt lat="43.18339" lon="1.04353">
        <ele>323.07998657</ele>
        <time>2021-10-17T08:46:27Z</time>
      </trkpt>
      <trkpt lat="43.18341" lon="1.04346">
        <ele>323.07998657</ele>
        <time>2021-10-17T08:46:28Z</time>
      </trkpt>
      <trkpt lat="43.18342" lon="1.04341">
        <ele>323.29998779</ele>
        <time>2021-10-17T08:46:29Z</time>
      </trkpt>
      <trkpt lat="43.18341" lon="1.04336">
        <ele>323.3999939</ele>
        <time>2021-10-17T08:46:30Z</time>
      </trkpt>
      <trkpt lat="43.18341" lon="1.04332">
        <ele>323.63998413</ele>
        <time>2021-10-17T08:46:31Z</time>
      </trkpt>
      <trkpt lat="43.18341" lon="1.0433">
        <ele>323.84997559</ele>
        <time>2021-10-17T08:46:32Z</time>
      </trkpt>
      <trkpt lat="43.18342" lon="1.04325">
        <ele>324.23999023</ele>
        <time>2021-10-17T08:46:33Z</time>
      </trkpt>
      <trkpt lat="43.18343" lon="1.04321">
        <ele>324.75997925</ele>
        <time>2021-10-17T08:46:34Z</time>
      </trkpt>
      <trkpt lat="43.18344" lon="1.04318">
        <ele>325.19998169</ele>
        <time>2021-10-17T08:46:35Z</time>
      </trkpt>
      <trkpt lat="43.18345" lon="1.04312">
        <ele>325.66998291</ele>
        <time>2021-10-17T08:46:36Z</time>
      </trkpt>
      <trkpt lat="43.18344" lon="1.04307">
        <ele>325.94998169</ele>
        <time>2021-10-17T08:46:37Z</time>
      </trkpt>
      <trkpt lat="43.18344" lon="1.04301">
        <ele>326.23999023</ele>
        <time>2021-10-17T08:46:38Z</time>
      </trkpt>
      <trkpt lat="43.18344" lon="1.04298">
        <ele>326.54998779</ele>
        <time>2021-10-17T08:46:39Z</time>
      </trkpt>
      <trkpt lat="43.18343" lon="1.04295">
        <ele>326.85998535</ele>
        <time>2021-10-17T08:46:40Z</time>
      </trkpt>
      <trkpt lat="43.18343" lon="1.04291">
        <ele>326.97998047</ele>
        <time>2021-10-17T08:46:41Z</time>
      </trkpt>
      <trkpt lat="43.18343" lon="1.0429">
        <ele>326.97000122</ele>
        <time>2021-10-17T08:46:41Z</time>
      </trkpt>
      <trkpt lat="43.18342" lon="1.04286">
        <ele>326.95001221</ele>
        <time>2021-10-17T08:46:42Z</time>
      </trkpt>
      <trkpt lat="43.18339" lon="1.04278">
        <ele>326.74002075</ele>
        <time>2021-10-17T08:46:43Z</time>
      </trkpt>
      <trkpt lat="43.18338" lon="1.04273">
        <ele>326.41003418</ele>
        <time>2021-10-17T08:46:44Z</time>
      </trkpt>
      <trkpt lat="43.18338" lon="1.04269">
        <ele>326.19003296</ele>
        <time>2021-10-17T08:46:45Z</time>
      </trkpt>
      <trkpt lat="43.18338" lon="1.04265">
        <ele>326.04003906</ele>
        <time>2021-10-17T08:46:46Z</time>
      </trkpt>
      <trkpt lat="43.18337" lon="1.04261">
        <ele>326.0300293</ele>
        <time>2021-10-17T08:46:47Z</time>
      </trkpt>
      <trkpt lat="43.18336" lon="1.04259">
        <ele>326.09002686</ele>
        <time>2021-10-17T08:46:48Z</time>
      </trkpt>
      <trkpt lat="43.18335" lon="1.04254">
        <ele>326.15002441</ele>
        <time>2021-10-17T08:46:49Z</time>
      </trkpt>
      <trkpt lat="43.18334" lon="1.0425">
        <ele>326.19003296</ele>
        <time>2021-10-17T08:46:50Z</time>
      </trkpt>
      <trkpt lat="43.18335" lon="1.04246">
        <ele>326.17004395</ele>
        <time>2021-10-17T08:46:51Z</time>
      </trkpt>
      <trkpt lat="43.18335" lon="1.04241">
        <ele>326.12005615</ele>
        <time>2021-10-17T08:46:52Z</time>
      </trkpt>
      <trkpt lat="43.18335" lon="1.04236">
        <ele>325.90005493</ele>
        <time>2021-10-17T08:46:53Z</time>
      </trkpt>
      <trkpt lat="43.18336" lon="1.04232">
        <ele>325.62005615</ele>
        <time>2021-10-17T08:46:54Z</time>
      </trkpt>
      <trkpt lat="43.18336" lon="1.04228">
        <ele>325.35006714</ele>
        <time>2021-10-17T08:46:55Z</time>
      </trkpt>
      <trkpt lat="43.18332" lon="1.04216">
        <ele>325.33007812</ele>
        <time>2021-10-17T08:46:56Z</time>
      </trkpt>
      <trkpt lat="43.18331" lon="1.04211">
        <ele>325.2600708</ele>
        <time>2021-10-17T08:46:57Z</time>
      </trkpt>
      <trkpt lat="43.18331" lon="1.04206">
        <ele>325.43008423</ele>
        <time>2021-10-17T08:46:58Z</time>
      </trkpt>
      <trkpt lat="43.1833" lon="1.042">
        <ele>325.60009766</ele>
        <time>2021-10-17T08:46:59Z</time>
      </trkpt>
      <trkpt lat="43.1833" lon="1.04193">
        <ele>325.43008423</ele>
        <time>2021-10-17T08:47:00Z</time>
      </trkpt>
      <trkpt lat="43.18329" lon="1.04188">
        <ele>325.46008301</ele>
        <time>2021-10-17T08:47:01Z</time>
      </trkpt>
      <trkpt lat="43.18328" lon="1.04183">
        <ele>325.28009033</ele>
        <time>2021-10-17T08:47:02Z</time>
      </trkpt>
      <trkpt lat="43.18326" lon="1.04177">
        <ele>325.12008667</ele>
        <time>2021-10-17T08:47:03Z</time>
      </trkpt>
      <trkpt lat="43.18325" lon="1.04171">
        <ele>325.15008545</ele>
        <time>2021-10-17T08:47:04Z</time>
      </trkpt>
      <trkpt lat="43.18323" lon="1.04163">
        <ele>325.23007202</ele>
        <time>2021-10-17T08:47:05Z</time>
      </trkpt>
      <trkpt lat="43.18322" lon="1.04158">
        <ele>325.31005859</ele>
        <time>2021-10-17T08:47:06Z</time>
      </trkpt>
      <trkpt lat="43.1832" lon="1.04154">
        <ele>325.53005981</ele>
        <time>2021-10-17T08:47:07Z</time>
      </trkpt>
      <trkpt lat="43.18319" lon="1.04151">
        <ele>325.74005127</ele>
        <time>2021-10-17T08:47:08Z</time>
      </trkpt>
      <trkpt lat="43.18316" lon="1.04145">
        <ele>325.96005249</ele>
        <time>2021-10-17T08:47:09Z</time>
      </trkpt>
      <trkpt lat="43.18314" lon="1.04142">
        <ele>326.17004395</ele>
        <time>2021-10-17T08:47:10Z</time>
      </trkpt>
      <trkpt lat="43.18312" lon="1.04138">
        <ele>326.39004517</ele>
        <time>2021-10-17T08:47:11Z</time>
      </trkpt>
      <trkpt lat="43.18311" lon="1.04134">
        <ele>326.58004761</ele>
        <time>2021-10-17T08:47:12Z</time>
      </trkpt>
      <trkpt lat="43.18308" lon="1.0413">
        <ele>326.79003906</ele>
        <time>2021-10-17T08:47:13Z</time>
      </trkpt>
      <trkpt lat="43.18307" lon="1.04127">
        <ele>327.0300293</ele>
        <time>2021-10-17T08:47:14Z</time>
      </trkpt>
      <trkpt lat="43.18306" lon="1.04124">
        <ele>327.29003906</ele>
        <time>2021-10-17T08:47:15Z</time>
      </trkpt>
      <trkpt lat="43.18303" lon="1.04121">
        <ele>327.44003296</ele>
        <time>2021-10-17T08:47:16Z</time>
      </trkpt>
      <trkpt lat="43.18301" lon="1.04117">
        <ele>327.52001953</ele>
        <time>2021-10-17T08:47:17Z</time>
      </trkpt>
      <trkpt lat="43.18298" lon="1.04113">
        <ele>327.65002441</ele>
        <time>2021-10-17T08:47:18Z</time>
      </trkpt>
      <trkpt lat="43.18297" lon="1.04111">
        <ele>327.67001343</ele>
        <time>2021-10-17T08:47:19Z</time>
      </trkpt>
      <trkpt lat="43.18295" lon="1.04107">
        <ele>327.79000854</ele>
        <time>2021-10-17T08:47:20Z</time>
      </trkpt>
      <trkpt lat="43.18293" lon="1.04104">
        <ele>329.21002197</ele>
        <time>2021-10-17T08:47:21Z</time>
      </trkpt>
      <trkpt lat="43.18292" lon="1.04101">
        <ele>329.51000977</ele>
        <time>2021-10-17T08:47:22Z</time>
      </trkpt>
      <trkpt lat="43.1829" lon="1.04097">
        <ele>330.02001953</ele>
        <time>2021-10-17T08:47:23Z</time>
      </trkpt>
      <trkpt lat="43.18288" lon="1.04095">
        <ele>330.5300293</ele>
        <time>2021-10-17T08:47:24Z</time>
      </trkpt>
      <trkpt lat="43.18286" lon="1.04092">
        <ele>330.94003296</ele>
        <time>2021-10-17T08:47:25Z</time>
      </trkpt>
      <trkpt lat="43.18284" lon="1.04089">
        <ele>331.14004517</ele>
        <time>2021-10-17T08:47:26Z</time>
      </trkpt>
      <trkpt lat="43.18281" lon="1.04086">
        <ele>331.04003906</ele>
        <time>2021-10-17T08:47:27Z</time>
      </trkpt>
      <trkpt lat="43.1828" lon="1.04084">
        <ele>330.97003174</ele>
        <time>2021-10-17T08:47:28Z</time>
      </trkpt>
      <trkpt lat="43.18281" lon="1.04083">
        <ele>330.87002563</ele>
        <time>2021-10-17T08:47:29Z</time>
      </trkpt>
      <trkpt lat="43.1828" lon="1.04083">
        <ele>330.8800354</ele>
        <time>2021-10-17T08:47:30Z</time>
      </trkpt>
      <trkpt lat="43.18273" lon="1.04082">
        <ele>330.83999634</ele>
        <time>2021-10-17T08:47:36Z</time>
      </trkpt>
      <trkpt lat="43.18272" lon="1.04081">
        <ele>330.67999268</ele>
        <time>2021-10-17T08:47:37Z</time>
      </trkpt>
      <trkpt lat="43.1827" lon="1.0408">
        <ele>330.52999878</ele>
        <time>2021-10-17T08:47:38Z</time>
      </trkpt>
      <trkpt lat="43.18269" lon="1.04078">
        <ele>330.29998779</ele>
        <time>2021-10-17T08:47:39Z</time>
      </trkpt>
      <trkpt lat="43.18269" lon="1.04076">
        <ele>330.23999023</ele>
        <time>2021-10-17T08:47:40Z</time>
      </trkpt>
      <trkpt lat="43.18268" lon="1.04072">
        <ele>330.26998901</ele>
        <time>2021-10-17T08:47:41Z</time>
      </trkpt>
      <trkpt lat="43.18267" lon="1.04069">
        <ele>330.41000366</ele>
        <time>2021-10-17T08:47:42Z</time>
      </trkpt>
      <trkpt lat="43.18266" lon="1.04068">
        <ele>330.76998901</ele>
        <time>2021-10-17T08:47:43Z</time>
      </trkpt>
      <trkpt lat="43.18264" lon="1.04067">
        <ele>331.25</ele>
        <time>2021-10-17T08:47:44Z</time>
      </trkpt>
      <trkpt lat="43.18262" lon="1.04066">
        <ele>331.83999634</ele>
        <time>2021-10-17T08:47:45Z</time>
      </trkpt>
      <trkpt lat="43.18261" lon="1.04065">
        <ele>332.42999268</ele>
        <time>2021-10-17T08:47:46Z</time>
      </trkpt>
      <trkpt lat="43.18259" lon="1.04064">
        <ele>333.00997925</ele>
        <time>2021-10-17T08:47:47Z</time>
      </trkpt>
      <trkpt lat="43.18258" lon="1.04063">
        <ele>333.43997192</ele>
        <time>2021-10-17T08:47:48Z</time>
      </trkpt>
      <trkpt lat="43.18256" lon="1.04062">
        <ele>333.7699585</ele>
        <time>2021-10-17T08:47:49Z</time>
      </trkpt>
      <trkpt lat="43.18251" lon="1.04059">
        <ele>334.06994629</ele>
        <time>2021-10-17T08:47:50Z</time>
      </trkpt>
      <trkpt lat="43.18248" lon="1.04057">
        <ele>334.32995605</ele>
        <time>2021-10-17T08:47:51Z</time>
      </trkpt>
      <trkpt lat="43.18247" lon="1.04056">
        <ele>334.56994629</ele>
        <time>2021-10-17T08:47:52Z</time>
      </trkpt>
      <trkpt lat="43.18246" lon="1.04056">
        <ele>334.79995728</ele>
        <time>2021-10-17T08:47:53Z</time>
      </trkpt>
      <trkpt lat="43.18244" lon="1.04053">
        <ele>335.08996582</ele>
        <time>2021-10-17T08:47:54Z</time>
      </trkpt>
      <trkpt lat="43.18242" lon="1.04053">
        <ele>335.34997559</ele>
        <time>2021-10-17T08:47:55Z</time>
      </trkpt>
      <trkpt lat="43.1824" lon="1.04051">
        <ele>335.6199646</ele>
        <time>2021-10-17T08:47:56Z</time>
      </trkpt>
      <trkpt lat="43.18237" lon="1.0405">
        <ele>335.92996216</ele>
        <time>2021-10-17T08:47:57Z</time>
      </trkpt>
      <trkpt lat="43.18233" lon="1.04047">
        <ele>336.2699585</ele>
        <time>2021-10-17T08:47:58Z</time>
      </trkpt>
      <trkpt lat="43.18231" lon="1.04046">
        <ele>336.64996338</ele>
        <time>2021-10-17T08:47:59Z</time>
      </trkpt>
      <trkpt lat="43.18229" lon="1.04043">
        <ele>337.03997803</ele>
        <time>2021-10-17T08:48:00Z</time>
      </trkpt>
      <trkpt lat="43.18227" lon="1.04041">
        <ele>337.44998169</ele>
        <time>2021-10-17T08:48:01Z</time>
      </trkpt>
      <trkpt lat="43.18226" lon="1.04038">
        <ele>337.83999634</ele>
        <time>2021-10-17T08:48:02Z</time>
      </trkpt>
      <trkpt lat="43.18224" lon="1.04035">
        <ele>338.1499939</ele>
        <time>2021-10-17T08:48:03Z</time>
      </trkpt>
      <trkpt lat="43.18223" lon="1.04032">
        <ele>338.44000244</ele>
        <time>2021-10-17T08:48:04Z</time>
      </trkpt>
      <trkpt lat="43.1822" lon="1.0403">
        <ele>338.67001343</ele>
        <time>2021-10-17T08:48:05Z</time>
      </trkpt>
      <trkpt lat="43.18217" lon="1.04026">
        <ele>338.72000122</ele>
        <time>2021-10-17T08:48:06Z</time>
      </trkpt>
      <trkpt lat="43.18216" lon="1.0402">
        <ele>338.72000122</ele>
        <time>2021-10-17T08:48:07Z</time>
      </trkpt>
      <trkpt lat="43.18213" lon="1.04012">
        <ele>338.61001587</ele>
        <time>2021-10-17T08:48:08Z</time>
      </trkpt>
      <trkpt lat="43.18211" lon="1.04007">
        <ele>338.49002075</ele>
        <time>2021-10-17T08:48:09Z</time>
      </trkpt>
      <trkpt lat="43.1821" lon="1.04002">
        <ele>338.36001587</ele>
        <time>2021-10-17T08:48:10Z</time>
      </trkpt>
      <trkpt lat="43.18209" lon="1.03997">
        <ele>338.22000122</ele>
        <time>2021-10-17T08:48:11Z</time>
      </trkpt>
      <trkpt lat="43.18206" lon="1.03989">
        <ele>338.14001465</ele>
        <time>2021-10-17T08:48:12Z</time>
      </trkpt>
      <trkpt lat="43.18204" lon="1.03983">
        <ele>338.01000977</ele>
        <time>2021-10-17T08:48:13Z</time>
      </trkpt>
      <trkpt lat="43.18202" lon="1.03978">
        <ele>337.86999512</ele>
        <time>2021-10-17T08:48:14Z</time>
      </trkpt>
      <trkpt lat="43.18201" lon="1.03973">
        <ele>337.88000488</ele>
        <time>2021-10-17T08:48:15Z</time>
      </trkpt>
      <trkpt lat="43.182" lon="1.03968">
        <ele>337.88000488</ele>
        <time>2021-10-17T08:48:16Z</time>
      </trkpt>
      <trkpt lat="43.18199" lon="1.03961">
        <ele>337.92999268</ele>
        <time>2021-10-17T08:48:17Z</time>
      </trkpt>
      <trkpt lat="43.18199" lon="1.03956">
        <ele>338.00997925</ele>
        <time>2021-10-17T08:48:18Z</time>
      </trkpt>
      <trkpt lat="43.18198" lon="1.0395">
        <ele>337.94998169</ele>
        <time>2021-10-17T08:48:19Z</time>
      </trkpt>
      <trkpt lat="43.18196" lon="1.03944">
        <ele>337.91998291</ele>
        <time>2021-10-17T08:48:20Z</time>
      </trkpt>
      <trkpt lat="43.18194" lon="1.03937">
        <ele>338.88998413</ele>
        <time>2021-10-17T08:48:21Z</time>
      </trkpt>
      <trkpt lat="43.18193" lon="1.03932">
        <ele>338.94998169</ele>
        <time>2021-10-17T08:48:22Z</time>
      </trkpt>
      <trkpt lat="43.18193" lon="1.03929">
        <ele>339.20999146</ele>
        <time>2021-10-17T08:48:23Z</time>
      </trkpt>
      <trkpt lat="43.18191" lon="1.03926">
        <ele>339.57998657</ele>
        <time>2021-10-17T08:48:24Z</time>
      </trkpt>
      <trkpt lat="43.18189" lon="1.03923">
        <ele>340</ele>
        <time>2021-10-17T08:48:25Z</time>
      </trkpt>
      <trkpt lat="43.18186" lon="1.03918">
        <ele>340.41000366</ele>
        <time>2021-10-17T08:48:26Z</time>
      </trkpt>
      <trkpt lat="43.18185" lon="1.03915">
        <ele>340.67999268</ele>
        <time>2021-10-17T08:48:27Z</time>
      </trkpt>
      <trkpt lat="43.18184" lon="1.03912">
        <ele>340.85998535</ele>
        <time>2021-10-17T08:48:28Z</time>
      </trkpt>
      <trkpt lat="43.18181" lon="1.03908">
        <ele>340.88998413</ele>
        <time>2021-10-17T08:48:29Z</time>
      </trkpt>
      <trkpt lat="43.18177" lon="1.03905">
        <ele>340.90997314</ele>
        <time>2021-10-17T08:48:30Z</time>
      </trkpt>
      <trkpt lat="43.18175" lon="1.03904">
        <ele>341.06997681</ele>
        <time>2021-10-17T08:48:31Z</time>
      </trkpt>
      <trkpt lat="43.18173" lon="1.03903">
        <ele>341.1199646</ele>
        <time>2021-10-17T08:48:32Z</time>
      </trkpt>
      <trkpt lat="43.18172" lon="1.03902">
        <ele>341.24996948</ele>
        <time>2021-10-17T08:48:33Z</time>
      </trkpt>
      <trkpt lat="43.1817" lon="1.03902">
        <ele>341.4699707</ele>
        <time>2021-10-17T08:48:34Z</time>
      </trkpt>
      <trkpt lat="43.18167" lon="1.03901">
        <ele>341.83996582</ele>
        <time>2021-10-17T08:48:35Z</time>
      </trkpt>
      <trkpt lat="43.18165" lon="1.039">
        <ele>342.27996826</ele>
        <time>2021-10-17T08:48:36Z</time>
      </trkpt>
      <trkpt lat="43.18164" lon="1.03899">
        <ele>342.70996094</ele>
        <time>2021-10-17T08:48:37Z</time>
      </trkpt>
      <trkpt lat="43.18161" lon="1.03898">
        <ele>343.13995361</ele>
        <time>2021-10-17T08:48:38Z</time>
      </trkpt>
      <trkpt lat="43.18157" lon="1.03898">
        <ele>343.20996094</ele>
        <time>2021-10-17T08:48:39Z</time>
      </trkpt>
      <trkpt lat="43.18155" lon="1.03898">
        <ele>343.24996948</ele>
        <time>2021-10-17T08:48:40Z</time>
      </trkpt>
      <trkpt lat="43.18151" lon="1.03897">
        <ele>343.42996216</ele>
        <time>2021-10-17T08:48:41Z</time>
      </trkpt>
      <trkpt lat="43.18149" lon="1.03898">
        <ele>343.42996216</ele>
        <time>2021-10-17T08:48:42Z</time>
      </trkpt>
      <trkpt lat="43.18146" lon="1.03898">
        <ele>343.60995483</ele>
        <time>2021-10-17T08:48:43Z</time>
      </trkpt>
      <trkpt lat="43.18142" lon="1.03898">
        <ele>344.03994751</ele>
        <time>2021-10-17T08:48:44Z</time>
      </trkpt>
      <trkpt lat="43.1814" lon="1.03898">
        <ele>344.11993408</ele>
        <time>2021-10-17T08:48:45Z</time>
      </trkpt>
      <trkpt lat="43.18137" lon="1.03898">
        <ele>344.41992188</ele>
        <time>2021-10-17T08:48:46Z</time>
      </trkpt>
      <trkpt lat="43.18135" lon="1.03897">
        <ele>344.61993408</ele>
        <time>2021-10-17T08:48:47Z</time>
      </trkpt>
      <trkpt lat="43.18131" lon="1.03896">
        <ele>344.69992065</ele>
        <time>2021-10-17T08:48:48Z</time>
      </trkpt>
      <trkpt lat="43.18127" lon="1.03896">
        <ele>344.93991089</ele>
        <time>2021-10-17T08:48:49Z</time>
      </trkpt>
      <trkpt lat="43.18123" lon="1.03897">
        <ele>345.16992188</ele>
        <time>2021-10-17T08:48:50Z</time>
      </trkpt>
      <trkpt lat="43.18119" lon="1.03896">
        <ele>345.31991577</ele>
        <time>2021-10-17T08:48:51Z</time>
      </trkpt>
      <trkpt lat="43.18116" lon="1.03894">
        <ele>345.32992554</ele>
        <time>2021-10-17T08:48:52Z</time>
      </trkpt>
      <trkpt lat="43.18113" lon="1.03893">
        <ele>345.42993164</ele>
        <time>2021-10-17T08:48:53Z</time>
      </trkpt>
      <trkpt lat="43.18109" lon="1.03892">
        <ele>345.44992065</ele>
        <time>2021-10-17T08:48:54Z</time>
      </trkpt>
      <trkpt lat="43.18106" lon="1.03891">
        <ele>345.55990601</ele>
        <time>2021-10-17T08:48:55Z</time>
      </trkpt>
      <trkpt lat="43.18103" lon="1.03889">
        <ele>345.73989868</ele>
        <time>2021-10-17T08:48:56Z</time>
      </trkpt>
      <trkpt lat="43.18097" lon="1.03889">
        <ele>345.87991333</ele>
        <time>2021-10-17T08:48:57Z</time>
      </trkpt>
      <trkpt lat="43.18094" lon="1.03889">
        <ele>346.10992432</ele>
        <time>2021-10-17T08:48:58Z</time>
      </trkpt>
      <trkpt lat="43.18091" lon="1.03889">
        <ele>346.31991577</ele>
        <time>2021-10-17T08:48:59Z</time>
      </trkpt>
      <trkpt lat="43.18089" lon="1.03889">
        <ele>346.52990723</ele>
        <time>2021-10-17T08:49:00Z</time>
      </trkpt>
      <trkpt lat="43.18086" lon="1.03889">
        <ele>346.69992065</ele>
        <time>2021-10-17T08:49:01Z</time>
      </trkpt>
      <trkpt lat="43.18082" lon="1.0389">
        <ele>346.8399353</ele>
        <time>2021-10-17T08:49:02Z</time>
      </trkpt>
      <trkpt lat="43.18079" lon="1.03892">
        <ele>346.97994995</ele>
        <time>2021-10-17T08:49:03Z</time>
      </trkpt>
      <trkpt lat="43.18076" lon="1.03893">
        <ele>347.17996216</ele>
        <time>2021-10-17T08:49:04Z</time>
      </trkpt>
      <trkpt lat="43.18073" lon="1.03896">
        <ele>347.41995239</ele>
        <time>2021-10-17T08:49:05Z</time>
      </trkpt>
      <trkpt lat="43.18068" lon="1.03897">
        <ele>347.58996582</ele>
        <time>2021-10-17T08:49:06Z</time>
      </trkpt>
      <trkpt lat="43.18066" lon="1.03899">
        <ele>347.7199707</ele>
        <time>2021-10-17T08:49:07Z</time>
      </trkpt>
      <trkpt lat="43.18064" lon="1.039">
        <ele>347.82995605</ele>
        <time>2021-10-17T08:49:08Z</time>
      </trkpt>
      <trkpt lat="43.18062" lon="1.03902">
        <ele>347.8699646</ele>
        <time>2021-10-17T08:49:09Z</time>
      </trkpt>
      <trkpt lat="43.18059" lon="1.03903">
        <ele>348.00997925</ele>
        <time>2021-10-17T08:49:10Z</time>
      </trkpt>
      <trkpt lat="43.18054" lon="1.03903">
        <ele>348.19998169</ele>
        <time>2021-10-17T08:49:11Z</time>
      </trkpt>
      <trkpt lat="43.1805" lon="1.03904">
        <ele>348.38998413</ele>
        <time>2021-10-17T08:49:12Z</time>
      </trkpt>
      <trkpt lat="43.18047" lon="1.03904">
        <ele>348.58999634</ele>
        <time>2021-10-17T08:49:13Z</time>
      </trkpt>
      <trkpt lat="43.18044" lon="1.03906">
        <ele>348.77999878</ele>
        <time>2021-10-17T08:49:14Z</time>
      </trkpt>
      <trkpt lat="43.18039" lon="1.03908">
        <ele>348.91000366</ele>
        <time>2021-10-17T08:49:15Z</time>
      </trkpt>
      <trkpt lat="43.18036" lon="1.0391">
        <ele>348.94000244</ele>
        <time>2021-10-17T08:49:16Z</time>
      </trkpt>
      <trkpt lat="43.18033" lon="1.03912">
        <ele>349.01000977</ele>
        <time>2021-10-17T08:49:17Z</time>
      </trkpt>
      <trkpt lat="43.1803" lon="1.03913">
        <ele>349.02001953</ele>
        <time>2021-10-17T08:49:18Z</time>
      </trkpt>
      <trkpt lat="43.18027" lon="1.03914">
        <ele>349.04000854</ele>
        <time>2021-10-17T08:49:19Z</time>
      </trkpt>
      <trkpt lat="43.18024" lon="1.03914">
        <ele>349.16000366</ele>
        <time>2021-10-17T08:49:20Z</time>
      </trkpt>
      <trkpt lat="43.18022" lon="1.03915">
        <ele>349.26000977</ele>
        <time>2021-10-17T08:49:21Z</time>
      </trkpt>
      <trkpt lat="43.18019" lon="1.03917">
        <ele>349.43002319</ele>
        <time>2021-10-17T08:49:22Z</time>
      </trkpt>
      <trkpt lat="43.18017" lon="1.03919">
        <ele>349.57003784</ele>
        <time>2021-10-17T08:49:23Z</time>
      </trkpt>
      <trkpt lat="43.18012" lon="1.03921">
        <ele>349.74005127</ele>
        <time>2021-10-17T08:49:24Z</time>
      </trkpt>
      <trkpt lat="43.18009" lon="1.03922">
        <ele>350.00006104</ele>
        <time>2021-10-17T08:49:25Z</time>
      </trkpt>
      <trkpt lat="43.18007" lon="1.03924">
        <ele>350.23007202</ele>
        <time>2021-10-17T08:49:26Z</time>
      </trkpt>
      <trkpt lat="43.18004" lon="1.03925">
        <ele>350.58007812</ele>
        <time>2021-10-17T08:49:27Z</time>
      </trkpt>
      <trkpt lat="43.18002" lon="1.03925">
        <ele>350.9100647</ele>
        <time>2021-10-17T08:49:28Z</time>
      </trkpt>
      <trkpt lat="43.17997" lon="1.03924">
        <ele>351.06005859</ele>
        <time>2021-10-17T08:49:29Z</time>
      </trkpt>
      <trkpt lat="43.17994" lon="1.03924">
        <ele>351.07006836</ele>
        <time>2021-10-17T08:49:30Z</time>
      </trkpt>
      <trkpt lat="43.1799" lon="1.03924">
        <ele>351.02008057</ele>
        <time>2021-10-17T08:49:31Z</time>
      </trkpt>
      <trkpt lat="43.17987" lon="1.03923">
        <ele>350.80007935</ele>
        <time>2021-10-17T08:49:32Z</time>
      </trkpt>
      <trkpt lat="43.17982" lon="1.03923">
        <ele>350.65008545</ele>
        <time>2021-10-17T08:49:33Z</time>
      </trkpt>
      <trkpt lat="43.17977" lon="1.03921">
        <ele>350.58007812</ele>
        <time>2021-10-17T08:49:34Z</time>
      </trkpt>
      <trkpt lat="43.17974" lon="1.0392">
        <ele>350.49008179</ele>
        <time>2021-10-17T08:49:35Z</time>
      </trkpt>
      <trkpt lat="43.17972" lon="1.03917">
        <ele>350.50009155</ele>
        <time>2021-10-17T08:49:36Z</time>
      </trkpt>
      <trkpt lat="43.17969" lon="1.03915">
        <ele>350.48010254</ele>
        <time>2021-10-17T08:49:37Z</time>
      </trkpt>
      <trkpt lat="43.17965" lon="1.0391">
        <ele>350.28009033</ele>
        <time>2021-10-17T08:49:38Z</time>
      </trkpt>
      <trkpt lat="43.17961" lon="1.03906">
        <ele>350.12008667</ele>
        <time>2021-10-17T08:49:39Z</time>
      </trkpt>
      <trkpt lat="43.17956" lon="1.03902">
        <ele>350.05007935</ele>
        <time>2021-10-17T08:49:40Z</time>
      </trkpt>
      <trkpt lat="43.17954" lon="1.03899">
        <ele>350.00009155</ele>
        <time>2021-10-17T08:49:41Z</time>
      </trkpt>
      <trkpt lat="43.17949" lon="1.03896">
        <ele>350.13009644</ele>
        <time>2021-10-17T08:49:42Z</time>
      </trkpt>
      <trkpt lat="43.17946" lon="1.03894">
        <ele>350.33010864</ele>
        <time>2021-10-17T08:49:43Z</time>
      </trkpt>
      <trkpt lat="43.17944" lon="1.03891">
        <ele>350.48010254</ele>
        <time>2021-10-17T08:49:44Z</time>
      </trkpt>
      <trkpt lat="43.17941" lon="1.03888">
        <ele>350.73010254</ele>
        <time>2021-10-17T08:49:45Z</time>
      </trkpt>
      <trkpt lat="43.17938" lon="1.03887">
        <ele>351.16009521</ele>
        <time>2021-10-17T08:49:46Z</time>
      </trkpt>
      <trkpt lat="43.17934" lon="1.03884">
        <ele>351.47009277</ele>
        <time>2021-10-17T08:49:47Z</time>
      </trkpt>
      <trkpt lat="43.17932" lon="1.03884">
        <ele>351.7901001</ele>
        <time>2021-10-17T08:49:48Z</time>
      </trkpt>
      <trkpt lat="43.1793" lon="1.03882">
        <ele>352.13009644</ele>
        <time>2021-10-17T08:49:49Z</time>
      </trkpt>
      <trkpt lat="43.17927" lon="1.03881">
        <ele>352.31008911</ele>
        <time>2021-10-17T08:49:50Z</time>
      </trkpt>
      <trkpt lat="43.17923" lon="1.03879">
        <ele>352.45010376</ele>
        <time>2021-10-17T08:49:51Z</time>
      </trkpt>
      <trkpt lat="43.1792" lon="1.03878">
        <ele>352.5401001</ele>
        <time>2021-10-17T08:49:52Z</time>
      </trkpt>
      <trkpt lat="43.17916" lon="1.03878">
        <ele>352.53009033</ele>
        <time>2021-10-17T08:49:53Z</time>
      </trkpt>
      <trkpt lat="43.17912" lon="1.03877">
        <ele>352.52008057</ele>
        <time>2021-10-17T08:49:54Z</time>
      </trkpt>
      <trkpt lat="43.17909" lon="1.03877">
        <ele>352.52008057</ele>
        <time>2021-10-17T08:49:55Z</time>
      </trkpt>
      <trkpt lat="43.17905" lon="1.03878">
        <ele>352.6100769</ele>
        <time>2021-10-17T08:49:56Z</time>
      </trkpt>
      <trkpt lat="43.17902" lon="1.03878">
        <ele>352.74008179</ele>
        <time>2021-10-17T08:49:57Z</time>
      </trkpt>
      <trkpt lat="43.17899" lon="1.03878">
        <ele>352.85006714</ele>
        <time>2021-10-17T08:49:58Z</time>
      </trkpt>
      <trkpt lat="43.17896" lon="1.03877">
        <ele>352.95007324</ele>
        <time>2021-10-17T08:49:59Z</time>
      </trkpt>
      <trkpt lat="43.17891" lon="1.03876">
        <ele>352.97006226</ele>
        <time>2021-10-17T08:50:00Z</time>
      </trkpt>
      <trkpt lat="43.17888" lon="1.03874">
        <ele>352.83004761</ele>
        <time>2021-10-17T08:50:01Z</time>
      </trkpt>
      <trkpt lat="43.17885" lon="1.03871">
        <ele>352.66003418</ele>
        <time>2021-10-17T08:50:02Z</time>
      </trkpt>
      <trkpt lat="43.17883" lon="1.03869">
        <ele>352.57003784</ele>
        <time>2021-10-17T08:50:03Z</time>
      </trkpt>
      <trkpt lat="43.17881" lon="1.03866">
        <ele>352.58004761</ele>
        <time>2021-10-17T08:50:04Z</time>
      </trkpt>
      <trkpt lat="43.1788" lon="1.03863">
        <ele>352.72006226</ele>
        <time>2021-10-17T08:50:05Z</time>
      </trkpt>
      <trkpt lat="43.17879" lon="1.03861">
        <ele>353.08004761</ele>
        <time>2021-10-17T08:50:06Z</time>
      </trkpt>
      <trkpt lat="43.17877" lon="1.03858">
        <ele>353.50006104</ele>
        <time>2021-10-17T08:50:07Z</time>
      </trkpt>
      <trkpt lat="43.17876" lon="1.03856">
        <ele>354.0100708</ele>
        <time>2021-10-17T08:50:08Z</time>
      </trkpt>
      <trkpt lat="43.17877" lon="1.03852">
        <ele>354.58007812</ele>
        <time>2021-10-17T08:50:09Z</time>
      </trkpt>
      <trkpt lat="43.17878" lon="1.0385">
        <ele>354.96008301</ele>
        <time>2021-10-17T08:50:10Z</time>
      </trkpt>
      <trkpt lat="43.1788" lon="1.03848">
        <ele>355.22009277</ele>
        <time>2021-10-17T08:50:11Z</time>
      </trkpt>
      <trkpt lat="43.17883" lon="1.03846">
        <ele>355.2901001</ele>
        <time>2021-10-17T08:50:12Z</time>
      </trkpt>
      <trkpt lat="43.17885" lon="1.03844">
        <ele>355.2401123</ele>
        <time>2021-10-17T08:50:13Z</time>
      </trkpt>
      <trkpt lat="43.1789" lon="1.03842">
        <ele>355.19012451</ele>
        <time>2021-10-17T08:50:14Z</time>
      </trkpt>
      <trkpt lat="43.17893" lon="1.03841">
        <ele>355.1701355</ele>
        <time>2021-10-17T08:50:15Z</time>
      </trkpt>
      <trkpt lat="43.17896" lon="1.03839">
        <ele>355.14013672</ele>
        <time>2021-10-17T08:50:16Z</time>
      </trkpt>
      <trkpt lat="43.17899" lon="1.03838">
        <ele>355.14013672</ele>
        <time>2021-10-17T08:50:17Z</time>
      </trkpt>
      <trkpt lat="43.17901" lon="1.03836">
        <ele>355.1701355</ele>
        <time>2021-10-17T08:50:18Z</time>
      </trkpt>
      <trkpt lat="43.17905" lon="1.03833">
        <ele>355.21014404</ele>
        <time>2021-10-17T08:50:19Z</time>
      </trkpt>
      <trkpt lat="43.17909" lon="1.03831">
        <ele>355.23013306</ele>
        <time>2021-10-17T08:50:20Z</time>
      </trkpt>
      <trkpt lat="43.17912" lon="1.0383">
        <ele>355.24014282</ele>
        <time>2021-10-17T08:50:21Z</time>
      </trkpt>
      <trkpt lat="43.17916" lon="1.03829">
        <ele>355.28015137</ele>
        <time>2021-10-17T08:50:22Z</time>
      </trkpt>
      <trkpt lat="43.17921" lon="1.03828">
        <ele>355.35015869</ele>
        <time>2021-10-17T08:50:23Z</time>
      </trkpt>
      <trkpt lat="43.17924" lon="1.03827">
        <ele>355.49017334</ele>
        <time>2021-10-17T08:50:24Z</time>
      </trkpt>
      <trkpt lat="43.17928" lon="1.03826">
        <ele>355.68017578</ele>
        <time>2021-10-17T08:50:25Z</time>
      </trkpt>
      <trkpt lat="43.17931" lon="1.03825">
        <ele>355.85018921</ele>
        <time>2021-10-17T08:50:26Z</time>
      </trkpt>
      <trkpt lat="43.17937" lon="1.03823">
        <ele>355.98019409</ele>
        <time>2021-10-17T08:50:27Z</time>
      </trkpt>
      <trkpt lat="43.1794" lon="1.03822">
        <ele>356.14019775</ele>
        <time>2021-10-17T08:50:28Z</time>
      </trkpt>
      <trkpt lat="43.17943" lon="1.03821">
        <ele>356.30020142</ele>
        <time>2021-10-17T08:50:29Z</time>
      </trkpt>
      <trkpt lat="43.17947" lon="1.0382">
        <ele>356.46020508</ele>
        <time>2021-10-17T08:50:30Z</time>
      </trkpt>
      <trkpt lat="43.17952" lon="1.03819">
        <ele>356.6802063</ele>
        <time>2021-10-17T08:50:31Z</time>
      </trkpt>
      <trkpt lat="43.17955" lon="1.03818">
        <ele>356.87020874</ele>
        <time>2021-10-17T08:50:32Z</time>
      </trkpt>
      <trkpt lat="43.17958" lon="1.03818">
        <ele>357.06021118</ele>
        <time>2021-10-17T08:50:33Z</time>
      </trkpt>
      <trkpt lat="43.17961" lon="1.03817">
        <ele>357.22021484</ele>
        <time>2021-10-17T08:50:34Z</time>
      </trkpt>
      <trkpt lat="43.17963" lon="1.03817">
        <ele>357.34020996</ele>
        <time>2021-10-17T08:50:35Z</time>
      </trkpt>
      <trkpt lat="43.17968" lon="1.03816">
        <ele>357.50021362</ele>
        <time>2021-10-17T08:50:36Z</time>
      </trkpt>
      <trkpt lat="43.1797" lon="1.03815">
        <ele>357.69021606</ele>
        <time>2021-10-17T08:50:37Z</time>
      </trkpt>
      <trkpt lat="43.17973" lon="1.03815">
        <ele>357.88021851</ele>
        <time>2021-10-17T08:50:38Z</time>
      </trkpt>
      <trkpt lat="43.17975" lon="1.03815">
        <ele>358.05023193</ele>
        <time>2021-10-17T08:50:39Z</time>
      </trkpt>
      <trkpt lat="43.17978" lon="1.03814">
        <ele>358.19024658</ele>
        <time>2021-10-17T08:50:40Z</time>
      </trkpt>
      <trkpt lat="43.17981" lon="1.03814">
        <ele>358.29025269</ele>
        <time>2021-10-17T08:50:41Z</time>
      </trkpt>
      <trkpt lat="43.17983" lon="1.03813">
        <ele>358.4102478</ele>
        <time>2021-10-17T08:50:42Z</time>
      </trkpt>
      <trkpt lat="43.17986" lon="1.03813">
        <ele>358.5602417</ele>
        <time>2021-10-17T08:50:43Z</time>
      </trkpt>
      <trkpt lat="43.17988" lon="1.03812">
        <ele>358.73025513</ele>
        <time>2021-10-17T08:50:44Z</time>
      </trkpt>
      <trkpt lat="43.17992" lon="1.03811">
        <ele>358.86026001</ele>
        <time>2021-10-17T08:50:45Z</time>
      </trkpt>
      <trkpt lat="43.17994" lon="1.03811">
        <ele>358.99026489</ele>
        <time>2021-10-17T08:50:46Z</time>
      </trkpt>
      <trkpt lat="43.17996" lon="1.0381">
        <ele>359.11026001</ele>
        <time>2021-10-17T08:50:47Z</time>
      </trkpt>
      <trkpt lat="43.17998" lon="1.03809">
        <ele>359.22024536</ele>
        <time>2021-10-17T08:50:48Z</time>
      </trkpt>
      <trkpt lat="43.18001" lon="1.03809">
        <ele>359.37023926</ele>
        <time>2021-10-17T08:50:49Z</time>
      </trkpt>
      <trkpt lat="43.18004" lon="1.03808">
        <ele>359.48022461</ele>
        <time>2021-10-17T08:50:50Z</time>
      </trkpt>
      <trkpt lat="43.18007" lon="1.03807">
        <ele>359.59020996</ele>
        <time>2021-10-17T08:50:51Z</time>
      </trkpt>
      <trkpt lat="43.18009" lon="1.03806">
        <ele>359.71020508</ele>
        <time>2021-10-17T08:50:52Z</time>
      </trkpt>
      <trkpt lat="43.18012" lon="1.03806">
        <ele>359.79019165</ele>
        <time>2021-10-17T08:50:53Z</time>
      </trkpt>
      <trkpt lat="43.18015" lon="1.03805">
        <ele>359.91018677</ele>
        <time>2021-10-17T08:50:54Z</time>
      </trkpt>
      <trkpt lat="43.18018" lon="1.03804">
        <ele>360.05020142</ele>
        <time>2021-10-17T08:50:55Z</time>
      </trkpt>
      <trkpt lat="43.1802" lon="1.03804">
        <ele>360.10018921</ele>
        <time>2021-10-17T08:50:56Z</time>
      </trkpt>
      <trkpt lat="43.18023" lon="1.03803">
        <ele>360.17019653</ele>
        <time>2021-10-17T08:50:57Z</time>
      </trkpt>
      <trkpt lat="43.18025" lon="1.03803">
        <ele>360.28018188</ele>
        <time>2021-10-17T08:50:58Z</time>
      </trkpt>
      <trkpt lat="43.18029" lon="1.03802">
        <ele>360.34017944</ele>
        <time>2021-10-17T08:50:59Z</time>
      </trkpt>
      <trkpt lat="43.18032" lon="1.03801">
        <ele>360.47018433</ele>
        <time>2021-10-17T08:51:00Z</time>
      </trkpt>
      <trkpt lat="43.18034" lon="1.038">
        <ele>360.60018921</ele>
        <time>2021-10-17T08:51:01Z</time>
      </trkpt>
      <trkpt lat="43.18036" lon="1.038">
        <ele>360.650177</ele>
        <time>2021-10-17T08:51:02Z</time>
      </trkpt>
      <trkpt lat="43.1804" lon="1.038">
        <ele>360.74017334</ele>
        <time>2021-10-17T08:51:03Z</time>
      </trkpt>
      <trkpt lat="43.18042" lon="1.038">
        <ele>360.78018188</ele>
        <time>2021-10-17T08:51:04Z</time>
      </trkpt>
      <trkpt lat="43.18045" lon="1.038">
        <ele>360.83016968</ele>
        <time>2021-10-17T08:51:05Z</time>
      </trkpt>
      <trkpt lat="43.18047" lon="1.038">
        <ele>360.95016479</ele>
        <time>2021-10-17T08:51:06Z</time>
      </trkpt>
      <trkpt lat="43.1805" lon="1.03799">
        <ele>361.08016968</ele>
        <time>2021-10-17T08:51:07Z</time>
      </trkpt>
      <trkpt lat="43.18053" lon="1.03799">
        <ele>361.29016113</ele>
        <time>2021-10-17T08:51:08Z</time>
      </trkpt>
      <trkpt lat="43.18056" lon="1.03799">
        <ele>361.52017212</ele>
        <time>2021-10-17T08:51:09Z</time>
      </trkpt>
      <trkpt lat="43.18058" lon="1.03799">
        <ele>361.71017456</ele>
        <time>2021-10-17T08:51:10Z</time>
      </trkpt>
      <trkpt lat="43.1806" lon="1.03799">
        <ele>361.92016602</ele>
        <time>2021-10-17T08:51:11Z</time>
      </trkpt>
      <trkpt lat="43.18064" lon="1.03799">
        <ele>362.07015991</ele>
        <time>2021-10-17T08:51:12Z</time>
      </trkpt>
      <trkpt lat="43.18066" lon="1.03799">
        <ele>362.23016357</ele>
        <time>2021-10-17T08:51:13Z</time>
      </trkpt>
      <trkpt lat="43.18069" lon="1.038">
        <ele>362.44015503</ele>
        <time>2021-10-17T08:51:14Z</time>
      </trkpt>
      <trkpt lat="43.18071" lon="1.03801">
        <ele>362.60015869</ele>
        <time>2021-10-17T08:51:15Z</time>
      </trkpt>
      <trkpt lat="43.18073" lon="1.03801">
        <ele>362.8001709</ele>
        <time>2021-10-17T08:51:16Z</time>
      </trkpt>
      <trkpt lat="43.18076" lon="1.03801">
        <ele>363.02017212</ele>
        <time>2021-10-17T08:51:17Z</time>
      </trkpt>
      <trkpt lat="43.18078" lon="1.03801">
        <ele>363.22018433</ele>
        <time>2021-10-17T08:51:18Z</time>
      </trkpt>
      <trkpt lat="43.1808" lon="1.03801">
        <ele>363.43017578</ele>
        <time>2021-10-17T08:51:19Z</time>
      </trkpt>
      <trkpt lat="43.18082" lon="1.03801">
        <ele>363.650177</ele>
        <time>2021-10-17T08:51:20Z</time>
      </trkpt>
      <trkpt lat="43.18085" lon="1.03802">
        <ele>363.76016235</ele>
        <time>2021-10-17T08:51:21Z</time>
      </trkpt>
      <trkpt lat="43.18089" lon="1.03802">
        <ele>363.91015625</ele>
        <time>2021-10-17T08:51:22Z</time>
      </trkpt>
      <trkpt lat="43.18091" lon="1.03803">
        <ele>364.07015991</ele>
        <time>2021-10-17T08:51:23Z</time>
      </trkpt>
      <trkpt lat="43.18094" lon="1.03803">
        <ele>364.20016479</ele>
        <time>2021-10-17T08:51:24Z</time>
      </trkpt>
      <trkpt lat="43.18097" lon="1.03803">
        <ele>364.34017944</ele>
        <time>2021-10-17T08:51:25Z</time>
      </trkpt>
      <trkpt lat="43.181" lon="1.03804">
        <ele>364.56018066</ele>
        <time>2021-10-17T08:51:26Z</time>
      </trkpt>
      <trkpt lat="43.18103" lon="1.03804">
        <ele>364.78018188</ele>
        <time>2021-10-17T08:51:27Z</time>
      </trkpt>
      <trkpt lat="43.18105" lon="1.03804">
        <ele>365.02017212</ele>
        <time>2021-10-17T08:51:28Z</time>
      </trkpt>
      <trkpt lat="43.18108" lon="1.03804">
        <ele>365.22018433</ele>
        <time>2021-10-17T08:51:29Z</time>
      </trkpt>
      <trkpt lat="43.18111" lon="1.03804">
        <ele>365.36019897</ele>
        <time>2021-10-17T08:51:30Z</time>
      </trkpt>
      <trkpt lat="43.18113" lon="1.03804">
        <ele>365.55020142</ele>
        <time>2021-10-17T08:51:31Z</time>
      </trkpt>
      <trkpt lat="43.18116" lon="1.03804">
        <ele>365.74020386</ele>
        <time>2021-10-17T08:51:32Z</time>
      </trkpt>
      <trkpt lat="43.18118" lon="1.03804">
        <ele>365.99020386</ele>
        <time>2021-10-17T08:51:33Z</time>
      </trkpt>
      <trkpt lat="43.1812" lon="1.03803">
        <ele>366.2802124</ele>
        <time>2021-10-17T08:51:34Z</time>
      </trkpt>
      <trkpt lat="43.18124" lon="1.03803">
        <ele>366.51022339</ele>
        <time>2021-10-17T08:51:35Z</time>
      </trkpt>
      <trkpt lat="43.18126" lon="1.03802">
        <ele>366.74023438</ele>
        <time>2021-10-17T08:51:36Z</time>
      </trkpt>
      <trkpt lat="43.18127" lon="1.03801">
        <ele>366.94024658</ele>
        <time>2021-10-17T08:51:37Z</time>
      </trkpt>
      <trkpt lat="43.18129" lon="1.038">
        <ele>367.14025879</ele>
        <time>2021-10-17T08:51:38Z</time>
      </trkpt>
      <trkpt lat="43.18132" lon="1.03797">
        <ele>367.31027222</ele>
        <time>2021-10-17T08:51:39Z</time>
      </trkpt>
      <trkpt lat="43.18135" lon="1.03796">
        <ele>367.56027222</ele>
        <time>2021-10-17T08:51:40Z</time>
      </trkpt>
      <trkpt lat="43.18137" lon="1.03794">
        <ele>367.82028198</ele>
        <time>2021-10-17T08:51:41Z</time>
      </trkpt>
      <trkpt lat="43.18139" lon="1.03792">
        <ele>368.05029297</ele>
        <time>2021-10-17T08:51:42Z</time>
      </trkpt>
      <trkpt lat="43.18143" lon="1.03789">
        <ele>368.2902832</ele>
        <time>2021-10-17T08:51:43Z</time>
      </trkpt>
      <trkpt lat="43.18145" lon="1.03786">
        <ele>368.48028564</ele>
        <time>2021-10-17T08:51:44Z</time>
      </trkpt>
      <trkpt lat="43.18147" lon="1.03784">
        <ele>368.65029907</ele>
        <time>2021-10-17T08:51:45Z</time>
      </trkpt>
      <trkpt lat="43.18149" lon="1.03781">
        <ele>368.86029053</ele>
        <time>2021-10-17T08:51:46Z</time>
      </trkpt>
      <trkpt lat="43.1815" lon="1.03778">
        <ele>369.12030029</ele>
        <time>2021-10-17T08:51:47Z</time>
      </trkpt>
      <trkpt lat="43.18153" lon="1.03774">
        <ele>369.35031128</ele>
        <time>2021-10-17T08:51:48Z</time>
      </trkpt>
      <trkpt lat="43.18154" lon="1.0377">
        <ele>369.58032227</ele>
        <time>2021-10-17T08:51:49Z</time>
      </trkpt>
      <trkpt lat="43.18155" lon="1.03768">
        <ele>369.79031372</ele>
        <time>2021-10-17T08:51:50Z</time>
      </trkpt>
      <trkpt lat="43.18156" lon="1.03765">
        <ele>370.03030396</ele>
        <time>2021-10-17T08:51:51Z</time>
      </trkpt>
      <trkpt lat="43.18157" lon="1.03762">
        <ele>370.23031616</ele>
        <time>2021-10-17T08:51:52Z</time>
      </trkpt>
      <trkpt lat="43.18159" lon="1.03757">
        <ele>370.41030884</ele>
        <time>2021-10-17T08:51:53Z</time>
      </trkpt>
      <trkpt lat="43.1816" lon="1.03754">
        <ele>370.59030151</ele>
        <time>2021-10-17T08:51:54Z</time>
      </trkpt>
      <trkpt lat="43.18161" lon="1.0375">
        <ele>370.70028687</ele>
        <time>2021-10-17T08:51:55Z</time>
      </trkpt>
      <trkpt lat="43.18161" lon="1.03747">
        <ele>370.80029297</ele>
        <time>2021-10-17T08:51:56Z</time>
      </trkpt>
      <trkpt lat="43.18163" lon="1.03742">
        <ele>370.96029663</ele>
        <time>2021-10-17T08:51:57Z</time>
      </trkpt>
      <trkpt lat="43.18163" lon="1.0374">
        <ele>371.15029907</ele>
        <time>2021-10-17T08:51:58Z</time>
      </trkpt>
      <trkpt lat="43.18165" lon="1.03737">
        <ele>371.35031128</ele>
        <time>2021-10-17T08:51:59Z</time>
      </trkpt>
      <trkpt lat="43.18167" lon="1.03733">
        <ele>371.54031372</ele>
        <time>2021-10-17T08:52:00Z</time>
      </trkpt>
      <trkpt lat="43.18167" lon="1.0373">
        <ele>371.78030396</ele>
        <time>2021-10-17T08:52:01Z</time>
      </trkpt>
      <trkpt lat="43.18169" lon="1.03725">
        <ele>372.05029297</ele>
        <time>2021-10-17T08:52:02Z</time>
      </trkpt>
      <trkpt lat="43.1817" lon="1.03721">
        <ele>372.30029297</ele>
        <time>2021-10-17T08:52:03Z</time>
      </trkpt>
      <trkpt lat="43.1817" lon="1.03718">
        <ele>372.55029297</ele>
        <time>2021-10-17T08:52:04Z</time>
      </trkpt>
      <trkpt lat="43.18171" lon="1.03714">
        <ele>372.7203064</ele>
        <time>2021-10-17T08:52:05Z</time>
      </trkpt>
      <trkpt lat="43.18172" lon="1.0371">
        <ele>372.85031128</ele>
        <time>2021-10-17T08:52:06Z</time>
      </trkpt>
      <trkpt lat="43.18173" lon="1.03707">
        <ele>372.98031616</ele>
        <time>2021-10-17T08:52:07Z</time>
      </trkpt>
      <trkpt lat="43.18174" lon="1.03704">
        <ele>373.21032715</ele>
        <time>2021-10-17T08:52:08Z</time>
      </trkpt>
      <trkpt lat="43.18174" lon="1.037">
        <ele>373.43032837</ele>
        <time>2021-10-17T08:52:09Z</time>
      </trkpt>
      <trkpt lat="43.18175" lon="1.03697">
        <ele>373.61032104</ele>
        <time>2021-10-17T08:52:10Z</time>
      </trkpt>
      <trkpt lat="43.18176" lon="1.03691">
        <ele>373.77032471</ele>
        <time>2021-10-17T08:52:11Z</time>
      </trkpt>
      <trkpt lat="43.18177" lon="1.03688">
        <ele>373.88031006</ele>
        <time>2021-10-17T08:52:12Z</time>
      </trkpt>
      <trkpt lat="43.18178" lon="1.03684">
        <ele>373.9703064</ele>
        <time>2021-10-17T08:52:13Z</time>
      </trkpt>
      <trkpt lat="43.18179" lon="1.0368">
        <ele>374.04031372</ele>
        <time>2021-10-17T08:52:14Z</time>
      </trkpt>
      <trkpt lat="43.18181" lon="1.03675">
        <ele>374.12030029</ele>
        <time>2021-10-17T08:52:15Z</time>
      </trkpt>
      <trkpt lat="43.18182" lon="1.03671">
        <ele>374.20028687</ele>
        <time>2021-10-17T08:52:16Z</time>
      </trkpt>
      <trkpt lat="43.18183" lon="1.03667">
        <ele>374.23028564</ele>
        <time>2021-10-17T08:52:17Z</time>
      </trkpt>
      <trkpt lat="43.18185" lon="1.03663">
        <ele>374.37030029</ele>
        <time>2021-10-17T08:52:18Z</time>
      </trkpt>
      <trkpt lat="43.18187" lon="1.03658">
        <ele>374.49029541</ele>
        <time>2021-10-17T08:52:19Z</time>
      </trkpt>
      <trkpt lat="43.18188" lon="1.03654">
        <ele>374.61029053</ele>
        <time>2021-10-17T08:52:20Z</time>
      </trkpt>
      <trkpt lat="43.18189" lon="1.0365">
        <ele>374.7902832</ele>
        <time>2021-10-17T08:52:21Z</time>
      </trkpt>
      <trkpt lat="43.1819" lon="1.03646">
        <ele>374.85028076</ele>
        <time>2021-10-17T08:52:22Z</time>
      </trkpt>
      <trkpt lat="43.1819" lon="1.03643">
        <ele>374.88027954</ele>
        <time>2021-10-17T08:52:23Z</time>
      </trkpt>
      <trkpt lat="43.18192" lon="1.03637">
        <ele>374.92028809</ele>
        <time>2021-10-17T08:52:24Z</time>
      </trkpt>
      <trkpt lat="43.18193" lon="1.03634">
        <ele>374.95028687</ele>
        <time>2021-10-17T08:52:25Z</time>
      </trkpt>
      <trkpt lat="43.18194" lon="1.03631">
        <ele>375.00027466</ele>
        <time>2021-10-17T08:52:26Z</time>
      </trkpt>
      <trkpt lat="43.18194" lon="1.03627">
        <ele>375.13027954</ele>
        <time>2021-10-17T08:52:27Z</time>
      </trkpt>
      <trkpt lat="43.18195" lon="1.03624">
        <ele>375.28027344</ele>
        <time>2021-10-17T08:52:28Z</time>
      </trkpt>
      <trkpt lat="43.18198" lon="1.0362">
        <ele>375.4402771</ele>
        <time>2021-10-17T08:52:29Z</time>
      </trkpt>
      <trkpt lat="43.18199" lon="1.03617">
        <ele>375.62026978</ele>
        <time>2021-10-17T08:52:30Z</time>
      </trkpt>
      <trkpt lat="43.18201" lon="1.03615">
        <ele>375.77026367</ele>
        <time>2021-10-17T08:52:31Z</time>
      </trkpt>
      <trkpt lat="43.18203" lon="1.03612">
        <ele>375.840271</ele>
        <time>2021-10-17T08:52:32Z</time>
      </trkpt>
      <trkpt lat="43.18207" lon="1.03608">
        <ele>375.92025757</ele>
        <time>2021-10-17T08:52:33Z</time>
      </trkpt>
      <trkpt lat="43.18209" lon="1.03606">
        <ele>375.95025635</ele>
        <time>2021-10-17T08:52:34Z</time>
      </trkpt>
      <trkpt lat="43.18212" lon="1.03604">
        <ele>375.97024536</ele>
        <time>2021-10-17T08:52:35Z</time>
      </trkpt>
      <trkpt lat="43.18214" lon="1.03602">
        <ele>376.08023071</ele>
        <time>2021-10-17T08:52:36Z</time>
      </trkpt>
      <trkpt lat="43.18214" lon="1.03601">
        <ele>377.20999146</ele>
        <time>2021-10-17T08:52:36Z</time>
      </trkpt>
      <trkpt lat="43.18218" lon="1.036">
        <ele>377.28997803</ele>
        <time>2021-10-17T08:52:37Z</time>
      </trkpt>
      <trkpt lat="43.18223" lon="1.036">
        <ele>377.29998779</ele>
        <time>2021-10-17T08:52:38Z</time>
      </trkpt>
      <trkpt lat="43.18226" lon="1.03599">
        <ele>377.19998169</ele>
        <time>2021-10-17T08:52:39Z</time>
      </trkpt>
      <trkpt lat="43.18229" lon="1.03599">
        <ele>376.94998169</ele>
        <time>2021-10-17T08:52:40Z</time>
      </trkpt>
      <trkpt lat="43.18232" lon="1.03598">
        <ele>376.76998901</ele>
        <time>2021-10-17T08:52:41Z</time>
      </trkpt>
      <trkpt lat="43.18236" lon="1.03598">
        <ele>376.62997437</ele>
        <time>2021-10-17T08:52:42Z</time>
      </trkpt>
      <trkpt lat="43.18239" lon="1.03598">
        <ele>376.59997559</ele>
        <time>2021-10-17T08:52:43Z</time>
      </trkpt>
      <trkpt lat="43.18243" lon="1.03598">
        <ele>376.59997559</ele>
        <time>2021-10-17T08:52:44Z</time>
      </trkpt>
      <trkpt lat="43.18246" lon="1.03598">
        <ele>376.52996826</ele>
        <time>2021-10-17T08:52:45Z</time>
      </trkpt>
      <trkpt lat="43.1825" lon="1.03597">
        <ele>376.47998047</ele>
        <time>2021-10-17T08:52:46Z</time>
      </trkpt>
      <trkpt lat="43.18255" lon="1.03597">
        <ele>376.29998779</ele>
        <time>2021-10-17T08:52:47Z</time>
      </trkpt>
      <trkpt lat="43.18259" lon="1.03597">
        <ele>376.12997437</ele>
        <time>2021-10-17T08:52:48Z</time>
      </trkpt>
      <trkpt lat="43.18263" lon="1.03598">
        <ele>375.89996338</ele>
        <time>2021-10-17T08:52:49Z</time>
      </trkpt>
      <trkpt lat="43.18266" lon="1.03598">
        <ele>375.68997192</ele>
        <time>2021-10-17T08:52:50Z</time>
      </trkpt>
      <trkpt lat="43.1827" lon="1.03598">
        <ele>375.58996582</ele>
        <time>2021-10-17T08:52:51Z</time>
      </trkpt>
      <trkpt lat="43.18275" lon="1.03598">
        <ele>375.68997192</ele>
        <time>2021-10-17T08:52:52Z</time>
      </trkpt>
      <trkpt lat="43.18278" lon="1.03598">
        <ele>375.75997925</ele>
        <time>2021-10-17T08:52:53Z</time>
      </trkpt>
      <trkpt lat="43.18282" lon="1.03598">
        <ele>375.82998657</ele>
        <time>2021-10-17T08:52:54Z</time>
      </trkpt>
      <trkpt lat="43.18285" lon="1.03596">
        <ele>375.98999023</ele>
        <time>2021-10-17T08:52:55Z</time>
      </trkpt>
      <trkpt lat="43.18287" lon="1.03591">
        <ele>375.94000244</ele>
        <time>2021-10-17T08:52:56Z</time>
      </trkpt>
      <trkpt lat="43.18288" lon="1.03587">
        <ele>375.83001709</ele>
        <time>2021-10-17T08:52:57Z</time>
      </trkpt>
      <trkpt lat="43.18289" lon="1.03582">
        <ele>375.70001221</ele>
        <time>2021-10-17T08:52:58Z</time>
      </trkpt>
      <trkpt lat="43.18291" lon="1.03576">
        <ele>375.54000854</ele>
        <time>2021-10-17T08:52:59Z</time>
      </trkpt>
      <trkpt lat="43.18293" lon="1.03568">
        <ele>375.3999939</ele>
        <time>2021-10-17T08:53:00Z</time>
      </trkpt>
      <trkpt lat="43.18295" lon="1.03563">
        <ele>375.38000488</ele>
        <time>2021-10-17T08:53:01Z</time>
      </trkpt>
      <trkpt lat="43.18297" lon="1.03558">
        <ele>375.39001465</ele>
        <time>2021-10-17T08:53:02Z</time>
      </trkpt>
      <trkpt lat="43.18298" lon="1.03552">
        <ele>375.30001831</ele>
        <time>2021-10-17T08:53:03Z</time>
      </trkpt>
      <trkpt lat="43.183" lon="1.03547">
        <ele>375.24002075</ele>
        <time>2021-10-17T08:53:04Z</time>
      </trkpt>
      <trkpt lat="43.18302" lon="1.0354">
        <ele>375.23001099</ele>
        <time>2021-10-17T08:53:05Z</time>
      </trkpt>
      <trkpt lat="43.18303" lon="1.03534">
        <ele>375.21002197</ele>
        <time>2021-10-17T08:53:06Z</time>
      </trkpt>
      <trkpt lat="43.18305" lon="1.03529">
        <ele>375.09002686</ele>
        <time>2021-10-17T08:53:07Z</time>
      </trkpt>
      <trkpt lat="43.18307" lon="1.03523">
        <ele>374.97003174</ele>
        <time>2021-10-17T08:53:08Z</time>
      </trkpt>
      <trkpt lat="43.18309" lon="1.03515">
        <ele>374.61004639</ele>
        <time>2021-10-17T08:53:09Z</time>
      </trkpt>
      <trkpt lat="43.18311" lon="1.03509">
        <ele>374.31005859</ele>
        <time>2021-10-17T08:53:10Z</time>
      </trkpt>
      <trkpt lat="43.18312" lon="1.03504">
        <ele>374.0100708</ele>
        <time>2021-10-17T08:53:11Z</time>
      </trkpt>
      <trkpt lat="43.18314" lon="1.03498">
        <ele>373.63006592</ele>
        <time>2021-10-17T08:53:12Z</time>
      </trkpt>
      <trkpt lat="43.18317" lon="1.03489">
        <ele>373.33007812</ele>
        <time>2021-10-17T08:53:13Z</time>
      </trkpt>
      <trkpt lat="43.18319" lon="1.03484">
        <ele>373.00009155</ele>
        <time>2021-10-17T08:53:14Z</time>
      </trkpt>
      <trkpt lat="43.18322" lon="1.03478">
        <ele>372.56008911</ele>
        <time>2021-10-17T08:53:15Z</time>
      </trkpt>
      <trkpt lat="43.18324" lon="1.03472">
        <ele>372.03009033</ele>
        <time>2021-10-17T08:53:16Z</time>
      </trkpt>
      <trkpt lat="43.18327" lon="1.03466">
        <ele>371.59008789</ele>
        <time>2021-10-17T08:53:17Z</time>
      </trkpt>
      <trkpt lat="43.18332" lon="1.03455">
        <ele>370.72009277</ele>
        <time>2021-10-17T08:53:18Z</time>
      </trkpt>
      <trkpt lat="43.18335" lon="1.03447">
        <ele>370.0401001</ele>
        <time>2021-10-17T08:53:19Z</time>
      </trkpt>
      <trkpt lat="43.18338" lon="1.03441">
        <ele>369.43011475</ele>
        <time>2021-10-17T08:53:20Z</time>
      </trkpt>
      <trkpt lat="43.1834" lon="1.03434">
        <ele>368.65011597</ele>
        <time>2021-10-17T08:53:21Z</time>
      </trkpt>
      <trkpt lat="43.18341" lon="1.03429">
        <ele>368.47012329</ele>
        <time>2021-10-17T08:53:22Z</time>
      </trkpt>
      <trkpt lat="43.18342" lon="1.03421">
        <ele>368.37011719</ele>
        <time>2021-10-17T08:53:23Z</time>
      </trkpt>
      <trkpt lat="43.18342" lon="1.03416">
        <ele>368.37011719</ele>
        <time>2021-10-17T08:53:24Z</time>
      </trkpt>
      <trkpt lat="43.18341" lon="1.03414">
        <ele>368.55010986</ele>
        <time>2021-10-17T08:53:25Z</time>
      </trkpt>
      <trkpt lat="43.18339" lon="1.03412">
        <ele>368.61010742</ele>
        <time>2021-10-17T08:53:26Z</time>
      </trkpt>
      <trkpt lat="43.18336" lon="1.03408">
        <ele>368.63009644</ele>
        <time>2021-10-17T08:53:27Z</time>
      </trkpt>
      <trkpt lat="43.18334" lon="1.03406">
        <ele>368.63009644</ele>
        <time>2021-10-17T08:53:28Z</time>
      </trkpt>
      <trkpt lat="43.18331" lon="1.03403">
        <ele>368.62008667</ele>
        <time>2021-10-17T08:53:29Z</time>
      </trkpt>
      <trkpt lat="43.18328" lon="1.03401">
        <ele>368.51010132</ele>
        <time>2021-10-17T08:53:30Z</time>
      </trkpt>
      <trkpt lat="43.18322" lon="1.03397">
        <ele>368.37008667</ele>
        <time>2021-10-17T08:53:31Z</time>
      </trkpt>
      <trkpt lat="43.18319" lon="1.03394">
        <ele>368.34008789</ele>
        <time>2021-10-17T08:53:32Z</time>
      </trkpt>
      <trkpt lat="43.18315" lon="1.03391">
        <ele>368.34008789</ele>
        <time>2021-10-17T08:53:33Z</time>
      </trkpt>
      <trkpt lat="43.18312" lon="1.03388">
        <ele>368.41009521</ele>
        <time>2021-10-17T08:53:34Z</time>
      </trkpt>
      <trkpt lat="43.18309" lon="1.03385">
        <ele>368.63009644</ele>
        <time>2021-10-17T08:53:35Z</time>
      </trkpt>
      <trkpt lat="43.18304" lon="1.03382">
        <ele>368.83010864</ele>
        <time>2021-10-17T08:53:36Z</time>
      </trkpt>
      <trkpt lat="43.183" lon="1.03379">
        <ele>369.13009644</ele>
        <time>2021-10-17T08:53:37Z</time>
      </trkpt>
      <trkpt lat="43.18297" lon="1.03376">
        <ele>369.38009644</ele>
        <time>2021-10-17T08:53:38Z</time>
      </trkpt>
      <trkpt lat="43.18294" lon="1.03374">
        <ele>369.6401062</ele>
        <time>2021-10-17T08:53:39Z</time>
      </trkpt>
      <trkpt lat="43.1829" lon="1.0337">
        <ele>370.00009155</ele>
        <time>2021-10-17T08:53:40Z</time>
      </trkpt>
      <trkpt lat="43.18288" lon="1.03367">
        <ele>370.37008667</ele>
        <time>2021-10-17T08:53:41Z</time>
      </trkpt>
      <trkpt lat="43.18285" lon="1.03365">
        <ele>370.71008301</ele>
        <time>2021-10-17T08:53:42Z</time>
      </trkpt>
      <trkpt lat="43.18283" lon="1.03362">
        <ele>370.90008545</ele>
        <time>2021-10-17T08:53:43Z</time>
      </trkpt>
      <trkpt lat="43.1828" lon="1.03359">
        <ele>371.03009033</ele>
        <time>2021-10-17T08:53:44Z</time>
      </trkpt>
      <trkpt lat="43.18276" lon="1.03354">
        <ele>371.02008057</ele>
        <time>2021-10-17T08:53:45Z</time>
      </trkpt>
      <trkpt lat="43.18273" lon="1.03351">
        <ele>370.98007202</ele>
        <time>2021-10-17T08:53:46Z</time>
      </trkpt>
      <trkpt lat="43.18271" lon="1.03348">
        <ele>371.02008057</ele>
        <time>2021-10-17T08:53:47Z</time>
      </trkpt>
      <trkpt lat="43.18268" lon="1.03345">
        <ele>371.06008911</ele>
        <time>2021-10-17T08:53:48Z</time>
      </trkpt>
      <trkpt lat="43.18266" lon="1.03341">
        <ele>371.15008545</ele>
        <time>2021-10-17T08:53:49Z</time>
      </trkpt>
      <trkpt lat="43.18262" lon="1.03337">
        <ele>371.31008911</ele>
        <time>2021-10-17T08:53:50Z</time>
      </trkpt>
      <trkpt lat="43.1826" lon="1.03334">
        <ele>371.37008667</ele>
        <time>2021-10-17T08:53:51Z</time>
      </trkpt>
      <trkpt lat="43.18257" lon="1.0333">
        <ele>371.35009766</ele>
        <time>2021-10-17T08:53:52Z</time>
      </trkpt>
      <trkpt lat="43.18255" lon="1.03327">
        <ele>371.30010986</ele>
        <time>2021-10-17T08:53:53Z</time>
      </trkpt>
      <trkpt lat="43.18251" lon="1.03321">
        <ele>371.13009644</ele>
        <time>2021-10-17T08:53:54Z</time>
      </trkpt>
      <trkpt lat="43.18248" lon="1.03318">
        <ele>371.23010254</ele>
        <time>2021-10-17T08:53:55Z</time>
      </trkpt>
      <trkpt lat="43.18245" lon="1.03314">
        <ele>371.28009033</ele>
        <time>2021-10-17T08:53:56Z</time>
      </trkpt>
      <trkpt lat="43.18243" lon="1.0331">
        <ele>371.25009155</ele>
        <time>2021-10-17T08:53:57Z</time>
      </trkpt>
      <trkpt lat="43.1824" lon="1.03304">
        <ele>371.2901001</ele>
        <time>2021-10-17T08:53:58Z</time>
      </trkpt>
      <trkpt lat="43.18238" lon="1.03299">
        <ele>371.11010742</ele>
        <time>2021-10-17T08:53:59Z</time>
      </trkpt>
      <trkpt lat="43.18238" lon="1.03295">
        <ele>371.01010132</ele>
        <time>2021-10-17T08:54:00Z</time>
      </trkpt>
      <trkpt lat="43.18236" lon="1.03291">
        <ele>371.05010986</ele>
        <time>2021-10-17T08:54:01Z</time>
      </trkpt>
      <trkpt lat="43.18235" lon="1.03286">
        <ele>371.08010864</ele>
        <time>2021-10-17T08:54:02Z</time>
      </trkpt>
      <trkpt lat="43.18234" lon="1.0328">
        <ele>371.25012207</ele>
        <time>2021-10-17T08:54:03Z</time>
      </trkpt>
      <trkpt lat="43.18233" lon="1.03275">
        <ele>371.46011353</ele>
        <time>2021-10-17T08:54:04Z</time>
      </trkpt>
      <trkpt lat="43.18233" lon="1.03271">
        <ele>371.65011597</ele>
        <time>2021-10-17T08:54:05Z</time>
      </trkpt>
      <trkpt lat="43.18233" lon="1.03268">
        <ele>372.05010986</ele>
        <time>2021-10-17T08:54:06Z</time>
      </trkpt>
      <trkpt lat="43.18232" lon="1.03264">
        <ele>372.42010498</ele>
        <time>2021-10-17T08:54:07Z</time>
      </trkpt>
      <trkpt lat="43.18232" lon="1.0326">
        <ele>372.73010254</ele>
        <time>2021-10-17T08:54:08Z</time>
      </trkpt>
      <trkpt lat="43.18232" lon="1.03257">
        <ele>373.12011719</ele>
        <time>2021-10-17T08:54:09Z</time>
      </trkpt>
      <trkpt lat="43.18231" lon="1.03253">
        <ele>373.40011597</ele>
        <time>2021-10-17T08:54:10Z</time>
      </trkpt>
      <trkpt lat="43.18231" lon="1.0325">
        <ele>373.68011475</ele>
        <time>2021-10-17T08:54:11Z</time>
      </trkpt>
      <trkpt lat="43.18231" lon="1.03244">
        <ele>373.98010254</ele>
        <time>2021-10-17T08:54:12Z</time>
      </trkpt>
      <trkpt lat="43.18231" lon="1.03241">
        <ele>374.20010376</ele>
        <time>2021-10-17T08:54:13Z</time>
      </trkpt>
      <trkpt lat="43.18231" lon="1.03238">
        <ele>374.41009521</ele>
        <time>2021-10-17T08:54:14Z</time>
      </trkpt>
      <trkpt lat="43.18231" lon="1.03234">
        <ele>374.5401001</ele>
        <time>2021-10-17T08:54:15Z</time>
      </trkpt>
      <trkpt lat="43.18231" lon="1.03228">
        <ele>374.68011475</ele>
        <time>2021-10-17T08:54:16Z</time>
      </trkpt>
      <trkpt lat="43.18232" lon="1.03226">
        <ele>374.93011475</ele>
        <time>2021-10-17T08:54:17Z</time>
      </trkpt>
      <trkpt lat="43.18234" lon="1.03223">
        <ele>375.08010864</ele>
        <time>2021-10-17T08:54:18Z</time>
      </trkpt>
      <trkpt lat="43.18235" lon="1.0322">
        <ele>375.15011597</ele>
        <time>2021-10-17T08:54:19Z</time>
      </trkpt>
      <trkpt lat="43.18237" lon="1.03219">
        <ele>375.15011597</ele>
        <time>2021-10-17T08:54:20Z</time>
      </trkpt>
      <trkpt lat="43.18239" lon="1.03217">
        <ele>375.27011108</ele>
        <time>2021-10-17T08:54:21Z</time>
      </trkpt>
      <trkpt lat="43.18241" lon="1.03216">
        <ele>375.42010498</ele>
        <time>2021-10-17T08:54:22Z</time>
      </trkpt>
      <trkpt lat="43.18243" lon="1.03215">
        <ele>375.70010376</ele>
        <time>2021-10-17T08:54:23Z</time>
      </trkpt>
      <trkpt lat="43.18245" lon="1.03215">
        <ele>376.08010864</ele>
        <time>2021-10-17T08:54:24Z</time>
      </trkpt>
      <trkpt lat="43.18247" lon="1.03214">
        <ele>376.2401123</ele>
        <time>2021-10-17T08:54:25Z</time>
      </trkpt>
      <trkpt lat="43.18249" lon="1.03211">
        <ele>376.41012573</ele>
        <time>2021-10-17T08:54:26Z</time>
      </trkpt>
      <trkpt lat="43.18251" lon="1.0321">
        <ele>376.56011963</ele>
        <time>2021-10-17T08:54:27Z</time>
      </trkpt>
      <trkpt lat="43.18253" lon="1.03208">
        <ele>376.70013428</ele>
        <time>2021-10-17T08:54:28Z</time>
      </trkpt>
      <trkpt lat="43.18255" lon="1.03206">
        <ele>376.82012939</ele>
        <time>2021-10-17T08:54:29Z</time>
      </trkpt>
      <trkpt lat="43.18259" lon="1.03203">
        <ele>376.97012329</ele>
        <time>2021-10-17T08:54:30Z</time>
      </trkpt>
      <trkpt lat="43.18262" lon="1.032">
        <ele>377.05010986</ele>
        <time>2021-10-17T08:54:31Z</time>
      </trkpt>
      <trkpt lat="43.18265" lon="1.03198">
        <ele>377.18011475</ele>
        <time>2021-10-17T08:54:32Z</time>
      </trkpt>
      <trkpt lat="43.18268" lon="1.03195">
        <ele>377.27011108</ele>
        <time>2021-10-17T08:54:33Z</time>
      </trkpt>
      <trkpt lat="43.18271" lon="1.03192">
        <ele>377.34011841</ele>
        <time>2021-10-17T08:54:34Z</time>
      </trkpt>
      <trkpt lat="43.18276" lon="1.03188">
        <ele>377.47012329</ele>
        <time>2021-10-17T08:54:35Z</time>
      </trkpt>
      <trkpt lat="43.18278" lon="1.03186">
        <ele>377.52011108</ele>
        <time>2021-10-17T08:54:36Z</time>
      </trkpt>
      <trkpt lat="43.1828" lon="1.03183">
        <ele>377.63009644</ele>
        <time>2021-10-17T08:54:37Z</time>
      </trkpt>
      <trkpt lat="43.18282" lon="1.0318">
        <ele>377.7901001</ele>
        <time>2021-10-17T08:54:38Z</time>
      </trkpt>
      <trkpt lat="43.18285" lon="1.03176">
        <ele>378.00009155</ele>
        <time>2021-10-17T08:54:39Z</time>
      </trkpt>
      <trkpt lat="43.18287" lon="1.03174">
        <ele>378.23010254</ele>
        <time>2021-10-17T08:54:40Z</time>
      </trkpt>
      <trkpt lat="43.18289" lon="1.03172">
        <ele>378.41009521</ele>
        <time>2021-10-17T08:54:41Z</time>
      </trkpt>
      <trkpt lat="43.1829" lon="1.03168">
        <ele>378.69009399</ele>
        <time>2021-10-17T08:54:42Z</time>
      </trkpt>
      <trkpt lat="43.1829" lon="1.03165">
        <ele>378.99008179</ele>
        <time>2021-10-17T08:54:43Z</time>
      </trkpt>
      <trkpt lat="43.18291" lon="1.03161">
        <ele>379.54006958</ele>
        <time>2021-10-17T08:54:44Z</time>
      </trkpt>
      <trkpt lat="43.18292" lon="1.03159">
        <ele>380.09005737</ele>
        <time>2021-10-17T08:54:45Z</time>
      </trkpt>
      <trkpt lat="43.18292" lon="1.03157">
        <ele>380.44006348</ele>
        <time>2021-10-17T08:54:46Z</time>
      </trkpt>
      <trkpt lat="43.18292" lon="1.03155">
        <ele>380.97006226</ele>
        <time>2021-10-17T08:54:47Z</time>
      </trkpt>
      <trkpt lat="43.18292" lon="1.03151">
        <ele>381.1600647</ele>
        <time>2021-10-17T08:54:48Z</time>
      </trkpt>
      <trkpt lat="43.18293" lon="1.03148">
        <ele>381.65005493</ele>
        <time>2021-10-17T08:54:49Z</time>
      </trkpt>
      <trkpt lat="43.18293" lon="1.03145">
        <ele>382.24005127</ele>
        <time>2021-10-17T08:54:50Z</time>
      </trkpt>
      <trkpt lat="43.18293" lon="1.03142">
        <ele>382.57003784</ele>
        <time>2021-10-17T08:54:51Z</time>
      </trkpt>
      <trkpt lat="43.18294" lon="1.03139">
        <ele>383.14004517</ele>
        <time>2021-10-17T08:54:52Z</time>
      </trkpt>
      <trkpt lat="43.18295" lon="1.03135">
        <ele>383.46005249</ele>
        <time>2021-10-17T08:54:53Z</time>
      </trkpt>
      <trkpt lat="43.18295" lon="1.03132">
        <ele>383.79003906</ele>
        <time>2021-10-17T08:54:54Z</time>
      </trkpt>
      <trkpt lat="43.18295" lon="1.03128">
        <ele>384.14004517</ele>
        <time>2021-10-17T08:54:55Z</time>
      </trkpt>
      <trkpt lat="43.18296" lon="1.03124">
        <ele>384.32003784</ele>
        <time>2021-10-17T08:54:56Z</time>
      </trkpt>
      <trkpt lat="43.18298" lon="1.03118">
        <ele>384.51004028</ele>
        <time>2021-10-17T08:54:57Z</time>
      </trkpt>
      <trkpt lat="43.18298" lon="1.03115">
        <ele>384.68005371</ele>
        <time>2021-10-17T08:54:58Z</time>
      </trkpt>
      <trkpt lat="43.18299" lon="1.03113">
        <ele>384.78005981</ele>
        <time>2021-10-17T08:54:59Z</time>
      </trkpt>
      <trkpt lat="43.18301" lon="1.0311">
        <ele>384.98007202</ele>
        <time>2021-10-17T08:55:00Z</time>
      </trkpt>
      <trkpt lat="43.18302" lon="1.03104">
        <ele>385.14007568</ele>
        <time>2021-10-17T08:55:01Z</time>
      </trkpt>
      <trkpt lat="43.18302" lon="1.03101">
        <ele>385.31008911</ele>
        <time>2021-10-17T08:55:02Z</time>
      </trkpt>
      <trkpt lat="43.18303" lon="1.03097">
        <ele>385.51010132</ele>
        <time>2021-10-17T08:55:03Z</time>
      </trkpt>
      <trkpt lat="43.18304" lon="1.03094">
        <ele>385.69009399</ele>
        <time>2021-10-17T08:55:04Z</time>
      </trkpt>
      <trkpt lat="43.18305" lon="1.03091">
        <ele>385.93008423</ele>
        <time>2021-10-17T08:55:05Z</time>
      </trkpt>
      <trkpt lat="43.18307" lon="1.03087">
        <ele>386.13009644</ele>
        <time>2021-10-17T08:55:06Z</time>
      </trkpt>
      <trkpt lat="43.18308" lon="1.03083">
        <ele>386.51010132</ele>
        <time>2021-10-17T08:55:07Z</time>
      </trkpt>
      <trkpt lat="43.18308" lon="1.0308">
        <ele>386.7901001</ele>
        <time>2021-10-17T08:55:08Z</time>
      </trkpt>
      <trkpt lat="43.18308" lon="1.03077">
        <ele>387.05010986</ele>
        <time>2021-10-17T08:55:09Z</time>
      </trkpt>
      <trkpt lat="43.18309" lon="1.03072">
        <ele>387.35009766</ele>
        <time>2021-10-17T08:55:10Z</time>
      </trkpt>
      <trkpt lat="43.18309" lon="1.03069">
        <ele>387.51010132</ele>
        <time>2021-10-17T08:55:11Z</time>
      </trkpt>
      <trkpt lat="43.18309" lon="1.03066">
        <ele>387.70010376</ele>
        <time>2021-10-17T08:55:12Z</time>
      </trkpt>
      <trkpt lat="43.1831" lon="1.03062">
        <ele>387.84011841</ele>
        <time>2021-10-17T08:55:13Z</time>
      </trkpt>
      <trkpt lat="43.18311" lon="1.03059">
        <ele>387.95010376</ele>
        <time>2021-10-17T08:55:14Z</time>
      </trkpt>
      <trkpt lat="43.18312" lon="1.03054">
        <ele>387.95010376</ele>
        <time>2021-10-17T08:55:15Z</time>
      </trkpt>
      <trkpt lat="43.18313" lon="1.03051">
        <ele>388.07009888</ele>
        <time>2021-10-17T08:55:16Z</time>
      </trkpt>
      <trkpt lat="43.18314" lon="1.03048">
        <ele>388.27011108</ele>
        <time>2021-10-17T08:55:17Z</time>
      </trkpt>
      <trkpt lat="43.18315" lon="1.03044">
        <ele>388.43011475</ele>
        <time>2021-10-17T08:55:18Z</time>
      </trkpt>
      <trkpt lat="43.18316" lon="1.0304">
        <ele>388.68011475</ele>
        <time>2021-10-17T08:55:19Z</time>
      </trkpt>
      <trkpt lat="43.18316" lon="1.03035">
        <ele>388.7901001</ele>
        <time>2021-10-17T08:55:20Z</time>
      </trkpt>
      <trkpt lat="43.18317" lon="1.03032">
        <ele>389.16009521</ele>
        <time>2021-10-17T08:55:21Z</time>
      </trkpt>
      <trkpt lat="43.18318" lon="1.03028">
        <ele>389.20010376</ele>
        <time>2021-10-17T08:55:22Z</time>
      </trkpt>
      <trkpt lat="43.18319" lon="1.03024">
        <ele>389.33010864</ele>
        <time>2021-10-17T08:55:23Z</time>
      </trkpt>
      <trkpt lat="43.18319" lon="1.03017">
        <ele>389.32009888</ele>
        <time>2021-10-17T08:55:24Z</time>
      </trkpt>
      <trkpt lat="43.18319" lon="1.03013">
        <ele>389.30010986</ele>
        <time>2021-10-17T08:55:25Z</time>
      </trkpt>
      <trkpt lat="43.18318" lon="1.03008">
        <ele>389.23010254</ele>
        <time>2021-10-17T08:55:26Z</time>
      </trkpt>
      <trkpt lat="43.18317" lon="1.03003">
        <ele>389.18011475</ele>
        <time>2021-10-17T08:55:27Z</time>
      </trkpt>
      <trkpt lat="43.18317" lon="1.02997">
        <ele>389.12011719</ele>
        <time>2021-10-17T08:55:28Z</time>
      </trkpt>
      <trkpt lat="43.18315" lon="1.02989">
        <ele>389.05010986</ele>
        <time>2021-10-17T08:55:29Z</time>
      </trkpt>
      <trkpt lat="43.18314" lon="1.02985">
        <ele>389.09011841</ele>
        <time>2021-10-17T08:55:30Z</time>
      </trkpt>
      <trkpt lat="43.18313" lon="1.0298">
        <ele>388.92010498</ele>
        <time>2021-10-17T08:55:31Z</time>
      </trkpt>
      <trkpt lat="43.18313" lon="1.02975">
        <ele>388.95010376</ele>
        <time>2021-10-17T08:55:32Z</time>
      </trkpt>
      <trkpt lat="43.18312" lon="1.02968">
        <ele>389.05010986</ele>
        <time>2021-10-17T08:55:33Z</time>
      </trkpt>
      <trkpt lat="43.18313" lon="1.02963">
        <ele>388.95010376</ele>
        <time>2021-10-17T08:55:34Z</time>
      </trkpt>
      <trkpt lat="43.18312" lon="1.02957">
        <ele>388.88009644</ele>
        <time>2021-10-17T08:55:35Z</time>
      </trkpt>
      <trkpt lat="43.18312" lon="1.0295">
        <ele>388.45010376</ele>
        <time>2021-10-17T08:55:36Z</time>
      </trkpt>
      <trkpt lat="43.18312" lon="1.02943">
        <ele>387.93011475</ele>
        <time>2021-10-17T08:55:37Z</time>
      </trkpt>
      <trkpt lat="43.18313" lon="1.02939">
        <ele>387.6401062</ele>
        <time>2021-10-17T08:55:38Z</time>
      </trkpt>
      <trkpt lat="43.18313" lon="1.02934">
        <ele>387.41009521</ele>
        <time>2021-10-17T08:55:39Z</time>
      </trkpt>
      <trkpt lat="43.18312" lon="1.02929">
        <ele>387.50009155</ele>
        <time>2021-10-17T08:55:40Z</time>
      </trkpt>
      <trkpt lat="43.1831" lon="1.02922">
        <ele>387.68008423</ele>
        <time>2021-10-17T08:55:41Z</time>
      </trkpt>
      <trkpt lat="43.1831" lon="1.02913">
        <ele>387.68008423</ele>
        <time>2021-10-17T08:55:42Z</time>
      </trkpt>
      <trkpt lat="43.1831" lon="1.02906">
        <ele>387.77008057</ele>
        <time>2021-10-17T08:55:43Z</time>
      </trkpt>
      <trkpt lat="43.18311" lon="1.02899">
        <ele>387.93008423</ele>
        <time>2021-10-17T08:55:44Z</time>
      </trkpt>
      <trkpt lat="43.18311" lon="1.02893">
        <ele>388.2600708</ele>
        <time>2021-10-17T08:55:45Z</time>
      </trkpt>
      <trkpt lat="43.18313" lon="1.02886">
        <ele>388.6100769</ele>
        <time>2021-10-17T08:55:46Z</time>
      </trkpt>
      <trkpt lat="43.18313" lon="1.02882">
        <ele>389.17007446</ele>
        <time>2021-10-17T08:55:47Z</time>
      </trkpt>
      <trkpt lat="43.18314" lon="1.02878">
        <ele>389.77008057</ele>
        <time>2021-10-17T08:55:48Z</time>
      </trkpt>
      <trkpt lat="43.18315" lon="1.02875">
        <ele>390.30007935</ele>
        <time>2021-10-17T08:55:49Z</time>
      </trkpt>
      <trkpt lat="43.18315" lon="1.02872">
        <ele>390.83007812</ele>
        <time>2021-10-17T08:55:50Z</time>
      </trkpt>
      <trkpt lat="43.18315" lon="1.02867">
        <ele>391.20007324</ele>
        <time>2021-10-17T08:55:51Z</time>
      </trkpt>
      <trkpt lat="43.18316" lon="1.02863">
        <ele>391.73007202</ele>
        <time>2021-10-17T08:55:52Z</time>
      </trkpt>
      <trkpt lat="43.18317" lon="1.0286">
        <ele>392.19006348</ele>
        <time>2021-10-17T08:55:53Z</time>
      </trkpt>
      <trkpt lat="43.18317" lon="1.02856">
        <ele>392.68005371</ele>
        <time>2021-10-17T08:55:54Z</time>
      </trkpt>
      <trkpt lat="43.18318" lon="1.02852">
        <ele>393.24005127</ele>
        <time>2021-10-17T08:55:55Z</time>
      </trkpt>
      <trkpt lat="43.18318" lon="1.02846">
        <ele>393.58004761</ele>
        <time>2021-10-17T08:55:56Z</time>
      </trkpt>
      <trkpt lat="43.18319" lon="1.02842">
        <ele>393.96005249</ele>
        <time>2021-10-17T08:55:57Z</time>
      </trkpt>
      <trkpt lat="43.18319" lon="1.02839">
        <ele>394.42004395</ele>
        <time>2021-10-17T08:55:58Z</time>
      </trkpt>
      <trkpt lat="43.1832" lon="1.02835">
        <ele>394.75003052</ele>
        <time>2021-10-17T08:55:59Z</time>
      </trkpt>
      <trkpt lat="43.18321" lon="1.02828">
        <ele>395.18002319</ele>
        <time>2021-10-17T08:56:00Z</time>
      </trkpt>
      <trkpt lat="43.18321" lon="1.02824">
        <ele>395.6300354</ele>
        <time>2021-10-17T08:56:01Z</time>
      </trkpt>
      <trkpt lat="43.18322" lon="1.02821">
        <ele>395.94003296</ele>
        <time>2021-10-17T08:56:02Z</time>
      </trkpt>
      <trkpt lat="43.18323" lon="1.02817">
        <ele>396.44003296</ele>
        <time>2021-10-17T08:56:03Z</time>
      </trkpt>
      <trkpt lat="43.18324" lon="1.02812">
        <ele>396.68002319</ele>
        <time>2021-10-17T08:56:04Z</time>
      </trkpt>
      <trkpt lat="43.18324" lon="1.02806">
        <ele>396.91003418</ele>
        <time>2021-10-17T08:56:05Z</time>
      </trkpt>
      <trkpt lat="43.18325" lon="1.02801">
        <ele>397.06002808</ele>
        <time>2021-10-17T08:56:06Z</time>
      </trkpt>
      <trkpt lat="43.18325" lon="1.02796">
        <ele>397.04003906</ele>
        <time>2021-10-17T08:56:07Z</time>
      </trkpt>
      <trkpt lat="43.18325" lon="1.02791">
        <ele>397.1300354</ele>
        <time>2021-10-17T08:56:08Z</time>
      </trkpt>
      <trkpt lat="43.18326" lon="1.02784">
        <ele>397.04003906</ele>
        <time>2021-10-17T08:56:09Z</time>
      </trkpt>
      <trkpt lat="43.18326" lon="1.0278">
        <ele>397.11004639</ele>
        <time>2021-10-17T08:56:10Z</time>
      </trkpt>
      <trkpt lat="43.18326" lon="1.02775">
        <ele>397.20004272</ele>
        <time>2021-10-17T08:56:11Z</time>
      </trkpt>
      <trkpt lat="43.18326" lon="1.0277">
        <ele>397.21005249</ele>
        <time>2021-10-17T08:56:12Z</time>
      </trkpt>
      <trkpt lat="43.18327" lon="1.02764">
        <ele>397.29003906</ele>
        <time>2021-10-17T08:56:13Z</time>
      </trkpt>
      <trkpt lat="43.18327" lon="1.02758">
        <ele>397.19003296</ele>
        <time>2021-10-17T08:56:14Z</time>
      </trkpt>
      <trkpt lat="43.18326" lon="1.02753">
        <ele>397.08004761</ele>
        <time>2021-10-17T08:56:15Z</time>
      </trkpt>
      <trkpt lat="43.18327" lon="1.02748">
        <ele>396.93005371</ele>
        <time>2021-10-17T08:56:16Z</time>
      </trkpt>
      <trkpt lat="43.18327" lon="1.02743">
        <ele>396.79003906</ele>
        <time>2021-10-17T08:56:17Z</time>
      </trkpt>
      <trkpt lat="43.18327" lon="1.02737">
        <ele>396.76004028</ele>
        <time>2021-10-17T08:56:18Z</time>
      </trkpt>
      <trkpt lat="43.18327" lon="1.02733">
        <ele>396.68005371</ele>
        <time>2021-10-17T08:56:19Z</time>
      </trkpt>
      <trkpt lat="43.18327" lon="1.02731">
        <ele>396.6600647</ele>
        <time>2021-10-17T08:56:20Z</time>
      </trkpt>
      <trkpt lat="43.18326" lon="1.02729">
        <ele>396.72006226</ele>
        <time>2021-10-17T08:56:21Z</time>
      </trkpt>
      <trkpt lat="43.18327" lon="1.02727">
        <ele>396.80004883</ele>
        <time>2021-10-17T08:56:22Z</time>
      </trkpt>
      <trkpt lat="43.18327" lon="1.02727">
        <ele>396.90005493</ele>
        <time>2021-10-17T08:56:23Z</time>
      </trkpt>
      <trkpt lat="43.18328" lon="1.02727">
        <ele>397.04006958</ele>
        <time>2021-10-17T08:56:24Z</time>
      </trkpt>
      <trkpt lat="43.18328" lon="1.02726">
        <ele>397.10006714</ele>
        <time>2021-10-17T08:56:25Z</time>
      </trkpt>
      <trkpt lat="43.18329" lon="1.02725">
        <ele>397.5</ele>
        <time>2021-10-17T08:56:25Z</time>
      </trkpt>
      <trkpt lat="43.18333" lon="1.0272">
        <ele>397.35998535</ele>
        <time>2021-10-17T08:56:30Z</time>
      </trkpt>
      <trkpt lat="43.18334" lon="1.02718">
        <ele>397.18997192</ele>
        <time>2021-10-17T08:56:31Z</time>
      </trkpt>
      <trkpt lat="43.18335" lon="1.02714">
        <ele>397.04995728</ele>
        <time>2021-10-17T08:56:32Z</time>
      </trkpt>
      <trkpt lat="43.18336" lon="1.0271">
        <ele>396.9699707</ele>
        <time>2021-10-17T08:56:33Z</time>
      </trkpt>
      <trkpt lat="43.18336" lon="1.02706">
        <ele>396.9699707</ele>
        <time>2021-10-17T08:56:34Z</time>
      </trkpt>
      <trkpt lat="43.18335" lon="1.02702">
        <ele>396.93997192</ele>
        <time>2021-10-17T08:56:35Z</time>
      </trkpt>
      <trkpt lat="43.18335" lon="1.02694">
        <ele>396.85998535</ele>
        <time>2021-10-17T08:56:36Z</time>
      </trkpt>
      <trkpt lat="43.18335" lon="1.02689">
        <ele>396.67999268</ele>
        <time>2021-10-17T08:56:37Z</time>
      </trkpt>
      <trkpt lat="43.18335" lon="1.02682">
        <ele>396.22000122</ele>
        <time>2021-10-17T08:56:38Z</time>
      </trkpt>
      <trkpt lat="43.18333" lon="1.02676">
        <ele>395.79000854</ele>
        <time>2021-10-17T08:56:39Z</time>
      </trkpt>
      <trkpt lat="43.18332" lon="1.0267">
        <ele>395.22000122</ele>
        <time>2021-10-17T08:56:40Z</time>
      </trkpt>
      <trkpt lat="43.18329" lon="1.0266">
        <ele>394.57000732</ele>
        <time>2021-10-17T08:56:41Z</time>
      </trkpt>
      <trkpt lat="43.18327" lon="1.02651">
        <ele>394.08001709</ele>
        <time>2021-10-17T08:56:42Z</time>
      </trkpt>
      <trkpt lat="43.18327" lon="1.02644">
        <ele>393.38000488</ele>
        <time>2021-10-17T08:56:43Z</time>
      </trkpt>
      <trkpt lat="43.18326" lon="1.02636">
        <ele>392.61001587</ele>
        <time>2021-10-17T08:56:44Z</time>
      </trkpt>
      <trkpt lat="43.18327" lon="1.02624">
        <ele>391.82000732</ele>
        <time>2021-10-17T08:56:45Z</time>
      </trkpt>
      <trkpt lat="43.18328" lon="1.02617">
        <ele>391.05999756</ele>
        <time>2021-10-17T08:56:46Z</time>
      </trkpt>
      <trkpt lat="43.1833" lon="1.02609">
        <ele>390.33999634</ele>
        <time>2021-10-17T08:56:47Z</time>
      </trkpt>
      <trkpt lat="43.18331" lon="1.02601">
        <ele>389.70999146</ele>
        <time>2021-10-17T08:56:48Z</time>
      </trkpt>
      <trkpt lat="43.18334" lon="1.02589">
        <ele>389.1000061</ele>
        <time>2021-10-17T08:56:49Z</time>
      </trkpt>
      <trkpt lat="43.18336" lon="1.02581">
        <ele>388.27999878</ele>
        <time>2021-10-17T08:56:50Z</time>
      </trkpt>
      <trkpt lat="43.18339" lon="1.02574">
        <ele>387.6499939</ele>
        <time>2021-10-17T08:56:51Z</time>
      </trkpt>
      <trkpt lat="43.18341" lon="1.02565">
        <ele>387.10998535</ele>
        <time>2021-10-17T08:56:52Z</time>
      </trkpt>
      <trkpt lat="43.18344" lon="1.02557">
        <ele>386.4699707</ele>
        <time>2021-10-17T08:56:53Z</time>
      </trkpt>
      <trkpt lat="43.18348" lon="1.02545">
        <ele>385.98995972</ele>
        <time>2021-10-17T08:56:54Z</time>
      </trkpt>
      <trkpt lat="43.1835" lon="1.02537">
        <ele>385.48995972</ele>
        <time>2021-10-17T08:56:55Z</time>
      </trkpt>
      <trkpt lat="43.18351" lon="1.0253">
        <ele>385.0199585</ele>
        <time>2021-10-17T08:56:56Z</time>
      </trkpt>
      <trkpt lat="43.18352" lon="1.02523">
        <ele>384.75994873</ele>
        <time>2021-10-17T08:56:57Z</time>
      </trkpt>
      <trkpt lat="43.18353" lon="1.02516">
        <ele>384.88995361</ele>
        <time>2021-10-17T08:56:58Z</time>
      </trkpt>
      <trkpt lat="43.18353" lon="1.02508">
        <ele>385.02996826</ele>
        <time>2021-10-17T08:56:59Z</time>
      </trkpt>
      <trkpt lat="43.18353" lon="1.02503">
        <ele>385.3699646</ele>
        <time>2021-10-17T08:57:00Z</time>
      </trkpt>
      <trkpt lat="43.18352" lon="1.02496">
        <ele>385.79995728</ele>
        <time>2021-10-17T08:57:01Z</time>
      </trkpt>
      <trkpt lat="43.1835" lon="1.0249">
        <ele>385.93997192</ele>
        <time>2021-10-17T08:57:02Z</time>
      </trkpt>
      <trkpt lat="43.18348" lon="1.0248">
        <ele>386.1199646</ele>
        <time>2021-10-17T08:57:03Z</time>
      </trkpt>
      <trkpt lat="43.18349" lon="1.02473">
        <ele>386.14996338</ele>
        <time>2021-10-17T08:57:04Z</time>
      </trkpt>
      <trkpt lat="43.18349" lon="1.02467">
        <ele>386.04995728</ele>
        <time>2021-10-17T08:57:05Z</time>
      </trkpt>
      <trkpt lat="43.18349" lon="1.02461">
        <ele>386.00994873</ele>
        <time>2021-10-17T08:57:06Z</time>
      </trkpt>
      <trkpt lat="43.18349" lon="1.02457">
        <ele>385.92996216</ele>
        <time>2021-10-17T08:57:07Z</time>
      </trkpt>
      <trkpt lat="43.18349" lon="1.02453">
        <ele>385.90997314</ele>
        <time>2021-10-17T08:57:08Z</time>
      </trkpt>
      <trkpt lat="43.18349" lon="1.02451">
        <ele>385.99996948</ele>
        <time>2021-10-17T08:57:09Z</time>
      </trkpt>
      <trkpt lat="43.1835" lon="1.02449">
        <ele>386.06997681</ele>
        <time>2021-10-17T08:57:10Z</time>
      </trkpt>
      <trkpt lat="43.1835" lon="1.02447">
        <ele>386.18997192</ele>
        <time>2021-10-17T08:57:11Z</time>
      </trkpt>
      <trkpt lat="43.1835" lon="1.02445">
        <ele>386.23995972</ele>
        <time>2021-10-17T08:57:12Z</time>
      </trkpt>
      <trkpt lat="43.1835" lon="1.02444">
        <ele>386.25994873</ele>
        <time>2021-10-17T08:57:13Z</time>
      </trkpt>
      <trkpt lat="43.1835" lon="1.02442">
        <ele>386.2699585</ele>
        <time>2021-10-17T08:57:14Z</time>
      </trkpt>
      <trkpt lat="43.1835" lon="1.02441">
        <ele>386.27996826</ele>
        <time>2021-10-17T08:57:15Z</time>
      </trkpt>
      <trkpt lat="43.18347" lon="1.02431">
        <ele>386.04998779</ele>
        <time>2021-10-17T08:57:28Z</time>
      </trkpt>
      <trkpt lat="43.18347" lon="1.02429">
        <ele>386.06997681</ele>
        <time>2021-10-17T08:57:29Z</time>
      </trkpt>
      <trkpt lat="43.18346" lon="1.02428">
        <ele>386.06997681</ele>
        <time>2021-10-17T08:57:30Z</time>
      </trkpt>
      <trkpt lat="43.18345" lon="1.02426">
        <ele>386.07998657</ele>
        <time>2021-10-17T08:57:31Z</time>
      </trkpt>
      <trkpt lat="43.18344" lon="1.02423">
        <ele>386.03997803</ele>
        <time>2021-10-17T08:57:32Z</time>
      </trkpt>
      <trkpt lat="43.18343" lon="1.02419">
        <ele>385.94998169</ele>
        <time>2021-10-17T08:57:33Z</time>
      </trkpt>
      <trkpt lat="43.18342" lon="1.02415">
        <ele>385.82998657</ele>
        <time>2021-10-17T08:57:34Z</time>
      </trkpt>
      <trkpt lat="43.1834" lon="1.02407">
        <ele>385.61999512</ele>
        <time>2021-10-17T08:57:35Z</time>
      </trkpt>
      <trkpt lat="43.18338" lon="1.02402">
        <ele>385.54000854</ele>
        <time>2021-10-17T08:57:36Z</time>
      </trkpt>
      <trkpt lat="43.18338" lon="1.02396">
        <ele>385.5</ele>
        <time>2021-10-17T08:57:37Z</time>
      </trkpt>
      <trkpt lat="43.18337" lon="1.02391">
        <ele>385.42999268</ele>
        <time>2021-10-17T08:57:38Z</time>
      </trkpt>
      <trkpt lat="43.18337" lon="1.02383">
        <ele>385.51998901</ele>
        <time>2021-10-17T08:57:39Z</time>
      </trkpt>
      <trkpt lat="43.18337" lon="1.02377">
        <ele>385.58999634</ele>
        <time>2021-10-17T08:57:40Z</time>
      </trkpt>
      <trkpt lat="43.18336" lon="1.02371">
        <ele>385.69998169</ele>
        <time>2021-10-17T08:57:41Z</time>
      </trkpt>
      <trkpt lat="43.18336" lon="1.02365">
        <ele>385.82998657</ele>
        <time>2021-10-17T08:57:42Z</time>
      </trkpt>
      <trkpt lat="43.18336" lon="1.02357">
        <ele>385.97000122</ele>
        <time>2021-10-17T08:57:43Z</time>
      </trkpt>
      <trkpt lat="43.18335" lon="1.02352">
        <ele>386.19000244</ele>
        <time>2021-10-17T08:57:44Z</time>
      </trkpt>
      <trkpt lat="43.18334" lon="1.02348">
        <ele>386.51998901</ele>
        <time>2021-10-17T08:57:45Z</time>
      </trkpt>
      <trkpt lat="43.18333" lon="1.02343">
        <ele>387.02999878</ele>
        <time>2021-10-17T08:57:46Z</time>
      </trkpt>
      <trkpt lat="43.18332" lon="1.02338">
        <ele>387.57000732</ele>
        <time>2021-10-17T08:57:47Z</time>
      </trkpt>
      <trkpt lat="43.18332" lon="1.02332">
        <ele>387.96002197</ele>
        <time>2021-10-17T08:57:48Z</time>
      </trkpt>
      <trkpt lat="43.18331" lon="1.02328">
        <ele>388.55001831</ele>
        <time>2021-10-17T08:57:49Z</time>
      </trkpt>
      <trkpt lat="43.1833" lon="1.02323">
        <ele>389.11001587</ele>
        <time>2021-10-17T08:57:50Z</time>
      </trkpt>
      <trkpt lat="43.18329" lon="1.02319">
        <ele>389.71002197</ele>
        <time>2021-10-17T08:57:51Z</time>
      </trkpt>
      <trkpt lat="43.18329" lon="1.02316">
        <ele>390.41003418</ele>
        <time>2021-10-17T08:57:52Z</time>
      </trkpt>
      <trkpt lat="43.18329" lon="1.0231">
        <ele>391.07003784</ele>
        <time>2021-10-17T08:57:53Z</time>
      </trkpt>
      <trkpt lat="43.18328" lon="1.02307">
        <ele>391.71005249</ele>
        <time>2021-10-17T08:57:54Z</time>
      </trkpt>
      <trkpt lat="43.18328" lon="1.02304">
        <ele>392.25006104</ele>
        <time>2021-10-17T08:57:55Z</time>
      </trkpt>
      <trkpt lat="43.18327" lon="1.02301">
        <ele>392.89007568</ele>
        <time>2021-10-17T08:57:56Z</time>
      </trkpt>
      <trkpt lat="43.18328" lon="1.02296">
        <ele>393.19006348</ele>
        <time>2021-10-17T08:57:57Z</time>
      </trkpt>
      <trkpt lat="43.18327" lon="1.02293">
        <ele>393.56005859</ele>
        <time>2021-10-17T08:57:58Z</time>
      </trkpt>
      <trkpt lat="43.18327" lon="1.02289">
        <ele>393.93005371</ele>
        <time>2021-10-17T08:57:59Z</time>
      </trkpt>
      <trkpt lat="43.18326" lon="1.02286">
        <ele>394.17004395</ele>
        <time>2021-10-17T08:58:00Z</time>
      </trkpt>
      <trkpt lat="43.18325" lon="1.02282">
        <ele>394.66003418</ele>
        <time>2021-10-17T08:58:01Z</time>
      </trkpt>
      <trkpt lat="43.18323" lon="1.02276">
        <ele>395.00003052</ele>
        <time>2021-10-17T08:58:02Z</time>
      </trkpt>
      <trkpt lat="43.18322" lon="1.02273">
        <ele>395.35003662</ele>
        <time>2021-10-17T08:58:03Z</time>
      </trkpt>
      <trkpt lat="43.18322" lon="1.02269">
        <ele>395.6300354</ele>
        <time>2021-10-17T08:58:04Z</time>
      </trkpt>
      <trkpt lat="43.18322" lon="1.02266">
        <ele>395.86004639</ele>
        <time>2021-10-17T08:58:05Z</time>
      </trkpt>
      <trkpt lat="43.18321" lon="1.02261">
        <ele>396.15005493</ele>
        <time>2021-10-17T08:58:06Z</time>
      </trkpt>
      <trkpt lat="43.18321" lon="1.02257">
        <ele>396.55004883</ele>
        <time>2021-10-17T08:58:07Z</time>
      </trkpt>
      <trkpt lat="43.1832" lon="1.02254">
        <ele>396.91003418</ele>
        <time>2021-10-17T08:58:08Z</time>
      </trkpt>
      <trkpt lat="43.18319" lon="1.02251">
        <ele>397.16003418</ele>
        <time>2021-10-17T08:58:09Z</time>
      </trkpt>
      <trkpt lat="43.18318" lon="1.02246">
        <ele>397.41003418</ele>
        <time>2021-10-17T08:58:10Z</time>
      </trkpt>
      <trkpt lat="43.18319" lon="1.02242">
        <ele>397.49002075</ele>
        <time>2021-10-17T08:58:11Z</time>
      </trkpt>
      <trkpt lat="43.18318" lon="1.02237">
        <ele>397.55001831</ele>
        <time>2021-10-17T08:58:12Z</time>
      </trkpt>
      <trkpt lat="43.18318" lon="1.02234">
        <ele>397.62002563</ele>
        <time>2021-10-17T08:58:13Z</time>
      </trkpt>
      <trkpt lat="43.18318" lon="1.02229">
        <ele>397.65002441</ele>
        <time>2021-10-17T08:58:14Z</time>
      </trkpt>
      <trkpt lat="43.18318" lon="1.02225">
        <ele>397.61001587</ele>
        <time>2021-10-17T08:58:15Z</time>
      </trkpt>
      <trkpt lat="43.18318" lon="1.02218">
        <ele>397.58001709</ele>
        <time>2021-10-17T08:58:16Z</time>
      </trkpt>
      <trkpt lat="43.18319" lon="1.02213">
        <ele>397.55001831</ele>
        <time>2021-10-17T08:58:17Z</time>
      </trkpt>
      <trkpt lat="43.1832" lon="1.02208">
        <ele>397.36001587</ele>
        <time>2021-10-17T08:58:18Z</time>
      </trkpt>
      <trkpt lat="43.1832" lon="1.02203">
        <ele>397.2800293</ele>
        <time>2021-10-17T08:58:19Z</time>
      </trkpt>
      <trkpt lat="43.18322" lon="1.02196">
        <ele>397.20004272</ele>
        <time>2021-10-17T08:58:20Z</time>
      </trkpt>
      <trkpt lat="43.18323" lon="1.02191">
        <ele>397.02005005</ele>
        <time>2021-10-17T08:58:21Z</time>
      </trkpt>
      <trkpt lat="43.18324" lon="1.02185">
        <ele>396.79003906</ele>
        <time>2021-10-17T08:58:22Z</time>
      </trkpt>
      <trkpt lat="43.18325" lon="1.0218">
        <ele>396.51004028</ele>
        <time>2021-10-17T08:58:23Z</time>
      </trkpt>
      <trkpt lat="43.18326" lon="1.0217">
        <ele>396.24005127</ele>
        <time>2021-10-17T08:58:24Z</time>
      </trkpt>
      <trkpt lat="43.18327" lon="1.02163">
        <ele>395.22006226</ele>
        <time>2021-10-17T08:58:25Z</time>
      </trkpt>
      <trkpt lat="43.18328" lon="1.02156">
        <ele>395.22006226</ele>
        <time>2021-10-17T08:58:26Z</time>
      </trkpt>
      <trkpt lat="43.18329" lon="1.0215">
        <ele>394.45007324</ele>
        <time>2021-10-17T08:58:27Z</time>
      </trkpt>
      <trkpt lat="43.1833" lon="1.02144">
        <ele>393.78005981</ele>
        <time>2021-10-17T08:58:28Z</time>
      </trkpt>
      <trkpt lat="43.18332" lon="1.02134">
        <ele>393.21005249</ele>
        <time>2021-10-17T08:58:29Z</time>
      </trkpt>
      <trkpt lat="43.18332" lon="1.02127">
        <ele>392.78005981</ele>
        <time>2021-10-17T08:58:30Z</time>
      </trkpt>
      <trkpt lat="43.18333" lon="1.0212">
        <ele>392.46005249</ele>
        <time>2021-10-17T08:58:31Z</time>
      </trkpt>
      <trkpt lat="43.18333" lon="1.02112">
        <ele>391.63006592</ele>
        <time>2021-10-17T08:58:32Z</time>
      </trkpt>
      <trkpt lat="43.18333" lon="1.02101">
        <ele>390.8600769</ele>
        <time>2021-10-17T08:58:33Z</time>
      </trkpt>
      <trkpt lat="43.18333" lon="1.02094">
        <ele>390.05007935</ele>
        <time>2021-10-17T08:58:34Z</time>
      </trkpt>
      <trkpt lat="43.18333" lon="1.02087">
        <ele>389.1600647</ele>
        <time>2021-10-17T08:58:35Z</time>
      </trkpt>
      <trkpt lat="43.18333" lon="1.0208">
        <ele>388.6100769</ele>
        <time>2021-10-17T08:58:36Z</time>
      </trkpt>
      <trkpt lat="43.18333" lon="1.0207">
        <ele>388.06008911</ele>
        <time>2021-10-17T08:58:37Z</time>
      </trkpt>
      <trkpt lat="43.18333" lon="1.02063">
        <ele>387.60009766</ele>
        <time>2021-10-17T08:58:38Z</time>
      </trkpt>
      <trkpt lat="43.18332" lon="1.02055">
        <ele>387.20010376</ele>
        <time>2021-10-17T08:58:39Z</time>
      </trkpt>
      <trkpt lat="43.18331" lon="1.02048">
        <ele>386.93011475</ele>
        <time>2021-10-17T08:58:40Z</time>
      </trkpt>
      <trkpt lat="43.1833" lon="1.02042">
        <ele>386.7901001</ele>
        <time>2021-10-17T08:58:41Z</time>
      </trkpt>
      <trkpt lat="43.1833" lon="1.02034">
        <ele>386.69009399</ele>
        <time>2021-10-17T08:58:42Z</time>
      </trkpt>
      <trkpt lat="43.1833" lon="1.02029">
        <ele>386.7901001</ele>
        <time>2021-10-17T08:58:43Z</time>
      </trkpt>
      <trkpt lat="43.18331" lon="1.02023">
        <ele>386.83010864</ele>
        <time>2021-10-17T08:58:44Z</time>
      </trkpt>
      <trkpt lat="43.18331" lon="1.02018">
        <ele>386.70010376</ele>
        <time>2021-10-17T08:58:45Z</time>
      </trkpt>
      <trkpt lat="43.1833" lon="1.02012">
        <ele>386.34011841</ele>
        <time>2021-10-17T08:58:46Z</time>
      </trkpt>
      <trkpt lat="43.18329" lon="1.02002">
        <ele>385.81011963</ele>
        <time>2021-10-17T08:58:47Z</time>
      </trkpt>
      <trkpt lat="43.18328" lon="1.01996">
        <ele>385.21011353</ele>
        <time>2021-10-17T08:58:48Z</time>
      </trkpt>
      <trkpt lat="43.18326" lon="1.01991">
        <ele>384.76010132</ele>
        <time>2021-10-17T08:58:49Z</time>
      </trkpt>
      <trkpt lat="43.18324" lon="1.01986">
        <ele>384.62008667</ele>
        <time>2021-10-17T08:58:50Z</time>
      </trkpt>
      <trkpt lat="43.18323" lon="1.01978">
        <ele>384.47009277</ele>
        <time>2021-10-17T08:58:51Z</time>
      </trkpt>
      <trkpt lat="43.18323" lon="1.01973">
        <ele>384.43008423</ele>
        <time>2021-10-17T08:58:52Z</time>
      </trkpt>
      <trkpt lat="43.18324" lon="1.01969">
        <ele>384.35009766</ele>
        <time>2021-10-17T08:58:53Z</time>
      </trkpt>
      <trkpt lat="43.18326" lon="1.01965">
        <ele>384.35009766</ele>
        <time>2021-10-17T08:58:54Z</time>
      </trkpt>
      <trkpt lat="43.1833" lon="1.01961">
        <ele>384.35009766</ele>
        <time>2021-10-17T08:58:55Z</time>
      </trkpt>
      <trkpt lat="43.18333" lon="1.01959">
        <ele>384.44009399</ele>
        <time>2021-10-17T08:58:56Z</time>
      </trkpt>
      <trkpt lat="43.18336" lon="1.01955">
        <ele>384.5401001</ele>
        <time>2021-10-17T08:58:57Z</time>
      </trkpt>
      <trkpt lat="43.18339" lon="1.01952">
        <ele>384.58010864</ele>
        <time>2021-10-17T08:58:58Z</time>
      </trkpt>
      <trkpt lat="43.18341" lon="1.01948">
        <ele>384.62011719</ele>
        <time>2021-10-17T08:58:59Z</time>
      </trkpt>
      <trkpt lat="43.18344" lon="1.01942">
        <ele>384.78012085</ele>
        <time>2021-10-17T08:59:00Z</time>
      </trkpt>
      <trkpt lat="43.18344" lon="1.01939">
        <ele>385.05010986</ele>
        <time>2021-10-17T08:59:01Z</time>
      </trkpt>
      <trkpt lat="43.18344" lon="1.01937">
        <ele>385.44012451</ele>
        <time>2021-10-17T08:59:02Z</time>
      </trkpt>
      <trkpt lat="43.18344" lon="1.01934">
        <ele>386.18011475</ele>
        <time>2021-10-17T08:59:03Z</time>
      </trkpt>
      <trkpt lat="43.18344" lon="1.01933">
        <ele>386.87011719</ele>
        <time>2021-10-17T08:59:04Z</time>
      </trkpt>
      <trkpt lat="43.18344" lon="1.0193">
        <ele>387.55010986</ele>
        <time>2021-10-17T08:59:05Z</time>
      </trkpt>
      <trkpt lat="43.18344" lon="1.01929">
        <ele>388.19012451</ele>
        <time>2021-10-17T08:59:06Z</time>
      </trkpt>
      <trkpt lat="43.18344" lon="1.01927">
        <ele>388.57012939</ele>
        <time>2021-10-17T08:59:07Z</time>
      </trkpt>
      <trkpt lat="43.18343" lon="1.01925">
        <ele>388.79013062</ele>
        <time>2021-10-17T08:59:08Z</time>
      </trkpt>
      <trkpt lat="43.18342" lon="1.01921">
        <ele>388.96014404</ele>
        <time>2021-10-17T08:59:09Z</time>
      </trkpt>
      <trkpt lat="43.18342" lon="1.01919">
        <ele>389.20013428</ele>
        <time>2021-10-17T08:59:10Z</time>
      </trkpt>
      <trkpt lat="43.18341" lon="1.01917">
        <ele>389.43014526</ele>
        <time>2021-10-17T08:59:11Z</time>
      </trkpt>
      <trkpt lat="43.1834" lon="1.01914">
        <ele>389.72015381</ele>
        <time>2021-10-17T08:59:12Z</time>
      </trkpt>
      <trkpt lat="43.18339" lon="1.01911">
        <ele>390.03015137</ele>
        <time>2021-10-17T08:59:13Z</time>
      </trkpt>
      <trkpt lat="43.18337" lon="1.01906">
        <ele>390.26016235</ele>
        <time>2021-10-17T08:59:14Z</time>
      </trkpt>
      <trkpt lat="43.18336" lon="1.01901">
        <ele>390.54016113</ele>
        <time>2021-10-17T08:59:15Z</time>
      </trkpt>
      <trkpt lat="43.18336" lon="1.01898">
        <ele>390.75015259</ele>
        <time>2021-10-17T08:59:16Z</time>
      </trkpt>
      <trkpt lat="43.18336" lon="1.01894">
        <ele>390.88015747</ele>
        <time>2021-10-17T08:59:17Z</time>
      </trkpt>
      <trkpt lat="43.18335" lon="1.01887">
        <ele>391.01016235</ele>
        <time>2021-10-17T08:59:18Z</time>
      </trkpt>
      <trkpt lat="43.18335" lon="1.01883">
        <ele>391.04016113</ele>
        <time>2021-10-17T08:59:19Z</time>
      </trkpt>
      <trkpt lat="43.18334" lon="1.01879">
        <ele>391.08016968</ele>
        <time>2021-10-17T08:59:20Z</time>
      </trkpt>
      <trkpt lat="43.18334" lon="1.01874">
        <ele>391.16015625</ele>
        <time>2021-10-17T08:59:21Z</time>
      </trkpt>
      <trkpt lat="43.18333" lon="1.01867">
        <ele>391.12014771</ele>
        <time>2021-10-17T08:59:22Z</time>
      </trkpt>
      <trkpt lat="43.18333" lon="1.01863">
        <ele>391.12014771</ele>
        <time>2021-10-17T08:59:23Z</time>
      </trkpt>
      <trkpt lat="43.18332" lon="1.01859">
        <ele>391.15014648</ele>
        <time>2021-10-17T08:59:24Z</time>
      </trkpt>
      <trkpt lat="43.18331" lon="1.01854">
        <ele>391.14013672</ele>
        <time>2021-10-17T08:59:25Z</time>
      </trkpt>
      <trkpt lat="43.1833" lon="1.0185">
        <ele>391.15014648</ele>
        <time>2021-10-17T08:59:26Z</time>
      </trkpt>
      <trkpt lat="43.1833" lon="1.01846">
        <ele>391.16015625</ele>
        <time>2021-10-17T08:59:27Z</time>
      </trkpt>
      <trkpt lat="43.18329" lon="1.0184">
        <ele>391.16015625</ele>
        <time>2021-10-17T08:59:28Z</time>
      </trkpt>
      <trkpt lat="43.18328" lon="1.01836">
        <ele>391.17016602</ele>
        <time>2021-10-17T08:59:29Z</time>
      </trkpt>
      <trkpt lat="43.18327" lon="1.01832">
        <ele>391.16015625</ele>
        <time>2021-10-17T08:59:30Z</time>
      </trkpt>
      <trkpt lat="43.18326" lon="1.01829">
        <ele>391.15014648</ele>
        <time>2021-10-17T08:59:31Z</time>
      </trkpt>
      <trkpt lat="43.18324" lon="1.01824">
        <ele>391.18014526</ele>
        <time>2021-10-17T08:59:32Z</time>
      </trkpt>
      <trkpt lat="43.18323" lon="1.0182">
        <ele>391.19015503</ele>
        <time>2021-10-17T08:59:33Z</time>
      </trkpt>
      <trkpt lat="43.18321" lon="1.01816">
        <ele>391.23016357</ele>
        <time>2021-10-17T08:59:34Z</time>
      </trkpt>
      <trkpt lat="43.18319" lon="1.01811">
        <ele>391.17016602</ele>
        <time>2021-10-17T08:59:35Z</time>
      </trkpt>
      <trkpt lat="43.18316" lon="1.01805">
        <ele>391.14016724</ele>
        <time>2021-10-17T08:59:36Z</time>
      </trkpt>
      <trkpt lat="43.18315" lon="1.01801">
        <ele>391.13015747</ele>
        <time>2021-10-17T08:59:37Z</time>
      </trkpt>
      <trkpt lat="43.18314" lon="1.01796">
        <ele>391.13015747</ele>
        <time>2021-10-17T08:59:38Z</time>
      </trkpt>
      <trkpt lat="43.18314" lon="1.01791">
        <ele>391.15014648</ele>
        <time>2021-10-17T08:59:39Z</time>
      </trkpt>
      <trkpt lat="43.18313" lon="1.01783">
        <ele>391.00015259</ele>
        <time>2021-10-17T08:59:40Z</time>
      </trkpt>
      <trkpt lat="43.18313" lon="1.01778">
        <ele>390.81015015</ele>
        <time>2021-10-17T08:59:41Z</time>
      </trkpt>
      <trkpt lat="43.18312" lon="1.01773">
        <ele>390.48016357</ele>
        <time>2021-10-17T08:59:42Z</time>
      </trkpt>
      <trkpt lat="43.18313" lon="1.01768">
        <ele>390.28015137</ele>
        <time>2021-10-17T08:59:43Z</time>
      </trkpt>
      <trkpt lat="43.18312" lon="1.01762">
        <ele>390.06015015</ele>
        <time>2021-10-17T08:59:44Z</time>
      </trkpt>
      <trkpt lat="43.18312" lon="1.01754">
        <ele>389.80014038</ele>
        <time>2021-10-17T08:59:45Z</time>
      </trkpt>
      <trkpt lat="43.18312" lon="1.01749">
        <ele>389.64013672</ele>
        <time>2021-10-17T08:59:46Z</time>
      </trkpt>
      <trkpt lat="43.18312" lon="1.01743">
        <ele>389.35012817</ele>
        <time>2021-10-17T08:59:47Z</time>
      </trkpt>
      <trkpt lat="43.18311" lon="1.01738">
        <ele>389.09011841</ele>
        <time>2021-10-17T08:59:48Z</time>
      </trkpt>
      <trkpt lat="43.18309" lon="1.01732">
        <ele>388.83010864</ele>
        <time>2021-10-17T08:59:49Z</time>
      </trkpt>
      <trkpt lat="43.18307" lon="1.01725">
        <ele>388.63009644</ele>
        <time>2021-10-17T08:59:50Z</time>
      </trkpt>
      <trkpt lat="43.18305" lon="1.0172">
        <ele>388.46008301</ele>
        <time>2021-10-17T08:59:51Z</time>
      </trkpt>
      <trkpt lat="43.18302" lon="1.01715">
        <ele>388.39007568</ele>
        <time>2021-10-17T08:59:52Z</time>
      </trkpt>
      <trkpt lat="43.183" lon="1.01711">
        <ele>388.20007324</ele>
        <time>2021-10-17T08:59:53Z</time>
      </trkpt>
      <trkpt lat="43.18299" lon="1.01707">
        <ele>388.05007935</ele>
        <time>2021-10-17T08:59:54Z</time>
      </trkpt>
      <trkpt lat="43.18298" lon="1.017">
        <ele>387.8600769</ele>
        <time>2021-10-17T08:59:55Z</time>
      </trkpt>
      <trkpt lat="43.18298" lon="1.01694">
        <ele>387.48007202</ele>
        <time>2021-10-17T08:59:56Z</time>
      </trkpt>
      <trkpt lat="43.18298" lon="1.01688">
        <ele>387.09005737</ele>
        <time>2021-10-17T08:59:57Z</time>
      </trkpt>
      <trkpt lat="43.18299" lon="1.01679">
        <ele>386.55004883</ele>
        <time>2021-10-17T08:59:58Z</time>
      </trkpt>
      <trkpt lat="43.183" lon="1.01673">
        <ele>386.12005615</ele>
        <time>2021-10-17T08:59:59Z</time>
      </trkpt>
      <trkpt lat="43.18302" lon="1.0167">
        <ele>385.83004761</ele>
        <time>2021-10-17T09:00:00Z</time>
      </trkpt>
      <trkpt lat="43.18303" lon="1.01666">
        <ele>385.83004761</ele>
        <time>2021-10-17T09:00:01Z</time>
      </trkpt>
      <trkpt lat="43.18305" lon="1.01664">
        <ele>385.8800354</ele>
        <time>2021-10-17T09:00:02Z</time>
      </trkpt>
      <trkpt lat="43.18309" lon="1.0166">
        <ele>386.01004028</ele>
        <time>2021-10-17T09:00:03Z</time>
      </trkpt>
      <trkpt lat="43.18312" lon="1.01657">
        <ele>386.33004761</ele>
        <time>2021-10-17T09:00:04Z</time>
      </trkpt>
      <trkpt lat="43.18315" lon="1.01654">
        <ele>386.57003784</ele>
        <time>2021-10-17T09:00:05Z</time>
      </trkpt>
      <trkpt lat="43.18318" lon="1.01651">
        <ele>386.82003784</ele>
        <time>2021-10-17T09:00:06Z</time>
      </trkpt>
      <trkpt lat="43.18322" lon="1.01646">
        <ele>387.14004517</ele>
        <time>2021-10-17T09:00:07Z</time>
      </trkpt>
      <trkpt lat="43.18326" lon="1.01643">
        <ele>387.29003906</ele>
        <time>2021-10-17T09:00:08Z</time>
      </trkpt>
      <trkpt lat="43.18328" lon="1.01639">
        <ele>387.37002563</ele>
        <time>2021-10-17T09:00:09Z</time>
      </trkpt>
      <trkpt lat="43.1833" lon="1.01635">
        <ele>387.62002563</ele>
        <time>2021-10-17T09:00:10Z</time>
      </trkpt>
      <trkpt lat="43.18332" lon="1.01631">
        <ele>387.71002197</ele>
        <time>2021-10-17T09:00:11Z</time>
      </trkpt>
      <trkpt lat="43.18336" lon="1.01626">
        <ele>387.98001099</ele>
        <time>2021-10-17T09:00:12Z</time>
      </trkpt>
      <trkpt lat="43.18338" lon="1.01623">
        <ele>388.41000366</ele>
        <time>2021-10-17T09:00:13Z</time>
      </trkpt>
      <trkpt lat="43.1834" lon="1.0162">
        <ele>388.92001343</ele>
        <time>2021-10-17T09:00:14Z</time>
      </trkpt>
      <trkpt lat="43.18342" lon="1.01616">
        <ele>389.59002686</ele>
        <time>2021-10-17T09:00:15Z</time>
      </trkpt>
      <trkpt lat="43.18344" lon="1.01611">
        <ele>390.14001465</ele>
        <time>2021-10-17T09:00:16Z</time>
      </trkpt>
      <trkpt lat="43.18345" lon="1.01606">
        <ele>390.70001221</ele>
        <time>2021-10-17T09:00:17Z</time>
      </trkpt>
      <trkpt lat="43.18345" lon="1.01602">
        <ele>391.22000122</ele>
        <time>2021-10-17T09:00:18Z</time>
      </trkpt>
      <trkpt lat="43.18344" lon="1.01599">
        <ele>391.6499939</ele>
        <time>2021-10-17T09:00:19Z</time>
      </trkpt>
      <trkpt lat="43.18344" lon="1.01595">
        <ele>392.16998291</ele>
        <time>2021-10-17T09:00:20Z</time>
      </trkpt>
      <trkpt lat="43.18343" lon="1.01588">
        <ele>392.62997437</ele>
        <time>2021-10-17T09:00:21Z</time>
      </trkpt>
      <trkpt lat="43.18343" lon="1.01585">
        <ele>393.06997681</ele>
        <time>2021-10-17T09:00:22Z</time>
      </trkpt>
      <trkpt lat="43.18343" lon="1.01581">
        <ele>393.59997559</ele>
        <time>2021-10-17T09:00:23Z</time>
      </trkpt>
      <trkpt lat="43.18343" lon="1.01577">
        <ele>393.9699707</ele>
        <time>2021-10-17T09:00:24Z</time>
      </trkpt>
      <trkpt lat="43.18342" lon="1.01573">
        <ele>394.48995972</ele>
        <time>2021-10-17T09:00:25Z</time>
      </trkpt>
      <trkpt lat="43.18341" lon="1.01568">
        <ele>394.85995483</ele>
        <time>2021-10-17T09:00:26Z</time>
      </trkpt>
      <trkpt lat="43.18339" lon="1.01564">
        <ele>395.19995117</ele>
        <time>2021-10-17T09:00:27Z</time>
      </trkpt>
      <trkpt lat="43.18338" lon="1.01561">
        <ele>395.53994751</ele>
        <time>2021-10-17T09:00:28Z</time>
      </trkpt>
      <trkpt lat="43.18336" lon="1.01558">
        <ele>395.79995728</ele>
        <time>2021-10-17T09:00:29Z</time>
      </trkpt>
      <trkpt lat="43.18334" lon="1.01552">
        <ele>396.2199707</ele>
        <time>2021-10-17T09:00:30Z</time>
      </trkpt>
      <trkpt lat="43.18333" lon="1.01549">
        <ele>396.56997681</ele>
        <time>2021-10-17T09:00:31Z</time>
      </trkpt>
      <trkpt lat="43.18332" lon="1.01546">
        <ele>397.04998779</ele>
        <time>2021-10-17T09:00:32Z</time>
      </trkpt>
      <trkpt lat="43.18331" lon="1.01543">
        <ele>397.44000244</ele>
        <time>2021-10-17T09:00:33Z</time>
      </trkpt>
      <trkpt lat="43.18331" lon="1.01538">
        <ele>397.75</ele>
        <time>2021-10-17T09:00:34Z</time>
      </trkpt>
      <trkpt lat="43.1833" lon="1.01533">
        <ele>397.98999023</ele>
        <time>2021-10-17T09:00:35Z</time>
      </trkpt>
      <trkpt lat="43.18331" lon="1.01529">
        <ele>398.23999023</ele>
        <time>2021-10-17T09:00:36Z</time>
      </trkpt>
      <trkpt lat="43.18331" lon="1.01525">
        <ele>398.42999268</ele>
        <time>2021-10-17T09:00:37Z</time>
      </trkpt>
      <trkpt lat="43.18331" lon="1.01522">
        <ele>398.55999756</ele>
        <time>2021-10-17T09:00:38Z</time>
      </trkpt>
      <trkpt lat="43.18331" lon="1.01515">
        <ele>398.66998291</ele>
        <time>2021-10-17T09:00:39Z</time>
      </trkpt>
      <trkpt lat="43.18331" lon="1.01512">
        <ele>398.80999756</ele>
        <time>2021-10-17T09:00:40Z</time>
      </trkpt>
      <trkpt lat="43.18331" lon="1.01508">
        <ele>398.83999634</ele>
        <time>2021-10-17T09:00:41Z</time>
      </trkpt>
      <trkpt lat="43.1833" lon="1.01505">
        <ele>398.82000732</ele>
        <time>2021-10-17T09:00:42Z</time>
      </trkpt>
      <trkpt lat="43.18329" lon="1.01501">
        <ele>398.8999939</ele>
        <time>2021-10-17T09:00:43Z</time>
      </trkpt>
      <trkpt lat="43.18328" lon="1.01496">
        <ele>399.04998779</ele>
        <time>2021-10-17T09:00:44Z</time>
      </trkpt>
      <trkpt lat="43.18329" lon="1.01494">
        <ele>399.33999634</ele>
        <time>2021-10-17T09:00:45Z</time>
      </trkpt>
      <trkpt lat="43.18328" lon="1.01491">
        <ele>399.76998901</ele>
        <time>2021-10-17T09:00:46Z</time>
      </trkpt>
      <trkpt lat="43.18328" lon="1.01488">
        <ele>400.11999512</ele>
        <time>2021-10-17T09:00:47Z</time>
      </trkpt>
      <trkpt lat="43.18326" lon="1.01483">
        <ele>400.3500061</ele>
        <time>2021-10-17T09:00:48Z</time>
      </trkpt>
      <trkpt lat="43.18324" lon="1.0148">
        <ele>400.72000122</ele>
        <time>2021-10-17T09:00:49Z</time>
      </trkpt>
      <trkpt lat="43.18322" lon="1.01478">
        <ele>400.98999023</ele>
        <time>2021-10-17T09:00:50Z</time>
      </trkpt>
      <trkpt lat="43.18321" lon="1.01474">
        <ele>401.27999878</ele>
        <time>2021-10-17T09:00:51Z</time>
      </trkpt>
      <trkpt lat="43.18319" lon="1.01471">
        <ele>401.54000854</ele>
        <time>2021-10-17T09:00:52Z</time>
      </trkpt>
      <trkpt lat="43.18318" lon="1.01463">
        <ele>401.6499939</ele>
        <time>2021-10-17T09:00:53Z</time>
      </trkpt>
      <trkpt lat="43.18318" lon="1.01458">
        <ele>401.75</ele>
        <time>2021-10-17T09:00:54Z</time>
      </trkpt>
      <trkpt lat="43.18318" lon="1.01453">
        <ele>401.72000122</ele>
        <time>2021-10-17T09:00:55Z</time>
      </trkpt>
      <trkpt lat="43.18318" lon="1.01448">
        <ele>401.61999512</ele>
        <time>2021-10-17T09:00:56Z</time>
      </trkpt>
      <trkpt lat="43.18318" lon="1.01441">
        <ele>401.51000977</ele>
        <time>2021-10-17T09:00:57Z</time>
      </trkpt>
      <trkpt lat="43.18318" lon="1.01435">
        <ele>401.20001221</ele>
        <time>2021-10-17T09:00:58Z</time>
      </trkpt>
      <trkpt lat="43.18319" lon="1.01428">
        <ele>401.02001953</ele>
        <time>2021-10-17T09:00:59Z</time>
      </trkpt>
      <trkpt lat="43.18319" lon="1.01423">
        <ele>400.68002319</ele>
        <time>2021-10-17T09:01:00Z</time>
      </trkpt>
      <trkpt lat="43.1832" lon="1.01419">
        <ele>400.20001221</ele>
        <time>2021-10-17T09:01:01Z</time>
      </trkpt>
      <trkpt lat="43.18322" lon="1.01415">
        <ele>399.97000122</ele>
        <time>2021-10-17T09:01:02Z</time>
      </trkpt>
      <trkpt lat="43.18323" lon="1.01413">
        <ele>399.73001099</ele>
        <time>2021-10-17T09:01:03Z</time>
      </trkpt>
      <trkpt lat="43.18324" lon="1.01411">
        <ele>399.63000488</ele>
        <time>2021-10-17T09:01:04Z</time>
      </trkpt>
      <trkpt lat="43.18325" lon="1.0141">
        <ele>399.54000854</ele>
        <time>2021-10-17T09:01:05Z</time>
      </trkpt>
      <trkpt lat="43.18328" lon="1.01408">
        <ele>399.33999634</ele>
        <time>2021-10-17T09:01:06Z</time>
      </trkpt>
      <trkpt lat="43.1833" lon="1.01406">
        <ele>398.92999268</ele>
        <time>2021-10-17T09:01:07Z</time>
      </trkpt>
      <trkpt lat="43.18332" lon="1.01405">
        <ele>398.92999268</ele>
        <time>2021-10-17T09:01:08Z</time>
      </trkpt>
      <trkpt lat="43.18334" lon="1.01404">
        <ele>398.69000244</ele>
        <time>2021-10-17T09:01:09Z</time>
      </trkpt>
      <trkpt lat="43.18336" lon="1.01403">
        <ele>398.45999146</ele>
        <time>2021-10-17T09:01:10Z</time>
      </trkpt>
      <trkpt lat="43.1834" lon="1.01402">
        <ele>398.10998535</ele>
        <time>2021-10-17T09:01:11Z</time>
      </trkpt>
      <trkpt lat="43.18344" lon="1.01402">
        <ele>397.75997925</ele>
        <time>2021-10-17T09:01:12Z</time>
      </trkpt>
      <trkpt lat="43.18347" lon="1.01403">
        <ele>397.43997192</ele>
        <time>2021-10-17T09:01:13Z</time>
      </trkpt>
      <trkpt lat="43.1835" lon="1.01404">
        <ele>397.15997314</ele>
        <time>2021-10-17T09:01:14Z</time>
      </trkpt>
      <trkpt lat="43.18354" lon="1.01407">
        <ele>396.80996704</ele>
        <time>2021-10-17T09:01:15Z</time>
      </trkpt>
      <trkpt lat="43.18356" lon="1.0141">
        <ele>396.55996704</ele>
        <time>2021-10-17T09:01:16Z</time>
      </trkpt>
      <trkpt lat="43.18358" lon="1.01413">
        <ele>396.25997925</ele>
        <time>2021-10-17T09:01:17Z</time>
      </trkpt>
      <trkpt lat="43.18358" lon="1.01416">
        <ele>396.01998901</ele>
        <time>2021-10-17T09:01:18Z</time>
      </trkpt>
      <trkpt lat="43.18359" lon="1.01418">
        <ele>396</ele>
        <time>2021-10-17T09:01:19Z</time>
      </trkpt>
      <trkpt lat="43.18359" lon="1.0142">
        <ele>395.91000366</ele>
        <time>2021-10-17T09:01:20Z</time>
      </trkpt>
      <trkpt lat="43.1836" lon="1.01421">
        <ele>395.88000488</ele>
        <time>2021-10-17T09:01:21Z</time>
      </trkpt>
      <trkpt lat="43.1836" lon="1.0142">
        <ele>395.73001099</ele>
        <time>2021-10-17T09:01:22Z</time>
      </trkpt>
      <trkpt lat="43.18361" lon="1.0142">
        <ele>395.52999878</ele>
        <time>2021-10-17T09:01:23Z</time>
      </trkpt>
      <trkpt lat="43.18363" lon="1.01419">
        <ele>395.29998779</ele>
        <time>2021-10-17T09:01:24Z</time>
      </trkpt>
      <trkpt lat="43.18365" lon="1.01416">
        <ele>394.97998047</ele>
        <time>2021-10-17T09:01:25Z</time>
      </trkpt>
      <trkpt lat="43.18365" lon="1.01415">
        <ele>394.77996826</ele>
        <time>2021-10-17T09:01:26Z</time>
      </trkpt>
      <trkpt lat="43.18366" lon="1.01414">
        <ele>394.53997803</ele>
        <time>2021-10-17T09:01:27Z</time>
      </trkpt>
      <trkpt lat="43.18366" lon="1.01414">
        <ele>394.39996338</ele>
        <time>2021-10-17T09:01:28Z</time>
      </trkpt>
      <trkpt lat="43.18366" lon="1.01401">
        <ele>394.07998657</ele>
        <time>2021-10-17T09:01:43Z</time>
      </trkpt>
      <trkpt lat="43.18366" lon="1.01398">
        <ele>394.01998901</ele>
        <time>2021-10-17T09:01:44Z</time>
      </trkpt>
      <trkpt lat="43.18366" lon="1.01395">
        <ele>394.07998657</ele>
        <time>2021-10-17T09:01:45Z</time>
      </trkpt>
      <trkpt lat="43.18367" lon="1.01392">
        <ele>393.90997314</ele>
        <time>2021-10-17T09:01:46Z</time>
      </trkpt>
      <trkpt lat="43.18367" lon="1.01389">
        <ele>394.14996338</ele>
        <time>2021-10-17T09:01:47Z</time>
      </trkpt>
      <trkpt lat="43.18367" lon="1.01387">
        <ele>394.49996948</ele>
        <time>2021-10-17T09:01:48Z</time>
      </trkpt>
      <trkpt lat="43.18368" lon="1.01384">
        <ele>394.69998169</ele>
        <time>2021-10-17T09:01:49Z</time>
      </trkpt>
      <trkpt lat="43.18368" lon="1.01382">
        <ele>395.08999634</ele>
        <time>2021-10-17T09:01:50Z</time>
      </trkpt>
      <trkpt lat="43.1837" lon="1.01377">
        <ele>395.11999512</ele>
        <time>2021-10-17T09:01:51Z</time>
      </trkpt>
      <trkpt lat="43.1837" lon="1.01375">
        <ele>395.04998779</ele>
        <time>2021-10-17T09:01:52Z</time>
      </trkpt>
      <trkpt lat="43.18372" lon="1.01373">
        <ele>395.07998657</ele>
        <time>2021-10-17T09:01:53Z</time>
      </trkpt>
      <trkpt lat="43.18373" lon="1.01372">
        <ele>395.01998901</ele>
        <time>2021-10-17T09:01:54Z</time>
      </trkpt>
      <trkpt lat="43.18374" lon="1.0137">
        <ele>394.72000122</ele>
        <time>2021-10-17T09:01:55Z</time>
      </trkpt>
      <trkpt lat="43.18374" lon="1.01365">
        <ele>394.5</ele>
        <time>2021-10-17T09:01:56Z</time>
      </trkpt>
      <trkpt lat="43.18375" lon="1.01363">
        <ele>394.10998535</ele>
        <time>2021-10-17T09:01:57Z</time>
      </trkpt>
      <trkpt lat="43.18375" lon="1.01361">
        <ele>393.81997681</ele>
        <time>2021-10-17T09:01:58Z</time>
      </trkpt>
      <trkpt lat="43.18376" lon="1.01361">
        <ele>393.82998657</ele>
        <time>2021-10-17T09:01:59Z</time>
      </trkpt>
      <trkpt lat="43.18379" lon="1.0136">
        <ele>393.72998047</ele>
        <time>2021-10-17T09:02:00Z</time>
      </trkpt>
      <trkpt lat="43.1838" lon="1.01359">
        <ele>393.62997437</ele>
        <time>2021-10-17T09:02:01Z</time>
      </trkpt>
      <trkpt lat="43.18381" lon="1.01356">
        <ele>393.45996094</ele>
        <time>2021-10-17T09:02:02Z</time>
      </trkpt>
      <trkpt lat="43.18382" lon="1.01353">
        <ele>393.22994995</ele>
        <time>2021-10-17T09:02:03Z</time>
      </trkpt>
      <trkpt lat="43.18382" lon="1.01348">
        <ele>392.8699646</ele>
        <time>2021-10-17T09:02:04Z</time>
      </trkpt>
      <trkpt lat="43.18382" lon="1.01343">
        <ele>392.77996826</ele>
        <time>2021-10-17T09:02:05Z</time>
      </trkpt>
      <trkpt lat="43.18382" lon="1.01338">
        <ele>392.66998291</ele>
        <time>2021-10-17T09:02:06Z</time>
      </trkpt>
      <trkpt lat="43.18382" lon="1.01334">
        <ele>392.57998657</ele>
        <time>2021-10-17T09:02:07Z</time>
      </trkpt>
      <trkpt lat="43.18382" lon="1.0133">
        <ele>392.63998413</ele>
        <time>2021-10-17T09:02:08Z</time>
      </trkpt>
      <trkpt lat="43.18381" lon="1.01324">
        <ele>392.51998901</ele>
        <time>2021-10-17T09:02:09Z</time>
      </trkpt>
      <trkpt lat="43.18381" lon="1.0132">
        <ele>392.42999268</ele>
        <time>2021-10-17T09:02:10Z</time>
      </trkpt>
      <trkpt lat="43.18382" lon="1.01316">
        <ele>392.41998291</ele>
        <time>2021-10-17T09:02:11Z</time>
      </trkpt>
      <trkpt lat="43.18384" lon="1.01312">
        <ele>392.33999634</ele>
        <time>2021-10-17T09:02:12Z</time>
      </trkpt>
      <trkpt lat="43.18385" lon="1.0131">
        <ele>392.30999756</ele>
        <time>2021-10-17T09:02:13Z</time>
      </trkpt>
      <trkpt lat="43.18387" lon="1.01306">
        <ele>392.26998901</ele>
        <time>2021-10-17T09:02:14Z</time>
      </trkpt>
      <trkpt lat="43.18388" lon="1.01304">
        <ele>392.16998291</ele>
        <time>2021-10-17T09:02:15Z</time>
      </trkpt>
      <trkpt lat="43.18391" lon="1.01304">
        <ele>392.07998657</ele>
        <time>2021-10-17T09:02:16Z</time>
      </trkpt>
      <trkpt lat="43.18392" lon="1.01303">
        <ele>391.79998779</ele>
        <time>2021-10-17T09:02:17Z</time>
      </trkpt>
      <trkpt lat="43.18395" lon="1.01302">
        <ele>391.50997925</ele>
        <time>2021-10-17T09:02:18Z</time>
      </trkpt>
      <trkpt lat="43.18395" lon="1.01299">
        <ele>391.10998535</ele>
        <time>2021-10-17T09:02:19Z</time>
      </trkpt>
      <trkpt lat="43.18395" lon="1.01297">
        <ele>390.77999878</ele>
        <time>2021-10-17T09:02:20Z</time>
      </trkpt>
      <trkpt lat="43.18395" lon="1.01294">
        <ele>390.52999878</ele>
        <time>2021-10-17T09:02:21Z</time>
      </trkpt>
      <trkpt lat="43.18394" lon="1.01293">
        <ele>390.32000732</ele>
        <time>2021-10-17T09:02:22Z</time>
      </trkpt>
      <trkpt lat="43.18395" lon="1.01291">
        <ele>390.14001465</ele>
        <time>2021-10-17T09:02:23Z</time>
      </trkpt>
      <trkpt lat="43.18395" lon="1.01289">
        <ele>390.02001953</ele>
        <time>2021-10-17T09:02:24Z</time>
      </trkpt>
      <trkpt lat="43.18395" lon="1.01286">
        <ele>389.89001465</ele>
        <time>2021-10-17T09:02:25Z</time>
      </trkpt>
      <trkpt lat="43.18395" lon="1.01281">
        <ele>389.69000244</ele>
        <time>2021-10-17T09:02:26Z</time>
      </trkpt>
      <trkpt lat="43.18395" lon="1.01275">
        <ele>389.44000244</ele>
        <time>2021-10-17T09:02:27Z</time>
      </trkpt>
      <trkpt lat="43.18395" lon="1.01272">
        <ele>389.13000488</ele>
        <time>2021-10-17T09:02:28Z</time>
      </trkpt>
      <trkpt lat="43.18395" lon="1.01269">
        <ele>388.89001465</ele>
        <time>2021-10-17T09:02:29Z</time>
      </trkpt>
      <trkpt lat="43.18396" lon="1.01267">
        <ele>388.72000122</ele>
        <time>2021-10-17T09:02:30Z</time>
      </trkpt>
      <trkpt lat="43.18396" lon="1.01266">
        <ele>388.69000244</ele>
        <time>2021-10-17T09:02:31Z</time>
      </trkpt>
      <trkpt lat="43.18395" lon="1.01263">
        <ele>388.66000366</ele>
        <time>2021-10-17T09:02:32Z</time>
      </trkpt>
      <trkpt lat="43.18395" lon="1.0126">
        <ele>388.57000732</ele>
        <time>2021-10-17T09:02:33Z</time>
      </trkpt>
      <trkpt lat="43.18395" lon="1.01257">
        <ele>388.48001099</ele>
        <time>2021-10-17T09:02:34Z</time>
      </trkpt>
      <trkpt lat="43.18395" lon="1.01254">
        <ele>388.3500061</ele>
        <time>2021-10-17T09:02:35Z</time>
      </trkpt>
      <trkpt lat="43.18395" lon="1.01249">
        <ele>388.05999756</ele>
        <time>2021-10-17T09:02:36Z</time>
      </trkpt>
      <trkpt lat="43.18396" lon="1.01246">
        <ele>387.73001099</ele>
        <time>2021-10-17T09:02:37Z</time>
      </trkpt>
      <trkpt lat="43.18396" lon="1.01243">
        <ele>387.36001587</ele>
        <time>2021-10-17T09:02:38Z</time>
      </trkpt>
      <trkpt lat="43.18396" lon="1.0124">
        <ele>386.80001831</ele>
        <time>2021-10-17T09:02:39Z</time>
      </trkpt>
      <trkpt lat="43.18396" lon="1.01237">
        <ele>386.41000366</ele>
        <time>2021-10-17T09:02:40Z</time>
      </trkpt>
      <trkpt lat="43.18394" lon="1.01232">
        <ele>386.11001587</ele>
        <time>2021-10-17T09:02:41Z</time>
      </trkpt>
      <trkpt lat="43.18393" lon="1.01229">
        <ele>385.69000244</ele>
        <time>2021-10-17T09:02:42Z</time>
      </trkpt>
      <trkpt lat="43.18391" lon="1.01226">
        <ele>385.36001587</ele>
        <time>2021-10-17T09:02:43Z</time>
      </trkpt>
      <trkpt lat="43.18389" lon="1.01222">
        <ele>385.08001709</ele>
        <time>2021-10-17T09:02:44Z</time>
      </trkpt>
      <trkpt lat="43.18387" lon="1.01218">
        <ele>384.71002197</ele>
        <time>2021-10-17T09:02:45Z</time>
      </trkpt>
      <trkpt lat="43.18386" lon="1.01216">
        <ele>384.55001831</ele>
        <time>2021-10-17T09:02:46Z</time>
      </trkpt>
      <trkpt lat="43.18385" lon="1.01213">
        <ele>384.48001099</ele>
        <time>2021-10-17T09:02:47Z</time>
      </trkpt>
      <trkpt lat="43.18384" lon="1.01211">
        <ele>384.15002441</ele>
        <time>2021-10-17T09:02:48Z</time>
      </trkpt>
      <trkpt lat="43.18383" lon="1.01208">
        <ele>383.8800354</ele>
        <time>2021-10-17T09:02:49Z</time>
      </trkpt>
      <trkpt lat="43.18382" lon="1.01205">
        <ele>383.50003052</ele>
        <time>2021-10-17T09:02:50Z</time>
      </trkpt>
      <trkpt lat="43.18381" lon="1.01202">
        <ele>382.97003174</ele>
        <time>2021-10-17T09:02:51Z</time>
      </trkpt>
      <trkpt lat="43.18381" lon="1.01198">
        <ele>382.51004028</ele>
        <time>2021-10-17T09:02:52Z</time>
      </trkpt>
      <trkpt lat="43.18382" lon="1.01195">
        <ele>381.96005249</ele>
        <time>2021-10-17T09:02:53Z</time>
      </trkpt>
      <trkpt lat="43.18382" lon="1.01191">
        <ele>381.38006592</ele>
        <time>2021-10-17T09:02:54Z</time>
      </trkpt>
      <trkpt lat="43.18382" lon="1.01187">
        <ele>380.87005615</ele>
        <time>2021-10-17T09:02:55Z</time>
      </trkpt>
      <trkpt lat="43.18382" lon="1.01183">
        <ele>380.36004639</ele>
        <time>2021-10-17T09:02:56Z</time>
      </trkpt>
      <trkpt lat="43.18383" lon="1.01179">
        <ele>379.82003784</ele>
        <time>2021-10-17T09:02:57Z</time>
      </trkpt>
      <trkpt lat="43.18384" lon="1.01176">
        <ele>379.24005127</ele>
        <time>2021-10-17T09:02:58Z</time>
      </trkpt>
      <trkpt lat="43.18385" lon="1.01171">
        <ele>378.53005981</ele>
        <time>2021-10-17T09:02:59Z</time>
      </trkpt>
      <trkpt lat="43.18385" lon="1.01169">
        <ele>377.82006836</ele>
        <time>2021-10-17T09:03:00Z</time>
      </trkpt>
      <trkpt lat="43.18386" lon="1.01167">
        <ele>377.22006226</ele>
        <time>2021-10-17T09:03:01Z</time>
      </trkpt>
      <trkpt lat="43.18387" lon="1.01164">
        <ele>376.62005615</ele>
        <time>2021-10-17T09:03:02Z</time>
      </trkpt>
      <trkpt lat="43.18388" lon="1.01161">
        <ele>376.08004761</ele>
        <time>2021-10-17T09:03:03Z</time>
      </trkpt>
      <trkpt lat="43.18388" lon="1.01157">
        <ele>375.53005981</ele>
        <time>2021-10-17T09:03:04Z</time>
      </trkpt>
      <trkpt lat="43.18388" lon="1.01155">
        <ele>374.93005371</ele>
        <time>2021-10-17T09:03:05Z</time>
      </trkpt>
      <trkpt lat="43.18388" lon="1.01152">
        <ele>374.39004517</ele>
        <time>2021-10-17T09:03:06Z</time>
      </trkpt>
      <trkpt lat="43.18389" lon="1.01148">
        <ele>373.83004761</ele>
        <time>2021-10-17T09:03:07Z</time>
      </trkpt>
      <trkpt lat="43.1839" lon="1.01146">
        <ele>373.37005615</ele>
        <time>2021-10-17T09:03:08Z</time>
      </trkpt>
      <trkpt lat="43.1839" lon="1.01144">
        <ele>372.84005737</ele>
        <time>2021-10-17T09:03:09Z</time>
      </trkpt>
      <trkpt lat="43.1839" lon="1.01141">
        <ele>372.17004395</ele>
        <time>2021-10-17T09:03:10Z</time>
      </trkpt>
      <trkpt lat="43.18389" lon="1.01139">
        <ele>371.51004028</ele>
        <time>2021-10-17T09:03:11Z</time>
      </trkpt>
      <trkpt lat="43.18387" lon="1.01134">
        <ele>370.74005127</ele>
        <time>2021-10-17T09:03:12Z</time>
      </trkpt>
      <trkpt lat="43.18386" lon="1.0113">
        <ele>370.05004883</ele>
        <time>2021-10-17T09:03:13Z</time>
      </trkpt>
      <trkpt lat="43.18383" lon="1.01126">
        <ele>369.39004517</ele>
        <time>2021-10-17T09:03:14Z</time>
      </trkpt>
      <trkpt lat="43.18383" lon="1.01122">
        <ele>368.87005615</ele>
        <time>2021-10-17T09:03:15Z</time>
      </trkpt>
      <trkpt lat="43.18381" lon="1.01118">
        <ele>368.31005859</ele>
        <time>2021-10-17T09:03:16Z</time>
      </trkpt>
      <trkpt lat="43.18378" lon="1.01113">
        <ele>367.83004761</ele>
        <time>2021-10-17T09:03:17Z</time>
      </trkpt>
      <trkpt lat="43.18377" lon="1.01109">
        <ele>367.49005127</ele>
        <time>2021-10-17T09:03:18Z</time>
      </trkpt>
      <trkpt lat="43.18376" lon="1.01106">
        <ele>367.03005981</ele>
        <time>2021-10-17T09:03:19Z</time>
      </trkpt>
      <trkpt lat="43.18375" lon="1.01103">
        <ele>366.53005981</ele>
        <time>2021-10-17T09:03:20Z</time>
      </trkpt>
      <trkpt lat="43.18372" lon="1.01096">
        <ele>365.90005493</ele>
        <time>2021-10-17T09:03:21Z</time>
      </trkpt>
      <trkpt lat="43.18371" lon="1.01093">
        <ele>365.27005005</ele>
        <time>2021-10-17T09:03:22Z</time>
      </trkpt>
      <trkpt lat="43.1837" lon="1.01089">
        <ele>364.57003784</ele>
        <time>2021-10-17T09:03:23Z</time>
      </trkpt>
      <trkpt lat="43.18371" lon="1.01086">
        <ele>364.01004028</ele>
        <time>2021-10-17T09:03:24Z</time>
      </trkpt>
      <trkpt lat="43.18371" lon="1.01081">
        <ele>363.40005493</ele>
        <time>2021-10-17T09:03:25Z</time>
      </trkpt>
      <trkpt lat="43.18372" lon="1.01074">
        <ele>362.78005981</ele>
        <time>2021-10-17T09:03:26Z</time>
      </trkpt>
      <trkpt lat="43.18373" lon="1.01069">
        <ele>362.1600647</ele>
        <time>2021-10-17T09:03:27Z</time>
      </trkpt>
      <trkpt lat="43.18372" lon="1.01064">
        <ele>361.55007935</ele>
        <time>2021-10-17T09:03:28Z</time>
      </trkpt>
      <trkpt lat="43.18372" lon="1.01059">
        <ele>361.15008545</ele>
        <time>2021-10-17T09:03:29Z</time>
      </trkpt>
      <trkpt lat="43.18372" lon="1.01051">
        <ele>360.68008423</ele>
        <time>2021-10-17T09:03:30Z</time>
      </trkpt>
      <trkpt lat="43.18373" lon="1.01047">
        <ele>360.30007935</ele>
        <time>2021-10-17T09:03:31Z</time>
      </trkpt>
      <trkpt lat="43.18372" lon="1.01043">
        <ele>359.83007812</ele>
        <time>2021-10-17T09:03:32Z</time>
      </trkpt>
      <trkpt lat="43.18372" lon="1.01039">
        <ele>359.29006958</ele>
        <time>2021-10-17T09:03:33Z</time>
      </trkpt>
      <trkpt lat="43.1837" lon="1.01034">
        <ele>358.77008057</ele>
        <time>2021-10-17T09:03:34Z</time>
      </trkpt>
      <trkpt lat="43.18369" lon="1.01028">
        <ele>358.09008789</ele>
        <time>2021-10-17T09:03:35Z</time>
      </trkpt>
      <trkpt lat="43.18369" lon="1.01025">
        <ele>357.59008789</ele>
        <time>2021-10-17T09:03:36Z</time>
      </trkpt>
      <trkpt lat="43.18369" lon="1.01022">
        <ele>357.0401001</ele>
        <time>2021-10-17T09:03:37Z</time>
      </trkpt>
      <trkpt lat="43.18368" lon="1.01018">
        <ele>356.46011353</ele>
        <time>2021-10-17T09:03:38Z</time>
      </trkpt>
      <trkpt lat="43.18368" lon="1.01014">
        <ele>355.98010254</ele>
        <time>2021-10-17T09:03:39Z</time>
      </trkpt>
      <trkpt lat="43.18369" lon="1.01008">
        <ele>355.35009766</ele>
        <time>2021-10-17T09:03:40Z</time>
      </trkpt>
      <trkpt lat="43.1837" lon="1.01004">
        <ele>354.7401123</ele>
        <time>2021-10-17T09:03:41Z</time>
      </trkpt>
      <trkpt lat="43.1837" lon="1.01">
        <ele>354.06011963</ele>
        <time>2021-10-17T09:03:42Z</time>
      </trkpt>
      <trkpt lat="43.1837" lon="1.00996">
        <ele>353.29013062</ele>
        <time>2021-10-17T09:03:43Z</time>
      </trkpt>
      <trkpt lat="43.1837" lon="1.00991">
        <ele>352.46014404</ele>
        <time>2021-10-17T09:03:44Z</time>
      </trkpt>
      <trkpt lat="43.1837" lon="1.00987">
        <ele>351.54013062</ele>
        <time>2021-10-17T09:03:45Z</time>
      </trkpt>
      <trkpt lat="43.18371" lon="1.00984">
        <ele>350.47012329</ele>
        <time>2021-10-17T09:03:46Z</time>
      </trkpt>
      <trkpt lat="43.18372" lon="1.0098">
        <ele>349.62011719</ele>
        <time>2021-10-17T09:03:47Z</time>
      </trkpt>
      <trkpt lat="43.18372" lon="1.00973">
        <ele>348.56011963</ele>
        <time>2021-10-17T09:03:48Z</time>
      </trkpt>
      <trkpt lat="43.18371" lon="1.0097">
        <ele>347.45013428</ele>
        <time>2021-10-17T09:03:49Z</time>
      </trkpt>
      <trkpt lat="43.18372" lon="1.00968">
        <ele>346.4201355</ele>
        <time>2021-10-17T09:03:50Z</time>
      </trkpt>
      <trkpt lat="43.18372" lon="1.00964">
        <ele>345.32012939</ele>
        <time>2021-10-17T09:03:51Z</time>
      </trkpt>
      <trkpt lat="43.18372" lon="1.0096">
        <ele>344.34011841</ele>
        <time>2021-10-17T09:03:52Z</time>
      </trkpt>
      <trkpt lat="43.18372" lon="1.00955">
        <ele>343.41012573</ele>
        <time>2021-10-17T09:03:53Z</time>
      </trkpt>
      <trkpt lat="43.18372" lon="1.00952">
        <ele>342.46011353</ele>
        <time>2021-10-17T09:03:54Z</time>
      </trkpt>
      <trkpt lat="43.18371" lon="1.00948">
        <ele>341.40011597</ele>
        <time>2021-10-17T09:03:55Z</time>
      </trkpt>
      <trkpt lat="43.1837" lon="1.00945">
        <ele>340.55010986</ele>
        <time>2021-10-17T09:03:56Z</time>
      </trkpt>
      <trkpt lat="43.18369" lon="1.00939">
        <ele>339.70010376</ele>
        <time>2021-10-17T09:03:57Z</time>
      </trkpt>
      <trkpt lat="43.18368" lon="1.00934">
        <ele>339.06008911</ele>
        <time>2021-10-17T09:03:58Z</time>
      </trkpt>
      <trkpt lat="43.18368" lon="1.00928">
        <ele>338.56008911</ele>
        <time>2021-10-17T09:03:59Z</time>
      </trkpt>
      <trkpt lat="43.18367" lon="1.00924">
        <ele>338.0401001</ele>
        <time>2021-10-17T09:04:00Z</time>
      </trkpt>
      <trkpt lat="43.18366" lon="1.00918">
        <ele>337.28009033</ele>
        <time>2021-10-17T09:04:01Z</time>
      </trkpt>
      <trkpt lat="43.18364" lon="1.00911">
        <ele>336.37008667</ele>
        <time>2021-10-17T09:04:02Z</time>
      </trkpt>
      <trkpt lat="43.18362" lon="1.00906">
        <ele>335.25009155</ele>
        <time>2021-10-17T09:04:03Z</time>
      </trkpt>
      <trkpt lat="43.18361" lon="1.00901">
        <ele>333.96008301</ele>
        <time>2021-10-17T09:04:04Z</time>
      </trkpt>
      <trkpt lat="43.1836" lon="1.00896">
        <ele>332.94009399</ele>
        <time>2021-10-17T09:04:05Z</time>
      </trkpt>
      <trkpt lat="43.18358" lon="1.00887">
        <ele>331.92010498</ele>
        <time>2021-10-17T09:04:06Z</time>
      </trkpt>
      <trkpt lat="43.18357" lon="1.00882">
        <ele>331.11010742</ele>
        <time>2021-10-17T09:04:07Z</time>
      </trkpt>
      <trkpt lat="43.18357" lon="1.00878">
        <ele>330.47009277</ele>
        <time>2021-10-17T09:04:08Z</time>
      </trkpt>
      <trkpt lat="43.18357" lon="1.00874">
        <ele>329.93008423</ele>
        <time>2021-10-17T09:04:09Z</time>
      </trkpt>
      <trkpt lat="43.18355" lon="1.00868">
        <ele>329.44009399</ele>
        <time>2021-10-17T09:04:10Z</time>
      </trkpt>
      <trkpt lat="43.18354" lon="1.00864">
        <ele>328.88009644</ele>
        <time>2021-10-17T09:04:11Z</time>
      </trkpt>
      <trkpt lat="43.18353" lon="1.00859">
        <ele>328.25009155</ele>
        <time>2021-10-17T09:04:12Z</time>
      </trkpt>
      <trkpt lat="43.18351" lon="1.00855">
        <ele>327.40008545</ele>
        <time>2021-10-17T09:04:13Z</time>
      </trkpt>
      <trkpt lat="43.18349" lon="1.00853">
        <ele>326.59008789</ele>
        <time>2021-10-17T09:04:14Z</time>
      </trkpt>
      <trkpt lat="43.18347" lon="1.00848">
        <ele>325.72009277</ele>
        <time>2021-10-17T09:04:15Z</time>
      </trkpt>
      <trkpt lat="43.18346" lon="1.00844">
        <ele>324.96008301</ele>
        <time>2021-10-17T09:04:16Z</time>
      </trkpt>
      <trkpt lat="43.18344" lon="1.0084">
        <ele>324.29006958</ele>
        <time>2021-10-17T09:04:17Z</time>
      </trkpt>
      <trkpt lat="43.18342" lon="1.00837">
        <ele>323.53005981</ele>
        <time>2021-10-17T09:04:18Z</time>
      </trkpt>
      <trkpt lat="43.18341" lon="1.00834">
        <ele>322.88006592</ele>
        <time>2021-10-17T09:04:19Z</time>
      </trkpt>
      <trkpt lat="43.18339" lon="1.00829">
        <ele>321.93005371</ele>
        <time>2021-10-17T09:04:20Z</time>
      </trkpt>
      <trkpt lat="43.18339" lon="1.00827">
        <ele>321.05004883</ele>
        <time>2021-10-17T09:04:21Z</time>
      </trkpt>
      <trkpt lat="43.18337" lon="1.00824">
        <ele>320.17004395</ele>
        <time>2021-10-17T09:04:22Z</time>
      </trkpt>
      <trkpt lat="43.18335" lon="1.00821">
        <ele>319.21005249</ele>
        <time>2021-10-17T09:04:23Z</time>
      </trkpt>
      <trkpt lat="43.18333" lon="1.00816">
        <ele>318.28005981</ele>
        <time>2021-10-17T09:04:24Z</time>
      </trkpt>
      <trkpt lat="43.18331" lon="1.00812">
        <ele>317.18005371</ele>
        <time>2021-10-17T09:04:25Z</time>
      </trkpt>
      <trkpt lat="43.18329" lon="1.00807">
        <ele>316.24005127</ele>
        <time>2021-10-17T09:04:26Z</time>
      </trkpt>
      <trkpt lat="43.18327" lon="1.00804">
        <ele>315.34005737</ele>
        <time>2021-10-17T09:04:27Z</time>
      </trkpt>
      <trkpt lat="43.18326" lon="1.00801">
        <ele>314.71005249</ele>
        <time>2021-10-17T09:04:28Z</time>
      </trkpt>
      <trkpt lat="43.18325" lon="1.00796">
        <ele>314.34005737</ele>
        <time>2021-10-17T09:04:29Z</time>
      </trkpt>
      <trkpt lat="43.18325" lon="1.00794">
        <ele>313.88006592</ele>
        <time>2021-10-17T09:04:30Z</time>
      </trkpt>
      <trkpt lat="43.18324" lon="1.0079">
        <ele>313.48007202</ele>
        <time>2021-10-17T09:04:31Z</time>
      </trkpt>
      <trkpt lat="43.18324" lon="1.00786">
        <ele>312.96008301</ele>
        <time>2021-10-17T09:04:32Z</time>
      </trkpt>
      <trkpt lat="43.18323" lon="1.00782">
        <ele>312.43008423</ele>
        <time>2021-10-17T09:04:33Z</time>
      </trkpt>
      <trkpt lat="43.18323" lon="1.00777">
        <ele>312.06008911</ele>
        <time>2021-10-17T09:04:34Z</time>
      </trkpt>
      <trkpt lat="43.18322" lon="1.00773">
        <ele>311.70010376</ele>
        <time>2021-10-17T09:04:35Z</time>
      </trkpt>
      <trkpt lat="43.18321" lon="1.00769">
        <ele>311.59011841</ele>
        <time>2021-10-17T09:04:36Z</time>
      </trkpt>
      <trkpt lat="43.18321" lon="1.00766">
        <ele>311.38012695</ele>
        <time>2021-10-17T09:04:37Z</time>
      </trkpt>
      <trkpt lat="43.1832" lon="1.00761">
        <ele>311.12011719</ele>
        <time>2021-10-17T09:04:38Z</time>
      </trkpt>
      <trkpt lat="43.18319" lon="1.00757">
        <ele>310.68011475</ele>
        <time>2021-10-17T09:04:39Z</time>
      </trkpt>
      <trkpt lat="43.18318" lon="1.00753">
        <ele>310.20010376</ele>
        <time>2021-10-17T09:04:40Z</time>
      </trkpt>
      <trkpt lat="43.18318" lon="1.0075">
        <ele>309.93011475</ele>
        <time>2021-10-17T09:04:41Z</time>
      </trkpt>
      <trkpt lat="43.18316" lon="1.00743">
        <ele>309.35012817</ele>
        <time>2021-10-17T09:04:42Z</time>
      </trkpt>
      <trkpt lat="43.18315" lon="1.00739">
        <ele>308.7701416</ele>
        <time>2021-10-17T09:04:43Z</time>
      </trkpt>
      <trkpt lat="43.18313" lon="1.00734">
        <ele>308.05014038</ele>
        <time>2021-10-17T09:04:44Z</time>
      </trkpt>
      <trkpt lat="43.1831" lon="1.00729">
        <ele>307.15014648</ele>
        <time>2021-10-17T09:04:45Z</time>
      </trkpt>
      <trkpt lat="43.18309" lon="1.00725">
        <ele>306.63015747</ele>
        <time>2021-10-17T09:04:46Z</time>
      </trkpt>
      <trkpt lat="43.18308" lon="1.00719">
        <ele>306.35015869</ele>
        <time>2021-10-17T09:04:47Z</time>
      </trkpt>
      <trkpt lat="43.18307" lon="1.00716">
        <ele>306.26016235</ele>
        <time>2021-10-17T09:04:48Z</time>
      </trkpt>
      <trkpt lat="43.18307" lon="1.00714">
        <ele>306.20016479</ele>
        <time>2021-10-17T09:04:49Z</time>
      </trkpt>
      <trkpt lat="43.18306" lon="1.00711">
        <ele>306.04016113</ele>
        <time>2021-10-17T09:04:50Z</time>
      </trkpt>
      <trkpt lat="43.18305" lon="1.00709">
        <ele>305.85015869</ele>
        <time>2021-10-17T09:04:51Z</time>
      </trkpt>
      <trkpt lat="43.18304" lon="1.00707">
        <ele>305.52017212</ele>
        <time>2021-10-17T09:04:52Z</time>
      </trkpt>
      <trkpt lat="43.18302" lon="1.00704">
        <ele>305.28018188</ele>
        <time>2021-10-17T09:04:53Z</time>
      </trkpt>
      <trkpt lat="43.18302" lon="1.00701">
        <ele>304.79019165</ele>
        <time>2021-10-17T09:04:54Z</time>
      </trkpt>
      <trkpt lat="43.18301" lon="1.00699">
        <ele>304.150177</ele>
        <time>2021-10-17T09:04:55Z</time>
      </trkpt>
      <trkpt lat="43.18302" lon="1.00696">
        <ele>303.73016357</ele>
        <time>2021-10-17T09:04:56Z</time>
      </trkpt>
      <trkpt lat="43.183" lon="1.00694">
        <ele>303.04016113</ele>
        <time>2021-10-17T09:04:57Z</time>
      </trkpt>
      <trkpt lat="43.18299" lon="1.00691">
        <ele>302.72015381</ele>
        <time>2021-10-17T09:04:58Z</time>
      </trkpt>
      <trkpt lat="43.18298" lon="1.00689">
        <ele>302.38015747</ele>
        <time>2021-10-17T09:04:59Z</time>
      </trkpt>
      <trkpt lat="43.18297" lon="1.00686">
        <ele>301.95016479</ele>
        <time>2021-10-17T09:05:00Z</time>
      </trkpt>
      <trkpt lat="43.18296" lon="1.00684">
        <ele>301.57015991</ele>
        <time>2021-10-17T09:05:01Z</time>
      </trkpt>
      <trkpt lat="43.18295" lon="1.00682">
        <ele>301.14016724</ele>
        <time>2021-10-17T09:05:02Z</time>
      </trkpt>
      <trkpt lat="43.18293" lon="1.00681">
        <ele>300.81018066</ele>
        <time>2021-10-17T09:05:03Z</time>
      </trkpt>
      <trkpt lat="43.18291" lon="1.00679">
        <ele>300.37017822</ele>
        <time>2021-10-17T09:05:04Z</time>
      </trkpt>
      <trkpt lat="43.1829" lon="1.00677">
        <ele>299.83016968</ele>
        <time>2021-10-17T09:05:05Z</time>
      </trkpt>
      <trkpt lat="43.18288" lon="1.00674">
        <ele>299.09017944</ele>
        <time>2021-10-17T09:05:06Z</time>
      </trkpt>
      <trkpt lat="43.18286" lon="1.00671">
        <ele>298.26019287</ele>
        <time>2021-10-17T09:05:07Z</time>
      </trkpt>
      <trkpt lat="43.18285" lon="1.00668">
        <ele>297.45019531</ele>
        <time>2021-10-17T09:05:08Z</time>
      </trkpt>
      <trkpt lat="43.18284" lon="1.00664">
        <ele>296.74020386</ele>
        <time>2021-10-17T09:05:09Z</time>
      </trkpt>
      <trkpt lat="43.18285" lon="1.00663">
        <ele>296.1802063</ele>
        <time>2021-10-17T09:05:10Z</time>
      </trkpt>
      <trkpt lat="43.18285" lon="1.00662">
        <ele>295.73019409</ele>
        <time>2021-10-17T09:05:11Z</time>
      </trkpt>
      <trkpt lat="43.18287" lon="1.00661">
        <ele>295.05020142</ele>
        <time>2021-10-17T09:05:12Z</time>
      </trkpt>
      <trkpt lat="43.18289" lon="1.00661">
        <ele>294.48019409</ele>
        <time>2021-10-17T09:05:13Z</time>
      </trkpt>
      <trkpt lat="43.1829" lon="1.00662">
        <ele>293.79019165</ele>
        <time>2021-10-17T09:05:14Z</time>
      </trkpt>
      <trkpt lat="43.18292" lon="1.00661">
        <ele>293.09017944</ele>
        <time>2021-10-17T09:05:15Z</time>
      </trkpt>
      <trkpt lat="43.18293" lon="1.00661">
        <ele>292.52017212</ele>
        <time>2021-10-17T09:05:16Z</time>
      </trkpt>
      <trkpt lat="43.18295" lon="1.00661">
        <ele>291.87017822</ele>
        <time>2021-10-17T09:05:17Z</time>
      </trkpt>
      <trkpt lat="43.18296" lon="1.00659">
        <ele>291.12017822</ele>
        <time>2021-10-17T09:05:18Z</time>
      </trkpt>
      <trkpt lat="43.18296" lon="1.00658">
        <ele>290.37017822</ele>
        <time>2021-10-17T09:05:19Z</time>
      </trkpt>
      <trkpt lat="43.18296" lon="1.00659">
        <ele>289.77017212</ele>
        <time>2021-10-17T09:05:20Z</time>
      </trkpt>
      <trkpt lat="43.18298" lon="1.00653">
        <ele>288.23999023</ele>
        <time>2021-10-17T09:05:42Z</time>
      </trkpt>
      <trkpt lat="43.18297" lon="1.00653">
        <ele>288.32998657</ele>
        <time>2021-10-17T09:05:43Z</time>
      </trkpt>
      <trkpt lat="43.18296" lon="1.00653">
        <ele>288.43997192</ele>
        <time>2021-10-17T09:05:44Z</time>
      </trkpt>
      <trkpt lat="43.18293" lon="1.00652">
        <ele>288.56997681</ele>
        <time>2021-10-17T09:05:45Z</time>
      </trkpt>
      <trkpt lat="43.18292" lon="1.00651">
        <ele>288.75997925</ele>
        <time>2021-10-17T09:05:46Z</time>
      </trkpt>
      <trkpt lat="43.18292" lon="1.00651">
        <ele>288.92999268</ele>
        <time>2021-10-17T09:05:47Z</time>
      </trkpt>
      <trkpt lat="43.18291" lon="1.00651">
        <ele>289.19998169</ele>
        <time>2021-10-17T09:05:48Z</time>
      </trkpt>
      <trkpt lat="43.1829" lon="1.0065">
        <ele>289.48999023</ele>
        <time>2021-10-17T09:05:49Z</time>
      </trkpt>
      <trkpt lat="43.18287" lon="1.00649">
        <ele>289.83999634</ele>
        <time>2021-10-17T09:05:50Z</time>
      </trkpt>
      <trkpt lat="43.18286" lon="1.00648">
        <ele>290.10998535</ele>
        <time>2021-10-17T09:05:51Z</time>
      </trkpt>
      <trkpt lat="43.18283" lon="1.00647">
        <ele>290.35998535</ele>
        <time>2021-10-17T09:05:52Z</time>
      </trkpt>
      <trkpt lat="43.18281" lon="1.00646">
        <ele>290.67999268</ele>
        <time>2021-10-17T09:05:53Z</time>
      </trkpt>
      <trkpt lat="43.18277" lon="1.00643">
        <ele>290.94998169</ele>
        <time>2021-10-17T09:05:54Z</time>
      </trkpt>
      <trkpt lat="43.18275" lon="1.00642">
        <ele>291.30996704</ele>
        <time>2021-10-17T09:05:55Z</time>
      </trkpt>
      <trkpt lat="43.18274" lon="1.00642">
        <ele>291.69998169</ele>
        <time>2021-10-17T09:05:56Z</time>
      </trkpt>
      <trkpt lat="43.18273" lon="1.00641">
        <ele>292.03997803</ele>
        <time>2021-10-17T09:05:57Z</time>
      </trkpt>
      <trkpt lat="43.18272" lon="1.00639">
        <ele>292.39996338</ele>
        <time>2021-10-17T09:05:58Z</time>
      </trkpt>
      <trkpt lat="43.18271" lon="1.00639">
        <ele>292.77996826</ele>
        <time>2021-10-17T09:05:59Z</time>
      </trkpt>
      <trkpt lat="43.18269" lon="1.00639">
        <ele>293.20996094</ele>
        <time>2021-10-17T09:06:00Z</time>
      </trkpt>
      <trkpt lat="43.18267" lon="1.00638">
        <ele>293.66995239</ele>
        <time>2021-10-17T09:06:01Z</time>
      </trkpt>
      <trkpt lat="43.18264" lon="1.00639">
        <ele>294.06994629</ele>
        <time>2021-10-17T09:06:02Z</time>
      </trkpt>
      <trkpt lat="43.1826" lon="1.00638">
        <ele>294.44995117</ele>
        <time>2021-10-17T09:06:03Z</time>
      </trkpt>
      <trkpt lat="43.18257" lon="1.00637">
        <ele>294.73995972</ele>
        <time>2021-10-17T09:06:04Z</time>
      </trkpt>
      <trkpt lat="43.18256" lon="1.00637">
        <ele>294.95996094</ele>
        <time>2021-10-17T09:06:05Z</time>
      </trkpt>
      <trkpt lat="43.18254" lon="1.00636">
        <ele>295.19995117</ele>
        <time>2021-10-17T09:06:06Z</time>
      </trkpt>
      <trkpt lat="43.18251" lon="1.00635">
        <ele>295.5199585</ele>
        <time>2021-10-17T09:06:07Z</time>
      </trkpt>
      <trkpt lat="43.18249" lon="1.00635">
        <ele>295.83996582</ele>
        <time>2021-10-17T09:06:08Z</time>
      </trkpt>
      <trkpt lat="43.18247" lon="1.00634">
        <ele>296.19995117</ele>
        <time>2021-10-17T09:06:09Z</time>
      </trkpt>
      <trkpt lat="43.18245" lon="1.00633">
        <ele>296.64996338</ele>
        <time>2021-10-17T09:06:10Z</time>
      </trkpt>
      <trkpt lat="43.18242" lon="1.00632">
        <ele>297.04995728</ele>
        <time>2021-10-17T09:06:11Z</time>
      </trkpt>
      <trkpt lat="43.18238" lon="1.00632">
        <ele>297.54995728</ele>
        <time>2021-10-17T09:06:12Z</time>
      </trkpt>
      <trkpt lat="43.18236" lon="1.00632">
        <ele>298.10995483</ele>
        <time>2021-10-17T09:06:13Z</time>
      </trkpt>
      <trkpt lat="43.18235" lon="1.00631">
        <ele>298.63995361</ele>
        <time>2021-10-17T09:06:14Z</time>
      </trkpt>
      <trkpt lat="43.18233" lon="1.0063">
        <ele>299.16995239</ele>
        <time>2021-10-17T09:06:15Z</time>
      </trkpt>
      <trkpt lat="43.18231" lon="1.0063">
        <ele>299.56994629</ele>
        <time>2021-10-17T09:06:16Z</time>
      </trkpt>
      <trkpt lat="43.18228" lon="1.00629">
        <ele>299.99993896</ele>
        <time>2021-10-17T09:06:17Z</time>
      </trkpt>
      <trkpt lat="43.18226" lon="1.00628">
        <ele>300.44995117</ele>
        <time>2021-10-17T09:06:18Z</time>
      </trkpt>
      <trkpt lat="43.18224" lon="1.00627">
        <ele>300.87994385</ele>
        <time>2021-10-17T09:06:19Z</time>
      </trkpt>
      <trkpt lat="43.18223" lon="1.00627">
        <ele>301.37994385</ele>
        <time>2021-10-17T09:06:20Z</time>
      </trkpt>
      <trkpt lat="43.18221" lon="1.00626">
        <ele>302.12994385</ele>
        <time>2021-10-17T09:06:21Z</time>
      </trkpt>
      <trkpt lat="43.1822" lon="1.00625">
        <ele>302.46994019</ele>
        <time>2021-10-17T09:06:22Z</time>
      </trkpt>
      <trkpt lat="43.18219" lon="1.00624">
        <ele>302.94995117</ele>
        <time>2021-10-17T09:06:23Z</time>
      </trkpt>
      <trkpt lat="43.18218" lon="1.00624">
        <ele>303.2699585</ele>
        <time>2021-10-17T09:06:24Z</time>
      </trkpt>
      <trkpt lat="43.18217" lon="1.00623">
        <ele>303.54995728</ele>
        <time>2021-10-17T09:06:25Z</time>
      </trkpt>
      <trkpt lat="43.18214" lon="1.0062">
        <ele>303.81994629</ele>
        <time>2021-10-17T09:06:26Z</time>
      </trkpt>
      <trkpt lat="43.18212" lon="1.00619">
        <ele>304.05993652</ele>
        <time>2021-10-17T09:06:27Z</time>
      </trkpt>
      <trkpt lat="43.18211" lon="1.00617">
        <ele>304.40994263</ele>
        <time>2021-10-17T09:06:28Z</time>
      </trkpt>
      <trkpt lat="43.1821" lon="1.00616">
        <ele>304.86993408</ele>
        <time>2021-10-17T09:06:29Z</time>
      </trkpt>
      <trkpt lat="43.18206" lon="1.00614">
        <ele>305.34994507</ele>
        <time>2021-10-17T09:06:30Z</time>
      </trkpt>
      <trkpt lat="43.18204" lon="1.00613">
        <ele>305.67993164</ele>
        <time>2021-10-17T09:06:31Z</time>
      </trkpt>
      <trkpt lat="43.18202" lon="1.00612">
        <ele>305.99993896</ele>
        <time>2021-10-17T09:06:32Z</time>
      </trkpt>
      <trkpt lat="43.18199" lon="1.0061">
        <ele>306.27993774</ele>
        <time>2021-10-17T09:06:33Z</time>
      </trkpt>
      <trkpt lat="43.18195" lon="1.00608">
        <ele>306.53994751</ele>
        <time>2021-10-17T09:06:34Z</time>
      </trkpt>
      <trkpt lat="43.18193" lon="1.00607">
        <ele>306.86993408</ele>
        <time>2021-10-17T09:06:35Z</time>
      </trkpt>
      <trkpt lat="43.18191" lon="1.00607">
        <ele>307.18994141</ele>
        <time>2021-10-17T09:06:36Z</time>
      </trkpt>
      <trkpt lat="43.18189" lon="1.00606">
        <ele>307.49993896</ele>
        <time>2021-10-17T09:06:37Z</time>
      </trkpt>
      <trkpt lat="43.18187" lon="1.00605">
        <ele>307.76992798</ele>
        <time>2021-10-17T09:06:38Z</time>
      </trkpt>
      <trkpt lat="43.18184" lon="1.00604">
        <ele>308.02993774</ele>
        <time>2021-10-17T09:06:39Z</time>
      </trkpt>
      <trkpt lat="43.18181" lon="1.00604">
        <ele>308.30993652</ele>
        <time>2021-10-17T09:06:40Z</time>
      </trkpt>
      <trkpt lat="43.18179" lon="1.00602">
        <ele>308.51992798</ele>
        <time>2021-10-17T09:06:41Z</time>
      </trkpt>
      <trkpt lat="43.18177" lon="1.00602">
        <ele>308.81991577</ele>
        <time>2021-10-17T09:06:42Z</time>
      </trkpt>
      <trkpt lat="43.18174" lon="1.006">
        <ele>309.21990967</ele>
        <time>2021-10-17T09:06:43Z</time>
      </trkpt>
      <trkpt lat="43.18171" lon="1.00599">
        <ele>309.56991577</ele>
        <time>2021-10-17T09:06:44Z</time>
      </trkpt>
      <trkpt lat="43.18168" lon="1.00598">
        <ele>309.97991943</ele>
        <time>2021-10-17T09:06:45Z</time>
      </trkpt>
      <trkpt lat="43.18166" lon="1.00597">
        <ele>310.28991699</ele>
        <time>2021-10-17T09:06:46Z</time>
      </trkpt>
      <trkpt lat="43.18164" lon="1.00596">
        <ele>310.6399231</ele>
        <time>2021-10-17T09:06:47Z</time>
      </trkpt>
      <trkpt lat="43.18161" lon="1.00595">
        <ele>310.95993042</ele>
        <time>2021-10-17T09:06:48Z</time>
      </trkpt>
      <trkpt lat="43.18159" lon="1.00594">
        <ele>311.30993652</ele>
        <time>2021-10-17T09:06:49Z</time>
      </trkpt>
      <trkpt lat="43.18157" lon="1.00594">
        <ele>311.77993774</ele>
        <time>2021-10-17T09:06:50Z</time>
      </trkpt>
      <trkpt lat="43.18155" lon="1.00594">
        <ele>312.15994263</ele>
        <time>2021-10-17T09:06:51Z</time>
      </trkpt>
      <trkpt lat="43.18152" lon="1.00593">
        <ele>312.56994629</ele>
        <time>2021-10-17T09:06:52Z</time>
      </trkpt>
      <trkpt lat="43.18148" lon="1.00592">
        <ele>313.02993774</ele>
        <time>2021-10-17T09:06:53Z</time>
      </trkpt>
      <trkpt lat="43.18145" lon="1.00591">
        <ele>313.42993164</ele>
        <time>2021-10-17T09:06:54Z</time>
      </trkpt>
      <trkpt lat="43.18143" lon="1.0059">
        <ele>313.76992798</ele>
        <time>2021-10-17T09:06:55Z</time>
      </trkpt>
      <trkpt lat="43.18142" lon="1.0059">
        <ele>314.17993164</ele>
        <time>2021-10-17T09:06:56Z</time>
      </trkpt>
      <trkpt lat="43.18138" lon="1.00588">
        <ele>314.53991699</ele>
        <time>2021-10-17T09:06:57Z</time>
      </trkpt>
      <trkpt lat="43.18136" lon="1.00589">
        <ele>314.93991089</ele>
        <time>2021-10-17T09:06:58Z</time>
      </trkpt>
      <trkpt lat="43.18135" lon="1.00589">
        <ele>315.28991699</ele>
        <time>2021-10-17T09:06:59Z</time>
      </trkpt>
      <trkpt lat="43.18133" lon="1.0059">
        <ele>315.61990356</ele>
        <time>2021-10-17T09:07:00Z</time>
      </trkpt>
      <trkpt lat="43.1813" lon="1.00591">
        <ele>315.82989502</ele>
        <time>2021-10-17T09:07:01Z</time>
      </trkpt>
      <trkpt lat="43.18128" lon="1.00592">
        <ele>316.2098999</ele>
        <time>2021-10-17T09:07:02Z</time>
      </trkpt>
      <trkpt lat="43.18127" lon="1.00593">
        <ele>316.2098999</ele>
        <time>2021-10-17T09:07:03Z</time>
      </trkpt>
      <trkpt lat="43.18125" lon="1.00594">
        <ele>316.39990234</ele>
        <time>2021-10-17T09:07:04Z</time>
      </trkpt>
      <trkpt lat="43.18123" lon="1.00595">
        <ele>316.69989014</ele>
        <time>2021-10-17T09:07:05Z</time>
      </trkpt>
      <trkpt lat="43.1812" lon="1.00595">
        <ele>317.11990356</ele>
        <time>2021-10-17T09:07:06Z</time>
      </trkpt>
      <trkpt lat="43.18118" lon="1.00594">
        <ele>317.48989868</ele>
        <time>2021-10-17T09:07:07Z</time>
      </trkpt>
      <trkpt lat="43.18117" lon="1.00593">
        <ele>317.86990356</ele>
        <time>2021-10-17T09:07:08Z</time>
      </trkpt>
      <trkpt lat="43.18115" lon="1.00592">
        <ele>318.21990967</ele>
        <time>2021-10-17T09:07:09Z</time>
      </trkpt>
      <trkpt lat="43.18113" lon="1.00591">
        <ele>318.4598999</ele>
        <time>2021-10-17T09:07:10Z</time>
      </trkpt>
      <trkpt lat="43.1811" lon="1.00589">
        <ele>318.7098999</ele>
        <time>2021-10-17T09:07:11Z</time>
      </trkpt>
      <trkpt lat="43.18109" lon="1.00587">
        <ele>318.93991089</ele>
        <time>2021-10-17T09:07:12Z</time>
      </trkpt>
      <trkpt lat="43.18107" lon="1.00586">
        <ele>319.18991089</ele>
        <time>2021-10-17T09:07:13Z</time>
      </trkpt>
      <trkpt lat="43.18105" lon="1.00584">
        <ele>319.42990112</ele>
        <time>2021-10-17T09:07:14Z</time>
      </trkpt>
      <trkpt lat="43.18103" lon="1.00582">
        <ele>319.63989258</ele>
        <time>2021-10-17T09:07:15Z</time>
      </trkpt>
      <trkpt lat="43.18102" lon="1.00581">
        <ele>319.96987915</ele>
        <time>2021-10-17T09:07:16Z</time>
      </trkpt>
      <trkpt lat="43.18101" lon="1.0058">
        <ele>320.3598938</ele>
        <time>2021-10-17T09:07:17Z</time>
      </trkpt>
      <trkpt lat="43.18099" lon="1.00578">
        <ele>320.73989868</ele>
        <time>2021-10-17T09:07:18Z</time>
      </trkpt>
      <trkpt lat="43.18098" lon="1.00578">
        <ele>321.23989868</ele>
        <time>2021-10-17T09:07:19Z</time>
      </trkpt>
      <trkpt lat="43.18096" lon="1.00576">
        <ele>321.62991333</ele>
        <time>2021-10-17T09:07:20Z</time>
      </trkpt>
      <trkpt lat="43.18094" lon="1.00573">
        <ele>322.06991577</ele>
        <time>2021-10-17T09:07:21Z</time>
      </trkpt>
      <trkpt lat="43.18092" lon="1.00571">
        <ele>322.42990112</ele>
        <time>2021-10-17T09:07:22Z</time>
      </trkpt>
      <trkpt lat="43.1809" lon="1.00569">
        <ele>322.7098999</ele>
        <time>2021-10-17T09:07:23Z</time>
      </trkpt>
      <trkpt lat="43.18087" lon="1.00567">
        <ele>322.98989868</ele>
        <time>2021-10-17T09:07:24Z</time>
      </trkpt>
      <trkpt lat="43.18085" lon="1.00566">
        <ele>323.05990601</ele>
        <time>2021-10-17T09:07:25Z</time>
      </trkpt>
      <trkpt lat="43.18083" lon="1.00566">
        <ele>323.23989868</ele>
        <time>2021-10-17T09:07:26Z</time>
      </trkpt>
      <trkpt lat="43.1808" lon="1.00566">
        <ele>323.33990479</ele>
        <time>2021-10-17T09:07:27Z</time>
      </trkpt>
      <trkpt lat="43.18077" lon="1.00567">
        <ele>323.50991821</ele>
        <time>2021-10-17T09:07:28Z</time>
      </trkpt>
      <trkpt lat="43.18074" lon="1.00568">
        <ele>323.70993042</ele>
        <time>2021-10-17T09:07:29Z</time>
      </trkpt>
      <trkpt lat="43.18072" lon="1.00569">
        <ele>323.96994019</ele>
        <time>2021-10-17T09:07:30Z</time>
      </trkpt>
      <trkpt lat="43.18069" lon="1.0057">
        <ele>324.31994629</ele>
        <time>2021-10-17T09:07:31Z</time>
      </trkpt>
      <trkpt lat="43.18066" lon="1.00571">
        <ele>324.56994629</ele>
        <time>2021-10-17T09:07:32Z</time>
      </trkpt>
      <trkpt lat="43.18062" lon="1.00574">
        <ele>324.97994995</ele>
        <time>2021-10-17T09:07:33Z</time>
      </trkpt>
      <trkpt lat="43.18059" lon="1.00575">
        <ele>325.34994507</ele>
        <time>2021-10-17T09:07:34Z</time>
      </trkpt>
      <trkpt lat="43.18057" lon="1.00577">
        <ele>325.61993408</ele>
        <time>2021-10-17T09:07:35Z</time>
      </trkpt>
      <trkpt lat="43.18055" lon="1.00579">
        <ele>325.96994019</ele>
        <time>2021-10-17T09:07:36Z</time>
      </trkpt>
      <trkpt lat="43.18054" lon="1.00582">
        <ele>326.26992798</ele>
        <time>2021-10-17T09:07:37Z</time>
      </trkpt>
      <trkpt lat="43.18051" lon="1.00586">
        <ele>326.55993652</ele>
        <time>2021-10-17T09:07:38Z</time>
      </trkpt>
      <trkpt lat="43.18049" lon="1.00589">
        <ele>326.91992188</ele>
        <time>2021-10-17T09:07:39Z</time>
      </trkpt>
      <trkpt lat="43.18047" lon="1.00591">
        <ele>327.31991577</ele>
        <time>2021-10-17T09:07:40Z</time>
      </trkpt>
      <trkpt lat="43.18046" lon="1.00593">
        <ele>327.66992188</ele>
        <time>2021-10-17T09:07:41Z</time>
      </trkpt>
      <trkpt lat="43.18043" lon="1.00596">
        <ele>327.92993164</ele>
        <time>2021-10-17T09:07:42Z</time>
      </trkpt>
      <trkpt lat="43.18041" lon="1.00598">
        <ele>328.12994385</ele>
        <time>2021-10-17T09:07:43Z</time>
      </trkpt>
      <trkpt lat="43.1804" lon="1.006">
        <ele>328.2399292</ele>
        <time>2021-10-17T09:07:44Z</time>
      </trkpt>
      <trkpt lat="43.18039" lon="1.00602">
        <ele>328.32992554</ele>
        <time>2021-10-17T09:07:45Z</time>
      </trkpt>
      <trkpt lat="43.18038" lon="1.00604">
        <ele>328.51992798</ele>
        <time>2021-10-17T09:07:46Z</time>
      </trkpt>
      <trkpt lat="43.18035" lon="1.00606">
        <ele>328.67993164</ele>
        <time>2021-10-17T09:07:47Z</time>
      </trkpt>
      <trkpt lat="43.18034" lon="1.00607">
        <ele>328.87994385</ele>
        <time>2021-10-17T09:07:48Z</time>
      </trkpt>
      <trkpt lat="43.18032" lon="1.00609">
        <ele>328.97994995</ele>
        <time>2021-10-17T09:07:49Z</time>
      </trkpt>
      <trkpt lat="43.18031" lon="1.00611">
        <ele>329.07995605</ele>
        <time>2021-10-17T09:07:50Z</time>
      </trkpt>
      <trkpt lat="43.18028" lon="1.00613">
        <ele>329.23995972</ele>
        <time>2021-10-17T09:07:51Z</time>
      </trkpt>
      <trkpt lat="43.18026" lon="1.00615">
        <ele>329.31994629</ele>
        <time>2021-10-17T09:07:52Z</time>
      </trkpt>
      <trkpt lat="43.18025" lon="1.00616">
        <ele>329.49993896</ele>
        <time>2021-10-17T09:07:53Z</time>
      </trkpt>
      <trkpt lat="43.18023" lon="1.00618">
        <ele>329.59994507</ele>
        <time>2021-10-17T09:07:54Z</time>
      </trkpt>
      <trkpt lat="43.18022" lon="1.00621">
        <ele>329.72994995</ele>
        <time>2021-10-17T09:07:55Z</time>
      </trkpt>
      <trkpt lat="43.1802" lon="1.00624">
        <ele>329.92996216</ele>
        <time>2021-10-17T09:07:56Z</time>
      </trkpt>
      <trkpt lat="43.18019" lon="1.00626">
        <ele>330.07995605</ele>
        <time>2021-10-17T09:07:57Z</time>
      </trkpt>
      <trkpt lat="43.18018" lon="1.00628">
        <ele>330.30996704</ele>
        <time>2021-10-17T09:07:58Z</time>
      </trkpt>
      <trkpt lat="43.18016" lon="1.0063">
        <ele>330.57995605</ele>
        <time>2021-10-17T09:07:59Z</time>
      </trkpt>
      <trkpt lat="43.18015" lon="1.00634">
        <ele>330.83996582</ele>
        <time>2021-10-17T09:08:00Z</time>
      </trkpt>
      <trkpt lat="43.18013" lon="1.00636">
        <ele>331.17996216</ele>
        <time>2021-10-17T09:08:01Z</time>
      </trkpt>
      <trkpt lat="43.18011" lon="1.00637">
        <ele>331.39996338</ele>
        <time>2021-10-17T09:08:02Z</time>
      </trkpt>
      <trkpt lat="43.18009" lon="1.00638">
        <ele>331.64996338</ele>
        <time>2021-10-17T09:08:03Z</time>
      </trkpt>
      <trkpt lat="43.18008" lon="1.00639">
        <ele>331.82995605</ele>
        <time>2021-10-17T09:08:04Z</time>
      </trkpt>
      <trkpt lat="43.18006" lon="1.00641">
        <ele>332.05996704</ele>
        <time>2021-10-17T09:08:05Z</time>
      </trkpt>
      <trkpt lat="43.18004" lon="1.00643">
        <ele>332.31997681</ele>
        <time>2021-10-17T09:08:06Z</time>
      </trkpt>
      <trkpt lat="43.18002" lon="1.00644">
        <ele>332.45999146</ele>
        <time>2021-10-17T09:08:07Z</time>
      </trkpt>
      <trkpt lat="43.18" lon="1.00646">
        <ele>332.6000061</ele>
        <time>2021-10-17T09:08:08Z</time>
      </trkpt>
      <trkpt lat="43.17998" lon="1.00648">
        <ele>332.69000244</ele>
        <time>2021-10-17T09:08:09Z</time>
      </trkpt>
      <trkpt lat="43.17996" lon="1.0065">
        <ele>332.86001587</ele>
        <time>2021-10-17T09:08:10Z</time>
      </trkpt>
      <trkpt lat="43.17995" lon="1.00652">
        <ele>333.09002686</ele>
        <time>2021-10-17T09:08:11Z</time>
      </trkpt>
      <trkpt lat="43.17993" lon="1.00653">
        <ele>333.33001709</ele>
        <time>2021-10-17T09:08:12Z</time>
      </trkpt>
      <trkpt lat="43.17991" lon="1.00654">
        <ele>333.56002808</ele>
        <time>2021-10-17T09:08:13Z</time>
      </trkpt>
      <trkpt lat="43.17988" lon="1.00656">
        <ele>333.7800293</ele>
        <time>2021-10-17T09:08:14Z</time>
      </trkpt>
      <trkpt lat="43.17986" lon="1.00657">
        <ele>333.92004395</ele>
        <time>2021-10-17T09:08:15Z</time>
      </trkpt>
      <trkpt lat="43.17984" lon="1.00659">
        <ele>334.09005737</ele>
        <time>2021-10-17T09:08:16Z</time>
      </trkpt>
      <trkpt lat="43.17983" lon="1.00661">
        <ele>334.33004761</ele>
        <time>2021-10-17T09:08:17Z</time>
      </trkpt>
      <trkpt lat="43.1798" lon="1.00663">
        <ele>334.62005615</ele>
        <time>2021-10-17T09:08:18Z</time>
      </trkpt>
      <trkpt lat="43.17979" lon="1.00665">
        <ele>334.88006592</ele>
        <time>2021-10-17T09:08:19Z</time>
      </trkpt>
      <trkpt lat="43.17977" lon="1.00666">
        <ele>335.28005981</ele>
        <time>2021-10-17T09:08:20Z</time>
      </trkpt>
      <trkpt lat="43.17975" lon="1.00667">
        <ele>335.56005859</ele>
        <time>2021-10-17T09:08:21Z</time>
      </trkpt>
      <trkpt lat="43.17974" lon="1.00668">
        <ele>335.73007202</ele>
        <time>2021-10-17T09:08:22Z</time>
      </trkpt>
      <trkpt lat="43.17971" lon="1.0067">
        <ele>335.96008301</ele>
        <time>2021-10-17T09:08:23Z</time>
      </trkpt>
      <trkpt lat="43.1797" lon="1.00671">
        <ele>336.08007812</ele>
        <time>2021-10-17T09:08:24Z</time>
      </trkpt>
      <trkpt lat="43.17968" lon="1.00672">
        <ele>336.22009277</ele>
        <time>2021-10-17T09:08:25Z</time>
      </trkpt>
      <trkpt lat="43.17967" lon="1.00673">
        <ele>336.38009644</ele>
        <time>2021-10-17T09:08:26Z</time>
      </trkpt>
      <trkpt lat="43.17965" lon="1.00676">
        <ele>336.55010986</ele>
        <time>2021-10-17T09:08:27Z</time>
      </trkpt>
      <trkpt lat="43.17964" lon="1.00677">
        <ele>336.68011475</ele>
        <time>2021-10-17T09:08:28Z</time>
      </trkpt>
      <trkpt lat="43.17962" lon="1.00677">
        <ele>336.88012695</ele>
        <time>2021-10-17T09:08:29Z</time>
      </trkpt>
      <trkpt lat="43.1796" lon="1.00679">
        <ele>337.05014038</ele>
        <time>2021-10-17T09:08:30Z</time>
      </trkpt>
      <trkpt lat="43.17959" lon="1.0068">
        <ele>337.18014526</ele>
        <time>2021-10-17T09:08:31Z</time>
      </trkpt>
      <trkpt lat="43.17956" lon="1.0068">
        <ele>337.26013184</ele>
        <time>2021-10-17T09:08:32Z</time>
      </trkpt>
      <trkpt lat="43.17953" lon="1.00681">
        <ele>337.28012085</ele>
        <time>2021-10-17T09:08:33Z</time>
      </trkpt>
      <trkpt lat="43.17951" lon="1.00682">
        <ele>337.33010864</ele>
        <time>2021-10-17T09:08:34Z</time>
      </trkpt>
      <trkpt lat="43.17949" lon="1.00682">
        <ele>337.34011841</ele>
        <time>2021-10-17T09:08:35Z</time>
      </trkpt>
      <trkpt lat="43.17946" lon="1.00683">
        <ele>337.40011597</ele>
        <time>2021-10-17T09:08:36Z</time>
      </trkpt>
      <trkpt lat="43.17944" lon="1.00683">
        <ele>337.43011475</ele>
        <time>2021-10-17T09:08:37Z</time>
      </trkpt>
      <trkpt lat="43.17942" lon="1.00683">
        <ele>337.45010376</ele>
        <time>2021-10-17T09:08:38Z</time>
      </trkpt>
      <trkpt lat="43.1794" lon="1.00683">
        <ele>337.51010132</ele>
        <time>2021-10-17T09:08:39Z</time>
      </trkpt>
      <trkpt lat="43.17938" lon="1.00683">
        <ele>337.66009521</ele>
        <time>2021-10-17T09:08:40Z</time>
      </trkpt>
      <trkpt lat="43.17936" lon="1.00683">
        <ele>337.92010498</ele>
        <time>2021-10-17T09:08:41Z</time>
      </trkpt>
      <trkpt lat="43.17935" lon="1.00682">
        <ele>338.21011353</ele>
        <time>2021-10-17T09:08:42Z</time>
      </trkpt>
      <trkpt lat="43.17933" lon="1.00681">
        <ele>338.52011108</ele>
        <time>2021-10-17T09:08:43Z</time>
      </trkpt>
      <trkpt lat="43.17931" lon="1.0068">
        <ele>338.82009888</ele>
        <time>2021-10-17T09:08:44Z</time>
      </trkpt>
      <trkpt lat="43.17928" lon="1.00678">
        <ele>338.82009888</ele>
        <time>2021-10-17T09:08:45Z</time>
      </trkpt>
      <trkpt lat="43.17926" lon="1.00678">
        <ele>338.90008545</ele>
        <time>2021-10-17T09:08:46Z</time>
      </trkpt>
      <trkpt lat="43.17925" lon="1.00677">
        <ele>338.96008301</ele>
        <time>2021-10-17T09:08:47Z</time>
      </trkpt>
      <trkpt lat="43.17922" lon="1.00676">
        <ele>339.10009766</ele>
        <time>2021-10-17T09:08:48Z</time>
      </trkpt>
      <trkpt lat="43.17919" lon="1.00674">
        <ele>339.2901001</ele>
        <time>2021-10-17T09:08:49Z</time>
      </trkpt>
      <trkpt lat="43.17917" lon="1.00674">
        <ele>339.45010376</ele>
        <time>2021-10-17T09:08:50Z</time>
      </trkpt>
      <trkpt lat="43.17916" lon="1.00674">
        <ele>339.6401062</ele>
        <time>2021-10-17T09:08:51Z</time>
      </trkpt>
      <trkpt lat="43.17913" lon="1.00673">
        <ele>339.7901001</ele>
        <time>2021-10-17T09:08:52Z</time>
      </trkpt>
      <trkpt lat="43.17909" lon="1.00673">
        <ele>339.8901062</ele>
        <time>2021-10-17T09:08:53Z</time>
      </trkpt>
      <trkpt lat="43.17907" lon="1.00673">
        <ele>339.9901123</ele>
        <time>2021-10-17T09:08:54Z</time>
      </trkpt>
      <trkpt lat="43.17906" lon="1.00672">
        <ele>340.08010864</ele>
        <time>2021-10-17T09:08:55Z</time>
      </trkpt>
      <trkpt lat="43.17904" lon="1.00671">
        <ele>340.17010498</ele>
        <time>2021-10-17T09:08:56Z</time>
      </trkpt>
      <trkpt lat="43.17903" lon="1.0067">
        <ele>340.27011108</ele>
        <time>2021-10-17T09:08:57Z</time>
      </trkpt>
      <trkpt lat="43.179" lon="1.00668">
        <ele>340.41012573</ele>
        <time>2021-10-17T09:08:58Z</time>
      </trkpt>
      <trkpt lat="43.17898" lon="1.00666">
        <ele>340.63012695</ele>
        <time>2021-10-17T09:08:59Z</time>
      </trkpt>
      <trkpt lat="43.17895" lon="1.00665">
        <ele>340.87011719</ele>
        <time>2021-10-17T09:09:00Z</time>
      </trkpt>
      <trkpt lat="43.17894" lon="1.00663">
        <ele>341.12011719</ele>
        <time>2021-10-17T09:09:01Z</time>
      </trkpt>
      <trkpt lat="43.17892" lon="1.00661">
        <ele>341.41012573</ele>
        <time>2021-10-17T09:09:02Z</time>
      </trkpt>
      <trkpt lat="43.17891" lon="1.00658">
        <ele>341.64013672</ele>
        <time>2021-10-17T09:09:03Z</time>
      </trkpt>
      <trkpt lat="43.17889" lon="1.00656">
        <ele>341.94012451</ele>
        <time>2021-10-17T09:09:04Z</time>
      </trkpt>
      <trkpt lat="43.17889" lon="1.00654">
        <ele>342.31011963</ele>
        <time>2021-10-17T09:09:05Z</time>
      </trkpt>
      <trkpt lat="43.17888" lon="1.00652">
        <ele>342.6401062</ele>
        <time>2021-10-17T09:09:06Z</time>
      </trkpt>
      <trkpt lat="43.17889" lon="1.0065">
        <ele>343.03012085</ele>
        <time>2021-10-17T09:09:07Z</time>
      </trkpt>
      <trkpt lat="43.17888" lon="1.00647">
        <ele>343.43011475</ele>
        <time>2021-10-17T09:09:08Z</time>
      </trkpt>
      <trkpt lat="43.17888" lon="1.00645">
        <ele>343.82012939</ele>
        <time>2021-10-17T09:09:09Z</time>
      </trkpt>
      <trkpt lat="43.17888" lon="1.00642">
        <ele>344.19012451</ele>
        <time>2021-10-17T09:09:10Z</time>
      </trkpt>
      <trkpt lat="43.17888" lon="1.0064">
        <ele>344.4901123</ele>
        <time>2021-10-17T09:09:11Z</time>
      </trkpt>
      <trkpt lat="43.17887" lon="1.00637">
        <ele>344.78012085</ele>
        <time>2021-10-17T09:09:12Z</time>
      </trkpt>
      <trkpt lat="43.17887" lon="1.00635">
        <ele>345.01013184</ele>
        <time>2021-10-17T09:09:13Z</time>
      </trkpt>
      <trkpt lat="43.17886" lon="1.00632">
        <ele>345.30014038</ele>
        <time>2021-10-17T09:09:14Z</time>
      </trkpt>
      <trkpt lat="43.17886" lon="1.0063">
        <ele>345.62014771</ele>
        <time>2021-10-17T09:09:15Z</time>
      </trkpt>
      <trkpt lat="43.17884" lon="1.00627">
        <ele>345.93014526</ele>
        <time>2021-10-17T09:09:16Z</time>
      </trkpt>
      <trkpt lat="43.17883" lon="1.00624">
        <ele>346.24014282</ele>
        <time>2021-10-17T09:09:17Z</time>
      </trkpt>
      <trkpt lat="43.17883" lon="1.00623">
        <ele>346.54013062</ele>
        <time>2021-10-17T09:09:18Z</time>
      </trkpt>
      <trkpt lat="43.17882" lon="1.00621">
        <ele>346.87011719</ele>
        <time>2021-10-17T09:09:19Z</time>
      </trkpt>
      <trkpt lat="43.1788" lon="1.0062">
        <ele>347.15011597</ele>
        <time>2021-10-17T09:09:20Z</time>
      </trkpt>
      <trkpt lat="43.17878" lon="1.00617">
        <ele>347.50012207</ele>
        <time>2021-10-17T09:09:21Z</time>
      </trkpt>
      <trkpt lat="43.17876" lon="1.00616">
        <ele>347.86010742</ele>
        <time>2021-10-17T09:09:22Z</time>
      </trkpt>
      <trkpt lat="43.17874" lon="1.00615">
        <ele>348.20010376</ele>
        <time>2021-10-17T09:09:23Z</time>
      </trkpt>
      <trkpt lat="43.17873" lon="1.00613">
        <ele>348.65011597</ele>
        <time>2021-10-17T09:09:24Z</time>
      </trkpt>
      <trkpt lat="43.17871" lon="1.00612">
        <ele>349.05010986</ele>
        <time>2021-10-17T09:09:25Z</time>
      </trkpt>
      <trkpt lat="43.17869" lon="1.0061">
        <ele>349.52011108</ele>
        <time>2021-10-17T09:09:26Z</time>
      </trkpt>
      <trkpt lat="43.17868" lon="1.00608">
        <ele>349.92010498</ele>
        <time>2021-10-17T09:09:27Z</time>
      </trkpt>
      <trkpt lat="43.17867" lon="1.00607">
        <ele>350.19009399</ele>
        <time>2021-10-17T09:09:28Z</time>
      </trkpt>
      <trkpt lat="43.17865" lon="1.00606">
        <ele>350.47009277</ele>
        <time>2021-10-17T09:09:29Z</time>
      </trkpt>
      <trkpt lat="43.17864" lon="1.00605">
        <ele>350.72009277</ele>
        <time>2021-10-17T09:09:30Z</time>
      </trkpt>
      <trkpt lat="43.17862" lon="1.00605">
        <ele>351.01010132</ele>
        <time>2021-10-17T09:09:31Z</time>
      </trkpt>
      <trkpt lat="43.1786" lon="1.00605">
        <ele>351.31008911</ele>
        <time>2021-10-17T09:09:32Z</time>
      </trkpt>
      <trkpt lat="43.17859" lon="1.00606">
        <ele>351.65008545</ele>
        <time>2021-10-17T09:09:33Z</time>
      </trkpt>
      <trkpt lat="43.17858" lon="1.00607">
        <ele>352.02008057</ele>
        <time>2021-10-17T09:09:34Z</time>
      </trkpt>
      <trkpt lat="43.17859" lon="1.0061">
        <ele>352.40008545</ele>
        <time>2021-10-17T09:09:35Z</time>
      </trkpt>
      <trkpt lat="43.17858" lon="1.00611">
        <ele>352.83007812</ele>
        <time>2021-10-17T09:09:36Z</time>
      </trkpt>
      <trkpt lat="43.17858" lon="1.00613">
        <ele>353.20007324</ele>
        <time>2021-10-17T09:09:37Z</time>
      </trkpt>
      <trkpt lat="43.17858" lon="1.00614">
        <ele>353.50006104</ele>
        <time>2021-10-17T09:09:38Z</time>
      </trkpt>
      <trkpt lat="43.17857" lon="1.00615">
        <ele>353.84005737</ele>
        <time>2021-10-17T09:09:39Z</time>
      </trkpt>
      <trkpt lat="43.17858" lon="1.00617">
        <ele>354.14004517</ele>
        <time>2021-10-17T09:09:40Z</time>
      </trkpt>
      <trkpt lat="43.17858" lon="1.00618">
        <ele>354.43005371</ele>
        <time>2021-10-17T09:09:41Z</time>
      </trkpt>
      <trkpt lat="43.17855" lon="1.00624">
        <ele>354.02999878</ele>
        <time>2021-10-17T09:11:24Z</time>
      </trkpt>
      <trkpt lat="43.17856" lon="1.00626">
        <ele>354.08999634</ele>
        <time>2021-10-17T09:11:25Z</time>
      </trkpt>
      <trkpt lat="43.17856" lon="1.00628">
        <ele>354.11999512</ele>
        <time>2021-10-17T09:11:26Z</time>
      </trkpt>
      <trkpt lat="43.17856" lon="1.00631">
        <ele>354.17999268</ele>
        <time>2021-10-17T09:11:27Z</time>
      </trkpt>
      <trkpt lat="43.17857" lon="1.00633">
        <ele>354.26998901</ele>
        <time>2021-10-17T09:11:28Z</time>
      </trkpt>
      <trkpt lat="43.17858" lon="1.00636">
        <ele>354.28997803</ele>
        <time>2021-10-17T09:11:29Z</time>
      </trkpt>
      <trkpt lat="43.17859" lon="1.00638">
        <ele>354.38998413</ele>
        <time>2021-10-17T09:11:30Z</time>
      </trkpt>
      <trkpt lat="43.1786" lon="1.00643">
        <ele>354.45999146</ele>
        <time>2021-10-17T09:11:31Z</time>
      </trkpt>
      <trkpt lat="43.17861" lon="1.00646">
        <ele>354.57998657</ele>
        <time>2021-10-17T09:11:32Z</time>
      </trkpt>
      <trkpt lat="43.17861" lon="1.00649">
        <ele>354.76998901</ele>
        <time>2021-10-17T09:11:33Z</time>
      </trkpt>
      <trkpt lat="43.17862" lon="1.00652">
        <ele>354.92999268</ele>
        <time>2021-10-17T09:11:34Z</time>
      </trkpt>
      <trkpt lat="43.17862" lon="1.00655">
        <ele>355.03997803</ele>
        <time>2021-10-17T09:11:35Z</time>
      </trkpt>
      <trkpt lat="43.17862" lon="1.00659">
        <ele>355.15997314</ele>
        <time>2021-10-17T09:11:36Z</time>
      </trkpt>
      <trkpt lat="43.17862" lon="1.00662">
        <ele>355.23995972</ele>
        <time>2021-10-17T09:11:37Z</time>
      </trkpt>
      <trkpt lat="43.17861" lon="1.00665">
        <ele>355.17996216</ele>
        <time>2021-10-17T09:11:38Z</time>
      </trkpt>
      <trkpt lat="43.17859" lon="1.00667">
        <ele>355.17996216</ele>
        <time>2021-10-17T09:11:39Z</time>
      </trkpt>
      <trkpt lat="43.17858" lon="1.00671">
        <ele>355.1199646</ele>
        <time>2021-10-17T09:11:40Z</time>
      </trkpt>
      <trkpt lat="43.17857" lon="1.00677">
        <ele>354.99996948</ele>
        <time>2021-10-17T09:11:41Z</time>
      </trkpt>
      <trkpt lat="43.17857" lon="1.00681">
        <ele>355.02996826</ele>
        <time>2021-10-17T09:11:42Z</time>
      </trkpt>
      <trkpt lat="43.17857" lon="1.00686">
        <ele>355.0199585</ele>
        <time>2021-10-17T09:11:43Z</time>
      </trkpt>
      <trkpt lat="43.17857" lon="1.0069">
        <ele>354.98995972</ele>
        <time>2021-10-17T09:11:44Z</time>
      </trkpt>
      <trkpt lat="43.17858" lon="1.00697">
        <ele>355.04995728</ele>
        <time>2021-10-17T09:11:45Z</time>
      </trkpt>
      <trkpt lat="43.17859" lon="1.00702">
        <ele>355.06994629</ele>
        <time>2021-10-17T09:11:46Z</time>
      </trkpt>
      <trkpt lat="43.17859" lon="1.00705">
        <ele>355.21994019</ele>
        <time>2021-10-17T09:11:47Z</time>
      </trkpt>
      <trkpt lat="43.17859" lon="1.00709">
        <ele>355.40994263</ele>
        <time>2021-10-17T09:11:48Z</time>
      </trkpt>
      <trkpt lat="43.17858" lon="1.00713">
        <ele>355.54995728</ele>
        <time>2021-10-17T09:11:49Z</time>
      </trkpt>
      <trkpt lat="43.17858" lon="1.00718">
        <ele>355.82995605</ele>
        <time>2021-10-17T09:11:50Z</time>
      </trkpt>
      <trkpt lat="43.17858" lon="1.00721">
        <ele>356.1199646</ele>
        <time>2021-10-17T09:11:51Z</time>
      </trkpt>
      <trkpt lat="43.17859" lon="1.00725">
        <ele>356.34997559</ele>
        <time>2021-10-17T09:11:52Z</time>
      </trkpt>
      <trkpt lat="43.1786" lon="1.00727">
        <ele>356.80996704</ele>
        <time>2021-10-17T09:11:53Z</time>
      </trkpt>
      <trkpt lat="43.1786" lon="1.00733">
        <ele>357.15997314</ele>
        <time>2021-10-17T09:11:54Z</time>
      </trkpt>
      <trkpt lat="43.17861" lon="1.00736">
        <ele>357.6199646</ele>
        <time>2021-10-17T09:11:55Z</time>
      </trkpt>
      <trkpt lat="43.17861" lon="1.00739">
        <ele>358.19995117</ele>
        <time>2021-10-17T09:11:56Z</time>
      </trkpt>
      <trkpt lat="43.17861" lon="1.00743">
        <ele>358.63995361</ele>
        <time>2021-10-17T09:11:57Z</time>
      </trkpt>
      <trkpt lat="43.17862" lon="1.00747">
        <ele>359.16995239</ele>
        <time>2021-10-17T09:11:58Z</time>
      </trkpt>
      <trkpt lat="43.17863" lon="1.00753">
        <ele>359.62994385</ele>
        <time>2021-10-17T09:11:59Z</time>
      </trkpt>
      <trkpt lat="43.17864" lon="1.00756">
        <ele>359.9899292</ele>
        <time>2021-10-17T09:12:00Z</time>
      </trkpt>
      <trkpt lat="43.17864" lon="1.0076">
        <ele>360.36993408</ele>
        <time>2021-10-17T09:12:01Z</time>
      </trkpt>
      <trkpt lat="43.17864" lon="1.00763">
        <ele>360.69992065</ele>
        <time>2021-10-17T09:12:02Z</time>
      </trkpt>
      <trkpt lat="43.17865" lon="1.00767">
        <ele>360.92993164</ele>
        <time>2021-10-17T09:12:03Z</time>
      </trkpt>
      <trkpt lat="43.17866" lon="1.0077">
        <ele>361.22991943</ele>
        <time>2021-10-17T09:12:04Z</time>
      </trkpt>
      <trkpt lat="43.17866" lon="1.00773">
        <ele>361.59991455</ele>
        <time>2021-10-17T09:12:05Z</time>
      </trkpt>
      <trkpt lat="43.17867" lon="1.00776">
        <ele>361.9598999</ele>
        <time>2021-10-17T09:12:06Z</time>
      </trkpt>
      <trkpt lat="43.17868" lon="1.00779">
        <ele>362.36990356</ele>
        <time>2021-10-17T09:12:07Z</time>
      </trkpt>
      <trkpt lat="43.17869" lon="1.00783">
        <ele>362.72988892</ele>
        <time>2021-10-17T09:12:08Z</time>
      </trkpt>
      <trkpt lat="43.1787" lon="1.00786">
        <ele>363.02987671</ele>
        <time>2021-10-17T09:12:09Z</time>
      </trkpt>
      <trkpt lat="43.17871" lon="1.0079">
        <ele>363.39987183</ele>
        <time>2021-10-17T09:12:10Z</time>
      </trkpt>
      <trkpt lat="43.17872" lon="1.00793">
        <ele>363.61987305</ele>
        <time>2021-10-17T09:12:11Z</time>
      </trkpt>
      <trkpt lat="43.17873" lon="1.00798">
        <ele>363.84988403</ele>
        <time>2021-10-17T09:12:12Z</time>
      </trkpt>
      <trkpt lat="43.17873" lon="1.00801">
        <ele>364.01989746</ele>
        <time>2021-10-17T09:12:13Z</time>
      </trkpt>
      <trkpt lat="43.17875" lon="1.00803">
        <ele>364.06988525</ele>
        <time>2021-10-17T09:12:14Z</time>
      </trkpt>
      <trkpt lat="43.17876" lon="1.00806">
        <ele>364.2598877</ele>
        <time>2021-10-17T09:12:15Z</time>
      </trkpt>
      <trkpt lat="43.17877" lon="1.00811">
        <ele>364.5098877</ele>
        <time>2021-10-17T09:12:16Z</time>
      </trkpt>
      <trkpt lat="43.17878" lon="1.00814">
        <ele>364.7098999</ele>
        <time>2021-10-17T09:12:17Z</time>
      </trkpt>
      <trkpt lat="43.17878" lon="1.00817">
        <ele>364.94989014</ele>
        <time>2021-10-17T09:12:18Z</time>
      </trkpt>
      <trkpt lat="43.17879" lon="1.0082">
        <ele>365.24987793</ele>
        <time>2021-10-17T09:12:19Z</time>
      </trkpt>
      <trkpt lat="43.17879" lon="1.00823">
        <ele>365.42987061</ele>
        <time>2021-10-17T09:12:20Z</time>
      </trkpt>
      <trkpt lat="43.1788" lon="1.00827">
        <ele>365.5798645</ele>
        <time>2021-10-17T09:12:21Z</time>
      </trkpt>
      <trkpt lat="43.1788" lon="1.00829">
        <ele>365.70986938</ele>
        <time>2021-10-17T09:12:22Z</time>
      </trkpt>
      <trkpt lat="43.17881" lon="1.00832">
        <ele>365.81985474</ele>
        <time>2021-10-17T09:12:23Z</time>
      </trkpt>
      <trkpt lat="43.17882" lon="1.00834">
        <ele>365.95986938</ele>
        <time>2021-10-17T09:12:24Z</time>
      </trkpt>
      <trkpt lat="43.17883" lon="1.00839">
        <ele>366.17987061</ele>
        <time>2021-10-17T09:12:25Z</time>
      </trkpt>
      <trkpt lat="43.17884" lon="1.00842">
        <ele>366.40988159</ele>
        <time>2021-10-17T09:12:26Z</time>
      </trkpt>
      <trkpt lat="43.17886" lon="1.00845">
        <ele>366.57989502</ele>
        <time>2021-10-17T09:12:27Z</time>
      </trkpt>
      <trkpt lat="43.17887" lon="1.00848">
        <ele>366.81988525</ele>
        <time>2021-10-17T09:12:28Z</time>
      </trkpt>
      <trkpt lat="43.17888" lon="1.00851">
        <ele>367.1098938</ele>
        <time>2021-10-17T09:12:29Z</time>
      </trkpt>
      <trkpt lat="43.1789" lon="1.00854">
        <ele>367.37988281</ele>
        <time>2021-10-17T09:12:30Z</time>
      </trkpt>
      <trkpt lat="43.17891" lon="1.00857">
        <ele>367.65988159</ele>
        <time>2021-10-17T09:12:31Z</time>
      </trkpt>
      <trkpt lat="43.17892" lon="1.0086">
        <ele>367.88989258</ele>
        <time>2021-10-17T09:12:32Z</time>
      </trkpt>
      <trkpt lat="43.17892" lon="1.00862">
        <ele>368.14990234</ele>
        <time>2021-10-17T09:12:33Z</time>
      </trkpt>
      <trkpt lat="43.17893" lon="1.00864">
        <ele>368.46990967</ele>
        <time>2021-10-17T09:12:34Z</time>
      </trkpt>
      <trkpt lat="43.17894" lon="1.00868">
        <ele>368.79989624</ele>
        <time>2021-10-17T09:12:35Z</time>
      </trkpt>
      <trkpt lat="43.17895" lon="1.00871">
        <ele>369.15988159</ele>
        <time>2021-10-17T09:12:36Z</time>
      </trkpt>
      <trkpt lat="43.17895" lon="1.00873">
        <ele>369.37988281</ele>
        <time>2021-10-17T09:12:37Z</time>
      </trkpt>
      <trkpt lat="43.17896" lon="1.00876">
        <ele>369.57989502</ele>
        <time>2021-10-17T09:12:38Z</time>
      </trkpt>
      <trkpt lat="43.17897" lon="1.0088">
        <ele>369.8598938</ele>
        <time>2021-10-17T09:12:39Z</time>
      </trkpt>
      <trkpt lat="43.17899" lon="1.00881">
        <ele>370.09988403</ele>
        <time>2021-10-17T09:12:40Z</time>
      </trkpt>
      <trkpt lat="43.179" lon="1.00884">
        <ele>370.48989868</ele>
        <time>2021-10-17T09:12:41Z</time>
      </trkpt>
      <trkpt lat="43.17901" lon="1.00886">
        <ele>370.86990356</ele>
        <time>2021-10-17T09:12:42Z</time>
      </trkpt>
      <trkpt lat="43.17901" lon="1.00888">
        <ele>371.09991455</ele>
        <time>2021-10-17T09:12:43Z</time>
      </trkpt>
      <trkpt lat="43.17903" lon="1.00892">
        <ele>371.51992798</ele>
        <time>2021-10-17T09:12:44Z</time>
      </trkpt>
      <trkpt lat="43.17903" lon="1.00894">
        <ele>371.93994141</ele>
        <time>2021-10-17T09:12:45Z</time>
      </trkpt>
      <trkpt lat="43.17903" lon="1.00896">
        <ele>372.32995605</ele>
        <time>2021-10-17T09:12:46Z</time>
      </trkpt>
      <trkpt lat="43.17903" lon="1.00898">
        <ele>372.98995972</ele>
        <time>2021-10-17T09:12:47Z</time>
      </trkpt>
      <trkpt lat="43.17903" lon="1.00901">
        <ele>373.49996948</ele>
        <time>2021-10-17T09:12:48Z</time>
      </trkpt>
      <trkpt lat="43.17903" lon="1.00903">
        <ele>373.95996094</ele>
        <time>2021-10-17T09:12:49Z</time>
      </trkpt>
      <trkpt lat="43.17903" lon="1.00905">
        <ele>374.54995728</ele>
        <time>2021-10-17T09:12:50Z</time>
      </trkpt>
      <trkpt lat="43.17903" lon="1.00908">
        <ele>374.8699646</ele>
        <time>2021-10-17T09:12:51Z</time>
      </trkpt>
      <trkpt lat="43.17904" lon="1.0091">
        <ele>375.12997437</ele>
        <time>2021-10-17T09:12:52Z</time>
      </trkpt>
      <trkpt lat="43.17905" lon="1.00914">
        <ele>375.44998169</ele>
        <time>2021-10-17T09:12:53Z</time>
      </trkpt>
      <trkpt lat="43.17906" lon="1.00917">
        <ele>375.70999146</ele>
        <time>2021-10-17T09:12:54Z</time>
      </trkpt>
      <trkpt lat="43.17906" lon="1.00919">
        <ele>376.00997925</ele>
        <time>2021-10-17T09:12:55Z</time>
      </trkpt>
      <trkpt lat="43.17906" lon="1.00922">
        <ele>376.3699646</ele>
        <time>2021-10-17T09:12:56Z</time>
      </trkpt>
      <trkpt lat="43.17907" lon="1.00925">
        <ele>376.70996094</ele>
        <time>2021-10-17T09:12:57Z</time>
      </trkpt>
      <trkpt lat="43.17907" lon="1.00928">
        <ele>377.03994751</ele>
        <time>2021-10-17T09:12:58Z</time>
      </trkpt>
      <trkpt lat="43.17907" lon="1.0093">
        <ele>377.42996216</ele>
        <time>2021-10-17T09:12:59Z</time>
      </trkpt>
      <trkpt lat="43.17907" lon="1.00932">
        <ele>377.87997437</ele>
        <time>2021-10-17T09:13:00Z</time>
      </trkpt>
      <trkpt lat="43.17908" lon="1.00934">
        <ele>378.28997803</ele>
        <time>2021-10-17T09:13:01Z</time>
      </trkpt>
      <trkpt lat="43.17908" lon="1.00938">
        <ele>378.7199707</ele>
        <time>2021-10-17T09:13:02Z</time>
      </trkpt>
      <trkpt lat="43.17908" lon="1.0094">
        <ele>379.10998535</ele>
        <time>2021-10-17T09:13:03Z</time>
      </trkpt>
      <trkpt lat="43.17909" lon="1.00942">
        <ele>379.43997192</ele>
        <time>2021-10-17T09:13:04Z</time>
      </trkpt>
      <trkpt lat="43.17909" lon="1.00944">
        <ele>379.87997437</ele>
        <time>2021-10-17T09:13:05Z</time>
      </trkpt>
      <trkpt lat="43.1791" lon="1.00947">
        <ele>380.29998779</ele>
        <time>2021-10-17T09:13:06Z</time>
      </trkpt>
      <trkpt lat="43.17911" lon="1.0095">
        <ele>380.73999023</ele>
        <time>2021-10-17T09:13:07Z</time>
      </trkpt>
      <trkpt lat="43.17912" lon="1.00952">
        <ele>381.19000244</ele>
        <time>2021-10-17T09:13:08Z</time>
      </trkpt>
      <trkpt lat="43.17913" lon="1.00954">
        <ele>381.55999756</ele>
        <time>2021-10-17T09:13:09Z</time>
      </trkpt>
      <trkpt lat="43.17914" lon="1.00956">
        <ele>382.07998657</ele>
        <time>2021-10-17T09:13:10Z</time>
      </trkpt>
      <trkpt lat="43.17915" lon="1.00959">
        <ele>382.59997559</ele>
        <time>2021-10-17T09:13:11Z</time>
      </trkpt>
      <trkpt lat="43.17915" lon="1.00961">
        <ele>383.1199646</ele>
        <time>2021-10-17T09:13:12Z</time>
      </trkpt>
      <trkpt lat="43.17916" lon="1.00963">
        <ele>383.65997314</ele>
        <time>2021-10-17T09:13:13Z</time>
      </trkpt>
      <trkpt lat="43.17918" lon="1.00965">
        <ele>384.00997925</ele>
        <time>2021-10-17T09:13:14Z</time>
      </trkpt>
      <trkpt lat="43.17919" lon="1.00966">
        <ele>384.47998047</ele>
        <time>2021-10-17T09:13:15Z</time>
      </trkpt>
      <trkpt lat="43.1792" lon="1.00969">
        <ele>384.82998657</ele>
        <time>2021-10-17T09:13:16Z</time>
      </trkpt>
      <trkpt lat="43.1792" lon="1.00971">
        <ele>385.29998779</ele>
        <time>2021-10-17T09:13:17Z</time>
      </trkpt>
      <trkpt lat="43.1792" lon="1.00974">
        <ele>385.79998779</ele>
        <time>2021-10-17T09:13:18Z</time>
      </trkpt>
      <trkpt lat="43.17921" lon="1.00976">
        <ele>386.15997314</ele>
        <time>2021-10-17T09:13:19Z</time>
      </trkpt>
      <trkpt lat="43.17921" lon="1.00979">
        <ele>386.58996582</ele>
        <time>2021-10-17T09:13:20Z</time>
      </trkpt>
      <trkpt lat="43.17921" lon="1.00981">
        <ele>386.0199585</ele>
        <time>2021-10-17T09:13:21Z</time>
      </trkpt>
      <trkpt lat="43.17921" lon="1.00983">
        <ele>386.30996704</ele>
        <time>2021-10-17T09:13:22Z</time>
      </trkpt>
      <trkpt lat="43.1792" lon="1.00985">
        <ele>386.62997437</ele>
        <time>2021-10-17T09:13:23Z</time>
      </trkpt>
      <trkpt lat="43.1792" lon="1.00988">
        <ele>386.89996338</ele>
        <time>2021-10-17T09:13:24Z</time>
      </trkpt>
      <trkpt lat="43.17921" lon="1.00991">
        <ele>387.10995483</ele>
        <time>2021-10-17T09:13:25Z</time>
      </trkpt>
      <trkpt lat="43.17921" lon="1.00993">
        <ele>387.45996094</ele>
        <time>2021-10-17T09:13:26Z</time>
      </trkpt>
      <trkpt lat="43.17922" lon="1.00996">
        <ele>387.64996338</ele>
        <time>2021-10-17T09:13:27Z</time>
      </trkpt>
      <trkpt lat="43.17922" lon="1.00997">
        <ele>387.87997437</ele>
        <time>2021-10-17T09:13:28Z</time>
      </trkpt>
      <trkpt lat="43.17923" lon="1.01001">
        <ele>388.07998657</ele>
        <time>2021-10-17T09:13:29Z</time>
      </trkpt>
      <trkpt lat="43.17923" lon="1.01003">
        <ele>388.23999023</ele>
        <time>2021-10-17T09:13:30Z</time>
      </trkpt>
      <trkpt lat="43.17923" lon="1.01006">
        <ele>388.52999878</ele>
        <time>2021-10-17T09:13:31Z</time>
      </trkpt>
      <trkpt lat="43.17924" lon="1.01008">
        <ele>388.77999878</ele>
        <time>2021-10-17T09:13:32Z</time>
      </trkpt>
      <trkpt lat="43.17924" lon="1.01011">
        <ele>389.04000854</ele>
        <time>2021-10-17T09:13:33Z</time>
      </trkpt>
      <trkpt lat="43.17924" lon="1.01014">
        <ele>389.38000488</ele>
        <time>2021-10-17T09:13:34Z</time>
      </trkpt>
      <trkpt lat="43.17924" lon="1.01016">
        <ele>389.61001587</ele>
        <time>2021-10-17T09:13:35Z</time>
      </trkpt>
      <trkpt lat="43.17925" lon="1.01019">
        <ele>389.95001221</ele>
        <time>2021-10-17T09:13:36Z</time>
      </trkpt>
      <trkpt lat="43.17925" lon="1.01021">
        <ele>390.37002563</ele>
        <time>2021-10-17T09:13:37Z</time>
      </trkpt>
      <trkpt lat="43.17925" lon="1.01025">
        <ele>390.66003418</ele>
        <time>2021-10-17T09:13:38Z</time>
      </trkpt>
      <trkpt lat="43.17925" lon="1.01026">
        <ele>391.06002808</ele>
        <time>2021-10-17T09:13:39Z</time>
      </trkpt>
      <trkpt lat="43.17925" lon="1.01028">
        <ele>391.37002563</ele>
        <time>2021-10-17T09:13:40Z</time>
      </trkpt>
      <trkpt lat="43.17925" lon="1.0103">
        <ele>391.65002441</ele>
        <time>2021-10-17T09:13:41Z</time>
      </trkpt>
      <trkpt lat="43.17925" lon="1.01033">
        <ele>391.89001465</ele>
        <time>2021-10-17T09:13:42Z</time>
      </trkpt>
      <trkpt lat="43.17925" lon="1.01036">
        <ele>392.09002686</ele>
        <time>2021-10-17T09:13:43Z</time>
      </trkpt>
      <trkpt lat="43.17926" lon="1.01038">
        <ele>392.41003418</ele>
        <time>2021-10-17T09:13:44Z</time>
      </trkpt>
      <trkpt lat="43.17926" lon="1.01041">
        <ele>392.64004517</ele>
        <time>2021-10-17T09:13:45Z</time>
      </trkpt>
      <trkpt lat="43.17926" lon="1.01044">
        <ele>392.92004395</ele>
        <time>2021-10-17T09:13:46Z</time>
      </trkpt>
      <trkpt lat="43.17926" lon="1.01046">
        <ele>393.19003296</ele>
        <time>2021-10-17T09:13:47Z</time>
      </trkpt>
      <trkpt lat="43.17926" lon="1.01049">
        <ele>393.36004639</ele>
        <time>2021-10-17T09:13:48Z</time>
      </trkpt>
      <trkpt lat="43.17926" lon="1.01051">
        <ele>393.68005371</ele>
        <time>2021-10-17T09:13:49Z</time>
      </trkpt>
      <trkpt lat="43.17927" lon="1.01053">
        <ele>393.95004272</ele>
        <time>2021-10-17T09:13:50Z</time>
      </trkpt>
      <trkpt lat="43.17927" lon="1.01057">
        <ele>394.21005249</ele>
        <time>2021-10-17T09:13:51Z</time>
      </trkpt>
      <trkpt lat="43.17927" lon="1.01059">
        <ele>394.51004028</ele>
        <time>2021-10-17T09:13:52Z</time>
      </trkpt>
      <trkpt lat="43.17927" lon="1.0106">
        <ele>394.79003906</ele>
        <time>2021-10-17T09:13:53Z</time>
      </trkpt>
      <trkpt lat="43.17927" lon="1.01063">
        <ele>395.11004639</ele>
        <time>2021-10-17T09:13:54Z</time>
      </trkpt>
      <trkpt lat="43.17927" lon="1.01066">
        <ele>395.39004517</ele>
        <time>2021-10-17T09:13:55Z</time>
      </trkpt>
      <trkpt lat="43.17927" lon="1.01069">
        <ele>395.65005493</ele>
        <time>2021-10-17T09:13:56Z</time>
      </trkpt>
      <trkpt lat="43.17927" lon="1.01071">
        <ele>395.80004883</ele>
        <time>2021-10-17T09:13:57Z</time>
      </trkpt>
      <trkpt lat="43.17927" lon="1.01073">
        <ele>395.94006348</ele>
        <time>2021-10-17T09:13:58Z</time>
      </trkpt>
      <trkpt lat="43.17927" lon="1.01075">
        <ele>396.06005859</ele>
        <time>2021-10-17T09:13:59Z</time>
      </trkpt>
      <trkpt lat="43.17927" lon="1.01078">
        <ele>396.19006348</ele>
        <time>2021-10-17T09:14:00Z</time>
      </trkpt>
      <trkpt lat="43.17927" lon="1.01081">
        <ele>396.38006592</ele>
        <time>2021-10-17T09:14:01Z</time>
      </trkpt>
      <trkpt lat="43.17926" lon="1.01083">
        <ele>396.58007812</ele>
        <time>2021-10-17T09:14:02Z</time>
      </trkpt>
      <trkpt lat="43.17926" lon="1.01085">
        <ele>396.79006958</ele>
        <time>2021-10-17T09:14:03Z</time>
      </trkpt>
      <trkpt lat="43.17926" lon="1.01088">
        <ele>397.02008057</ele>
        <time>2021-10-17T09:14:04Z</time>
      </trkpt>
      <trkpt lat="43.17925" lon="1.01091">
        <ele>397.19009399</ele>
        <time>2021-10-17T09:14:05Z</time>
      </trkpt>
      <trkpt lat="43.17925" lon="1.01093">
        <ele>397.37008667</ele>
        <time>2021-10-17T09:14:06Z</time>
      </trkpt>
      <trkpt lat="43.17925" lon="1.01095">
        <ele>397.59008789</ele>
        <time>2021-10-17T09:14:07Z</time>
      </trkpt>
      <trkpt lat="43.17925" lon="1.01098">
        <ele>397.74008179</ele>
        <time>2021-10-17T09:14:08Z</time>
      </trkpt>
      <trkpt lat="43.17925" lon="1.01101">
        <ele>397.90008545</ele>
        <time>2021-10-17T09:14:09Z</time>
      </trkpt>
      <trkpt lat="43.17925" lon="1.01103">
        <ele>398.07009888</ele>
        <time>2021-10-17T09:14:10Z</time>
      </trkpt>
      <trkpt lat="43.17925" lon="1.01105">
        <ele>398.26010132</ele>
        <time>2021-10-17T09:14:11Z</time>
      </trkpt>
      <trkpt lat="43.17925" lon="1.01108">
        <ele>398.52011108</ele>
        <time>2021-10-17T09:14:12Z</time>
      </trkpt>
      <trkpt lat="43.17925" lon="1.0111">
        <ele>398.81011963</ele>
        <time>2021-10-17T09:14:13Z</time>
      </trkpt>
      <trkpt lat="43.17925" lon="1.01114">
        <ele>399.03012085</ele>
        <time>2021-10-17T09:14:14Z</time>
      </trkpt>
      <trkpt lat="43.17925" lon="1.01116">
        <ele>399.26013184</ele>
        <time>2021-10-17T09:14:15Z</time>
      </trkpt>
      <trkpt lat="43.17925" lon="1.01119">
        <ele>399.45013428</ele>
        <time>2021-10-17T09:14:16Z</time>
      </trkpt>
      <trkpt lat="43.17925" lon="1.01121">
        <ele>399.59014893</ele>
        <time>2021-10-17T09:14:17Z</time>
      </trkpt>
      <trkpt lat="43.17925" lon="1.01124">
        <ele>399.74014282</ele>
        <time>2021-10-17T09:14:18Z</time>
      </trkpt>
      <trkpt lat="43.17925" lon="1.01127">
        <ele>399.91015625</ele>
        <time>2021-10-17T09:14:19Z</time>
      </trkpt>
      <trkpt lat="43.17925" lon="1.01129">
        <ele>400.06015015</ele>
        <time>2021-10-17T09:14:20Z</time>
      </trkpt>
      <trkpt lat="43.17925" lon="1.01132">
        <ele>399.40014648</ele>
        <time>2021-10-17T09:14:21Z</time>
      </trkpt>
      <trkpt lat="43.17925" lon="1.01136">
        <ele>399.61013794</ele>
        <time>2021-10-17T09:14:22Z</time>
      </trkpt>
      <trkpt lat="43.17925" lon="1.01138">
        <ele>399.82012939</ele>
        <time>2021-10-17T09:14:23Z</time>
      </trkpt>
      <trkpt lat="43.17925" lon="1.0114">
        <ele>400.05014038</ele>
        <time>2021-10-17T09:14:24Z</time>
      </trkpt>
      <trkpt lat="43.17925" lon="1.01141">
        <ele>400.23013306</ele>
        <time>2021-10-17T09:14:25Z</time>
      </trkpt>
      <trkpt lat="43.17925" lon="1.01144">
        <ele>400.47012329</ele>
        <time>2021-10-17T09:14:26Z</time>
      </trkpt>
      <trkpt lat="43.17926" lon="1.01147">
        <ele>400.64013672</ele>
        <time>2021-10-17T09:14:27Z</time>
      </trkpt>
      <trkpt lat="43.17926" lon="1.01149">
        <ele>400.93014526</ele>
        <time>2021-10-17T09:14:28Z</time>
      </trkpt>
      <trkpt lat="43.17926" lon="1.0115">
        <ele>401.25015259</ele>
        <time>2021-10-17T09:14:29Z</time>
      </trkpt>
      <trkpt lat="43.17927" lon="1.01152">
        <ele>401.59014893</ele>
        <time>2021-10-17T09:14:30Z</time>
      </trkpt>
      <trkpt lat="43.17928" lon="1.01154">
        <ele>401.96014404</ele>
        <time>2021-10-17T09:14:31Z</time>
      </trkpt>
      <trkpt lat="43.17927" lon="1.01157">
        <ele>402.24014282</ele>
        <time>2021-10-17T09:14:32Z</time>
      </trkpt>
      <trkpt lat="43.17928" lon="1.01159">
        <ele>402.64013672</ele>
        <time>2021-10-17T09:14:33Z</time>
      </trkpt>
      <trkpt lat="43.17929" lon="1.01161">
        <ele>402.99014282</ele>
        <time>2021-10-17T09:14:34Z</time>
      </trkpt>
      <trkpt lat="43.1793" lon="1.01163">
        <ele>403.54013062</ele>
        <time>2021-10-17T09:14:35Z</time>
      </trkpt>
      <trkpt lat="43.1793" lon="1.01166">
        <ele>404.03012085</ele>
        <time>2021-10-17T09:14:36Z</time>
      </trkpt>
      <trkpt lat="43.1793" lon="1.01169">
        <ele>404.47012329</ele>
        <time>2021-10-17T09:14:37Z</time>
      </trkpt>
      <trkpt lat="43.1793" lon="1.01171">
        <ele>404.80010986</ele>
        <time>2021-10-17T09:14:38Z</time>
      </trkpt>
      <trkpt lat="43.17931" lon="1.01174">
        <ele>404.9901123</ele>
        <time>2021-10-17T09:14:39Z</time>
      </trkpt>
      <trkpt lat="43.17931" lon="1.01179">
        <ele>405.26010132</ele>
        <time>2021-10-17T09:14:40Z</time>
      </trkpt>
      <trkpt lat="43.17931" lon="1.01181">
        <ele>405.46011353</ele>
        <time>2021-10-17T09:14:41Z</time>
      </trkpt>
      <trkpt lat="43.17932" lon="1.01184">
        <ele>405.65011597</ele>
        <time>2021-10-17T09:14:42Z</time>
      </trkpt>
      <trkpt lat="43.17932" lon="1.01186">
        <ele>405.81011963</ele>
        <time>2021-10-17T09:14:43Z</time>
      </trkpt>
      <trkpt lat="43.17931" lon="1.01188">
        <ele>405.97012329</ele>
        <time>2021-10-17T09:14:44Z</time>
      </trkpt>
      <trkpt lat="43.1793" lon="1.01191">
        <ele>406.10012817</ele>
        <time>2021-10-17T09:14:45Z</time>
      </trkpt>
      <trkpt lat="43.1793" lon="1.01193">
        <ele>406.2701416</ele>
        <time>2021-10-17T09:14:46Z</time>
      </trkpt>
      <trkpt lat="43.17929" lon="1.01195">
        <ele>406.33013916</ele>
        <time>2021-10-17T09:14:47Z</time>
      </trkpt>
      <trkpt lat="43.17928" lon="1.01197">
        <ele>406.43014526</ele>
        <time>2021-10-17T09:14:48Z</time>
      </trkpt>
      <trkpt lat="43.17928" lon="1.01199">
        <ele>406.51013184</ele>
        <time>2021-10-17T09:14:49Z</time>
      </trkpt>
      <trkpt lat="43.17928" lon="1.01203">
        <ele>406.66012573</ele>
        <time>2021-10-17T09:14:50Z</time>
      </trkpt>
      <trkpt lat="43.17927" lon="1.01205">
        <ele>406.89013672</ele>
        <time>2021-10-17T09:14:51Z</time>
      </trkpt>
      <trkpt lat="43.17927" lon="1.01207">
        <ele>407.05014038</ele>
        <time>2021-10-17T09:14:52Z</time>
      </trkpt>
      <trkpt lat="43.17928" lon="1.01208">
        <ele>408.04000854</ele>
        <time>2021-10-17T09:14:52Z</time>
      </trkpt>
      <trkpt lat="43.17928" lon="1.0121">
        <ele>408.30001831</ele>
        <time>2021-10-17T09:14:53Z</time>
      </trkpt>
      <trkpt lat="43.17928" lon="1.01212">
        <ele>408.44003296</ele>
        <time>2021-10-17T09:14:54Z</time>
      </trkpt>
      <trkpt lat="43.17927" lon="1.01215">
        <ele>408.62002563</ele>
        <time>2021-10-17T09:14:55Z</time>
      </trkpt>
      <trkpt lat="43.17927" lon="1.01218">
        <ele>408.84002686</ele>
        <time>2021-10-17T09:14:56Z</time>
      </trkpt>
      <trkpt lat="43.17927" lon="1.0122">
        <ele>408.92001343</ele>
        <time>2021-10-17T09:14:57Z</time>
      </trkpt>
      <trkpt lat="43.17926" lon="1.01222">
        <ele>409.06002808</ele>
        <time>2021-10-17T09:14:58Z</time>
      </trkpt>
      <trkpt lat="43.17926" lon="1.01225">
        <ele>409.14001465</ele>
        <time>2021-10-17T09:14:59Z</time>
      </trkpt>
      <trkpt lat="43.17926" lon="1.01227">
        <ele>409.20001221</ele>
        <time>2021-10-17T09:15:00Z</time>
      </trkpt>
      <trkpt lat="43.17925" lon="1.01228">
        <ele>409.40002441</ele>
        <time>2021-10-17T09:15:01Z</time>
      </trkpt>
      <trkpt lat="43.17925" lon="1.0123">
        <ele>409.65002441</ele>
        <time>2021-10-17T09:15:02Z</time>
      </trkpt>
      <trkpt lat="43.17924" lon="1.01233">
        <ele>409.83001709</ele>
        <time>2021-10-17T09:15:03Z</time>
      </trkpt>
      <trkpt lat="43.17924" lon="1.01236">
        <ele>410.15002441</ele>
        <time>2021-10-17T09:15:04Z</time>
      </trkpt>
      <trkpt lat="43.17924" lon="1.01239">
        <ele>410.45001221</ele>
        <time>2021-10-17T09:15:05Z</time>
      </trkpt>
      <trkpt lat="43.17924" lon="1.01241">
        <ele>410.79000854</ele>
        <time>2021-10-17T09:15:06Z</time>
      </trkpt>
      <trkpt lat="43.17924" lon="1.01244">
        <ele>411.17001343</ele>
        <time>2021-10-17T09:15:07Z</time>
      </trkpt>
      <trkpt lat="43.17923" lon="1.01249">
        <ele>411.37002563</ele>
        <time>2021-10-17T09:15:08Z</time>
      </trkpt>
      <trkpt lat="43.17924" lon="1.01252">
        <ele>411.50003052</ele>
        <time>2021-10-17T09:15:09Z</time>
      </trkpt>
      <trkpt lat="43.17923" lon="1.01255">
        <ele>411.51004028</ele>
        <time>2021-10-17T09:15:10Z</time>
      </trkpt>
      <trkpt lat="43.17923" lon="1.01257">
        <ele>411.61004639</ele>
        <time>2021-10-17T09:15:11Z</time>
      </trkpt>
      <trkpt lat="43.17923" lon="1.01261">
        <ele>411.7300415</ele>
        <time>2021-10-17T09:15:12Z</time>
      </trkpt>
      <trkpt lat="43.17923" lon="1.01263">
        <ele>411.95004272</ele>
        <time>2021-10-17T09:15:13Z</time>
      </trkpt>
      <trkpt lat="43.17923" lon="1.01265">
        <ele>412.25003052</ele>
        <time>2021-10-17T09:15:14Z</time>
      </trkpt>
      <trkpt lat="43.17923" lon="1.01267">
        <ele>412.44003296</ele>
        <time>2021-10-17T09:15:15Z</time>
      </trkpt>
      <trkpt lat="43.17922" lon="1.0127">
        <ele>412.67004395</ele>
        <time>2021-10-17T09:15:16Z</time>
      </trkpt>
      <trkpt lat="43.17922" lon="1.01273">
        <ele>412.80004883</ele>
        <time>2021-10-17T09:15:17Z</time>
      </trkpt>
      <trkpt lat="43.17922" lon="1.01275">
        <ele>412.86004639</ele>
        <time>2021-10-17T09:15:18Z</time>
      </trkpt>
      <trkpt lat="43.17922" lon="1.01277">
        <ele>413.07003784</ele>
        <time>2021-10-17T09:15:19Z</time>
      </trkpt>
      <trkpt lat="43.17922" lon="1.01279">
        <ele>413.22003174</ele>
        <time>2021-10-17T09:15:20Z</time>
      </trkpt>
      <trkpt lat="43.17922" lon="1.01283">
        <ele>412.60003662</ele>
        <time>2021-10-17T09:15:21Z</time>
      </trkpt>
      <trkpt lat="43.17922" lon="1.01285">
        <ele>412.76004028</ele>
        <time>2021-10-17T09:15:22Z</time>
      </trkpt>
      <trkpt lat="43.17922" lon="1.01287">
        <ele>412.8800354</ele>
        <time>2021-10-17T09:15:23Z</time>
      </trkpt>
      <trkpt lat="43.17922" lon="1.0129">
        <ele>412.95004272</ele>
        <time>2021-10-17T09:15:24Z</time>
      </trkpt>
      <trkpt lat="43.17922" lon="1.01292">
        <ele>413.04003906</ele>
        <time>2021-10-17T09:15:25Z</time>
      </trkpt>
      <trkpt lat="43.17921" lon="1.01296">
        <ele>413.20004272</ele>
        <time>2021-10-17T09:15:26Z</time>
      </trkpt>
      <trkpt lat="43.17921" lon="1.01298">
        <ele>413.27005005</ele>
        <time>2021-10-17T09:15:27Z</time>
      </trkpt>
      <trkpt lat="43.17921" lon="1.01302">
        <ele>413.3800354</ele>
        <time>2021-10-17T09:15:28Z</time>
      </trkpt>
      <trkpt lat="43.17921" lon="1.01305">
        <ele>413.44003296</ele>
        <time>2021-10-17T09:15:29Z</time>
      </trkpt>
      <trkpt lat="43.1792" lon="1.01307">
        <ele>413.44003296</ele>
        <time>2021-10-17T09:15:30Z</time>
      </trkpt>
      <trkpt lat="43.1792" lon="1.0131">
        <ele>413.47003174</ele>
        <time>2021-10-17T09:15:31Z</time>
      </trkpt>
      <trkpt lat="43.1792" lon="1.01313">
        <ele>413.47003174</ele>
        <time>2021-10-17T09:15:32Z</time>
      </trkpt>
      <trkpt lat="43.1792" lon="1.01316">
        <ele>413.54003906</ele>
        <time>2021-10-17T09:15:33Z</time>
      </trkpt>
      <trkpt lat="43.17919" lon="1.0132">
        <ele>413.71005249</ele>
        <time>2021-10-17T09:15:34Z</time>
      </trkpt>
      <trkpt lat="43.17919" lon="1.01322">
        <ele>413.83004761</ele>
        <time>2021-10-17T09:15:35Z</time>
      </trkpt>
      <trkpt lat="43.1792" lon="1.01325">
        <ele>414.02005005</ele>
        <time>2021-10-17T09:15:36Z</time>
      </trkpt>
      <trkpt lat="43.1792" lon="1.01327">
        <ele>414.1600647</ele>
        <time>2021-10-17T09:15:37Z</time>
      </trkpt>
      <trkpt lat="43.1792" lon="1.0133">
        <ele>414.18005371</ele>
        <time>2021-10-17T09:15:38Z</time>
      </trkpt>
      <trkpt lat="43.1792" lon="1.01334">
        <ele>414.24005127</ele>
        <time>2021-10-17T09:15:39Z</time>
      </trkpt>
      <trkpt lat="43.17919" lon="1.01337">
        <ele>414.31005859</ele>
        <time>2021-10-17T09:15:40Z</time>
      </trkpt>
      <trkpt lat="43.17919" lon="1.0134">
        <ele>414.44006348</ele>
        <time>2021-10-17T09:15:41Z</time>
      </trkpt>
      <trkpt lat="43.17918" lon="1.01342">
        <ele>414.53005981</ele>
        <time>2021-10-17T09:15:42Z</time>
      </trkpt>
      <trkpt lat="43.17918" lon="1.01344">
        <ele>414.68005371</ele>
        <time>2021-10-17T09:15:43Z</time>
      </trkpt>
      <trkpt lat="43.17917" lon="1.01347">
        <ele>414.82006836</ele>
        <time>2021-10-17T09:15:44Z</time>
      </trkpt>
      <trkpt lat="43.17917" lon="1.0135">
        <ele>414.89007568</ele>
        <time>2021-10-17T09:15:45Z</time>
      </trkpt>
      <trkpt lat="43.17917" lon="1.01353">
        <ele>415.00006104</ele>
        <time>2021-10-17T09:15:46Z</time>
      </trkpt>
      <trkpt lat="43.17916" lon="1.01355">
        <ele>415.07006836</ele>
        <time>2021-10-17T09:15:47Z</time>
      </trkpt>
      <trkpt lat="43.17917" lon="1.0136">
        <ele>415.12005615</ele>
        <time>2021-10-17T09:15:48Z</time>
      </trkpt>
      <trkpt lat="43.17918" lon="1.01363">
        <ele>415.14004517</ele>
        <time>2021-10-17T09:15:49Z</time>
      </trkpt>
      <trkpt lat="43.17918" lon="1.01366">
        <ele>415.25003052</ele>
        <time>2021-10-17T09:15:50Z</time>
      </trkpt>
      <trkpt lat="43.17917" lon="1.01369">
        <ele>415.33001709</ele>
        <time>2021-10-17T09:15:51Z</time>
      </trkpt>
      <trkpt lat="43.17917" lon="1.01372">
        <ele>415.42001343</ele>
        <time>2021-10-17T09:15:52Z</time>
      </trkpt>
      <trkpt lat="43.17917" lon="1.01376">
        <ele>415.5</ele>
        <time>2021-10-17T09:15:53Z</time>
      </trkpt>
      <trkpt lat="43.17917" lon="1.0138">
        <ele>415.48999023</ele>
        <time>2021-10-17T09:15:54Z</time>
      </trkpt>
      <trkpt lat="43.17917" lon="1.01383">
        <ele>415.47000122</ele>
        <time>2021-10-17T09:15:55Z</time>
      </trkpt>
      <trkpt lat="43.17916" lon="1.01387">
        <ele>415.44000244</ele>
        <time>2021-10-17T09:15:56Z</time>
      </trkpt>
      <trkpt lat="43.17915" lon="1.01391">
        <ele>415.48999023</ele>
        <time>2021-10-17T09:15:57Z</time>
      </trkpt>
      <trkpt lat="43.17913" lon="1.01397">
        <ele>415.44000244</ele>
        <time>2021-10-17T09:15:58Z</time>
      </trkpt>
      <trkpt lat="43.17912" lon="1.01401">
        <ele>415.42999268</ele>
        <time>2021-10-17T09:15:59Z</time>
      </trkpt>
      <trkpt lat="43.17911" lon="1.01405">
        <ele>415.32998657</ele>
        <time>2021-10-17T09:16:00Z</time>
      </trkpt>
      <trkpt lat="43.17911" lon="1.01409">
        <ele>415.19998169</ele>
        <time>2021-10-17T09:16:01Z</time>
      </trkpt>
      <trkpt lat="43.1791" lon="1.01415">
        <ele>415.2199707</ele>
        <time>2021-10-17T09:16:02Z</time>
      </trkpt>
      <trkpt lat="43.1791" lon="1.01419">
        <ele>415.1199646</ele>
        <time>2021-10-17T09:16:03Z</time>
      </trkpt>
      <trkpt lat="43.17909" lon="1.01423">
        <ele>415.1199646</ele>
        <time>2021-10-17T09:16:04Z</time>
      </trkpt>
      <trkpt lat="43.17908" lon="1.01427">
        <ele>415.13995361</ele>
        <time>2021-10-17T09:16:05Z</time>
      </trkpt>
      <trkpt lat="43.17906" lon="1.01433">
        <ele>415.08996582</ele>
        <time>2021-10-17T09:16:06Z</time>
      </trkpt>
      <trkpt lat="43.17906" lon="1.01436">
        <ele>415.15997314</ele>
        <time>2021-10-17T09:16:07Z</time>
      </trkpt>
      <trkpt lat="43.17905" lon="1.0144">
        <ele>415.13998413</ele>
        <time>2021-10-17T09:16:08Z</time>
      </trkpt>
      <trkpt lat="43.17903" lon="1.01444">
        <ele>414.9699707</ele>
        <time>2021-10-17T09:16:09Z</time>
      </trkpt>
      <trkpt lat="43.17903" lon="1.0145">
        <ele>414.7199707</ele>
        <time>2021-10-17T09:16:10Z</time>
      </trkpt>
      <trkpt lat="43.17902" lon="1.0146">
        <ele>414.37997437</ele>
        <time>2021-10-17T09:16:11Z</time>
      </trkpt>
      <trkpt lat="43.17901" lon="1.01467">
        <ele>413.88998413</ele>
        <time>2021-10-17T09:16:12Z</time>
      </trkpt>
      <trkpt lat="43.179" lon="1.01476">
        <ele>413.27999878</ele>
        <time>2021-10-17T09:16:13Z</time>
      </trkpt>
      <trkpt lat="43.179" lon="1.01484">
        <ele>412.6000061</ele>
        <time>2021-10-17T09:16:14Z</time>
      </trkpt>
      <trkpt lat="43.17898" lon="1.01496">
        <ele>411.86999512</ele>
        <time>2021-10-17T09:16:15Z</time>
      </trkpt>
      <trkpt lat="43.17898" lon="1.01504">
        <ele>411.30999756</ele>
        <time>2021-10-17T09:16:16Z</time>
      </trkpt>
      <trkpt lat="43.17898" lon="1.01512">
        <ele>410.70001221</ele>
        <time>2021-10-17T09:16:17Z</time>
      </trkpt>
      <trkpt lat="43.17897" lon="1.0152">
        <ele>410.26000977</ele>
        <time>2021-10-17T09:16:18Z</time>
      </trkpt>
      <trkpt lat="43.17897" lon="1.01527">
        <ele>410.05001831</ele>
        <time>2021-10-17T09:16:19Z</time>
      </trkpt>
      <trkpt lat="43.17896" lon="1.01537">
        <ele>409.97003174</ele>
        <time>2021-10-17T09:16:20Z</time>
      </trkpt>
      <trkpt lat="43.17897" lon="1.01544">
        <ele>409.18002319</ele>
        <time>2021-10-17T09:16:21Z</time>
      </trkpt>
      <trkpt lat="43.17896" lon="1.01551">
        <ele>409.14001465</ele>
        <time>2021-10-17T09:16:22Z</time>
      </trkpt>
      <trkpt lat="43.17896" lon="1.01558">
        <ele>409.04000854</ele>
        <time>2021-10-17T09:16:23Z</time>
      </trkpt>
      <trkpt lat="43.17895" lon="1.01569">
        <ele>408.55999756</ele>
        <time>2021-10-17T09:16:24Z</time>
      </trkpt>
      <trkpt lat="43.17895" lon="1.01575">
        <ele>408.16000366</ele>
        <time>2021-10-17T09:16:25Z</time>
      </trkpt>
      <trkpt lat="43.17895" lon="1.01582">
        <ele>407.98999023</ele>
        <time>2021-10-17T09:16:26Z</time>
      </trkpt>
      <trkpt lat="43.17895" lon="1.01588">
        <ele>407.91998291</ele>
        <time>2021-10-17T09:16:27Z</time>
      </trkpt>
      <trkpt lat="43.17895" lon="1.01596">
        <ele>408.2199707</ele>
        <time>2021-10-17T09:16:28Z</time>
      </trkpt>
      <trkpt lat="43.17895" lon="1.01601">
        <ele>408.5199585</ele>
        <time>2021-10-17T09:16:29Z</time>
      </trkpt>
      <trkpt lat="43.17895" lon="1.01606">
        <ele>408.77996826</ele>
        <time>2021-10-17T09:16:30Z</time>
      </trkpt>
      <trkpt lat="43.17894" lon="1.0161">
        <ele>408.94998169</ele>
        <time>2021-10-17T09:16:31Z</time>
      </trkpt>
      <trkpt lat="43.17893" lon="1.01615">
        <ele>409.19998169</ele>
        <time>2021-10-17T09:16:32Z</time>
      </trkpt>
      <trkpt lat="43.17893" lon="1.0162">
        <ele>409.25997925</ele>
        <time>2021-10-17T09:16:33Z</time>
      </trkpt>
      <trkpt lat="43.17893" lon="1.01628">
        <ele>409.37997437</ele>
        <time>2021-10-17T09:16:34Z</time>
      </trkpt>
      <trkpt lat="43.17893" lon="1.01633">
        <ele>409.37997437</ele>
        <time>2021-10-17T09:16:35Z</time>
      </trkpt>
      <trkpt lat="43.17892" lon="1.01639">
        <ele>409.24996948</ele>
        <time>2021-10-17T09:16:36Z</time>
      </trkpt>
      <trkpt lat="43.17892" lon="1.01645">
        <ele>409.31997681</ele>
        <time>2021-10-17T09:16:37Z</time>
      </trkpt>
      <trkpt lat="43.17892" lon="1.01654">
        <ele>409.20999146</ele>
        <time>2021-10-17T09:16:38Z</time>
      </trkpt>
      <trkpt lat="43.17892" lon="1.01661">
        <ele>409.19998169</ele>
        <time>2021-10-17T09:16:39Z</time>
      </trkpt>
      <trkpt lat="43.17892" lon="1.01668">
        <ele>409.26998901</ele>
        <time>2021-10-17T09:16:40Z</time>
      </trkpt>
      <trkpt lat="43.17892" lon="1.01674">
        <ele>409.26998901</ele>
        <time>2021-10-17T09:16:41Z</time>
      </trkpt>
      <trkpt lat="43.17893" lon="1.01683">
        <ele>409.47000122</ele>
        <time>2021-10-17T09:16:42Z</time>
      </trkpt>
      <trkpt lat="43.17892" lon="1.01688">
        <ele>409.79998779</ele>
        <time>2021-10-17T09:16:43Z</time>
      </trkpt>
      <trkpt lat="43.17892" lon="1.01691">
        <ele>410.05999756</ele>
        <time>2021-10-17T09:16:44Z</time>
      </trkpt>
      <trkpt lat="43.17892" lon="1.01694">
        <ele>410.38998413</ele>
        <time>2021-10-17T09:16:45Z</time>
      </trkpt>
      <trkpt lat="43.17892" lon="1.017">
        <ele>410.65997314</ele>
        <time>2021-10-17T09:16:46Z</time>
      </trkpt>
      <trkpt lat="43.17891" lon="1.01705">
        <ele>410.57998657</ele>
        <time>2021-10-17T09:16:47Z</time>
      </trkpt>
      <trkpt lat="43.1789" lon="1.01709">
        <ele>410.3999939</ele>
        <time>2021-10-17T09:16:48Z</time>
      </trkpt>
      <trkpt lat="43.17889" lon="1.01713">
        <ele>410.16998291</ele>
        <time>2021-10-17T09:16:49Z</time>
      </trkpt>
      <trkpt lat="43.17888" lon="1.01717">
        <ele>409.6499939</ele>
        <time>2021-10-17T09:16:50Z</time>
      </trkpt>
      <trkpt lat="43.17885" lon="1.01724">
        <ele>409.1499939</ele>
        <time>2021-10-17T09:16:51Z</time>
      </trkpt>
      <trkpt lat="43.17882" lon="1.0173">
        <ele>408.66000366</ele>
        <time>2021-10-17T09:16:52Z</time>
      </trkpt>
      <trkpt lat="43.1788" lon="1.01735">
        <ele>407.86999512</ele>
        <time>2021-10-17T09:16:53Z</time>
      </trkpt>
      <trkpt lat="43.17877" lon="1.01739">
        <ele>407.04000854</ele>
        <time>2021-10-17T09:16:54Z</time>
      </trkpt>
      <trkpt lat="43.17875" lon="1.01744">
        <ele>406.46002197</ele>
        <time>2021-10-17T09:16:55Z</time>
      </trkpt>
      <trkpt lat="43.17873" lon="1.01753">
        <ele>405.69003296</ele>
        <time>2021-10-17T09:16:56Z</time>
      </trkpt>
      <trkpt lat="43.17871" lon="1.01759">
        <ele>404.99002075</ele>
        <time>2021-10-17T09:16:57Z</time>
      </trkpt>
      <trkpt lat="43.1787" lon="1.01766">
        <ele>404.45001221</ele>
        <time>2021-10-17T09:16:58Z</time>
      </trkpt>
      <trkpt lat="43.17868" lon="1.01773">
        <ele>403.62002563</ele>
        <time>2021-10-17T09:16:59Z</time>
      </trkpt>
      <trkpt lat="43.17866" lon="1.01785">
        <ele>402.83001709</ele>
        <time>2021-10-17T09:17:00Z</time>
      </trkpt>
      <trkpt lat="43.17864" lon="1.01793">
        <ele>402.18002319</ele>
        <time>2021-10-17T09:17:01Z</time>
      </trkpt>
      <trkpt lat="43.17862" lon="1.01801">
        <ele>401.3800354</ele>
        <time>2021-10-17T09:17:02Z</time>
      </trkpt>
      <trkpt lat="43.17861" lon="1.01809">
        <ele>400.5300293</ele>
        <time>2021-10-17T09:17:03Z</time>
      </trkpt>
      <trkpt lat="43.17859" lon="1.0182">
        <ele>399.57003784</ele>
        <time>2021-10-17T09:17:04Z</time>
      </trkpt>
      <trkpt lat="43.17858" lon="1.01828">
        <ele>398.3800354</ele>
        <time>2021-10-17T09:17:05Z</time>
      </trkpt>
      <trkpt lat="43.17858" lon="1.01836">
        <ele>397.51004028</ele>
        <time>2021-10-17T09:17:06Z</time>
      </trkpt>
      <trkpt lat="43.17858" lon="1.01844">
        <ele>396.75003052</ele>
        <time>2021-10-17T09:17:07Z</time>
      </trkpt>
      <trkpt lat="43.17858" lon="1.01851">
        <ele>396.29003906</ele>
        <time>2021-10-17T09:17:08Z</time>
      </trkpt>
      <trkpt lat="43.17858" lon="1.01861">
        <ele>395.71005249</ele>
        <time>2021-10-17T09:17:09Z</time>
      </trkpt>
      <trkpt lat="43.17857" lon="1.01867">
        <ele>394.55004883</ele>
        <time>2021-10-17T09:17:10Z</time>
      </trkpt>
      <trkpt lat="43.17855" lon="1.01873">
        <ele>394.55004883</ele>
        <time>2021-10-17T09:17:11Z</time>
      </trkpt>
      <trkpt lat="43.17853" lon="1.01879">
        <ele>393.86004639</ele>
        <time>2021-10-17T09:17:12Z</time>
      </trkpt>
      <trkpt lat="43.17849" lon="1.01883">
        <ele>393.47003174</ele>
        <time>2021-10-17T09:17:13Z</time>
      </trkpt>
      <trkpt lat="43.17844" lon="1.0189">
        <ele>392.85003662</ele>
        <time>2021-10-17T09:17:14Z</time>
      </trkpt>
      <trkpt lat="43.1784" lon="1.01895">
        <ele>391.83004761</ele>
        <time>2021-10-17T09:17:15Z</time>
      </trkpt>
      <trkpt lat="43.17836" lon="1.019">
        <ele>391.03005981</ele>
        <time>2021-10-17T09:17:16Z</time>
      </trkpt>
      <trkpt lat="43.17832" lon="1.01905">
        <ele>390.34005737</ele>
        <time>2021-10-17T09:17:17Z</time>
      </trkpt>
      <trkpt lat="43.17826" lon="1.01912">
        <ele>389.68005371</ele>
        <time>2021-10-17T09:17:18Z</time>
      </trkpt>
      <trkpt lat="43.17822" lon="1.01916">
        <ele>389.4100647</ele>
        <time>2021-10-17T09:17:19Z</time>
      </trkpt>
      <trkpt lat="43.17817" lon="1.0192">
        <ele>388.82006836</ele>
        <time>2021-10-17T09:17:20Z</time>
      </trkpt>
      <trkpt lat="43.17813" lon="1.01924">
        <ele>388.27008057</ele>
        <time>2021-10-17T09:17:21Z</time>
      </trkpt>
      <trkpt lat="43.17808" lon="1.01931">
        <ele>387.96008301</ele>
        <time>2021-10-17T09:17:22Z</time>
      </trkpt>
      <trkpt lat="43.17805" lon="1.01937">
        <ele>387.18008423</ele>
        <time>2021-10-17T09:17:23Z</time>
      </trkpt>
      <trkpt lat="43.17804" lon="1.01942">
        <ele>386.75009155</ele>
        <time>2021-10-17T09:17:24Z</time>
      </trkpt>
      <trkpt lat="43.17804" lon="1.01947">
        <ele>386.42010498</ele>
        <time>2021-10-17T09:17:25Z</time>
      </trkpt>
      <trkpt lat="43.17803" lon="1.01951">
        <ele>386.25009155</ele>
        <time>2021-10-17T09:17:26Z</time>
      </trkpt>
      <trkpt lat="43.17802" lon="1.01956">
        <ele>386.80007935</ele>
        <time>2021-10-17T09:17:27Z</time>
      </trkpt>
      <trkpt lat="43.17801" lon="1.01958">
        <ele>387.35006714</ele>
        <time>2021-10-17T09:17:28Z</time>
      </trkpt>
      <trkpt lat="43.17801" lon="1.01961">
        <ele>387.87005615</ele>
        <time>2021-10-17T09:17:29Z</time>
      </trkpt>
      <trkpt lat="43.178" lon="1.01965">
        <ele>388.18005371</ele>
        <time>2021-10-17T09:17:30Z</time>
      </trkpt>
      <trkpt lat="43.17799" lon="1.01969">
        <ele>388.28005981</ele>
        <time>2021-10-17T09:17:31Z</time>
      </trkpt>
      <trkpt lat="43.17798" lon="1.01975">
        <ele>388.28005981</ele>
        <time>2021-10-17T09:17:32Z</time>
      </trkpt>
      <trkpt lat="43.17798" lon="1.0198">
        <ele>388.29006958</ele>
        <time>2021-10-17T09:17:33Z</time>
      </trkpt>
      <trkpt lat="43.17797" lon="1.01984">
        <ele>388.29006958</ele>
        <time>2021-10-17T09:17:34Z</time>
      </trkpt>
      <trkpt lat="43.17796" lon="1.01988">
        <ele>388.37005615</ele>
        <time>2021-10-17T09:17:35Z</time>
      </trkpt>
      <trkpt lat="43.17796" lon="1.01994">
        <ele>388.40005493</ele>
        <time>2021-10-17T09:17:36Z</time>
      </trkpt>
      <trkpt lat="43.17795" lon="1.02">
        <ele>388.21005249</ele>
        <time>2021-10-17T09:17:37Z</time>
      </trkpt>
      <trkpt lat="43.17794" lon="1.02005">
        <ele>388.00006104</ele>
        <time>2021-10-17T09:17:38Z</time>
      </trkpt>
      <trkpt lat="43.17793" lon="1.02011">
        <ele>387.59005737</ele>
        <time>2021-10-17T09:17:39Z</time>
      </trkpt>
      <trkpt lat="43.1779" lon="1.02021">
        <ele>387.13006592</ele>
        <time>2021-10-17T09:17:40Z</time>
      </trkpt>
      <trkpt lat="43.17787" lon="1.02028">
        <ele>386.59005737</ele>
        <time>2021-10-17T09:17:41Z</time>
      </trkpt>
      <trkpt lat="43.17784" lon="1.02035">
        <ele>385.81005859</ele>
        <time>2021-10-17T09:17:42Z</time>
      </trkpt>
      <trkpt lat="43.17781" lon="1.02042">
        <ele>384.89004517</ele>
        <time>2021-10-17T09:17:43Z</time>
      </trkpt>
      <trkpt lat="43.17777" lon="1.0205">
        <ele>383.91003418</ele>
        <time>2021-10-17T09:17:44Z</time>
      </trkpt>
      <trkpt lat="43.17771" lon="1.02063">
        <ele>382.81002808</ele>
        <time>2021-10-17T09:17:45Z</time>
      </trkpt>
      <trkpt lat="43.17768" lon="1.02071">
        <ele>381.55001831</ele>
        <time>2021-10-17T09:17:46Z</time>
      </trkpt>
      <trkpt lat="43.17764" lon="1.02079">
        <ele>380.46002197</ele>
        <time>2021-10-17T09:17:47Z</time>
      </trkpt>
      <trkpt lat="43.1776" lon="1.02086">
        <ele>379.3800354</ele>
        <time>2021-10-17T09:17:48Z</time>
      </trkpt>
      <trkpt lat="43.17757" lon="1.02092">
        <ele>378.45004272</ele>
        <time>2021-10-17T09:17:49Z</time>
      </trkpt>
      <trkpt lat="43.17748" lon="1.02098">
        <ele>377.83004761</ele>
        <time>2021-10-17T09:17:50Z</time>
      </trkpt>
      <trkpt lat="43.17741" lon="1.02101">
        <ele>377.01004028</ele>
        <time>2021-10-17T09:17:51Z</time>
      </trkpt>
      <trkpt lat="43.17734" lon="1.02103">
        <ele>376.0300293</ele>
        <time>2021-10-17T09:17:52Z</time>
      </trkpt>
      <trkpt lat="43.17727" lon="1.02105">
        <ele>374.80001831</ele>
        <time>2021-10-17T09:17:53Z</time>
      </trkpt>
      <trkpt lat="43.17715" lon="1.02108">
        <ele>373.46002197</ele>
        <time>2021-10-17T09:17:54Z</time>
      </trkpt>
      <trkpt lat="43.17709" lon="1.02111">
        <ele>372.3800354</ele>
        <time>2021-10-17T09:17:55Z</time>
      </trkpt>
      <trkpt lat="43.17702" lon="1.02114">
        <ele>371.83004761</ele>
        <time>2021-10-17T09:17:56Z</time>
      </trkpt>
      <trkpt lat="43.17697" lon="1.02115">
        <ele>371.79003906</ele>
        <time>2021-10-17T09:17:57Z</time>
      </trkpt>
      <trkpt lat="43.17692" lon="1.02116">
        <ele>372.14004517</ele>
        <time>2021-10-17T09:17:58Z</time>
      </trkpt>
      <trkpt lat="43.17685" lon="1.02119">
        <ele>372.43005371</ele>
        <time>2021-10-17T09:17:59Z</time>
      </trkpt>
      <trkpt lat="43.17682" lon="1.02121">
        <ele>372.47006226</ele>
        <time>2021-10-17T09:18:00Z</time>
      </trkpt>
      <trkpt lat="43.17679" lon="1.02125">
        <ele>372.34005737</ele>
        <time>2021-10-17T09:18:01Z</time>
      </trkpt>
      <trkpt lat="43.17676" lon="1.0213">
        <ele>371.84005737</ele>
        <time>2021-10-17T09:18:02Z</time>
      </trkpt>
      <trkpt lat="43.17674" lon="1.02137">
        <ele>371.59005737</ele>
        <time>2021-10-17T09:18:03Z</time>
      </trkpt>
      <trkpt lat="43.17673" lon="1.0214">
        <ele>371.4100647</ele>
        <time>2021-10-17T09:18:04Z</time>
      </trkpt>
      <trkpt lat="43.17672" lon="1.02143">
        <ele>371.4100647</ele>
        <time>2021-10-17T09:18:05Z</time>
      </trkpt>
      <trkpt lat="43.17671" lon="1.02147">
        <ele>371.6100769</ele>
        <time>2021-10-17T09:18:06Z</time>
      </trkpt>
      <trkpt lat="43.1767" lon="1.02151">
        <ele>371.6100769</ele>
        <time>2021-10-17T09:18:07Z</time>
      </trkpt>
      <trkpt lat="43.17668" lon="1.02157">
        <ele>371.49008179</ele>
        <time>2021-10-17T09:18:08Z</time>
      </trkpt>
      <trkpt lat="43.17667" lon="1.02162">
        <ele>371.21008301</ele>
        <time>2021-10-17T09:18:09Z</time>
      </trkpt>
      <trkpt lat="43.17664" lon="1.02168">
        <ele>370.83007812</ele>
        <time>2021-10-17T09:18:10Z</time>
      </trkpt>
      <trkpt lat="43.17663" lon="1.02172">
        <ele>370.30007935</ele>
        <time>2021-10-17T09:18:11Z</time>
      </trkpt>
      <trkpt lat="43.17662" lon="1.02176">
        <ele>369.82006836</ele>
        <time>2021-10-17T09:18:12Z</time>
      </trkpt>
      <trkpt lat="43.1766" lon="1.02181">
        <ele>369.57006836</ele>
        <time>2021-10-17T09:18:13Z</time>
      </trkpt>
      <trkpt lat="43.17658" lon="1.02185">
        <ele>369.30007935</ele>
        <time>2021-10-17T09:18:14Z</time>
      </trkpt>
      <trkpt lat="43.17657" lon="1.0219">
        <ele>369.24008179</ele>
        <time>2021-10-17T09:18:15Z</time>
      </trkpt>
      <trkpt lat="43.17655" lon="1.02194">
        <ele>369.12008667</ele>
        <time>2021-10-17T09:18:16Z</time>
      </trkpt>
      <trkpt lat="43.17652" lon="1.02203">
        <ele>368.71008301</ele>
        <time>2021-10-17T09:18:17Z</time>
      </trkpt>
      <trkpt lat="43.1765" lon="1.02208">
        <ele>368.21008301</ele>
        <time>2021-10-17T09:18:18Z</time>
      </trkpt>
      <trkpt lat="43.17648" lon="1.02215">
        <ele>367.70007324</ele>
        <time>2021-10-17T09:18:19Z</time>
      </trkpt>
      <trkpt lat="43.17646" lon="1.02221">
        <ele>367.08007812</ele>
        <time>2021-10-17T09:18:20Z</time>
      </trkpt>
      <trkpt lat="43.17642" lon="1.02232">
        <ele>366.47009277</ele>
        <time>2021-10-17T09:18:21Z</time>
      </trkpt>
      <trkpt lat="43.17639" lon="1.0224">
        <ele>365.82009888</ele>
        <time>2021-10-17T09:18:22Z</time>
      </trkpt>
      <trkpt lat="43.17636" lon="1.02247">
        <ele>365.03009033</ele>
        <time>2021-10-17T09:18:23Z</time>
      </trkpt>
      <trkpt lat="43.17634" lon="1.02255">
        <ele>364.27008057</ele>
        <time>2021-10-17T09:18:24Z</time>
      </trkpt>
      <trkpt lat="43.17632" lon="1.02263">
        <ele>363.66009521</ele>
        <time>2021-10-17T09:18:25Z</time>
      </trkpt>
      <trkpt lat="43.17629" lon="1.02277">
        <ele>363.08010864</ele>
        <time>2021-10-17T09:18:26Z</time>
      </trkpt>
      <trkpt lat="43.17628" lon="1.02287">
        <ele>362.5401001</ele>
        <time>2021-10-17T09:18:27Z</time>
      </trkpt>
      <trkpt lat="43.17627" lon="1.02296">
        <ele>362.12008667</ele>
        <time>2021-10-17T09:18:28Z</time>
      </trkpt>
      <trkpt lat="43.17627" lon="1.02306">
        <ele>361.58007812</ele>
        <time>2021-10-17T09:18:29Z</time>
      </trkpt>
      <trkpt lat="43.17626" lon="1.02322">
        <ele>361.14007568</ele>
        <time>2021-10-17T09:18:30Z</time>
      </trkpt>
      <trkpt lat="43.17626" lon="1.02332">
        <ele>360.68008423</ele>
        <time>2021-10-17T09:18:31Z</time>
      </trkpt>
      <trkpt lat="43.17626" lon="1.02341">
        <ele>360.03009033</ele>
        <time>2021-10-17T09:18:32Z</time>
      </trkpt>
      <trkpt lat="43.17626" lon="1.0235">
        <ele>359.51010132</ele>
        <time>2021-10-17T09:18:33Z</time>
      </trkpt>
      <trkpt lat="43.17625" lon="1.02359">
        <ele>359.21011353</ele>
        <time>2021-10-17T09:18:34Z</time>
      </trkpt>
      <trkpt lat="43.17622" lon="1.02369">
        <ele>359.08010864</ele>
        <time>2021-10-17T09:18:35Z</time>
      </trkpt>
      <trkpt lat="43.17619" lon="1.02374">
        <ele>359.11010742</ele>
        <time>2021-10-17T09:18:36Z</time>
      </trkpt>
      <trkpt lat="43.17613" lon="1.02377">
        <ele>358.95010376</ele>
        <time>2021-10-17T09:18:37Z</time>
      </trkpt>
      <trkpt lat="43.17607" lon="1.02377">
        <ele>358.46011353</ele>
        <time>2021-10-17T09:18:38Z</time>
      </trkpt>
      <trkpt lat="43.17596" lon="1.02376">
        <ele>357.70010376</ele>
        <time>2021-10-17T09:18:39Z</time>
      </trkpt>
      <trkpt lat="43.17588" lon="1.02376">
        <ele>356.71011353</ele>
        <time>2021-10-17T09:18:40Z</time>
      </trkpt>
      <trkpt lat="43.1758" lon="1.02375">
        <ele>355.66012573</ele>
        <time>2021-10-17T09:18:41Z</time>
      </trkpt>
      <trkpt lat="43.17572" lon="1.02374">
        <ele>354.43011475</ele>
        <time>2021-10-17T09:18:42Z</time>
      </trkpt>
      <trkpt lat="43.17564" lon="1.02373">
        <ele>353.69012451</ele>
        <time>2021-10-17T09:18:43Z</time>
      </trkpt>
      <trkpt lat="43.17553" lon="1.02372">
        <ele>353.22012329</ele>
        <time>2021-10-17T09:18:44Z</time>
      </trkpt>
      <trkpt lat="43.17545" lon="1.02372">
        <ele>352.70013428</ele>
        <time>2021-10-17T09:18:45Z</time>
      </trkpt>
      <trkpt lat="43.17536" lon="1.02371">
        <ele>352.35012817</ele>
        <time>2021-10-17T09:18:46Z</time>
      </trkpt>
      <trkpt lat="43.17528" lon="1.0237">
        <ele>351.40011597</ele>
        <time>2021-10-17T09:18:47Z</time>
      </trkpt>
      <trkpt lat="43.17515" lon="1.02369">
        <ele>349.86010742</ele>
        <time>2021-10-17T09:18:48Z</time>
      </trkpt>
      <trkpt lat="43.17507" lon="1.02369">
        <ele>348.28012085</ele>
        <time>2021-10-17T09:18:49Z</time>
      </trkpt>
      <trkpt lat="43.175" lon="1.02368">
        <ele>346.86010742</ele>
        <time>2021-10-17T09:18:50Z</time>
      </trkpt>
      <trkpt lat="43.17492" lon="1.02368">
        <ele>346.06011963</ele>
        <time>2021-10-17T09:18:51Z</time>
      </trkpt>
      <trkpt lat="43.1748" lon="1.02367">
        <ele>345.46011353</ele>
        <time>2021-10-17T09:18:52Z</time>
      </trkpt>
      <trkpt lat="43.17472" lon="1.02366">
        <ele>345.46011353</ele>
        <time>2021-10-17T09:18:53Z</time>
      </trkpt>
      <trkpt lat="43.17464" lon="1.02366">
        <ele>344.97012329</ele>
        <time>2021-10-17T09:18:54Z</time>
      </trkpt>
      <trkpt lat="43.17455" lon="1.02366">
        <ele>343.80010986</ele>
        <time>2021-10-17T09:18:55Z</time>
      </trkpt>
      <trkpt lat="43.17446" lon="1.02366">
        <ele>342.31011963</ele>
        <time>2021-10-17T09:18:56Z</time>
      </trkpt>
      <trkpt lat="43.17431" lon="1.02366">
        <ele>340.68011475</ele>
        <time>2021-10-17T09:18:57Z</time>
      </trkpt>
      <trkpt lat="43.17421" lon="1.02367">
        <ele>338.91012573</ele>
        <time>2021-10-17T09:18:58Z</time>
      </trkpt>
      <trkpt lat="43.17411" lon="1.02369">
        <ele>336.93011475</ele>
        <time>2021-10-17T09:18:59Z</time>
      </trkpt>
      <trkpt lat="43.17402" lon="1.02371">
        <ele>334.9901123</ele>
        <time>2021-10-17T09:19:00Z</time>
      </trkpt>
      <trkpt lat="43.17392" lon="1.02375">
        <ele>333.30010986</ele>
        <time>2021-10-17T09:19:01Z</time>
      </trkpt>
      <trkpt lat="43.17381" lon="1.02383">
        <ele>332.15011597</ele>
        <time>2021-10-17T09:19:02Z</time>
      </trkpt>
      <trkpt lat="43.17375" lon="1.0239">
        <ele>332.12011719</ele>
        <time>2021-10-17T09:19:03Z</time>
      </trkpt>
      <trkpt lat="43.1737" lon="1.02396">
        <ele>332.90011597</ele>
        <time>2021-10-17T09:19:04Z</time>
      </trkpt>
      <trkpt lat="43.17368" lon="1.02401">
        <ele>334.57012939</ele>
        <time>2021-10-17T09:19:05Z</time>
      </trkpt>
      <trkpt lat="43.17365" lon="1.02407">
        <ele>336.54013062</ele>
        <time>2021-10-17T09:19:06Z</time>
      </trkpt>
      <trkpt lat="43.17364" lon="1.0241">
        <ele>338.2701416</ele>
        <time>2021-10-17T09:19:07Z</time>
      </trkpt>
      <trkpt lat="43.17362" lon="1.02414">
        <ele>339.87014771</ele>
        <time>2021-10-17T09:19:08Z</time>
      </trkpt>
      <trkpt lat="43.17361" lon="1.02417">
        <ele>340.98013306</ele>
        <time>2021-10-17T09:19:09Z</time>
      </trkpt>
      <trkpt lat="43.17359" lon="1.02419">
        <ele>341.82012939</ele>
        <time>2021-10-17T09:19:10Z</time>
      </trkpt>
      <trkpt lat="43.17357" lon="1.02424">
        <ele>342.62011719</ele>
        <time>2021-10-17T09:19:11Z</time>
      </trkpt>
      <trkpt lat="43.17356" lon="1.02427">
        <ele>343.31011963</ele>
        <time>2021-10-17T09:19:12Z</time>
      </trkpt>
      <trkpt lat="43.17356" lon="1.0243">
        <ele>343.91012573</ele>
        <time>2021-10-17T09:19:13Z</time>
      </trkpt>
      <trkpt lat="43.17355" lon="1.02433">
        <ele>344.55014038</ele>
        <time>2021-10-17T09:19:14Z</time>
      </trkpt>
      <trkpt lat="43.17353" lon="1.02437">
        <ele>345.14013672</ele>
        <time>2021-10-17T09:19:15Z</time>
      </trkpt>
      <trkpt lat="43.17352" lon="1.0244">
        <ele>345.76013184</ele>
        <time>2021-10-17T09:19:16Z</time>
      </trkpt>
      <trkpt lat="43.17352" lon="1.02443">
        <ele>346.36013794</ele>
        <time>2021-10-17T09:19:17Z</time>
      </trkpt>
      <trkpt lat="43.17351" lon="1.02447">
        <ele>346.90014648</ele>
        <time>2021-10-17T09:19:18Z</time>
      </trkpt>
      <trkpt lat="43.1735" lon="1.02449">
        <ele>347.39013672</ele>
        <time>2021-10-17T09:19:19Z</time>
      </trkpt>
      <trkpt lat="43.17348" lon="1.02453">
        <ele>347.81015015</ele>
        <time>2021-10-17T09:19:20Z</time>
      </trkpt>
      <trkpt lat="43.17347" lon="1.02456">
        <ele>348.24014282</ele>
        <time>2021-10-17T09:19:21Z</time>
      </trkpt>
      <trkpt lat="43.17346" lon="1.02459">
        <ele>348.64013672</ele>
        <time>2021-10-17T09:19:22Z</time>
      </trkpt>
      <trkpt lat="43.17346" lon="1.02462">
        <ele>349.05014038</ele>
        <time>2021-10-17T09:19:23Z</time>
      </trkpt>
      <trkpt lat="43.17345" lon="1.02464">
        <ele>349.48013306</ele>
        <time>2021-10-17T09:19:24Z</time>
      </trkpt>
      <trkpt lat="43.17343" lon="1.02467">
        <ele>349.88012695</ele>
        <time>2021-10-17T09:19:25Z</time>
      </trkpt>
      <trkpt lat="43.17342" lon="1.0247">
        <ele>350.29013062</ele>
        <time>2021-10-17T09:19:26Z</time>
      </trkpt>
      <trkpt lat="43.17342" lon="1.02472">
        <ele>350.6701355</ele>
        <time>2021-10-17T09:19:27Z</time>
      </trkpt>
      <trkpt lat="43.17341" lon="1.02475">
        <ele>351.08013916</ele>
        <time>2021-10-17T09:19:28Z</time>
      </trkpt>
      <trkpt lat="43.17339" lon="1.02478">
        <ele>351.48013306</ele>
        <time>2021-10-17T09:19:29Z</time>
      </trkpt>
      <trkpt lat="43.17338" lon="1.0248">
        <ele>351.88012695</ele>
        <time>2021-10-17T09:19:30Z</time>
      </trkpt>
      <trkpt lat="43.17338" lon="1.02483">
        <ele>352.28012085</ele>
        <time>2021-10-17T09:19:31Z</time>
      </trkpt>
      <trkpt lat="43.17337" lon="1.02485">
        <ele>352.6701355</ele>
        <time>2021-10-17T09:19:32Z</time>
      </trkpt>
      <trkpt lat="43.17337" lon="1.02488">
        <ele>353.04013062</ele>
        <time>2021-10-17T09:19:33Z</time>
      </trkpt>
      <trkpt lat="43.17336" lon="1.02491">
        <ele>353.44012451</ele>
        <time>2021-10-17T09:19:34Z</time>
      </trkpt>
      <trkpt lat="43.17335" lon="1.02494">
        <ele>353.88012695</ele>
        <time>2021-10-17T09:19:35Z</time>
      </trkpt>
      <trkpt lat="43.17335" lon="1.02497">
        <ele>354.25012207</ele>
        <time>2021-10-17T09:19:36Z</time>
      </trkpt>
      <trkpt lat="43.17334" lon="1.02499">
        <ele>354.69012451</ele>
        <time>2021-10-17T09:19:37Z</time>
      </trkpt>
      <trkpt lat="43.17333" lon="1.02503">
        <ele>355.13012695</ele>
        <time>2021-10-17T09:19:38Z</time>
      </trkpt>
      <trkpt lat="43.17332" lon="1.02505">
        <ele>355.53012085</ele>
        <time>2021-10-17T09:19:39Z</time>
      </trkpt>
      <trkpt lat="43.17332" lon="1.02507">
        <ele>355.93011475</ele>
        <time>2021-10-17T09:19:40Z</time>
      </trkpt>
      <trkpt lat="43.17331" lon="1.0251">
        <ele>356.28012085</ele>
        <time>2021-10-17T09:19:41Z</time>
      </trkpt>
      <trkpt lat="43.1733" lon="1.02514">
        <ele>356.61010742</ele>
        <time>2021-10-17T09:19:42Z</time>
      </trkpt>
      <trkpt lat="43.1733" lon="1.02516">
        <ele>356.91009521</ele>
        <time>2021-10-17T09:19:43Z</time>
      </trkpt>
      <trkpt lat="43.1733" lon="1.02519">
        <ele>357.22009277</ele>
        <time>2021-10-17T09:19:44Z</time>
      </trkpt>
      <trkpt lat="43.17329" lon="1.02521">
        <ele>357.56008911</ele>
        <time>2021-10-17T09:19:45Z</time>
      </trkpt>
      <trkpt lat="43.17329" lon="1.02523">
        <ele>357.85009766</ele>
        <time>2021-10-17T09:19:46Z</time>
      </trkpt>
      <trkpt lat="43.17328" lon="1.02527">
        <ele>358.19009399</ele>
        <time>2021-10-17T09:19:47Z</time>
      </trkpt>
      <trkpt lat="43.17327" lon="1.02529">
        <ele>358.53009033</ele>
        <time>2021-10-17T09:19:48Z</time>
      </trkpt>
      <trkpt lat="43.17327" lon="1.02531">
        <ele>358.85009766</ele>
        <time>2021-10-17T09:19:49Z</time>
      </trkpt>
      <trkpt lat="43.17327" lon="1.02533">
        <ele>359.21008301</ele>
        <time>2021-10-17T09:19:50Z</time>
      </trkpt>
      <trkpt lat="43.17326" lon="1.02537">
        <ele>359.54006958</ele>
        <time>2021-10-17T09:19:51Z</time>
      </trkpt>
      <trkpt lat="43.17325" lon="1.0254">
        <ele>359.89007568</ele>
        <time>2021-10-17T09:19:52Z</time>
      </trkpt>
      <trkpt lat="43.17325" lon="1.02542">
        <ele>360.25006104</ele>
        <time>2021-10-17T09:19:53Z</time>
      </trkpt>
      <trkpt lat="43.17324" lon="1.02544">
        <ele>360.62005615</ele>
        <time>2021-10-17T09:19:54Z</time>
      </trkpt>
      <trkpt lat="43.17323" lon="1.02548">
        <ele>360.93005371</ele>
        <time>2021-10-17T09:19:55Z</time>
      </trkpt>
      <trkpt lat="43.17322" lon="1.0255">
        <ele>361.26004028</ele>
        <time>2021-10-17T09:19:56Z</time>
      </trkpt>
      <trkpt lat="43.17322" lon="1.02552">
        <ele>361.65005493</ele>
        <time>2021-10-17T09:19:57Z</time>
      </trkpt>
      <trkpt lat="43.17321" lon="1.02555">
        <ele>361.99005127</ele>
        <time>2021-10-17T09:19:58Z</time>
      </trkpt>
      <trkpt lat="43.1732" lon="1.02557">
        <ele>362.38006592</ele>
        <time>2021-10-17T09:19:59Z</time>
      </trkpt>
      <trkpt lat="43.1732" lon="1.02559">
        <ele>362.74005127</ele>
        <time>2021-10-17T09:20:00Z</time>
      </trkpt>
      <trkpt lat="43.17319" lon="1.02562">
        <ele>363.03005981</ele>
        <time>2021-10-17T09:20:01Z</time>
      </trkpt>
      <trkpt lat="43.17318" lon="1.02565">
        <ele>363.34005737</ele>
        <time>2021-10-17T09:20:02Z</time>
      </trkpt>
      <trkpt lat="43.17317" lon="1.02567">
        <ele>363.67004395</ele>
        <time>2021-10-17T09:20:03Z</time>
      </trkpt>
      <trkpt lat="43.17317" lon="1.02569">
        <ele>364.00003052</ele>
        <time>2021-10-17T09:20:04Z</time>
      </trkpt>
      <trkpt lat="43.17315" lon="1.02571">
        <ele>364.07000732</ele>
        <time>2021-10-17T09:20:04Z</time>
      </trkpt>
      <trkpt lat="43.17314" lon="1.02574">
        <ele>364.3500061</ele>
        <time>2021-10-17T09:20:05Z</time>
      </trkpt>
      <trkpt lat="43.17313" lon="1.02576">
        <ele>364.6000061</ele>
        <time>2021-10-17T09:20:06Z</time>
      </trkpt>
      <trkpt lat="43.17312" lon="1.02578">
        <ele>364.83999634</ele>
        <time>2021-10-17T09:20:07Z</time>
      </trkpt>
      <trkpt lat="43.17312" lon="1.02581">
        <ele>365.01998901</ele>
        <time>2021-10-17T09:20:08Z</time>
      </trkpt>
      <trkpt lat="43.17311" lon="1.02583">
        <ele>365.27999878</ele>
        <time>2021-10-17T09:20:09Z</time>
      </trkpt>
      <trkpt lat="43.17311" lon="1.02587">
        <ele>365.48999023</ele>
        <time>2021-10-17T09:20:10Z</time>
      </trkpt>
      <trkpt lat="43.17309" lon="1.02589">
        <ele>365.69000244</ele>
        <time>2021-10-17T09:20:11Z</time>
      </trkpt>
      <trkpt lat="43.17309" lon="1.02592">
        <ele>365.92001343</ele>
        <time>2021-10-17T09:20:12Z</time>
      </trkpt>
      <trkpt lat="43.17308" lon="1.02594">
        <ele>366.08001709</ele>
        <time>2021-10-17T09:20:13Z</time>
      </trkpt>
      <trkpt lat="43.17307" lon="1.02598">
        <ele>366.25003052</ele>
        <time>2021-10-17T09:20:14Z</time>
      </trkpt>
      <trkpt lat="43.17307" lon="1.026">
        <ele>366.44003296</ele>
        <time>2021-10-17T09:20:15Z</time>
      </trkpt>
      <trkpt lat="43.17306" lon="1.02602">
        <ele>366.57003784</ele>
        <time>2021-10-17T09:20:16Z</time>
      </trkpt>
      <trkpt lat="43.17305" lon="1.02604">
        <ele>366.74005127</ele>
        <time>2021-10-17T09:20:17Z</time>
      </trkpt>
      <trkpt lat="43.17305" lon="1.02608">
        <ele>366.89004517</ele>
        <time>2021-10-17T09:20:18Z</time>
      </trkpt>
      <trkpt lat="43.17304" lon="1.02611">
        <ele>367.03005981</ele>
        <time>2021-10-17T09:20:19Z</time>
      </trkpt>
      <trkpt lat="43.17303" lon="1.02613">
        <ele>367.20007324</ele>
        <time>2021-10-17T09:20:20Z</time>
      </trkpt>
      <trkpt lat="43.17302" lon="1.02615">
        <ele>367.3600769</ele>
        <time>2021-10-17T09:20:21Z</time>
      </trkpt>
      <trkpt lat="43.17301" lon="1.02618">
        <ele>367.57006836</ele>
        <time>2021-10-17T09:20:22Z</time>
      </trkpt>
      <trkpt lat="43.173" lon="1.02621">
        <ele>367.71008301</ele>
        <time>2021-10-17T09:20:23Z</time>
      </trkpt>
      <trkpt lat="43.17299" lon="1.02624">
        <ele>367.88009644</ele>
        <time>2021-10-17T09:20:24Z</time>
      </trkpt>
      <trkpt lat="43.17298" lon="1.02626">
        <ele>368.0401001</ele>
        <time>2021-10-17T09:20:25Z</time>
      </trkpt>
      <trkpt lat="43.17296" lon="1.02627">
        <ele>368.16009521</ele>
        <time>2021-10-17T09:20:26Z</time>
      </trkpt>
      <trkpt lat="43.17294" lon="1.0263">
        <ele>368.35009766</ele>
        <time>2021-10-17T09:20:27Z</time>
      </trkpt>
      <trkpt lat="43.17292" lon="1.02631">
        <ele>368.48010254</ele>
        <time>2021-10-17T09:20:28Z</time>
      </trkpt>
      <trkpt lat="43.1729" lon="1.02633">
        <ele>368.6401062</ele>
        <time>2021-10-17T09:20:29Z</time>
      </trkpt>
      <trkpt lat="43.17289" lon="1.02634">
        <ele>368.80010986</ele>
        <time>2021-10-17T09:20:30Z</time>
      </trkpt>
      <trkpt lat="43.17287" lon="1.02636">
        <ele>368.92010498</ele>
        <time>2021-10-17T09:20:31Z</time>
      </trkpt>
      <trkpt lat="43.17285" lon="1.02639">
        <ele>369.0401001</ele>
        <time>2021-10-17T09:20:32Z</time>
      </trkpt>
      <trkpt lat="43.17284" lon="1.0264">
        <ele>369.17010498</ele>
        <time>2021-10-17T09:20:33Z</time>
      </trkpt>
      <trkpt lat="43.17282" lon="1.02642">
        <ele>369.32009888</ele>
        <time>2021-10-17T09:20:34Z</time>
      </trkpt>
      <trkpt lat="43.17281" lon="1.02643">
        <ele>369.52011108</ele>
        <time>2021-10-17T09:20:35Z</time>
      </trkpt>
      <trkpt lat="43.17279" lon="1.02644">
        <ele>369.73010254</ele>
        <time>2021-10-17T09:20:36Z</time>
      </trkpt>
      <trkpt lat="43.17277" lon="1.02646">
        <ele>369.93011475</ele>
        <time>2021-10-17T09:20:37Z</time>
      </trkpt>
      <trkpt lat="43.17276" lon="1.02647">
        <ele>370.19012451</ele>
        <time>2021-10-17T09:20:38Z</time>
      </trkpt>
      <trkpt lat="43.17274" lon="1.02648">
        <ele>370.40011597</ele>
        <time>2021-10-17T09:20:39Z</time>
      </trkpt>
      <trkpt lat="43.17273" lon="1.0265">
        <ele>370.65011597</ele>
        <time>2021-10-17T09:20:40Z</time>
      </trkpt>
      <trkpt lat="43.17271" lon="1.02652">
        <ele>370.92010498</ele>
        <time>2021-10-17T09:20:41Z</time>
      </trkpt>
      <trkpt lat="43.1727" lon="1.02654">
        <ele>371.1401062</ele>
        <time>2021-10-17T09:20:42Z</time>
      </trkpt>
      <trkpt lat="43.17268" lon="1.02655">
        <ele>371.41009521</ele>
        <time>2021-10-17T09:20:43Z</time>
      </trkpt>
      <trkpt lat="43.17267" lon="1.02656">
        <ele>371.6401062</ele>
        <time>2021-10-17T09:20:44Z</time>
      </trkpt>
      <trkpt lat="43.17264" lon="1.02658">
        <ele>371.86010742</ele>
        <time>2021-10-17T09:20:45Z</time>
      </trkpt>
      <trkpt lat="43.17263" lon="1.0266">
        <ele>372.08010864</ele>
        <time>2021-10-17T09:20:46Z</time>
      </trkpt>
      <trkpt lat="43.17262" lon="1.02661">
        <ele>372.27011108</ele>
        <time>2021-10-17T09:20:47Z</time>
      </trkpt>
      <trkpt lat="43.17261" lon="1.02663">
        <ele>372.4901123</ele>
        <time>2021-10-17T09:20:48Z</time>
      </trkpt>
      <trkpt lat="43.17259" lon="1.02664">
        <ele>372.69012451</ele>
        <time>2021-10-17T09:20:49Z</time>
      </trkpt>
      <trkpt lat="43.17257" lon="1.02665">
        <ele>372.9201355</ele>
        <time>2021-10-17T09:20:50Z</time>
      </trkpt>
      <trkpt lat="43.17256" lon="1.02666">
        <ele>373.18014526</ele>
        <time>2021-10-17T09:20:51Z</time>
      </trkpt>
      <trkpt lat="43.17254" lon="1.02668">
        <ele>373.37014771</ele>
        <time>2021-10-17T09:20:52Z</time>
      </trkpt>
      <trkpt lat="43.17252" lon="1.02669">
        <ele>373.58013916</ele>
        <time>2021-10-17T09:20:53Z</time>
      </trkpt>
      <trkpt lat="43.1725" lon="1.02671">
        <ele>373.80014038</ele>
        <time>2021-10-17T09:20:54Z</time>
      </trkpt>
      <trkpt lat="43.17249" lon="1.02672">
        <ele>374.07012939</ele>
        <time>2021-10-17T09:20:55Z</time>
      </trkpt>
      <trkpt lat="43.17247" lon="1.02673">
        <ele>374.41012573</ele>
        <time>2021-10-17T09:20:56Z</time>
      </trkpt>
      <trkpt lat="43.17246" lon="1.02674">
        <ele>374.78012085</ele>
        <time>2021-10-17T09:20:57Z</time>
      </trkpt>
      <trkpt lat="43.17244" lon="1.02675">
        <ele>375.1701355</ele>
        <time>2021-10-17T09:20:58Z</time>
      </trkpt>
      <trkpt lat="43.17242" lon="1.02677">
        <ele>375.5201416</ele>
        <time>2021-10-17T09:20:59Z</time>
      </trkpt>
      <trkpt lat="43.1724" lon="1.02678">
        <ele>375.91015625</ele>
        <time>2021-10-17T09:21:00Z</time>
      </trkpt>
      <trkpt lat="43.17239" lon="1.02679">
        <ele>376.28015137</ele>
        <time>2021-10-17T09:21:01Z</time>
      </trkpt>
      <trkpt lat="43.17237" lon="1.0268">
        <ele>376.63015747</ele>
        <time>2021-10-17T09:21:02Z</time>
      </trkpt>
      <trkpt lat="43.17236" lon="1.02681">
        <ele>376.97015381</ele>
        <time>2021-10-17T09:21:03Z</time>
      </trkpt>
      <trkpt lat="43.17234" lon="1.02683">
        <ele>377.29016113</ele>
        <time>2021-10-17T09:21:04Z</time>
      </trkpt>
      <trkpt lat="43.17233" lon="1.02684">
        <ele>377.60015869</ele>
        <time>2021-10-17T09:21:05Z</time>
      </trkpt>
      <trkpt lat="43.17231" lon="1.02685">
        <ele>377.90014648</ele>
        <time>2021-10-17T09:21:06Z</time>
      </trkpt>
      <trkpt lat="43.1723" lon="1.02686">
        <ele>378.26013184</ele>
        <time>2021-10-17T09:21:07Z</time>
      </trkpt>
      <trkpt lat="43.17227" lon="1.02687">
        <ele>378.58013916</ele>
        <time>2021-10-17T09:21:08Z</time>
      </trkpt>
      <trkpt lat="43.17226" lon="1.02688">
        <ele>378.95013428</ele>
        <time>2021-10-17T09:21:09Z</time>
      </trkpt>
      <trkpt lat="43.17225" lon="1.02689">
        <ele>379.33013916</ele>
        <time>2021-10-17T09:21:10Z</time>
      </trkpt>
      <trkpt lat="43.17223" lon="1.0269">
        <ele>379.6701355</ele>
        <time>2021-10-17T09:21:11Z</time>
      </trkpt>
      <trkpt lat="43.17222" lon="1.02691">
        <ele>380.04013062</ele>
        <time>2021-10-17T09:21:12Z</time>
      </trkpt>
      <trkpt lat="43.1722" lon="1.02693">
        <ele>380.40011597</ele>
        <time>2021-10-17T09:21:13Z</time>
      </trkpt>
      <trkpt lat="43.17218" lon="1.02695">
        <ele>380.75012207</ele>
        <time>2021-10-17T09:21:14Z</time>
      </trkpt>
      <trkpt lat="43.17217" lon="1.02696">
        <ele>381.05010986</ele>
        <time>2021-10-17T09:21:15Z</time>
      </trkpt>
      <trkpt lat="43.17215" lon="1.02698">
        <ele>381.36010742</ele>
        <time>2021-10-17T09:21:16Z</time>
      </trkpt>
      <trkpt lat="43.17213" lon="1.027">
        <ele>381.66009521</ele>
        <time>2021-10-17T09:21:17Z</time>
      </trkpt>
      <trkpt lat="43.17212" lon="1.02701">
        <ele>381.95010376</ele>
        <time>2021-10-17T09:21:18Z</time>
      </trkpt>
      <trkpt lat="43.17211" lon="1.02702">
        <ele>382.28009033</ele>
        <time>2021-10-17T09:21:19Z</time>
      </trkpt>
      <trkpt lat="43.17209" lon="1.02703">
        <ele>382.56008911</ele>
        <time>2021-10-17T09:21:20Z</time>
      </trkpt>
      <trkpt lat="43.17207" lon="1.02704">
        <ele>382.84008789</ele>
        <time>2021-10-17T09:21:21Z</time>
      </trkpt>
      <trkpt lat="43.17206" lon="1.02706">
        <ele>383.16009521</ele>
        <time>2021-10-17T09:21:22Z</time>
      </trkpt>
      <trkpt lat="43.17204" lon="1.02707">
        <ele>383.48010254</ele>
        <time>2021-10-17T09:21:23Z</time>
      </trkpt>
      <trkpt lat="43.17203" lon="1.02708">
        <ele>383.83010864</ele>
        <time>2021-10-17T09:21:24Z</time>
      </trkpt>
      <trkpt lat="43.17202" lon="1.0271">
        <ele>384.18011475</ele>
        <time>2021-10-17T09:21:25Z</time>
      </trkpt>
      <trkpt lat="43.172" lon="1.02712">
        <ele>384.4901123</ele>
        <time>2021-10-17T09:21:26Z</time>
      </trkpt>
      <trkpt lat="43.17198" lon="1.02713">
        <ele>384.84011841</ele>
        <time>2021-10-17T09:21:27Z</time>
      </trkpt>
      <trkpt lat="43.17197" lon="1.02713">
        <ele>385.13012695</ele>
        <time>2021-10-17T09:21:28Z</time>
      </trkpt>
      <trkpt lat="43.17195" lon="1.02714">
        <ele>385.4201355</ele>
        <time>2021-10-17T09:21:29Z</time>
      </trkpt>
      <trkpt lat="43.17193" lon="1.02716">
        <ele>385.74014282</ele>
        <time>2021-10-17T09:21:30Z</time>
      </trkpt>
      <trkpt lat="43.17191" lon="1.02717">
        <ele>386.00015259</ele>
        <time>2021-10-17T09:21:31Z</time>
      </trkpt>
      <trkpt lat="43.1719" lon="1.02719">
        <ele>386.30014038</ele>
        <time>2021-10-17T09:21:32Z</time>
      </trkpt>
      <trkpt lat="43.17189" lon="1.0272">
        <ele>386.61013794</ele>
        <time>2021-10-17T09:21:33Z</time>
      </trkpt>
      <trkpt lat="43.17187" lon="1.02722">
        <ele>386.90014648</ele>
        <time>2021-10-17T09:21:34Z</time>
      </trkpt>
      <trkpt lat="43.17185" lon="1.02723">
        <ele>387.1701355</ele>
        <time>2021-10-17T09:21:35Z</time>
      </trkpt>
      <trkpt lat="43.17183" lon="1.02725">
        <ele>387.45013428</ele>
        <time>2021-10-17T09:21:36Z</time>
      </trkpt>
      <trkpt lat="43.17182" lon="1.02726">
        <ele>387.69012451</ele>
        <time>2021-10-17T09:21:37Z</time>
      </trkpt>
      <trkpt lat="43.1718" lon="1.02727">
        <ele>387.95013428</ele>
        <time>2021-10-17T09:21:38Z</time>
      </trkpt>
      <trkpt lat="43.17178" lon="1.02729">
        <ele>388.20013428</ele>
        <time>2021-10-17T09:21:39Z</time>
      </trkpt>
      <trkpt lat="43.17176" lon="1.0273">
        <ele>388.47012329</ele>
        <time>2021-10-17T09:21:40Z</time>
      </trkpt>
      <trkpt lat="43.17175" lon="1.02731">
        <ele>388.73013306</ele>
        <time>2021-10-17T09:21:41Z</time>
      </trkpt>
      <trkpt lat="43.17173" lon="1.02732">
        <ele>388.97012329</ele>
        <time>2021-10-17T09:21:42Z</time>
      </trkpt>
      <trkpt lat="43.17172" lon="1.02733">
        <ele>389.21011353</ele>
        <time>2021-10-17T09:21:43Z</time>
      </trkpt>
      <trkpt lat="43.1717" lon="1.02735">
        <ele>389.44012451</ele>
        <time>2021-10-17T09:21:44Z</time>
      </trkpt>
      <trkpt lat="43.17168" lon="1.02737">
        <ele>389.65011597</ele>
        <time>2021-10-17T09:21:45Z</time>
      </trkpt>
      <trkpt lat="43.17167" lon="1.02738">
        <ele>389.86010742</ele>
        <time>2021-10-17T09:21:46Z</time>
      </trkpt>
      <trkpt lat="43.17165" lon="1.02739">
        <ele>390.03012085</ele>
        <time>2021-10-17T09:21:47Z</time>
      </trkpt>
      <trkpt lat="43.17162" lon="1.02741">
        <ele>390.18011475</ele>
        <time>2021-10-17T09:21:48Z</time>
      </trkpt>
      <trkpt lat="43.17161" lon="1.02741">
        <ele>390.35012817</ele>
        <time>2021-10-17T09:21:49Z</time>
      </trkpt>
      <trkpt lat="43.17159" lon="1.02742">
        <ele>390.5201416</ele>
        <time>2021-10-17T09:21:50Z</time>
      </trkpt>
      <trkpt lat="43.17158" lon="1.02743">
        <ele>390.74014282</ele>
        <time>2021-10-17T09:21:51Z</time>
      </trkpt>
      <trkpt lat="43.17156" lon="1.02745">
        <ele>390.94015503</ele>
        <time>2021-10-17T09:21:52Z</time>
      </trkpt>
      <trkpt lat="43.17154" lon="1.02747">
        <ele>391.13015747</ele>
        <time>2021-10-17T09:21:53Z</time>
      </trkpt>
      <trkpt lat="43.17153" lon="1.02748">
        <ele>391.29016113</ele>
        <time>2021-10-17T09:21:54Z</time>
      </trkpt>
      <trkpt lat="43.17151" lon="1.0275">
        <ele>391.39016724</ele>
        <time>2021-10-17T09:21:55Z</time>
      </trkpt>
      <trkpt lat="43.1715" lon="1.02751">
        <ele>391.51016235</ele>
        <time>2021-10-17T09:21:56Z</time>
      </trkpt>
      <trkpt lat="43.17148" lon="1.02754">
        <ele>391.650177</ele>
        <time>2021-10-17T09:21:57Z</time>
      </trkpt>
      <trkpt lat="43.17146" lon="1.02756">
        <ele>391.81018066</ele>
        <time>2021-10-17T09:21:58Z</time>
      </trkpt>
      <trkpt lat="43.17145" lon="1.02757">
        <ele>391.98019409</ele>
        <time>2021-10-17T09:21:59Z</time>
      </trkpt>
      <trkpt lat="43.17143" lon="1.02758">
        <ele>392.13018799</ele>
        <time>2021-10-17T09:22:00Z</time>
      </trkpt>
      <trkpt lat="43.17142" lon="1.02759">
        <ele>392.27020264</ele>
        <time>2021-10-17T09:22:01Z</time>
      </trkpt>
      <trkpt lat="43.17139" lon="1.02761">
        <ele>392.38018799</ele>
        <time>2021-10-17T09:22:02Z</time>
      </trkpt>
      <trkpt lat="43.17137" lon="1.02762">
        <ele>392.50018311</ele>
        <time>2021-10-17T09:22:03Z</time>
      </trkpt>
      <trkpt lat="43.17135" lon="1.02763">
        <ele>392.61016846</ele>
        <time>2021-10-17T09:22:04Z</time>
      </trkpt>
      <trkpt lat="43.17134" lon="1.02765">
        <ele>392.71017456</ele>
        <time>2021-10-17T09:22:05Z</time>
      </trkpt>
      <trkpt lat="43.17132" lon="1.02766">
        <ele>392.83016968</ele>
        <time>2021-10-17T09:22:06Z</time>
      </trkpt>
      <trkpt lat="43.1713" lon="1.02768">
        <ele>392.96017456</ele>
        <time>2021-10-17T09:22:07Z</time>
      </trkpt>
      <trkpt lat="43.17128" lon="1.02769">
        <ele>393.12017822</ele>
        <time>2021-10-17T09:22:08Z</time>
      </trkpt>
      <trkpt lat="43.17127" lon="1.02771">
        <ele>393.31018066</ele>
        <time>2021-10-17T09:22:09Z</time>
      </trkpt>
      <trkpt lat="43.17125" lon="1.02772">
        <ele>393.45019531</ele>
        <time>2021-10-17T09:22:10Z</time>
      </trkpt>
      <trkpt lat="43.17122" lon="1.02774">
        <ele>393.57019043</ele>
        <time>2021-10-17T09:22:11Z</time>
      </trkpt>
      <trkpt lat="43.1712" lon="1.02776">
        <ele>393.62017822</ele>
        <time>2021-10-17T09:22:12Z</time>
      </trkpt>
      <trkpt lat="43.17118" lon="1.02778">
        <ele>393.67016602</ele>
        <time>2021-10-17T09:22:13Z</time>
      </trkpt>
      <trkpt lat="43.17116" lon="1.02779">
        <ele>393.71017456</ele>
        <time>2021-10-17T09:22:14Z</time>
      </trkpt>
      <trkpt lat="43.17114" lon="1.0278">
        <ele>393.78018188</ele>
        <time>2021-10-17T09:22:15Z</time>
      </trkpt>
      <trkpt lat="43.1711" lon="1.02781">
        <ele>393.95019531</ele>
        <time>2021-10-17T09:22:16Z</time>
      </trkpt>
      <trkpt lat="43.17108" lon="1.02783">
        <ele>394.09020996</ele>
        <time>2021-10-17T09:22:17Z</time>
      </trkpt>
      <trkpt lat="43.17106" lon="1.02784">
        <ele>394.22021484</ele>
        <time>2021-10-17T09:22:18Z</time>
      </trkpt>
      <trkpt lat="43.17103" lon="1.02785">
        <ele>394.35021973</ele>
        <time>2021-10-17T09:22:19Z</time>
      </trkpt>
      <trkpt lat="43.17101" lon="1.02786">
        <ele>394.42022705</ele>
        <time>2021-10-17T09:22:20Z</time>
      </trkpt>
      <trkpt lat="43.17097" lon="1.02788">
        <ele>393.4602356</ele>
        <time>2021-10-17T09:22:21Z</time>
      </trkpt>
      <trkpt lat="43.17095" lon="1.02789">
        <ele>393.5602417</ele>
        <time>2021-10-17T09:22:22Z</time>
      </trkpt>
      <trkpt lat="43.17092" lon="1.02791">
        <ele>393.65023804</ele>
        <time>2021-10-17T09:22:23Z</time>
      </trkpt>
      <trkpt lat="43.17088" lon="1.02793">
        <ele>393.78024292</ele>
        <time>2021-10-17T09:22:24Z</time>
      </trkpt>
      <trkpt lat="43.17086" lon="1.02794">
        <ele>393.93023682</ele>
        <time>2021-10-17T09:22:25Z</time>
      </trkpt>
      <trkpt lat="43.17083" lon="1.02796">
        <ele>394.08023071</ele>
        <time>2021-10-17T09:22:26Z</time>
      </trkpt>
      <trkpt lat="43.17081" lon="1.02797">
        <ele>394.24023438</ele>
        <time>2021-10-17T09:22:27Z</time>
      </trkpt>
      <trkpt lat="43.17079" lon="1.02798">
        <ele>394.38024902</ele>
        <time>2021-10-17T09:22:28Z</time>
      </trkpt>
      <trkpt lat="43.17075" lon="1.02799">
        <ele>394.54025269</ele>
        <time>2021-10-17T09:22:29Z</time>
      </trkpt>
      <trkpt lat="43.17073" lon="1.028">
        <ele>394.72024536</ele>
        <time>2021-10-17T09:22:30Z</time>
      </trkpt>
      <trkpt lat="43.17071" lon="1.02801">
        <ele>394.89025879</ele>
        <time>2021-10-17T09:22:31Z</time>
      </trkpt>
      <trkpt lat="43.17068" lon="1.02803">
        <ele>395.07025146</ele>
        <time>2021-10-17T09:22:32Z</time>
      </trkpt>
      <trkpt lat="43.17065" lon="1.02804">
        <ele>395.23025513</ele>
        <time>2021-10-17T09:22:33Z</time>
      </trkpt>
      <trkpt lat="43.17063" lon="1.02805">
        <ele>395.4102478</ele>
        <time>2021-10-17T09:22:34Z</time>
      </trkpt>
      <trkpt lat="43.17061" lon="1.02807">
        <ele>395.57025146</ele>
        <time>2021-10-17T09:22:35Z</time>
      </trkpt>
      <trkpt lat="43.17059" lon="1.02808">
        <ele>395.73025513</ele>
        <time>2021-10-17T09:22:36Z</time>
      </trkpt>
      <trkpt lat="43.17057" lon="1.02809">
        <ele>395.86026001</ele>
        <time>2021-10-17T09:22:37Z</time>
      </trkpt>
      <trkpt lat="43.17054" lon="1.0281">
        <ele>395.97024536</ele>
        <time>2021-10-17T09:22:38Z</time>
      </trkpt>
      <trkpt lat="43.17052" lon="1.02811">
        <ele>396.07025146</ele>
        <time>2021-10-17T09:22:39Z</time>
      </trkpt>
      <trkpt lat="43.1705" lon="1.02812">
        <ele>396.21026611</ele>
        <time>2021-10-17T09:22:40Z</time>
      </trkpt>
      <trkpt lat="43.17048" lon="1.02813">
        <ele>396.37026978</ele>
        <time>2021-10-17T09:22:41Z</time>
      </trkpt>
      <trkpt lat="43.17045" lon="1.02814">
        <ele>396.49026489</ele>
        <time>2021-10-17T09:22:42Z</time>
      </trkpt>
      <trkpt lat="43.17043" lon="1.02815">
        <ele>396.64025879</ele>
        <time>2021-10-17T09:22:43Z</time>
      </trkpt>
      <trkpt lat="43.17042" lon="1.02816">
        <ele>396.76025391</ele>
        <time>2021-10-17T09:22:44Z</time>
      </trkpt>
      <trkpt lat="43.1704" lon="1.02816">
        <ele>396.90026855</ele>
        <time>2021-10-17T09:22:45Z</time>
      </trkpt>
      <trkpt lat="43.17039" lon="1.02817">
        <ele>397.03027344</ele>
        <time>2021-10-17T09:22:46Z</time>
      </trkpt>
      <trkpt lat="43.17038" lon="1.02817">
        <ele>397.17028809</ele>
        <time>2021-10-17T09:22:47Z</time>
      </trkpt>
      <trkpt lat="43.17038" lon="1.02817">
        <ele>397.28027344</ele>
        <time>2021-10-17T09:22:48Z</time>
      </trkpt>
      <trkpt lat="43.17037" lon="1.02818">
        <ele>398.13000488</ele>
        <time>2021-10-17T09:22:49Z</time>
      </trkpt>
      <trkpt lat="43.17033" lon="1.02819">
        <ele>396.73001099</ele>
        <time>2021-10-17T09:25:34Z</time>
      </trkpt>
      <trkpt lat="43.17031" lon="1.0282">
        <ele>396.79000854</ele>
        <time>2021-10-17T09:25:35Z</time>
      </trkpt>
      <trkpt lat="43.1703" lon="1.0282">
        <ele>396.77001953</ele>
        <time>2021-10-17T09:25:36Z</time>
      </trkpt>
      <trkpt lat="43.17028" lon="1.02821">
        <ele>396.80001831</ele>
        <time>2021-10-17T09:25:37Z</time>
      </trkpt>
      <trkpt lat="43.17025" lon="1.02823">
        <ele>396.8500061</ele>
        <time>2021-10-17T09:25:38Z</time>
      </trkpt>
      <trkpt lat="43.17024" lon="1.02824">
        <ele>396.8999939</ele>
        <time>2021-10-17T09:25:39Z</time>
      </trkpt>
      <trkpt lat="43.17022" lon="1.02825">
        <ele>397.07000732</ele>
        <time>2021-10-17T09:25:40Z</time>
      </trkpt>
      <trkpt lat="43.1702" lon="1.02825">
        <ele>397.22000122</ele>
        <time>2021-10-17T09:25:41Z</time>
      </trkpt>
      <trkpt lat="43.17019" lon="1.02826">
        <ele>397.36001587</ele>
        <time>2021-10-17T09:25:42Z</time>
      </trkpt>
      <trkpt lat="43.17016" lon="1.02827">
        <ele>397.45001221</ele>
        <time>2021-10-17T09:25:43Z</time>
      </trkpt>
      <trkpt lat="43.17015" lon="1.02828">
        <ele>397.55001831</ele>
        <time>2021-10-17T09:25:44Z</time>
      </trkpt>
      <trkpt lat="43.17013" lon="1.02828">
        <ele>397.68002319</ele>
        <time>2021-10-17T09:25:45Z</time>
      </trkpt>
      <trkpt lat="43.17011" lon="1.02829">
        <ele>397.79000854</ele>
        <time>2021-10-17T09:25:46Z</time>
      </trkpt>
      <trkpt lat="43.17009" lon="1.0283">
        <ele>397.94000244</ele>
        <time>2021-10-17T09:25:47Z</time>
      </trkpt>
      <trkpt lat="43.17007" lon="1.02831">
        <ele>398.08001709</ele>
        <time>2021-10-17T09:25:48Z</time>
      </trkpt>
      <trkpt lat="43.17006" lon="1.02832">
        <ele>398.21002197</ele>
        <time>2021-10-17T09:25:49Z</time>
      </trkpt>
      <trkpt lat="43.17004" lon="1.02833">
        <ele>398.35003662</ele>
        <time>2021-10-17T09:25:50Z</time>
      </trkpt>
      <trkpt lat="43.17002" lon="1.02834">
        <ele>398.51004028</ele>
        <time>2021-10-17T09:25:51Z</time>
      </trkpt>
      <trkpt lat="43.16999" lon="1.02836">
        <ele>398.82003784</ele>
        <time>2021-10-17T09:25:52Z</time>
      </trkpt>
      <trkpt lat="43.16997" lon="1.02837">
        <ele>398.82003784</ele>
        <time>2021-10-17T09:25:53Z</time>
      </trkpt>
      <trkpt lat="43.16995" lon="1.02838">
        <ele>399.06002808</ele>
        <time>2021-10-17T09:25:54Z</time>
      </trkpt>
      <trkpt lat="43.16993" lon="1.02839">
        <ele>399.19003296</ele>
        <time>2021-10-17T09:25:55Z</time>
      </trkpt>
      <trkpt lat="43.1699" lon="1.0284">
        <ele>399.37002563</ele>
        <time>2021-10-17T09:25:56Z</time>
      </trkpt>
      <trkpt lat="43.16988" lon="1.02841">
        <ele>399.48001099</ele>
        <time>2021-10-17T09:25:57Z</time>
      </trkpt>
      <trkpt lat="43.16986" lon="1.02842">
        <ele>399.58999634</ele>
        <time>2021-10-17T09:25:58Z</time>
      </trkpt>
      <trkpt lat="43.16984" lon="1.02843">
        <ele>399.82000732</ele>
        <time>2021-10-17T09:25:59Z</time>
      </trkpt>
      <trkpt lat="43.16982" lon="1.02845">
        <ele>400</ele>
        <time>2021-10-17T09:26:00Z</time>
      </trkpt>
      <trkpt lat="43.16979" lon="1.02846">
        <ele>400.26998901</ele>
        <time>2021-10-17T09:26:01Z</time>
      </trkpt>
      <trkpt lat="43.16977" lon="1.02848">
        <ele>400.47998047</ele>
        <time>2021-10-17T09:26:02Z</time>
      </trkpt>
      <trkpt lat="43.16975" lon="1.02849">
        <ele>400.63998413</ele>
        <time>2021-10-17T09:26:03Z</time>
      </trkpt>
      <trkpt lat="43.16972" lon="1.02851">
        <ele>400.73999023</ele>
        <time>2021-10-17T09:26:04Z</time>
      </trkpt>
      <trkpt lat="43.16969" lon="1.02852">
        <ele>400.80999756</ele>
        <time>2021-10-17T09:26:05Z</time>
      </trkpt>
      <trkpt lat="43.16967" lon="1.02854">
        <ele>400.8500061</ele>
        <time>2021-10-17T09:26:06Z</time>
      </trkpt>
      <trkpt lat="43.16965" lon="1.02856">
        <ele>400.95999146</ele>
        <time>2021-10-17T09:26:07Z</time>
      </trkpt>
      <trkpt lat="43.16963" lon="1.02858">
        <ele>401.08999634</ele>
        <time>2021-10-17T09:26:08Z</time>
      </trkpt>
      <trkpt lat="43.16961" lon="1.02859">
        <ele>401.19000244</ele>
        <time>2021-10-17T09:26:09Z</time>
      </trkpt>
      <trkpt lat="43.16957" lon="1.02862">
        <ele>401.27999878</ele>
        <time>2021-10-17T09:26:10Z</time>
      </trkpt>
      <trkpt lat="43.16955" lon="1.02864">
        <ele>401.32000732</ele>
        <time>2021-10-17T09:26:11Z</time>
      </trkpt>
      <trkpt lat="43.16952" lon="1.02866">
        <ele>401.38000488</ele>
        <time>2021-10-17T09:26:12Z</time>
      </trkpt>
      <trkpt lat="43.1695" lon="1.02869">
        <ele>401.42001343</ele>
        <time>2021-10-17T09:26:13Z</time>
      </trkpt>
      <trkpt lat="43.16946" lon="1.02872">
        <ele>401.46002197</ele>
        <time>2021-10-17T09:26:14Z</time>
      </trkpt>
      <trkpt lat="43.16942" lon="1.02874">
        <ele>401.52001953</ele>
        <time>2021-10-17T09:26:15Z</time>
      </trkpt>
      <trkpt lat="43.16939" lon="1.02876">
        <ele>401.47003174</ele>
        <time>2021-10-17T09:26:16Z</time>
      </trkpt>
      <trkpt lat="43.16936" lon="1.02879">
        <ele>401.36004639</ele>
        <time>2021-10-17T09:26:17Z</time>
      </trkpt>
      <trkpt lat="43.16932" lon="1.02883">
        <ele>401.25006104</ele>
        <time>2021-10-17T09:26:18Z</time>
      </trkpt>
      <trkpt lat="43.16929" lon="1.02886">
        <ele>401.07006836</ele>
        <time>2021-10-17T09:26:19Z</time>
      </trkpt>
      <trkpt lat="43.16926" lon="1.02888">
        <ele>401.04006958</ele>
        <time>2021-10-17T09:26:20Z</time>
      </trkpt>
      <trkpt lat="43.16923" lon="1.02891">
        <ele>401.07006836</ele>
        <time>2021-10-17T09:26:21Z</time>
      </trkpt>
      <trkpt lat="43.1692" lon="1.02893">
        <ele>401.02008057</ele>
        <time>2021-10-17T09:26:22Z</time>
      </trkpt>
      <trkpt lat="43.16915" lon="1.02897">
        <ele>401.02008057</ele>
        <time>2021-10-17T09:26:23Z</time>
      </trkpt>
      <trkpt lat="43.16913" lon="1.029">
        <ele>401.00009155</ele>
        <time>2021-10-17T09:26:24Z</time>
      </trkpt>
      <trkpt lat="43.1691" lon="1.02903">
        <ele>400.8901062</ele>
        <time>2021-10-17T09:26:25Z</time>
      </trkpt>
      <trkpt lat="43.16907" lon="1.02906">
        <ele>400.86010742</ele>
        <time>2021-10-17T09:26:26Z</time>
      </trkpt>
      <trkpt lat="43.16902" lon="1.02911">
        <ele>400.77011108</ele>
        <time>2021-10-17T09:26:27Z</time>
      </trkpt>
      <trkpt lat="43.16899" lon="1.02913">
        <ele>400.71011353</ele>
        <time>2021-10-17T09:26:28Z</time>
      </trkpt>
      <trkpt lat="43.16895" lon="1.02916">
        <ele>400.70010376</ele>
        <time>2021-10-17T09:26:29Z</time>
      </trkpt>
      <trkpt lat="43.16893" lon="1.02919">
        <ele>400.67010498</ele>
        <time>2021-10-17T09:26:30Z</time>
      </trkpt>
      <trkpt lat="43.16889" lon="1.02924">
        <ele>400.69009399</ele>
        <time>2021-10-17T09:26:31Z</time>
      </trkpt>
      <trkpt lat="43.16886" lon="1.02927">
        <ele>400.69009399</ele>
        <time>2021-10-17T09:26:32Z</time>
      </trkpt>
      <trkpt lat="43.16883" lon="1.02929">
        <ele>400.68008423</ele>
        <time>2021-10-17T09:26:33Z</time>
      </trkpt>
      <trkpt lat="43.1688" lon="1.02932">
        <ele>400.7600708</ele>
        <time>2021-10-17T09:26:34Z</time>
      </trkpt>
      <trkpt lat="43.16878" lon="1.02934">
        <ele>400.84005737</ele>
        <time>2021-10-17T09:26:35Z</time>
      </trkpt>
      <trkpt lat="43.16875" lon="1.02937">
        <ele>400.90005493</ele>
        <time>2021-10-17T09:26:36Z</time>
      </trkpt>
      <trkpt lat="43.1687" lon="1.0294">
        <ele>400.99005127</ele>
        <time>2021-10-17T09:26:37Z</time>
      </trkpt>
      <trkpt lat="43.16867" lon="1.02943">
        <ele>401.02005005</ele>
        <time>2021-10-17T09:26:38Z</time>
      </trkpt>
      <trkpt lat="43.16864" lon="1.02945">
        <ele>401.08004761</ele>
        <time>2021-10-17T09:26:39Z</time>
      </trkpt>
      <trkpt lat="43.16861" lon="1.02947">
        <ele>401.1300354</ele>
        <time>2021-10-17T09:26:40Z</time>
      </trkpt>
      <trkpt lat="43.16857" lon="1.02951">
        <ele>401.14004517</ele>
        <time>2021-10-17T09:26:41Z</time>
      </trkpt>
      <trkpt lat="43.16854" lon="1.02953">
        <ele>401.16003418</ele>
        <time>2021-10-17T09:26:42Z</time>
      </trkpt>
      <trkpt lat="43.16851" lon="1.02956">
        <ele>401.12002563</ele>
        <time>2021-10-17T09:26:43Z</time>
      </trkpt>
      <trkpt lat="43.16849" lon="1.02958">
        <ele>401.12002563</ele>
        <time>2021-10-17T09:26:44Z</time>
      </trkpt>
      <trkpt lat="43.16846" lon="1.0296">
        <ele>401.24002075</ele>
        <time>2021-10-17T09:26:45Z</time>
      </trkpt>
      <trkpt lat="43.16841" lon="1.02963">
        <ele>401.3800354</ele>
        <time>2021-10-17T09:26:46Z</time>
      </trkpt>
      <trkpt lat="43.16838" lon="1.02965">
        <ele>401.56002808</ele>
        <time>2021-10-17T09:26:47Z</time>
      </trkpt>
      <trkpt lat="43.16835" lon="1.02967">
        <ele>401.74002075</ele>
        <time>2021-10-17T09:26:48Z</time>
      </trkpt>
      <trkpt lat="43.16832" lon="1.02969">
        <ele>401.8500061</ele>
        <time>2021-10-17T09:26:49Z</time>
      </trkpt>
      <trkpt lat="43.16827" lon="1.02971">
        <ele>401.92001343</ele>
        <time>2021-10-17T09:26:50Z</time>
      </trkpt>
      <trkpt lat="43.16824" lon="1.02973">
        <ele>401.99002075</ele>
        <time>2021-10-17T09:26:51Z</time>
      </trkpt>
      <trkpt lat="43.16822" lon="1.02976">
        <ele>402.01000977</ele>
        <time>2021-10-17T09:26:52Z</time>
      </trkpt>
      <trkpt lat="43.16819" lon="1.02978">
        <ele>401.98001099</ele>
        <time>2021-10-17T09:26:53Z</time>
      </trkpt>
      <trkpt lat="43.16816" lon="1.0298">
        <ele>401.94000244</ele>
        <time>2021-10-17T09:26:54Z</time>
      </trkpt>
      <trkpt lat="43.16814" lon="1.02981">
        <ele>401.91000366</ele>
        <time>2021-10-17T09:26:55Z</time>
      </trkpt>
      <trkpt lat="43.16813" lon="1.02982">
        <ele>401.8999939</ele>
        <time>2021-10-17T09:26:56Z</time>
      </trkpt>
      <trkpt lat="43.16812" lon="1.02983">
        <ele>401.8999939</ele>
        <time>2021-10-17T09:26:57Z</time>
      </trkpt>
      <trkpt lat="43.16812" lon="1.02984">
        <ele>401.8999939</ele>
        <time>2021-10-17T09:26:58Z</time>
      </trkpt>
      <trkpt lat="43.16812" lon="1.02984">
        <ele>401.88998413</ele>
        <time>2021-10-17T09:26:59Z</time>
      </trkpt>
      <trkpt lat="43.1681" lon="1.02985">
        <ele>401.76998901</ele>
        <time>2021-10-17T09:27:06Z</time>
      </trkpt>
      <trkpt lat="43.16809" lon="1.02988">
        <ele>401.67999268</ele>
        <time>2021-10-17T09:27:07Z</time>
      </trkpt>
      <trkpt lat="43.16806" lon="1.02991">
        <ele>401.54998779</ele>
        <time>2021-10-17T09:27:08Z</time>
      </trkpt>
      <trkpt lat="43.16803" lon="1.02994">
        <ele>401.41998291</ele>
        <time>2021-10-17T09:27:09Z</time>
      </trkpt>
      <trkpt lat="43.16801" lon="1.02997">
        <ele>401.31997681</ele>
        <time>2021-10-17T09:27:10Z</time>
      </trkpt>
      <trkpt lat="43.16799" lon="1.03001">
        <ele>401.28997803</ele>
        <time>2021-10-17T09:27:11Z</time>
      </trkpt>
      <trkpt lat="43.16794" lon="1.03008">
        <ele>401.28997803</ele>
        <time>2021-10-17T09:27:12Z</time>
      </trkpt>
      <trkpt lat="43.16791" lon="1.03013">
        <ele>401.16998291</ele>
        <time>2021-10-17T09:27:13Z</time>
      </trkpt>
      <trkpt lat="43.16787" lon="1.03019">
        <ele>400.74996948</ele>
        <time>2021-10-17T09:27:14Z</time>
      </trkpt>
      <trkpt lat="43.16784" lon="1.03023">
        <ele>400.42996216</ele>
        <time>2021-10-17T09:27:15Z</time>
      </trkpt>
      <trkpt lat="43.1678" lon="1.03028">
        <ele>400.24996948</ele>
        <time>2021-10-17T09:27:16Z</time>
      </trkpt>
      <trkpt lat="43.16776" lon="1.03034">
        <ele>400.32995605</ele>
        <time>2021-10-17T09:27:17Z</time>
      </trkpt>
      <trkpt lat="43.16773" lon="1.03038">
        <ele>400.7199707</ele>
        <time>2021-10-17T09:27:18Z</time>
      </trkpt>
      <trkpt lat="43.1677" lon="1.03042">
        <ele>401.0199585</ele>
        <time>2021-10-17T09:27:19Z</time>
      </trkpt>
      <trkpt lat="43.16768" lon="1.03045">
        <ele>401.18997192</ele>
        <time>2021-10-17T09:27:20Z</time>
      </trkpt>
      <trkpt lat="43.16764" lon="1.03051">
        <ele>401.18997192</ele>
        <time>2021-10-17T09:27:21Z</time>
      </trkpt>
      <trkpt lat="43.16761" lon="1.03054">
        <ele>401.18997192</ele>
        <time>2021-10-17T09:27:22Z</time>
      </trkpt>
      <trkpt lat="43.16759" lon="1.03058">
        <ele>401.22998047</ele>
        <time>2021-10-17T09:27:23Z</time>
      </trkpt>
      <trkpt lat="43.16756" lon="1.03062">
        <ele>401.27996826</ele>
        <time>2021-10-17T09:27:24Z</time>
      </trkpt>
      <trkpt lat="43.16754" lon="1.03066">
        <ele>401.38995361</ele>
        <time>2021-10-17T09:27:25Z</time>
      </trkpt>
      <trkpt lat="43.1675" lon="1.03073">
        <ele>401.40994263</ele>
        <time>2021-10-17T09:27:26Z</time>
      </trkpt>
      <trkpt lat="43.16748" lon="1.03077">
        <ele>401.37994385</ele>
        <time>2021-10-17T09:27:27Z</time>
      </trkpt>
      <trkpt lat="43.16745" lon="1.03081">
        <ele>401.44995117</ele>
        <time>2021-10-17T09:27:28Z</time>
      </trkpt>
      <trkpt lat="43.16743" lon="1.03084">
        <ele>401.55993652</ele>
        <time>2021-10-17T09:27:29Z</time>
      </trkpt>
      <trkpt lat="43.1674" lon="1.0309">
        <ele>401.74993896</ele>
        <time>2021-10-17T09:27:30Z</time>
      </trkpt>
      <trkpt lat="43.16737" lon="1.03095">
        <ele>401.84994507</ele>
        <time>2021-10-17T09:27:31Z</time>
      </trkpt>
      <trkpt lat="43.16735" lon="1.03099">
        <ele>401.80993652</ele>
        <time>2021-10-17T09:27:32Z</time>
      </trkpt>
      <trkpt lat="43.16732" lon="1.03103">
        <ele>401.69995117</ele>
        <time>2021-10-17T09:27:33Z</time>
      </trkpt>
      <trkpt lat="43.16729" lon="1.03108">
        <ele>401.52993774</ele>
        <time>2021-10-17T09:27:34Z</time>
      </trkpt>
      <trkpt lat="43.16725" lon="1.03115">
        <ele>401.41995239</ele>
        <time>2021-10-17T09:27:35Z</time>
      </trkpt>
      <trkpt lat="43.16722" lon="1.03119">
        <ele>401.37994385</ele>
        <time>2021-10-17T09:27:36Z</time>
      </trkpt>
      <trkpt lat="43.1672" lon="1.03124">
        <ele>401.31994629</ele>
        <time>2021-10-17T09:27:37Z</time>
      </trkpt>
      <trkpt lat="43.16718" lon="1.03128">
        <ele>401.30993652</ele>
        <time>2021-10-17T09:27:38Z</time>
      </trkpt>
      <trkpt lat="43.16714" lon="1.03134">
        <ele>401.32992554</ele>
        <time>2021-10-17T09:27:39Z</time>
      </trkpt>
      <trkpt lat="43.16712" lon="1.03138">
        <ele>401.34991455</ele>
        <time>2021-10-17T09:27:40Z</time>
      </trkpt>
      <trkpt lat="43.16709" lon="1.03142">
        <ele>401.41992188</ele>
        <time>2021-10-17T09:27:41Z</time>
      </trkpt>
      <trkpt lat="43.16707" lon="1.03146">
        <ele>401.55993652</ele>
        <time>2021-10-17T09:27:42Z</time>
      </trkpt>
      <trkpt lat="43.16704" lon="1.0315">
        <ele>401.66992188</ele>
        <time>2021-10-17T09:27:43Z</time>
      </trkpt>
      <trkpt lat="43.16699" lon="1.03156">
        <ele>401.65991211</ele>
        <time>2021-10-17T09:27:44Z</time>
      </trkpt>
      <trkpt lat="43.16696" lon="1.0316">
        <ele>401.54992676</ele>
        <time>2021-10-17T09:27:45Z</time>
      </trkpt>
      <trkpt lat="43.16692" lon="1.03163">
        <ele>401.34991455</ele>
        <time>2021-10-17T09:27:46Z</time>
      </trkpt>
      <trkpt lat="43.16689" lon="1.03167">
        <ele>401.12991333</ele>
        <time>2021-10-17T09:27:47Z</time>
      </trkpt>
      <trkpt lat="43.16685" lon="1.03171">
        <ele>400.97991943</ele>
        <time>2021-10-17T09:27:48Z</time>
      </trkpt>
      <trkpt lat="43.16681" lon="1.03177">
        <ele>400.89993286</ele>
        <time>2021-10-17T09:27:49Z</time>
      </trkpt>
      <trkpt lat="43.16679" lon="1.03182">
        <ele>400.94992065</ele>
        <time>2021-10-17T09:27:50Z</time>
      </trkpt>
      <trkpt lat="43.16678" lon="1.03186">
        <ele>400.99990845</ele>
        <time>2021-10-17T09:27:51Z</time>
      </trkpt>
      <trkpt lat="43.1668" lon="1.03191">
        <ele>401.04989624</ele>
        <time>2021-10-17T09:27:52Z</time>
      </trkpt>
      <trkpt lat="43.16683" lon="1.03197">
        <ele>401.02990723</ele>
        <time>2021-10-17T09:27:53Z</time>
      </trkpt>
      <trkpt lat="43.16685" lon="1.032">
        <ele>400.89990234</ele>
        <time>2021-10-17T09:27:54Z</time>
      </trkpt>
      <trkpt lat="43.16687" lon="1.03203">
        <ele>401.07989502</ele>
        <time>2021-10-17T09:27:55Z</time>
      </trkpt>
      <trkpt lat="43.1669" lon="1.03206">
        <ele>401.3598938</ele>
        <time>2021-10-17T09:27:56Z</time>
      </trkpt>
      <trkpt lat="43.16693" lon="1.0321">
        <ele>401.81988525</ele>
        <time>2021-10-17T09:27:57Z</time>
      </trkpt>
      <trkpt lat="43.16696" lon="1.03214">
        <ele>402.32989502</ele>
        <time>2021-10-17T09:27:58Z</time>
      </trkpt>
      <trkpt lat="43.16698" lon="1.03217">
        <ele>402.63989258</ele>
        <time>2021-10-17T09:27:59Z</time>
      </trkpt>
      <trkpt lat="43.167" lon="1.03221">
        <ele>402.91989136</ele>
        <time>2021-10-17T09:28:00Z</time>
      </trkpt>
      <trkpt lat="43.16702" lon="1.03225">
        <ele>403.12988281</ele>
        <time>2021-10-17T09:28:01Z</time>
      </trkpt>
      <trkpt lat="43.16704" lon="1.03232">
        <ele>403.21987915</ele>
        <time>2021-10-17T09:28:02Z</time>
      </trkpt>
      <trkpt lat="43.16704" lon="1.03237">
        <ele>403.31988525</ele>
        <time>2021-10-17T09:28:03Z</time>
      </trkpt>
      <trkpt lat="43.16704" lon="1.03242">
        <ele>403.42987061</ele>
        <time>2021-10-17T09:28:04Z</time>
      </trkpt>
      <trkpt lat="43.16703" lon="1.03247">
        <ele>403.5798645</ele>
        <time>2021-10-17T09:28:05Z</time>
      </trkpt>
      <trkpt lat="43.16701" lon="1.03251">
        <ele>403.74987793</ele>
        <time>2021-10-17T09:28:06Z</time>
      </trkpt>
      <trkpt lat="43.16697" lon="1.03258">
        <ele>403.71987915</ele>
        <time>2021-10-17T09:28:07Z</time>
      </trkpt>
      <trkpt lat="43.16694" lon="1.03263">
        <ele>403.54986572</ele>
        <time>2021-10-17T09:28:08Z</time>
      </trkpt>
      <trkpt lat="43.16691" lon="1.03267">
        <ele>403.19985962</ele>
        <time>2021-10-17T09:28:09Z</time>
      </trkpt>
      <trkpt lat="43.16688" lon="1.03272">
        <ele>402.86987305</ele>
        <time>2021-10-17T09:28:10Z</time>
      </trkpt>
      <trkpt lat="43.16682" lon="1.03278">
        <ele>402.56988525</ele>
        <time>2021-10-17T09:28:11Z</time>
      </trkpt>
      <trkpt lat="43.16679" lon="1.03283">
        <ele>402.36987305</ele>
        <time>2021-10-17T09:28:12Z</time>
      </trkpt>
      <trkpt lat="43.16675" lon="1.03287">
        <ele>402.27987671</ele>
        <time>2021-10-17T09:28:13Z</time>
      </trkpt>
      <trkpt lat="43.16672" lon="1.03292">
        <ele>402.19989014</ele>
        <time>2021-10-17T09:28:14Z</time>
      </trkpt>
      <trkpt lat="43.16667" lon="1.03299">
        <ele>402.26989746</ele>
        <time>2021-10-17T09:28:15Z</time>
      </trkpt>
      <trkpt lat="43.16664" lon="1.03304">
        <ele>402.29989624</ele>
        <time>2021-10-17T09:28:16Z</time>
      </trkpt>
      <trkpt lat="43.1666" lon="1.03309">
        <ele>402.29989624</ele>
        <time>2021-10-17T09:28:17Z</time>
      </trkpt>
      <trkpt lat="43.16657" lon="1.03314">
        <ele>402.27990723</ele>
        <time>2021-10-17T09:28:18Z</time>
      </trkpt>
      <trkpt lat="43.16654" lon="1.03318">
        <ele>402.22991943</ele>
        <time>2021-10-17T09:28:19Z</time>
      </trkpt>
      <trkpt lat="43.1665" lon="1.03326">
        <ele>402.18991089</ele>
        <time>2021-10-17T09:28:20Z</time>
      </trkpt>
      <trkpt lat="43.16647" lon="1.03332">
        <ele>402.42990112</ele>
        <time>2021-10-17T09:28:21Z</time>
      </trkpt>
      <trkpt lat="43.16645" lon="1.03338">
        <ele>402.37991333</ele>
        <time>2021-10-17T09:28:22Z</time>
      </trkpt>
      <trkpt lat="43.16642" lon="1.03343">
        <ele>402.30990601</ele>
        <time>2021-10-17T09:28:23Z</time>
      </trkpt>
      <trkpt lat="43.16638" lon="1.03351">
        <ele>402.24990845</ele>
        <time>2021-10-17T09:28:24Z</time>
      </trkpt>
      <trkpt lat="43.16636" lon="1.03356">
        <ele>402.2098999</ele>
        <time>2021-10-17T09:28:25Z</time>
      </trkpt>
      <trkpt lat="43.16634" lon="1.03361">
        <ele>402.26989746</ele>
        <time>2021-10-17T09:28:26Z</time>
      </trkpt>
      <trkpt lat="43.16632" lon="1.03365">
        <ele>402.42990112</ele>
        <time>2021-10-17T09:28:27Z</time>
      </trkpt>
      <trkpt lat="43.16631" lon="1.0337">
        <ele>402.55990601</ele>
        <time>2021-10-17T09:28:28Z</time>
      </trkpt>
      <trkpt lat="43.16628" lon="1.03376">
        <ele>402.73989868</ele>
        <time>2021-10-17T09:28:29Z</time>
      </trkpt>
      <trkpt lat="43.16626" lon="1.0338">
        <ele>402.96990967</ele>
        <time>2021-10-17T09:28:30Z</time>
      </trkpt>
      <trkpt lat="43.16624" lon="1.03384">
        <ele>403.04989624</ele>
        <time>2021-10-17T09:28:31Z</time>
      </trkpt>
      <trkpt lat="43.16622" lon="1.03388">
        <ele>403.19989014</ele>
        <time>2021-10-17T09:28:32Z</time>
      </trkpt>
      <trkpt lat="43.16619" lon="1.03394">
        <ele>403.29989624</ele>
        <time>2021-10-17T09:28:33Z</time>
      </trkpt>
      <trkpt lat="43.16617" lon="1.03398">
        <ele>403.34988403</ele>
        <time>2021-10-17T09:28:34Z</time>
      </trkpt>
      <trkpt lat="43.16615" lon="1.03401">
        <ele>403.44989014</ele>
        <time>2021-10-17T09:28:35Z</time>
      </trkpt>
      <trkpt lat="43.16614" lon="1.03405">
        <ele>403.52987671</ele>
        <time>2021-10-17T09:28:36Z</time>
      </trkpt>
      <trkpt lat="43.16611" lon="1.03411">
        <ele>403.5098877</ele>
        <time>2021-10-17T09:28:37Z</time>
      </trkpt>
      <trkpt lat="43.16609" lon="1.03415">
        <ele>403.4598999</ele>
        <time>2021-10-17T09:28:38Z</time>
      </trkpt>
      <trkpt lat="43.16607" lon="1.03419">
        <ele>403.37991333</ele>
        <time>2021-10-17T09:28:39Z</time>
      </trkpt>
      <trkpt lat="43.16605" lon="1.03423">
        <ele>403.28991699</ele>
        <time>2021-10-17T09:28:40Z</time>
      </trkpt>
      <trkpt lat="43.16604" lon="1.03427">
        <ele>403.31991577</ele>
        <time>2021-10-17T09:28:41Z</time>
      </trkpt>
      <trkpt lat="43.16601" lon="1.03433">
        <ele>403.37991333</ele>
        <time>2021-10-17T09:28:42Z</time>
      </trkpt>
      <trkpt lat="43.16599" lon="1.03437">
        <ele>403.44992065</ele>
        <time>2021-10-17T09:28:43Z</time>
      </trkpt>
      <trkpt lat="43.16597" lon="1.03441">
        <ele>403.45993042</ele>
        <time>2021-10-17T09:28:44Z</time>
      </trkpt>
      <trkpt lat="43.16595" lon="1.03444">
        <ele>403.39993286</ele>
        <time>2021-10-17T09:28:45Z</time>
      </trkpt>
      <trkpt lat="43.16594" lon="1.03448">
        <ele>403.30993652</ele>
        <time>2021-10-17T09:28:46Z</time>
      </trkpt>
      <trkpt lat="43.16591" lon="1.03455">
        <ele>403.21994019</ele>
        <time>2021-10-17T09:28:47Z</time>
      </trkpt>
      <trkpt lat="43.16589" lon="1.03459">
        <ele>403.14993286</ele>
        <time>2021-10-17T09:28:48Z</time>
      </trkpt>
      <trkpt lat="43.16587" lon="1.03463">
        <ele>403.1399231</ele>
        <time>2021-10-17T09:28:49Z</time>
      </trkpt>
      <trkpt lat="43.16585" lon="1.03467">
        <ele>403.1399231</ele>
        <time>2021-10-17T09:28:50Z</time>
      </trkpt>
      <trkpt lat="43.16582" lon="1.03472">
        <ele>403.1399231</ele>
        <time>2021-10-17T09:28:51Z</time>
      </trkpt>
      <trkpt lat="43.16581" lon="1.03476">
        <ele>403.15991211</ele>
        <time>2021-10-17T09:28:52Z</time>
      </trkpt>
      <trkpt lat="43.16579" lon="1.0348">
        <ele>403.14990234</ele>
        <time>2021-10-17T09:28:53Z</time>
      </trkpt>
      <trkpt lat="43.16577" lon="1.03484">
        <ele>403.14990234</ele>
        <time>2021-10-17T09:28:54Z</time>
      </trkpt>
      <trkpt lat="43.16575" lon="1.03488">
        <ele>403.16989136</ele>
        <time>2021-10-17T09:28:55Z</time>
      </trkpt>
      <trkpt lat="43.16573" lon="1.03494">
        <ele>403.16989136</ele>
        <time>2021-10-17T09:28:56Z</time>
      </trkpt>
      <trkpt lat="43.16571" lon="1.03498">
        <ele>403.22988892</ele>
        <time>2021-10-17T09:28:57Z</time>
      </trkpt>
      <trkpt lat="43.16569" lon="1.03502">
        <ele>403.22988892</ele>
        <time>2021-10-17T09:28:58Z</time>
      </trkpt>
      <trkpt lat="43.16567" lon="1.03507">
        <ele>403.22988892</ele>
        <time>2021-10-17T09:28:59Z</time>
      </trkpt>
      <trkpt lat="43.16564" lon="1.03514">
        <ele>403.23989868</ele>
        <time>2021-10-17T09:29:00Z</time>
      </trkpt>
      <trkpt lat="43.16562" lon="1.03518">
        <ele>403.14990234</ele>
        <time>2021-10-17T09:29:01Z</time>
      </trkpt>
      <trkpt lat="43.1656" lon="1.03522">
        <ele>403.11990356</ele>
        <time>2021-10-17T09:29:02Z</time>
      </trkpt>
      <trkpt lat="43.16558" lon="1.03527">
        <ele>403.09991455</ele>
        <time>2021-10-17T09:29:03Z</time>
      </trkpt>
      <trkpt lat="43.16556" lon="1.03531">
        <ele>403.05990601</ele>
        <time>2021-10-17T09:29:04Z</time>
      </trkpt>
      <trkpt lat="43.16552" lon="1.03536">
        <ele>403.05990601</ele>
        <time>2021-10-17T09:29:05Z</time>
      </trkpt>
      <trkpt lat="43.1655" lon="1.0354">
        <ele>403.03991699</ele>
        <time>2021-10-17T09:29:06Z</time>
      </trkpt>
      <trkpt lat="43.16548" lon="1.03545">
        <ele>402.94992065</ele>
        <time>2021-10-17T09:29:07Z</time>
      </trkpt>
      <trkpt lat="43.16545" lon="1.03549">
        <ele>402.75991821</ele>
        <time>2021-10-17T09:29:08Z</time>
      </trkpt>
      <trkpt lat="43.16542" lon="1.03557">
        <ele>402.51992798</ele>
        <time>2021-10-17T09:29:09Z</time>
      </trkpt>
      <trkpt lat="43.1654" lon="1.03562">
        <ele>402.28991699</ele>
        <time>2021-10-17T09:29:10Z</time>
      </trkpt>
      <trkpt lat="43.16537" lon="1.03567">
        <ele>402.01992798</ele>
        <time>2021-10-17T09:29:11Z</time>
      </trkpt>
      <trkpt lat="43.16535" lon="1.03572">
        <ele>401.81991577</ele>
        <time>2021-10-17T09:29:12Z</time>
      </trkpt>
      <trkpt lat="43.16533" lon="1.03578">
        <ele>401.58990479</ele>
        <time>2021-10-17T09:29:13Z</time>
      </trkpt>
      <trkpt lat="43.16529" lon="1.03586">
        <ele>401.27990723</ele>
        <time>2021-10-17T09:29:14Z</time>
      </trkpt>
      <trkpt lat="43.16527" lon="1.03592">
        <ele>400.99990845</ele>
        <time>2021-10-17T09:29:15Z</time>
      </trkpt>
      <trkpt lat="43.16525" lon="1.03599">
        <ele>400.65991211</ele>
        <time>2021-10-17T09:29:16Z</time>
      </trkpt>
      <trkpt lat="43.16523" lon="1.03605">
        <ele>400.30990601</ele>
        <time>2021-10-17T09:29:17Z</time>
      </trkpt>
      <trkpt lat="43.16521" lon="1.03612">
        <ele>399.98989868</ele>
        <time>2021-10-17T09:29:18Z</time>
      </trkpt>
      <trkpt lat="43.16517" lon="1.03622">
        <ele>399.6098938</ele>
        <time>2021-10-17T09:29:19Z</time>
      </trkpt>
      <trkpt lat="43.16515" lon="1.03629">
        <ele>399.27990723</ele>
        <time>2021-10-17T09:29:20Z</time>
      </trkpt>
      <trkpt lat="43.16512" lon="1.03637">
        <ele>397.37991333</ele>
        <time>2021-10-17T09:29:21Z</time>
      </trkpt>
      <trkpt lat="43.1651" lon="1.03644">
        <ele>397.03991699</ele>
        <time>2021-10-17T09:29:22Z</time>
      </trkpt>
      <trkpt lat="43.16506" lon="1.03655">
        <ele>396.75991821</ele>
        <time>2021-10-17T09:29:23Z</time>
      </trkpt>
      <trkpt lat="43.16503" lon="1.03662">
        <ele>396.37991333</ele>
        <time>2021-10-17T09:29:24Z</time>
      </trkpt>
      <trkpt lat="43.16501" lon="1.03669">
        <ele>396.12991333</ele>
        <time>2021-10-17T09:29:25Z</time>
      </trkpt>
      <trkpt lat="43.16498" lon="1.03676">
        <ele>395.87991333</ele>
        <time>2021-10-17T09:29:26Z</time>
      </trkpt>
      <trkpt lat="43.16496" lon="1.03684">
        <ele>395.55990601</ele>
        <time>2021-10-17T09:29:27Z</time>
      </trkpt>
      <trkpt lat="43.16494" lon="1.03689">
        <ele>395.33990479</ele>
        <time>2021-10-17T09:29:28Z</time>
      </trkpt>
      <trkpt lat="43.16493" lon="1.03693">
        <ele>395.16989136</ele>
        <time>2021-10-17T09:29:29Z</time>
      </trkpt>
      <trkpt lat="43.1649" lon="1.03695">
        <ele>394.96987915</ele>
        <time>2021-10-17T09:29:30Z</time>
      </trkpt>
      <trkpt lat="43.16487" lon="1.03695">
        <ele>394.89987183</ele>
        <time>2021-10-17T09:29:31Z</time>
      </trkpt>
      <trkpt lat="43.16482" lon="1.03696">
        <ele>394.92987061</ele>
        <time>2021-10-17T09:29:32Z</time>
      </trkpt>
      <trkpt lat="43.16479" lon="1.03696">
        <ele>394.95986938</ele>
        <time>2021-10-17T09:29:33Z</time>
      </trkpt>
      <trkpt lat="43.16477" lon="1.03694">
        <ele>395.14987183</ele>
        <time>2021-10-17T09:29:34Z</time>
      </trkpt>
      <trkpt lat="43.16475" lon="1.03693">
        <ele>395.36987305</ele>
        <time>2021-10-17T09:29:35Z</time>
      </trkpt>
      <trkpt lat="43.1647" lon="1.03691">
        <ele>395.60986328</ele>
        <time>2021-10-17T09:29:36Z</time>
      </trkpt>
      <trkpt lat="43.16468" lon="1.03689">
        <ele>395.74987793</ele>
        <time>2021-10-17T09:29:37Z</time>
      </trkpt>
      <trkpt lat="43.16465" lon="1.03687">
        <ele>395.83987427</ele>
        <time>2021-10-17T09:29:38Z</time>
      </trkpt>
      <trkpt lat="43.16462" lon="1.03685">
        <ele>395.90988159</ele>
        <time>2021-10-17T09:29:39Z</time>
      </trkpt>
      <trkpt lat="43.16459" lon="1.03684">
        <ele>395.89987183</ele>
        <time>2021-10-17T09:29:40Z</time>
      </trkpt>
      <trkpt lat="43.16455" lon="1.03682">
        <ele>395.95986938</ele>
        <time>2021-10-17T09:29:41Z</time>
      </trkpt>
      <trkpt lat="43.16453" lon="1.0368">
        <ele>396.04986572</ele>
        <time>2021-10-17T09:29:42Z</time>
      </trkpt>
      <trkpt lat="43.16451" lon="1.03679">
        <ele>396.13986206</ele>
        <time>2021-10-17T09:29:43Z</time>
      </trkpt>
      <trkpt lat="43.16448" lon="1.03677">
        <ele>396.25985718</ele>
        <time>2021-10-17T09:29:44Z</time>
      </trkpt>
      <trkpt lat="43.16445" lon="1.03674">
        <ele>396.36984253</ele>
        <time>2021-10-17T09:29:45Z</time>
      </trkpt>
      <trkpt lat="43.16443" lon="1.03673">
        <ele>396.43984985</ele>
        <time>2021-10-17T09:29:46Z</time>
      </trkpt>
      <trkpt lat="43.16441" lon="1.03671">
        <ele>396.4798584</ele>
        <time>2021-10-17T09:29:47Z</time>
      </trkpt>
      <trkpt lat="43.16438" lon="1.03669">
        <ele>396.52984619</ele>
        <time>2021-10-17T09:29:48Z</time>
      </trkpt>
      <trkpt lat="43.16435" lon="1.03667">
        <ele>396.52984619</ele>
        <time>2021-10-17T09:29:49Z</time>
      </trkpt>
      <trkpt lat="43.16431" lon="1.03664">
        <ele>396.52984619</ele>
        <time>2021-10-17T09:29:50Z</time>
      </trkpt>
      <trkpt lat="43.16429" lon="1.03663">
        <ele>396.55984497</ele>
        <time>2021-10-17T09:29:51Z</time>
      </trkpt>
      <trkpt lat="43.16426" lon="1.03661">
        <ele>396.55984497</ele>
        <time>2021-10-17T09:29:52Z</time>
      </trkpt>
      <trkpt lat="43.16424" lon="1.03659">
        <ele>396.57983398</ele>
        <time>2021-10-17T09:29:53Z</time>
      </trkpt>
      <trkpt lat="43.16419" lon="1.03655">
        <ele>396.57983398</ele>
        <time>2021-10-17T09:29:54Z</time>
      </trkpt>
      <trkpt lat="43.16416" lon="1.03653">
        <ele>396.42984009</ele>
        <time>2021-10-17T09:29:55Z</time>
      </trkpt>
      <trkpt lat="43.16413" lon="1.03651">
        <ele>396.23983765</ele>
        <time>2021-10-17T09:29:56Z</time>
      </trkpt>
      <trkpt lat="43.1641" lon="1.03648">
        <ele>395.95983887</ele>
        <time>2021-10-17T09:29:57Z</time>
      </trkpt>
      <trkpt lat="43.16407" lon="1.03646">
        <ele>395.52984619</ele>
        <time>2021-10-17T09:29:58Z</time>
      </trkpt>
      <trkpt lat="43.16401" lon="1.03642">
        <ele>395.08984375</ele>
        <time>2021-10-17T09:29:59Z</time>
      </trkpt>
      <trkpt lat="43.16397" lon="1.03639">
        <ele>394.64984131</ele>
        <time>2021-10-17T09:30:00Z</time>
      </trkpt>
      <trkpt lat="43.16393" lon="1.03635">
        <ele>394.14984131</ele>
        <time>2021-10-17T09:30:01Z</time>
      </trkpt>
      <trkpt lat="43.16388" lon="1.03631">
        <ele>393.75982666</ele>
        <time>2021-10-17T09:30:02Z</time>
      </trkpt>
      <trkpt lat="43.1638" lon="1.03625">
        <ele>393.29983521</ele>
        <time>2021-10-17T09:30:03Z</time>
      </trkpt>
      <trkpt lat="43.16374" lon="1.0362">
        <ele>392.70983887</ele>
        <time>2021-10-17T09:30:04Z</time>
      </trkpt>
      <trkpt lat="43.16368" lon="1.03616">
        <ele>392.18984985</ele>
        <time>2021-10-17T09:30:05Z</time>
      </trkpt>
      <trkpt lat="43.16362" lon="1.03611">
        <ele>391.53985596</ele>
        <time>2021-10-17T09:30:06Z</time>
      </trkpt>
      <trkpt lat="43.16356" lon="1.03606">
        <ele>390.92987061</ele>
        <time>2021-10-17T09:30:07Z</time>
      </trkpt>
      <trkpt lat="43.16346" lon="1.03598">
        <ele>390.17987061</ele>
        <time>2021-10-17T09:30:08Z</time>
      </trkpt>
      <trkpt lat="43.16339" lon="1.03592">
        <ele>389.35986328</ele>
        <time>2021-10-17T09:30:09Z</time>
      </trkpt>
      <trkpt lat="43.16332" lon="1.03587">
        <ele>388.52987671</ele>
        <time>2021-10-17T09:30:10Z</time>
      </trkpt>
      <trkpt lat="43.16325" lon="1.0358">
        <ele>387.66989136</ele>
        <time>2021-10-17T09:30:11Z</time>
      </trkpt>
      <trkpt lat="43.16314" lon="1.03569">
        <ele>386.88989258</ele>
        <time>2021-10-17T09:30:12Z</time>
      </trkpt>
      <trkpt lat="43.16308" lon="1.03561">
        <ele>385.04989624</ele>
        <time>2021-10-17T09:30:13Z</time>
      </trkpt>
      <trkpt lat="43.16301" lon="1.03553">
        <ele>385.04989624</ele>
        <time>2021-10-17T09:30:14Z</time>
      </trkpt>
      <trkpt lat="43.16294" lon="1.03544">
        <ele>384.16989136</ele>
        <time>2021-10-17T09:30:15Z</time>
      </trkpt>
      <trkpt lat="43.16287" lon="1.03534">
        <ele>383.31988525</ele>
        <time>2021-10-17T09:30:16Z</time>
      </trkpt>
      <trkpt lat="43.16277" lon="1.03521">
        <ele>382.62988281</ele>
        <time>2021-10-17T09:30:17Z</time>
      </trkpt>
      <trkpt lat="43.16271" lon="1.03512">
        <ele>382.06988525</ele>
        <time>2021-10-17T09:30:18Z</time>
      </trkpt>
      <trkpt lat="43.16265" lon="1.03503">
        <ele>381.57989502</ele>
        <time>2021-10-17T09:30:19Z</time>
      </trkpt>
      <trkpt lat="43.16259" lon="1.03494">
        <ele>381.32989502</ele>
        <time>2021-10-17T09:30:20Z</time>
      </trkpt>
      <trkpt lat="43.16251" lon="1.0348">
        <ele>381.12988281</ele>
        <time>2021-10-17T09:30:21Z</time>
      </trkpt>
      <trkpt lat="43.16246" lon="1.0347">
        <ele>381.14987183</ele>
        <time>2021-10-17T09:30:22Z</time>
      </trkpt>
      <trkpt lat="43.16242" lon="1.0346">
        <ele>381.2298584</ele>
        <time>2021-10-17T09:30:23Z</time>
      </trkpt>
      <trkpt lat="43.16239" lon="1.0345">
        <ele>381.3298645</ele>
        <time>2021-10-17T09:30:24Z</time>
      </trkpt>
      <trkpt lat="43.16235" lon="1.03441">
        <ele>381.56985474</ele>
        <time>2021-10-17T09:30:25Z</time>
      </trkpt>
      <trkpt lat="43.16232" lon="1.03428">
        <ele>381.79986572</ele>
        <time>2021-10-17T09:30:26Z</time>
      </trkpt>
      <trkpt lat="43.1623" lon="1.0342">
        <ele>382.20986938</ele>
        <time>2021-10-17T09:30:27Z</time>
      </trkpt>
      <trkpt lat="43.16228" lon="1.03413">
        <ele>382.68988037</ele>
        <time>2021-10-17T09:30:28Z</time>
      </trkpt>
      <trkpt lat="43.16226" lon="1.03405">
        <ele>383.26986694</ele>
        <time>2021-10-17T09:30:29Z</time>
      </trkpt>
      <trkpt lat="43.16224" lon="1.03399">
        <ele>383.76986694</ele>
        <time>2021-10-17T09:30:30Z</time>
      </trkpt>
      <trkpt lat="43.16222" lon="1.0339">
        <ele>384.13986206</ele>
        <time>2021-10-17T09:30:31Z</time>
      </trkpt>
      <trkpt lat="43.1622" lon="1.03384">
        <ele>384.48986816</ele>
        <time>2021-10-17T09:30:32Z</time>
      </trkpt>
      <trkpt lat="43.16219" lon="1.03379">
        <ele>384.71987915</ele>
        <time>2021-10-17T09:30:33Z</time>
      </trkpt>
      <trkpt lat="43.16217" lon="1.03374">
        <ele>385.01986694</ele>
        <time>2021-10-17T09:30:34Z</time>
      </trkpt>
      <trkpt lat="43.16216" lon="1.03367">
        <ele>385.30987549</ele>
        <time>2021-10-17T09:30:35Z</time>
      </trkpt>
      <trkpt lat="43.16215" lon="1.03363">
        <ele>385.59988403</ele>
        <time>2021-10-17T09:30:36Z</time>
      </trkpt>
      <trkpt lat="43.16214" lon="1.03359">
        <ele>385.89987183</ele>
        <time>2021-10-17T09:30:37Z</time>
      </trkpt>
      <trkpt lat="43.16213" lon="1.03355">
        <ele>386.18988037</ele>
        <time>2021-10-17T09:30:38Z</time>
      </trkpt>
      <trkpt lat="43.16212" lon="1.03352">
        <ele>386.42987061</ele>
        <time>2021-10-17T09:30:39Z</time>
      </trkpt>
      <trkpt lat="43.1621" lon="1.03346">
        <ele>386.67987061</ele>
        <time>2021-10-17T09:30:40Z</time>
      </trkpt>
      <trkpt lat="43.16209" lon="1.03342">
        <ele>386.95986938</ele>
        <time>2021-10-17T09:30:41Z</time>
      </trkpt>
      <trkpt lat="43.16208" lon="1.03338">
        <ele>387.20986938</ele>
        <time>2021-10-17T09:30:42Z</time>
      </trkpt>
      <trkpt lat="43.16207" lon="1.03334">
        <ele>387.44985962</ele>
        <time>2021-10-17T09:30:43Z</time>
      </trkpt>
      <trkpt lat="43.16205" lon="1.03329">
        <ele>387.58987427</ele>
        <time>2021-10-17T09:30:44Z</time>
      </trkpt>
      <trkpt lat="43.16204" lon="1.03325">
        <ele>387.68988037</ele>
        <time>2021-10-17T09:30:45Z</time>
      </trkpt>
      <trkpt lat="43.16203" lon="1.03322">
        <ele>387.89987183</ele>
        <time>2021-10-17T09:30:46Z</time>
      </trkpt>
      <trkpt lat="43.16202" lon="1.03319">
        <ele>388.11987305</ele>
        <time>2021-10-17T09:30:47Z</time>
      </trkpt>
      <trkpt lat="43.16201" lon="1.03315">
        <ele>388.46987915</ele>
        <time>2021-10-17T09:30:48Z</time>
      </trkpt>
      <trkpt lat="43.162" lon="1.0331">
        <ele>388.81988525</ele>
        <time>2021-10-17T09:30:49Z</time>
      </trkpt>
      <trkpt lat="43.16199" lon="1.03306">
        <ele>389.11987305</ele>
        <time>2021-10-17T09:30:50Z</time>
      </trkpt>
      <trkpt lat="43.16199" lon="1.03303">
        <ele>389.40988159</ele>
        <time>2021-10-17T09:30:51Z</time>
      </trkpt>
      <trkpt lat="43.16197" lon="1.033">
        <ele>389.61987305</ele>
        <time>2021-10-17T09:30:52Z</time>
      </trkpt>
      <trkpt lat="43.16196" lon="1.03294">
        <ele>389.78988647</ele>
        <time>2021-10-17T09:30:53Z</time>
      </trkpt>
      <trkpt lat="43.16195" lon="1.03291">
        <ele>389.91989136</ele>
        <time>2021-10-17T09:30:54Z</time>
      </trkpt>
      <trkpt lat="43.16195" lon="1.03287">
        <ele>390.05990601</ele>
        <time>2021-10-17T09:30:55Z</time>
      </trkpt>
      <trkpt lat="43.16194" lon="1.03284">
        <ele>390.25991821</ele>
        <time>2021-10-17T09:30:56Z</time>
      </trkpt>
      <trkpt lat="43.16193" lon="1.03281">
        <ele>390.45993042</ele>
        <time>2021-10-17T09:30:57Z</time>
      </trkpt>
      <trkpt lat="43.16192" lon="1.03275">
        <ele>390.67993164</ele>
        <time>2021-10-17T09:30:58Z</time>
      </trkpt>
      <trkpt lat="43.16191" lon="1.03272">
        <ele>390.86993408</ele>
        <time>2021-10-17T09:30:59Z</time>
      </trkpt>
      <trkpt lat="43.1619" lon="1.03269">
        <ele>391.03994751</ele>
        <time>2021-10-17T09:31:00Z</time>
      </trkpt>
      <trkpt lat="43.16189" lon="1.03266">
        <ele>391.16995239</ele>
        <time>2021-10-17T09:31:01Z</time>
      </trkpt>
      <trkpt lat="43.16187" lon="1.03261">
        <ele>391.32995605</ele>
        <time>2021-10-17T09:31:02Z</time>
      </trkpt>
      <trkpt lat="43.16186" lon="1.03257">
        <ele>391.5199585</ele>
        <time>2021-10-17T09:31:03Z</time>
      </trkpt>
      <trkpt lat="43.16185" lon="1.03254">
        <ele>391.66995239</ele>
        <time>2021-10-17T09:31:04Z</time>
      </trkpt>
      <trkpt lat="43.16184" lon="1.0325">
        <ele>391.85995483</ele>
        <time>2021-10-17T09:31:05Z</time>
      </trkpt>
      <trkpt lat="43.16182" lon="1.03245">
        <ele>392.02996826</ele>
        <time>2021-10-17T09:31:06Z</time>
      </trkpt>
      <trkpt lat="43.16181" lon="1.03242">
        <ele>392.25997925</ele>
        <time>2021-10-17T09:31:07Z</time>
      </trkpt>
      <trkpt lat="43.16181" lon="1.03239">
        <ele>392.52996826</ele>
        <time>2021-10-17T09:31:08Z</time>
      </trkpt>
      <trkpt lat="43.1618" lon="1.03236">
        <ele>392.81997681</ele>
        <time>2021-10-17T09:31:09Z</time>
      </trkpt>
      <trkpt lat="43.16179" lon="1.03233">
        <ele>393.03997803</ele>
        <time>2021-10-17T09:31:10Z</time>
      </trkpt>
      <trkpt lat="43.16178" lon="1.03228">
        <ele>393.20999146</ele>
        <time>2021-10-17T09:31:11Z</time>
      </trkpt>
      <trkpt lat="43.16177" lon="1.03225">
        <ele>393.3999939</ele>
        <time>2021-10-17T09:31:12Z</time>
      </trkpt>
      <trkpt lat="43.16176" lon="1.03221">
        <ele>393.6000061</ele>
        <time>2021-10-17T09:31:13Z</time>
      </trkpt>
      <trkpt lat="43.16176" lon="1.03217">
        <ele>393.82000732</ele>
        <time>2021-10-17T09:31:14Z</time>
      </trkpt>
      <trkpt lat="43.16175" lon="1.03213">
        <ele>394.08001709</ele>
        <time>2021-10-17T09:31:15Z</time>
      </trkpt>
      <trkpt lat="43.16174" lon="1.03208">
        <ele>394.3500061</ele>
        <time>2021-10-17T09:31:16Z</time>
      </trkpt>
      <trkpt lat="43.16174" lon="1.03204">
        <ele>394.63000488</ele>
        <time>2021-10-17T09:31:17Z</time>
      </trkpt>
      <trkpt lat="43.16174" lon="1.03201">
        <ele>394.91000366</ele>
        <time>2021-10-17T09:31:18Z</time>
      </trkpt>
      <trkpt lat="43.16174" lon="1.03197">
        <ele>395.20001221</ele>
        <time>2021-10-17T09:31:19Z</time>
      </trkpt>
      <trkpt lat="43.16174" lon="1.03193">
        <ele>395.47000122</ele>
        <time>2021-10-17T09:31:20Z</time>
      </trkpt>
      <trkpt lat="43.16173" lon="1.03188">
        <ele>394.51998901</ele>
        <time>2021-10-17T09:31:21Z</time>
      </trkpt>
      <trkpt lat="43.16173" lon="1.03184">
        <ele>394.76998901</ele>
        <time>2021-10-17T09:31:22Z</time>
      </trkpt>
      <trkpt lat="43.16173" lon="1.0318">
        <ele>394.94998169</ele>
        <time>2021-10-17T09:31:23Z</time>
      </trkpt>
      <trkpt lat="43.16174" lon="1.03175">
        <ele>395.10998535</ele>
        <time>2021-10-17T09:31:24Z</time>
      </trkpt>
      <trkpt lat="43.16174" lon="1.03172">
        <ele>395.47998047</ele>
        <time>2021-10-17T09:31:25Z</time>
      </trkpt>
      <trkpt lat="43.16174" lon="1.03169">
        <ele>395.47998047</ele>
        <time>2021-10-17T09:31:26Z</time>
      </trkpt>
      <trkpt lat="43.16174" lon="1.03165">
        <ele>395.68997192</ele>
        <time>2021-10-17T09:31:27Z</time>
      </trkpt>
      <trkpt lat="43.16174" lon="1.03162">
        <ele>395.91998291</ele>
        <time>2021-10-17T09:31:28Z</time>
      </trkpt>
      <trkpt lat="43.16174" lon="1.03158">
        <ele>396.1499939</ele>
        <time>2021-10-17T09:31:29Z</time>
      </trkpt>
      <trkpt lat="43.16174" lon="1.03154">
        <ele>396.36999512</ele>
        <time>2021-10-17T09:31:30Z</time>
      </trkpt>
      <trkpt lat="43.16174" lon="1.03152">
        <ele>396.54000854</ele>
        <time>2021-10-17T09:31:31Z</time>
      </trkpt>
      <trkpt lat="43.16175" lon="1.03149">
        <ele>396.68002319</ele>
        <time>2021-10-17T09:31:32Z</time>
      </trkpt>
      <trkpt lat="43.16175" lon="1.03144">
        <ele>396.84002686</ele>
        <time>2021-10-17T09:31:33Z</time>
      </trkpt>
      <trkpt lat="43.16175" lon="1.03141">
        <ele>397.04003906</ele>
        <time>2021-10-17T09:31:34Z</time>
      </trkpt>
      <trkpt lat="43.16175" lon="1.03138">
        <ele>397.25003052</ele>
        <time>2021-10-17T09:31:35Z</time>
      </trkpt>
      <trkpt lat="43.16175" lon="1.03135">
        <ele>397.4800415</ele>
        <time>2021-10-17T09:31:36Z</time>
      </trkpt>
      <trkpt lat="43.16176" lon="1.03132">
        <ele>397.65005493</ele>
        <time>2021-10-17T09:31:37Z</time>
      </trkpt>
      <trkpt lat="43.16176" lon="1.03128">
        <ele>397.83004761</ele>
        <time>2021-10-17T09:31:38Z</time>
      </trkpt>
      <trkpt lat="43.16176" lon="1.03125">
        <ele>398.04003906</ele>
        <time>2021-10-17T09:31:39Z</time>
      </trkpt>
      <trkpt lat="43.16176" lon="1.03122">
        <ele>398.26004028</ele>
        <time>2021-10-17T09:31:40Z</time>
      </trkpt>
      <trkpt lat="43.16176" lon="1.0312">
        <ele>398.50003052</ele>
        <time>2021-10-17T09:31:41Z</time>
      </trkpt>
      <trkpt lat="43.16176" lon="1.03115">
        <ele>398.74002075</ele>
        <time>2021-10-17T09:31:42Z</time>
      </trkpt>
      <trkpt lat="43.16177" lon="1.03112">
        <ele>399.06002808</ele>
        <time>2021-10-17T09:31:43Z</time>
      </trkpt>
      <trkpt lat="43.16177" lon="1.03109">
        <ele>399.41003418</ele>
        <time>2021-10-17T09:31:44Z</time>
      </trkpt>
      <trkpt lat="43.16177" lon="1.03106">
        <ele>399.84002686</ele>
        <time>2021-10-17T09:31:45Z</time>
      </trkpt>
      <trkpt lat="43.16177" lon="1.03103">
        <ele>400.30001831</ele>
        <time>2021-10-17T09:31:46Z</time>
      </trkpt>
      <trkpt lat="43.16177" lon="1.03099">
        <ele>400.67001343</ele>
        <time>2021-10-17T09:31:47Z</time>
      </trkpt>
      <trkpt lat="43.16177" lon="1.03096">
        <ele>401.02999878</ele>
        <time>2021-10-17T09:31:48Z</time>
      </trkpt>
      <trkpt lat="43.16177" lon="1.03093">
        <ele>401.29998779</ele>
        <time>2021-10-17T09:31:49Z</time>
      </trkpt>
      <trkpt lat="43.16176" lon="1.0309">
        <ele>401.57998657</ele>
        <time>2021-10-17T09:31:50Z</time>
      </trkpt>
      <trkpt lat="43.16176" lon="1.03087">
        <ele>401.83999634</ele>
        <time>2021-10-17T09:31:51Z</time>
      </trkpt>
      <trkpt lat="43.16176" lon="1.03083">
        <ele>402.07000732</ele>
        <time>2021-10-17T09:31:52Z</time>
      </trkpt>
      <trkpt lat="43.16176" lon="1.0308">
        <ele>402.25</ele>
        <time>2021-10-17T09:31:53Z</time>
      </trkpt>
      <trkpt lat="43.16176" lon="1.03078">
        <ele>402.42001343</ele>
        <time>2021-10-17T09:31:54Z</time>
      </trkpt>
      <trkpt lat="43.16176" lon="1.03075">
        <ele>402.65002441</ele>
        <time>2021-10-17T09:31:55Z</time>
      </trkpt>
      <trkpt lat="43.16176" lon="1.03072">
        <ele>402.87002563</ele>
        <time>2021-10-17T09:31:56Z</time>
      </trkpt>
      <trkpt lat="43.16176" lon="1.03069">
        <ele>403.17001343</ele>
        <time>2021-10-17T09:31:57Z</time>
      </trkpt>
      <trkpt lat="43.16176" lon="1.03066">
        <ele>403.43002319</ele>
        <time>2021-10-17T09:31:58Z</time>
      </trkpt>
      <trkpt lat="43.16176" lon="1.03064">
        <ele>403.73001099</ele>
        <time>2021-10-17T09:31:59Z</time>
      </trkpt>
      <trkpt lat="43.16175" lon="1.03059">
        <ele>404.04000854</ele>
        <time>2021-10-17T09:32:00Z</time>
      </trkpt>
      <trkpt lat="43.16175" lon="1.03056">
        <ele>404.33001709</ele>
        <time>2021-10-17T09:32:01Z</time>
      </trkpt>
      <trkpt lat="43.16175" lon="1.03053">
        <ele>404.62002563</ele>
        <time>2021-10-17T09:32:02Z</time>
      </trkpt>
      <trkpt lat="43.16174" lon="1.03051">
        <ele>404.82003784</ele>
        <time>2021-10-17T09:32:03Z</time>
      </trkpt>
      <trkpt lat="43.16174" lon="1.03048">
        <ele>405.02005005</ele>
        <time>2021-10-17T09:32:04Z</time>
      </trkpt>
      <trkpt lat="43.16174" lon="1.03044">
        <ele>405.34005737</ele>
        <time>2021-10-17T09:32:05Z</time>
      </trkpt>
      <trkpt lat="43.16174" lon="1.03041">
        <ele>405.34005737</ele>
        <time>2021-10-17T09:32:06Z</time>
      </trkpt>
      <trkpt lat="43.16172" lon="1.03041">
        <ele>405.58999634</ele>
        <time>2021-10-17T09:32:06Z</time>
      </trkpt>
      <trkpt lat="43.16172" lon="1.03038">
        <ele>405.79998779</ele>
        <time>2021-10-17T09:32:07Z</time>
      </trkpt>
      <trkpt lat="43.16172" lon="1.03034">
        <ele>406.26998901</ele>
        <time>2021-10-17T09:32:08Z</time>
      </trkpt>
      <trkpt lat="43.16172" lon="1.03031">
        <ele>406.26998901</ele>
        <time>2021-10-17T09:32:09Z</time>
      </trkpt>
      <trkpt lat="43.16171" lon="1.03029">
        <ele>406.47998047</ele>
        <time>2021-10-17T09:32:10Z</time>
      </trkpt>
      <trkpt lat="43.16171" lon="1.03026">
        <ele>406.70999146</ele>
        <time>2021-10-17T09:32:11Z</time>
      </trkpt>
      <trkpt lat="43.16171" lon="1.03024">
        <ele>406.85998535</ele>
        <time>2021-10-17T09:32:12Z</time>
      </trkpt>
      <trkpt lat="43.16171" lon="1.03021">
        <ele>407.07998657</ele>
        <time>2021-10-17T09:32:13Z</time>
      </trkpt>
      <trkpt lat="43.16171" lon="1.03017">
        <ele>407.29998779</ele>
        <time>2021-10-17T09:32:14Z</time>
      </trkpt>
      <trkpt lat="43.16171" lon="1.03015">
        <ele>407.47998047</ele>
        <time>2021-10-17T09:32:15Z</time>
      </trkpt>
      <trkpt lat="43.1617" lon="1.03012">
        <ele>407.68997192</ele>
        <time>2021-10-17T09:32:16Z</time>
      </trkpt>
      <trkpt lat="43.1617" lon="1.03009">
        <ele>407.87997437</ele>
        <time>2021-10-17T09:32:17Z</time>
      </trkpt>
      <trkpt lat="43.1617" lon="1.03005">
        <ele>408.05996704</ele>
        <time>2021-10-17T09:32:18Z</time>
      </trkpt>
      <trkpt lat="43.1617" lon="1.03003">
        <ele>408.17996216</ele>
        <time>2021-10-17T09:32:19Z</time>
      </trkpt>
      <trkpt lat="43.1617" lon="1.03">
        <ele>408.31997681</ele>
        <time>2021-10-17T09:32:20Z</time>
      </trkpt>
      <trkpt lat="43.1617" lon="1.02997">
        <ele>408.6199646</ele>
        <time>2021-10-17T09:32:21Z</time>
      </trkpt>
      <trkpt lat="43.1617" lon="1.02994">
        <ele>408.74996948</ele>
        <time>2021-10-17T09:32:22Z</time>
      </trkpt>
      <trkpt lat="43.16169" lon="1.0299">
        <ele>408.94998169</ele>
        <time>2021-10-17T09:32:23Z</time>
      </trkpt>
      <trkpt lat="43.16168" lon="1.02988">
        <ele>409.1499939</ele>
        <time>2021-10-17T09:32:24Z</time>
      </trkpt>
      <trkpt lat="43.16168" lon="1.02986">
        <ele>409.32998657</ele>
        <time>2021-10-17T09:32:25Z</time>
      </trkpt>
      <trkpt lat="43.16167" lon="1.02983">
        <ele>409.48999023</ele>
        <time>2021-10-17T09:32:26Z</time>
      </trkpt>
      <trkpt lat="43.16168" lon="1.02979">
        <ele>409.66998291</ele>
        <time>2021-10-17T09:32:27Z</time>
      </trkpt>
      <trkpt lat="43.16168" lon="1.02976">
        <ele>409.86999512</ele>
        <time>2021-10-17T09:32:28Z</time>
      </trkpt>
      <trkpt lat="43.16168" lon="1.02973">
        <ele>410.07000732</ele>
        <time>2021-10-17T09:32:29Z</time>
      </trkpt>
      <trkpt lat="43.16168" lon="1.0297">
        <ele>410.27999878</ele>
        <time>2021-10-17T09:32:30Z</time>
      </trkpt>
      <trkpt lat="43.16167" lon="1.02967">
        <ele>410.45999146</ele>
        <time>2021-10-17T09:32:31Z</time>
      </trkpt>
      <trkpt lat="43.16168" lon="1.02964">
        <ele>410.61999512</ele>
        <time>2021-10-17T09:32:32Z</time>
      </trkpt>
      <trkpt lat="43.16168" lon="1.02962">
        <ele>410.88998413</ele>
        <time>2021-10-17T09:32:33Z</time>
      </trkpt>
      <trkpt lat="43.16168" lon="1.02958">
        <ele>411.16998291</ele>
        <time>2021-10-17T09:32:34Z</time>
      </trkpt>
      <trkpt lat="43.16169" lon="1.02957">
        <ele>411.4699707</ele>
        <time>2021-10-17T09:32:35Z</time>
      </trkpt>
      <trkpt lat="43.16169" lon="1.02953">
        <ele>411.7699585</ele>
        <time>2021-10-17T09:32:36Z</time>
      </trkpt>
      <trkpt lat="43.16169" lon="1.0295">
        <ele>411.94995117</ele>
        <time>2021-10-17T09:32:37Z</time>
      </trkpt>
      <trkpt lat="43.16169" lon="1.02948">
        <ele>412.13995361</ele>
        <time>2021-10-17T09:32:38Z</time>
      </trkpt>
      <trkpt lat="43.1617" lon="1.02945">
        <ele>412.29995728</ele>
        <time>2021-10-17T09:32:39Z</time>
      </trkpt>
      <trkpt lat="43.16171" lon="1.02943">
        <ele>412.44995117</ele>
        <time>2021-10-17T09:32:40Z</time>
      </trkpt>
      <trkpt lat="43.16172" lon="1.02938">
        <ele>412.64996338</ele>
        <time>2021-10-17T09:32:41Z</time>
      </trkpt>
      <trkpt lat="43.16172" lon="1.02935">
        <ele>412.87997437</ele>
        <time>2021-10-17T09:32:42Z</time>
      </trkpt>
      <trkpt lat="43.16172" lon="1.02931">
        <ele>413.14996338</ele>
        <time>2021-10-17T09:32:43Z</time>
      </trkpt>
      <trkpt lat="43.16173" lon="1.02928">
        <ele>413.41995239</ele>
        <time>2021-10-17T09:32:44Z</time>
      </trkpt>
      <trkpt lat="43.16173" lon="1.02922">
        <ele>413.68994141</ele>
        <time>2021-10-17T09:32:45Z</time>
      </trkpt>
      <trkpt lat="43.16173" lon="1.02918">
        <ele>413.95993042</ele>
        <time>2021-10-17T09:32:46Z</time>
      </trkpt>
      <trkpt lat="43.16174" lon="1.02915">
        <ele>414.24993896</ele>
        <time>2021-10-17T09:32:47Z</time>
      </trkpt>
      <trkpt lat="43.16175" lon="1.02912">
        <ele>414.56994629</ele>
        <time>2021-10-17T09:32:48Z</time>
      </trkpt>
      <trkpt lat="43.16176" lon="1.02909">
        <ele>414.88995361</ele>
        <time>2021-10-17T09:32:49Z</time>
      </trkpt>
      <trkpt lat="43.16177" lon="1.02906">
        <ele>415.20996094</ele>
        <time>2021-10-17T09:32:50Z</time>
      </trkpt>
      <trkpt lat="43.16177" lon="1.02902">
        <ele>415.5199585</ele>
        <time>2021-10-17T09:32:51Z</time>
      </trkpt>
      <trkpt lat="43.16178" lon="1.029">
        <ele>415.87994385</ele>
        <time>2021-10-17T09:32:52Z</time>
      </trkpt>
      <trkpt lat="43.16179" lon="1.02898">
        <ele>416.21994019</ele>
        <time>2021-10-17T09:32:53Z</time>
      </trkpt>
      <trkpt lat="43.1618" lon="1.02895">
        <ele>416.55993652</ele>
        <time>2021-10-17T09:32:54Z</time>
      </trkpt>
      <trkpt lat="43.16181" lon="1.02892">
        <ele>416.86993408</ele>
        <time>2021-10-17T09:32:55Z</time>
      </trkpt>
      <trkpt lat="43.16182" lon="1.02889">
        <ele>417.12994385</ele>
        <time>2021-10-17T09:32:56Z</time>
      </trkpt>
      <trkpt lat="43.16182" lon="1.02886">
        <ele>417.39993286</ele>
        <time>2021-10-17T09:32:57Z</time>
      </trkpt>
      <trkpt lat="43.16183" lon="1.02883">
        <ele>417.62994385</ele>
        <time>2021-10-17T09:32:58Z</time>
      </trkpt>
      <trkpt lat="43.16184" lon="1.02881">
        <ele>417.86993408</ele>
        <time>2021-10-17T09:32:59Z</time>
      </trkpt>
      <trkpt lat="43.16185" lon="1.02877">
        <ele>418.09994507</ele>
        <time>2021-10-17T09:33:00Z</time>
      </trkpt>
      <trkpt lat="43.16186" lon="1.02875">
        <ele>418.32995605</ele>
        <time>2021-10-17T09:33:01Z</time>
      </trkpt>
      <trkpt lat="43.16186" lon="1.02872">
        <ele>418.54995728</ele>
        <time>2021-10-17T09:33:02Z</time>
      </trkpt>
      <trkpt lat="43.16188" lon="1.02869">
        <ele>418.75994873</ele>
        <time>2021-10-17T09:33:03Z</time>
      </trkpt>
      <trkpt lat="43.16189" lon="1.02866">
        <ele>418.93994141</ele>
        <time>2021-10-17T09:33:04Z</time>
      </trkpt>
      <trkpt lat="43.1619" lon="1.02863">
        <ele>419.11993408</ele>
        <time>2021-10-17T09:33:05Z</time>
      </trkpt>
      <trkpt lat="43.16191" lon="1.02861">
        <ele>419.29992676</ele>
        <time>2021-10-17T09:33:06Z</time>
      </trkpt>
      <trkpt lat="43.16192" lon="1.02856">
        <ele>419.46994019</ele>
        <time>2021-10-17T09:33:07Z</time>
      </trkpt>
      <trkpt lat="43.16193" lon="1.02854">
        <ele>419.64993286</ele>
        <time>2021-10-17T09:33:08Z</time>
      </trkpt>
      <trkpt lat="43.16194" lon="1.02852">
        <ele>419.84994507</ele>
        <time>2021-10-17T09:33:09Z</time>
      </trkpt>
      <trkpt lat="43.16195" lon="1.0285">
        <ele>420.07995605</ele>
        <time>2021-10-17T09:33:10Z</time>
      </trkpt>
      <trkpt lat="43.16196" lon="1.02847">
        <ele>420.34994507</ele>
        <time>2021-10-17T09:33:11Z</time>
      </trkpt>
      <trkpt lat="43.16197" lon="1.02845">
        <ele>420.62994385</ele>
        <time>2021-10-17T09:33:12Z</time>
      </trkpt>
      <trkpt lat="43.16198" lon="1.02843">
        <ele>420.89993286</ele>
        <time>2021-10-17T09:33:13Z</time>
      </trkpt>
      <trkpt lat="43.162" lon="1.02841">
        <ele>421.16992188</ele>
        <time>2021-10-17T09:33:14Z</time>
      </trkpt>
      <trkpt lat="43.16201" lon="1.02839">
        <ele>421.39993286</ele>
        <time>2021-10-17T09:33:15Z</time>
      </trkpt>
      <trkpt lat="43.16202" lon="1.02836">
        <ele>421.59994507</ele>
        <time>2021-10-17T09:33:16Z</time>
      </trkpt>
      <trkpt lat="43.16203" lon="1.02833">
        <ele>421.80993652</ele>
        <time>2021-10-17T09:33:17Z</time>
      </trkpt>
      <trkpt lat="43.16204" lon="1.02831">
        <ele>422.02993774</ele>
        <time>2021-10-17T09:33:18Z</time>
      </trkpt>
      <trkpt lat="43.16205" lon="1.02828">
        <ele>422.27993774</ele>
        <time>2021-10-17T09:33:19Z</time>
      </trkpt>
      <trkpt lat="43.16206" lon="1.02825">
        <ele>422.54992676</ele>
        <time>2021-10-17T09:33:20Z</time>
      </trkpt>
      <trkpt lat="43.16207" lon="1.02823">
        <ele>422.79992676</ele>
        <time>2021-10-17T09:33:21Z</time>
      </trkpt>
      <trkpt lat="43.16208" lon="1.0282">
        <ele>423.01992798</ele>
        <time>2021-10-17T09:33:22Z</time>
      </trkpt>
      <trkpt lat="43.16209" lon="1.02818">
        <ele>423.25991821</ele>
        <time>2021-10-17T09:33:23Z</time>
      </trkpt>
      <trkpt lat="43.1621" lon="1.02815">
        <ele>423.45993042</ele>
        <time>2021-10-17T09:33:24Z</time>
      </trkpt>
      <trkpt lat="43.1621" lon="1.02813">
        <ele>423.66992188</ele>
        <time>2021-10-17T09:33:25Z</time>
      </trkpt>
      <trkpt lat="43.16211" lon="1.02809">
        <ele>423.89993286</ele>
        <time>2021-10-17T09:33:26Z</time>
      </trkpt>
      <trkpt lat="43.16211" lon="1.02807">
        <ele>424.14993286</ele>
        <time>2021-10-17T09:33:27Z</time>
      </trkpt>
      <trkpt lat="43.16213" lon="1.02804">
        <ele>424.42993164</ele>
        <time>2021-10-17T09:33:28Z</time>
      </trkpt>
      <trkpt lat="43.16214" lon="1.02802">
        <ele>424.7399292</ele>
        <time>2021-10-17T09:33:29Z</time>
      </trkpt>
      <trkpt lat="43.16215" lon="1.02798">
        <ele>424.95993042</ele>
        <time>2021-10-17T09:33:30Z</time>
      </trkpt>
      <trkpt lat="43.16216" lon="1.02795">
        <ele>425.16992188</ele>
        <time>2021-10-17T09:33:31Z</time>
      </trkpt>
      <trkpt lat="43.16217" lon="1.02791">
        <ele>425.37991333</ele>
        <time>2021-10-17T09:33:32Z</time>
      </trkpt>
      <trkpt lat="43.16218" lon="1.02789">
        <ele>425.52990723</ele>
        <time>2021-10-17T09:33:33Z</time>
      </trkpt>
      <trkpt lat="43.16218" lon="1.02787">
        <ele>425.75991821</ele>
        <time>2021-10-17T09:33:34Z</time>
      </trkpt>
      <trkpt lat="43.16219" lon="1.02782">
        <ele>425.9899292</ele>
        <time>2021-10-17T09:33:35Z</time>
      </trkpt>
      <trkpt lat="43.16219" lon="1.02779">
        <ele>426.19992065</ele>
        <time>2021-10-17T09:33:36Z</time>
      </trkpt>
      <trkpt lat="43.1622" lon="1.02777">
        <ele>426.45993042</ele>
        <time>2021-10-17T09:33:37Z</time>
      </trkpt>
      <trkpt lat="43.16221" lon="1.02775">
        <ele>426.66992188</ele>
        <time>2021-10-17T09:33:38Z</time>
      </trkpt>
      <trkpt lat="43.16222" lon="1.02771">
        <ele>426.86993408</ele>
        <time>2021-10-17T09:33:39Z</time>
      </trkpt>
      <trkpt lat="43.16223" lon="1.02768">
        <ele>427.10992432</ele>
        <time>2021-10-17T09:33:40Z</time>
      </trkpt>
      <trkpt lat="43.16223" lon="1.02765">
        <ele>427.36993408</ele>
        <time>2021-10-17T09:33:41Z</time>
      </trkpt>
      <trkpt lat="43.16224" lon="1.02763">
        <ele>427.67993164</ele>
        <time>2021-10-17T09:33:42Z</time>
      </trkpt>
      <trkpt lat="43.16224" lon="1.02759">
        <ele>427.96994019</ele>
        <time>2021-10-17T09:33:43Z</time>
      </trkpt>
      <trkpt lat="43.16225" lon="1.02756">
        <ele>428.20993042</ele>
        <time>2021-10-17T09:33:44Z</time>
      </trkpt>
      <trkpt lat="43.16225" lon="1.02753">
        <ele>428.39993286</ele>
        <time>2021-10-17T09:33:45Z</time>
      </trkpt>
      <trkpt lat="43.16227" lon="1.02751">
        <ele>428.59994507</ele>
        <time>2021-10-17T09:33:46Z</time>
      </trkpt>
      <trkpt lat="43.16228" lon="1.02748">
        <ele>428.80993652</ele>
        <time>2021-10-17T09:33:47Z</time>
      </trkpt>
      <trkpt lat="43.16229" lon="1.02744">
        <ele>429.04992676</ele>
        <time>2021-10-17T09:33:48Z</time>
      </trkpt>
      <trkpt lat="43.1623" lon="1.02741">
        <ele>429.28991699</ele>
        <time>2021-10-17T09:33:49Z</time>
      </trkpt>
      <trkpt lat="43.1623" lon="1.02738">
        <ele>429.51992798</ele>
        <time>2021-10-17T09:33:50Z</time>
      </trkpt>
      <trkpt lat="43.16232" lon="1.02736">
        <ele>429.74993896</ele>
        <time>2021-10-17T09:33:51Z</time>
      </trkpt>
      <trkpt lat="43.16233" lon="1.02733">
        <ele>429.96994019</ele>
        <time>2021-10-17T09:33:52Z</time>
      </trkpt>
      <trkpt lat="43.16235" lon="1.0273">
        <ele>430.19995117</ele>
        <time>2021-10-17T09:33:53Z</time>
      </trkpt>
      <trkpt lat="43.16236" lon="1.02726">
        <ele>430.39996338</ele>
        <time>2021-10-17T09:33:54Z</time>
      </trkpt>
      <trkpt lat="43.16237" lon="1.02723">
        <ele>430.62997437</ele>
        <time>2021-10-17T09:33:55Z</time>
      </trkpt>
      <trkpt lat="43.16238" lon="1.02721">
        <ele>430.85998535</ele>
        <time>2021-10-17T09:33:56Z</time>
      </trkpt>
      <trkpt lat="43.16238" lon="1.02717">
        <ele>431.10998535</ele>
        <time>2021-10-17T09:33:57Z</time>
      </trkpt>
      <trkpt lat="43.16238" lon="1.02715">
        <ele>431.40997314</ele>
        <time>2021-10-17T09:33:58Z</time>
      </trkpt>
      <trkpt lat="43.16238" lon="1.02713">
        <ele>431.73995972</ele>
        <time>2021-10-17T09:33:59Z</time>
      </trkpt>
      <trkpt lat="43.16239" lon="1.0271">
        <ele>432.05996704</ele>
        <time>2021-10-17T09:34:00Z</time>
      </trkpt>
      <trkpt lat="43.16239" lon="1.02707">
        <ele>432.37997437</ele>
        <time>2021-10-17T09:34:01Z</time>
      </trkpt>
      <trkpt lat="43.16239" lon="1.02703">
        <ele>432.62997437</ele>
        <time>2021-10-17T09:34:02Z</time>
      </trkpt>
      <trkpt lat="43.1624" lon="1.02701">
        <ele>432.78997803</ele>
        <time>2021-10-17T09:34:03Z</time>
      </trkpt>
      <trkpt lat="43.16239" lon="1.02698">
        <ele>432.92999268</ele>
        <time>2021-10-17T09:34:04Z</time>
      </trkpt>
      <trkpt lat="43.16239" lon="1.02695">
        <ele>433.00997925</ele>
        <time>2021-10-17T09:34:05Z</time>
      </trkpt>
      <trkpt lat="43.16239" lon="1.0269">
        <ele>433.09997559</ele>
        <time>2021-10-17T09:34:06Z</time>
      </trkpt>
      <trkpt lat="43.16238" lon="1.02686">
        <ele>433.16998291</ele>
        <time>2021-10-17T09:34:07Z</time>
      </trkpt>
      <trkpt lat="43.16238" lon="1.02683">
        <ele>433.22998047</ele>
        <time>2021-10-17T09:34:08Z</time>
      </trkpt>
      <trkpt lat="43.16237" lon="1.0268">
        <ele>433.32998657</ele>
        <time>2021-10-17T09:34:09Z</time>
      </trkpt>
      <trkpt lat="43.16236" lon="1.02676">
        <ele>433.40997314</ele>
        <time>2021-10-17T09:34:10Z</time>
      </trkpt>
      <trkpt lat="43.16236" lon="1.02673">
        <ele>433.52996826</ele>
        <time>2021-10-17T09:34:11Z</time>
      </trkpt>
      <trkpt lat="43.16235" lon="1.02671">
        <ele>433.64996338</ele>
        <time>2021-10-17T09:34:12Z</time>
      </trkpt>
      <trkpt lat="43.16233" lon="1.02669">
        <ele>433.75994873</ele>
        <time>2021-10-17T09:34:13Z</time>
      </trkpt>
      <trkpt lat="43.16232" lon="1.02668">
        <ele>433.90994263</ele>
        <time>2021-10-17T09:34:14Z</time>
      </trkpt>
      <trkpt lat="43.16229" lon="1.02668">
        <ele>433.9899292</ele>
        <time>2021-10-17T09:34:15Z</time>
      </trkpt>
      <trkpt lat="43.16227" lon="1.02668">
        <ele>434.16992188</ele>
        <time>2021-10-17T09:34:16Z</time>
      </trkpt>
      <trkpt lat="43.16225" lon="1.02669">
        <ele>434.34991455</ele>
        <time>2021-10-17T09:34:17Z</time>
      </trkpt>
      <trkpt lat="43.16223" lon="1.0267">
        <ele>434.46990967</ele>
        <time>2021-10-17T09:34:18Z</time>
      </trkpt>
      <trkpt lat="43.16222" lon="1.02671">
        <ele>434.65991211</ele>
        <time>2021-10-17T09:34:19Z</time>
      </trkpt>
      <trkpt lat="43.1622" lon="1.02675">
        <ele>434.77990723</ele>
        <time>2021-10-17T09:34:20Z</time>
      </trkpt>
      <trkpt lat="43.1622" lon="1.02677">
        <ele>434.62991333</ele>
        <time>2021-10-17T09:34:21Z</time>
      </trkpt>
      <trkpt lat="43.1622" lon="1.02679">
        <ele>434.86990356</ele>
        <time>2021-10-17T09:34:22Z</time>
      </trkpt>
      <trkpt lat="43.16219" lon="1.02682">
        <ele>435.15991211</ele>
        <time>2021-10-17T09:34:23Z</time>
      </trkpt>
      <trkpt lat="43.16219" lon="1.02684">
        <ele>435.46990967</ele>
        <time>2021-10-17T09:34:24Z</time>
      </trkpt>
      <trkpt lat="43.16218" lon="1.02685">
        <ele>435.73989868</ele>
        <time>2021-10-17T09:34:25Z</time>
      </trkpt>
      <trkpt lat="43.16218" lon="1.02687">
        <ele>435.97988892</ele>
        <time>2021-10-17T09:34:26Z</time>
      </trkpt>
      <trkpt lat="43.16217" lon="1.02689">
        <ele>436.14990234</ele>
        <time>2021-10-17T09:34:27Z</time>
      </trkpt>
      <trkpt lat="43.16215" lon="1.02689">
        <ele>436.27990723</ele>
        <time>2021-10-17T09:34:28Z</time>
      </trkpt>
      <trkpt lat="43.16212" lon="1.02689">
        <ele>436.38989258</ele>
        <time>2021-10-17T09:34:29Z</time>
      </trkpt>
      <trkpt lat="43.1621" lon="1.02687">
        <ele>436.40988159</ele>
        <time>2021-10-17T09:34:30Z</time>
      </trkpt>
      <trkpt lat="43.16209" lon="1.02685">
        <ele>436.44989014</ele>
        <time>2021-10-17T09:34:31Z</time>
      </trkpt>
      <trkpt lat="43.16209" lon="1.02683">
        <ele>436.61990356</ele>
        <time>2021-10-17T09:34:32Z</time>
      </trkpt>
      <trkpt lat="43.16208" lon="1.02681">
        <ele>436.79989624</ele>
        <time>2021-10-17T09:34:33Z</time>
      </trkpt>
      <trkpt lat="43.16207" lon="1.02678">
        <ele>437.11990356</ele>
        <time>2021-10-17T09:34:34Z</time>
      </trkpt>
      <trkpt lat="43.16206" lon="1.02676">
        <ele>437.4598999</ele>
        <time>2021-10-17T09:34:35Z</time>
      </trkpt>
      <trkpt lat="43.16206" lon="1.02673">
        <ele>437.7598877</ele>
        <time>2021-10-17T09:34:36Z</time>
      </trkpt>
      <trkpt lat="43.16205" lon="1.02671">
        <ele>438.13989258</ele>
        <time>2021-10-17T09:34:37Z</time>
      </trkpt>
      <trkpt lat="43.16204" lon="1.02667">
        <ele>438.4598999</ele>
        <time>2021-10-17T09:34:38Z</time>
      </trkpt>
      <trkpt lat="43.16204" lon="1.02665">
        <ele>438.67990112</ele>
        <time>2021-10-17T09:34:39Z</time>
      </trkpt>
      <trkpt lat="43.16203" lon="1.02662">
        <ele>438.88989258</ele>
        <time>2021-10-17T09:34:40Z</time>
      </trkpt>
      <trkpt lat="43.16202" lon="1.02659">
        <ele>439.02990723</ele>
        <time>2021-10-17T09:34:41Z</time>
      </trkpt>
      <trkpt lat="43.16202" lon="1.02655">
        <ele>439.17990112</ele>
        <time>2021-10-17T09:34:42Z</time>
      </trkpt>
      <trkpt lat="43.16201" lon="1.02653">
        <ele>439.33990479</ele>
        <time>2021-10-17T09:34:43Z</time>
      </trkpt>
      <trkpt lat="43.16201" lon="1.02651">
        <ele>439.46990967</ele>
        <time>2021-10-17T09:34:44Z</time>
      </trkpt>
      <trkpt lat="43.162" lon="1.02648">
        <ele>439.62991333</ele>
        <time>2021-10-17T09:34:45Z</time>
      </trkpt>
      <trkpt lat="43.162" lon="1.02646">
        <ele>439.78991699</ele>
        <time>2021-10-17T09:34:46Z</time>
      </trkpt>
      <trkpt lat="43.162" lon="1.02643">
        <ele>440.05990601</ele>
        <time>2021-10-17T09:34:47Z</time>
      </trkpt>
      <trkpt lat="43.16199" lon="1.0264">
        <ele>440.3598938</ele>
        <time>2021-10-17T09:34:48Z</time>
      </trkpt>
      <trkpt lat="43.16199" lon="1.02638">
        <ele>440.61990356</ele>
        <time>2021-10-17T09:34:49Z</time>
      </trkpt>
      <trkpt lat="43.16199" lon="1.02635">
        <ele>440.89990234</ele>
        <time>2021-10-17T09:34:50Z</time>
      </trkpt>
      <trkpt lat="43.16198" lon="1.02631">
        <ele>441.11990356</ele>
        <time>2021-10-17T09:34:51Z</time>
      </trkpt>
      <trkpt lat="43.16197" lon="1.02629">
        <ele>441.28991699</ele>
        <time>2021-10-17T09:34:52Z</time>
      </trkpt>
      <trkpt lat="43.16197" lon="1.02627">
        <ele>441.53991699</ele>
        <time>2021-10-17T09:34:53Z</time>
      </trkpt>
      <trkpt lat="43.16197" lon="1.02624">
        <ele>441.69992065</ele>
        <time>2021-10-17T09:34:54Z</time>
      </trkpt>
      <trkpt lat="43.16196" lon="1.02622">
        <ele>442.02990723</ele>
        <time>2021-10-17T09:34:55Z</time>
      </trkpt>
      <trkpt lat="43.16196" lon="1.02619">
        <ele>442.29989624</ele>
        <time>2021-10-17T09:34:56Z</time>
      </trkpt>
      <trkpt lat="43.16196" lon="1.02617">
        <ele>442.57989502</ele>
        <time>2021-10-17T09:34:57Z</time>
      </trkpt>
      <trkpt lat="43.16196" lon="1.02614">
        <ele>442.9598999</ele>
        <time>2021-10-17T09:34:58Z</time>
      </trkpt>
      <trkpt lat="43.16196" lon="1.02612">
        <ele>443.21990967</ele>
        <time>2021-10-17T09:34:59Z</time>
      </trkpt>
      <trkpt lat="43.16197" lon="1.02609">
        <ele>443.49990845</ele>
        <time>2021-10-17T09:35:00Z</time>
      </trkpt>
      <trkpt lat="43.16196" lon="1.02606">
        <ele>443.83990479</ele>
        <time>2021-10-17T09:35:01Z</time>
      </trkpt>
      <trkpt lat="43.16196" lon="1.02604">
        <ele>444.18991089</ele>
        <time>2021-10-17T09:35:02Z</time>
      </trkpt>
      <trkpt lat="43.16196" lon="1.02601">
        <ele>444.52990723</ele>
        <time>2021-10-17T09:35:03Z</time>
      </trkpt>
      <trkpt lat="43.16196" lon="1.02599">
        <ele>444.97991943</ele>
        <time>2021-10-17T09:35:04Z</time>
      </trkpt>
      <trkpt lat="43.16197" lon="1.02596">
        <ele>445.37991333</ele>
        <time>2021-10-17T09:35:05Z</time>
      </trkpt>
      <trkpt lat="43.16197" lon="1.02594">
        <ele>445.68991089</ele>
        <time>2021-10-17T09:35:06Z</time>
      </trkpt>
      <trkpt lat="43.16197" lon="1.02592">
        <ele>445.96990967</ele>
        <time>2021-10-17T09:35:07Z</time>
      </trkpt>
      <trkpt lat="43.16198" lon="1.0259">
        <ele>446.19992065</ele>
        <time>2021-10-17T09:35:08Z</time>
      </trkpt>
      <trkpt lat="43.16198" lon="1.02586">
        <ele>446.3399353</ele>
        <time>2021-10-17T09:35:09Z</time>
      </trkpt>
      <trkpt lat="43.16199" lon="1.02584">
        <ele>446.40994263</ele>
        <time>2021-10-17T09:35:10Z</time>
      </trkpt>
      <trkpt lat="43.16198" lon="1.02582">
        <ele>446.53994751</ele>
        <time>2021-10-17T09:35:11Z</time>
      </trkpt>
      <trkpt lat="43.16198" lon="1.0258">
        <ele>446.68994141</ele>
        <time>2021-10-17T09:35:12Z</time>
      </trkpt>
      <trkpt lat="43.16198" lon="1.02577">
        <ele>446.76992798</ele>
        <time>2021-10-17T09:35:13Z</time>
      </trkpt>
      <trkpt lat="43.16197" lon="1.02574">
        <ele>446.9899292</ele>
        <time>2021-10-17T09:35:14Z</time>
      </trkpt>
      <trkpt lat="43.16196" lon="1.02571">
        <ele>447.10992432</ele>
        <time>2021-10-17T09:35:15Z</time>
      </trkpt>
      <trkpt lat="43.16195" lon="1.02569">
        <ele>447.21990967</ele>
        <time>2021-10-17T09:35:16Z</time>
      </trkpt>
      <trkpt lat="43.16195" lon="1.02567">
        <ele>447.4598999</ele>
        <time>2021-10-17T09:35:17Z</time>
      </trkpt>
      <trkpt lat="43.16194" lon="1.02564">
        <ele>447.69989014</ele>
        <time>2021-10-17T09:35:18Z</time>
      </trkpt>
      <trkpt lat="43.16193" lon="1.02562">
        <ele>448.04989624</ele>
        <time>2021-10-17T09:35:19Z</time>
      </trkpt>
      <trkpt lat="43.16192" lon="1.0256">
        <ele>448.32989502</ele>
        <time>2021-10-17T09:35:20Z</time>
      </trkpt>
      <trkpt lat="43.16191" lon="1.02559">
        <ele>448.6098938</ele>
        <time>2021-10-17T09:35:21Z</time>
      </trkpt>
      <trkpt lat="43.1619" lon="1.02557">
        <ele>448.99990845</ele>
        <time>2021-10-17T09:35:22Z</time>
      </trkpt>
      <trkpt lat="43.16189" lon="1.02554">
        <ele>449.33990479</ele>
        <time>2021-10-17T09:35:23Z</time>
      </trkpt>
      <trkpt lat="43.16188" lon="1.02552">
        <ele>449.72991943</ele>
        <time>2021-10-17T09:35:24Z</time>
      </trkpt>
      <trkpt lat="43.16188" lon="1.0255">
        <ele>450.08990479</ele>
        <time>2021-10-17T09:35:25Z</time>
      </trkpt>
      <trkpt lat="43.16188" lon="1.02548">
        <ele>450.32989502</ele>
        <time>2021-10-17T09:35:26Z</time>
      </trkpt>
      <trkpt lat="43.16188" lon="1.02546">
        <ele>450.41989136</ele>
        <time>2021-10-17T09:35:27Z</time>
      </trkpt>
      <trkpt lat="43.16188" lon="1.02543">
        <ele>450.4598999</ele>
        <time>2021-10-17T09:35:28Z</time>
      </trkpt>
      <trkpt lat="43.16189" lon="1.02541">
        <ele>450.46990967</ele>
        <time>2021-10-17T09:35:29Z</time>
      </trkpt>
      <trkpt lat="43.1619" lon="1.02539">
        <ele>450.44992065</ele>
        <time>2021-10-17T09:35:30Z</time>
      </trkpt>
      <trkpt lat="43.1619" lon="1.02537">
        <ele>450.52990723</ele>
        <time>2021-10-17T09:35:31Z</time>
      </trkpt>
      <trkpt lat="43.1619" lon="1.02533">
        <ele>450.65991211</ele>
        <time>2021-10-17T09:35:32Z</time>
      </trkpt>
      <trkpt lat="43.16191" lon="1.0253">
        <ele>450.80990601</ele>
        <time>2021-10-17T09:35:33Z</time>
      </trkpt>
      <trkpt lat="43.16191" lon="1.02528">
        <ele>450.9598999</ele>
        <time>2021-10-17T09:35:34Z</time>
      </trkpt>
      <trkpt lat="43.16191" lon="1.02525">
        <ele>451.1098938</ele>
        <time>2021-10-17T09:35:35Z</time>
      </trkpt>
      <trkpt lat="43.16192" lon="1.02521">
        <ele>451.27990723</ele>
        <time>2021-10-17T09:35:36Z</time>
      </trkpt>
      <trkpt lat="43.16193" lon="1.02518">
        <ele>451.44992065</ele>
        <time>2021-10-17T09:35:37Z</time>
      </trkpt>
      <trkpt lat="43.16193" lon="1.02516">
        <ele>451.62991333</ele>
        <time>2021-10-17T09:35:38Z</time>
      </trkpt>
      <trkpt lat="43.16193" lon="1.02512">
        <ele>451.81991577</ele>
        <time>2021-10-17T09:35:39Z</time>
      </trkpt>
      <trkpt lat="43.16192" lon="1.02507">
        <ele>451.95993042</ele>
        <time>2021-10-17T09:35:40Z</time>
      </trkpt>
      <trkpt lat="43.16193" lon="1.02505">
        <ele>452.14993286</ele>
        <time>2021-10-17T09:35:41Z</time>
      </trkpt>
      <trkpt lat="43.16192" lon="1.02503">
        <ele>452.46994019</ele>
        <time>2021-10-17T09:35:42Z</time>
      </trkpt>
      <trkpt lat="43.16192" lon="1.025">
        <ele>452.87994385</ele>
        <time>2021-10-17T09:35:43Z</time>
      </trkpt>
      <trkpt lat="43.16191" lon="1.02496">
        <ele>453.39993286</ele>
        <time>2021-10-17T09:35:44Z</time>
      </trkpt>
      <trkpt lat="43.16192" lon="1.02493">
        <ele>453.93994141</ele>
        <time>2021-10-17T09:35:45Z</time>
      </trkpt>
      <trkpt lat="43.16191" lon="1.0249">
        <ele>454.44995117</ele>
        <time>2021-10-17T09:35:46Z</time>
      </trkpt>
      <trkpt lat="43.16192" lon="1.02489">
        <ele>454.93994141</ele>
        <time>2021-10-17T09:35:47Z</time>
      </trkpt>
      <trkpt lat="43.16192" lon="1.02487">
        <ele>455.37994385</ele>
        <time>2021-10-17T09:35:48Z</time>
      </trkpt>
      <trkpt lat="43.16191" lon="1.02483">
        <ele>455.87994385</ele>
        <time>2021-10-17T09:35:49Z</time>
      </trkpt>
      <trkpt lat="43.16192" lon="1.0248">
        <ele>457.16995239</ele>
        <time>2021-10-17T09:35:50Z</time>
      </trkpt>
      <trkpt lat="43.16193" lon="1.02477">
        <ele>457.16995239</ele>
        <time>2021-10-17T09:35:51Z</time>
      </trkpt>
      <trkpt lat="43.16194" lon="1.02476">
        <ele>457.81994629</ele>
        <time>2021-10-17T09:35:52Z</time>
      </trkpt>
      <trkpt lat="43.16194" lon="1.02473">
        <ele>458.45996094</ele>
        <time>2021-10-17T09:35:53Z</time>
      </trkpt>
      <trkpt lat="43.16195" lon="1.02469">
        <ele>458.8699646</ele>
        <time>2021-10-17T09:35:54Z</time>
      </trkpt>
      <trkpt lat="43.16197" lon="1.02467">
        <ele>459.2699585</ele>
        <time>2021-10-17T09:35:55Z</time>
      </trkpt>
      <trkpt lat="43.16198" lon="1.02466">
        <ele>459.63995361</ele>
        <time>2021-10-17T09:35:56Z</time>
      </trkpt>
      <trkpt lat="43.16199" lon="1.02465">
        <ele>459.88995361</ele>
        <time>2021-10-17T09:35:57Z</time>
      </trkpt>
      <trkpt lat="43.162" lon="1.02464">
        <ele>460.13995361</ele>
        <time>2021-10-17T09:35:58Z</time>
      </trkpt>
      <trkpt lat="43.16202" lon="1.02462">
        <ele>460.39996338</ele>
        <time>2021-10-17T09:35:59Z</time>
      </trkpt>
      <trkpt lat="43.16203" lon="1.02461">
        <ele>460.62997437</ele>
        <time>2021-10-17T09:36:00Z</time>
      </trkpt>
      <trkpt lat="43.16206" lon="1.02461">
        <ele>460.85998535</ele>
        <time>2021-10-17T09:36:01Z</time>
      </trkpt>
      <trkpt lat="43.16207" lon="1.02459">
        <ele>461.10998535</ele>
        <time>2021-10-17T09:36:02Z</time>
      </trkpt>
      <trkpt lat="43.16208" lon="1.02457">
        <ele>461.25997925</ele>
        <time>2021-10-17T09:36:03Z</time>
      </trkpt>
      <trkpt lat="43.16209" lon="1.02456">
        <ele>461.4699707</ele>
        <time>2021-10-17T09:36:04Z</time>
      </trkpt>
      <trkpt lat="43.16211" lon="1.02455">
        <ele>461.7199707</ele>
        <time>2021-10-17T09:36:05Z</time>
      </trkpt>
      <trkpt lat="43.16212" lon="1.02454">
        <ele>461.92996216</ele>
        <time>2021-10-17T09:36:06Z</time>
      </trkpt>
      <trkpt lat="43.16214" lon="1.02454">
        <ele>462.27996826</ele>
        <time>2021-10-17T09:36:07Z</time>
      </trkpt>
      <trkpt lat="43.16216" lon="1.02452">
        <ele>462.53997803</ele>
        <time>2021-10-17T09:36:08Z</time>
      </trkpt>
      <trkpt lat="43.16217" lon="1.02451">
        <ele>462.84997559</ele>
        <time>2021-10-17T09:36:09Z</time>
      </trkpt>
      <trkpt lat="43.16218" lon="1.0245">
        <ele>463.20996094</ele>
        <time>2021-10-17T09:36:10Z</time>
      </trkpt>
      <trkpt lat="43.1622" lon="1.02447">
        <ele>463.49996948</ele>
        <time>2021-10-17T09:36:11Z</time>
      </trkpt>
      <trkpt lat="43.16221" lon="1.02443">
        <ele>463.79995728</ele>
        <time>2021-10-17T09:36:12Z</time>
      </trkpt>
      <trkpt lat="43.16222" lon="1.02441">
        <ele>464.02996826</ele>
        <time>2021-10-17T09:36:13Z</time>
      </trkpt>
      <trkpt lat="43.16223" lon="1.02439">
        <ele>464.20996094</ele>
        <time>2021-10-17T09:36:14Z</time>
      </trkpt>
      <trkpt lat="43.16224" lon="1.02437">
        <ele>464.29995728</ele>
        <time>2021-10-17T09:36:15Z</time>
      </trkpt>
      <trkpt lat="43.16224" lon="1.02431">
        <ele>464.30996704</ele>
        <time>2021-10-17T09:36:16Z</time>
      </trkpt>
      <trkpt lat="43.16224" lon="1.02427">
        <ele>464.23995972</ele>
        <time>2021-10-17T09:36:17Z</time>
      </trkpt>
      <trkpt lat="43.16223" lon="1.02421">
        <ele>463.98995972</ele>
        <time>2021-10-17T09:36:18Z</time>
      </trkpt>
      <trkpt lat="43.16222" lon="1.02416">
        <ele>463.70996094</ele>
        <time>2021-10-17T09:36:19Z</time>
      </trkpt>
      <trkpt lat="43.16221" lon="1.02411">
        <ele>463.37997437</ele>
        <time>2021-10-17T09:36:20Z</time>
      </trkpt>
      <trkpt lat="43.16218" lon="1.02404">
        <ele>463.09997559</ele>
        <time>2021-10-17T09:36:21Z</time>
      </trkpt>
      <trkpt lat="43.16218" lon="1.024">
        <ele>462.82998657</ele>
        <time>2021-10-17T09:36:22Z</time>
      </trkpt>
      <trkpt lat="43.16217" lon="1.02396">
        <ele>462.75</ele>
        <time>2021-10-17T09:36:23Z</time>
      </trkpt>
      <trkpt lat="43.16217" lon="1.02392">
        <ele>462.79998779</ele>
        <time>2021-10-17T09:36:24Z</time>
      </trkpt>
      <trkpt lat="43.16217" lon="1.02389">
        <ele>462.8999939</ele>
        <time>2021-10-17T09:36:25Z</time>
      </trkpt>
      <trkpt lat="43.16216" lon="1.02385">
        <ele>463.20999146</ele>
        <time>2021-10-17T09:36:26Z</time>
      </trkpt>
      <trkpt lat="43.16215" lon="1.02382">
        <ele>463.41000366</ele>
        <time>2021-10-17T09:36:27Z</time>
      </trkpt>
      <trkpt lat="43.16215" lon="1.0238">
        <ele>463.57000732</ele>
        <time>2021-10-17T09:36:28Z</time>
      </trkpt>
      <trkpt lat="43.16215" lon="1.02377">
        <ele>463.63000488</ele>
        <time>2021-10-17T09:36:29Z</time>
      </trkpt>
      <trkpt lat="43.16215" lon="1.02372">
        <ele>463.64001465</ele>
        <time>2021-10-17T09:36:30Z</time>
      </trkpt>
      <trkpt lat="43.16215" lon="1.02369">
        <ele>463.49002075</ele>
        <time>2021-10-17T09:36:31Z</time>
      </trkpt>
      <trkpt lat="43.16215" lon="1.02366">
        <ele>463.49002075</ele>
        <time>2021-10-17T09:36:32Z</time>
      </trkpt>
      <trkpt lat="43.16214" lon="1.02362">
        <ele>463.46002197</ele>
        <time>2021-10-17T09:36:33Z</time>
      </trkpt>
      <trkpt lat="43.16214" lon="1.02359">
        <ele>463.40002441</ele>
        <time>2021-10-17T09:36:34Z</time>
      </trkpt>
      <trkpt lat="43.16212" lon="1.02355">
        <ele>463.45001221</ele>
        <time>2021-10-17T09:36:35Z</time>
      </trkpt>
      <trkpt lat="43.16212" lon="1.02351">
        <ele>463.57000732</ele>
        <time>2021-10-17T09:36:36Z</time>
      </trkpt>
      <trkpt lat="43.16212" lon="1.02348">
        <ele>463.58001709</ele>
        <time>2021-10-17T09:36:37Z</time>
      </trkpt>
      <trkpt lat="43.16211" lon="1.02346">
        <ele>463.66000366</ele>
        <time>2021-10-17T09:36:38Z</time>
      </trkpt>
      <trkpt lat="43.1621" lon="1.02343">
        <ele>463.66000366</ele>
        <time>2021-10-17T09:36:39Z</time>
      </trkpt>
      <trkpt lat="43.16209" lon="1.02341">
        <ele>463.70001221</ele>
        <time>2021-10-17T09:36:40Z</time>
      </trkpt>
      <trkpt lat="43.16208" lon="1.02338">
        <ele>463.75</ele>
        <time>2021-10-17T09:36:41Z</time>
      </trkpt>
      <trkpt lat="43.16208" lon="1.02336">
        <ele>463.79998779</ele>
        <time>2021-10-17T09:36:42Z</time>
      </trkpt>
      <trkpt lat="43.16207" lon="1.02334">
        <ele>463.95999146</ele>
        <time>2021-10-17T09:36:43Z</time>
      </trkpt>
      <trkpt lat="43.16207" lon="1.0233">
        <ele>464.13000488</ele>
        <time>2021-10-17T09:36:44Z</time>
      </trkpt>
      <trkpt lat="43.16206" lon="1.02327">
        <ele>464.3999939</ele>
        <time>2021-10-17T09:36:45Z</time>
      </trkpt>
      <trkpt lat="43.16205" lon="1.02324">
        <ele>464.61999512</ele>
        <time>2021-10-17T09:36:46Z</time>
      </trkpt>
      <trkpt lat="43.16205" lon="1.02323">
        <ele>464.80999756</ele>
        <time>2021-10-17T09:36:47Z</time>
      </trkpt>
      <trkpt lat="43.16203" lon="1.0232">
        <ele>465.04000854</ele>
        <time>2021-10-17T09:36:48Z</time>
      </trkpt>
      <trkpt lat="43.16202" lon="1.02317">
        <ele>465.27001953</ele>
        <time>2021-10-17T09:36:49Z</time>
      </trkpt>
      <trkpt lat="43.16201" lon="1.02313">
        <ele>465.57000732</ele>
        <time>2021-10-17T09:36:50Z</time>
      </trkpt>
      <trkpt lat="43.162" lon="1.0231">
        <ele>465.86999512</ele>
        <time>2021-10-17T09:36:51Z</time>
      </trkpt>
      <trkpt lat="43.16199" lon="1.02307">
        <ele>466.20999146</ele>
        <time>2021-10-17T09:36:52Z</time>
      </trkpt>
      <trkpt lat="43.16198" lon="1.02306">
        <ele>466.61999512</ele>
        <time>2021-10-17T09:36:53Z</time>
      </trkpt>
      <trkpt lat="43.16197" lon="1.02303">
        <ele>466.98999023</ele>
        <time>2021-10-17T09:36:54Z</time>
      </trkpt>
      <trkpt lat="43.16196" lon="1.02301">
        <ele>467.33999634</ele>
        <time>2021-10-17T09:36:55Z</time>
      </trkpt>
      <trkpt lat="43.16195" lon="1.02299">
        <ele>467.6499939</ele>
        <time>2021-10-17T09:36:56Z</time>
      </trkpt>
      <trkpt lat="43.16193" lon="1.02297">
        <ele>467.94998169</ele>
        <time>2021-10-17T09:36:57Z</time>
      </trkpt>
      <trkpt lat="43.16192" lon="1.02296">
        <ele>468.24996948</ele>
        <time>2021-10-17T09:36:58Z</time>
      </trkpt>
      <trkpt lat="43.16192" lon="1.02296">
        <ele>468.59997559</ele>
        <time>2021-10-17T09:36:59Z</time>
      </trkpt>
      <trkpt lat="43.16191" lon="1.02294">
        <ele>468.9699707</ele>
        <time>2021-10-17T09:37:00Z</time>
      </trkpt>
      <trkpt lat="43.16189" lon="1.02292">
        <ele>469.29995728</ele>
        <time>2021-10-17T09:37:01Z</time>
      </trkpt>
      <trkpt lat="43.16188" lon="1.02291">
        <ele>469.6199646</ele>
        <time>2021-10-17T09:37:02Z</time>
      </trkpt>
      <trkpt lat="43.16186" lon="1.02291">
        <ele>469.90997314</ele>
        <time>2021-10-17T09:37:03Z</time>
      </trkpt>
      <trkpt lat="43.16184" lon="1.02291">
        <ele>470.12997437</ele>
        <time>2021-10-17T09:37:04Z</time>
      </trkpt>
      <trkpt lat="43.16183" lon="1.02291">
        <ele>470.27996826</ele>
        <time>2021-10-17T09:37:05Z</time>
      </trkpt>
      <trkpt lat="43.16182" lon="1.02289">
        <ele>470.43997192</ele>
        <time>2021-10-17T09:37:06Z</time>
      </trkpt>
      <trkpt lat="43.1618" lon="1.02287">
        <ele>470.48995972</ele>
        <time>2021-10-17T09:37:07Z</time>
      </trkpt>
      <trkpt lat="43.16179" lon="1.02285">
        <ele>470.60995483</ele>
        <time>2021-10-17T09:37:08Z</time>
      </trkpt>
      <trkpt lat="43.16177" lon="1.02282">
        <ele>470.73995972</ele>
        <time>2021-10-17T09:37:09Z</time>
      </trkpt>
      <trkpt lat="43.16175" lon="1.02279">
        <ele>470.8699646</ele>
        <time>2021-10-17T09:37:10Z</time>
      </trkpt>
      <trkpt lat="43.16174" lon="1.02276">
        <ele>470.94995117</ele>
        <time>2021-10-17T09:37:11Z</time>
      </trkpt>
      <trkpt lat="43.16172" lon="1.02273">
        <ele>471.00994873</ele>
        <time>2021-10-17T09:37:12Z</time>
      </trkpt>
      <trkpt lat="43.16171" lon="1.0227">
        <ele>471.05993652</ele>
        <time>2021-10-17T09:37:13Z</time>
      </trkpt>
      <trkpt lat="43.1617" lon="1.02268">
        <ele>471.05993652</ele>
        <time>2021-10-17T09:37:14Z</time>
      </trkpt>
      <trkpt lat="43.16168" lon="1.02264">
        <ele>471.10992432</ele>
        <time>2021-10-17T09:37:15Z</time>
      </trkpt>
      <trkpt lat="43.16167" lon="1.0226">
        <ele>471.20993042</ele>
        <time>2021-10-17T09:37:16Z</time>
      </trkpt>
      <trkpt lat="43.16167" lon="1.02258">
        <ele>471.29992676</ele>
        <time>2021-10-17T09:37:17Z</time>
      </trkpt>
      <trkpt lat="43.16166" lon="1.02257">
        <ele>471.43994141</ele>
        <time>2021-10-17T09:37:18Z</time>
      </trkpt>
      <trkpt lat="43.16164" lon="1.02253">
        <ele>471.66995239</ele>
        <time>2021-10-17T09:37:19Z</time>
      </trkpt>
      <trkpt lat="43.16163" lon="1.0225">
        <ele>471.78994751</ele>
        <time>2021-10-17T09:37:20Z</time>
      </trkpt>
      <trkpt lat="43.16162" lon="1.02248">
        <ele>471.94995117</ele>
        <time>2021-10-17T09:37:21Z</time>
      </trkpt>
      <trkpt lat="43.16162" lon="1.02246">
        <ele>472.1199646</ele>
        <time>2021-10-17T09:37:22Z</time>
      </trkpt>
      <trkpt lat="43.16162" lon="1.02245">
        <ele>472.34997559</ele>
        <time>2021-10-17T09:37:23Z</time>
      </trkpt>
      <trkpt lat="43.16161" lon="1.02245">
        <ele>472.59997559</ele>
        <time>2021-10-17T09:37:24Z</time>
      </trkpt>
      <trkpt lat="43.16161" lon="1.02243">
        <ele>472.83996582</ele>
        <time>2021-10-17T09:37:25Z</time>
      </trkpt>
      <trkpt lat="43.1616" lon="1.02241">
        <ele>473.14996338</ele>
        <time>2021-10-17T09:37:26Z</time>
      </trkpt>
      <trkpt lat="43.16158" lon="1.0224">
        <ele>473.45996094</ele>
        <time>2021-10-17T09:37:27Z</time>
      </trkpt>
      <trkpt lat="43.16157" lon="1.02238">
        <ele>473.77996826</ele>
        <time>2021-10-17T09:37:28Z</time>
      </trkpt>
      <trkpt lat="43.16156" lon="1.02237">
        <ele>474.18997192</ele>
        <time>2021-10-17T09:37:29Z</time>
      </trkpt>
      <trkpt lat="43.16155" lon="1.02237">
        <ele>474.63998413</ele>
        <time>2021-10-17T09:37:30Z</time>
      </trkpt>
      <trkpt lat="43.16154" lon="1.02237">
        <ele>474.99996948</ele>
        <time>2021-10-17T09:37:31Z</time>
      </trkpt>
      <trkpt lat="43.16154" lon="1.02235">
        <ele>476.55999756</ele>
        <time>2021-10-17T09:37:31Z</time>
      </trkpt>
      <trkpt lat="43.16153" lon="1.02234">
        <ele>477</ele>
        <time>2021-10-17T09:37:32Z</time>
      </trkpt>
      <trkpt lat="43.1615" lon="1.02231">
        <ele>477.79000854</ele>
        <time>2021-10-17T09:37:33Z</time>
      </trkpt>
      <trkpt lat="43.16148" lon="1.02228">
        <ele>478.22000122</ele>
        <time>2021-10-17T09:37:35Z</time>
      </trkpt>
      <trkpt lat="43.16148" lon="1.02226">
        <ele>478.61001587</ele>
        <time>2021-10-17T09:37:36Z</time>
      </trkpt>
      <trkpt lat="43.16147" lon="1.02224">
        <ele>478.96002197</ele>
        <time>2021-10-17T09:37:37Z</time>
      </trkpt>
      <trkpt lat="43.16145" lon="1.0222">
        <ele>479.34002686</ele>
        <time>2021-10-17T09:37:38Z</time>
      </trkpt>
      <trkpt lat="43.16144" lon="1.02217">
        <ele>479.64001465</ele>
        <time>2021-10-17T09:37:39Z</time>
      </trkpt>
      <trkpt lat="43.16144" lon="1.02215">
        <ele>479.86001587</ele>
        <time>2021-10-17T09:37:40Z</time>
      </trkpt>
      <trkpt lat="43.16143" lon="1.02213">
        <ele>480.16000366</ele>
        <time>2021-10-17T09:37:41Z</time>
      </trkpt>
      <trkpt lat="43.16142" lon="1.02209">
        <ele>480.45001221</ele>
        <time>2021-10-17T09:37:42Z</time>
      </trkpt>
      <trkpt lat="43.16141" lon="1.02206">
        <ele>480.74002075</ele>
        <time>2021-10-17T09:37:43Z</time>
      </trkpt>
      <trkpt lat="43.16141" lon="1.02203">
        <ele>481.1000061</ele>
        <time>2021-10-17T09:37:44Z</time>
      </trkpt>
      <trkpt lat="43.16139" lon="1.022">
        <ele>481.27999878</ele>
        <time>2021-10-17T09:37:45Z</time>
      </trkpt>
      <trkpt lat="43.16137" lon="1.02195">
        <ele>481.45001221</ele>
        <time>2021-10-17T09:37:46Z</time>
      </trkpt>
      <trkpt lat="43.16136" lon="1.02192">
        <ele>481.55999756</ele>
        <time>2021-10-17T09:37:47Z</time>
      </trkpt>
      <trkpt lat="43.16135" lon="1.02189">
        <ele>481.70999146</ele>
        <time>2021-10-17T09:37:48Z</time>
      </trkpt>
      <trkpt lat="43.16136" lon="1.02188">
        <ele>481.88000488</ele>
        <time>2021-10-17T09:37:49Z</time>
      </trkpt>
      <trkpt lat="43.16134" lon="1.02186">
        <ele>482.08001709</ele>
        <time>2021-10-17T09:37:50Z</time>
      </trkpt>
      <trkpt lat="43.16133" lon="1.02183">
        <ele>482.32000732</ele>
        <time>2021-10-17T09:37:51Z</time>
      </trkpt>
      <trkpt lat="43.16132" lon="1.02182">
        <ele>482.51000977</ele>
        <time>2021-10-17T09:37:52Z</time>
      </trkpt>
      <trkpt lat="43.16131" lon="1.02181">
        <ele>482.75</ele>
        <time>2021-10-17T09:37:53Z</time>
      </trkpt>
      <trkpt lat="43.1613" lon="1.02178">
        <ele>483.01000977</ele>
        <time>2021-10-17T09:37:54Z</time>
      </trkpt>
      <trkpt lat="43.16129" lon="1.02177">
        <ele>483.30001831</ele>
        <time>2021-10-17T09:37:55Z</time>
      </trkpt>
      <trkpt lat="43.16128" lon="1.02174">
        <ele>483.64001465</ele>
        <time>2021-10-17T09:37:56Z</time>
      </trkpt>
      <trkpt lat="43.16128" lon="1.02173">
        <ele>483.92001343</ele>
        <time>2021-10-17T09:37:57Z</time>
      </trkpt>
      <trkpt lat="43.16126" lon="1.0217">
        <ele>484.22000122</ele>
        <time>2021-10-17T09:37:58Z</time>
      </trkpt>
      <trkpt lat="43.16125" lon="1.02168">
        <ele>484.48001099</ele>
        <time>2021-10-17T09:37:59Z</time>
      </trkpt>
      <trkpt lat="43.16124" lon="1.02164">
        <ele>484.68002319</ele>
        <time>2021-10-17T09:38:00Z</time>
      </trkpt>
      <trkpt lat="43.16123" lon="1.02163">
        <ele>484.90002441</ele>
        <time>2021-10-17T09:38:01Z</time>
      </trkpt>
      <trkpt lat="43.16123" lon="1.0216">
        <ele>485.04003906</ele>
        <time>2021-10-17T09:38:02Z</time>
      </trkpt>
      <trkpt lat="43.16123" lon="1.02158">
        <ele>485.26004028</ele>
        <time>2021-10-17T09:38:03Z</time>
      </trkpt>
      <trkpt lat="43.16122" lon="1.02154">
        <ele>485.52005005</ele>
        <time>2021-10-17T09:38:04Z</time>
      </trkpt>
      <trkpt lat="43.16121" lon="1.02151">
        <ele>485.78005981</ele>
        <time>2021-10-17T09:38:05Z</time>
      </trkpt>
      <trkpt lat="43.1612" lon="1.02149">
        <ele>486.15005493</ele>
        <time>2021-10-17T09:38:06Z</time>
      </trkpt>
      <trkpt lat="43.16119" lon="1.02147">
        <ele>486.53005981</ele>
        <time>2021-10-17T09:38:07Z</time>
      </trkpt>
      <trkpt lat="43.16119" lon="1.02145">
        <ele>486.93005371</ele>
        <time>2021-10-17T09:38:08Z</time>
      </trkpt>
      <trkpt lat="43.16117" lon="1.02141">
        <ele>487.43005371</ele>
        <time>2021-10-17T09:38:09Z</time>
      </trkpt>
      <trkpt lat="43.16116" lon="1.02139">
        <ele>487.89004517</ele>
        <time>2021-10-17T09:38:10Z</time>
      </trkpt>
      <trkpt lat="43.16115" lon="1.02137">
        <ele>488.39004517</ele>
        <time>2021-10-17T09:38:11Z</time>
      </trkpt>
      <trkpt lat="43.16113" lon="1.02135">
        <ele>488.85003662</ele>
        <time>2021-10-17T09:38:12Z</time>
      </trkpt>
      <trkpt lat="43.1611" lon="1.02132">
        <ele>489.18002319</ele>
        <time>2021-10-17T09:38:13Z</time>
      </trkpt>
      <trkpt lat="43.16108" lon="1.0213">
        <ele>489.56002808</ele>
        <time>2021-10-17T09:38:14Z</time>
      </trkpt>
      <trkpt lat="43.16106" lon="1.02129">
        <ele>489.80001831</ele>
        <time>2021-10-17T09:38:15Z</time>
      </trkpt>
      <trkpt lat="43.16105" lon="1.02127">
        <ele>490.06002808</ele>
        <time>2021-10-17T09:38:16Z</time>
      </trkpt>
      <trkpt lat="43.16104" lon="1.02126">
        <ele>490.37002563</ele>
        <time>2021-10-17T09:38:17Z</time>
      </trkpt>
      <trkpt lat="43.16102" lon="1.02124">
        <ele>490.61001587</ele>
        <time>2021-10-17T09:38:18Z</time>
      </trkpt>
      <trkpt lat="43.16101" lon="1.02122">
        <ele>490.91000366</ele>
        <time>2021-10-17T09:38:19Z</time>
      </trkpt>
      <trkpt lat="43.161" lon="1.02121">
        <ele>491.23999023</ele>
        <time>2021-10-17T09:38:20Z</time>
      </trkpt>
      <trkpt lat="43.16099" lon="1.0212">
        <ele>491.47998047</ele>
        <time>2021-10-17T09:38:21Z</time>
      </trkpt>
      <trkpt lat="43.16099" lon="1.02118">
        <ele>491.75997925</ele>
        <time>2021-10-17T09:38:22Z</time>
      </trkpt>
      <trkpt lat="43.16098" lon="1.02116">
        <ele>491.99996948</ele>
        <time>2021-10-17T09:38:23Z</time>
      </trkpt>
      <trkpt lat="43.16098" lon="1.02115">
        <ele>492.18997192</ele>
        <time>2021-10-17T09:38:24Z</time>
      </trkpt>
      <trkpt lat="43.16098" lon="1.02114">
        <ele>492.4699707</ele>
        <time>2021-10-17T09:38:25Z</time>
      </trkpt>
      <trkpt lat="43.16096" lon="1.02112">
        <ele>492.72998047</ele>
        <time>2021-10-17T09:38:26Z</time>
      </trkpt>
      <trkpt lat="43.16094" lon="1.02109">
        <ele>493.05996704</ele>
        <time>2021-10-17T09:38:27Z</time>
      </trkpt>
      <trkpt lat="43.16092" lon="1.02108">
        <ele>493.38995361</ele>
        <time>2021-10-17T09:38:28Z</time>
      </trkpt>
      <trkpt lat="43.1609" lon="1.02107">
        <ele>493.68994141</ele>
        <time>2021-10-17T09:38:29Z</time>
      </trkpt>
      <trkpt lat="43.16088" lon="1.02107">
        <ele>493.94995117</ele>
        <time>2021-10-17T09:38:30Z</time>
      </trkpt>
      <trkpt lat="43.16086" lon="1.02107">
        <ele>494.19995117</ele>
        <time>2021-10-17T09:38:31Z</time>
      </trkpt>
      <trkpt lat="43.16084" lon="1.02106">
        <ele>494.44995117</ele>
        <time>2021-10-17T09:38:32Z</time>
      </trkpt>
      <trkpt lat="43.16083" lon="1.02107">
        <ele>494.64996338</ele>
        <time>2021-10-17T09:38:33Z</time>
      </trkpt>
      <trkpt lat="43.16082" lon="1.02105">
        <ele>494.85995483</ele>
        <time>2021-10-17T09:38:34Z</time>
      </trkpt>
      <trkpt lat="43.16081" lon="1.02103">
        <ele>494.98995972</ele>
        <time>2021-10-17T09:38:35Z</time>
      </trkpt>
      <trkpt lat="43.1608" lon="1.02102">
        <ele>495.10995483</ele>
        <time>2021-10-17T09:38:36Z</time>
      </trkpt>
      <trkpt lat="43.16079" lon="1.02101">
        <ele>495.31994629</ele>
        <time>2021-10-17T09:38:37Z</time>
      </trkpt>
      <trkpt lat="43.16077" lon="1.02101">
        <ele>495.48995972</ele>
        <time>2021-10-17T09:38:38Z</time>
      </trkpt>
      <trkpt lat="43.16074" lon="1.02099">
        <ele>495.67996216</ele>
        <time>2021-10-17T09:38:39Z</time>
      </trkpt>
      <trkpt lat="43.16072" lon="1.02097">
        <ele>495.87997437</ele>
        <time>2021-10-17T09:38:40Z</time>
      </trkpt>
      <trkpt lat="43.16071" lon="1.02095">
        <ele>496.02996826</ele>
        <time>2021-10-17T09:38:41Z</time>
      </trkpt>
      <trkpt lat="43.1607" lon="1.02093">
        <ele>496.1199646</ele>
        <time>2021-10-17T09:38:42Z</time>
      </trkpt>
      <trkpt lat="43.16069" lon="1.02091">
        <ele>496.19995117</ele>
        <time>2021-10-17T09:38:43Z</time>
      </trkpt>
      <trkpt lat="43.16067" lon="1.02089">
        <ele>496.23995972</ele>
        <time>2021-10-17T09:38:44Z</time>
      </trkpt>
      <trkpt lat="43.16064" lon="1.02087">
        <ele>496.18997192</ele>
        <time>2021-10-17T09:38:45Z</time>
      </trkpt>
      <trkpt lat="43.16062" lon="1.02085">
        <ele>496.16998291</ele>
        <time>2021-10-17T09:38:46Z</time>
      </trkpt>
      <trkpt lat="43.16059" lon="1.02083">
        <ele>496.12997437</ele>
        <time>2021-10-17T09:38:47Z</time>
      </trkpt>
      <trkpt lat="43.16057" lon="1.02081">
        <ele>496.02996826</ele>
        <time>2021-10-17T09:38:48Z</time>
      </trkpt>
      <trkpt lat="43.16055" lon="1.0208">
        <ele>496.02996826</ele>
        <time>2021-10-17T09:38:49Z</time>
      </trkpt>
      <trkpt lat="43.16053" lon="1.02079">
        <ele>496.05996704</ele>
        <time>2021-10-17T09:38:50Z</time>
      </trkpt>
      <trkpt lat="43.1605" lon="1.02078">
        <ele>496.03997803</ele>
        <time>2021-10-17T09:38:51Z</time>
      </trkpt>
      <trkpt lat="43.16048" lon="1.02077">
        <ele>496.10998535</ele>
        <time>2021-10-17T09:38:52Z</time>
      </trkpt>
      <trkpt lat="43.16046" lon="1.02076">
        <ele>496.09997559</ele>
        <time>2021-10-17T09:38:53Z</time>
      </trkpt>
      <trkpt lat="43.16042" lon="1.02075">
        <ele>496.07998657</ele>
        <time>2021-10-17T09:38:54Z</time>
      </trkpt>
      <trkpt lat="43.1604" lon="1.02073">
        <ele>496.15997314</ele>
        <time>2021-10-17T09:38:55Z</time>
      </trkpt>
      <trkpt lat="43.16039" lon="1.0207">
        <ele>496.2199707</ele>
        <time>2021-10-17T09:38:56Z</time>
      </trkpt>
      <trkpt lat="43.16038" lon="1.02068">
        <ele>496.40997314</ele>
        <time>2021-10-17T09:38:57Z</time>
      </trkpt>
      <trkpt lat="43.16036" lon="1.02067">
        <ele>496.50997925</ele>
        <time>2021-10-17T09:38:58Z</time>
      </trkpt>
      <trkpt lat="43.16034" lon="1.02065">
        <ele>496.72998047</ele>
        <time>2021-10-17T09:38:59Z</time>
      </trkpt>
      <trkpt lat="43.16033" lon="1.02064">
        <ele>497.00997925</ele>
        <time>2021-10-17T09:39:00Z</time>
      </trkpt>
      <trkpt lat="43.16032" lon="1.02063">
        <ele>497.26998901</ele>
        <time>2021-10-17T09:39:01Z</time>
      </trkpt>
      <trkpt lat="43.1603" lon="1.02062">
        <ele>497.72000122</ele>
        <time>2021-10-17T09:39:02Z</time>
      </trkpt>
      <trkpt lat="43.16027" lon="1.02061">
        <ele>498.07000732</ele>
        <time>2021-10-17T09:39:03Z</time>
      </trkpt>
      <trkpt lat="43.16026" lon="1.02061">
        <ele>498.47000122</ele>
        <time>2021-10-17T09:39:04Z</time>
      </trkpt>
      <trkpt lat="43.16024" lon="1.0206">
        <ele>498.97000122</ele>
        <time>2021-10-17T09:39:05Z</time>
      </trkpt>
      <trkpt lat="43.16022" lon="1.02059">
        <ele>499.47000122</ele>
        <time>2021-10-17T09:39:06Z</time>
      </trkpt>
      <trkpt lat="43.16019" lon="1.02059">
        <ele>499.98999023</ele>
        <time>2021-10-17T09:39:07Z</time>
      </trkpt>
      <trkpt lat="43.16017" lon="1.02058">
        <ele>500.42999268</ele>
        <time>2021-10-17T09:39:08Z</time>
      </trkpt>
      <trkpt lat="43.16015" lon="1.02058">
        <ele>500.8999939</ele>
        <time>2021-10-17T09:39:09Z</time>
      </trkpt>
      <trkpt lat="43.16012" lon="1.02057">
        <ele>501.36999512</ele>
        <time>2021-10-17T09:39:10Z</time>
      </trkpt>
      <trkpt lat="43.16009" lon="1.02056">
        <ele>501.8999939</ele>
        <time>2021-10-17T09:39:11Z</time>
      </trkpt>
      <trkpt lat="43.16007" lon="1.02056">
        <ele>502.3999939</ele>
        <time>2021-10-17T09:39:12Z</time>
      </trkpt>
      <trkpt lat="43.16005" lon="1.02056">
        <ele>502.69998169</ele>
        <time>2021-10-17T09:39:13Z</time>
      </trkpt>
      <trkpt lat="43.16004" lon="1.02055">
        <ele>502.94998169</ele>
        <time>2021-10-17T09:39:14Z</time>
      </trkpt>
      <trkpt lat="43.16002" lon="1.02054">
        <ele>503.2199707</ele>
        <time>2021-10-17T09:39:15Z</time>
      </trkpt>
      <trkpt lat="43.16001" lon="1.02054">
        <ele>503.50997925</ele>
        <time>2021-10-17T09:39:16Z</time>
      </trkpt>
      <trkpt lat="43.15998" lon="1.02053">
        <ele>503.87997437</ele>
        <time>2021-10-17T09:39:17Z</time>
      </trkpt>
      <trkpt lat="43.15997" lon="1.02053">
        <ele>504.24996948</ele>
        <time>2021-10-17T09:39:18Z</time>
      </trkpt>
      <trkpt lat="43.15996" lon="1.02052">
        <ele>504.52996826</ele>
        <time>2021-10-17T09:39:19Z</time>
      </trkpt>
      <trkpt lat="43.15995" lon="1.02052">
        <ele>504.85995483</ele>
        <time>2021-10-17T09:39:20Z</time>
      </trkpt>
      <trkpt lat="43.15993" lon="1.0205">
        <ele>505.06994629</ele>
        <time>2021-10-17T09:39:21Z</time>
      </trkpt>
      <trkpt lat="43.15991" lon="1.02049">
        <ele>505.2699585</ele>
        <time>2021-10-17T09:39:22Z</time>
      </trkpt>
      <trkpt lat="43.1599" lon="1.02048">
        <ele>505.43997192</ele>
        <time>2021-10-17T09:39:23Z</time>
      </trkpt>
      <trkpt lat="43.15989" lon="1.02048">
        <ele>505.52996826</ele>
        <time>2021-10-17T09:39:24Z</time>
      </trkpt>
      <trkpt lat="43.15987" lon="1.02048">
        <ele>505.72998047</ele>
        <time>2021-10-17T09:39:25Z</time>
      </trkpt>
      <trkpt lat="43.15985" lon="1.02048">
        <ele>505.88998413</ele>
        <time>2021-10-17T09:39:26Z</time>
      </trkpt>
      <trkpt lat="43.15984" lon="1.02048">
        <ele>506.10998535</ele>
        <time>2021-10-17T09:39:27Z</time>
      </trkpt>
      <trkpt lat="43.15983" lon="1.02048">
        <ele>506.30999756</ele>
        <time>2021-10-17T09:39:28Z</time>
      </trkpt>
      <trkpt lat="43.15981" lon="1.02048">
        <ele>506.54998779</ele>
        <time>2021-10-17T09:39:29Z</time>
      </trkpt>
      <trkpt lat="43.15978" lon="1.02048">
        <ele>506.88998413</ele>
        <time>2021-10-17T09:39:30Z</time>
      </trkpt>
      <trkpt lat="43.15977" lon="1.02047">
        <ele>507.15997314</ele>
        <time>2021-10-17T09:39:31Z</time>
      </trkpt>
      <trkpt lat="43.15975" lon="1.02047">
        <ele>507.52996826</ele>
        <time>2021-10-17T09:39:32Z</time>
      </trkpt>
      <trkpt lat="43.15973" lon="1.02047">
        <ele>507.87997437</ele>
        <time>2021-10-17T09:39:33Z</time>
      </trkpt>
      <trkpt lat="43.15972" lon="1.02046">
        <ele>508.27996826</ele>
        <time>2021-10-17T09:39:34Z</time>
      </trkpt>
      <trkpt lat="43.15969" lon="1.02046">
        <ele>508.75997925</ele>
        <time>2021-10-17T09:39:35Z</time>
      </trkpt>
      <trkpt lat="43.15967" lon="1.02045">
        <ele>509.2199707</ele>
        <time>2021-10-17T09:39:36Z</time>
      </trkpt>
      <trkpt lat="43.15965" lon="1.02044">
        <ele>509.62997437</ele>
        <time>2021-10-17T09:39:37Z</time>
      </trkpt>
      <trkpt lat="43.15964" lon="1.02043">
        <ele>510.02996826</ele>
        <time>2021-10-17T09:39:38Z</time>
      </trkpt>
      <trkpt lat="43.15962" lon="1.02042">
        <ele>510.49996948</ele>
        <time>2021-10-17T09:39:39Z</time>
      </trkpt>
      <trkpt lat="43.1596" lon="1.02042">
        <ele>510.89996338</ele>
        <time>2021-10-17T09:39:40Z</time>
      </trkpt>
      <trkpt lat="43.15958" lon="1.02042">
        <ele>511.38995361</ele>
        <time>2021-10-17T09:39:41Z</time>
      </trkpt>
      <trkpt lat="43.15955" lon="1.02041">
        <ele>511.75994873</ele>
        <time>2021-10-17T09:39:42Z</time>
      </trkpt>
      <trkpt lat="43.15952" lon="1.0204">
        <ele>512.05993652</ele>
        <time>2021-10-17T09:39:43Z</time>
      </trkpt>
      <trkpt lat="43.15949" lon="1.02039">
        <ele>512.42993164</ele>
        <time>2021-10-17T09:39:44Z</time>
      </trkpt>
      <trkpt lat="43.15947" lon="1.02038">
        <ele>512.72991943</ele>
        <time>2021-10-17T09:39:45Z</time>
      </trkpt>
      <trkpt lat="43.15946" lon="1.02038">
        <ele>513.05993652</ele>
        <time>2021-10-17T09:39:46Z</time>
      </trkpt>
      <trkpt lat="43.15943" lon="1.02037">
        <ele>513.39996338</ele>
        <time>2021-10-17T09:39:47Z</time>
      </trkpt>
      <trkpt lat="43.15941" lon="1.02036">
        <ele>513.78997803</ele>
        <time>2021-10-17T09:39:48Z</time>
      </trkpt>
      <trkpt lat="43.15939" lon="1.02036">
        <ele>514.13000488</ele>
        <time>2021-10-17T09:39:49Z</time>
      </trkpt>
      <trkpt lat="43.15938" lon="1.02034">
        <ele>514.41003418</ele>
        <time>2021-10-17T09:39:50Z</time>
      </trkpt>
      <trkpt lat="43.15937" lon="1.02033">
        <ele>514.64001465</ele>
        <time>2021-10-17T09:39:51Z</time>
      </trkpt>
      <trkpt lat="43.15936" lon="1.02034">
        <ele>514.75</ele>
        <time>2021-10-17T09:39:52Z</time>
      </trkpt>
      <trkpt lat="43.15936" lon="1.02033">
        <ele>514.82000732</ele>
        <time>2021-10-17T09:39:53Z</time>
      </trkpt>
      <trkpt lat="43.15935" lon="1.02032">
        <ele>514.85003662</ele>
        <time>2021-10-17T09:39:54Z</time>
      </trkpt>
      <trkpt lat="43.15934" lon="1.02031">
        <ele>514.84002686</ele>
        <time>2021-10-17T09:39:55Z</time>
      </trkpt>
      <trkpt lat="43.15934" lon="1.0203">
        <ele>514.84002686</ele>
        <time>2021-10-17T09:39:56Z</time>
      </trkpt>
      <trkpt lat="43.15933" lon="1.02026">
        <ele>514.85003662</ele>
        <time>2021-10-17T09:39:57Z</time>
      </trkpt>
      <trkpt lat="43.15933" lon="1.02023">
        <ele>514.82000732</ele>
        <time>2021-10-17T09:39:58Z</time>
      </trkpt>
      <trkpt lat="43.15933" lon="1.02021">
        <ele>514.83001709</ele>
        <time>2021-10-17T09:39:59Z</time>
      </trkpt>
      <trkpt lat="43.15933" lon="1.02018">
        <ele>514.83001709</ele>
        <time>2021-10-17T09:40:00Z</time>
      </trkpt>
      <trkpt lat="43.15934" lon="1.02014">
        <ele>514.86004639</ele>
        <time>2021-10-17T09:40:01Z</time>
      </trkpt>
      <trkpt lat="43.15935" lon="1.02012">
        <ele>515.13006592</ele>
        <time>2021-10-17T09:40:02Z</time>
      </trkpt>
      <trkpt lat="43.15937" lon="1.02009">
        <ele>515.39007568</ele>
        <time>2021-10-17T09:40:03Z</time>
      </trkpt>
      <trkpt lat="43.15937" lon="1.02006">
        <ele>515.74005127</ele>
        <time>2021-10-17T09:40:04Z</time>
      </trkpt>
      <trkpt lat="43.15937" lon="1.02003">
        <ele>516.22003174</ele>
        <time>2021-10-17T09:40:05Z</time>
      </trkpt>
      <trkpt lat="43.15937" lon="1.02">
        <ele>516.59002686</ele>
        <time>2021-10-17T09:40:06Z</time>
      </trkpt>
      <trkpt lat="43.15937" lon="1.01998">
        <ele>517.01000977</ele>
        <time>2021-10-17T09:40:07Z</time>
      </trkpt>
      <trkpt lat="43.15937" lon="1.01995">
        <ele>517.39001465</ele>
        <time>2021-10-17T09:40:08Z</time>
      </trkpt>
      <trkpt lat="43.15938" lon="1.01993">
        <ele>517.73999023</ele>
        <time>2021-10-17T09:40:09Z</time>
      </trkpt>
      <trkpt lat="43.15938" lon="1.01992">
        <ele>518.03997803</ele>
        <time>2021-10-17T09:40:10Z</time>
      </trkpt>
      <trkpt lat="43.15939" lon="1.01989">
        <ele>518.33996582</ele>
        <time>2021-10-17T09:40:11Z</time>
      </trkpt>
      <trkpt lat="43.15939" lon="1.01988">
        <ele>518.67999268</ele>
        <time>2021-10-17T09:40:12Z</time>
      </trkpt>
      <trkpt lat="43.15939" lon="1.01986">
        <ele>518.97998047</ele>
        <time>2021-10-17T09:40:13Z</time>
      </trkpt>
      <trkpt lat="43.15939" lon="1.01983">
        <ele>519.34997559</ele>
        <time>2021-10-17T09:40:14Z</time>
      </trkpt>
      <trkpt lat="43.15938" lon="1.01979">
        <ele>519.70996094</ele>
        <time>2021-10-17T09:40:15Z</time>
      </trkpt>
      <trkpt lat="43.15937" lon="1.01977">
        <ele>520.08996582</ele>
        <time>2021-10-17T09:40:16Z</time>
      </trkpt>
      <trkpt lat="43.15937" lon="1.01975">
        <ele>520.45996094</ele>
        <time>2021-10-17T09:40:17Z</time>
      </trkpt>
      <trkpt lat="43.15936" lon="1.01972">
        <ele>520.74993896</ele>
        <time>2021-10-17T09:40:18Z</time>
      </trkpt>
      <trkpt lat="43.15936" lon="1.01969">
        <ele>521.00994873</ele>
        <time>2021-10-17T09:40:19Z</time>
      </trkpt>
      <trkpt lat="43.15936" lon="1.01966">
        <ele>521.18994141</ele>
        <time>2021-10-17T09:40:20Z</time>
      </trkpt>
      <trkpt lat="43.15936" lon="1.01963">
        <ele>521.29992676</ele>
        <time>2021-10-17T09:40:21Z</time>
      </trkpt>
      <trkpt lat="43.15936" lon="1.01962">
        <ele>521.39990234</ele>
        <time>2021-10-17T09:40:22Z</time>
      </trkpt>
      <trkpt lat="43.15936" lon="1.0196">
        <ele>521.40991211</ele>
        <time>2021-10-17T09:40:23Z</time>
      </trkpt>
      <trkpt lat="43.15936" lon="1.01956">
        <ele>521.38989258</ele>
        <time>2021-10-17T09:40:24Z</time>
      </trkpt>
      <trkpt lat="43.15936" lon="1.01954">
        <ele>521.33990479</ele>
        <time>2021-10-17T09:40:25Z</time>
      </trkpt>
      <trkpt lat="43.15936" lon="1.01952">
        <ele>521.30987549</ele>
        <time>2021-10-17T09:40:26Z</time>
      </trkpt>
      <trkpt lat="43.15936" lon="1.0195">
        <ele>521.32989502</ele>
        <time>2021-10-17T09:40:27Z</time>
      </trkpt>
      <trkpt lat="43.15937" lon="1.01947">
        <ele>521.30987549</ele>
        <time>2021-10-17T09:40:28Z</time>
      </trkpt>
      <trkpt lat="43.15937" lon="1.01942">
        <ele>521.28985596</ele>
        <time>2021-10-17T09:40:29Z</time>
      </trkpt>
      <trkpt lat="43.15937" lon="1.01938">
        <ele>521.20983887</ele>
        <time>2021-10-17T09:40:30Z</time>
      </trkpt>
      <trkpt lat="43.15937" lon="1.01934">
        <ele>521.04986572</ele>
        <time>2021-10-17T09:40:31Z</time>
      </trkpt>
      <trkpt lat="43.15937" lon="1.0193">
        <ele>520.91986084</ele>
        <time>2021-10-17T09:40:32Z</time>
      </trkpt>
      <trkpt lat="43.15937" lon="1.01924">
        <ele>520.68988037</ele>
        <time>2021-10-17T09:40:33Z</time>
      </trkpt>
      <trkpt lat="43.15937" lon="1.0192">
        <ele>520.56988525</ele>
        <time>2021-10-17T09:40:34Z</time>
      </trkpt>
      <trkpt lat="43.15936" lon="1.01916">
        <ele>520.44989014</ele>
        <time>2021-10-17T09:40:35Z</time>
      </trkpt>
      <trkpt lat="43.15936" lon="1.01912">
        <ele>520.40991211</ele>
        <time>2021-10-17T09:40:36Z</time>
      </trkpt>
      <trkpt lat="43.15937" lon="1.01908">
        <ele>520.42993164</ele>
        <time>2021-10-17T09:40:37Z</time>
      </trkpt>
      <trkpt lat="43.15938" lon="1.01902">
        <ele>520.34991455</ele>
        <time>2021-10-17T09:40:38Z</time>
      </trkpt>
      <trkpt lat="43.15937" lon="1.01899">
        <ele>520.38989258</ele>
        <time>2021-10-17T09:40:39Z</time>
      </trkpt>
      <trkpt lat="43.15937" lon="1.01895">
        <ele>520.39990234</ele>
        <time>2021-10-17T09:40:40Z</time>
      </trkpt>
      <trkpt lat="43.15936" lon="1.01892">
        <ele>520.38989258</ele>
        <time>2021-10-17T09:40:41Z</time>
      </trkpt>
      <trkpt lat="43.15935" lon="1.01886">
        <ele>520.44989014</ele>
        <time>2021-10-17T09:40:42Z</time>
      </trkpt>
      <trkpt lat="43.15934" lon="1.01882">
        <ele>520.40991211</ele>
        <time>2021-10-17T09:40:43Z</time>
      </trkpt>
      <trkpt lat="43.15933" lon="1.01878">
        <ele>520.30993652</ele>
        <time>2021-10-17T09:40:44Z</time>
      </trkpt>
      <trkpt lat="43.15933" lon="1.01873">
        <ele>520.12994385</ele>
        <time>2021-10-17T09:40:45Z</time>
      </trkpt>
      <trkpt lat="43.15932" lon="1.01867">
        <ele>519.7699585</ele>
        <time>2021-10-17T09:40:46Z</time>
      </trkpt>
      <trkpt lat="43.15931" lon="1.01859">
        <ele>519.27996826</ele>
        <time>2021-10-17T09:40:47Z</time>
      </trkpt>
      <trkpt lat="43.1593" lon="1.01854">
        <ele>518.81994629</ele>
        <time>2021-10-17T09:40:48Z</time>
      </trkpt>
      <trkpt lat="43.15929" lon="1.01848">
        <ele>518.43994141</ele>
        <time>2021-10-17T09:40:49Z</time>
      </trkpt>
      <trkpt lat="43.15928" lon="1.01843">
        <ele>518.17993164</ele>
        <time>2021-10-17T09:40:50Z</time>
      </trkpt>
      <trkpt lat="43.15926" lon="1.01836">
        <ele>518.03991699</ele>
        <time>2021-10-17T09:40:51Z</time>
      </trkpt>
      <trkpt lat="43.15925" lon="1.01831">
        <ele>517.83990479</ele>
        <time>2021-10-17T09:40:52Z</time>
      </trkpt>
      <trkpt lat="43.15924" lon="1.01827">
        <ele>517.56988525</ele>
        <time>2021-10-17T09:40:53Z</time>
      </trkpt>
      <trkpt lat="43.15923" lon="1.01822">
        <ele>517.35986328</ele>
        <time>2021-10-17T09:40:54Z</time>
      </trkpt>
      <trkpt lat="43.15922" lon="1.01818">
        <ele>517.17987061</ele>
        <time>2021-10-17T09:40:55Z</time>
      </trkpt>
      <trkpt lat="43.15922" lon="1.01812">
        <ele>516.93988037</ele>
        <time>2021-10-17T09:40:56Z</time>
      </trkpt>
      <trkpt lat="43.15921" lon="1.01808">
        <ele>516.87988281</ele>
        <time>2021-10-17T09:40:57Z</time>
      </trkpt>
      <trkpt lat="43.1592" lon="1.01805">
        <ele>516.78985596</ele>
        <time>2021-10-17T09:40:58Z</time>
      </trkpt>
      <trkpt lat="43.15919" lon="1.01801">
        <ele>516.66986084</ele>
        <time>2021-10-17T09:40:59Z</time>
      </trkpt>
      <trkpt lat="43.15917" lon="1.01795">
        <ele>516.84985352</ele>
        <time>2021-10-17T09:41:00Z</time>
      </trkpt>
      <trkpt lat="43.15916" lon="1.01792">
        <ele>516.9798584</ele>
        <time>2021-10-17T09:41:01Z</time>
      </trkpt>
      <trkpt lat="43.15916" lon="1.01788">
        <ele>516.88983154</ele>
        <time>2021-10-17T09:41:02Z</time>
      </trkpt>
      <trkpt lat="43.15915" lon="1.01784">
        <ele>516.88983154</ele>
        <time>2021-10-17T09:41:03Z</time>
      </trkpt>
      <trkpt lat="43.15914" lon="1.01781">
        <ele>516.68981934</ele>
        <time>2021-10-17T09:41:04Z</time>
      </trkpt>
      <trkpt lat="43.15913" lon="1.01776">
        <ele>516.49981689</ele>
        <time>2021-10-17T09:41:05Z</time>
      </trkpt>
      <trkpt lat="43.15912" lon="1.01772">
        <ele>516.42980957</ele>
        <time>2021-10-17T09:41:06Z</time>
      </trkpt>
      <trkpt lat="43.15911" lon="1.01768">
        <ele>516.35980225</ele>
        <time>2021-10-17T09:41:07Z</time>
      </trkpt>
      <trkpt lat="43.1591" lon="1.01765">
        <ele>516.22979736</ele>
        <time>2021-10-17T09:41:08Z</time>
      </trkpt>
      <trkpt lat="43.15908" lon="1.01761">
        <ele>516.08978271</ele>
        <time>2021-10-17T09:41:09Z</time>
      </trkpt>
      <trkpt lat="43.15907" lon="1.01756">
        <ele>516.24975586</ele>
        <time>2021-10-17T09:41:10Z</time>
      </trkpt>
      <trkpt lat="43.15905" lon="1.01753">
        <ele>516.24975586</ele>
        <time>2021-10-17T09:41:11Z</time>
      </trkpt>
      <trkpt lat="43.15904" lon="1.0175">
        <ele>516.39978027</ele>
        <time>2021-10-17T09:41:12Z</time>
      </trkpt>
      <trkpt lat="43.15901" lon="1.01747">
        <ele>516.52978516</ele>
        <time>2021-10-17T09:41:13Z</time>
      </trkpt>
      <trkpt lat="43.15899" lon="1.01742">
        <ele>516.50976562</ele>
        <time>2021-10-17T09:41:14Z</time>
      </trkpt>
      <trkpt lat="43.15898" lon="1.01738">
        <ele>516.47973633</ele>
        <time>2021-10-17T09:41:15Z</time>
      </trkpt>
      <trkpt lat="43.15896" lon="1.01735">
        <ele>516.41973877</ele>
        <time>2021-10-17T09:41:16Z</time>
      </trkpt>
      <trkpt lat="43.15896" lon="1.01732">
        <ele>516.24975586</ele>
        <time>2021-10-17T09:41:17Z</time>
      </trkpt>
      <trkpt lat="43.15897" lon="1.01727">
        <ele>516.19976807</ele>
        <time>2021-10-17T09:41:18Z</time>
      </trkpt>
      <trkpt lat="43.15898" lon="1.01724">
        <ele>516.25976562</ele>
        <time>2021-10-17T09:41:19Z</time>
      </trkpt>
      <trkpt lat="43.159" lon="1.01722">
        <ele>516.36975098</ele>
        <time>2021-10-17T09:41:20Z</time>
      </trkpt>
      <trkpt lat="43.15903" lon="1.01721">
        <ele>516.36975098</ele>
        <time>2021-10-17T09:41:21Z</time>
      </trkpt>
      <trkpt lat="43.15906" lon="1.01719">
        <ele>516.37976074</ele>
        <time>2021-10-17T09:41:22Z</time>
      </trkpt>
      <trkpt lat="43.15909" lon="1.01716">
        <ele>516.4697876</ele>
        <time>2021-10-17T09:41:23Z</time>
      </trkpt>
      <trkpt lat="43.15912" lon="1.01715">
        <ele>516.65979004</ele>
        <time>2021-10-17T09:41:24Z</time>
      </trkpt>
      <trkpt lat="43.15914" lon="1.01713">
        <ele>516.88977051</ele>
        <time>2021-10-17T09:41:25Z</time>
      </trkpt>
      <trkpt lat="43.15916" lon="1.01712">
        <ele>517.08978271</ele>
        <time>2021-10-17T09:41:26Z</time>
      </trkpt>
      <trkpt lat="43.1592" lon="1.01709">
        <ele>517.31976318</ele>
        <time>2021-10-17T09:41:27Z</time>
      </trkpt>
      <trkpt lat="43.15923" lon="1.01708">
        <ele>517.4697876</ele>
        <time>2021-10-17T09:41:28Z</time>
      </trkpt>
      <trkpt lat="43.15925" lon="1.01706">
        <ele>517.62976074</ele>
        <time>2021-10-17T09:41:29Z</time>
      </trkpt>
      <trkpt lat="43.15928" lon="1.01705">
        <ele>517.73974609</ele>
        <time>2021-10-17T09:41:30Z</time>
      </trkpt>
      <trkpt lat="43.15931" lon="1.01702">
        <ele>517.77972412</ele>
        <time>2021-10-17T09:41:31Z</time>
      </trkpt>
      <trkpt lat="43.15933" lon="1.01699">
        <ele>517.88970947</ele>
        <time>2021-10-17T09:41:32Z</time>
      </trkpt>
      <trkpt lat="43.15935" lon="1.01696">
        <ele>517.94970703</ele>
        <time>2021-10-17T09:41:33Z</time>
      </trkpt>
      <trkpt lat="43.15937" lon="1.01693">
        <ele>518.04968262</ele>
        <time>2021-10-17T09:41:34Z</time>
      </trkpt>
      <trkpt lat="43.15939" lon="1.0169">
        <ele>518.19970703</ele>
        <time>2021-10-17T09:41:35Z</time>
      </trkpt>
      <trkpt lat="43.15942" lon="1.01685">
        <ele>518.30969238</ele>
        <time>2021-10-17T09:41:36Z</time>
      </trkpt>
      <trkpt lat="43.15943" lon="1.01682">
        <ele>518.39971924</ele>
        <time>2021-10-17T09:41:37Z</time>
      </trkpt>
      <trkpt lat="43.15944" lon="1.01679">
        <ele>518.56970215</ele>
        <time>2021-10-17T09:41:38Z</time>
      </trkpt>
      <trkpt lat="43.15945" lon="1.01676">
        <ele>518.58972168</ele>
        <time>2021-10-17T09:41:39Z</time>
      </trkpt>
      <trkpt lat="43.15947" lon="1.01673">
        <ele>518.61975098</ele>
        <time>2021-10-17T09:41:40Z</time>
      </trkpt>
      <trkpt lat="43.15949" lon="1.01669">
        <ele>518.62976074</ele>
        <time>2021-10-17T09:41:41Z</time>
      </trkpt>
      <trkpt lat="43.1595" lon="1.01666">
        <ele>518.54974365</ele>
        <time>2021-10-17T09:41:42Z</time>
      </trkpt>
      <trkpt lat="43.15951" lon="1.01663">
        <ele>518.60974121</ele>
        <time>2021-10-17T09:41:43Z</time>
      </trkpt>
      <trkpt lat="43.15952" lon="1.01658">
        <ele>518.67974854</ele>
        <time>2021-10-17T09:41:44Z</time>
      </trkpt>
      <trkpt lat="43.15954" lon="1.01651">
        <ele>518.64971924</ele>
        <time>2021-10-17T09:41:45Z</time>
      </trkpt>
      <trkpt lat="43.15955" lon="1.01646">
        <ele>518.54974365</ele>
        <time>2021-10-17T09:41:46Z</time>
      </trkpt>
      <trkpt lat="43.15956" lon="1.01643">
        <ele>518.54974365</ele>
        <time>2021-10-17T09:41:47Z</time>
      </trkpt>
      <trkpt lat="43.15957" lon="1.01639">
        <ele>518.49975586</ele>
        <time>2021-10-17T09:41:48Z</time>
      </trkpt>
      <trkpt lat="43.15957" lon="1.01634">
        <ele>518.39978027</ele>
        <time>2021-10-17T09:41:49Z</time>
      </trkpt>
      <trkpt lat="43.15958" lon="1.01631">
        <ele>518.4697876</ele>
        <time>2021-10-17T09:41:50Z</time>
      </trkpt>
      <trkpt lat="43.15959" lon="1.01628">
        <ele>518.36981201</ele>
        <time>2021-10-17T09:41:51Z</time>
      </trkpt>
      <trkpt lat="43.1596" lon="1.01625">
        <ele>518.33978271</ele>
        <time>2021-10-17T09:41:52Z</time>
      </trkpt>
      <trkpt lat="43.1596" lon="1.01622">
        <ele>518.39978027</ele>
        <time>2021-10-17T09:41:53Z</time>
      </trkpt>
      <trkpt lat="43.15962" lon="1.01617">
        <ele>518.32977295</ele>
        <time>2021-10-17T09:41:54Z</time>
      </trkpt>
      <trkpt lat="43.15963" lon="1.01613">
        <ele>518.32977295</ele>
        <time>2021-10-17T09:41:55Z</time>
      </trkpt>
      <trkpt lat="43.15964" lon="1.0161">
        <ele>518.29974365</ele>
        <time>2021-10-17T09:41:56Z</time>
      </trkpt>
      <trkpt lat="43.15965" lon="1.01607">
        <ele>518.34973145</ele>
        <time>2021-10-17T09:41:57Z</time>
      </trkpt>
      <trkpt lat="43.15965" lon="1.01603">
        <ele>518.4397583</ele>
        <time>2021-10-17T09:41:58Z</time>
      </trkpt>
      <trkpt lat="43.15966" lon="1.01597">
        <ele>518.41973877</ele>
        <time>2021-10-17T09:41:59Z</time>
      </trkpt>
      <trkpt lat="43.15966" lon="1.01594">
        <ele>518.409729</ele>
        <time>2021-10-17T09:42:00Z</time>
      </trkpt>
      <trkpt lat="43.15966" lon="1.0159">
        <ele>518.37969971</ele>
        <time>2021-10-17T09:42:01Z</time>
      </trkpt>
      <trkpt lat="43.15966" lon="1.01586">
        <ele>518.31970215</ele>
        <time>2021-10-17T09:42:02Z</time>
      </trkpt>
      <trkpt lat="43.15967" lon="1.01581">
        <ele>518.36968994</ele>
        <time>2021-10-17T09:42:03Z</time>
      </trkpt>
      <trkpt lat="43.15969" lon="1.01577">
        <ele>518.39971924</ele>
        <time>2021-10-17T09:42:04Z</time>
      </trkpt>
      <trkpt lat="43.1597" lon="1.01571">
        <ele>518.409729</ele>
        <time>2021-10-17T09:42:05Z</time>
      </trkpt>
      <trkpt lat="43.15971" lon="1.01568">
        <ele>518.42974854</ele>
        <time>2021-10-17T09:42:06Z</time>
      </trkpt>
      <trkpt lat="43.15972" lon="1.01564">
        <ele>518.44976807</ele>
        <time>2021-10-17T09:42:07Z</time>
      </trkpt>
      <trkpt lat="43.15971" lon="1.01561">
        <ele>518.47979736</ele>
        <time>2021-10-17T09:42:08Z</time>
      </trkpt>
      <trkpt lat="43.15972" lon="1.01558">
        <ele>518.58978271</ele>
        <time>2021-10-17T09:42:09Z</time>
      </trkpt>
      <trkpt lat="43.15972" lon="1.01556">
        <ele>518.73980713</ele>
        <time>2021-10-17T09:42:10Z</time>
      </trkpt>
      <trkpt lat="43.15971" lon="1.01553">
        <ele>518.80981445</ele>
        <time>2021-10-17T09:42:11Z</time>
      </trkpt>
      <trkpt lat="43.1597" lon="1.01548">
        <ele>519.00982666</ele>
        <time>2021-10-17T09:42:12Z</time>
      </trkpt>
      <trkpt lat="43.15969" lon="1.01545">
        <ele>519.20983887</ele>
        <time>2021-10-17T09:42:13Z</time>
      </trkpt>
      <trkpt lat="43.15969" lon="1.01541">
        <ele>519.39984131</ele>
        <time>2021-10-17T09:42:14Z</time>
      </trkpt>
      <trkpt lat="43.15968" lon="1.01538">
        <ele>519.51983643</ele>
        <time>2021-10-17T09:42:15Z</time>
      </trkpt>
      <trkpt lat="43.15968" lon="1.01534">
        <ele>519.52984619</ele>
        <time>2021-10-17T09:42:16Z</time>
      </trkpt>
      <trkpt lat="43.15967" lon="1.01529">
        <ele>519.52984619</ele>
        <time>2021-10-17T09:42:17Z</time>
      </trkpt>
      <trkpt lat="43.15966" lon="1.01525">
        <ele>519.51983643</ele>
        <time>2021-10-17T09:42:18Z</time>
      </trkpt>
      <trkpt lat="43.15966" lon="1.01522">
        <ele>519.53985596</ele>
        <time>2021-10-17T09:42:19Z</time>
      </trkpt>
      <trkpt lat="43.15966" lon="1.01519">
        <ele>519.63983154</ele>
        <time>2021-10-17T09:42:20Z</time>
      </trkpt>
      <trkpt lat="43.15967" lon="1.01515">
        <ele>519.77984619</ele>
        <time>2021-10-17T09:42:21Z</time>
      </trkpt>
      <trkpt lat="43.15968" lon="1.01512">
        <ele>519.88983154</ele>
        <time>2021-10-17T09:42:22Z</time>
      </trkpt>
      <trkpt lat="43.15967" lon="1.01508">
        <ele>519.96984863</ele>
        <time>2021-10-17T09:42:23Z</time>
      </trkpt>
      <trkpt lat="43.15968" lon="1.01505">
        <ele>519.91986084</ele>
        <time>2021-10-17T09:42:24Z</time>
      </trkpt>
      <trkpt lat="43.15966" lon="1.01499">
        <ele>519.73986816</ele>
        <time>2021-10-17T09:42:25Z</time>
      </trkpt>
      <trkpt lat="43.15967" lon="1.01496">
        <ele>519.52984619</ele>
        <time>2021-10-17T09:42:26Z</time>
      </trkpt>
      <trkpt lat="43.15967" lon="1.01494">
        <ele>519.33984375</ele>
        <time>2021-10-17T09:42:27Z</time>
      </trkpt>
      <trkpt lat="43.15968" lon="1.01491">
        <ele>519.24981689</ele>
        <time>2021-10-17T09:42:28Z</time>
      </trkpt>
      <trkpt lat="43.15968" lon="1.01488">
        <ele>519.10980225</ele>
        <time>2021-10-17T09:42:29Z</time>
      </trkpt>
      <trkpt lat="43.15969" lon="1.01486">
        <ele>519.06982422</ele>
        <time>2021-10-17T09:42:30Z</time>
      </trkpt>
      <trkpt lat="43.15971" lon="1.01485">
        <ele>519.04980469</ele>
        <time>2021-10-17T09:42:31Z</time>
      </trkpt>
      <trkpt lat="43.15972" lon="1.01485">
        <ele>518.9498291</ele>
        <time>2021-10-17T09:42:32Z</time>
      </trkpt>
      <trkpt lat="43.15973" lon="1.01484">
        <ele>519.07983398</ele>
        <time>2021-10-17T09:42:33Z</time>
      </trkpt>
      <trkpt lat="43.15975" lon="1.01483">
        <ele>519.14984131</ele>
        <time>2021-10-17T09:42:34Z</time>
      </trkpt>
      <trkpt lat="43.15978" lon="1.01481">
        <ele>519.15985107</ele>
        <time>2021-10-17T09:42:35Z</time>
      </trkpt>
      <trkpt lat="43.15979" lon="1.0148">
        <ele>519.21984863</ele>
        <time>2021-10-17T09:42:36Z</time>
      </trkpt>
      <trkpt lat="43.15981" lon="1.01478">
        <ele>519.17987061</ele>
        <time>2021-10-17T09:42:37Z</time>
      </trkpt>
      <trkpt lat="43.15983" lon="1.01475">
        <ele>519.2098999</ele>
        <time>2021-10-17T09:42:38Z</time>
      </trkpt>
      <trkpt lat="43.15986" lon="1.01474">
        <ele>519.40991211</ele>
        <time>2021-10-17T09:42:39Z</time>
      </trkpt>
      <trkpt lat="43.15988" lon="1.01475">
        <ele>519.69989014</ele>
        <time>2021-10-17T09:42:40Z</time>
      </trkpt>
      <trkpt lat="43.15989" lon="1.01474">
        <ele>520.05987549</ele>
        <time>2021-10-17T09:42:41Z</time>
      </trkpt>
      <trkpt lat="43.15991" lon="1.01474">
        <ele>520.44989014</ele>
        <time>2021-10-17T09:42:42Z</time>
      </trkpt>
      <trkpt lat="43.15992" lon="1.01473">
        <ele>520.87988281</ele>
        <time>2021-10-17T09:42:43Z</time>
      </trkpt>
      <trkpt lat="43.15994" lon="1.01472">
        <ele>521.28985596</ele>
        <time>2021-10-17T09:42:44Z</time>
      </trkpt>
      <trkpt lat="43.15995" lon="1.01471">
        <ele>521.65985107</ele>
        <time>2021-10-17T09:42:45Z</time>
      </trkpt>
      <trkpt lat="43.15996" lon="1.0147">
        <ele>522.08984375</ele>
        <time>2021-10-17T09:42:46Z</time>
      </trkpt>
      <trkpt lat="43.15997" lon="1.0147">
        <ele>522.50982666</ele>
        <time>2021-10-17T09:42:47Z</time>
      </trkpt>
      <trkpt lat="43.15999" lon="1.01469">
        <ele>522.85980225</ele>
        <time>2021-10-17T09:42:48Z</time>
      </trkpt>
      <trkpt lat="43.16001" lon="1.01468">
        <ele>523.24981689</ele>
        <time>2021-10-17T09:42:49Z</time>
      </trkpt>
      <trkpt lat="43.16004" lon="1.01466">
        <ele>523.49981689</ele>
        <time>2021-10-17T09:42:50Z</time>
      </trkpt>
      <trkpt lat="43.16006" lon="1.01465">
        <ele>523.67980957</ele>
        <time>2021-10-17T09:42:51Z</time>
      </trkpt>
      <trkpt lat="43.16009" lon="1.01462">
        <ele>523.95983887</ele>
        <time>2021-10-17T09:42:52Z</time>
      </trkpt>
      <trkpt lat="43.16009" lon="1.01461">
        <ele>524.20983887</ele>
        <time>2021-10-17T09:42:53Z</time>
      </trkpt>
      <trkpt lat="43.16009" lon="1.0146">
        <ele>524.51983643</ele>
        <time>2021-10-17T09:42:54Z</time>
      </trkpt>
      <trkpt lat="43.1601" lon="1.0146">
        <ele>524.82983398</ele>
        <time>2021-10-17T09:42:55Z</time>
      </trkpt>
      <trkpt lat="43.1601" lon="1.01459">
        <ele>525.08984375</ele>
        <time>2021-10-17T09:42:56Z</time>
      </trkpt>
      <trkpt lat="43.16011" lon="1.01458">
        <ele>525.38983154</ele>
        <time>2021-10-17T09:42:57Z</time>
      </trkpt>
      <trkpt lat="43.1601" lon="1.01459">
        <ele>525.65985107</ele>
        <time>2021-10-17T09:42:58Z</time>
      </trkpt>
      <trkpt lat="43.1601" lon="1.01457">
        <ele>526.48999023</ele>
        <time>2021-10-17T09:42:58Z</time>
      </trkpt>
      <trkpt lat="43.16008" lon="1.01439">
        <ele>528.26000977</ele>
        <time>2021-10-17T09:43:52Z</time>
      </trkpt>
      <trkpt lat="43.16008" lon="1.01439">
        <ele>528.39001465</ele>
        <time>2021-10-17T09:43:53Z</time>
      </trkpt>
      <trkpt lat="43.16008" lon="1.0144">
        <ele>528.54003906</ele>
        <time>2021-10-17T09:43:54Z</time>
      </trkpt>
      <trkpt lat="43.16003" lon="1.01437">
        <ele>529.59002686</ele>
        <time>2021-10-17T09:44:09Z</time>
      </trkpt>
      <trkpt lat="43.16002" lon="1.01436">
        <ele>529.72003174</ele>
        <time>2021-10-17T09:44:10Z</time>
      </trkpt>
      <trkpt lat="43.16" lon="1.01436">
        <ele>529.91003418</ele>
        <time>2021-10-17T09:44:11Z</time>
      </trkpt>
      <trkpt lat="43.15999" lon="1.01436">
        <ele>530.12005615</ele>
        <time>2021-10-17T09:44:12Z</time>
      </trkpt>
      <trkpt lat="43.15997" lon="1.01434">
        <ele>530.36004639</ele>
        <time>2021-10-17T09:44:13Z</time>
      </trkpt>
      <trkpt lat="43.15996" lon="1.01433">
        <ele>530.72003174</ele>
        <time>2021-10-17T09:44:14Z</time>
      </trkpt>
      <trkpt lat="43.15994" lon="1.01432">
        <ele>531.07000732</ele>
        <time>2021-10-17T09:44:15Z</time>
      </trkpt>
      <trkpt lat="43.15992" lon="1.01431">
        <ele>531.5</ele>
        <time>2021-10-17T09:44:16Z</time>
      </trkpt>
      <trkpt lat="43.15991" lon="1.0143">
        <ele>531.9699707</ele>
        <time>2021-10-17T09:44:17Z</time>
      </trkpt>
      <trkpt lat="43.15989" lon="1.01429">
        <ele>532.43994141</ele>
        <time>2021-10-17T09:44:18Z</time>
      </trkpt>
      <trkpt lat="43.15988" lon="1.01429">
        <ele>532.93994141</ele>
        <time>2021-10-17T09:44:19Z</time>
      </trkpt>
      <trkpt lat="43.15987" lon="1.0143">
        <ele>533.42993164</ele>
        <time>2021-10-17T09:44:20Z</time>
      </trkpt>
      <trkpt lat="43.15986" lon="1.01429">
        <ele>533.87994385</ele>
        <time>2021-10-17T09:44:21Z</time>
      </trkpt>
      <trkpt lat="43.15985" lon="1.01429">
        <ele>534.17993164</ele>
        <time>2021-10-17T09:44:22Z</time>
      </trkpt>
      <trkpt lat="43.15985" lon="1.01429">
        <ele>534.55993652</ele>
        <time>2021-10-17T09:44:23Z</time>
      </trkpt>
      <trkpt lat="43.15985" lon="1.01429">
        <ele>534.90991211</ele>
        <time>2021-10-17T09:44:24Z</time>
      </trkpt>
      <trkpt lat="43.15977" lon="1.01429">
        <ele>536.09997559</ele>
        <time>2021-10-17T09:45:06Z</time>
      </trkpt>
      <trkpt lat="43.15977" lon="1.01429">
        <ele>536.08996582</ele>
        <time>2021-10-17T09:45:07Z</time>
      </trkpt>
      <trkpt lat="43.15976" lon="1.0143">
        <ele>536.11999512</ele>
        <time>2021-10-17T09:45:08Z</time>
      </trkpt>
      <trkpt lat="43.15979" lon="1.01427">
        <ele>535.80999756</ele>
        <time>2021-10-17T09:45:33Z</time>
      </trkpt>
      <trkpt lat="43.1598" lon="1.01426">
        <ele>535.83001709</ele>
        <time>2021-10-17T09:45:34Z</time>
      </trkpt>
      <trkpt lat="43.15981" lon="1.01425">
        <ele>535.97003174</ele>
        <time>2021-10-17T09:45:35Z</time>
      </trkpt>
      <trkpt lat="43.15982" lon="1.01424">
        <ele>536.17004395</ele>
        <time>2021-10-17T09:45:36Z</time>
      </trkpt>
      <trkpt lat="43.15983" lon="1.01425">
        <ele>536.47003174</ele>
        <time>2021-10-17T09:45:37Z</time>
      </trkpt>
      <trkpt lat="43.15983" lon="1.01424">
        <ele>536.89001465</ele>
        <time>2021-10-17T09:45:38Z</time>
      </trkpt>
      <trkpt lat="43.15983" lon="1.01425">
        <ele>537.09997559</ele>
        <time>2021-10-17T09:45:41Z</time>
      </trkpt>
      <trkpt lat="43.15984" lon="1.01425">
        <ele>536.94000244</ele>
        <time>2021-10-17T09:45:42Z</time>
      </trkpt>
      <trkpt lat="43.15984" lon="1.01424">
        <ele>536.97003174</ele>
        <time>2021-10-17T09:45:43Z</time>
      </trkpt>
      <trkpt lat="43.15984" lon="1.01424">
        <ele>537.00006104</ele>
        <time>2021-10-17T09:45:44Z</time>
      </trkpt>
      <trkpt lat="43.15985" lon="1.01422">
        <ele>537.70001221</ele>
        <time>2021-10-17T09:45:53Z</time>
      </trkpt>
      <trkpt lat="43.15985" lon="1.01422">
        <ele>538.0300293</ele>
        <time>2021-10-17T09:45:54Z</time>
      </trkpt>
      <trkpt lat="43.15985" lon="1.01422">
        <ele>538.29003906</ele>
        <time>2021-10-17T09:45:55Z</time>
      </trkpt>
      <trkpt lat="43.15985" lon="1.01422">
        <ele>538.57006836</ele>
        <time>2021-10-17T09:45:56Z</time>
      </trkpt>
      <trkpt lat="43.15986" lon="1.01421">
        <ele>538.84008789</ele>
        <time>2021-10-17T09:45:57Z</time>
      </trkpt>
      <trkpt lat="43.15986" lon="1.01421">
        <ele>539.09008789</ele>
        <time>2021-10-17T09:45:58Z</time>
      </trkpt>
      <trkpt lat="43.15987" lon="1.0142">
        <ele>539.42010498</ele>
        <time>2021-10-17T09:45:59Z</time>
      </trkpt>
      <trkpt lat="43.15988" lon="1.0142">
        <ele>539.73010254</ele>
        <time>2021-10-17T09:46:00Z</time>
      </trkpt>
      <trkpt lat="43.15989" lon="1.0142">
        <ele>540.10009766</ele>
        <time>2021-10-17T09:46:01Z</time>
      </trkpt>
      <trkpt lat="43.1599" lon="1.01419">
        <ele>540.45007324</ele>
        <time>2021-10-17T09:46:02Z</time>
      </trkpt>
      <trkpt lat="43.1599" lon="1.01418">
        <ele>540.74005127</ele>
        <time>2021-10-17T09:46:03Z</time>
      </trkpt>
      <trkpt lat="43.15991" lon="1.01418">
        <ele>541.0100708</ele>
        <time>2021-10-17T09:46:04Z</time>
      </trkpt>
      <trkpt lat="43.15991" lon="1.01418">
        <ele>541.19006348</ele>
        <time>2021-10-17T09:46:05Z</time>
      </trkpt>
      <trkpt lat="43.15992" lon="1.01417">
        <ele>541.42004395</ele>
        <time>2021-10-17T09:46:06Z</time>
      </trkpt>
      <trkpt lat="43.15992" lon="1.01416">
        <ele>541.65002441</ele>
        <time>2021-10-17T09:46:07Z</time>
      </trkpt>
      <trkpt lat="43.15992" lon="1.01416">
        <ele>541.86004639</ele>
        <time>2021-10-17T09:46:08Z</time>
      </trkpt>
      <trkpt lat="43.15993" lon="1.01416">
        <ele>542.05004883</ele>
        <time>2021-10-17T09:46:09Z</time>
      </trkpt>
      <trkpt lat="43.15993" lon="1.01415">
        <ele>542.24005127</ele>
        <time>2021-10-17T09:46:10Z</time>
      </trkpt>
      <trkpt lat="43.15993" lon="1.01414">
        <ele>542.41003418</ele>
        <time>2021-10-17T09:46:11Z</time>
      </trkpt>
      <trkpt lat="43.15994" lon="1.01413">
        <ele>542.59002686</ele>
        <time>2021-10-17T09:46:12Z</time>
      </trkpt>
      <trkpt lat="43.15994" lon="1.01412">
        <ele>542.79003906</ele>
        <time>2021-10-17T09:46:13Z</time>
      </trkpt>
      <trkpt lat="43.15994" lon="1.01412">
        <ele>542.9800415</ele>
        <time>2021-10-17T09:46:14Z</time>
      </trkpt>
      <trkpt lat="43.15995" lon="1.01412">
        <ele>543.19006348</ele>
        <time>2021-10-17T09:46:15Z</time>
      </trkpt>
      <trkpt lat="43.15995" lon="1.01411">
        <ele>543.40008545</ele>
        <time>2021-10-17T09:46:16Z</time>
      </trkpt>
      <trkpt lat="43.15996" lon="1.01411">
        <ele>543.59008789</ele>
        <time>2021-10-17T09:46:17Z</time>
      </trkpt>
      <trkpt lat="43.15996" lon="1.0141">
        <ele>543.80010986</ele>
        <time>2021-10-17T09:46:18Z</time>
      </trkpt>
      <trkpt lat="43.15996" lon="1.0141">
        <ele>543.9901123</ele>
        <time>2021-10-17T09:46:19Z</time>
      </trkpt>
      <trkpt lat="43.15997" lon="1.01409">
        <ele>544.2401123</ele>
        <time>2021-10-17T09:46:20Z</time>
      </trkpt>
      <trkpt lat="43.15997" lon="1.01408">
        <ele>544.43011475</ele>
        <time>2021-10-17T09:46:21Z</time>
      </trkpt>
      <trkpt lat="43.15998" lon="1.01408">
        <ele>544.62011719</ele>
        <time>2021-10-17T09:46:22Z</time>
      </trkpt>
      <trkpt lat="43.15999" lon="1.01406">
        <ele>544.76013184</ele>
        <time>2021-10-17T09:46:23Z</time>
      </trkpt>
      <trkpt lat="43.16" lon="1.01405">
        <ele>544.84014893</ele>
        <time>2021-10-17T09:46:24Z</time>
      </trkpt>
      <trkpt lat="43.16" lon="1.01404">
        <ele>545.00012207</ele>
        <time>2021-10-17T09:46:25Z</time>
      </trkpt>
      <trkpt lat="43.16" lon="1.01404">
        <ele>545.08013916</ele>
        <time>2021-10-17T09:46:26Z</time>
      </trkpt>
      <trkpt lat="43.16001" lon="1.01404">
        <ele>545.18011475</ele>
        <time>2021-10-17T09:46:27Z</time>
      </trkpt>
      <trkpt lat="43.16001" lon="1.01404">
        <ele>545.28009033</ele>
        <time>2021-10-17T09:46:28Z</time>
      </trkpt>
      <trkpt lat="43.16001" lon="1.01403">
        <ele>545.35009766</ele>
        <time>2021-10-17T09:46:29Z</time>
      </trkpt>
      <trkpt lat="43.16002" lon="1.01402">
        <ele>545.5100708</ele>
        <time>2021-10-17T09:46:30Z</time>
      </trkpt>
      <trkpt lat="43.16002" lon="1.01401">
        <ele>545.65008545</ele>
        <time>2021-10-17T09:46:31Z</time>
      </trkpt>
      <trkpt lat="43.16003" lon="1.01401">
        <ele>545.84008789</ele>
        <time>2021-10-17T09:46:32Z</time>
      </trkpt>
      <trkpt lat="43.16003" lon="1.014">
        <ele>546.03009033</ele>
        <time>2021-10-17T09:46:33Z</time>
      </trkpt>
      <trkpt lat="43.16004" lon="1.014">
        <ele>546.22009277</ele>
        <time>2021-10-17T09:46:34Z</time>
      </trkpt>
      <trkpt lat="43.16004" lon="1.01399">
        <ele>546.44006348</ele>
        <time>2021-10-17T09:46:35Z</time>
      </trkpt>
      <trkpt lat="43.16004" lon="1.01398">
        <ele>546.66003418</ele>
        <time>2021-10-17T09:46:36Z</time>
      </trkpt>
      <trkpt lat="43.16005" lon="1.01397">
        <ele>546.91003418</ele>
        <time>2021-10-17T09:46:37Z</time>
      </trkpt>
      <trkpt lat="43.16005" lon="1.01397">
        <ele>547.12005615</ele>
        <time>2021-10-17T09:46:38Z</time>
      </trkpt>
      <trkpt lat="43.16005" lon="1.01396">
        <ele>547.38006592</ele>
        <time>2021-10-17T09:46:39Z</time>
      </trkpt>
      <trkpt lat="43.16005" lon="1.01396">
        <ele>547.55004883</ele>
        <time>2021-10-17T09:46:40Z</time>
      </trkpt>
      <trkpt lat="43.16006" lon="1.01395">
        <ele>547.70007324</ele>
        <time>2021-10-17T09:46:41Z</time>
      </trkpt>
      <trkpt lat="43.16006" lon="1.01395">
        <ele>547.81005859</ele>
        <time>2021-10-17T09:46:42Z</time>
      </trkpt>
      <trkpt lat="43.16006" lon="1.01394">
        <ele>547.88006592</ele>
        <time>2021-10-17T09:46:43Z</time>
      </trkpt>
      <trkpt lat="43.16006" lon="1.01394">
        <ele>548.00006104</ele>
        <time>2021-10-17T09:46:44Z</time>
      </trkpt>
      <trkpt lat="43.16007" lon="1.01394">
        <ele>548.24005127</ele>
        <time>2021-10-17T09:46:46Z</time>
      </trkpt>
      <trkpt lat="43.16008" lon="1.01393">
        <ele>548.41003418</ele>
        <time>2021-10-17T09:46:47Z</time>
      </trkpt>
      <trkpt lat="43.16008" lon="1.01393">
        <ele>548.63000488</ele>
        <time>2021-10-17T09:46:48Z</time>
      </trkpt>
      <trkpt lat="43.16008" lon="1.01393">
        <ele>548.85998535</ele>
        <time>2021-10-17T09:46:49Z</time>
      </trkpt>
      <trkpt lat="43.16009" lon="1.01392">
        <ele>549.14001465</ele>
        <time>2021-10-17T09:46:50Z</time>
      </trkpt>
      <trkpt lat="43.16009" lon="1.01391">
        <ele>549.39001465</ele>
        <time>2021-10-17T09:46:51Z</time>
      </trkpt>
      <trkpt lat="43.1601" lon="1.0139">
        <ele>549.59002686</ele>
        <time>2021-10-17T09:46:52Z</time>
      </trkpt>
      <trkpt lat="43.1601" lon="1.0139">
        <ele>549.80999756</ele>
        <time>2021-10-17T09:46:53Z</time>
      </trkpt>
      <trkpt lat="43.16011" lon="1.01389">
        <ele>549.9699707</ele>
        <time>2021-10-17T09:46:54Z</time>
      </trkpt>
      <trkpt lat="43.16011" lon="1.01389">
        <ele>550.13995361</ele>
        <time>2021-10-17T09:46:55Z</time>
      </trkpt>
      <trkpt lat="43.16011" lon="1.01388">
        <ele>550.44000244</ele>
        <time>2021-10-17T09:46:55Z</time>
      </trkpt>
      <trkpt lat="43.16013" lon="1.01378">
        <ele>552.97003174</ele>
        <time>2021-10-17T09:47:41Z</time>
      </trkpt>
      <trkpt lat="43.16013" lon="1.01378">
        <ele>553.09002686</ele>
        <time>2021-10-17T09:47:42Z</time>
      </trkpt>
      <trkpt lat="43.16013" lon="1.01377">
        <ele>553.22003174</ele>
        <time>2021-10-17T09:47:43Z</time>
      </trkpt>
      <trkpt lat="43.16013" lon="1.01376">
        <ele>553.31005859</ele>
        <time>2021-10-17T09:47:44Z</time>
      </trkpt>
      <trkpt lat="43.16014" lon="1.01373">
        <ele>553.94000244</ele>
        <time>2021-10-17T09:47:48Z</time>
      </trkpt>
      <trkpt lat="43.16014" lon="1.01372">
        <ele>554.10998535</ele>
        <time>2021-10-17T09:47:49Z</time>
      </trkpt>
      <trkpt lat="43.16015" lon="1.01372">
        <ele>554.30999756</ele>
        <time>2021-10-17T09:47:50Z</time>
      </trkpt>
      <trkpt lat="43.16015" lon="1.01371">
        <ele>554.52996826</ele>
        <time>2021-10-17T09:47:51Z</time>
      </trkpt>
      <trkpt lat="43.16015" lon="1.01371">
        <ele>554.74993896</ele>
        <time>2021-10-17T09:47:52Z</time>
      </trkpt>
      <trkpt lat="43.16015" lon="1.0137">
        <ele>555.03991699</ele>
        <time>2021-10-17T09:47:53Z</time>
      </trkpt>
      <trkpt lat="43.16015" lon="1.01368">
        <ele>555.39990234</ele>
        <time>2021-10-17T09:47:54Z</time>
      </trkpt>
      <trkpt lat="43.16014" lon="1.01367">
        <ele>555.74987793</ele>
        <time>2021-10-17T09:47:55Z</time>
      </trkpt>
      <trkpt lat="43.16014" lon="1.01367">
        <ele>556.11987305</ele>
        <time>2021-10-17T09:47:56Z</time>
      </trkpt>
      <trkpt lat="43.16014" lon="1.01366">
        <ele>556.43988037</ele>
        <time>2021-10-17T09:47:57Z</time>
      </trkpt>
      <trkpt lat="43.16014" lon="1.01365">
        <ele>556.65985107</ele>
        <time>2021-10-17T09:47:58Z</time>
      </trkpt>
      <trkpt lat="43.16014" lon="1.01365">
        <ele>556.90985107</ele>
        <time>2021-10-17T09:47:59Z</time>
      </trkpt>
      <trkpt lat="43.16014" lon="1.01364">
        <ele>557.12982178</ele>
        <time>2021-10-17T09:48:00Z</time>
      </trkpt>
      <trkpt lat="43.16015" lon="1.01364">
        <ele>557.31982422</ele>
        <time>2021-10-17T09:48:01Z</time>
      </trkpt>
      <trkpt lat="43.16015" lon="1.01363">
        <ele>557.55981445</ele>
        <time>2021-10-17T09:48:02Z</time>
      </trkpt>
      <trkpt lat="43.16014" lon="1.01361">
        <ele>557.73980713</ele>
        <time>2021-10-17T09:48:03Z</time>
      </trkpt>
      <trkpt lat="43.16014" lon="1.01361">
        <ele>557.88983154</ele>
        <time>2021-10-17T09:48:04Z</time>
      </trkpt>
      <trkpt lat="43.16015" lon="1.0136">
        <ele>558.07983398</ele>
        <time>2021-10-17T09:48:05Z</time>
      </trkpt>
      <trkpt lat="43.16015" lon="1.0136">
        <ele>558.23980713</ele>
        <time>2021-10-17T09:48:06Z</time>
      </trkpt>
      <trkpt lat="43.16015" lon="1.01359">
        <ele>558.42980957</ele>
        <time>2021-10-17T09:48:07Z</time>
      </trkpt>
      <trkpt lat="43.16015" lon="1.01355">
        <ele>559.07000732</ele>
        <time>2021-10-17T09:48:14Z</time>
      </trkpt>
      <trkpt lat="43.16016" lon="1.01354">
        <ele>559.29998779</ele>
        <time>2021-10-17T09:48:15Z</time>
      </trkpt>
      <trkpt lat="43.16016" lon="1.01353">
        <ele>559.53997803</ele>
        <time>2021-10-17T09:48:16Z</time>
      </trkpt>
      <trkpt lat="43.16016" lon="1.01352">
        <ele>559.77996826</ele>
        <time>2021-10-17T09:48:17Z</time>
      </trkpt>
      <trkpt lat="43.16017" lon="1.01352">
        <ele>559.98999023</ele>
        <time>2021-10-17T09:48:18Z</time>
      </trkpt>
      <trkpt lat="43.16017" lon="1.01351">
        <ele>560.20996094</ele>
        <time>2021-10-17T09:48:19Z</time>
      </trkpt>
      <trkpt lat="43.16018" lon="1.01351">
        <ele>560.38995361</ele>
        <time>2021-10-17T09:48:20Z</time>
      </trkpt>
      <trkpt lat="43.16018" lon="1.0135">
        <ele>560.52996826</ele>
        <time>2021-10-17T09:48:21Z</time>
      </trkpt>
      <trkpt lat="43.16019" lon="1.01349">
        <ele>560.66998291</ele>
        <time>2021-10-17T09:48:22Z</time>
      </trkpt>
      <trkpt lat="43.16019" lon="1.01348">
        <ele>560.82995605</ele>
        <time>2021-10-17T09:48:23Z</time>
      </trkpt>
      <trkpt lat="43.1602" lon="1.01347">
        <ele>560.95996094</ele>
        <time>2021-10-17T09:48:24Z</time>
      </trkpt>
      <trkpt lat="43.1602" lon="1.01347">
        <ele>561.14996338</ele>
        <time>2021-10-17T09:48:26Z</time>
      </trkpt>
      <trkpt lat="43.16024" lon="1.01336">
        <ele>561.9699707</ele>
        <time>2021-10-17T09:48:54Z</time>
      </trkpt>
      <trkpt lat="43.16024" lon="1.01335">
        <ele>562.02996826</ele>
        <time>2021-10-17T09:48:55Z</time>
      </trkpt>
      <trkpt lat="43.16024" lon="1.01334">
        <ele>562.13995361</ele>
        <time>2021-10-17T09:48:56Z</time>
      </trkpt>
      <trkpt lat="43.16024" lon="1.01333">
        <ele>562.2199707</ele>
        <time>2021-10-17T09:48:57Z</time>
      </trkpt>
      <trkpt lat="43.16024" lon="1.01332">
        <ele>562.30999756</ele>
        <time>2021-10-17T09:48:58Z</time>
      </trkpt>
      <trkpt lat="43.16023" lon="1.01331">
        <ele>562.39001465</ele>
        <time>2021-10-17T09:48:59Z</time>
      </trkpt>
      <trkpt lat="43.16023" lon="1.0133">
        <ele>562.5</ele>
        <time>2021-10-17T09:49:00Z</time>
      </trkpt>
      <trkpt lat="43.16023" lon="1.0133">
        <ele>562.60998535</ele>
        <time>2021-10-17T09:49:01Z</time>
      </trkpt>
      <trkpt lat="43.16023" lon="1.01329">
        <ele>562.70996094</ele>
        <time>2021-10-17T09:49:02Z</time>
      </trkpt>
      <trkpt lat="43.16023" lon="1.01328">
        <ele>562.79998779</ele>
        <time>2021-10-17T09:49:03Z</time>
      </trkpt>
      <trkpt lat="43.16023" lon="1.01327">
        <ele>562.84997559</ele>
        <time>2021-10-17T09:49:04Z</time>
      </trkpt>
      <trkpt lat="43.16023" lon="1.01326">
        <ele>562.88000488</ele>
        <time>2021-10-17T09:49:05Z</time>
      </trkpt>
      <trkpt lat="43.16022" lon="1.01325">
        <ele>562.89001465</ele>
        <time>2021-10-17T09:49:06Z</time>
      </trkpt>
      <trkpt lat="43.16021" lon="1.01324">
        <ele>562.90002441</ele>
        <time>2021-10-17T09:49:07Z</time>
      </trkpt>
      <trkpt lat="43.16021" lon="1.01323">
        <ele>562.90002441</ele>
        <time>2021-10-17T09:49:08Z</time>
      </trkpt>
      <trkpt lat="43.1602" lon="1.01322">
        <ele>562.94000244</ele>
        <time>2021-10-17T09:49:09Z</time>
      </trkpt>
      <trkpt lat="43.1602" lon="1.01322">
        <ele>562.97998047</ele>
        <time>2021-10-17T09:49:10Z</time>
      </trkpt>
      <trkpt lat="43.1602" lon="1.0132">
        <ele>563.04998779</ele>
        <time>2021-10-17T09:49:11Z</time>
      </trkpt>
      <trkpt lat="43.16021" lon="1.01319">
        <ele>563.22998047</ele>
        <time>2021-10-17T09:49:12Z</time>
      </trkpt>
      <trkpt lat="43.1602" lon="1.01318">
        <ele>563.33996582</ele>
        <time>2021-10-17T09:49:13Z</time>
      </trkpt>
      <trkpt lat="43.16021" lon="1.01317">
        <ele>563.45996094</ele>
        <time>2021-10-17T09:49:14Z</time>
      </trkpt>
      <trkpt lat="43.16021" lon="1.01316">
        <ele>563.56994629</ele>
        <time>2021-10-17T09:49:15Z</time>
      </trkpt>
      <trkpt lat="43.1602" lon="1.01315">
        <ele>563.61993408</ele>
        <time>2021-10-17T09:49:16Z</time>
      </trkpt>
      <trkpt lat="43.16017" lon="1.01307">
        <ele>561.36999512</ele>
        <time>2021-10-17T09:53:52Z</time>
      </trkpt>
      <trkpt lat="43.16016" lon="1.01306">
        <ele>561.27001953</ele>
        <time>2021-10-17T09:53:53Z</time>
      </trkpt>
      <trkpt lat="43.16013" lon="1.01304">
        <ele>561.20001221</ele>
        <time>2021-10-17T09:53:54Z</time>
      </trkpt>
      <trkpt lat="43.1601" lon="1.01303">
        <ele>561.07000732</ele>
        <time>2021-10-17T09:53:55Z</time>
      </trkpt>
      <trkpt lat="43.16007" lon="1.01302">
        <ele>560.76000977</ele>
        <time>2021-10-17T09:53:56Z</time>
      </trkpt>
      <trkpt lat="43.16004" lon="1.013">
        <ele>560.39001465</ele>
        <time>2021-10-17T09:53:57Z</time>
      </trkpt>
      <trkpt lat="43.16" lon="1.01299">
        <ele>559.73999023</ele>
        <time>2021-10-17T09:53:58Z</time>
      </trkpt>
      <trkpt lat="43.15996" lon="1.01298">
        <ele>559.07000732</ele>
        <time>2021-10-17T09:53:59Z</time>
      </trkpt>
      <trkpt lat="43.15993" lon="1.01298">
        <ele>558.34002686</ele>
        <time>2021-10-17T09:54:00Z</time>
      </trkpt>
      <trkpt lat="43.15991" lon="1.01298">
        <ele>557.67004395</ele>
        <time>2021-10-17T09:54:01Z</time>
      </trkpt>
      <trkpt lat="43.15988" lon="1.013">
        <ele>557.12005615</ele>
        <time>2021-10-17T09:54:02Z</time>
      </trkpt>
      <trkpt lat="43.15983" lon="1.01301">
        <ele>556.55004883</ele>
        <time>2021-10-17T09:54:03Z</time>
      </trkpt>
      <trkpt lat="43.1598" lon="1.01302">
        <ele>555.83007812</ele>
        <time>2021-10-17T09:54:04Z</time>
      </trkpt>
      <trkpt lat="43.15977" lon="1.01302">
        <ele>555.20007324</ele>
        <time>2021-10-17T09:54:05Z</time>
      </trkpt>
      <trkpt lat="43.15974" lon="1.01303">
        <ele>554.31005859</ele>
        <time>2021-10-17T09:54:06Z</time>
      </trkpt>
      <trkpt lat="43.15971" lon="1.01303">
        <ele>553.47003174</ele>
        <time>2021-10-17T09:54:07Z</time>
      </trkpt>
      <trkpt lat="43.15965" lon="1.01305">
        <ele>552.90002441</ele>
        <time>2021-10-17T09:54:08Z</time>
      </trkpt>
      <trkpt lat="43.15962" lon="1.01307">
        <ele>552.09002686</ele>
        <time>2021-10-17T09:54:09Z</time>
      </trkpt>
      <trkpt lat="43.15958" lon="1.01308">
        <ele>551.5</ele>
        <time>2021-10-17T09:54:10Z</time>
      </trkpt>
      <trkpt lat="43.15954" lon="1.01311">
        <ele>550.84002686</ele>
        <time>2021-10-17T09:54:11Z</time>
      </trkpt>
      <trkpt lat="43.15948" lon="1.01314">
        <ele>549.91003418</ele>
        <time>2021-10-17T09:54:12Z</time>
      </trkpt>
      <trkpt lat="43.15944" lon="1.01315">
        <ele>548.96002197</ele>
        <time>2021-10-17T09:54:13Z</time>
      </trkpt>
      <trkpt lat="43.1594" lon="1.01317">
        <ele>548.10003662</ele>
        <time>2021-10-17T09:54:14Z</time>
      </trkpt>
      <trkpt lat="43.15935" lon="1.01318">
        <ele>547.17004395</ele>
        <time>2021-10-17T09:54:15Z</time>
      </trkpt>
      <trkpt lat="43.15929" lon="1.01319">
        <ele>546.38006592</ele>
        <time>2021-10-17T09:54:16Z</time>
      </trkpt>
      <trkpt lat="43.15925" lon="1.01321">
        <ele>545.78009033</ele>
        <time>2021-10-17T09:54:17Z</time>
      </trkpt>
      <trkpt lat="43.1592" lon="1.01323">
        <ele>545.10009766</ele>
        <time>2021-10-17T09:54:18Z</time>
      </trkpt>
      <trkpt lat="43.15915" lon="1.01326">
        <ele>544.5401001</ele>
        <time>2021-10-17T09:54:19Z</time>
      </trkpt>
      <trkpt lat="43.15909" lon="1.01327">
        <ele>543.73010254</ele>
        <time>2021-10-17T09:54:20Z</time>
      </trkpt>
      <trkpt lat="43.15898" lon="1.01327">
        <ele>542.85009766</ele>
        <time>2021-10-17T09:54:21Z</time>
      </trkpt>
      <trkpt lat="43.15898" lon="1.01328">
        <ele>542.66998291</ele>
        <time>2021-10-17T09:54:21Z</time>
      </trkpt>
      <trkpt lat="43.15895" lon="1.01328">
        <ele>541.5199585</ele>
        <time>2021-10-17T09:54:22Z</time>
      </trkpt>
      <trkpt lat="43.15884" lon="1.01328">
        <ele>540.27996826</ele>
        <time>2021-10-17T09:54:23Z</time>
      </trkpt>
      <trkpt lat="43.15876" lon="1.01329">
        <ele>539.27996826</ele>
        <time>2021-10-17T09:54:24Z</time>
      </trkpt>
      <trkpt lat="43.15869" lon="1.0133">
        <ele>538.17999268</ele>
        <time>2021-10-17T09:54:25Z</time>
      </trkpt>
      <trkpt lat="43.15859" lon="1.0133">
        <ele>537.36999512</ele>
        <time>2021-10-17T09:54:26Z</time>
      </trkpt>
      <trkpt lat="43.15853" lon="1.0133">
        <ele>536.7199707</ele>
        <time>2021-10-17T09:54:27Z</time>
      </trkpt>
      <trkpt lat="43.15847" lon="1.0133">
        <ele>536.44995117</ele>
        <time>2021-10-17T09:54:28Z</time>
      </trkpt>
      <trkpt lat="43.15842" lon="1.01329">
        <ele>536.42993164</ele>
        <time>2021-10-17T09:54:29Z</time>
      </trkpt>
      <trkpt lat="43.15836" lon="1.0133">
        <ele>536.58990479</ele>
        <time>2021-10-17T09:54:30Z</time>
      </trkpt>
      <trkpt lat="43.15833" lon="1.01333">
        <ele>536.88989258</ele>
        <time>2021-10-17T09:54:31Z</time>
      </trkpt>
      <trkpt lat="43.15831" lon="1.01335">
        <ele>537.13989258</ele>
        <time>2021-10-17T09:54:32Z</time>
      </trkpt>
      <trkpt lat="43.15829" lon="1.01335">
        <ele>537.41992188</ele>
        <time>2021-10-17T09:54:33Z</time>
      </trkpt>
      <trkpt lat="43.15827" lon="1.01335">
        <ele>537.68994141</ele>
        <time>2021-10-17T09:54:34Z</time>
      </trkpt>
      <trkpt lat="43.15823" lon="1.01336">
        <ele>538.00994873</ele>
        <time>2021-10-17T09:54:35Z</time>
      </trkpt>
      <trkpt lat="43.15822" lon="1.01336">
        <ele>538.18994141</ele>
        <time>2021-10-17T09:54:36Z</time>
      </trkpt>
      <trkpt lat="43.1582" lon="1.01337">
        <ele>538.24993896</ele>
        <time>2021-10-17T09:54:37Z</time>
      </trkpt>
      <trkpt lat="43.15818" lon="1.01337">
        <ele>538.31994629</ele>
        <time>2021-10-17T09:54:38Z</time>
      </trkpt>
      <trkpt lat="43.15814" lon="1.01338">
        <ele>538.28991699</ele>
        <time>2021-10-17T09:54:39Z</time>
      </trkpt>
      <trkpt lat="43.15812" lon="1.01339">
        <ele>538.33990479</ele>
        <time>2021-10-17T09:54:40Z</time>
      </trkpt>
      <trkpt lat="43.15809" lon="1.01341">
        <ele>538.36993408</ele>
        <time>2021-10-17T09:54:41Z</time>
      </trkpt>
      <trkpt lat="43.15808" lon="1.01343">
        <ele>538.47991943</ele>
        <time>2021-10-17T09:54:42Z</time>
      </trkpt>
      <trkpt lat="43.15807" lon="1.01346">
        <ele>538.51989746</ele>
        <time>2021-10-17T09:54:43Z</time>
      </trkpt>
      <trkpt lat="43.15805" lon="1.0135">
        <ele>538.66992188</ele>
        <time>2021-10-17T09:54:44Z</time>
      </trkpt>
      <trkpt lat="43.15804" lon="1.01352">
        <ele>538.85992432</ele>
        <time>2021-10-17T09:54:45Z</time>
      </trkpt>
      <trkpt lat="43.15802" lon="1.01354">
        <ele>538.91992188</ele>
        <time>2021-10-17T09:54:46Z</time>
      </trkpt>
      <trkpt lat="43.15801" lon="1.01357">
        <ele>539.17993164</ele>
        <time>2021-10-17T09:54:47Z</time>
      </trkpt>
      <trkpt lat="43.158" lon="1.01361">
        <ele>539.30993652</ele>
        <time>2021-10-17T09:54:48Z</time>
      </trkpt>
      <trkpt lat="43.15799" lon="1.01364">
        <ele>539.46990967</ele>
        <time>2021-10-17T09:54:49Z</time>
      </trkpt>
      <trkpt lat="43.15799" lon="1.01367">
        <ele>539.65991211</ele>
        <time>2021-10-17T09:54:50Z</time>
      </trkpt>
      <trkpt lat="43.15799" lon="1.01369">
        <ele>539.69989014</ele>
        <time>2021-10-17T09:54:51Z</time>
      </trkpt>
      <trkpt lat="43.15799" lon="1.01372">
        <ele>539.7598877</ele>
        <time>2021-10-17T09:54:52Z</time>
      </trkpt>
      <trkpt lat="43.15798" lon="1.01377">
        <ele>539.80987549</ele>
        <time>2021-10-17T09:54:53Z</time>
      </trkpt>
      <trkpt lat="43.15798" lon="1.0138">
        <ele>539.87988281</ele>
        <time>2021-10-17T09:54:54Z</time>
      </trkpt>
      <trkpt lat="43.15797" lon="1.01383">
        <ele>540.02990723</ele>
        <time>2021-10-17T09:54:55Z</time>
      </trkpt>
      <trkpt lat="43.15797" lon="1.01386">
        <ele>540.15991211</ele>
        <time>2021-10-17T09:54:56Z</time>
      </trkpt>
      <trkpt lat="43.15797" lon="1.0139">
        <ele>540.34991455</ele>
        <time>2021-10-17T09:54:57Z</time>
      </trkpt>
      <trkpt lat="43.15797" lon="1.01392">
        <ele>540.5098877</ele>
        <time>2021-10-17T09:54:58Z</time>
      </trkpt>
      <trkpt lat="43.15797" lon="1.01394">
        <ele>540.65991211</ele>
        <time>2021-10-17T09:54:59Z</time>
      </trkpt>
      <trkpt lat="43.15796" lon="1.01396">
        <ele>540.78991699</ele>
        <time>2021-10-17T09:55:00Z</time>
      </trkpt>
      <trkpt lat="43.15795" lon="1.01399">
        <ele>540.91992188</ele>
        <time>2021-10-17T09:55:01Z</time>
      </trkpt>
      <trkpt lat="43.15795" lon="1.01403">
        <ele>541.04992676</ele>
        <time>2021-10-17T09:55:02Z</time>
      </trkpt>
      <trkpt lat="43.15795" lon="1.01406">
        <ele>541.06994629</ele>
        <time>2021-10-17T09:55:03Z</time>
      </trkpt>
      <trkpt lat="43.15795" lon="1.01409">
        <ele>541.09997559</ele>
        <time>2021-10-17T09:55:04Z</time>
      </trkpt>
      <trkpt lat="43.15795" lon="1.01411">
        <ele>541.19000244</ele>
        <time>2021-10-17T09:55:05Z</time>
      </trkpt>
      <trkpt lat="43.15794" lon="1.01416">
        <ele>541.30999756</ele>
        <time>2021-10-17T09:55:06Z</time>
      </trkpt>
      <trkpt lat="43.15793" lon="1.01419">
        <ele>541.4699707</ele>
        <time>2021-10-17T09:55:07Z</time>
      </trkpt>
      <trkpt lat="43.15792" lon="1.01422">
        <ele>541.59997559</ele>
        <time>2021-10-17T09:55:08Z</time>
      </trkpt>
      <trkpt lat="43.15791" lon="1.01425">
        <ele>541.63000488</ele>
        <time>2021-10-17T09:55:09Z</time>
      </trkpt>
      <trkpt lat="43.15789" lon="1.01429">
        <ele>541.52001953</ele>
        <time>2021-10-17T09:55:10Z</time>
      </trkpt>
      <trkpt lat="43.15788" lon="1.01432">
        <ele>541.36004639</ele>
        <time>2021-10-17T09:55:11Z</time>
      </trkpt>
      <trkpt lat="43.15787" lon="1.01435">
        <ele>541.29003906</ele>
        <time>2021-10-17T09:55:12Z</time>
      </trkpt>
      <trkpt lat="43.15786" lon="1.01438">
        <ele>541.19006348</ele>
        <time>2021-10-17T09:55:13Z</time>
      </trkpt>
      <trkpt lat="43.15786" lon="1.01442">
        <ele>541.2300415</ele>
        <time>2021-10-17T09:55:14Z</time>
      </trkpt>
      <trkpt lat="43.15786" lon="1.01445">
        <ele>541.39001465</ele>
        <time>2021-10-17T09:55:15Z</time>
      </trkpt>
      <trkpt lat="43.15785" lon="1.0145">
        <ele>541.45001221</ele>
        <time>2021-10-17T09:55:16Z</time>
      </trkpt>
      <trkpt lat="43.15784" lon="1.01453">
        <ele>541.57000732</ele>
        <time>2021-10-17T09:55:17Z</time>
      </trkpt>
      <trkpt lat="43.15784" lon="1.01456">
        <ele>541.65002441</ele>
        <time>2021-10-17T09:55:18Z</time>
      </trkpt>
      <trkpt lat="43.15785" lon="1.01459">
        <ele>541.77001953</ele>
        <time>2021-10-17T09:55:19Z</time>
      </trkpt>
      <trkpt lat="43.15785" lon="1.01464">
        <ele>541.90002441</ele>
        <time>2021-10-17T09:55:20Z</time>
      </trkpt>
      <trkpt lat="43.15785" lon="1.01467">
        <ele>541.99005127</ele>
        <time>2021-10-17T09:55:21Z</time>
      </trkpt>
      <trkpt lat="43.15785" lon="1.0147">
        <ele>542.16003418</ele>
        <time>2021-10-17T09:55:22Z</time>
      </trkpt>
      <trkpt lat="43.15785" lon="1.01472">
        <ele>542.22003174</ele>
        <time>2021-10-17T09:55:23Z</time>
      </trkpt>
      <trkpt lat="43.15785" lon="1.01476">
        <ele>542.34002686</ele>
        <time>2021-10-17T09:55:24Z</time>
      </trkpt>
      <trkpt lat="43.15785" lon="1.01479">
        <ele>542.46002197</ele>
        <time>2021-10-17T09:55:25Z</time>
      </trkpt>
      <trkpt lat="43.15786" lon="1.01482">
        <ele>542.5300293</ele>
        <time>2021-10-17T09:55:26Z</time>
      </trkpt>
      <trkpt lat="43.15787" lon="1.01484">
        <ele>542.68005371</ele>
        <time>2021-10-17T09:55:27Z</time>
      </trkpt>
      <trkpt lat="43.15787" lon="1.01487">
        <ele>542.85003662</ele>
        <time>2021-10-17T09:55:28Z</time>
      </trkpt>
      <trkpt lat="43.15788" lon="1.01491">
        <ele>542.9800415</ele>
        <time>2021-10-17T09:55:29Z</time>
      </trkpt>
      <trkpt lat="43.15789" lon="1.01494">
        <ele>543.16003418</ele>
        <time>2021-10-17T09:55:30Z</time>
      </trkpt>
      <trkpt lat="43.1579" lon="1.01496">
        <ele>543.34002686</ele>
        <time>2021-10-17T09:55:31Z</time>
      </trkpt>
      <trkpt lat="43.1579" lon="1.01498">
        <ele>543.5300293</ele>
        <time>2021-10-17T09:55:32Z</time>
      </trkpt>
      <trkpt lat="43.15791" lon="1.01501">
        <ele>543.80004883</ele>
        <time>2021-10-17T09:55:33Z</time>
      </trkpt>
      <trkpt lat="43.15791" lon="1.01503">
        <ele>543.91003418</ele>
        <time>2021-10-17T09:55:34Z</time>
      </trkpt>
      <trkpt lat="43.15791" lon="1.01505">
        <ele>544.15002441</ele>
        <time>2021-10-17T09:55:35Z</time>
      </trkpt>
      <trkpt lat="43.15791" lon="1.01507">
        <ele>544.30004883</ele>
        <time>2021-10-17T09:55:36Z</time>
      </trkpt>
      <trkpt lat="43.15791" lon="1.01508">
        <ele>544.49005127</ele>
        <time>2021-10-17T09:55:37Z</time>
      </trkpt>
      <trkpt lat="43.15791" lon="1.01511">
        <ele>544.77008057</ele>
        <time>2021-10-17T09:55:38Z</time>
      </trkpt>
      <trkpt lat="43.15791" lon="1.01513">
        <ele>544.84008789</ele>
        <time>2021-10-17T09:55:39Z</time>
      </trkpt>
      <trkpt lat="43.15791" lon="1.01515">
        <ele>544.97009277</ele>
        <time>2021-10-17T09:55:40Z</time>
      </trkpt>
      <trkpt lat="43.15791" lon="1.01517">
        <ele>545.00012207</ele>
        <time>2021-10-17T09:55:41Z</time>
      </trkpt>
      <trkpt lat="43.15791" lon="1.0152">
        <ele>545.07012939</ele>
        <time>2021-10-17T09:55:42Z</time>
      </trkpt>
      <trkpt lat="43.15791" lon="1.01522">
        <ele>545.13012695</ele>
        <time>2021-10-17T09:55:43Z</time>
      </trkpt>
      <trkpt lat="43.15791" lon="1.01524">
        <ele>545.13012695</ele>
        <time>2021-10-17T09:55:44Z</time>
      </trkpt>
      <trkpt lat="43.1579" lon="1.01527">
        <ele>545.20013428</ele>
        <time>2021-10-17T09:55:45Z</time>
      </trkpt>
      <trkpt lat="43.1579" lon="1.01529">
        <ele>545.22015381</ele>
        <time>2021-10-17T09:55:46Z</time>
      </trkpt>
      <trkpt lat="43.1579" lon="1.01532">
        <ele>545.2701416</ele>
        <time>2021-10-17T09:55:47Z</time>
      </trkpt>
      <trkpt lat="43.1579" lon="1.01534">
        <ele>545.40014648</ele>
        <time>2021-10-17T09:55:48Z</time>
      </trkpt>
      <trkpt lat="43.1579" lon="1.01537">
        <ele>545.42016602</ele>
        <time>2021-10-17T09:55:49Z</time>
      </trkpt>
      <trkpt lat="43.1579" lon="1.0154">
        <ele>545.47015381</ele>
        <time>2021-10-17T09:55:50Z</time>
      </trkpt>
      <trkpt lat="43.1579" lon="1.01544">
        <ele>545.50018311</ele>
        <time>2021-10-17T09:55:51Z</time>
      </trkpt>
      <trkpt lat="43.15789" lon="1.01547">
        <ele>545.50018311</ele>
        <time>2021-10-17T09:55:52Z</time>
      </trkpt>
      <trkpt lat="43.15788" lon="1.0155">
        <ele>545.5802002</ele>
        <time>2021-10-17T09:55:53Z</time>
      </trkpt>
      <trkpt lat="43.15788" lon="1.01553">
        <ele>545.5802002</ele>
        <time>2021-10-17T09:55:54Z</time>
      </trkpt>
      <trkpt lat="43.15787" lon="1.01557">
        <ele>545.57019043</ele>
        <time>2021-10-17T09:55:55Z</time>
      </trkpt>
      <trkpt lat="43.15786" lon="1.01564">
        <ele>545.46020508</ele>
        <time>2021-10-17T09:55:56Z</time>
      </trkpt>
      <trkpt lat="43.15785" lon="1.01568">
        <ele>545.35021973</ele>
        <time>2021-10-17T09:55:57Z</time>
      </trkpt>
      <trkpt lat="43.15785" lon="1.01573">
        <ele>545.3102417</ele>
        <time>2021-10-17T09:55:58Z</time>
      </trkpt>
      <trkpt lat="43.15785" lon="1.01577">
        <ele>545.23022461</ele>
        <time>2021-10-17T09:55:59Z</time>
      </trkpt>
      <trkpt lat="43.15784" lon="1.01583">
        <ele>545.30023193</ele>
        <time>2021-10-17T09:56:00Z</time>
      </trkpt>
      <trkpt lat="43.15783" lon="1.01589">
        <ele>545.12023926</ele>
        <time>2021-10-17T09:56:01Z</time>
      </trkpt>
      <trkpt lat="43.15783" lon="1.01594">
        <ele>544.95025635</ele>
        <time>2021-10-17T09:56:02Z</time>
      </trkpt>
      <trkpt lat="43.15782" lon="1.01599">
        <ele>544.69024658</ele>
        <time>2021-10-17T09:56:03Z</time>
      </trkpt>
      <trkpt lat="43.15781" lon="1.01605">
        <ele>544.69024658</ele>
        <time>2021-10-17T09:56:04Z</time>
      </trkpt>
      <trkpt lat="43.1578" lon="1.01612">
        <ele>544.71026611</ele>
        <time>2021-10-17T09:56:05Z</time>
      </trkpt>
      <trkpt lat="43.1578" lon="1.01618">
        <ele>544.590271</ele>
        <time>2021-10-17T09:56:06Z</time>
      </trkpt>
      <trkpt lat="43.1578" lon="1.01623">
        <ele>544.590271</ele>
        <time>2021-10-17T09:56:07Z</time>
      </trkpt>
      <trkpt lat="43.15779" lon="1.01628">
        <ele>544.42028809</ele>
        <time>2021-10-17T09:56:08Z</time>
      </trkpt>
      <trkpt lat="43.15779" lon="1.01633">
        <ele>544.3203125</ele>
        <time>2021-10-17T09:56:09Z</time>
      </trkpt>
      <trkpt lat="43.15779" lon="1.01641">
        <ele>544.12030029</ele>
        <time>2021-10-17T09:56:10Z</time>
      </trkpt>
      <trkpt lat="43.15779" lon="1.01646">
        <ele>544.05029297</ele>
        <time>2021-10-17T09:56:11Z</time>
      </trkpt>
      <trkpt lat="43.15778" lon="1.01651">
        <ele>544.00030518</ele>
        <time>2021-10-17T09:56:12Z</time>
      </trkpt>
      <trkpt lat="43.15777" lon="1.01655">
        <ele>543.87030029</ele>
        <time>2021-10-17T09:56:13Z</time>
      </trkpt>
      <trkpt lat="43.15775" lon="1.01662">
        <ele>543.840271</ele>
        <time>2021-10-17T09:56:14Z</time>
      </trkpt>
      <trkpt lat="43.15774" lon="1.01667">
        <ele>543.67028809</ele>
        <time>2021-10-17T09:56:15Z</time>
      </trkpt>
      <trkpt lat="43.15772" lon="1.01672">
        <ele>543.36029053</ele>
        <time>2021-10-17T09:56:16Z</time>
      </trkpt>
      <trkpt lat="43.1577" lon="1.01677">
        <ele>543.11029053</ele>
        <time>2021-10-17T09:56:17Z</time>
      </trkpt>
      <trkpt lat="43.15767" lon="1.01684">
        <ele>542.61029053</ele>
        <time>2021-10-17T09:56:18Z</time>
      </trkpt>
      <trkpt lat="43.15766" lon="1.01689">
        <ele>542.06030273</ele>
        <time>2021-10-17T09:56:19Z</time>
      </trkpt>
      <trkpt lat="43.15764" lon="1.01694">
        <ele>541.39031982</ele>
        <time>2021-10-17T09:56:20Z</time>
      </trkpt>
      <trkpt lat="43.15763" lon="1.01699">
        <ele>540.80029297</ele>
        <time>2021-10-17T09:56:21Z</time>
      </trkpt>
      <trkpt lat="43.1576" lon="1.01706">
        <ele>540.5703125</ele>
        <time>2021-10-17T09:56:22Z</time>
      </trkpt>
      <trkpt lat="43.15759" lon="1.01711">
        <ele>540.38031006</ele>
        <time>2021-10-17T09:56:23Z</time>
      </trkpt>
      <trkpt lat="43.15758" lon="1.01716">
        <ele>540.21032715</ele>
        <time>2021-10-17T09:56:24Z</time>
      </trkpt>
      <trkpt lat="43.15756" lon="1.0172">
        <ele>539.75030518</ele>
        <time>2021-10-17T09:56:25Z</time>
      </trkpt>
      <trkpt lat="43.15755" lon="1.01726">
        <ele>539.27032471</ele>
        <time>2021-10-17T09:56:26Z</time>
      </trkpt>
      <trkpt lat="43.15753" lon="1.01735">
        <ele>538.8503418</ele>
        <time>2021-10-17T09:56:27Z</time>
      </trkpt>
      <trkpt lat="43.15752" lon="1.0174">
        <ele>538.45031738</ele>
        <time>2021-10-17T09:56:28Z</time>
      </trkpt>
      <trkpt lat="43.15751" lon="1.01746">
        <ele>538.1003418</ele>
        <time>2021-10-17T09:56:29Z</time>
      </trkpt>
      <trkpt lat="43.1575" lon="1.01751">
        <ele>537.95031738</ele>
        <time>2021-10-17T09:56:30Z</time>
      </trkpt>
      <trkpt lat="43.1575" lon="1.01756">
        <ele>537.95031738</ele>
        <time>2021-10-17T09:56:31Z</time>
      </trkpt>
      <trkpt lat="43.15749" lon="1.01764">
        <ele>538.02032471</ele>
        <time>2021-10-17T09:56:32Z</time>
      </trkpt>
      <trkpt lat="43.15749" lon="1.01768">
        <ele>538.01031494</ele>
        <time>2021-10-17T09:56:33Z</time>
      </trkpt>
      <trkpt lat="43.15748" lon="1.01773">
        <ele>537.99029541</ele>
        <time>2021-10-17T09:56:34Z</time>
      </trkpt>
      <trkpt lat="43.15748" lon="1.01777">
        <ele>537.96026611</ele>
        <time>2021-10-17T09:56:35Z</time>
      </trkpt>
      <trkpt lat="43.15747" lon="1.01783">
        <ele>537.97027588</ele>
        <time>2021-10-17T09:56:36Z</time>
      </trkpt>
      <trkpt lat="43.15747" lon="1.01787">
        <ele>538.10028076</ele>
        <time>2021-10-17T09:56:37Z</time>
      </trkpt>
      <trkpt lat="43.15747" lon="1.01791">
        <ele>538.22027588</ele>
        <time>2021-10-17T09:56:38Z</time>
      </trkpt>
      <trkpt lat="43.15748" lon="1.01794">
        <ele>538.18029785</ele>
        <time>2021-10-17T09:56:39Z</time>
      </trkpt>
      <trkpt lat="43.15749" lon="1.01798">
        <ele>538.21032715</ele>
        <time>2021-10-17T09:56:40Z</time>
      </trkpt>
      <trkpt lat="43.15752" lon="1.018">
        <ele>538.26031494</ele>
        <time>2021-10-17T09:56:41Z</time>
      </trkpt>
      <trkpt lat="43.15755" lon="1.01799">
        <ele>538.31030273</ele>
        <time>2021-10-17T09:56:42Z</time>
      </trkpt>
      <trkpt lat="43.15757" lon="1.01799">
        <ele>538.49029541</ele>
        <time>2021-10-17T09:56:43Z</time>
      </trkpt>
      <trkpt lat="43.15759" lon="1.01799">
        <ele>538.65026855</ele>
        <time>2021-10-17T09:56:44Z</time>
      </trkpt>
      <trkpt lat="43.15761" lon="1.01801">
        <ele>538.8102417</ele>
        <time>2021-10-17T09:56:45Z</time>
      </trkpt>
      <trkpt lat="43.15762" lon="1.01803">
        <ele>539.00024414</ele>
        <time>2021-10-17T09:56:46Z</time>
      </trkpt>
      <trkpt lat="43.15763" lon="1.01806">
        <ele>539.10021973</ele>
        <time>2021-10-17T09:56:47Z</time>
      </trkpt>
      <trkpt lat="43.15763" lon="1.01808">
        <ele>539.27020264</ele>
        <time>2021-10-17T09:56:48Z</time>
      </trkpt>
      <trkpt lat="43.15763" lon="1.01811">
        <ele>539.41021729</ele>
        <time>2021-10-17T09:56:49Z</time>
      </trkpt>
      <trkpt lat="43.15763" lon="1.01816">
        <ele>539.48022461</ele>
        <time>2021-10-17T09:56:50Z</time>
      </trkpt>
      <trkpt lat="43.15762" lon="1.0182">
        <ele>539.5302124</ele>
        <time>2021-10-17T09:56:51Z</time>
      </trkpt>
      <trkpt lat="43.15762" lon="1.01824">
        <ele>539.62023926</ele>
        <time>2021-10-17T09:56:52Z</time>
      </trkpt>
      <trkpt lat="43.15761" lon="1.01828">
        <ele>539.69024658</ele>
        <time>2021-10-17T09:56:53Z</time>
      </trkpt>
      <trkpt lat="43.1576" lon="1.01833">
        <ele>539.87023926</ele>
        <time>2021-10-17T09:56:54Z</time>
      </trkpt>
      <trkpt lat="43.1576" lon="1.01837">
        <ele>540.07025146</ele>
        <time>2021-10-17T09:56:55Z</time>
      </trkpt>
      <trkpt lat="43.1576" lon="1.0184">
        <ele>540.28027344</ele>
        <time>2021-10-17T09:56:56Z</time>
      </trkpt>
      <trkpt lat="43.1576" lon="1.01844">
        <ele>540.63024902</ele>
        <time>2021-10-17T09:56:57Z</time>
      </trkpt>
      <trkpt lat="43.15761" lon="1.01848">
        <ele>540.78027344</ele>
        <time>2021-10-17T09:56:58Z</time>
      </trkpt>
      <trkpt lat="43.15761" lon="1.01853">
        <ele>541.05029297</ele>
        <time>2021-10-17T09:56:59Z</time>
      </trkpt>
      <trkpt lat="43.1576" lon="1.01856">
        <ele>541.340271</ele>
        <time>2021-10-17T09:57:00Z</time>
      </trkpt>
      <trkpt lat="43.15759" lon="1.01859">
        <ele>541.47027588</ele>
        <time>2021-10-17T09:57:01Z</time>
      </trkpt>
      <trkpt lat="43.15759" lon="1.01862">
        <ele>541.83026123</ele>
        <time>2021-10-17T09:57:02Z</time>
      </trkpt>
      <trkpt lat="43.15758" lon="1.01865">
        <ele>542.10028076</ele>
        <time>2021-10-17T09:57:03Z</time>
      </trkpt>
      <trkpt lat="43.15758" lon="1.0187">
        <ele>542.30029297</ele>
        <time>2021-10-17T09:57:04Z</time>
      </trkpt>
      <trkpt lat="43.15758" lon="1.01873">
        <ele>542.56030273</ele>
        <time>2021-10-17T09:57:05Z</time>
      </trkpt>
      <trkpt lat="43.15758" lon="1.01876">
        <ele>542.72027588</ele>
        <time>2021-10-17T09:57:06Z</time>
      </trkpt>
      <trkpt lat="43.15758" lon="1.0188">
        <ele>542.96026611</ele>
        <time>2021-10-17T09:57:07Z</time>
      </trkpt>
      <trkpt lat="43.15758" lon="1.01885">
        <ele>543.27026367</ele>
        <time>2021-10-17T09:57:08Z</time>
      </trkpt>
      <trkpt lat="43.15758" lon="1.01888">
        <ele>543.590271</ele>
        <time>2021-10-17T09:57:09Z</time>
      </trkpt>
      <trkpt lat="43.15757" lon="1.01892">
        <ele>543.87030029</ele>
        <time>2021-10-17T09:57:10Z</time>
      </trkpt>
      <trkpt lat="43.15757" lon="1.01895">
        <ele>544.08032227</ele>
        <time>2021-10-17T09:57:11Z</time>
      </trkpt>
      <trkpt lat="43.15757" lon="1.019">
        <ele>544.26031494</ele>
        <time>2021-10-17T09:57:12Z</time>
      </trkpt>
      <trkpt lat="43.15757" lon="1.01904">
        <ele>544.45031738</ele>
        <time>2021-10-17T09:57:13Z</time>
      </trkpt>
      <trkpt lat="43.15757" lon="1.01907">
        <ele>544.58032227</ele>
        <time>2021-10-17T09:57:14Z</time>
      </trkpt>
      <trkpt lat="43.15757" lon="1.01911">
        <ele>544.67034912</ele>
        <time>2021-10-17T09:57:15Z</time>
      </trkpt>
      <trkpt lat="43.15756" lon="1.01916">
        <ele>544.74035645</ele>
        <time>2021-10-17T09:57:16Z</time>
      </trkpt>
      <trkpt lat="43.15755" lon="1.01919">
        <ele>544.87036133</ele>
        <time>2021-10-17T09:57:17Z</time>
      </trkpt>
      <trkpt lat="43.15755" lon="1.01923">
        <ele>545.13037109</ele>
        <time>2021-10-17T09:57:18Z</time>
      </trkpt>
      <trkpt lat="43.15755" lon="1.01926">
        <ele>545.42034912</ele>
        <time>2021-10-17T09:57:19Z</time>
      </trkpt>
      <trkpt lat="43.15755" lon="1.0193">
        <ele>545.71032715</ele>
        <time>2021-10-17T09:57:20Z</time>
      </trkpt>
      <trkpt lat="43.15755" lon="1.01934">
        <ele>546.15032959</ele>
        <time>2021-10-17T09:57:21Z</time>
      </trkpt>
      <trkpt lat="43.15754" lon="1.01937">
        <ele>546.28033447</ele>
        <time>2021-10-17T09:57:22Z</time>
      </trkpt>
      <trkpt lat="43.15753" lon="1.0194">
        <ele>546.39031982</ele>
        <time>2021-10-17T09:57:23Z</time>
      </trkpt>
      <trkpt lat="43.15753" lon="1.01943">
        <ele>546.54034424</ele>
        <time>2021-10-17T09:57:24Z</time>
      </trkpt>
      <trkpt lat="43.15752" lon="1.01947">
        <ele>546.71032715</ele>
        <time>2021-10-17T09:57:25Z</time>
      </trkpt>
      <trkpt lat="43.15752" lon="1.0195">
        <ele>546.91033936</ele>
        <time>2021-10-17T09:57:26Z</time>
      </trkpt>
      <trkpt lat="43.15751" lon="1.01953">
        <ele>547.050354</ele>
        <time>2021-10-17T09:57:27Z</time>
      </trkpt>
      <trkpt lat="43.15751" lon="1.01956">
        <ele>547.21032715</ele>
        <time>2021-10-17T09:57:28Z</time>
      </trkpt>
      <trkpt lat="43.15751" lon="1.0196">
        <ele>547.3203125</ele>
        <time>2021-10-17T09:57:29Z</time>
      </trkpt>
      <trkpt lat="43.15751" lon="1.01965">
        <ele>547.41033936</ele>
        <time>2021-10-17T09:57:30Z</time>
      </trkpt>
      <trkpt lat="43.1575" lon="1.01969">
        <ele>547.58032227</ele>
        <time>2021-10-17T09:57:31Z</time>
      </trkpt>
      <trkpt lat="43.1575" lon="1.01972">
        <ele>547.63031006</ele>
        <time>2021-10-17T09:57:32Z</time>
      </trkpt>
      <trkpt lat="43.1575" lon="1.01976">
        <ele>547.72033691</ele>
        <time>2021-10-17T09:57:33Z</time>
      </trkpt>
      <trkpt lat="43.1575" lon="1.0198">
        <ele>547.72033691</ele>
        <time>2021-10-17T09:57:34Z</time>
      </trkpt>
      <trkpt lat="43.1575" lon="1.01985">
        <ele>547.73034668</ele>
        <time>2021-10-17T09:57:35Z</time>
      </trkpt>
      <trkpt lat="43.15749" lon="1.01988">
        <ele>547.73034668</ele>
        <time>2021-10-17T09:57:36Z</time>
      </trkpt>
      <trkpt lat="43.15749" lon="1.01992">
        <ele>547.77032471</ele>
        <time>2021-10-17T09:57:37Z</time>
      </trkpt>
      <trkpt lat="43.15749" lon="1.01995">
        <ele>547.84033203</ele>
        <time>2021-10-17T09:57:38Z</time>
      </trkpt>
      <trkpt lat="43.15749" lon="1.02001">
        <ele>547.8203125</ele>
        <time>2021-10-17T09:57:39Z</time>
      </trkpt>
      <trkpt lat="43.15749" lon="1.02005">
        <ele>547.94030762</ele>
        <time>2021-10-17T09:57:40Z</time>
      </trkpt>
      <trkpt lat="43.15749" lon="1.02009">
        <ele>547.93029785</ele>
        <time>2021-10-17T09:57:41Z</time>
      </trkpt>
      <trkpt lat="43.15749" lon="1.02014">
        <ele>547.7902832</ele>
        <time>2021-10-17T09:57:42Z</time>
      </trkpt>
      <trkpt lat="43.15749" lon="1.02018">
        <ele>547.62030029</ele>
        <time>2021-10-17T09:57:43Z</time>
      </trkpt>
      <trkpt lat="43.1575" lon="1.02026">
        <ele>547.28027344</ele>
        <time>2021-10-17T09:57:44Z</time>
      </trkpt>
      <trkpt lat="43.1575" lon="1.0203">
        <ele>547.17028809</ele>
        <time>2021-10-17T09:57:45Z</time>
      </trkpt>
      <trkpt lat="43.15751" lon="1.02035">
        <ele>547.16027832</ele>
        <time>2021-10-17T09:57:46Z</time>
      </trkpt>
      <trkpt lat="43.15752" lon="1.02039">
        <ele>547.23028564</ele>
        <time>2021-10-17T09:57:47Z</time>
      </trkpt>
      <trkpt lat="43.15753" lon="1.02044">
        <ele>547.35028076</ele>
        <time>2021-10-17T09:57:48Z</time>
      </trkpt>
      <trkpt lat="43.15754" lon="1.02047">
        <ele>547.36029053</ele>
        <time>2021-10-17T09:57:49Z</time>
      </trkpt>
      <trkpt lat="43.15754" lon="1.0205">
        <ele>547.43029785</ele>
        <time>2021-10-17T09:57:50Z</time>
      </trkpt>
      <trkpt lat="43.15754" lon="1.02054">
        <ele>547.42028809</ele>
        <time>2021-10-17T09:57:51Z</time>
      </trkpt>
      <trkpt lat="43.15755" lon="1.02058">
        <ele>547.3203125</ele>
        <time>2021-10-17T09:57:52Z</time>
      </trkpt>
      <trkpt lat="43.15756" lon="1.02065">
        <ele>547.21032715</ele>
        <time>2021-10-17T09:57:53Z</time>
      </trkpt>
      <trkpt lat="43.15756" lon="1.0207">
        <ele>547.00030518</ele>
        <time>2021-10-17T09:57:54Z</time>
      </trkpt>
      <trkpt lat="43.15757" lon="1.02075">
        <ele>546.85028076</ele>
        <time>2021-10-17T09:57:55Z</time>
      </trkpt>
      <trkpt lat="43.15757" lon="1.02081">
        <ele>546.66027832</ele>
        <time>2021-10-17T09:57:56Z</time>
      </trkpt>
      <trkpt lat="43.15758" lon="1.0209">
        <ele>546.33026123</ele>
        <time>2021-10-17T09:57:57Z</time>
      </trkpt>
      <trkpt lat="43.15758" lon="1.02095">
        <ele>546.05023193</ele>
        <time>2021-10-17T09:57:58Z</time>
      </trkpt>
      <trkpt lat="43.15757" lon="1.021">
        <ele>545.82025146</ele>
        <time>2021-10-17T09:57:59Z</time>
      </trkpt>
      <trkpt lat="43.15757" lon="1.02104">
        <ele>545.840271</ele>
        <time>2021-10-17T09:58:00Z</time>
      </trkpt>
      <trkpt lat="43.15757" lon="1.02108">
        <ele>545.88024902</ele>
        <time>2021-10-17T09:58:01Z</time>
      </trkpt>
      <trkpt lat="43.15758" lon="1.02114">
        <ele>545.99023438</ele>
        <time>2021-10-17T09:58:02Z</time>
      </trkpt>
      <trkpt lat="43.15758" lon="1.02118">
        <ele>546.15020752</ele>
        <time>2021-10-17T09:58:03Z</time>
      </trkpt>
      <trkpt lat="43.15758" lon="1.02122">
        <ele>546.17022705</ele>
        <time>2021-10-17T09:58:04Z</time>
      </trkpt>
      <trkpt lat="43.15758" lon="1.02126">
        <ele>546.37023926</ele>
        <time>2021-10-17T09:58:05Z</time>
      </trkpt>
      <trkpt lat="43.15757" lon="1.02131">
        <ele>546.60021973</ele>
        <time>2021-10-17T09:58:06Z</time>
      </trkpt>
      <trkpt lat="43.15756" lon="1.02134">
        <ele>546.73022461</ele>
        <time>2021-10-17T09:58:07Z</time>
      </trkpt>
      <trkpt lat="43.15755" lon="1.02137">
        <ele>546.87023926</ele>
        <time>2021-10-17T09:58:08Z</time>
      </trkpt>
      <trkpt lat="43.15755" lon="1.0214">
        <ele>547.00024414</ele>
        <time>2021-10-17T09:58:09Z</time>
      </trkpt>
      <trkpt lat="43.15754" lon="1.02143">
        <ele>547.01025391</ele>
        <time>2021-10-17T09:58:10Z</time>
      </trkpt>
      <trkpt lat="43.15754" lon="1.02149">
        <ele>547.08026123</ele>
        <time>2021-10-17T09:58:11Z</time>
      </trkpt>
      <trkpt lat="43.15755" lon="1.02152">
        <ele>547.21026611</ele>
        <time>2021-10-17T09:58:12Z</time>
      </trkpt>
      <trkpt lat="43.15755" lon="1.02156">
        <ele>547.38024902</ele>
        <time>2021-10-17T09:58:13Z</time>
      </trkpt>
      <trkpt lat="43.15756" lon="1.0216">
        <ele>547.64025879</ele>
        <time>2021-10-17T09:58:14Z</time>
      </trkpt>
      <trkpt lat="43.15757" lon="1.02165">
        <ele>547.96026611</ele>
        <time>2021-10-17T09:58:15Z</time>
      </trkpt>
      <trkpt lat="43.15759" lon="1.02167">
        <ele>548.24029541</ele>
        <time>2021-10-17T09:58:16Z</time>
      </trkpt>
      <trkpt lat="43.1576" lon="1.0217">
        <ele>548.5703125</ele>
        <time>2021-10-17T09:58:17Z</time>
      </trkpt>
      <trkpt lat="43.15761" lon="1.02172">
        <ele>548.83032227</ele>
        <time>2021-10-17T09:58:18Z</time>
      </trkpt>
      <trkpt lat="43.15763" lon="1.02175">
        <ele>549.1003418</ele>
        <time>2021-10-17T09:58:19Z</time>
      </trkpt>
      <trkpt lat="43.15765" lon="1.02176">
        <ele>549.48034668</ele>
        <time>2021-10-17T09:58:20Z</time>
      </trkpt>
      <trkpt lat="43.15766" lon="1.02178">
        <ele>550.050354</ele>
        <time>2021-10-17T09:58:21Z</time>
      </trkpt>
      <trkpt lat="43.15767" lon="1.0218">
        <ele>550.47033691</ele>
        <time>2021-10-17T09:58:22Z</time>
      </trkpt>
      <trkpt lat="43.15768" lon="1.02182">
        <ele>550.89031982</ele>
        <time>2021-10-17T09:58:23Z</time>
      </trkpt>
      <trkpt lat="43.15769" lon="1.02184">
        <ele>551.16033936</ele>
        <time>2021-10-17T09:58:24Z</time>
      </trkpt>
      <trkpt lat="43.1577" lon="1.02187">
        <ele>551.45031738</ele>
        <time>2021-10-17T09:58:25Z</time>
      </trkpt>
      <trkpt lat="43.15772" lon="1.02189">
        <ele>551.70031738</ele>
        <time>2021-10-17T09:58:26Z</time>
      </trkpt>
      <trkpt lat="43.15773" lon="1.0219">
        <ele>551.96032715</ele>
        <time>2021-10-17T09:58:27Z</time>
      </trkpt>
      <trkpt lat="43.15775" lon="1.02192">
        <ele>552.29034424</ele>
        <time>2021-10-17T09:58:28Z</time>
      </trkpt>
      <trkpt lat="43.15777" lon="1.02195">
        <ele>552.57037354</ele>
        <time>2021-10-17T09:58:29Z</time>
      </trkpt>
      <trkpt lat="43.15778" lon="1.02197">
        <ele>552.88037109</ele>
        <time>2021-10-17T09:58:30Z</time>
      </trkpt>
      <trkpt lat="43.1578" lon="1.02199">
        <ele>553.28039551</ele>
        <time>2021-10-17T09:58:31Z</time>
      </trkpt>
      <trkpt lat="43.15782" lon="1.022">
        <ele>553.68041992</ele>
        <time>2021-10-17T09:58:32Z</time>
      </trkpt>
      <trkpt lat="43.15783" lon="1.02201">
        <ele>554.10040283</ele>
        <time>2021-10-17T09:58:33Z</time>
      </trkpt>
      <trkpt lat="43.15785" lon="1.02201">
        <ele>554.53039551</ele>
        <time>2021-10-17T09:58:34Z</time>
      </trkpt>
      <trkpt lat="43.15787" lon="1.02201">
        <ele>554.8104248</ele>
        <time>2021-10-17T09:58:35Z</time>
      </trkpt>
      <trkpt lat="43.15789" lon="1.02202">
        <ele>555.13043213</ele>
        <time>2021-10-17T09:58:36Z</time>
      </trkpt>
      <trkpt lat="43.15791" lon="1.02203">
        <ele>555.43041992</ele>
        <time>2021-10-17T09:58:37Z</time>
      </trkpt>
      <trkpt lat="43.15793" lon="1.02203">
        <ele>555.68041992</ele>
        <time>2021-10-17T09:58:38Z</time>
      </trkpt>
      <trkpt lat="43.15795" lon="1.02204">
        <ele>555.95043945</ele>
        <time>2021-10-17T09:58:39Z</time>
      </trkpt>
      <trkpt lat="43.15796" lon="1.02206">
        <ele>556.26043701</ele>
        <time>2021-10-17T09:58:40Z</time>
      </trkpt>
      <trkpt lat="43.15797" lon="1.02207">
        <ele>556.5904541</ele>
        <time>2021-10-17T09:58:41Z</time>
      </trkpt>
      <trkpt lat="43.15799" lon="1.0221">
        <ele>556.97045898</ele>
        <time>2021-10-17T09:58:42Z</time>
      </trkpt>
      <trkpt lat="43.158" lon="1.02212">
        <ele>557.3704834</ele>
        <time>2021-10-17T09:58:43Z</time>
      </trkpt>
      <trkpt lat="43.15801" lon="1.02214">
        <ele>557.72045898</ele>
        <time>2021-10-17T09:58:44Z</time>
      </trkpt>
      <trkpt lat="43.15802" lon="1.02216">
        <ele>558.13043213</ele>
        <time>2021-10-17T09:58:45Z</time>
      </trkpt>
      <trkpt lat="43.15803" lon="1.02218">
        <ele>558.55041504</ele>
        <time>2021-10-17T09:58:46Z</time>
      </trkpt>
      <trkpt lat="43.15804" lon="1.0222">
        <ele>559.02038574</ele>
        <time>2021-10-17T09:58:47Z</time>
      </trkpt>
      <trkpt lat="43.15806" lon="1.02221">
        <ele>559.53039551</ele>
        <time>2021-10-17T09:58:48Z</time>
      </trkpt>
      <trkpt lat="43.15807" lon="1.02221">
        <ele>559.93041992</ele>
        <time>2021-10-17T09:58:49Z</time>
      </trkpt>
      <trkpt lat="43.15809" lon="1.02221">
        <ele>560.27044678</ele>
        <time>2021-10-17T09:58:50Z</time>
      </trkpt>
      <trkpt lat="43.15811" lon="1.0222">
        <ele>560.61047363</ele>
        <time>2021-10-17T09:58:51Z</time>
      </trkpt>
      <trkpt lat="43.15813" lon="1.0222">
        <ele>560.8704834</ele>
        <time>2021-10-17T09:58:52Z</time>
      </trkpt>
      <trkpt lat="43.15815" lon="1.0222">
        <ele>561.05047607</ele>
        <time>2021-10-17T09:58:53Z</time>
      </trkpt>
      <trkpt lat="43.15816" lon="1.0222">
        <ele>561.28045654</ele>
        <time>2021-10-17T09:58:54Z</time>
      </trkpt>
      <trkpt lat="43.15818" lon="1.0222">
        <ele>561.36047363</ele>
        <time>2021-10-17T09:58:55Z</time>
      </trkpt>
      <trkpt lat="43.15821" lon="1.0222">
        <ele>561.47045898</ele>
        <time>2021-10-17T09:58:56Z</time>
      </trkpt>
      <trkpt lat="43.15823" lon="1.02221">
        <ele>561.64044189</ele>
        <time>2021-10-17T09:58:57Z</time>
      </trkpt>
      <trkpt lat="43.15824" lon="1.02222">
        <ele>561.79046631</ele>
        <time>2021-10-17T09:58:58Z</time>
      </trkpt>
      <trkpt lat="43.15826" lon="1.02223">
        <ele>562.04046631</ele>
        <time>2021-10-17T09:58:59Z</time>
      </trkpt>
      <trkpt lat="43.15828" lon="1.02224">
        <ele>562.3704834</ele>
        <time>2021-10-17T09:59:00Z</time>
      </trkpt>
      <trkpt lat="43.15829" lon="1.02225">
        <ele>562.75048828</ele>
        <time>2021-10-17T09:59:01Z</time>
      </trkpt>
      <trkpt lat="43.1583" lon="1.02226">
        <ele>563.17047119</ele>
        <time>2021-10-17T09:59:02Z</time>
      </trkpt>
      <trkpt lat="43.15831" lon="1.02227">
        <ele>563.51049805</ele>
        <time>2021-10-17T09:59:03Z</time>
      </trkpt>
      <trkpt lat="43.15833" lon="1.02227">
        <ele>563.76049805</ele>
        <time>2021-10-17T09:59:04Z</time>
      </trkpt>
      <trkpt lat="43.15835" lon="1.02228">
        <ele>563.99047852</ele>
        <time>2021-10-17T09:59:05Z</time>
      </trkpt>
      <trkpt lat="43.15836" lon="1.02228">
        <ele>564.14050293</ele>
        <time>2021-10-17T09:59:06Z</time>
      </trkpt>
      <trkpt lat="43.15838" lon="1.02229">
        <ele>564.32049561</ele>
        <time>2021-10-17T09:59:07Z</time>
      </trkpt>
      <trkpt lat="43.15838" lon="1.0223">
        <ele>564.50048828</ele>
        <time>2021-10-17T09:59:08Z</time>
      </trkpt>
      <trkpt lat="43.1584" lon="1.02232">
        <ele>564.67047119</ele>
        <time>2021-10-17T09:59:09Z</time>
      </trkpt>
      <trkpt lat="43.15841" lon="1.02233">
        <ele>564.92047119</ele>
        <time>2021-10-17T09:59:10Z</time>
      </trkpt>
      <trkpt lat="43.15843" lon="1.02233">
        <ele>565.18048096</ele>
        <time>2021-10-17T09:59:11Z</time>
      </trkpt>
      <trkpt lat="43.15844" lon="1.02233">
        <ele>565.46051025</ele>
        <time>2021-10-17T09:59:12Z</time>
      </trkpt>
      <trkpt lat="43.15845" lon="1.02234">
        <ele>565.81048584</ele>
        <time>2021-10-17T09:59:13Z</time>
      </trkpt>
      <trkpt lat="43.15847" lon="1.02235">
        <ele>566.1204834</ele>
        <time>2021-10-17T09:59:14Z</time>
      </trkpt>
      <trkpt lat="43.15849" lon="1.02237">
        <ele>566.43048096</ele>
        <time>2021-10-17T09:59:15Z</time>
      </trkpt>
      <trkpt lat="43.1585" lon="1.02238">
        <ele>566.79046631</ele>
        <time>2021-10-17T09:59:16Z</time>
      </trkpt>
      <trkpt lat="43.1585" lon="1.02239">
        <ele>567.15045166</ele>
        <time>2021-10-17T09:59:17Z</time>
      </trkpt>
      <trkpt lat="43.15852" lon="1.02241">
        <ele>567.61047363</ele>
        <time>2021-10-17T09:59:18Z</time>
      </trkpt>
      <trkpt lat="43.15852" lon="1.02243">
        <ele>568.0904541</ele>
        <time>2021-10-17T09:59:19Z</time>
      </trkpt>
      <trkpt lat="43.15853" lon="1.02245">
        <ele>568.6204834</ele>
        <time>2021-10-17T09:59:20Z</time>
      </trkpt>
      <trkpt lat="43.15854" lon="1.02246">
        <ele>569.33050537</ele>
        <time>2021-10-17T09:59:21Z</time>
      </trkpt>
      <trkpt lat="43.15854" lon="1.02248">
        <ele>569.78051758</ele>
        <time>2021-10-17T09:59:22Z</time>
      </trkpt>
      <trkpt lat="43.15855" lon="1.0225">
        <ele>570.29052734</ele>
        <time>2021-10-17T09:59:23Z</time>
      </trkpt>
      <trkpt lat="43.15856" lon="1.02252">
        <ele>570.69055176</ele>
        <time>2021-10-17T09:59:24Z</time>
      </trkpt>
      <trkpt lat="43.15857" lon="1.02253">
        <ele>571.20056152</ele>
        <time>2021-10-17T09:59:25Z</time>
      </trkpt>
      <trkpt lat="43.15857" lon="1.02255">
        <ele>571.70056152</ele>
        <time>2021-10-17T09:59:26Z</time>
      </trkpt>
      <trkpt lat="43.15857" lon="1.02257">
        <ele>572.48999023</ele>
        <time>2021-10-17T09:59:26Z</time>
      </trkpt>
      <trkpt lat="43.15857" lon="1.02259">
        <ele>572.89001465</ele>
        <time>2021-10-17T09:59:27Z</time>
      </trkpt>
      <trkpt lat="43.15859" lon="1.0226">
        <ele>573.30999756</ele>
        <time>2021-10-17T09:59:28Z</time>
      </trkpt>
      <trkpt lat="43.1586" lon="1.02262">
        <ele>573.65002441</ele>
        <time>2021-10-17T09:59:29Z</time>
      </trkpt>
      <trkpt lat="43.1586" lon="1.02263">
        <ele>574.02001953</ele>
        <time>2021-10-17T09:59:30Z</time>
      </trkpt>
      <trkpt lat="43.15861" lon="1.02265">
        <ele>574.42999268</ele>
        <time>2021-10-17T09:59:31Z</time>
      </trkpt>
      <trkpt lat="43.15863" lon="1.02267">
        <ele>574.88000488</ele>
        <time>2021-10-17T09:59:32Z</time>
      </trkpt>
      <trkpt lat="43.15864" lon="1.02268">
        <ele>575.25</ele>
        <time>2021-10-17T09:59:33Z</time>
      </trkpt>
      <trkpt lat="43.15865" lon="1.02269">
        <ele>575.59997559</ele>
        <time>2021-10-17T09:59:34Z</time>
      </trkpt>
      <trkpt lat="43.15866" lon="1.0227">
        <ele>575.90997314</ele>
        <time>2021-10-17T09:59:35Z</time>
      </trkpt>
      <trkpt lat="43.15869" lon="1.02271">
        <ele>576.25</ele>
        <time>2021-10-17T09:59:36Z</time>
      </trkpt>
      <trkpt lat="43.1587" lon="1.02273">
        <ele>576.65997314</ele>
        <time>2021-10-17T09:59:37Z</time>
      </trkpt>
      <trkpt lat="43.15872" lon="1.02273">
        <ele>577.07995605</ele>
        <time>2021-10-17T09:59:38Z</time>
      </trkpt>
      <trkpt lat="43.15873" lon="1.02274">
        <ele>577.58996582</ele>
        <time>2021-10-17T09:59:39Z</time>
      </trkpt>
      <trkpt lat="43.15876" lon="1.02275">
        <ele>578.11999512</ele>
        <time>2021-10-17T09:59:40Z</time>
      </trkpt>
      <trkpt lat="43.15877" lon="1.02276">
        <ele>578.65997314</ele>
        <time>2021-10-17T09:59:41Z</time>
      </trkpt>
      <trkpt lat="43.15877" lon="1.02277">
        <ele>579.15997314</ele>
        <time>2021-10-17T09:59:42Z</time>
      </trkpt>
      <trkpt lat="43.15879" lon="1.02277">
        <ele>579.64996338</ele>
        <time>2021-10-17T09:59:43Z</time>
      </trkpt>
      <trkpt lat="43.1588" lon="1.02278">
        <ele>580.14996338</ele>
        <time>2021-10-17T09:59:44Z</time>
      </trkpt>
      <trkpt lat="43.15882" lon="1.02279">
        <ele>580.7199707</ele>
        <time>2021-10-17T09:59:45Z</time>
      </trkpt>
      <trkpt lat="43.15884" lon="1.02281">
        <ele>581.25</ele>
        <time>2021-10-17T09:59:46Z</time>
      </trkpt>
      <trkpt lat="43.15885" lon="1.02282">
        <ele>581.7800293</ele>
        <time>2021-10-17T09:59:47Z</time>
      </trkpt>
      <trkpt lat="43.15886" lon="1.02282">
        <ele>582.20001221</ele>
        <time>2021-10-17T09:59:48Z</time>
      </trkpt>
      <trkpt lat="43.15887" lon="1.02283">
        <ele>582.60003662</ele>
        <time>2021-10-17T09:59:49Z</time>
      </trkpt>
      <trkpt lat="43.15889" lon="1.02285">
        <ele>583.0300293</ele>
        <time>2021-10-17T09:59:50Z</time>
      </trkpt>
      <trkpt lat="43.1589" lon="1.02286">
        <ele>583.42004395</ele>
        <time>2021-10-17T09:59:51Z</time>
      </trkpt>
      <trkpt lat="43.15892" lon="1.02286">
        <ele>583.82006836</ele>
        <time>2021-10-17T09:59:52Z</time>
      </trkpt>
      <trkpt lat="43.15893" lon="1.02286">
        <ele>584.19006348</ele>
        <time>2021-10-17T09:59:53Z</time>
      </trkpt>
      <trkpt lat="43.15895" lon="1.02286">
        <ele>584.57006836</ele>
        <time>2021-10-17T09:59:54Z</time>
      </trkpt>
      <trkpt lat="43.15896" lon="1.02287">
        <ele>584.89007568</ele>
        <time>2021-10-17T09:59:55Z</time>
      </trkpt>
      <trkpt lat="43.15897" lon="1.02287">
        <ele>585.19006348</ele>
        <time>2021-10-17T09:59:56Z</time>
      </trkpt>
      <trkpt lat="43.15899" lon="1.02288">
        <ele>585.38006592</ele>
        <time>2021-10-17T09:59:57Z</time>
      </trkpt>
      <trkpt lat="43.15899" lon="1.02289">
        <ele>585.53009033</ele>
        <time>2021-10-17T09:59:58Z</time>
      </trkpt>
      <trkpt lat="43.15901" lon="1.02289">
        <ele>585.7401123</ele>
        <time>2021-10-17T09:59:59Z</time>
      </trkpt>
      <trkpt lat="43.15902" lon="1.02288">
        <ele>585.88012695</ele>
        <time>2021-10-17T10:00:00Z</time>
      </trkpt>
      <trkpt lat="43.15904" lon="1.02288">
        <ele>586.05010986</ele>
        <time>2021-10-17T10:00:01Z</time>
      </trkpt>
      <trkpt lat="43.15905" lon="1.02288">
        <ele>586.18011475</ele>
        <time>2021-10-17T10:00:02Z</time>
      </trkpt>
      <trkpt lat="43.15908" lon="1.02287">
        <ele>586.22009277</ele>
        <time>2021-10-17T10:00:03Z</time>
      </trkpt>
      <trkpt lat="43.15909" lon="1.02287">
        <ele>586.28009033</ele>
        <time>2021-10-17T10:00:04Z</time>
      </trkpt>
      <trkpt lat="43.1591" lon="1.02288">
        <ele>586.39007568</ele>
        <time>2021-10-17T10:00:05Z</time>
      </trkpt>
      <trkpt lat="43.15911" lon="1.02288">
        <ele>586.53009033</ele>
        <time>2021-10-17T10:00:06Z</time>
      </trkpt>
      <trkpt lat="43.15912" lon="1.02289">
        <ele>586.7401123</ele>
        <time>2021-10-17T10:00:07Z</time>
      </trkpt>
      <trkpt lat="43.15914" lon="1.02289">
        <ele>586.9901123</ele>
        <time>2021-10-17T10:00:08Z</time>
      </trkpt>
      <trkpt lat="43.15915" lon="1.02289">
        <ele>587.2401123</ele>
        <time>2021-10-17T10:00:09Z</time>
      </trkpt>
      <trkpt lat="43.15917" lon="1.0229">
        <ele>587.56011963</ele>
        <time>2021-10-17T10:00:10Z</time>
      </trkpt>
      <trkpt lat="43.15918" lon="1.02289">
        <ele>587.94012451</ele>
        <time>2021-10-17T10:00:11Z</time>
      </trkpt>
      <trkpt lat="43.1592" lon="1.02289">
        <ele>588.30010986</ele>
        <time>2021-10-17T10:00:12Z</time>
      </trkpt>
      <trkpt lat="43.15921" lon="1.02288">
        <ele>588.57012939</ele>
        <time>2021-10-17T10:00:13Z</time>
      </trkpt>
      <trkpt lat="43.15923" lon="1.02288">
        <ele>588.7901001</ele>
        <time>2021-10-17T10:00:14Z</time>
      </trkpt>
      <trkpt lat="43.15924" lon="1.02288">
        <ele>588.90008545</ele>
        <time>2021-10-17T10:00:15Z</time>
      </trkpt>
      <trkpt lat="43.15925" lon="1.02287">
        <ele>588.9901123</ele>
        <time>2021-10-17T10:00:16Z</time>
      </trkpt>
      <trkpt lat="43.15928" lon="1.02285">
        <ele>589.13012695</ele>
        <time>2021-10-17T10:00:17Z</time>
      </trkpt>
      <trkpt lat="43.15929" lon="1.02285">
        <ele>589.23010254</ele>
        <time>2021-10-17T10:00:18Z</time>
      </trkpt>
      <trkpt lat="43.1593" lon="1.02284">
        <ele>589.36010742</ele>
        <time>2021-10-17T10:00:19Z</time>
      </trkpt>
      <trkpt lat="43.15932" lon="1.02284">
        <ele>589.46008301</ele>
        <time>2021-10-17T10:00:20Z</time>
      </trkpt>
      <trkpt lat="43.15935" lon="1.02283">
        <ele>589.5401001</ele>
        <time>2021-10-17T10:00:21Z</time>
      </trkpt>
      <trkpt lat="43.15936" lon="1.02282">
        <ele>589.59008789</ele>
        <time>2021-10-17T10:00:22Z</time>
      </trkpt>
      <trkpt lat="43.15937" lon="1.02283">
        <ele>589.66009521</ele>
        <time>2021-10-17T10:00:23Z</time>
      </trkpt>
      <trkpt lat="43.15938" lon="1.02284">
        <ele>589.87011719</ele>
        <time>2021-10-17T10:00:24Z</time>
      </trkpt>
      <trkpt lat="43.15939" lon="1.02285">
        <ele>590.13012695</ele>
        <time>2021-10-17T10:00:25Z</time>
      </trkpt>
      <trkpt lat="43.1594" lon="1.02286">
        <ele>590.53015137</ele>
        <time>2021-10-17T10:00:26Z</time>
      </trkpt>
      <trkpt lat="43.1594" lon="1.02286">
        <ele>591.28015137</ele>
        <time>2021-10-17T10:00:28Z</time>
      </trkpt>
      <trkpt lat="43.15945" lon="1.02288">
        <ele>592.34997559</ele>
        <time>2021-10-17T10:00:42Z</time>
      </trkpt>
      <trkpt lat="43.15945" lon="1.02289">
        <ele>592.52996826</ele>
        <time>2021-10-17T10:00:43Z</time>
      </trkpt>
      <trkpt lat="43.15945" lon="1.0229">
        <ele>592.7699585</ele>
        <time>2021-10-17T10:00:44Z</time>
      </trkpt>
      <trkpt lat="43.15945" lon="1.0229">
        <ele>593.02996826</ele>
        <time>2021-10-17T10:00:45Z</time>
      </trkpt>
      <trkpt lat="43.15945" lon="1.02291">
        <ele>593.2199707</ele>
        <time>2021-10-17T10:00:46Z</time>
      </trkpt>
      <trkpt lat="43.15945" lon="1.02291">
        <ele>593.45996094</ele>
        <time>2021-10-17T10:00:47Z</time>
      </trkpt>
      <trkpt lat="43.15946" lon="1.02292">
        <ele>593.64996338</ele>
        <time>2021-10-17T10:00:48Z</time>
      </trkpt>
      <trkpt lat="43.15946" lon="1.02293">
        <ele>593.88995361</ele>
        <time>2021-10-17T10:00:49Z</time>
      </trkpt>
      <trkpt lat="43.15946" lon="1.02293">
        <ele>594.09997559</ele>
        <time>2021-10-17T10:00:50Z</time>
      </trkpt>
      <trkpt lat="43.15946" lon="1.02294">
        <ele>594.30999756</ele>
        <time>2021-10-17T10:00:51Z</time>
      </trkpt>
      <trkpt lat="43.15947" lon="1.02294">
        <ele>594.44000244</ele>
        <time>2021-10-17T10:00:52Z</time>
      </trkpt>
      <trkpt lat="43.15947" lon="1.02295">
        <ele>594.57000732</ele>
        <time>2021-10-17T10:00:53Z</time>
      </trkpt>
      <trkpt lat="43.15947" lon="1.02295">
        <ele>594.75</ele>
        <time>2021-10-17T10:00:54Z</time>
      </trkpt>
      <trkpt lat="43.15948" lon="1.02296">
        <ele>594.95001221</ele>
        <time>2021-10-17T10:00:55Z</time>
      </trkpt>
      <trkpt lat="43.15948" lon="1.02296">
        <ele>595.19000244</ele>
        <time>2021-10-17T10:00:56Z</time>
      </trkpt>
      <trkpt lat="43.15949" lon="1.02297">
        <ele>595.41998291</ele>
        <time>2021-10-17T10:00:57Z</time>
      </trkpt>
      <trkpt lat="43.15949" lon="1.02297">
        <ele>595.60998535</ele>
        <time>2021-10-17T10:00:58Z</time>
      </trkpt>
      <trkpt lat="43.15951" lon="1.02299">
        <ele>596.2800293</ele>
        <time>2021-10-17T10:01:07Z</time>
      </trkpt>
      <trkpt lat="43.15951" lon="1.02299">
        <ele>596.45001221</ele>
        <time>2021-10-17T10:01:08Z</time>
      </trkpt>
      <trkpt lat="43.15951" lon="1.023">
        <ele>596.61999512</ele>
        <time>2021-10-17T10:01:09Z</time>
      </trkpt>
      <trkpt lat="43.15952" lon="1.02301">
        <ele>596.80999756</ele>
        <time>2021-10-17T10:01:10Z</time>
      </trkpt>
      <trkpt lat="43.15952" lon="1.02301">
        <ele>596.96002197</ele>
        <time>2021-10-17T10:01:11Z</time>
      </trkpt>
      <trkpt lat="43.15953" lon="1.02302">
        <ele>597.16003418</ele>
        <time>2021-10-17T10:01:12Z</time>
      </trkpt>
      <trkpt lat="43.15953" lon="1.02302">
        <ele>597.38000488</ele>
        <time>2021-10-17T10:01:13Z</time>
      </trkpt>
      <trkpt lat="43.15953" lon="1.02302">
        <ele>597.5300293</ele>
        <time>2021-10-17T10:01:14Z</time>
      </trkpt>
      <trkpt lat="43.15954" lon="1.02302">
        <ele>597.69000244</ele>
        <time>2021-10-17T10:01:15Z</time>
      </trkpt>
      <trkpt lat="43.15954" lon="1.02303">
        <ele>597.83001709</ele>
        <time>2021-10-17T10:01:16Z</time>
      </trkpt>
      <trkpt lat="43.15954" lon="1.02304">
        <ele>598</ele>
        <time>2021-10-17T10:01:17Z</time>
      </trkpt>
      <trkpt lat="43.15954" lon="1.02304">
        <ele>598.23999023</ele>
        <time>2021-10-17T10:01:18Z</time>
      </trkpt>
      <trkpt lat="43.15955" lon="1.02305">
        <ele>598.5</ele>
        <time>2021-10-17T10:01:19Z</time>
      </trkpt>
      <trkpt lat="43.15955" lon="1.02306">
        <ele>598.78997803</ele>
        <time>2021-10-17T10:01:20Z</time>
      </trkpt>
      <trkpt lat="43.15955" lon="1.02306">
        <ele>599.08996582</ele>
        <time>2021-10-17T10:01:21Z</time>
      </trkpt>
      <trkpt lat="43.15955" lon="1.02307">
        <ele>599.33996582</ele>
        <time>2021-10-17T10:01:22Z</time>
      </trkpt>
      <trkpt lat="43.15955" lon="1.02308">
        <ele>599.58996582</ele>
        <time>2021-10-17T10:01:23Z</time>
      </trkpt>
      <trkpt lat="43.15956" lon="1.02308">
        <ele>599.82995605</ele>
        <time>2021-10-17T10:01:24Z</time>
      </trkpt>
      <trkpt lat="43.15956" lon="1.02309">
        <ele>600.02996826</ele>
        <time>2021-10-17T10:01:25Z</time>
      </trkpt>
      <trkpt lat="43.15956" lon="1.0231">
        <ele>600.2199707</ele>
        <time>2021-10-17T10:01:26Z</time>
      </trkpt>
      <trkpt lat="43.15957" lon="1.0231">
        <ele>600.40997314</ele>
        <time>2021-10-17T10:01:27Z</time>
      </trkpt>
      <trkpt lat="43.15957" lon="1.02311">
        <ele>600.60998535</ele>
        <time>2021-10-17T10:01:28Z</time>
      </trkpt>
      <trkpt lat="43.15957" lon="1.02312">
        <ele>600.82000732</ele>
        <time>2021-10-17T10:01:29Z</time>
      </trkpt>
      <trkpt lat="43.15957" lon="1.02313">
        <ele>601.07000732</ele>
        <time>2021-10-17T10:01:30Z</time>
      </trkpt>
      <trkpt lat="43.15957" lon="1.02314">
        <ele>601.29998779</ele>
        <time>2021-10-17T10:01:31Z</time>
      </trkpt>
      <trkpt lat="43.15958" lon="1.02314">
        <ele>601.51000977</ele>
        <time>2021-10-17T10:01:32Z</time>
      </trkpt>
      <trkpt lat="43.15958" lon="1.02315">
        <ele>601.72003174</ele>
        <time>2021-10-17T10:01:33Z</time>
      </trkpt>
      <trkpt lat="43.15959" lon="1.02315">
        <ele>601.88000488</ele>
        <time>2021-10-17T10:01:34Z</time>
      </trkpt>
      <trkpt lat="43.1596" lon="1.02315">
        <ele>602.07000732</ele>
        <time>2021-10-17T10:01:35Z</time>
      </trkpt>
      <trkpt lat="43.1596" lon="1.02315">
        <ele>602.20001221</ele>
        <time>2021-10-17T10:01:36Z</time>
      </trkpt>
      <trkpt lat="43.1596" lon="1.02315">
        <ele>602.34002686</ele>
        <time>2021-10-17T10:01:37Z</time>
      </trkpt>
      <trkpt lat="43.15961" lon="1.02316">
        <ele>602.5</ele>
        <time>2021-10-17T10:01:38Z</time>
      </trkpt>
      <trkpt lat="43.15961" lon="1.02316">
        <ele>602.59002686</ele>
        <time>2021-10-17T10:01:39Z</time>
      </trkpt>
      <trkpt lat="43.15962" lon="1.02317">
        <ele>602.75</ele>
        <time>2021-10-17T10:01:40Z</time>
      </trkpt>
      <trkpt lat="43.15962" lon="1.02317">
        <ele>602.86999512</ele>
        <time>2021-10-17T10:01:41Z</time>
      </trkpt>
      <trkpt lat="43.15963" lon="1.02317">
        <ele>603.02996826</ele>
        <time>2021-10-17T10:01:42Z</time>
      </trkpt>
      <trkpt lat="43.15963" lon="1.02318">
        <ele>603.18994141</ele>
        <time>2021-10-17T10:01:43Z</time>
      </trkpt>
      <trkpt lat="43.15963" lon="1.02318">
        <ele>603.39001465</ele>
        <time>2021-10-17T10:01:43Z</time>
      </trkpt>
      <trkpt lat="43.15965" lon="1.02322">
        <ele>604.63000488</ele>
        <time>2021-10-17T10:02:09Z</time>
      </trkpt>
      <trkpt lat="43.15965" lon="1.02324">
        <ele>604.84002686</ele>
        <time>2021-10-17T10:02:10Z</time>
      </trkpt>
      <trkpt lat="43.15966" lon="1.02325">
        <ele>605.04003906</ele>
        <time>2021-10-17T10:02:11Z</time>
      </trkpt>
      <trkpt lat="43.15966" lon="1.02325">
        <ele>605.33001709</ele>
        <time>2021-10-17T10:02:12Z</time>
      </trkpt>
      <trkpt lat="43.15966" lon="1.02326">
        <ele>605.52001953</ele>
        <time>2021-10-17T10:02:13Z</time>
      </trkpt>
      <trkpt lat="43.15966" lon="1.02327">
        <ele>605.80999756</ele>
        <time>2021-10-17T10:02:14Z</time>
      </trkpt>
      <trkpt lat="43.15966" lon="1.02328">
        <ele>606.08001709</ele>
        <time>2021-10-17T10:02:15Z</time>
      </trkpt>
      <trkpt lat="43.15967" lon="1.02329">
        <ele>606.32000732</ele>
        <time>2021-10-17T10:02:16Z</time>
      </trkpt>
      <trkpt lat="43.15967" lon="1.0233">
        <ele>606.63000488</ele>
        <time>2021-10-17T10:02:17Z</time>
      </trkpt>
      <trkpt lat="43.15967" lon="1.02331">
        <ele>606.91003418</ele>
        <time>2021-10-17T10:02:18Z</time>
      </trkpt>
      <trkpt lat="43.15967" lon="1.02332">
        <ele>607.47003174</ele>
        <time>2021-10-17T10:02:19Z</time>
      </trkpt>
      <trkpt lat="43.15967" lon="1.02333">
        <ele>607.47003174</ele>
        <time>2021-10-17T10:02:20Z</time>
      </trkpt>
      <trkpt lat="43.15968" lon="1.02334">
        <ele>607.75006104</ele>
        <time>2021-10-17T10:02:21Z</time>
      </trkpt>
      <trkpt lat="43.15969" lon="1.02337">
        <ele>608.5</ele>
        <time>2021-10-17T10:02:24Z</time>
      </trkpt>
      <trkpt lat="43.1597" lon="1.02338">
        <ele>608.67999268</ele>
        <time>2021-10-17T10:02:25Z</time>
      </trkpt>
      <trkpt lat="43.1597" lon="1.02339">
        <ele>608.85998535</ele>
        <time>2021-10-17T10:02:26Z</time>
      </trkpt>
      <trkpt lat="43.1597" lon="1.02339">
        <ele>609.01000977</ele>
        <time>2021-10-17T10:02:27Z</time>
      </trkpt>
      <trkpt lat="43.1597" lon="1.02341">
        <ele>609.22003174</ele>
        <time>2021-10-17T10:02:28Z</time>
      </trkpt>
      <trkpt lat="43.1597" lon="1.02341">
        <ele>609.42004395</ele>
        <time>2021-10-17T10:02:29Z</time>
      </trkpt>
      <trkpt lat="43.15971" lon="1.02345">
        <ele>610.67999268</ele>
        <time>2021-10-17T10:02:33Z</time>
      </trkpt>
      <trkpt lat="43.15971" lon="1.02346">
        <ele>611.03997803</ele>
        <time>2021-10-17T10:02:34Z</time>
      </trkpt>
      <trkpt lat="43.15971" lon="1.02347">
        <ele>611.33996582</ele>
        <time>2021-10-17T10:02:35Z</time>
      </trkpt>
      <trkpt lat="43.15971" lon="1.02348">
        <ele>611.59997559</ele>
        <time>2021-10-17T10:02:36Z</time>
      </trkpt>
      <trkpt lat="43.15971" lon="1.02349">
        <ele>611.84997559</ele>
        <time>2021-10-17T10:02:37Z</time>
      </trkpt>
      <trkpt lat="43.15971" lon="1.0235">
        <ele>612.11999512</ele>
        <time>2021-10-17T10:02:38Z</time>
      </trkpt>
      <trkpt lat="43.15971" lon="1.02351">
        <ele>612.33001709</ele>
        <time>2021-10-17T10:02:39Z</time>
      </trkpt>
      <trkpt lat="43.15971" lon="1.02352">
        <ele>612.61999512</ele>
        <time>2021-10-17T10:02:40Z</time>
      </trkpt>
      <trkpt lat="43.15971" lon="1.02354">
        <ele>612.96002197</ele>
        <time>2021-10-17T10:02:41Z</time>
      </trkpt>
      <trkpt lat="43.1597" lon="1.02355">
        <ele>613.21002197</ele>
        <time>2021-10-17T10:02:42Z</time>
      </trkpt>
      <trkpt lat="43.1597" lon="1.02356">
        <ele>613.49005127</ele>
        <time>2021-10-17T10:02:43Z</time>
      </trkpt>
      <trkpt lat="43.15969" lon="1.02356">
        <ele>613.68005371</ele>
        <time>2021-10-17T10:02:44Z</time>
      </trkpt>
      <trkpt lat="43.15966" lon="1.02366">
        <ele>614.97998047</ele>
        <time>2021-10-17T10:03:01Z</time>
      </trkpt>
      <trkpt lat="43.15966" lon="1.02366">
        <ele>615.08996582</ele>
        <time>2021-10-17T10:03:02Z</time>
      </trkpt>
      <trkpt lat="43.15966" lon="1.02367">
        <ele>615.2199707</ele>
        <time>2021-10-17T10:03:03Z</time>
      </trkpt>
      <trkpt lat="43.15955" lon="1.02368">
        <ele>602.2800293</ele>
        <time>2021-10-17T10:13:55Z</time>
      </trkpt>
      <trkpt lat="43.15953" lon="1.0237">
        <ele>602.22003174</ele>
        <time>2021-10-17T10:13:56Z</time>
      </trkpt>
      <trkpt lat="43.15953" lon="1.02371">
        <ele>602.21002197</ele>
        <time>2021-10-17T10:13:57Z</time>
      </trkpt>
      <trkpt lat="43.15951" lon="1.02374">
        <ele>602.17999268</ele>
        <time>2021-10-17T10:13:58Z</time>
      </trkpt>
      <trkpt lat="43.1595" lon="1.02375">
        <ele>602.26000977</ele>
        <time>2021-10-17T10:13:59Z</time>
      </trkpt>
      <trkpt lat="43.15949" lon="1.02376">
        <ele>602.34002686</ele>
        <time>2021-10-17T10:14:00Z</time>
      </trkpt>
      <trkpt lat="43.15948" lon="1.02377">
        <ele>602.43005371</ele>
        <time>2021-10-17T10:14:01Z</time>
      </trkpt>
      <trkpt lat="43.15945" lon="1.02378">
        <ele>602.37005615</ele>
        <time>2021-10-17T10:14:02Z</time>
      </trkpt>
      <trkpt lat="43.15944" lon="1.0238">
        <ele>602.09002686</ele>
        <time>2021-10-17T10:14:03Z</time>
      </trkpt>
      <trkpt lat="43.15943" lon="1.02383">
        <ele>601.91003418</ele>
        <time>2021-10-17T10:14:04Z</time>
      </trkpt>
      <trkpt lat="43.15941" lon="1.02385">
        <ele>601.7300415</ele>
        <time>2021-10-17T10:14:05Z</time>
      </trkpt>
      <trkpt lat="43.1594" lon="1.02387">
        <ele>601.70001221</ele>
        <time>2021-10-17T10:14:06Z</time>
      </trkpt>
      <trkpt lat="43.15938" lon="1.02389">
        <ele>601.84002686</ele>
        <time>2021-10-17T10:14:07Z</time>
      </trkpt>
      <trkpt lat="43.15936" lon="1.0239">
        <ele>601.83001709</ele>
        <time>2021-10-17T10:14:08Z</time>
      </trkpt>
      <trkpt lat="43.15933" lon="1.02391">
        <ele>601.80999756</ele>
        <time>2021-10-17T10:14:09Z</time>
      </trkpt>
      <trkpt lat="43.15932" lon="1.02393">
        <ele>601.66998291</ele>
        <time>2021-10-17T10:14:10Z</time>
      </trkpt>
      <trkpt lat="43.15928" lon="1.02395">
        <ele>601.48999023</ele>
        <time>2021-10-17T10:14:11Z</time>
      </trkpt>
      <trkpt lat="43.15927" lon="1.02397">
        <ele>601.29998779</ele>
        <time>2021-10-17T10:14:12Z</time>
      </trkpt>
      <trkpt lat="43.15925" lon="1.02398">
        <ele>601.15997314</ele>
        <time>2021-10-17T10:14:13Z</time>
      </trkpt>
      <trkpt lat="43.15924" lon="1.024">
        <ele>601.06994629</ele>
        <time>2021-10-17T10:14:14Z</time>
      </trkpt>
      <trkpt lat="43.15923" lon="1.02402">
        <ele>600.9899292</ele>
        <time>2021-10-17T10:14:15Z</time>
      </trkpt>
      <trkpt lat="43.15922" lon="1.02405">
        <ele>600.96990967</ele>
        <time>2021-10-17T10:14:16Z</time>
      </trkpt>
      <trkpt lat="43.15921" lon="1.02407">
        <ele>600.96990967</ele>
        <time>2021-10-17T10:14:17Z</time>
      </trkpt>
      <trkpt lat="43.1592" lon="1.02408">
        <ele>601.0098877</ele>
        <time>2021-10-17T10:14:18Z</time>
      </trkpt>
      <trkpt lat="43.15918" lon="1.0241">
        <ele>601.0098877</ele>
        <time>2021-10-17T10:14:19Z</time>
      </trkpt>
      <trkpt lat="43.15915" lon="1.02412">
        <ele>600.91986084</ele>
        <time>2021-10-17T10:14:20Z</time>
      </trkpt>
      <trkpt lat="43.15912" lon="1.02414">
        <ele>600.71984863</ele>
        <time>2021-10-17T10:14:21Z</time>
      </trkpt>
      <trkpt lat="43.1591" lon="1.02416">
        <ele>600.32983398</ele>
        <time>2021-10-17T10:14:22Z</time>
      </trkpt>
      <trkpt lat="43.15907" lon="1.02418">
        <ele>600.00982666</ele>
        <time>2021-10-17T10:14:23Z</time>
      </trkpt>
      <trkpt lat="43.15904" lon="1.0242">
        <ele>599.52984619</ele>
        <time>2021-10-17T10:14:24Z</time>
      </trkpt>
      <trkpt lat="43.159" lon="1.02421">
        <ele>598.96984863</ele>
        <time>2021-10-17T10:14:25Z</time>
      </trkpt>
      <trkpt lat="43.15897" lon="1.02423">
        <ele>598.43981934</ele>
        <time>2021-10-17T10:14:26Z</time>
      </trkpt>
      <trkpt lat="43.15894" lon="1.02426">
        <ele>597.82983398</ele>
        <time>2021-10-17T10:14:27Z</time>
      </trkpt>
      <trkpt lat="43.15892" lon="1.02429">
        <ele>597.39984131</ele>
        <time>2021-10-17T10:14:28Z</time>
      </trkpt>
      <trkpt lat="43.15889" lon="1.02432">
        <ele>597.02984619</ele>
        <time>2021-10-17T10:14:29Z</time>
      </trkpt>
      <trkpt lat="43.15887" lon="1.02435">
        <ele>596.65985107</ele>
        <time>2021-10-17T10:14:30Z</time>
      </trkpt>
      <trkpt lat="43.15884" lon="1.02437">
        <ele>596.26983643</ele>
        <time>2021-10-17T10:14:31Z</time>
      </trkpt>
      <trkpt lat="43.15881" lon="1.02439">
        <ele>595.93981934</ele>
        <time>2021-10-17T10:14:32Z</time>
      </trkpt>
      <trkpt lat="43.15878" lon="1.0244">
        <ele>595.59979248</ele>
        <time>2021-10-17T10:14:33Z</time>
      </trkpt>
      <trkpt lat="43.15875" lon="1.02442">
        <ele>595.12982178</ele>
        <time>2021-10-17T10:14:34Z</time>
      </trkpt>
      <trkpt lat="43.15873" lon="1.02446">
        <ele>594.61981201</ele>
        <time>2021-10-17T10:14:35Z</time>
      </trkpt>
      <trkpt lat="43.15871" lon="1.02449">
        <ele>594.13983154</ele>
        <time>2021-10-17T10:14:36Z</time>
      </trkpt>
      <trkpt lat="43.15871" lon="1.02452">
        <ele>593.70983887</ele>
        <time>2021-10-17T10:14:37Z</time>
      </trkpt>
      <trkpt lat="43.15868" lon="1.02456">
        <ele>593.55981445</ele>
        <time>2021-10-17T10:14:38Z</time>
      </trkpt>
      <trkpt lat="43.15865" lon="1.02459">
        <ele>593.1998291</ele>
        <time>2021-10-17T10:14:39Z</time>
      </trkpt>
      <trkpt lat="43.15863" lon="1.02461">
        <ele>592.81982422</ele>
        <time>2021-10-17T10:14:40Z</time>
      </trkpt>
      <trkpt lat="43.15861" lon="1.02463">
        <ele>592.46984863</ele>
        <time>2021-10-17T10:14:41Z</time>
      </trkpt>
      <trkpt lat="43.15859" lon="1.02466">
        <ele>592.04986572</ele>
        <time>2021-10-17T10:14:42Z</time>
      </trkpt>
      <trkpt lat="43.15856" lon="1.02471">
        <ele>591.65985107</ele>
        <time>2021-10-17T10:14:43Z</time>
      </trkpt>
      <trkpt lat="43.15855" lon="1.02475">
        <ele>591.1998291</ele>
        <time>2021-10-17T10:14:44Z</time>
      </trkpt>
      <trkpt lat="43.15854" lon="1.02478">
        <ele>590.77984619</ele>
        <time>2021-10-17T10:14:45Z</time>
      </trkpt>
      <trkpt lat="43.15852" lon="1.0248">
        <ele>590.31982422</ele>
        <time>2021-10-17T10:14:46Z</time>
      </trkpt>
      <trkpt lat="43.15848" lon="1.02485">
        <ele>589.90985107</ele>
        <time>2021-10-17T10:14:47Z</time>
      </trkpt>
      <trkpt lat="43.15846" lon="1.02489">
        <ele>589.30987549</ele>
        <time>2021-10-17T10:14:48Z</time>
      </trkpt>
      <trkpt lat="43.15844" lon="1.02493">
        <ele>588.63989258</ele>
        <time>2021-10-17T10:14:49Z</time>
      </trkpt>
      <trkpt lat="43.15842" lon="1.02496">
        <ele>587.90991211</ele>
        <time>2021-10-17T10:14:50Z</time>
      </trkpt>
      <trkpt lat="43.15842" lon="1.025">
        <ele>587.2598877</ele>
        <time>2021-10-17T10:14:51Z</time>
      </trkpt>
      <trkpt lat="43.15841" lon="1.02502">
        <ele>586.78991699</ele>
        <time>2021-10-17T10:14:52Z</time>
      </trkpt>
      <trkpt lat="43.15839" lon="1.02504">
        <ele>586.30993652</ele>
        <time>2021-10-17T10:14:53Z</time>
      </trkpt>
      <trkpt lat="43.15837" lon="1.02506">
        <ele>585.75994873</ele>
        <time>2021-10-17T10:14:54Z</time>
      </trkpt>
      <trkpt lat="43.15836" lon="1.02508">
        <ele>585.14996338</ele>
        <time>2021-10-17T10:14:55Z</time>
      </trkpt>
      <trkpt lat="43.15832" lon="1.02513">
        <ele>584.49993896</ele>
        <time>2021-10-17T10:14:56Z</time>
      </trkpt>
      <trkpt lat="43.15831" lon="1.02516">
        <ele>583.78991699</ele>
        <time>2021-10-17T10:14:57Z</time>
      </trkpt>
      <trkpt lat="43.15829" lon="1.02519">
        <ele>583.09991455</ele>
        <time>2021-10-17T10:14:58Z</time>
      </trkpt>
      <trkpt lat="43.15828" lon="1.02521">
        <ele>582.47991943</ele>
        <time>2021-10-17T10:14:59Z</time>
      </trkpt>
      <trkpt lat="43.15825" lon="1.02524">
        <ele>581.81994629</ele>
        <time>2021-10-17T10:15:00Z</time>
      </trkpt>
      <trkpt lat="43.1582" lon="1.02529">
        <ele>581.0199585</ele>
        <time>2021-10-17T10:15:01Z</time>
      </trkpt>
      <trkpt lat="43.15818" lon="1.02532">
        <ele>580.40997314</ele>
        <time>2021-10-17T10:15:02Z</time>
      </trkpt>
      <trkpt lat="43.15816" lon="1.02533">
        <ele>579.72998047</ele>
        <time>2021-10-17T10:15:03Z</time>
      </trkpt>
      <trkpt lat="43.15812" lon="1.02536">
        <ele>579.08996582</ele>
        <time>2021-10-17T10:15:04Z</time>
      </trkpt>
      <trkpt lat="43.15808" lon="1.02541">
        <ele>578.48999023</ele>
        <time>2021-10-17T10:15:05Z</time>
      </trkpt>
      <trkpt lat="43.15805" lon="1.02545">
        <ele>577.70996094</ele>
        <time>2021-10-17T10:15:06Z</time>
      </trkpt>
      <trkpt lat="43.15802" lon="1.0255">
        <ele>576.80993652</ele>
        <time>2021-10-17T10:15:07Z</time>
      </trkpt>
      <trkpt lat="43.15799" lon="1.02554">
        <ele>575.81994629</ele>
        <time>2021-10-17T10:15:08Z</time>
      </trkpt>
      <trkpt lat="43.15795" lon="1.02561">
        <ele>574.91992188</ele>
        <time>2021-10-17T10:15:09Z</time>
      </trkpt>
      <trkpt lat="43.15792" lon="1.02566">
        <ele>574.03991699</ele>
        <time>2021-10-17T10:15:10Z</time>
      </trkpt>
      <trkpt lat="43.15789" lon="1.02572">
        <ele>573.27990723</ele>
        <time>2021-10-17T10:15:11Z</time>
      </trkpt>
      <trkpt lat="43.15786" lon="1.02578">
        <ele>572.67993164</ele>
        <time>2021-10-17T10:15:12Z</time>
      </trkpt>
      <trkpt lat="43.15784" lon="1.02584">
        <ele>571.86993408</ele>
        <time>2021-10-17T10:15:13Z</time>
      </trkpt>
      <trkpt lat="43.15779" lon="1.02591">
        <ele>571.04992676</ele>
        <time>2021-10-17T10:15:14Z</time>
      </trkpt>
      <trkpt lat="43.15777" lon="1.02596">
        <ele>570.40991211</ele>
        <time>2021-10-17T10:15:15Z</time>
      </trkpt>
      <trkpt lat="43.15775" lon="1.02601">
        <ele>569.7098999</ele>
        <time>2021-10-17T10:15:16Z</time>
      </trkpt>
      <trkpt lat="43.15774" lon="1.02604">
        <ele>569.34991455</ele>
        <time>2021-10-17T10:15:17Z</time>
      </trkpt>
      <trkpt lat="43.15773" lon="1.02608">
        <ele>569.17993164</ele>
        <time>2021-10-17T10:15:18Z</time>
      </trkpt>
      <trkpt lat="43.15771" lon="1.02614">
        <ele>569.05993652</ele>
        <time>2021-10-17T10:15:19Z</time>
      </trkpt>
      <trkpt lat="43.15769" lon="1.02617">
        <ele>568.89996338</ele>
        <time>2021-10-17T10:15:20Z</time>
      </trkpt>
      <trkpt lat="43.15767" lon="1.02621">
        <ele>568.61993408</ele>
        <time>2021-10-17T10:15:21Z</time>
      </trkpt>
      <trkpt lat="43.15764" lon="1.02622">
        <ele>568.15991211</ele>
        <time>2021-10-17T10:15:22Z</time>
      </trkpt>
      <trkpt lat="43.1576" lon="1.02625">
        <ele>567.63989258</ele>
        <time>2021-10-17T10:15:23Z</time>
      </trkpt>
      <trkpt lat="43.15757" lon="1.02626">
        <ele>567.29986572</ele>
        <time>2021-10-17T10:15:24Z</time>
      </trkpt>
      <trkpt lat="43.15754" lon="1.02628">
        <ele>566.78985596</ele>
        <time>2021-10-17T10:15:25Z</time>
      </trkpt>
      <trkpt lat="43.15752" lon="1.0263">
        <ele>566.18988037</ele>
        <time>2021-10-17T10:15:26Z</time>
      </trkpt>
      <trkpt lat="43.15749" lon="1.02632">
        <ele>565.64990234</ele>
        <time>2021-10-17T10:15:27Z</time>
      </trkpt>
      <trkpt lat="43.15746" lon="1.02636">
        <ele>564.80987549</ele>
        <time>2021-10-17T10:15:28Z</time>
      </trkpt>
      <trkpt lat="43.15743" lon="1.02639">
        <ele>564.12988281</ele>
        <time>2021-10-17T10:15:29Z</time>
      </trkpt>
      <trkpt lat="43.1574" lon="1.02642">
        <ele>563.53985596</ele>
        <time>2021-10-17T10:15:30Z</time>
      </trkpt>
      <trkpt lat="43.15736" lon="1.02645">
        <ele>562.59985352</ele>
        <time>2021-10-17T10:15:31Z</time>
      </trkpt>
      <trkpt lat="43.15731" lon="1.02651">
        <ele>561.73986816</ele>
        <time>2021-10-17T10:15:32Z</time>
      </trkpt>
      <trkpt lat="43.15727" lon="1.02655">
        <ele>560.95983887</ele>
        <time>2021-10-17T10:15:33Z</time>
      </trkpt>
      <trkpt lat="43.15724" lon="1.02658">
        <ele>560.2298584</ele>
        <time>2021-10-17T10:15:34Z</time>
      </trkpt>
      <trkpt lat="43.15721" lon="1.02661">
        <ele>559.52984619</ele>
        <time>2021-10-17T10:15:35Z</time>
      </trkpt>
      <trkpt lat="43.15719" lon="1.02663">
        <ele>559.05987549</ele>
        <time>2021-10-17T10:15:36Z</time>
      </trkpt>
      <trkpt lat="43.15716" lon="1.02667">
        <ele>558.42987061</ele>
        <time>2021-10-17T10:15:37Z</time>
      </trkpt>
      <trkpt lat="43.15713" lon="1.02669">
        <ele>557.68988037</ele>
        <time>2021-10-17T10:15:38Z</time>
      </trkpt>
      <trkpt lat="43.15711" lon="1.02671">
        <ele>557.13989258</ele>
        <time>2021-10-17T10:15:39Z</time>
      </trkpt>
      <trkpt lat="43.15707" lon="1.02674">
        <ele>556.37988281</ele>
        <time>2021-10-17T10:15:40Z</time>
      </trkpt>
      <trkpt lat="43.15705" lon="1.02676">
        <ele>555.64990234</ele>
        <time>2021-10-17T10:15:41Z</time>
      </trkpt>
      <trkpt lat="43.15702" lon="1.02679">
        <ele>555.14990234</ele>
        <time>2021-10-17T10:15:42Z</time>
      </trkpt>
      <trkpt lat="43.157" lon="1.02681">
        <ele>554.58990479</ele>
        <time>2021-10-17T10:15:43Z</time>
      </trkpt>
      <trkpt lat="43.15697" lon="1.02684">
        <ele>554.03991699</ele>
        <time>2021-10-17T10:15:44Z</time>
      </trkpt>
      <trkpt lat="43.15695" lon="1.02686">
        <ele>553.49993896</ele>
        <time>2021-10-17T10:15:45Z</time>
      </trkpt>
      <trkpt lat="43.15692" lon="1.02691">
        <ele>552.91992188</ele>
        <time>2021-10-17T10:15:46Z</time>
      </trkpt>
      <trkpt lat="43.15689" lon="1.02692">
        <ele>552.12994385</ele>
        <time>2021-10-17T10:15:47Z</time>
      </trkpt>
      <trkpt lat="43.15686" lon="1.02694">
        <ele>551.44995117</ele>
        <time>2021-10-17T10:15:48Z</time>
      </trkpt>
      <trkpt lat="43.15683" lon="1.02697">
        <ele>550.7699585</ele>
        <time>2021-10-17T10:15:49Z</time>
      </trkpt>
      <trkpt lat="43.15679" lon="1.02701">
        <ele>550.03997803</ele>
        <time>2021-10-17T10:15:50Z</time>
      </trkpt>
      <trkpt lat="43.15677" lon="1.02705">
        <ele>549.5199585</ele>
        <time>2021-10-17T10:15:51Z</time>
      </trkpt>
      <trkpt lat="43.15675" lon="1.02708">
        <ele>548.94995117</ele>
        <time>2021-10-17T10:15:52Z</time>
      </trkpt>
      <trkpt lat="43.15672" lon="1.0271">
        <ele>548.29992676</ele>
        <time>2021-10-17T10:15:53Z</time>
      </trkpt>
      <trkpt lat="43.1567" lon="1.02713">
        <ele>547.51989746</ele>
        <time>2021-10-17T10:15:54Z</time>
      </trkpt>
      <trkpt lat="43.15666" lon="1.02717">
        <ele>546.76989746</ele>
        <time>2021-10-17T10:15:55Z</time>
      </trkpt>
      <trkpt lat="43.15664" lon="1.0272">
        <ele>546.05987549</ele>
        <time>2021-10-17T10:15:56Z</time>
      </trkpt>
      <trkpt lat="43.15661" lon="1.02724">
        <ele>545.38989258</ele>
        <time>2021-10-17T10:15:57Z</time>
      </trkpt>
      <trkpt lat="43.15659" lon="1.02728">
        <ele>544.74987793</ele>
        <time>2021-10-17T10:15:58Z</time>
      </trkpt>
      <trkpt lat="43.15654" lon="1.02733">
        <ele>544.10986328</ele>
        <time>2021-10-17T10:15:59Z</time>
      </trkpt>
      <trkpt lat="43.15652" lon="1.02737">
        <ele>543.42987061</ele>
        <time>2021-10-17T10:16:00Z</time>
      </trkpt>
      <trkpt lat="43.1565" lon="1.0274">
        <ele>542.83984375</ele>
        <time>2021-10-17T10:16:01Z</time>
      </trkpt>
      <trkpt lat="43.15649" lon="1.02741">
        <ele>542.26000977</ele>
        <time>2021-10-17T10:16:01Z</time>
      </trkpt>
      <trkpt lat="43.15648" lon="1.02744">
        <ele>542.26000977</ele>
        <time>2021-10-17T10:16:02Z</time>
      </trkpt>
      <trkpt lat="43.15646" lon="1.02747">
        <ele>541.79003906</ele>
        <time>2021-10-17T10:16:03Z</time>
      </trkpt>
      <trkpt lat="43.15641" lon="1.02749">
        <ele>540.29003906</ele>
        <time>2021-10-17T10:16:04Z</time>
      </trkpt>
      <trkpt lat="43.15638" lon="1.02752">
        <ele>539.66003418</ele>
        <time>2021-10-17T10:16:05Z</time>
      </trkpt>
      <trkpt lat="43.15636" lon="1.02754">
        <ele>538.97003174</ele>
        <time>2021-10-17T10:16:06Z</time>
      </trkpt>
      <trkpt lat="43.15634" lon="1.02757">
        <ele>538.62005615</ele>
        <time>2021-10-17T10:16:07Z</time>
      </trkpt>
      <trkpt lat="43.1563" lon="1.02761">
        <ele>538.0300293</ele>
        <time>2021-10-17T10:16:08Z</time>
      </trkpt>
      <trkpt lat="43.15628" lon="1.02765">
        <ele>537.31005859</ele>
        <time>2021-10-17T10:16:09Z</time>
      </trkpt>
      <trkpt lat="43.15626" lon="1.02768">
        <ele>536.67004395</ele>
        <time>2021-10-17T10:16:10Z</time>
      </trkpt>
      <trkpt lat="43.15624" lon="1.02771">
        <ele>536.0100708</ele>
        <time>2021-10-17T10:16:11Z</time>
      </trkpt>
      <trkpt lat="43.15621" lon="1.02775">
        <ele>535.46008301</ele>
        <time>2021-10-17T10:16:12Z</time>
      </trkpt>
      <trkpt lat="43.15618" lon="1.02778">
        <ele>534.91009521</ele>
        <time>2021-10-17T10:16:13Z</time>
      </trkpt>
      <trkpt lat="43.15616" lon="1.02782">
        <ele>534.44012451</ele>
        <time>2021-10-17T10:16:14Z</time>
      </trkpt>
      <trkpt lat="43.15612" lon="1.02785">
        <ele>533.76013184</ele>
        <time>2021-10-17T10:16:15Z</time>
      </trkpt>
      <trkpt lat="43.15609" lon="1.02789">
        <ele>532.90014648</ele>
        <time>2021-10-17T10:16:16Z</time>
      </trkpt>
      <trkpt lat="43.15605" lon="1.02795">
        <ele>532.06011963</ele>
        <time>2021-10-17T10:16:17Z</time>
      </trkpt>
      <trkpt lat="43.15602" lon="1.02799">
        <ele>531.05010986</ele>
        <time>2021-10-17T10:16:18Z</time>
      </trkpt>
      <trkpt lat="43.156" lon="1.02803">
        <ele>530.40008545</ele>
        <time>2021-10-17T10:16:19Z</time>
      </trkpt>
      <trkpt lat="43.15597" lon="1.02807">
        <ele>529.81005859</ele>
        <time>2021-10-17T10:16:20Z</time>
      </trkpt>
      <trkpt lat="43.15595" lon="1.02811">
        <ele>529.15008545</ele>
        <time>2021-10-17T10:16:21Z</time>
      </trkpt>
      <trkpt lat="43.15591" lon="1.02817">
        <ele>528.68011475</ele>
        <time>2021-10-17T10:16:22Z</time>
      </trkpt>
      <trkpt lat="43.15588" lon="1.02821">
        <ele>528.08013916</ele>
        <time>2021-10-17T10:16:23Z</time>
      </trkpt>
      <trkpt lat="43.15585" lon="1.02826">
        <ele>527.57012939</ele>
        <time>2021-10-17T10:16:24Z</time>
      </trkpt>
      <trkpt lat="43.15582" lon="1.0283">
        <ele>527.18011475</ele>
        <time>2021-10-17T10:16:25Z</time>
      </trkpt>
      <trkpt lat="43.15577" lon="1.02836">
        <ele>526.53009033</ele>
        <time>2021-10-17T10:16:26Z</time>
      </trkpt>
      <trkpt lat="43.15575" lon="1.0284">
        <ele>525.66009521</ele>
        <time>2021-10-17T10:16:27Z</time>
      </trkpt>
      <trkpt lat="43.15571" lon="1.02844">
        <ele>524.72009277</ele>
        <time>2021-10-17T10:16:28Z</time>
      </trkpt>
      <trkpt lat="43.15568" lon="1.02849">
        <ele>523.60009766</ele>
        <time>2021-10-17T10:16:29Z</time>
      </trkpt>
      <trkpt lat="43.15565" lon="1.02854">
        <ele>522.61010742</ele>
        <time>2021-10-17T10:16:30Z</time>
      </trkpt>
      <trkpt lat="43.15561" lon="1.02861">
        <ele>521.53009033</ele>
        <time>2021-10-17T10:16:31Z</time>
      </trkpt>
      <trkpt lat="43.15558" lon="1.02867">
        <ele>520.75006104</ele>
        <time>2021-10-17T10:16:32Z</time>
      </trkpt>
      <trkpt lat="43.15555" lon="1.02872">
        <ele>519.92004395</ele>
        <time>2021-10-17T10:16:33Z</time>
      </trkpt>
      <trkpt lat="43.15553" lon="1.02878">
        <ele>518.91003418</ele>
        <time>2021-10-17T10:16:34Z</time>
      </trkpt>
      <trkpt lat="43.1555" lon="1.02883">
        <ele>518.42004395</ele>
        <time>2021-10-17T10:16:35Z</time>
      </trkpt>
      <trkpt lat="43.15547" lon="1.02891">
        <ele>517.66003418</ele>
        <time>2021-10-17T10:16:36Z</time>
      </trkpt>
      <trkpt lat="43.15545" lon="1.02895">
        <ele>517.4800415</ele>
        <time>2021-10-17T10:16:37Z</time>
      </trkpt>
      <trkpt lat="43.15542" lon="1.02899">
        <ele>517.39001465</ele>
        <time>2021-10-17T10:16:38Z</time>
      </trkpt>
      <trkpt lat="43.15541" lon="1.02903">
        <ele>516.85003662</ele>
        <time>2021-10-17T10:16:39Z</time>
      </trkpt>
      <trkpt lat="43.15539" lon="1.02909">
        <ele>516.40002441</ele>
        <time>2021-10-17T10:16:40Z</time>
      </trkpt>
      <trkpt lat="43.15539" lon="1.02912">
        <ele>515.64001465</ele>
        <time>2021-10-17T10:16:41Z</time>
      </trkpt>
      <trkpt lat="43.15539" lon="1.02915">
        <ele>515.04998779</ele>
        <time>2021-10-17T10:16:42Z</time>
      </trkpt>
      <trkpt lat="43.1554" lon="1.02917">
        <ele>514.7199707</ele>
        <time>2021-10-17T10:16:43Z</time>
      </trkpt>
      <trkpt lat="43.15539" lon="1.02922">
        <ele>514.32995605</ele>
        <time>2021-10-17T10:16:44Z</time>
      </trkpt>
      <trkpt lat="43.15538" lon="1.02925">
        <ele>513.88995361</ele>
        <time>2021-10-17T10:16:45Z</time>
      </trkpt>
      <trkpt lat="43.15538" lon="1.02927">
        <ele>513.43994141</ele>
        <time>2021-10-17T10:16:46Z</time>
      </trkpt>
      <trkpt lat="43.15537" lon="1.02929">
        <ele>513.05993652</ele>
        <time>2021-10-17T10:16:47Z</time>
      </trkpt>
      <trkpt lat="43.15537" lon="1.02931">
        <ele>512.59991455</ele>
        <time>2021-10-17T10:16:48Z</time>
      </trkpt>
      <trkpt lat="43.15537" lon="1.02934">
        <ele>512.22991943</ele>
        <time>2021-10-17T10:16:49Z</time>
      </trkpt>
      <trkpt lat="43.15536" lon="1.02938">
        <ele>511.69992065</ele>
        <time>2021-10-17T10:16:50Z</time>
      </trkpt>
      <trkpt lat="43.15534" lon="1.02941">
        <ele>511.11993408</ele>
        <time>2021-10-17T10:16:51Z</time>
      </trkpt>
      <trkpt lat="43.15533" lon="1.02944">
        <ele>510.53994751</ele>
        <time>2021-10-17T10:16:52Z</time>
      </trkpt>
      <trkpt lat="43.15528" lon="1.02947">
        <ele>509.73995972</ele>
        <time>2021-10-17T10:16:53Z</time>
      </trkpt>
      <trkpt lat="43.15526" lon="1.02949">
        <ele>508.88995361</ele>
        <time>2021-10-17T10:16:54Z</time>
      </trkpt>
      <trkpt lat="43.15522" lon="1.02952">
        <ele>508.07995605</ele>
        <time>2021-10-17T10:16:55Z</time>
      </trkpt>
      <trkpt lat="43.15517" lon="1.02955">
        <ele>507.04995728</ele>
        <time>2021-10-17T10:16:56Z</time>
      </trkpt>
      <trkpt lat="43.15511" lon="1.02959">
        <ele>505.82995605</ele>
        <time>2021-10-17T10:16:57Z</time>
      </trkpt>
      <trkpt lat="43.15502" lon="1.02965">
        <ele>504.38995361</ele>
        <time>2021-10-17T10:16:58Z</time>
      </trkpt>
      <trkpt lat="43.15495" lon="1.02969">
        <ele>502.8699646</ele>
        <time>2021-10-17T10:16:59Z</time>
      </trkpt>
      <trkpt lat="43.15488" lon="1.02972">
        <ele>501.34997559</ele>
        <time>2021-10-17T10:17:00Z</time>
      </trkpt>
      <trkpt lat="43.15482" lon="1.02975">
        <ele>500.15997314</ele>
        <time>2021-10-17T10:17:01Z</time>
      </trkpt>
      <trkpt lat="43.15476" lon="1.02979">
        <ele>499.09997559</ele>
        <time>2021-10-17T10:17:02Z</time>
      </trkpt>
      <trkpt lat="43.15467" lon="1.02986">
        <ele>498.01998901</ele>
        <time>2021-10-17T10:17:03Z</time>
      </trkpt>
      <trkpt lat="43.15463" lon="1.02991">
        <ele>497.31997681</ele>
        <time>2021-10-17T10:17:04Z</time>
      </trkpt>
      <trkpt lat="43.15458" lon="1.02997">
        <ele>496.54998779</ele>
        <time>2021-10-17T10:17:05Z</time>
      </trkpt>
      <trkpt lat="43.15454" lon="1.03003">
        <ele>496.00997925</ele>
        <time>2021-10-17T10:17:06Z</time>
      </trkpt>
      <trkpt lat="43.15447" lon="1.03011">
        <ele>495.48999023</ele>
        <time>2021-10-17T10:17:07Z</time>
      </trkpt>
      <trkpt lat="43.15442" lon="1.03015">
        <ele>494.97998047</ele>
        <time>2021-10-17T10:17:08Z</time>
      </trkpt>
      <trkpt lat="43.15437" lon="1.03018">
        <ele>494.74996948</ele>
        <time>2021-10-17T10:17:09Z</time>
      </trkpt>
      <trkpt lat="43.15433" lon="1.0302">
        <ele>494.75997925</ele>
        <time>2021-10-17T10:17:10Z</time>
      </trkpt>
      <trkpt lat="43.15428" lon="1.03021">
        <ele>494.78997803</ele>
        <time>2021-10-17T10:17:11Z</time>
      </trkpt>
      <trkpt lat="43.15425" lon="1.03021">
        <ele>494.87997437</ele>
        <time>2021-10-17T10:17:12Z</time>
      </trkpt>
      <trkpt lat="43.15422" lon="1.03022">
        <ele>494.70996094</ele>
        <time>2021-10-17T10:17:13Z</time>
      </trkpt>
      <trkpt lat="43.15421" lon="1.03024">
        <ele>494.3699646</ele>
        <time>2021-10-17T10:17:14Z</time>
      </trkpt>
      <trkpt lat="43.15419" lon="1.03025">
        <ele>494.15997314</ele>
        <time>2021-10-17T10:17:15Z</time>
      </trkpt>
      <trkpt lat="43.15415" lon="1.0303">
        <ele>493.64996338</ele>
        <time>2021-10-17T10:17:16Z</time>
      </trkpt>
      <trkpt lat="43.15413" lon="1.03035">
        <ele>493.06997681</ele>
        <time>2021-10-17T10:17:17Z</time>
      </trkpt>
      <trkpt lat="43.15413" lon="1.03039">
        <ele>492.4699707</ele>
        <time>2021-10-17T10:17:18Z</time>
      </trkpt>
      <trkpt lat="43.15412" lon="1.03044">
        <ele>491.88998413</ele>
        <time>2021-10-17T10:17:19Z</time>
      </trkpt>
      <trkpt lat="43.15411" lon="1.03051">
        <ele>491.60998535</ele>
        <time>2021-10-17T10:17:20Z</time>
      </trkpt>
      <trkpt lat="43.15411" lon="1.03055">
        <ele>491.60998535</ele>
        <time>2021-10-17T10:17:21Z</time>
      </trkpt>
      <trkpt lat="43.15411" lon="1.0306">
        <ele>491.66998291</ele>
        <time>2021-10-17T10:17:22Z</time>
      </trkpt>
      <trkpt lat="43.1541" lon="1.03064">
        <ele>491.73999023</ele>
        <time>2021-10-17T10:17:23Z</time>
      </trkpt>
      <trkpt lat="43.1541" lon="1.0307">
        <ele>491.77999878</ele>
        <time>2021-10-17T10:17:24Z</time>
      </trkpt>
      <trkpt lat="43.1541" lon="1.03075">
        <ele>491.70001221</ele>
        <time>2021-10-17T10:17:25Z</time>
      </trkpt>
      <trkpt lat="43.15409" lon="1.03079">
        <ele>491.55001831</ele>
        <time>2021-10-17T10:17:26Z</time>
      </trkpt>
      <trkpt lat="43.15409" lon="1.03083">
        <ele>491.37002563</ele>
        <time>2021-10-17T10:17:27Z</time>
      </trkpt>
      <trkpt lat="43.15409" lon="1.03088">
        <ele>491.22003174</ele>
        <time>2021-10-17T10:17:28Z</time>
      </trkpt>
      <trkpt lat="43.15409" lon="1.03094">
        <ele>491.15002441</ele>
        <time>2021-10-17T10:17:29Z</time>
      </trkpt>
      <trkpt lat="43.15409" lon="1.03097">
        <ele>491.11001587</ele>
        <time>2021-10-17T10:17:30Z</time>
      </trkpt>
      <trkpt lat="43.1541" lon="1.03102">
        <ele>490.95001221</ele>
        <time>2021-10-17T10:17:31Z</time>
      </trkpt>
      <trkpt lat="43.15409" lon="1.03106">
        <ele>490.84002686</ele>
        <time>2021-10-17T10:17:32Z</time>
      </trkpt>
      <trkpt lat="43.15408" lon="1.0311">
        <ele>490.71002197</ele>
        <time>2021-10-17T10:17:33Z</time>
      </trkpt>
      <trkpt lat="43.15405" lon="1.03116">
        <ele>490.68002319</ele>
        <time>2021-10-17T10:17:34Z</time>
      </trkpt>
      <trkpt lat="43.15402" lon="1.03118">
        <ele>490.76000977</ele>
        <time>2021-10-17T10:17:35Z</time>
      </trkpt>
      <trkpt lat="43.154" lon="1.0312">
        <ele>490.86999512</ele>
        <time>2021-10-17T10:17:36Z</time>
      </trkpt>
      <trkpt lat="43.15398" lon="1.03121">
        <ele>491.07998657</ele>
        <time>2021-10-17T10:17:37Z</time>
      </trkpt>
      <trkpt lat="43.15395" lon="1.03123">
        <ele>491.25997925</ele>
        <time>2021-10-17T10:17:38Z</time>
      </trkpt>
      <trkpt lat="43.15394" lon="1.03124">
        <ele>491.47998047</ele>
        <time>2021-10-17T10:17:39Z</time>
      </trkpt>
      <trkpt lat="43.15392" lon="1.03126">
        <ele>491.60998535</ele>
        <time>2021-10-17T10:17:40Z</time>
      </trkpt>
      <trkpt lat="43.1539" lon="1.03127">
        <ele>491.75997925</ele>
        <time>2021-10-17T10:17:41Z</time>
      </trkpt>
      <trkpt lat="43.15389" lon="1.03129">
        <ele>491.82998657</ele>
        <time>2021-10-17T10:17:42Z</time>
      </trkpt>
      <trkpt lat="43.15386" lon="1.03132">
        <ele>491.80999756</ele>
        <time>2021-10-17T10:17:43Z</time>
      </trkpt>
      <trkpt lat="43.15385" lon="1.03134">
        <ele>491.8999939</ele>
        <time>2021-10-17T10:17:44Z</time>
      </trkpt>
      <trkpt lat="43.15383" lon="1.03135">
        <ele>491.95999146</ele>
        <time>2021-10-17T10:17:45Z</time>
      </trkpt>
      <trkpt lat="43.15381" lon="1.03137">
        <ele>492.07998657</ele>
        <time>2021-10-17T10:17:46Z</time>
      </trkpt>
      <trkpt lat="43.15378" lon="1.03141">
        <ele>492.32998657</ele>
        <time>2021-10-17T10:17:47Z</time>
      </trkpt>
      <trkpt lat="43.15377" lon="1.03144">
        <ele>492.47000122</ele>
        <time>2021-10-17T10:17:48Z</time>
      </trkpt>
      <trkpt lat="43.15375" lon="1.03148">
        <ele>492.64001465</ele>
        <time>2021-10-17T10:17:49Z</time>
      </trkpt>
      <trkpt lat="43.15374" lon="1.03151">
        <ele>492.86001587</ele>
        <time>2021-10-17T10:17:50Z</time>
      </trkpt>
      <trkpt lat="43.15373" lon="1.03156">
        <ele>493.08001709</ele>
        <time>2021-10-17T10:17:51Z</time>
      </trkpt>
      <trkpt lat="43.15371" lon="1.03161">
        <ele>493.39001465</ele>
        <time>2021-10-17T10:17:52Z</time>
      </trkpt>
      <trkpt lat="43.1537" lon="1.03164">
        <ele>493.81002808</ele>
        <time>2021-10-17T10:17:53Z</time>
      </trkpt>
      <trkpt lat="43.15369" lon="1.03167">
        <ele>494.21002197</ele>
        <time>2021-10-17T10:17:54Z</time>
      </trkpt>
      <trkpt lat="43.15369" lon="1.03171">
        <ele>494.62002563</ele>
        <time>2021-10-17T10:17:55Z</time>
      </trkpt>
      <trkpt lat="43.15368" lon="1.03175">
        <ele>494.93002319</ele>
        <time>2021-10-17T10:17:56Z</time>
      </trkpt>
      <trkpt lat="43.15368" lon="1.03178">
        <ele>495.20001221</ele>
        <time>2021-10-17T10:17:57Z</time>
      </trkpt>
      <trkpt lat="43.15366" lon="1.03181">
        <ele>495.3500061</ele>
        <time>2021-10-17T10:17:58Z</time>
      </trkpt>
      <trkpt lat="43.15366" lon="1.03184">
        <ele>495.55001831</ele>
        <time>2021-10-17T10:17:59Z</time>
      </trkpt>
      <trkpt lat="43.15363" lon="1.03189">
        <ele>495.82000732</ele>
        <time>2021-10-17T10:18:00Z</time>
      </trkpt>
      <trkpt lat="43.15362" lon="1.03192">
        <ele>495.95001221</ele>
        <time>2021-10-17T10:18:01Z</time>
      </trkpt>
      <trkpt lat="43.15361" lon="1.03195">
        <ele>496.16000366</ele>
        <time>2021-10-17T10:18:02Z</time>
      </trkpt>
      <trkpt lat="43.15361" lon="1.03198">
        <ele>496.32000732</ele>
        <time>2021-10-17T10:18:03Z</time>
      </trkpt>
      <trkpt lat="43.1536" lon="1.032">
        <ele>496.52999878</ele>
        <time>2021-10-17T10:18:04Z</time>
      </trkpt>
      <trkpt lat="43.15358" lon="1.03205">
        <ele>496.8500061</ele>
        <time>2021-10-17T10:18:05Z</time>
      </trkpt>
      <trkpt lat="43.15357" lon="1.03208">
        <ele>497.07000732</ele>
        <time>2021-10-17T10:18:06Z</time>
      </trkpt>
      <trkpt lat="43.15357" lon="1.03211">
        <ele>497.29000854</ele>
        <time>2021-10-17T10:18:07Z</time>
      </trkpt>
      <trkpt lat="43.15356" lon="1.03214">
        <ele>497.49002075</ele>
        <time>2021-10-17T10:18:08Z</time>
      </trkpt>
      <trkpt lat="43.15355" lon="1.03219">
        <ele>497.70001221</ele>
        <time>2021-10-17T10:18:09Z</time>
      </trkpt>
      <trkpt lat="43.15354" lon="1.03222">
        <ele>498.02001953</ele>
        <time>2021-10-17T10:18:10Z</time>
      </trkpt>
      <trkpt lat="43.15353" lon="1.03224">
        <ele>498.25003052</ele>
        <time>2021-10-17T10:18:11Z</time>
      </trkpt>
      <trkpt lat="43.15352" lon="1.03226">
        <ele>498.56002808</ele>
        <time>2021-10-17T10:18:12Z</time>
      </trkpt>
      <trkpt lat="43.1535" lon="1.03228">
        <ele>498.71002197</ele>
        <time>2021-10-17T10:18:13Z</time>
      </trkpt>
      <trkpt lat="43.15348" lon="1.03232">
        <ele>498.93002319</ele>
        <time>2021-10-17T10:18:14Z</time>
      </trkpt>
      <trkpt lat="43.15346" lon="1.03234">
        <ele>499.18002319</ele>
        <time>2021-10-17T10:18:15Z</time>
      </trkpt>
      <trkpt lat="43.15344" lon="1.03236">
        <ele>499.35003662</ele>
        <time>2021-10-17T10:18:16Z</time>
      </trkpt>
      <trkpt lat="43.15342" lon="1.03237">
        <ele>499.58004761</ele>
        <time>2021-10-17T10:18:17Z</time>
      </trkpt>
      <trkpt lat="43.1534" lon="1.0324">
        <ele>499.77005005</ele>
        <time>2021-10-17T10:18:18Z</time>
      </trkpt>
      <trkpt lat="43.15338" lon="1.03244">
        <ele>499.99005127</ele>
        <time>2021-10-17T10:18:19Z</time>
      </trkpt>
      <trkpt lat="43.15336" lon="1.03247">
        <ele>500.18005371</ele>
        <time>2021-10-17T10:18:20Z</time>
      </trkpt>
      <trkpt lat="43.15336" lon="1.0325">
        <ele>500.4100647</ele>
        <time>2021-10-17T10:18:21Z</time>
      </trkpt>
      <trkpt lat="43.15335" lon="1.03253">
        <ele>500.65005493</ele>
        <time>2021-10-17T10:18:22Z</time>
      </trkpt>
      <trkpt lat="43.15334" lon="1.03257">
        <ele>501.49005127</ele>
        <time>2021-10-17T10:18:23Z</time>
      </trkpt>
      <trkpt lat="43.15334" lon="1.0326">
        <ele>501.62005615</ele>
        <time>2021-10-17T10:18:24Z</time>
      </trkpt>
      <trkpt lat="43.15332" lon="1.03264">
        <ele>501.67004395</ele>
        <time>2021-10-17T10:18:25Z</time>
      </trkpt>
      <trkpt lat="43.15332" lon="1.03267">
        <ele>501.72003174</ele>
        <time>2021-10-17T10:18:26Z</time>
      </trkpt>
      <trkpt lat="43.15331" lon="1.0327">
        <ele>501.86004639</ele>
        <time>2021-10-17T10:18:27Z</time>
      </trkpt>
      <trkpt lat="43.15328" lon="1.03274">
        <ele>501.99005127</ele>
        <time>2021-10-17T10:18:28Z</time>
      </trkpt>
      <trkpt lat="43.15327" lon="1.03276">
        <ele>502.21005249</ele>
        <time>2021-10-17T10:18:29Z</time>
      </trkpt>
      <trkpt lat="43.15326" lon="1.0328">
        <ele>502.4100647</ele>
        <time>2021-10-17T10:18:30Z</time>
      </trkpt>
      <trkpt lat="43.15324" lon="1.03284">
        <ele>502.56005859</ele>
        <time>2021-10-17T10:18:31Z</time>
      </trkpt>
      <trkpt lat="43.15322" lon="1.03289">
        <ele>502.73007202</ele>
        <time>2021-10-17T10:18:32Z</time>
      </trkpt>
      <trkpt lat="43.15321" lon="1.03292">
        <ele>502.82006836</ele>
        <time>2021-10-17T10:18:33Z</time>
      </trkpt>
      <trkpt lat="43.1532" lon="1.03295">
        <ele>502.9100647</ele>
        <time>2021-10-17T10:18:34Z</time>
      </trkpt>
      <trkpt lat="43.1532" lon="1.03299">
        <ele>502.96005249</ele>
        <time>2021-10-17T10:18:35Z</time>
      </trkpt>
      <trkpt lat="43.15319" lon="1.03303">
        <ele>503.06005859</ele>
        <time>2021-10-17T10:18:36Z</time>
      </trkpt>
      <trkpt lat="43.15319" lon="1.03306">
        <ele>503.27005005</ele>
        <time>2021-10-17T10:18:37Z</time>
      </trkpt>
      <trkpt lat="43.15319" lon="1.03309">
        <ele>503.51004028</ele>
        <time>2021-10-17T10:18:38Z</time>
      </trkpt>
      <trkpt lat="43.15319" lon="1.03312">
        <ele>503.77005005</ele>
        <time>2021-10-17T10:18:39Z</time>
      </trkpt>
      <trkpt lat="43.15318" lon="1.03315">
        <ele>504.08004761</ele>
        <time>2021-10-17T10:18:40Z</time>
      </trkpt>
      <trkpt lat="43.15317" lon="1.0332">
        <ele>504.35003662</ele>
        <time>2021-10-17T10:18:41Z</time>
      </trkpt>
      <trkpt lat="43.15317" lon="1.03324">
        <ele>504.74005127</ele>
        <time>2021-10-17T10:18:42Z</time>
      </trkpt>
      <trkpt lat="43.15316" lon="1.03327">
        <ele>505.20004272</ele>
        <time>2021-10-17T10:18:43Z</time>
      </trkpt>
      <trkpt lat="43.15316" lon="1.0333">
        <ele>505.59005737</ele>
        <time>2021-10-17T10:18:44Z</time>
      </trkpt>
      <trkpt lat="43.15316" lon="1.03333">
        <ele>505.99005127</ele>
        <time>2021-10-17T10:18:45Z</time>
      </trkpt>
      <trkpt lat="43.15315" lon="1.03337">
        <ele>506.33004761</ele>
        <time>2021-10-17T10:18:46Z</time>
      </trkpt>
      <trkpt lat="43.15314" lon="1.0334">
        <ele>506.74005127</ele>
        <time>2021-10-17T10:18:47Z</time>
      </trkpt>
      <trkpt lat="43.15312" lon="1.03342">
        <ele>507.17004395</ele>
        <time>2021-10-17T10:18:48Z</time>
      </trkpt>
      <trkpt lat="43.1531" lon="1.03345">
        <ele>507.62005615</ele>
        <time>2021-10-17T10:18:49Z</time>
      </trkpt>
      <trkpt lat="43.15307" lon="1.03348">
        <ele>508.07006836</ele>
        <time>2021-10-17T10:18:50Z</time>
      </trkpt>
      <trkpt lat="43.15305" lon="1.03351">
        <ele>508.48007202</ele>
        <time>2021-10-17T10:18:51Z</time>
      </trkpt>
      <trkpt lat="43.15304" lon="1.03354">
        <ele>508.89007568</ele>
        <time>2021-10-17T10:18:52Z</time>
      </trkpt>
      <trkpt lat="43.15303" lon="1.03356">
        <ele>509.27008057</ele>
        <time>2021-10-17T10:18:53Z</time>
      </trkpt>
      <trkpt lat="43.15302" lon="1.03359">
        <ele>509.87008667</ele>
        <time>2021-10-17T10:18:54Z</time>
      </trkpt>
      <trkpt lat="43.15301" lon="1.03361">
        <ele>510.34008789</ele>
        <time>2021-10-17T10:18:55Z</time>
      </trkpt>
      <trkpt lat="43.153" lon="1.03363">
        <ele>510.80007935</ele>
        <time>2021-10-17T10:18:56Z</time>
      </trkpt>
      <trkpt lat="43.15299" lon="1.03365">
        <ele>511.43008423</ele>
        <time>2021-10-17T10:18:57Z</time>
      </trkpt>
      <trkpt lat="43.15298" lon="1.03367">
        <ele>511.74008179</ele>
        <time>2021-10-17T10:18:58Z</time>
      </trkpt>
      <trkpt lat="43.15297" lon="1.03371">
        <ele>512.19006348</ele>
        <time>2021-10-17T10:18:59Z</time>
      </trkpt>
      <trkpt lat="43.15296" lon="1.03373">
        <ele>512.72009277</ele>
        <time>2021-10-17T10:19:00Z</time>
      </trkpt>
      <trkpt lat="43.15295" lon="1.03374">
        <ele>513.03009033</ele>
        <time>2021-10-17T10:19:01Z</time>
      </trkpt>
      <trkpt lat="43.15295" lon="1.03376">
        <ele>513.37011719</ele>
        <time>2021-10-17T10:19:02Z</time>
      </trkpt>
      <trkpt lat="43.15294" lon="1.03378">
        <ele>513.71014404</ele>
        <time>2021-10-17T10:19:03Z</time>
      </trkpt>
      <trkpt lat="43.15294" lon="1.03382">
        <ele>513.87011719</ele>
        <time>2021-10-17T10:19:04Z</time>
      </trkpt>
      <trkpt lat="43.15293" lon="1.03384">
        <ele>514.21014404</ele>
        <time>2021-10-17T10:19:05Z</time>
      </trkpt>
      <trkpt lat="43.15293" lon="1.03386">
        <ele>514.53015137</ele>
        <time>2021-10-17T10:19:06Z</time>
      </trkpt>
      <trkpt lat="43.15292" lon="1.03388">
        <ele>514.81018066</ele>
        <time>2021-10-17T10:19:07Z</time>
      </trkpt>
      <trkpt lat="43.15291" lon="1.03392">
        <ele>515.26019287</ele>
        <time>2021-10-17T10:19:08Z</time>
      </trkpt>
      <trkpt lat="43.15291" lon="1.03395">
        <ele>515.46020508</ele>
        <time>2021-10-17T10:19:09Z</time>
      </trkpt>
      <trkpt lat="43.15291" lon="1.03397">
        <ele>515.89019775</ele>
        <time>2021-10-17T10:19:10Z</time>
      </trkpt>
      <trkpt lat="43.1529" lon="1.034">
        <ele>516.26019287</ele>
        <time>2021-10-17T10:19:11Z</time>
      </trkpt>
      <trkpt lat="43.1529" lon="1.03402">
        <ele>516.63018799</ele>
        <time>2021-10-17T10:19:12Z</time>
      </trkpt>
      <trkpt lat="43.1529" lon="1.03404">
        <ele>517.16021729</ele>
        <time>2021-10-17T10:19:13Z</time>
      </trkpt>
      <trkpt lat="43.15289" lon="1.03406">
        <ele>517.43023682</ele>
        <time>2021-10-17T10:19:14Z</time>
      </trkpt>
      <trkpt lat="43.1529" lon="1.03408">
        <ele>517.8102417</ele>
        <time>2021-10-17T10:19:15Z</time>
      </trkpt>
      <trkpt lat="43.15289" lon="1.0341">
        <ele>518.11022949</ele>
        <time>2021-10-17T10:19:16Z</time>
      </trkpt>
      <trkpt lat="43.15288" lon="1.03414">
        <ele>518.41021729</ele>
        <time>2021-10-17T10:19:17Z</time>
      </trkpt>
      <trkpt lat="43.15288" lon="1.03416">
        <ele>518.84020996</ele>
        <time>2021-10-17T10:19:18Z</time>
      </trkpt>
      <trkpt lat="43.15288" lon="1.03419">
        <ele>519.22021484</ele>
        <time>2021-10-17T10:19:19Z</time>
      </trkpt>
      <trkpt lat="43.15288" lon="1.0342">
        <ele>519.61022949</ele>
        <time>2021-10-17T10:19:20Z</time>
      </trkpt>
      <trkpt lat="43.15287" lon="1.03422">
        <ele>519.92022705</ele>
        <time>2021-10-17T10:19:21Z</time>
      </trkpt>
      <trkpt lat="43.15287" lon="1.03425">
        <ele>520.2802124</ele>
        <time>2021-10-17T10:19:22Z</time>
      </trkpt>
      <trkpt lat="43.15287" lon="1.03427">
        <ele>520.64019775</ele>
        <time>2021-10-17T10:19:23Z</time>
      </trkpt>
      <trkpt lat="43.15287" lon="1.03429">
        <ele>520.92022705</ele>
        <time>2021-10-17T10:19:24Z</time>
      </trkpt>
      <trkpt lat="43.15287" lon="1.03432">
        <ele>521.3302002</ele>
        <time>2021-10-17T10:19:25Z</time>
      </trkpt>
      <trkpt lat="43.15288" lon="1.03434">
        <ele>521.5802002</ele>
        <time>2021-10-17T10:19:26Z</time>
      </trkpt>
      <trkpt lat="43.15287" lon="1.03437">
        <ele>521.8001709</ele>
        <time>2021-10-17T10:19:27Z</time>
      </trkpt>
      <trkpt lat="43.15287" lon="1.03439">
        <ele>522.11016846</ele>
        <time>2021-10-17T10:19:28Z</time>
      </trkpt>
      <trkpt lat="43.15287" lon="1.03441">
        <ele>522.31018066</ele>
        <time>2021-10-17T10:19:29Z</time>
      </trkpt>
      <trkpt lat="43.15286" lon="1.03443">
        <ele>522.62017822</ele>
        <time>2021-10-17T10:19:30Z</time>
      </trkpt>
      <trkpt lat="43.15285" lon="1.03445">
        <ele>522.93017578</ele>
        <time>2021-10-17T10:19:31Z</time>
      </trkpt>
      <trkpt lat="43.15285" lon="1.03447">
        <ele>523.19018555</ele>
        <time>2021-10-17T10:19:32Z</time>
      </trkpt>
      <trkpt lat="43.15285" lon="1.03448">
        <ele>523.48016357</ele>
        <time>2021-10-17T10:19:33Z</time>
      </trkpt>
      <trkpt lat="43.15285" lon="1.0345">
        <ele>523.69018555</ele>
        <time>2021-10-17T10:19:34Z</time>
      </trkpt>
      <trkpt lat="43.15284" lon="1.03454">
        <ele>523.89019775</ele>
        <time>2021-10-17T10:19:35Z</time>
      </trkpt>
      <trkpt lat="43.15284" lon="1.03457">
        <ele>524.13018799</ele>
        <time>2021-10-17T10:19:36Z</time>
      </trkpt>
      <trkpt lat="43.15284" lon="1.03459">
        <ele>524.42016602</ele>
        <time>2021-10-17T10:19:37Z</time>
      </trkpt>
      <trkpt lat="43.15283" lon="1.03461">
        <ele>524.68017578</ele>
        <time>2021-10-17T10:19:38Z</time>
      </trkpt>
      <trkpt lat="43.15283" lon="1.03464">
        <ele>524.96020508</ele>
        <time>2021-10-17T10:19:39Z</time>
      </trkpt>
      <trkpt lat="43.15283" lon="1.03467">
        <ele>525.21020508</ele>
        <time>2021-10-17T10:19:40Z</time>
      </trkpt>
      <trkpt lat="43.15283" lon="1.0347">
        <ele>525.46020508</ele>
        <time>2021-10-17T10:19:41Z</time>
      </trkpt>
      <trkpt lat="43.15283" lon="1.03471">
        <ele>525.7802124</ele>
        <time>2021-10-17T10:19:42Z</time>
      </trkpt>
      <trkpt lat="43.15282" lon="1.03474">
        <ele>526.05023193</ele>
        <time>2021-10-17T10:19:43Z</time>
      </trkpt>
      <trkpt lat="43.15282" lon="1.03477">
        <ele>526.37023926</ele>
        <time>2021-10-17T10:19:44Z</time>
      </trkpt>
      <trkpt lat="43.15281" lon="1.0348">
        <ele>526.62023926</ele>
        <time>2021-10-17T10:19:45Z</time>
      </trkpt>
      <trkpt lat="43.15281" lon="1.03482">
        <ele>526.92022705</ele>
        <time>2021-10-17T10:19:46Z</time>
      </trkpt>
      <trkpt lat="43.15282" lon="1.03483">
        <ele>527.3102417</ele>
        <time>2021-10-17T10:19:47Z</time>
      </trkpt>
      <trkpt lat="43.15281" lon="1.03488">
        <ele>527.63024902</ele>
        <time>2021-10-17T10:19:48Z</time>
      </trkpt>
      <trkpt lat="43.1528" lon="1.03491">
        <ele>527.91027832</ele>
        <time>2021-10-17T10:19:49Z</time>
      </trkpt>
      <trkpt lat="43.1528" lon="1.03492">
        <ele>528.23028564</ele>
        <time>2021-10-17T10:19:50Z</time>
      </trkpt>
      <trkpt lat="43.1528" lon="1.03494">
        <ele>528.52026367</ele>
        <time>2021-10-17T10:19:51Z</time>
      </trkpt>
      <trkpt lat="43.1528" lon="1.03495">
        <ele>528.86029053</ele>
        <time>2021-10-17T10:19:52Z</time>
      </trkpt>
      <trkpt lat="43.1528" lon="1.03497">
        <ele>529.340271</ele>
        <time>2021-10-17T10:19:53Z</time>
      </trkpt>
      <trkpt lat="43.1528" lon="1.03499">
        <ele>529.69024658</ele>
        <time>2021-10-17T10:19:54Z</time>
      </trkpt>
      <trkpt lat="43.15279" lon="1.03501">
        <ele>529.99023438</ele>
        <time>2021-10-17T10:19:55Z</time>
      </trkpt>
      <trkpt lat="43.15279" lon="1.03502">
        <ele>530.27026367</ele>
        <time>2021-10-17T10:19:56Z</time>
      </trkpt>
      <trkpt lat="43.15278" lon="1.03504">
        <ele>530.51025391</ele>
        <time>2021-10-17T10:19:57Z</time>
      </trkpt>
      <trkpt lat="43.15278" lon="1.03507">
        <ele>530.75024414</ele>
        <time>2021-10-17T10:19:58Z</time>
      </trkpt>
      <trkpt lat="43.15278" lon="1.0351">
        <ele>531.07025146</ele>
        <time>2021-10-17T10:19:59Z</time>
      </trkpt>
      <trkpt lat="43.15278" lon="1.03513">
        <ele>531.37023926</ele>
        <time>2021-10-17T10:20:00Z</time>
      </trkpt>
      <trkpt lat="43.15278" lon="1.03515">
        <ele>531.67022705</ele>
        <time>2021-10-17T10:20:01Z</time>
      </trkpt>
      <trkpt lat="43.15278" lon="1.03519">
        <ele>532.04022217</ele>
        <time>2021-10-17T10:20:02Z</time>
      </trkpt>
      <trkpt lat="43.15278" lon="1.03521">
        <ele>532.35021973</ele>
        <time>2021-10-17T10:20:03Z</time>
      </trkpt>
      <trkpt lat="43.15277" lon="1.03522">
        <ele>532.74023438</ele>
        <time>2021-10-17T10:20:04Z</time>
      </trkpt>
      <trkpt lat="43.15277" lon="1.03524">
        <ele>533.13024902</ele>
        <time>2021-10-17T10:20:05Z</time>
      </trkpt>
      <trkpt lat="43.15275" lon="1.03527">
        <ele>533.45025635</ele>
        <time>2021-10-17T10:20:06Z</time>
      </trkpt>
      <trkpt lat="43.15274" lon="1.03529">
        <ele>533.82025146</ele>
        <time>2021-10-17T10:20:07Z</time>
      </trkpt>
      <trkpt lat="43.15274" lon="1.03531">
        <ele>534.12023926</ele>
        <time>2021-10-17T10:20:08Z</time>
      </trkpt>
      <trkpt lat="43.15274" lon="1.03534">
        <ele>534.40026855</ele>
        <time>2021-10-17T10:20:09Z</time>
      </trkpt>
      <trkpt lat="43.15273" lon="1.03536">
        <ele>534.7902832</ele>
        <time>2021-10-17T10:20:10Z</time>
      </trkpt>
      <trkpt lat="43.15273" lon="1.03539">
        <ele>535.0402832</ele>
        <time>2021-10-17T10:20:11Z</time>
      </trkpt>
      <trkpt lat="43.15272" lon="1.03541">
        <ele>535.36029053</ele>
        <time>2021-10-17T10:20:12Z</time>
      </trkpt>
      <trkpt lat="43.15272" lon="1.03544">
        <ele>535.62030029</ele>
        <time>2021-10-17T10:20:13Z</time>
      </trkpt>
      <trkpt lat="43.15272" lon="1.03545">
        <ele>535.89031982</ele>
        <time>2021-10-17T10:20:14Z</time>
      </trkpt>
      <trkpt lat="43.15272" lon="1.03547">
        <ele>536.27032471</ele>
        <time>2021-10-17T10:20:15Z</time>
      </trkpt>
      <trkpt lat="43.15272" lon="1.03549">
        <ele>536.550354</ele>
        <time>2021-10-17T10:20:16Z</time>
      </trkpt>
      <trkpt lat="43.15272" lon="1.03551">
        <ele>536.91033936</ele>
        <time>2021-10-17T10:20:17Z</time>
      </trkpt>
      <trkpt lat="43.15272" lon="1.03553">
        <ele>537.21032715</ele>
        <time>2021-10-17T10:20:18Z</time>
      </trkpt>
      <trkpt lat="43.15272" lon="1.03555">
        <ele>537.43029785</ele>
        <time>2021-10-17T10:20:19Z</time>
      </trkpt>
      <trkpt lat="43.15272" lon="1.03559">
        <ele>537.80029297</ele>
        <time>2021-10-17T10:20:20Z</time>
      </trkpt>
      <trkpt lat="43.15272" lon="1.03561">
        <ele>538.12030029</ele>
        <time>2021-10-17T10:20:21Z</time>
      </trkpt>
      <trkpt lat="43.15272" lon="1.03563">
        <ele>538.38031006</ele>
        <time>2021-10-17T10:20:22Z</time>
      </trkpt>
      <trkpt lat="43.15272" lon="1.03565">
        <ele>538.80029297</ele>
        <time>2021-10-17T10:20:23Z</time>
      </trkpt>
      <trkpt lat="43.15272" lon="1.03567">
        <ele>539.15026855</ele>
        <time>2021-10-17T10:20:24Z</time>
      </trkpt>
      <trkpt lat="43.15273" lon="1.0357">
        <ele>539.63024902</ele>
        <time>2021-10-17T10:20:25Z</time>
      </trkpt>
      <trkpt lat="43.15273" lon="1.03572">
        <ele>540.08026123</ele>
        <time>2021-10-17T10:20:26Z</time>
      </trkpt>
      <trkpt lat="43.15273" lon="1.03573">
        <ele>540.50024414</ele>
        <time>2021-10-17T10:20:27Z</time>
      </trkpt>
      <trkpt lat="43.15274" lon="1.03576">
        <ele>540.90026855</ele>
        <time>2021-10-17T10:20:28Z</time>
      </trkpt>
      <trkpt lat="43.15274" lon="1.03579">
        <ele>541.14025879</ele>
        <time>2021-10-17T10:20:29Z</time>
      </trkpt>
      <trkpt lat="43.15274" lon="1.03581">
        <ele>541.53027344</ele>
        <time>2021-10-17T10:20:30Z</time>
      </trkpt>
      <trkpt lat="43.15274" lon="1.03583">
        <ele>541.87030029</ele>
        <time>2021-10-17T10:20:31Z</time>
      </trkpt>
      <trkpt lat="43.15274" lon="1.03585">
        <ele>542.18029785</ele>
        <time>2021-10-17T10:20:32Z</time>
      </trkpt>
      <trkpt lat="43.15274" lon="1.03587">
        <ele>542.49029541</ele>
        <time>2021-10-17T10:20:33Z</time>
      </trkpt>
      <trkpt lat="43.15274" lon="1.03591">
        <ele>542.76031494</ele>
        <time>2021-10-17T10:20:34Z</time>
      </trkpt>
      <trkpt lat="43.15274" lon="1.03593">
        <ele>543.03033447</ele>
        <time>2021-10-17T10:20:35Z</time>
      </trkpt>
      <trkpt lat="43.15274" lon="1.03595">
        <ele>543.38031006</ele>
        <time>2021-10-17T10:20:36Z</time>
      </trkpt>
      <trkpt lat="43.15274" lon="1.03598">
        <ele>543.81030273</ele>
        <time>2021-10-17T10:20:37Z</time>
      </trkpt>
      <trkpt lat="43.15274" lon="1.03601">
        <ele>544.15032959</ele>
        <time>2021-10-17T10:20:38Z</time>
      </trkpt>
      <trkpt lat="43.15274" lon="1.03602">
        <ele>544.51031494</ele>
        <time>2021-10-17T10:20:39Z</time>
      </trkpt>
      <trkpt lat="43.15274" lon="1.03605">
        <ele>544.78033447</ele>
        <time>2021-10-17T10:20:40Z</time>
      </trkpt>
      <trkpt lat="43.15274" lon="1.03606">
        <ele>545.050354</ele>
        <time>2021-10-17T10:20:41Z</time>
      </trkpt>
      <trkpt lat="43.15273" lon="1.03608">
        <ele>545.39038086</ele>
        <time>2021-10-17T10:20:42Z</time>
      </trkpt>
      <trkpt lat="43.15273" lon="1.03612">
        <ele>545.69036865</ele>
        <time>2021-10-17T10:20:43Z</time>
      </trkpt>
      <trkpt lat="43.15274" lon="1.03615">
        <ele>545.99035645</ele>
        <time>2021-10-17T10:20:44Z</time>
      </trkpt>
      <trkpt lat="43.15274" lon="1.03617">
        <ele>546.3303833</ele>
        <time>2021-10-17T10:20:45Z</time>
      </trkpt>
      <trkpt lat="43.15274" lon="1.03619">
        <ele>546.62036133</ele>
        <time>2021-10-17T10:20:46Z</time>
      </trkpt>
      <trkpt lat="43.15273" lon="1.03622">
        <ele>546.88037109</ele>
        <time>2021-10-17T10:20:47Z</time>
      </trkpt>
      <trkpt lat="43.15273" lon="1.03623">
        <ele>547.20037842</ele>
        <time>2021-10-17T10:20:48Z</time>
      </trkpt>
      <trkpt lat="43.15272" lon="1.03625">
        <ele>547.46038818</ele>
        <time>2021-10-17T10:20:49Z</time>
      </trkpt>
      <trkpt lat="43.15271" lon="1.03627">
        <ele>547.79040527</ele>
        <time>2021-10-17T10:20:50Z</time>
      </trkpt>
      <trkpt lat="43.15271" lon="1.03629">
        <ele>548.0604248</ele>
        <time>2021-10-17T10:20:51Z</time>
      </trkpt>
      <trkpt lat="43.15271" lon="1.0363">
        <ele>548.3604126</ele>
        <time>2021-10-17T10:20:52Z</time>
      </trkpt>
      <trkpt lat="43.1527" lon="1.03632">
        <ele>548.62042236</ele>
        <time>2021-10-17T10:20:53Z</time>
      </trkpt>
      <trkpt lat="43.1527" lon="1.03634">
        <ele>548.83044434</ele>
        <time>2021-10-17T10:20:54Z</time>
      </trkpt>
      <trkpt lat="43.1527" lon="1.03636">
        <ele>549.11047363</ele>
        <time>2021-10-17T10:20:55Z</time>
      </trkpt>
      <trkpt lat="43.1527" lon="1.03637">
        <ele>549.38049316</ele>
        <time>2021-10-17T10:20:56Z</time>
      </trkpt>
      <trkpt lat="43.15269" lon="1.0364">
        <ele>549.72052002</ele>
        <time>2021-10-17T10:20:57Z</time>
      </trkpt>
      <trkpt lat="43.15268" lon="1.03642">
        <ele>550.03051758</ele>
        <time>2021-10-17T10:20:58Z</time>
      </trkpt>
      <trkpt lat="43.15268" lon="1.03644">
        <ele>550.38049316</ele>
        <time>2021-10-17T10:20:59Z</time>
      </trkpt>
      <trkpt lat="43.15268" lon="1.03646">
        <ele>550.68048096</ele>
        <time>2021-10-17T10:21:00Z</time>
      </trkpt>
      <trkpt lat="43.15268" lon="1.03649">
        <ele>550.90045166</ele>
        <time>2021-10-17T10:21:01Z</time>
      </trkpt>
      <trkpt lat="43.15268" lon="1.03651">
        <ele>551.13043213</ele>
        <time>2021-10-17T10:21:02Z</time>
      </trkpt>
      <trkpt lat="43.15268" lon="1.03653">
        <ele>551.3404541</ele>
        <time>2021-10-17T10:21:03Z</time>
      </trkpt>
      <trkpt lat="43.15268" lon="1.03655">
        <ele>551.61047363</ele>
        <time>2021-10-17T10:21:04Z</time>
      </trkpt>
      <trkpt lat="43.15268" lon="1.03659">
        <ele>551.90045166</ele>
        <time>2021-10-17T10:21:05Z</time>
      </trkpt>
      <trkpt lat="43.15268" lon="1.03662">
        <ele>552.22045898</ele>
        <time>2021-10-17T10:21:06Z</time>
      </trkpt>
      <trkpt lat="43.15269" lon="1.03664">
        <ele>552.44042969</ele>
        <time>2021-10-17T10:21:07Z</time>
      </trkpt>
      <trkpt lat="43.15269" lon="1.03666">
        <ele>552.67041016</ele>
        <time>2021-10-17T10:21:08Z</time>
      </trkpt>
      <trkpt lat="43.15268" lon="1.03668">
        <ele>552.89038086</ele>
        <time>2021-10-17T10:21:09Z</time>
      </trkpt>
      <trkpt lat="43.15267" lon="1.0367">
        <ele>553.59997559</ele>
        <time>2021-10-17T10:21:09Z</time>
      </trkpt>
      <trkpt lat="43.15267" lon="1.03674">
        <ele>553.78997803</ele>
        <time>2021-10-17T10:21:10Z</time>
      </trkpt>
      <trkpt lat="43.15267" lon="1.03676">
        <ele>554.00994873</ele>
        <time>2021-10-17T10:21:11Z</time>
      </trkpt>
      <trkpt lat="43.15267" lon="1.03678">
        <ele>554.17993164</ele>
        <time>2021-10-17T10:21:12Z</time>
      </trkpt>
      <trkpt lat="43.15266" lon="1.0368">
        <ele>554.33990479</ele>
        <time>2021-10-17T10:21:13Z</time>
      </trkpt>
      <trkpt lat="43.15266" lon="1.03683">
        <ele>554.49987793</ele>
        <time>2021-10-17T10:21:14Z</time>
      </trkpt>
      <trkpt lat="43.15266" lon="1.03685">
        <ele>554.67987061</ele>
        <time>2021-10-17T10:21:15Z</time>
      </trkpt>
      <trkpt lat="43.15266" lon="1.03687">
        <ele>554.84985352</ele>
        <time>2021-10-17T10:21:16Z</time>
      </trkpt>
      <trkpt lat="43.15265" lon="1.03689">
        <ele>554.99987793</ele>
        <time>2021-10-17T10:21:17Z</time>
      </trkpt>
      <trkpt lat="43.15264" lon="1.03691">
        <ele>555.16986084</ele>
        <time>2021-10-17T10:21:18Z</time>
      </trkpt>
      <trkpt lat="43.15263" lon="1.03693">
        <ele>555.27984619</ele>
        <time>2021-10-17T10:21:19Z</time>
      </trkpt>
      <trkpt lat="43.15263" lon="1.03696">
        <ele>555.37982178</ele>
        <time>2021-10-17T10:21:20Z</time>
      </trkpt>
      <trkpt lat="43.15262" lon="1.03698">
        <ele>555.42980957</ele>
        <time>2021-10-17T10:21:21Z</time>
      </trkpt>
      <trkpt lat="43.15261" lon="1.03701">
        <ele>555.45983887</ele>
        <time>2021-10-17T10:21:22Z</time>
      </trkpt>
      <trkpt lat="43.15259" lon="1.03706">
        <ele>555.4798584</ele>
        <time>2021-10-17T10:21:23Z</time>
      </trkpt>
      <trkpt lat="43.15259" lon="1.03709">
        <ele>555.54986572</ele>
        <time>2021-10-17T10:21:24Z</time>
      </trkpt>
      <trkpt lat="43.15258" lon="1.03712">
        <ele>555.56988525</ele>
        <time>2021-10-17T10:21:25Z</time>
      </trkpt>
      <trkpt lat="43.15258" lon="1.03714">
        <ele>555.60986328</ele>
        <time>2021-10-17T10:21:26Z</time>
      </trkpt>
      <trkpt lat="43.15257" lon="1.03717">
        <ele>555.60986328</ele>
        <time>2021-10-17T10:21:27Z</time>
      </trkpt>
      <trkpt lat="43.15256" lon="1.03721">
        <ele>555.60986328</ele>
        <time>2021-10-17T10:21:28Z</time>
      </trkpt>
      <trkpt lat="43.15255" lon="1.03724">
        <ele>555.58984375</ele>
        <time>2021-10-17T10:21:29Z</time>
      </trkpt>
      <trkpt lat="43.15253" lon="1.03728">
        <ele>555.51983643</ele>
        <time>2021-10-17T10:21:30Z</time>
      </trkpt>
      <trkpt lat="43.15252" lon="1.03733">
        <ele>555.37982178</ele>
        <time>2021-10-17T10:21:31Z</time>
      </trkpt>
      <trkpt lat="43.15249" lon="1.03738">
        <ele>555.17980957</ele>
        <time>2021-10-17T10:21:32Z</time>
      </trkpt>
      <trkpt lat="43.15247" lon="1.03742">
        <ele>554.9197998</ele>
        <time>2021-10-17T10:21:33Z</time>
      </trkpt>
      <trkpt lat="43.15245" lon="1.03747">
        <ele>554.38977051</ele>
        <time>2021-10-17T10:21:34Z</time>
      </trkpt>
      <trkpt lat="43.15242" lon="1.03751">
        <ele>553.82977295</ele>
        <time>2021-10-17T10:21:35Z</time>
      </trkpt>
      <trkpt lat="43.1524" lon="1.03756">
        <ele>553.08978271</ele>
        <time>2021-10-17T10:21:36Z</time>
      </trkpt>
      <trkpt lat="43.15237" lon="1.03763">
        <ele>552.56976318</ele>
        <time>2021-10-17T10:21:37Z</time>
      </trkpt>
      <trkpt lat="43.15235" lon="1.03768">
        <ele>552.08978271</ele>
        <time>2021-10-17T10:21:38Z</time>
      </trkpt>
      <trkpt lat="43.15233" lon="1.03774">
        <ele>551.56976318</ele>
        <time>2021-10-17T10:21:39Z</time>
      </trkpt>
      <trkpt lat="43.1523" lon="1.0378">
        <ele>551.02978516</ele>
        <time>2021-10-17T10:21:40Z</time>
      </trkpt>
      <trkpt lat="43.15228" lon="1.03787">
        <ele>550.42980957</ele>
        <time>2021-10-17T10:21:41Z</time>
      </trkpt>
      <trkpt lat="43.15227" lon="1.03791">
        <ele>550.03979492</ele>
        <time>2021-10-17T10:21:42Z</time>
      </trkpt>
      <trkpt lat="43.15225" lon="1.03795">
        <ele>549.58978271</ele>
        <time>2021-10-17T10:21:43Z</time>
      </trkpt>
      <trkpt lat="43.15223" lon="1.038">
        <ele>549.33978271</ele>
        <time>2021-10-17T10:21:44Z</time>
      </trkpt>
      <trkpt lat="43.15222" lon="1.03805">
        <ele>548.83978271</ele>
        <time>2021-10-17T10:21:45Z</time>
      </trkpt>
      <trkpt lat="43.15221" lon="1.03813">
        <ele>548.29980469</ele>
        <time>2021-10-17T10:21:46Z</time>
      </trkpt>
      <trkpt lat="43.15221" lon="1.03819">
        <ele>547.87982178</ele>
        <time>2021-10-17T10:21:47Z</time>
      </trkpt>
      <trkpt lat="43.15222" lon="1.03825">
        <ele>547.32983398</ele>
        <time>2021-10-17T10:21:48Z</time>
      </trkpt>
      <trkpt lat="43.15224" lon="1.0383">
        <ele>546.99981689</ele>
        <time>2021-10-17T10:21:49Z</time>
      </trkpt>
      <trkpt lat="43.15227" lon="1.03837">
        <ele>546.73980713</ele>
        <time>2021-10-17T10:21:50Z</time>
      </trkpt>
      <trkpt lat="43.15229" lon="1.03841">
        <ele>546.64978027</ele>
        <time>2021-10-17T10:21:51Z</time>
      </trkpt>
      <trkpt lat="43.15231" lon="1.03845">
        <ele>546.62976074</ele>
        <time>2021-10-17T10:21:52Z</time>
      </trkpt>
      <trkpt lat="43.15233" lon="1.03849">
        <ele>546.65979004</ele>
        <time>2021-10-17T10:21:53Z</time>
      </trkpt>
      <trkpt lat="43.15235" lon="1.03854">
        <ele>546.63977051</ele>
        <time>2021-10-17T10:21:54Z</time>
      </trkpt>
      <trkpt lat="43.15238" lon="1.0386">
        <ele>546.48974609</ele>
        <time>2021-10-17T10:21:55Z</time>
      </trkpt>
      <trkpt lat="43.15239" lon="1.03864">
        <ele>546.50976562</ele>
        <time>2021-10-17T10:21:56Z</time>
      </trkpt>
      <trkpt lat="43.15241" lon="1.03868">
        <ele>546.69976807</ele>
        <time>2021-10-17T10:21:57Z</time>
      </trkpt>
      <trkpt lat="43.15242" lon="1.03872">
        <ele>546.6897583</ele>
        <time>2021-10-17T10:21:58Z</time>
      </trkpt>
      <trkpt lat="43.15244" lon="1.03877">
        <ele>546.86975098</ele>
        <time>2021-10-17T10:21:59Z</time>
      </trkpt>
      <trkpt lat="43.15245" lon="1.0388">
        <ele>546.81976318</ele>
        <time>2021-10-17T10:22:00Z</time>
      </trkpt>
      <trkpt lat="43.15245" lon="1.03884">
        <ele>546.63977051</ele>
        <time>2021-10-17T10:22:01Z</time>
      </trkpt>
      <trkpt lat="43.15246" lon="1.03887">
        <ele>546.76977539</ele>
        <time>2021-10-17T10:22:02Z</time>
      </trkpt>
      <trkpt lat="43.15246" lon="1.03891">
        <ele>546.78979492</ele>
        <time>2021-10-17T10:22:03Z</time>
      </trkpt>
      <trkpt lat="43.15245" lon="1.03894">
        <ele>546.98980713</ele>
        <time>2021-10-17T10:22:04Z</time>
      </trkpt>
      <trkpt lat="43.15245" lon="1.03896">
        <ele>547.13983154</ele>
        <time>2021-10-17T10:22:05Z</time>
      </trkpt>
      <trkpt lat="43.15245" lon="1.03898">
        <ele>547.25982666</ele>
        <time>2021-10-17T10:22:06Z</time>
      </trkpt>
      <trkpt lat="43.15246" lon="1.03901">
        <ele>547.4197998</ele>
        <time>2021-10-17T10:22:07Z</time>
      </trkpt>
      <trkpt lat="43.15246" lon="1.03906">
        <ele>547.65979004</ele>
        <time>2021-10-17T10:22:08Z</time>
      </trkpt>
      <trkpt lat="43.15246" lon="1.03909">
        <ele>547.88977051</ele>
        <time>2021-10-17T10:22:09Z</time>
      </trkpt>
      <trkpt lat="43.15246" lon="1.03911">
        <ele>548.1697998</ele>
        <time>2021-10-17T10:22:10Z</time>
      </trkpt>
      <trkpt lat="43.15246" lon="1.03914">
        <ele>548.45977783</ele>
        <time>2021-10-17T10:22:11Z</time>
      </trkpt>
      <trkpt lat="43.15245" lon="1.03919">
        <ele>548.7197876</ele>
        <time>2021-10-17T10:22:12Z</time>
      </trkpt>
      <trkpt lat="43.15245" lon="1.03922">
        <ele>549.05981445</ele>
        <time>2021-10-17T10:22:13Z</time>
      </trkpt>
      <trkpt lat="43.15246" lon="1.03925">
        <ele>549.31982422</ele>
        <time>2021-10-17T10:22:14Z</time>
      </trkpt>
      <trkpt lat="43.15246" lon="1.03927">
        <ele>549.59985352</ele>
        <time>2021-10-17T10:22:15Z</time>
      </trkpt>
      <trkpt lat="43.15246" lon="1.0393">
        <ele>549.84985352</ele>
        <time>2021-10-17T10:22:16Z</time>
      </trkpt>
      <trkpt lat="43.15246" lon="1.03933">
        <ele>550.06982422</ele>
        <time>2021-10-17T10:22:17Z</time>
      </trkpt>
      <trkpt lat="43.15246" lon="1.03935">
        <ele>550.32983398</ele>
        <time>2021-10-17T10:22:18Z</time>
      </trkpt>
      <trkpt lat="43.15246" lon="1.03938">
        <ele>550.57983398</ele>
        <time>2021-10-17T10:22:19Z</time>
      </trkpt>
      <trkpt lat="43.15246" lon="1.0394">
        <ele>550.85986328</ele>
        <time>2021-10-17T10:22:20Z</time>
      </trkpt>
      <trkpt lat="43.15247" lon="1.03943">
        <ele>551.11987305</ele>
        <time>2021-10-17T10:22:21Z</time>
      </trkpt>
      <trkpt lat="43.15247" lon="1.03945">
        <ele>551.32989502</ele>
        <time>2021-10-17T10:22:22Z</time>
      </trkpt>
      <trkpt lat="43.15248" lon="1.03948">
        <ele>551.62988281</ele>
        <time>2021-10-17T10:22:23Z</time>
      </trkpt>
      <trkpt lat="43.15248" lon="1.0395">
        <ele>551.89990234</ele>
        <time>2021-10-17T10:22:24Z</time>
      </trkpt>
      <trkpt lat="43.15249" lon="1.03952">
        <ele>552.32989502</ele>
        <time>2021-10-17T10:22:25Z</time>
      </trkpt>
      <trkpt lat="43.1525" lon="1.03956">
        <ele>552.77990723</ele>
        <time>2021-10-17T10:22:26Z</time>
      </trkpt>
      <trkpt lat="43.1525" lon="1.03959">
        <ele>553.21990967</ele>
        <time>2021-10-17T10:22:27Z</time>
      </trkpt>
      <trkpt lat="43.15251" lon="1.03961">
        <ele>553.58990479</ele>
        <time>2021-10-17T10:22:28Z</time>
      </trkpt>
      <trkpt lat="43.15251" lon="1.03964">
        <ele>553.89990234</ele>
        <time>2021-10-17T10:22:29Z</time>
      </trkpt>
      <trkpt lat="43.15252" lon="1.03967">
        <ele>554.27990723</ele>
        <time>2021-10-17T10:22:30Z</time>
      </trkpt>
      <trkpt lat="43.15252" lon="1.03969">
        <ele>554.58990479</ele>
        <time>2021-10-17T10:22:31Z</time>
      </trkpt>
      <trkpt lat="43.15252" lon="1.03972">
        <ele>555.0098877</ele>
        <time>2021-10-17T10:22:32Z</time>
      </trkpt>
      <trkpt lat="43.15253" lon="1.03975">
        <ele>555.35986328</ele>
        <time>2021-10-17T10:22:33Z</time>
      </trkpt>
      <trkpt lat="43.15253" lon="1.03977">
        <ele>555.68988037</ele>
        <time>2021-10-17T10:22:34Z</time>
      </trkpt>
      <trkpt lat="43.15254" lon="1.03981">
        <ele>556.02990723</ele>
        <time>2021-10-17T10:22:35Z</time>
      </trkpt>
      <trkpt lat="43.15254" lon="1.03983">
        <ele>556.37988281</ele>
        <time>2021-10-17T10:22:36Z</time>
      </trkpt>
      <trkpt lat="43.15255" lon="1.03986">
        <ele>556.74987793</ele>
        <time>2021-10-17T10:22:37Z</time>
      </trkpt>
      <trkpt lat="43.15255" lon="1.03988">
        <ele>557.13989258</ele>
        <time>2021-10-17T10:22:38Z</time>
      </trkpt>
      <trkpt lat="43.15256" lon="1.0399">
        <ele>557.5098877</ele>
        <time>2021-10-17T10:22:39Z</time>
      </trkpt>
      <trkpt lat="43.15258" lon="1.03992">
        <ele>557.86987305</ele>
        <time>2021-10-17T10:22:40Z</time>
      </trkpt>
      <trkpt lat="43.15258" lon="1.03994">
        <ele>558.2298584</ele>
        <time>2021-10-17T10:22:41Z</time>
      </trkpt>
      <trkpt lat="43.15259" lon="1.03996">
        <ele>558.64984131</ele>
        <time>2021-10-17T10:22:42Z</time>
      </trkpt>
      <trkpt lat="43.1526" lon="1.03998">
        <ele>559.14984131</ele>
        <time>2021-10-17T10:22:43Z</time>
      </trkpt>
      <trkpt lat="43.15262" lon="1.04001">
        <ele>559.61981201</ele>
        <time>2021-10-17T10:22:44Z</time>
      </trkpt>
      <trkpt lat="43.15263" lon="1.04003">
        <ele>560.11981201</ele>
        <time>2021-10-17T10:22:45Z</time>
      </trkpt>
      <trkpt lat="43.15264" lon="1.04005">
        <ele>560.57983398</ele>
        <time>2021-10-17T10:22:46Z</time>
      </trkpt>
      <trkpt lat="43.15264" lon="1.04007">
        <ele>561.08984375</ele>
        <time>2021-10-17T10:22:47Z</time>
      </trkpt>
      <trkpt lat="43.15265" lon="1.0401">
        <ele>561.56982422</ele>
        <time>2021-10-17T10:22:48Z</time>
      </trkpt>
      <trkpt lat="43.15265" lon="1.04012">
        <ele>562.01983643</ele>
        <time>2021-10-17T10:22:49Z</time>
      </trkpt>
      <trkpt lat="43.15266" lon="1.04014">
        <ele>562.4498291</ele>
        <time>2021-10-17T10:22:50Z</time>
      </trkpt>
      <trkpt lat="43.15266" lon="1.04017">
        <ele>562.83984375</ele>
        <time>2021-10-17T10:22:51Z</time>
      </trkpt>
      <trkpt lat="43.15267" lon="1.04018">
        <ele>563.2298584</ele>
        <time>2021-10-17T10:22:52Z</time>
      </trkpt>
      <trkpt lat="43.15268" lon="1.04022">
        <ele>563.61987305</ele>
        <time>2021-10-17T10:22:53Z</time>
      </trkpt>
      <trkpt lat="43.15269" lon="1.04024">
        <ele>564.03985596</ele>
        <time>2021-10-17T10:22:54Z</time>
      </trkpt>
      <trkpt lat="43.1527" lon="1.04026">
        <ele>564.43988037</ele>
        <time>2021-10-17T10:22:55Z</time>
      </trkpt>
      <trkpt lat="43.15271" lon="1.04028">
        <ele>564.88989258</ele>
        <time>2021-10-17T10:22:56Z</time>
      </trkpt>
      <trkpt lat="43.15271" lon="1.0403">
        <ele>565.31988525</ele>
        <time>2021-10-17T10:22:57Z</time>
      </trkpt>
      <trkpt lat="43.15272" lon="1.04032">
        <ele>565.73986816</ele>
        <time>2021-10-17T10:22:58Z</time>
      </trkpt>
      <trkpt lat="43.15273" lon="1.04034">
        <ele>566.11987305</ele>
        <time>2021-10-17T10:22:59Z</time>
      </trkpt>
      <trkpt lat="43.15273" lon="1.04036">
        <ele>566.52984619</ele>
        <time>2021-10-17T10:23:00Z</time>
      </trkpt>
      <trkpt lat="43.15274" lon="1.04038">
        <ele>566.98986816</ele>
        <time>2021-10-17T10:23:01Z</time>
      </trkpt>
      <trkpt lat="43.15274" lon="1.0404">
        <ele>567.33984375</ele>
        <time>2021-10-17T10:23:02Z</time>
      </trkpt>
      <trkpt lat="43.15275" lon="1.04043">
        <ele>567.6998291</ele>
        <time>2021-10-17T10:23:03Z</time>
      </trkpt>
      <trkpt lat="43.15275" lon="1.04045">
        <ele>568.10980225</ele>
        <time>2021-10-17T10:23:04Z</time>
      </trkpt>
      <trkpt lat="43.15276" lon="1.04048">
        <ele>568.4498291</ele>
        <time>2021-10-17T10:23:05Z</time>
      </trkpt>
      <trkpt lat="43.15276" lon="1.04051">
        <ele>568.80981445</ele>
        <time>2021-10-17T10:23:06Z</time>
      </trkpt>
      <trkpt lat="43.15277" lon="1.04055">
        <ele>569.1998291</ele>
        <time>2021-10-17T10:23:07Z</time>
      </trkpt>
      <trkpt lat="43.15277" lon="1.04057">
        <ele>569.53985596</ele>
        <time>2021-10-17T10:23:08Z</time>
      </trkpt>
      <trkpt lat="43.15277" lon="1.04059">
        <ele>569.88983154</ele>
        <time>2021-10-17T10:23:09Z</time>
      </trkpt>
      <trkpt lat="43.15277" lon="1.04062">
        <ele>570.23980713</ele>
        <time>2021-10-17T10:23:10Z</time>
      </trkpt>
      <trkpt lat="43.15276" lon="1.04065">
        <ele>570.54980469</ele>
        <time>2021-10-17T10:23:11Z</time>
      </trkpt>
      <trkpt lat="43.15276" lon="1.04068">
        <ele>570.74981689</ele>
        <time>2021-10-17T10:23:12Z</time>
      </trkpt>
      <trkpt lat="43.15276" lon="1.0407">
        <ele>570.90979004</ele>
        <time>2021-10-17T10:23:13Z</time>
      </trkpt>
      <trkpt lat="43.15275" lon="1.04073">
        <ele>571.09979248</ele>
        <time>2021-10-17T10:23:14Z</time>
      </trkpt>
      <trkpt lat="43.15275" lon="1.04075">
        <ele>571.24981689</ele>
        <time>2021-10-17T10:23:15Z</time>
      </trkpt>
      <trkpt lat="43.15274" lon="1.04078">
        <ele>571.4697876</ele>
        <time>2021-10-17T10:23:16Z</time>
      </trkpt>
      <trkpt lat="43.15273" lon="1.0408">
        <ele>571.7197876</ele>
        <time>2021-10-17T10:23:17Z</time>
      </trkpt>
      <trkpt lat="43.15273" lon="1.04083">
        <ele>571.97979736</ele>
        <time>2021-10-17T10:23:18Z</time>
      </trkpt>
      <trkpt lat="43.15272" lon="1.04085">
        <ele>572.26977539</ele>
        <time>2021-10-17T10:23:19Z</time>
      </trkpt>
      <trkpt lat="43.15271" lon="1.04089">
        <ele>572.44976807</ele>
        <time>2021-10-17T10:23:20Z</time>
      </trkpt>
      <trkpt lat="43.15271" lon="1.04091">
        <ele>572.61975098</ele>
        <time>2021-10-17T10:23:21Z</time>
      </trkpt>
      <trkpt lat="43.1527" lon="1.04093">
        <ele>572.76977539</ele>
        <time>2021-10-17T10:23:22Z</time>
      </trkpt>
      <trkpt lat="43.15269" lon="1.04095">
        <ele>572.86975098</ele>
        <time>2021-10-17T10:23:23Z</time>
      </trkpt>
      <trkpt lat="43.15269" lon="1.04097">
        <ele>573.00976562</ele>
        <time>2021-10-17T10:23:24Z</time>
      </trkpt>
      <trkpt lat="43.15269" lon="1.041">
        <ele>573.11975098</ele>
        <time>2021-10-17T10:23:25Z</time>
      </trkpt>
      <trkpt lat="43.15268" lon="1.04102">
        <ele>573.22973633</ele>
        <time>2021-10-17T10:23:26Z</time>
      </trkpt>
      <trkpt lat="43.15267" lon="1.04105">
        <ele>573.32971191</ele>
        <time>2021-10-17T10:23:27Z</time>
      </trkpt>
      <trkpt lat="43.15267" lon="1.04107">
        <ele>573.54968262</ele>
        <time>2021-10-17T10:23:28Z</time>
      </trkpt>
      <trkpt lat="43.15265" lon="1.04111">
        <ele>573.6496582</ele>
        <time>2021-10-17T10:23:29Z</time>
      </trkpt>
      <trkpt lat="43.15264" lon="1.04113">
        <ele>573.74963379</ele>
        <time>2021-10-17T10:23:30Z</time>
      </trkpt>
      <trkpt lat="43.15263" lon="1.04116">
        <ele>573.92962646</ele>
        <time>2021-10-17T10:23:31Z</time>
      </trkpt>
      <trkpt lat="43.15263" lon="1.04119">
        <ele>573.90960693</ele>
        <time>2021-10-17T10:23:32Z</time>
      </trkpt>
      <trkpt lat="43.15261" lon="1.04122">
        <ele>574.02960205</ele>
        <time>2021-10-17T10:23:33Z</time>
      </trkpt>
      <trkpt lat="43.1526" lon="1.04126">
        <ele>574.07958984</ele>
        <time>2021-10-17T10:23:34Z</time>
      </trkpt>
      <trkpt lat="43.15259" lon="1.04129">
        <ele>574.08959961</ele>
        <time>2021-10-17T10:23:35Z</time>
      </trkpt>
      <trkpt lat="43.15258" lon="1.04132">
        <ele>574.15960693</ele>
        <time>2021-10-17T10:23:36Z</time>
      </trkpt>
      <trkpt lat="43.15257" lon="1.04134">
        <ele>574.12957764</ele>
        <time>2021-10-17T10:23:37Z</time>
      </trkpt>
      <trkpt lat="43.15256" lon="1.04139">
        <ele>574.14959717</ele>
        <time>2021-10-17T10:23:38Z</time>
      </trkpt>
      <trkpt lat="43.15255" lon="1.04142">
        <ele>574.02960205</ele>
        <time>2021-10-17T10:23:39Z</time>
      </trkpt>
      <trkpt lat="43.15255" lon="1.04146">
        <ele>573.99957275</ele>
        <time>2021-10-17T10:23:40Z</time>
      </trkpt>
      <trkpt lat="43.15254" lon="1.0415">
        <ele>574.04956055</ele>
        <time>2021-10-17T10:23:41Z</time>
      </trkpt>
      <trkpt lat="43.15253" lon="1.04154">
        <ele>574.08953857</ele>
        <time>2021-10-17T10:23:42Z</time>
      </trkpt>
      <trkpt lat="43.15252" lon="1.04159">
        <ele>574.18951416</ele>
        <time>2021-10-17T10:23:43Z</time>
      </trkpt>
      <trkpt lat="43.15251" lon="1.04164">
        <ele>574.0994873</ele>
        <time>2021-10-17T10:23:44Z</time>
      </trkpt>
      <trkpt lat="43.1525" lon="1.04169">
        <ele>573.8994751</ele>
        <time>2021-10-17T10:23:45Z</time>
      </trkpt>
      <trkpt lat="43.15249" lon="1.04174">
        <ele>573.75946045</ele>
        <time>2021-10-17T10:23:46Z</time>
      </trkpt>
      <trkpt lat="43.15248" lon="1.0418">
        <ele>573.6494751</ele>
        <time>2021-10-17T10:23:47Z</time>
      </trkpt>
      <trkpt lat="43.15246" lon="1.04185">
        <ele>573.62945557</ele>
        <time>2021-10-17T10:23:48Z</time>
      </trkpt>
      <trkpt lat="43.15245" lon="1.04189">
        <ele>573.62945557</ele>
        <time>2021-10-17T10:23:49Z</time>
      </trkpt>
      <trkpt lat="43.15244" lon="1.04193">
        <ele>573.51947021</ele>
        <time>2021-10-17T10:23:50Z</time>
      </trkpt>
      <trkpt lat="43.15241" lon="1.04199">
        <ele>573.3494873</ele>
        <time>2021-10-17T10:23:51Z</time>
      </trkpt>
      <trkpt lat="43.1524" lon="1.04204">
        <ele>573.06945801</ele>
        <time>2021-10-17T10:23:52Z</time>
      </trkpt>
      <trkpt lat="43.15239" lon="1.0421">
        <ele>572.8494873</ele>
        <time>2021-10-17T10:23:53Z</time>
      </trkpt>
      <trkpt lat="43.15239" lon="1.04215">
        <ele>572.52947998</ele>
        <time>2021-10-17T10:23:54Z</time>
      </trkpt>
      <trkpt lat="43.15238" lon="1.04221">
        <ele>572.17950439</ele>
        <time>2021-10-17T10:23:55Z</time>
      </trkpt>
      <trkpt lat="43.15237" lon="1.0423">
        <ele>571.95953369</ele>
        <time>2021-10-17T10:23:56Z</time>
      </trkpt>
      <trkpt lat="43.15236" lon="1.04236">
        <ele>571.6595459</ele>
        <time>2021-10-17T10:23:57Z</time>
      </trkpt>
      <trkpt lat="43.15236" lon="1.04241">
        <ele>571.59954834</ele>
        <time>2021-10-17T10:23:58Z</time>
      </trkpt>
      <trkpt lat="43.15234" lon="1.04246">
        <ele>571.52954102</ele>
        <time>2021-10-17T10:23:59Z</time>
      </trkpt>
      <trkpt lat="43.15233" lon="1.04251">
        <ele>571.45953369</ele>
        <time>2021-10-17T10:24:00Z</time>
      </trkpt>
      <trkpt lat="43.1523" lon="1.04259">
        <ele>571.47955322</ele>
        <time>2021-10-17T10:24:01Z</time>
      </trkpt>
      <trkpt lat="43.15228" lon="1.04264">
        <ele>571.38952637</ele>
        <time>2021-10-17T10:24:02Z</time>
      </trkpt>
      <trkpt lat="43.15226" lon="1.04269">
        <ele>571.30950928</ele>
        <time>2021-10-17T10:24:03Z</time>
      </trkpt>
      <trkpt lat="43.15224" lon="1.04274">
        <ele>571.05950928</ele>
        <time>2021-10-17T10:24:04Z</time>
      </trkpt>
      <trkpt lat="43.15221" lon="1.04283">
        <ele>570.68951416</ele>
        <time>2021-10-17T10:24:05Z</time>
      </trkpt>
      <trkpt lat="43.15219" lon="1.04289">
        <ele>570.23950195</ele>
        <time>2021-10-17T10:24:06Z</time>
      </trkpt>
      <trkpt lat="43.15217" lon="1.04294">
        <ele>569.6494751</ele>
        <time>2021-10-17T10:24:07Z</time>
      </trkpt>
      <trkpt lat="43.15215" lon="1.04299">
        <ele>568.93945312</ele>
        <time>2021-10-17T10:24:08Z</time>
      </trkpt>
      <trkpt lat="43.15212" lon="1.04305">
        <ele>568.09942627</ele>
        <time>2021-10-17T10:24:09Z</time>
      </trkpt>
      <trkpt lat="43.15208" lon="1.04315">
        <ele>567.18945312</ele>
        <time>2021-10-17T10:24:10Z</time>
      </trkpt>
      <trkpt lat="43.15205" lon="1.04322">
        <ele>566.50946045</ele>
        <time>2021-10-17T10:24:11Z</time>
      </trkpt>
      <trkpt lat="43.15202" lon="1.04329">
        <ele>565.92944336</ele>
        <time>2021-10-17T10:24:12Z</time>
      </trkpt>
      <trkpt lat="43.15199" lon="1.04336">
        <ele>565.39941406</ele>
        <time>2021-10-17T10:24:13Z</time>
      </trkpt>
      <trkpt lat="43.15196" lon="1.04348">
        <ele>564.79943848</ele>
        <time>2021-10-17T10:24:14Z</time>
      </trkpt>
      <trkpt lat="43.15193" lon="1.04356">
        <ele>564.23944092</ele>
        <time>2021-10-17T10:24:15Z</time>
      </trkpt>
      <trkpt lat="43.15192" lon="1.04365">
        <ele>563.87945557</ele>
        <time>2021-10-17T10:24:16Z</time>
      </trkpt>
      <trkpt lat="43.1519" lon="1.04372">
        <ele>563.72943115</ele>
        <time>2021-10-17T10:24:17Z</time>
      </trkpt>
      <trkpt lat="43.15188" lon="1.04383">
        <ele>563.89941406</ele>
        <time>2021-10-17T10:24:18Z</time>
      </trkpt>
      <trkpt lat="43.15186" lon="1.0439">
        <ele>564.09942627</ele>
        <time>2021-10-17T10:24:19Z</time>
      </trkpt>
      <trkpt lat="43.15184" lon="1.04396">
        <ele>564.18945312</ele>
        <time>2021-10-17T10:24:20Z</time>
      </trkpt>
      <trkpt lat="43.15182" lon="1.04402">
        <ele>564.51947021</ele>
        <time>2021-10-17T10:24:21Z</time>
      </trkpt>
      <trkpt lat="43.15179" lon="1.04406">
        <ele>564.8494873</ele>
        <time>2021-10-17T10:24:22Z</time>
      </trkpt>
      <trkpt lat="43.15178" lon="1.04413">
        <ele>565.11950684</ele>
        <time>2021-10-17T10:24:23Z</time>
      </trkpt>
      <trkpt lat="43.15177" lon="1.04417">
        <ele>565.65948486</ele>
        <time>2021-10-17T10:24:24Z</time>
      </trkpt>
      <trkpt lat="43.15177" lon="1.0442">
        <ele>565.82946777</ele>
        <time>2021-10-17T10:24:25Z</time>
      </trkpt>
      <trkpt lat="43.15176" lon="1.04423">
        <ele>566.05944824</ele>
        <time>2021-10-17T10:24:26Z</time>
      </trkpt>
      <trkpt lat="43.15175" lon="1.04428">
        <ele>566.28942871</ele>
        <time>2021-10-17T10:24:27Z</time>
      </trkpt>
      <trkpt lat="43.15174" lon="1.04431">
        <ele>566.3394165</ele>
        <time>2021-10-17T10:24:28Z</time>
      </trkpt>
      <trkpt lat="43.15173" lon="1.04435">
        <ele>566.54943848</ele>
        <time>2021-10-17T10:24:29Z</time>
      </trkpt>
      <trkpt lat="43.15172" lon="1.04439">
        <ele>566.69946289</ele>
        <time>2021-10-17T10:24:30Z</time>
      </trkpt>
      <trkpt lat="43.15171" lon="1.04442">
        <ele>566.82946777</ele>
        <time>2021-10-17T10:24:31Z</time>
      </trkpt>
      <trkpt lat="43.15169" lon="1.04447">
        <ele>567.03948975</ele>
        <time>2021-10-17T10:24:32Z</time>
      </trkpt>
      <trkpt lat="43.15168" lon="1.0445">
        <ele>567.18951416</ele>
        <time>2021-10-17T10:24:33Z</time>
      </trkpt>
      <trkpt lat="43.15168" lon="1.04452">
        <ele>567.29949951</ele>
        <time>2021-10-17T10:24:34Z</time>
      </trkpt>
      <trkpt lat="43.15166" lon="1.04455">
        <ele>567.3795166</ele>
        <time>2021-10-17T10:24:35Z</time>
      </trkpt>
      <trkpt lat="43.15165" lon="1.04459">
        <ele>567.46954346</ele>
        <time>2021-10-17T10:24:36Z</time>
      </trkpt>
      <trkpt lat="43.15164" lon="1.04464">
        <ele>567.57952881</ele>
        <time>2021-10-17T10:24:37Z</time>
      </trkpt>
      <trkpt lat="43.15163" lon="1.04467">
        <ele>567.71954346</ele>
        <time>2021-10-17T10:24:38Z</time>
      </trkpt>
      <trkpt lat="43.15162" lon="1.0447">
        <ele>567.92956543</ele>
        <time>2021-10-17T10:24:39Z</time>
      </trkpt>
      <trkpt lat="43.15161" lon="1.04473">
        <ele>568.09954834</ele>
        <time>2021-10-17T10:24:40Z</time>
      </trkpt>
      <trkpt lat="43.15159" lon="1.04477">
        <ele>568.24957275</ele>
        <time>2021-10-17T10:24:41Z</time>
      </trkpt>
      <trkpt lat="43.15158" lon="1.04481">
        <ele>568.34954834</ele>
        <time>2021-10-17T10:24:42Z</time>
      </trkpt>
      <trkpt lat="43.15157" lon="1.04484">
        <ele>568.4395752</ele>
        <time>2021-10-17T10:24:43Z</time>
      </trkpt>
      <trkpt lat="43.15157" lon="1.04487">
        <ele>568.54956055</ele>
        <time>2021-10-17T10:24:44Z</time>
      </trkpt>
      <trkpt lat="43.15156" lon="1.04491">
        <ele>568.71954346</ele>
        <time>2021-10-17T10:24:45Z</time>
      </trkpt>
      <trkpt lat="43.15155" lon="1.04495">
        <ele>568.86956787</ele>
        <time>2021-10-17T10:24:46Z</time>
      </trkpt>
      <trkpt lat="43.15154" lon="1.04498">
        <ele>569.06958008</ele>
        <time>2021-10-17T10:24:47Z</time>
      </trkpt>
      <trkpt lat="43.15153" lon="1.04501">
        <ele>569.21960449</ele>
        <time>2021-10-17T10:24:48Z</time>
      </trkpt>
      <trkpt lat="43.15152" lon="1.04504">
        <ele>569.36962891</ele>
        <time>2021-10-17T10:24:49Z</time>
      </trkpt>
      <trkpt lat="43.15149" lon="1.04507">
        <ele>569.46960449</ele>
        <time>2021-10-17T10:24:50Z</time>
      </trkpt>
      <trkpt lat="43.15148" lon="1.0451">
        <ele>569.54962158</ele>
        <time>2021-10-17T10:24:51Z</time>
      </trkpt>
      <trkpt lat="43.15147" lon="1.04513">
        <ele>569.699646</ele>
        <time>2021-10-17T10:24:52Z</time>
      </trkpt>
      <trkpt lat="43.15146" lon="1.04516">
        <ele>569.76965332</ele>
        <time>2021-10-17T10:24:53Z</time>
      </trkpt>
      <trkpt lat="43.15144" lon="1.04521">
        <ele>569.95965576</ele>
        <time>2021-10-17T10:24:54Z</time>
      </trkpt>
      <trkpt lat="43.15143" lon="1.04523">
        <ele>570.12963867</ele>
        <time>2021-10-17T10:24:55Z</time>
      </trkpt>
      <trkpt lat="43.15141" lon="1.04526">
        <ele>570.24963379</ele>
        <time>2021-10-17T10:24:56Z</time>
      </trkpt>
      <trkpt lat="43.1514" lon="1.04529">
        <ele>570.40960693</ele>
        <time>2021-10-17T10:24:57Z</time>
      </trkpt>
      <trkpt lat="43.15138" lon="1.04532">
        <ele>570.56958008</ele>
        <time>2021-10-17T10:24:58Z</time>
      </trkpt>
      <trkpt lat="43.15137" lon="1.04536">
        <ele>570.67956543</ele>
        <time>2021-10-17T10:24:59Z</time>
      </trkpt>
      <trkpt lat="43.15136" lon="1.04539">
        <ele>570.82958984</ele>
        <time>2021-10-17T10:25:00Z</time>
      </trkpt>
      <trkpt lat="43.15135" lon="1.04542">
        <ele>570.99957275</ele>
        <time>2021-10-17T10:25:01Z</time>
      </trkpt>
      <trkpt lat="43.15134" lon="1.04545">
        <ele>571.14959717</ele>
        <time>2021-10-17T10:25:02Z</time>
      </trkpt>
      <trkpt lat="43.15133" lon="1.04547">
        <ele>571.36956787</ele>
        <time>2021-10-17T10:25:03Z</time>
      </trkpt>
      <trkpt lat="43.15132" lon="1.04552">
        <ele>571.52954102</ele>
        <time>2021-10-17T10:25:04Z</time>
      </trkpt>
      <trkpt lat="43.1513" lon="1.04554">
        <ele>571.68951416</ele>
        <time>2021-10-17T10:25:05Z</time>
      </trkpt>
      <trkpt lat="43.15129" lon="1.04556">
        <ele>571.81951904</ele>
        <time>2021-10-17T10:25:06Z</time>
      </trkpt>
      <trkpt lat="43.15128" lon="1.04559">
        <ele>571.89953613</ele>
        <time>2021-10-17T10:25:07Z</time>
      </trkpt>
      <trkpt lat="43.15126" lon="1.04563">
        <ele>572.05950928</ele>
        <time>2021-10-17T10:25:08Z</time>
      </trkpt>
      <trkpt lat="43.15125" lon="1.04566">
        <ele>572.17950439</ele>
        <time>2021-10-17T10:25:09Z</time>
      </trkpt>
      <trkpt lat="43.15123" lon="1.04569">
        <ele>572.33947754</ele>
        <time>2021-10-17T10:25:10Z</time>
      </trkpt>
      <trkpt lat="43.15122" lon="1.04572">
        <ele>572.49945068</ele>
        <time>2021-10-17T10:25:11Z</time>
      </trkpt>
      <trkpt lat="43.1512" lon="1.04576">
        <ele>572.50946045</ele>
        <time>2021-10-17T10:25:12Z</time>
      </trkpt>
      <trkpt lat="43.15119" lon="1.04579">
        <ele>572.55944824</ele>
        <time>2021-10-17T10:25:13Z</time>
      </trkpt>
      <trkpt lat="43.15118" lon="1.04582">
        <ele>572.55944824</ele>
        <time>2021-10-17T10:25:14Z</time>
      </trkpt>
      <trkpt lat="43.15116" lon="1.04585">
        <ele>572.65942383</ele>
        <time>2021-10-17T10:25:15Z</time>
      </trkpt>
      <trkpt lat="43.15115" lon="1.04588">
        <ele>572.76940918</ele>
        <time>2021-10-17T10:25:16Z</time>
      </trkpt>
      <trkpt lat="43.15114" lon="1.04592">
        <ele>572.90942383</ele>
        <time>2021-10-17T10:25:17Z</time>
      </trkpt>
      <trkpt lat="43.15114" lon="1.04596">
        <ele>573.05944824</ele>
        <time>2021-10-17T10:25:18Z</time>
      </trkpt>
      <trkpt lat="43.15113" lon="1.04598">
        <ele>573.10943604</ele>
        <time>2021-10-17T10:25:19Z</time>
      </trkpt>
      <trkpt lat="43.15112" lon="1.04601">
        <ele>573.31945801</ele>
        <time>2021-10-17T10:25:20Z</time>
      </trkpt>
      <trkpt lat="43.15111" lon="1.04604">
        <ele>573.40948486</ele>
        <time>2021-10-17T10:25:21Z</time>
      </trkpt>
      <trkpt lat="43.1511" lon="1.04607">
        <ele>573.40948486</ele>
        <time>2021-10-17T10:25:22Z</time>
      </trkpt>
      <trkpt lat="43.15109" lon="1.0461">
        <ele>573.46948242</ele>
        <time>2021-10-17T10:25:23Z</time>
      </trkpt>
      <trkpt lat="43.15108" lon="1.04612">
        <ele>573.50946045</ele>
        <time>2021-10-17T10:25:24Z</time>
      </trkpt>
      <trkpt lat="43.15107" lon="1.04615">
        <ele>573.57946777</ele>
        <time>2021-10-17T10:25:25Z</time>
      </trkpt>
      <trkpt lat="43.15105" lon="1.04619">
        <ele>573.73944092</ele>
        <time>2021-10-17T10:25:26Z</time>
      </trkpt>
      <trkpt lat="43.15103" lon="1.04622">
        <ele>573.79943848</ele>
        <time>2021-10-17T10:25:27Z</time>
      </trkpt>
      <trkpt lat="43.15102" lon="1.04625">
        <ele>573.81945801</ele>
        <time>2021-10-17T10:25:28Z</time>
      </trkpt>
      <trkpt lat="43.15101" lon="1.04628">
        <ele>573.82946777</ele>
        <time>2021-10-17T10:25:29Z</time>
      </trkpt>
      <trkpt lat="43.151" lon="1.0463">
        <ele>573.91949463</ele>
        <time>2021-10-17T10:25:30Z</time>
      </trkpt>
      <trkpt lat="43.15098" lon="1.04634">
        <ele>574.00952148</ele>
        <time>2021-10-17T10:25:31Z</time>
      </trkpt>
      <trkpt lat="43.15097" lon="1.04637">
        <ele>574.04949951</ele>
        <time>2021-10-17T10:25:32Z</time>
      </trkpt>
      <trkpt lat="43.15097" lon="1.0464">
        <ele>574.1295166</ele>
        <time>2021-10-17T10:25:33Z</time>
      </trkpt>
      <trkpt lat="43.15096" lon="1.04643">
        <ele>574.05950928</ele>
        <time>2021-10-17T10:25:34Z</time>
      </trkpt>
      <trkpt lat="43.15094" lon="1.04648">
        <ele>573.95953369</ele>
        <time>2021-10-17T10:25:35Z</time>
      </trkpt>
      <trkpt lat="43.15092" lon="1.04651">
        <ele>573.83953857</ele>
        <time>2021-10-17T10:25:36Z</time>
      </trkpt>
      <trkpt lat="43.1509" lon="1.04654">
        <ele>573.68951416</ele>
        <time>2021-10-17T10:25:37Z</time>
      </trkpt>
      <trkpt lat="43.15088" lon="1.04656">
        <ele>573.57952881</ele>
        <time>2021-10-17T10:25:38Z</time>
      </trkpt>
      <trkpt lat="43.15086" lon="1.04659">
        <ele>573.3795166</ele>
        <time>2021-10-17T10:25:39Z</time>
      </trkpt>
      <trkpt lat="43.15082" lon="1.04663">
        <ele>573.21954346</ele>
        <time>2021-10-17T10:25:40Z</time>
      </trkpt>
      <trkpt lat="43.1508" lon="1.04666">
        <ele>572.96954346</ele>
        <time>2021-10-17T10:25:41Z</time>
      </trkpt>
      <trkpt lat="43.15077" lon="1.0467">
        <ele>572.47955322</ele>
        <time>2021-10-17T10:25:42Z</time>
      </trkpt>
      <trkpt lat="43.15074" lon="1.04674">
        <ele>572.13952637</ele>
        <time>2021-10-17T10:25:43Z</time>
      </trkpt>
      <trkpt lat="43.15069" lon="1.0468">
        <ele>571.61950684</ele>
        <time>2021-10-17T10:25:44Z</time>
      </trkpt>
      <trkpt lat="43.15066" lon="1.04684">
        <ele>571.15948486</ele>
        <time>2021-10-17T10:25:45Z</time>
      </trkpt>
      <trkpt lat="43.15064" lon="1.04689">
        <ele>571.06945801</ele>
        <time>2021-10-17T10:25:46Z</time>
      </trkpt>
      <trkpt lat="43.15061" lon="1.04694">
        <ele>570.77947998</ele>
        <time>2021-10-17T10:25:47Z</time>
      </trkpt>
      <trkpt lat="43.15059" lon="1.04699">
        <ele>570.42950439</ele>
        <time>2021-10-17T10:25:48Z</time>
      </trkpt>
      <trkpt lat="43.15058" lon="1.04707">
        <ele>570.13952637</ele>
        <time>2021-10-17T10:25:49Z</time>
      </trkpt>
      <trkpt lat="43.15056" lon="1.04711">
        <ele>569.88952637</ele>
        <time>2021-10-17T10:25:50Z</time>
      </trkpt>
      <trkpt lat="43.15054" lon="1.04715">
        <ele>569.80950928</ele>
        <time>2021-10-17T10:25:51Z</time>
      </trkpt>
      <trkpt lat="43.15052" lon="1.04719">
        <ele>570.03948975</ele>
        <time>2021-10-17T10:25:52Z</time>
      </trkpt>
      <trkpt lat="43.1505" lon="1.04724">
        <ele>570.31951904</ele>
        <time>2021-10-17T10:25:53Z</time>
      </trkpt>
      <trkpt lat="43.15049" lon="1.04727">
        <ele>570.39953613</ele>
        <time>2021-10-17T10:25:54Z</time>
      </trkpt>
      <trkpt lat="43.15047" lon="1.0473">
        <ele>570.55950928</ele>
        <time>2021-10-17T10:25:55Z</time>
      </trkpt>
      <trkpt lat="43.15046" lon="1.04734">
        <ele>570.65948486</ele>
        <time>2021-10-17T10:25:56Z</time>
      </trkpt>
      <trkpt lat="43.15044" lon="1.0474">
        <ele>570.72949219</ele>
        <time>2021-10-17T10:25:57Z</time>
      </trkpt>
      <trkpt lat="43.15043" lon="1.04744">
        <ele>570.8994751</ele>
        <time>2021-10-17T10:25:58Z</time>
      </trkpt>
      <trkpt lat="43.15041" lon="1.04747">
        <ele>571.0994873</ele>
        <time>2021-10-17T10:25:59Z</time>
      </trkpt>
      <trkpt lat="43.1504" lon="1.04751">
        <ele>571.32946777</ele>
        <time>2021-10-17T10:26:00Z</time>
      </trkpt>
      <trkpt lat="43.15039" lon="1.04754">
        <ele>571.55944824</ele>
        <time>2021-10-17T10:26:01Z</time>
      </trkpt>
      <trkpt lat="43.15037" lon="1.04758">
        <ele>571.77941895</ele>
        <time>2021-10-17T10:26:02Z</time>
      </trkpt>
      <trkpt lat="43.15036" lon="1.04761">
        <ele>571.90942383</ele>
        <time>2021-10-17T10:26:03Z</time>
      </trkpt>
      <trkpt lat="43.15035" lon="1.04763">
        <ele>572.01940918</ele>
        <time>2021-10-17T10:26:04Z</time>
      </trkpt>
      <trkpt lat="43.15034" lon="1.04766">
        <ele>572.1394043</ele>
        <time>2021-10-17T10:26:05Z</time>
      </trkpt>
      <trkpt lat="43.15033" lon="1.04768">
        <ele>572.30938721</ele>
        <time>2021-10-17T10:26:06Z</time>
      </trkpt>
      <trkpt lat="43.15032" lon="1.04772">
        <ele>572.42938232</ele>
        <time>2021-10-17T10:26:07Z</time>
      </trkpt>
      <trkpt lat="43.1503" lon="1.04774">
        <ele>572.54937744</ele>
        <time>2021-10-17T10:26:08Z</time>
      </trkpt>
      <trkpt lat="43.15029" lon="1.04778">
        <ele>572.61938477</ele>
        <time>2021-10-17T10:26:09Z</time>
      </trkpt>
      <trkpt lat="43.15027" lon="1.0478">
        <ele>572.58935547</ele>
        <time>2021-10-17T10:26:10Z</time>
      </trkpt>
      <trkpt lat="43.15024" lon="1.04785">
        <ele>572.64935303</ele>
        <time>2021-10-17T10:26:11Z</time>
      </trkpt>
      <trkpt lat="43.15023" lon="1.04789">
        <ele>572.55932617</ele>
        <time>2021-10-17T10:26:12Z</time>
      </trkpt>
      <trkpt lat="43.15022" lon="1.04791">
        <ele>572.48931885</ele>
        <time>2021-10-17T10:26:13Z</time>
      </trkpt>
      <trkpt lat="43.15021" lon="1.04794">
        <ele>572.48931885</ele>
        <time>2021-10-17T10:26:14Z</time>
      </trkpt>
      <trkpt lat="43.15019" lon="1.04797">
        <ele>572.3493042</ele>
        <time>2021-10-17T10:26:15Z</time>
      </trkpt>
      <trkpt lat="43.15017" lon="1.048">
        <ele>572.24932861</ele>
        <time>2021-10-17T10:26:16Z</time>
      </trkpt>
      <trkpt lat="43.15015" lon="1.04802">
        <ele>572.00933838</ele>
        <time>2021-10-17T10:26:17Z</time>
      </trkpt>
      <trkpt lat="43.15013" lon="1.04804">
        <ele>571.59936523</ele>
        <time>2021-10-17T10:26:18Z</time>
      </trkpt>
      <trkpt lat="43.15011" lon="1.04807">
        <ele>571.20935059</ele>
        <time>2021-10-17T10:26:19Z</time>
      </trkpt>
      <trkpt lat="43.15009" lon="1.04811">
        <ele>570.63934326</ele>
        <time>2021-10-17T10:26:20Z</time>
      </trkpt>
      <trkpt lat="43.15005" lon="1.04817">
        <ele>570.10931396</ele>
        <time>2021-10-17T10:26:21Z</time>
      </trkpt>
      <trkpt lat="43.15002" lon="1.04821">
        <ele>569.5993042</ele>
        <time>2021-10-17T10:26:22Z</time>
      </trkpt>
      <trkpt lat="43.15" lon="1.04825">
        <ele>568.98931885</ele>
        <time>2021-10-17T10:26:23Z</time>
      </trkpt>
      <trkpt lat="43.14999" lon="1.04829">
        <ele>568.5793457</ele>
        <time>2021-10-17T10:26:24Z</time>
      </trkpt>
      <trkpt lat="43.14998" lon="1.0483">
        <ele>569.19000244</ele>
        <time>2021-10-17T10:26:24Z</time>
      </trkpt>
      <trkpt lat="43.14996" lon="1.04834">
        <ele>569.19000244</ele>
        <time>2021-10-17T10:26:25Z</time>
      </trkpt>
      <trkpt lat="43.14994" lon="1.04835">
        <ele>568.5300293</ele>
        <time>2021-10-17T10:26:26Z</time>
      </trkpt>
      <trkpt lat="43.14992" lon="1.04836">
        <ele>568.33001709</ele>
        <time>2021-10-17T10:26:27Z</time>
      </trkpt>
      <trkpt lat="43.14989" lon="1.04838">
        <ele>568.04998779</ele>
        <time>2021-10-17T10:26:28Z</time>
      </trkpt>
      <trkpt lat="43.14986" lon="1.04838">
        <ele>567.59997559</ele>
        <time>2021-10-17T10:26:29Z</time>
      </trkpt>
      <trkpt lat="43.14983" lon="1.04837">
        <ele>567.07995605</ele>
        <time>2021-10-17T10:26:30Z</time>
      </trkpt>
      <trkpt lat="43.14981" lon="1.04837">
        <ele>566.47998047</ele>
        <time>2021-10-17T10:26:31Z</time>
      </trkpt>
      <trkpt lat="43.14979" lon="1.04838">
        <ele>565.89996338</ele>
        <time>2021-10-17T10:26:32Z</time>
      </trkpt>
      <trkpt lat="43.14976" lon="1.0484">
        <ele>565.36993408</ele>
        <time>2021-10-17T10:26:33Z</time>
      </trkpt>
      <trkpt lat="43.14971" lon="1.04845">
        <ele>564.7399292</ele>
        <time>2021-10-17T10:26:34Z</time>
      </trkpt>
      <trkpt lat="43.14969" lon="1.04849">
        <ele>564.19995117</ele>
        <time>2021-10-17T10:26:35Z</time>
      </trkpt>
      <trkpt lat="43.14968" lon="1.04852">
        <ele>563.84997559</ele>
        <time>2021-10-17T10:26:36Z</time>
      </trkpt>
      <trkpt lat="43.14967" lon="1.04854">
        <ele>563.61999512</ele>
        <time>2021-10-17T10:26:37Z</time>
      </trkpt>
      <trkpt lat="43.14965" lon="1.04858">
        <ele>563.66998291</ele>
        <time>2021-10-17T10:26:38Z</time>
      </trkpt>
      <trkpt lat="43.14965" lon="1.0486">
        <ele>563.76000977</ele>
        <time>2021-10-17T10:26:39Z</time>
      </trkpt>
      <trkpt lat="43.14965" lon="1.04863">
        <ele>563.72998047</ele>
        <time>2021-10-17T10:26:40Z</time>
      </trkpt>
      <trkpt lat="43.14965" lon="1.04867">
        <ele>563.75</ele>
        <time>2021-10-17T10:26:41Z</time>
      </trkpt>
      <trkpt lat="43.14964" lon="1.04871">
        <ele>563.72998047</ele>
        <time>2021-10-17T10:26:42Z</time>
      </trkpt>
      <trkpt lat="43.14963" lon="1.04876">
        <ele>563.66998291</ele>
        <time>2021-10-17T10:26:43Z</time>
      </trkpt>
      <trkpt lat="43.14961" lon="1.04879">
        <ele>563.73999023</ele>
        <time>2021-10-17T10:26:44Z</time>
      </trkpt>
      <trkpt lat="43.14959" lon="1.04883">
        <ele>563.64001465</ele>
        <time>2021-10-17T10:26:45Z</time>
      </trkpt>
      <trkpt lat="43.14956" lon="1.04886">
        <ele>563.57000732</ele>
        <time>2021-10-17T10:26:46Z</time>
      </trkpt>
      <trkpt lat="43.14953" lon="1.04891">
        <ele>563.55999756</ele>
        <time>2021-10-17T10:26:47Z</time>
      </trkpt>
      <trkpt lat="43.14952" lon="1.04895">
        <ele>563.38000488</ele>
        <time>2021-10-17T10:26:48Z</time>
      </trkpt>
      <trkpt lat="43.1495" lon="1.04899">
        <ele>563.41998291</ele>
        <time>2021-10-17T10:26:49Z</time>
      </trkpt>
      <trkpt lat="43.14948" lon="1.04903">
        <ele>563.54998779</ele>
        <time>2021-10-17T10:26:50Z</time>
      </trkpt>
      <trkpt lat="43.14947" lon="1.04905">
        <ele>563.60998535</ele>
        <time>2021-10-17T10:26:51Z</time>
      </trkpt>
      <trkpt lat="43.14946" lon="1.0491">
        <ele>563.88000488</ele>
        <time>2021-10-17T10:26:52Z</time>
      </trkpt>
      <trkpt lat="43.14945" lon="1.04913">
        <ele>564.09002686</ele>
        <time>2021-10-17T10:26:53Z</time>
      </trkpt>
      <trkpt lat="43.14945" lon="1.04917">
        <ele>564.25</ele>
        <time>2021-10-17T10:26:54Z</time>
      </trkpt>
      <trkpt lat="43.14944" lon="1.04921">
        <ele>564.52001953</ele>
        <time>2021-10-17T10:26:55Z</time>
      </trkpt>
      <trkpt lat="43.14943" lon="1.04926">
        <ele>564.88000488</ele>
        <time>2021-10-17T10:26:56Z</time>
      </trkpt>
      <trkpt lat="43.14942" lon="1.0493">
        <ele>565.25</ele>
        <time>2021-10-17T10:26:57Z</time>
      </trkpt>
      <trkpt lat="43.14942" lon="1.04934">
        <ele>565.61999512</ele>
        <time>2021-10-17T10:26:58Z</time>
      </trkpt>
      <trkpt lat="43.14941" lon="1.04937">
        <ele>565.92999268</ele>
        <time>2021-10-17T10:26:59Z</time>
      </trkpt>
      <trkpt lat="43.1494" lon="1.0494">
        <ele>566.19000244</ele>
        <time>2021-10-17T10:27:00Z</time>
      </trkpt>
      <trkpt lat="43.14938" lon="1.04944">
        <ele>566.46002197</ele>
        <time>2021-10-17T10:27:01Z</time>
      </trkpt>
      <trkpt lat="43.14938" lon="1.04947">
        <ele>566.75</ele>
        <time>2021-10-17T10:27:02Z</time>
      </trkpt>
      <trkpt lat="43.14937" lon="1.0495">
        <ele>567.07000732</ele>
        <time>2021-10-17T10:27:03Z</time>
      </trkpt>
      <trkpt lat="43.14935" lon="1.04952">
        <ele>567.41003418</ele>
        <time>2021-10-17T10:27:04Z</time>
      </trkpt>
      <trkpt lat="43.14933" lon="1.04956">
        <ele>567.70001221</ele>
        <time>2021-10-17T10:27:05Z</time>
      </trkpt>
      <trkpt lat="43.14932" lon="1.04958">
        <ele>567.97003174</ele>
        <time>2021-10-17T10:27:06Z</time>
      </trkpt>
      <trkpt lat="43.14931" lon="1.04961">
        <ele>568.24005127</ele>
        <time>2021-10-17T10:27:07Z</time>
      </trkpt>
      <trkpt lat="43.1493" lon="1.04964">
        <ele>568.46002197</ele>
        <time>2021-10-17T10:27:08Z</time>
      </trkpt>
      <trkpt lat="43.1493" lon="1.04967">
        <ele>568.74005127</ele>
        <time>2021-10-17T10:27:09Z</time>
      </trkpt>
      <trkpt lat="43.1493" lon="1.04971">
        <ele>569.07006836</ele>
        <time>2021-10-17T10:27:10Z</time>
      </trkpt>
      <trkpt lat="43.1493" lon="1.04974">
        <ele>569.46008301</ele>
        <time>2021-10-17T10:27:11Z</time>
      </trkpt>
      <trkpt lat="43.1493" lon="1.04977">
        <ele>569.90008545</ele>
        <time>2021-10-17T10:27:12Z</time>
      </trkpt>
      <trkpt lat="43.1493" lon="1.04979">
        <ele>570.30010986</ele>
        <time>2021-10-17T10:27:13Z</time>
      </trkpt>
      <trkpt lat="43.1493" lon="1.04983">
        <ele>570.64013672</ele>
        <time>2021-10-17T10:27:14Z</time>
      </trkpt>
      <trkpt lat="43.14929" lon="1.04985">
        <ele>571.10015869</ele>
        <time>2021-10-17T10:27:15Z</time>
      </trkpt>
      <trkpt lat="43.14928" lon="1.04987">
        <ele>571.5501709</ele>
        <time>2021-10-17T10:27:16Z</time>
      </trkpt>
      <trkpt lat="43.14927" lon="1.04988">
        <ele>571.97015381</ele>
        <time>2021-10-17T10:27:17Z</time>
      </trkpt>
      <trkpt lat="43.14926" lon="1.0499">
        <ele>572.42016602</ele>
        <time>2021-10-17T10:27:18Z</time>
      </trkpt>
      <trkpt lat="43.14926" lon="1.04994">
        <ele>572.70019531</ele>
        <time>2021-10-17T10:27:19Z</time>
      </trkpt>
      <trkpt lat="43.14926" lon="1.04997">
        <ele>572.97021484</ele>
        <time>2021-10-17T10:27:20Z</time>
      </trkpt>
      <trkpt lat="43.14927" lon="1.05">
        <ele>573.29022217</ele>
        <time>2021-10-17T10:27:21Z</time>
      </trkpt>
      <trkpt lat="43.14928" lon="1.05003">
        <ele>573.62023926</ele>
        <time>2021-10-17T10:27:22Z</time>
      </trkpt>
      <trkpt lat="43.14927" lon="1.05006">
        <ele>573.95025635</ele>
        <time>2021-10-17T10:27:23Z</time>
      </trkpt>
      <trkpt lat="43.14927" lon="1.05008">
        <ele>574.27026367</ele>
        <time>2021-10-17T10:27:24Z</time>
      </trkpt>
      <trkpt lat="43.14927" lon="1.05011">
        <ele>574.60028076</ele>
        <time>2021-10-17T10:27:25Z</time>
      </trkpt>
      <trkpt lat="43.14927" lon="1.05013">
        <ele>574.98028564</ele>
        <time>2021-10-17T10:27:26Z</time>
      </trkpt>
      <trkpt lat="43.14926" lon="1.05016">
        <ele>575.35028076</ele>
        <time>2021-10-17T10:27:27Z</time>
      </trkpt>
      <trkpt lat="43.14925" lon="1.0502">
        <ele>575.67028809</ele>
        <time>2021-10-17T10:27:28Z</time>
      </trkpt>
      <trkpt lat="43.14925" lon="1.05023">
        <ele>575.94030762</ele>
        <time>2021-10-17T10:27:29Z</time>
      </trkpt>
      <trkpt lat="43.14924" lon="1.05026">
        <ele>576.26031494</ele>
        <time>2021-10-17T10:27:30Z</time>
      </trkpt>
      <trkpt lat="43.14923" lon="1.05029">
        <ele>576.56030273</ele>
        <time>2021-10-17T10:27:31Z</time>
      </trkpt>
      <trkpt lat="43.14921" lon="1.05032">
        <ele>576.88031006</ele>
        <time>2021-10-17T10:27:32Z</time>
      </trkpt>
      <trkpt lat="43.1492" lon="1.05034">
        <ele>577.25030518</ele>
        <time>2021-10-17T10:27:33Z</time>
      </trkpt>
      <trkpt lat="43.14919" lon="1.05036">
        <ele>577.47027588</ele>
        <time>2021-10-17T10:27:34Z</time>
      </trkpt>
      <trkpt lat="43.14919" lon="1.05039">
        <ele>577.74029541</ele>
        <time>2021-10-17T10:27:35Z</time>
      </trkpt>
      <trkpt lat="43.14918" lon="1.05041">
        <ele>577.96026611</ele>
        <time>2021-10-17T10:27:36Z</time>
      </trkpt>
      <trkpt lat="43.14917" lon="1.05045">
        <ele>578.21026611</ele>
        <time>2021-10-17T10:27:37Z</time>
      </trkpt>
      <trkpt lat="43.14916" lon="1.05048">
        <ele>578.49029541</ele>
        <time>2021-10-17T10:27:38Z</time>
      </trkpt>
      <trkpt lat="43.14915" lon="1.05051">
        <ele>578.71026611</ele>
        <time>2021-10-17T10:27:39Z</time>
      </trkpt>
      <trkpt lat="43.14914" lon="1.05053">
        <ele>579.05029297</ele>
        <time>2021-10-17T10:27:40Z</time>
      </trkpt>
      <trkpt lat="43.14913" lon="1.05055">
        <ele>579.23028564</ele>
        <time>2021-10-17T10:27:41Z</time>
      </trkpt>
      <trkpt lat="43.14912" lon="1.05059">
        <ele>579.51031494</ele>
        <time>2021-10-17T10:27:42Z</time>
      </trkpt>
      <trkpt lat="43.14911" lon="1.05061">
        <ele>579.81030273</ele>
        <time>2021-10-17T10:27:43Z</time>
      </trkpt>
      <trkpt lat="43.1491" lon="1.05063">
        <ele>580.03027344</ele>
        <time>2021-10-17T10:27:44Z</time>
      </trkpt>
      <trkpt lat="43.14909" lon="1.05065">
        <ele>580.21026611</ele>
        <time>2021-10-17T10:27:45Z</time>
      </trkpt>
      <trkpt lat="43.14908" lon="1.05068">
        <ele>580.340271</ele>
        <time>2021-10-17T10:27:46Z</time>
      </trkpt>
      <trkpt lat="43.14907" lon="1.0507">
        <ele>580.48028564</ele>
        <time>2021-10-17T10:27:47Z</time>
      </trkpt>
      <trkpt lat="43.14906" lon="1.05072">
        <ele>580.65026855</ele>
        <time>2021-10-17T10:27:48Z</time>
      </trkpt>
      <trkpt lat="43.14905" lon="1.05074">
        <ele>580.87023926</ele>
        <time>2021-10-17T10:27:49Z</time>
      </trkpt>
      <trkpt lat="43.14904" lon="1.05076">
        <ele>581.12023926</ele>
        <time>2021-10-17T10:27:50Z</time>
      </trkpt>
      <trkpt lat="43.14902" lon="1.05078">
        <ele>581.24023438</ele>
        <time>2021-10-17T10:27:51Z</time>
      </trkpt>
      <trkpt lat="43.14901" lon="1.0508">
        <ele>581.36022949</ele>
        <time>2021-10-17T10:27:52Z</time>
      </trkpt>
      <trkpt lat="43.149" lon="1.05081">
        <ele>581.55023193</ele>
        <time>2021-10-17T10:27:53Z</time>
      </trkpt>
      <trkpt lat="43.149" lon="1.05081">
        <ele>581.66021729</ele>
        <time>2021-10-17T10:27:54Z</time>
      </trkpt>
      <trkpt lat="43.14898" lon="1.05084">
        <ele>582.01000977</ele>
        <time>2021-10-17T10:28:16Z</time>
      </trkpt>
      <trkpt lat="43.14897" lon="1.05087">
        <ele>581.92999268</ele>
        <time>2021-10-17T10:28:17Z</time>
      </trkpt>
      <trkpt lat="43.14895" lon="1.0509">
        <ele>581.92999268</ele>
        <time>2021-10-17T10:28:18Z</time>
      </trkpt>
      <trkpt lat="43.14893" lon="1.05093">
        <ele>581.9699707</ele>
        <time>2021-10-17T10:28:19Z</time>
      </trkpt>
      <trkpt lat="43.14892" lon="1.05096">
        <ele>581.90997314</ele>
        <time>2021-10-17T10:28:20Z</time>
      </trkpt>
      <trkpt lat="43.1489" lon="1.05098">
        <ele>582.0199585</ele>
        <time>2021-10-17T10:28:21Z</time>
      </trkpt>
      <trkpt lat="43.14888" lon="1.05102">
        <ele>582.08996582</ele>
        <time>2021-10-17T10:28:22Z</time>
      </trkpt>
      <trkpt lat="43.14886" lon="1.05104">
        <ele>582.05993652</ele>
        <time>2021-10-17T10:28:23Z</time>
      </trkpt>
      <trkpt lat="43.14886" lon="1.05107">
        <ele>582.14996338</ele>
        <time>2021-10-17T10:28:24Z</time>
      </trkpt>
      <trkpt lat="43.14884" lon="1.05109">
        <ele>582.14996338</ele>
        <time>2021-10-17T10:28:25Z</time>
      </trkpt>
      <trkpt lat="43.14882" lon="1.05114">
        <ele>582.09997559</ele>
        <time>2021-10-17T10:28:26Z</time>
      </trkpt>
      <trkpt lat="43.1488" lon="1.05116">
        <ele>582.06994629</ele>
        <time>2021-10-17T10:28:27Z</time>
      </trkpt>
      <trkpt lat="43.14878" lon="1.05118">
        <ele>581.95996094</ele>
        <time>2021-10-17T10:28:28Z</time>
      </trkpt>
      <trkpt lat="43.14876" lon="1.05121">
        <ele>581.80993652</ele>
        <time>2021-10-17T10:28:29Z</time>
      </trkpt>
      <trkpt lat="43.14875" lon="1.05124">
        <ele>581.58996582</ele>
        <time>2021-10-17T10:28:30Z</time>
      </trkpt>
      <trkpt lat="43.14871" lon="1.05129">
        <ele>581.37994385</ele>
        <time>2021-10-17T10:28:31Z</time>
      </trkpt>
      <trkpt lat="43.14869" lon="1.05133">
        <ele>581.20996094</ele>
        <time>2021-10-17T10:28:32Z</time>
      </trkpt>
      <trkpt lat="43.14867" lon="1.05137">
        <ele>580.98999023</ele>
        <time>2021-10-17T10:28:33Z</time>
      </trkpt>
      <trkpt lat="43.14865" lon="1.0514">
        <ele>580.65997314</ele>
        <time>2021-10-17T10:28:34Z</time>
      </trkpt>
      <trkpt lat="43.14861" lon="1.05145">
        <ele>580.29998779</ele>
        <time>2021-10-17T10:28:35Z</time>
      </trkpt>
      <trkpt lat="43.14859" lon="1.05148">
        <ele>579.98999023</ele>
        <time>2021-10-17T10:28:36Z</time>
      </trkpt>
      <trkpt lat="43.14857" lon="1.05151">
        <ele>579.86999512</ele>
        <time>2021-10-17T10:28:37Z</time>
      </trkpt>
      <trkpt lat="43.14855" lon="1.05154">
        <ele>579.83996582</ele>
        <time>2021-10-17T10:28:38Z</time>
      </trkpt>
      <trkpt lat="43.14853" lon="1.05158">
        <ele>579.81994629</ele>
        <time>2021-10-17T10:28:39Z</time>
      </trkpt>
      <trkpt lat="43.14851" lon="1.05163">
        <ele>579.77996826</ele>
        <time>2021-10-17T10:28:40Z</time>
      </trkpt>
      <trkpt lat="43.1485" lon="1.05167">
        <ele>579.68994141</ele>
        <time>2021-10-17T10:28:41Z</time>
      </trkpt>
      <trkpt lat="43.14849" lon="1.05171">
        <ele>579.43994141</ele>
        <time>2021-10-17T10:28:42Z</time>
      </trkpt>
      <trkpt lat="43.14848" lon="1.05174">
        <ele>579.2399292</ele>
        <time>2021-10-17T10:28:43Z</time>
      </trkpt>
      <trkpt lat="43.14844" lon="1.05177">
        <ele>579.06994629</ele>
        <time>2021-10-17T10:28:44Z</time>
      </trkpt>
      <trkpt lat="43.14843" lon="1.05179">
        <ele>578.7399292</ele>
        <time>2021-10-17T10:28:45Z</time>
      </trkpt>
      <trkpt lat="43.14841" lon="1.0518">
        <ele>578.66992188</ele>
        <time>2021-10-17T10:28:46Z</time>
      </trkpt>
      <trkpt lat="43.1484" lon="1.05183">
        <ele>578.41992188</ele>
        <time>2021-10-17T10:28:47Z</time>
      </trkpt>
      <trkpt lat="43.14837" lon="1.05185">
        <ele>577.9899292</ele>
        <time>2021-10-17T10:28:48Z</time>
      </trkpt>
      <trkpt lat="43.14835" lon="1.05185">
        <ele>577.55993652</ele>
        <time>2021-10-17T10:28:49Z</time>
      </trkpt>
      <trkpt lat="43.14834" lon="1.05186">
        <ele>577.00994873</ele>
        <time>2021-10-17T10:28:50Z</time>
      </trkpt>
      <trkpt lat="43.14832" lon="1.05186">
        <ele>576.49993896</ele>
        <time>2021-10-17T10:28:51Z</time>
      </trkpt>
      <trkpt lat="43.14831" lon="1.05187">
        <ele>576.09991455</ele>
        <time>2021-10-17T10:28:52Z</time>
      </trkpt>
      <trkpt lat="43.14828" lon="1.05186">
        <ele>575.62994385</ele>
        <time>2021-10-17T10:28:53Z</time>
      </trkpt>
      <trkpt lat="43.14826" lon="1.05187">
        <ele>575.05993652</ele>
        <time>2021-10-17T10:28:54Z</time>
      </trkpt>
      <trkpt lat="43.14824" lon="1.05187">
        <ele>574.5199585</ele>
        <time>2021-10-17T10:28:55Z</time>
      </trkpt>
      <trkpt lat="43.14822" lon="1.05187">
        <ele>573.79998779</ele>
        <time>2021-10-17T10:28:56Z</time>
      </trkpt>
      <trkpt lat="43.14821" lon="1.05186">
        <ele>573.17999268</ele>
        <time>2021-10-17T10:28:57Z</time>
      </trkpt>
      <trkpt lat="43.14818" lon="1.05185">
        <ele>572.63000488</ele>
        <time>2021-10-17T10:28:58Z</time>
      </trkpt>
      <trkpt lat="43.14816" lon="1.05186">
        <ele>571.96002197</ele>
        <time>2021-10-17T10:28:59Z</time>
      </trkpt>
      <trkpt lat="43.14815" lon="1.05185">
        <ele>571.34002686</ele>
        <time>2021-10-17T10:29:00Z</time>
      </trkpt>
      <trkpt lat="43.14813" lon="1.05185">
        <ele>570.79003906</ele>
        <time>2021-10-17T10:29:01Z</time>
      </trkpt>
      <trkpt lat="43.14811" lon="1.05184">
        <ele>570.05004883</ele>
        <time>2021-10-17T10:29:02Z</time>
      </trkpt>
      <trkpt lat="43.1481" lon="1.05184">
        <ele>569.35003662</ele>
        <time>2021-10-17T10:29:03Z</time>
      </trkpt>
      <trkpt lat="43.14808" lon="1.05183">
        <ele>568.39001465</ele>
        <time>2021-10-17T10:29:04Z</time>
      </trkpt>
      <trkpt lat="43.14806" lon="1.05183">
        <ele>567.32000732</ele>
        <time>2021-10-17T10:29:05Z</time>
      </trkpt>
      <trkpt lat="43.14804" lon="1.05183">
        <ele>566.42999268</ele>
        <time>2021-10-17T10:29:06Z</time>
      </trkpt>
      <trkpt lat="43.14803" lon="1.05183">
        <ele>565.65997314</ele>
        <time>2021-10-17T10:29:07Z</time>
      </trkpt>
      <trkpt lat="43.14801" lon="1.05182">
        <ele>565.04998779</ele>
        <time>2021-10-17T10:29:08Z</time>
      </trkpt>
      <trkpt lat="43.14799" lon="1.05182">
        <ele>564.39996338</ele>
        <time>2021-10-17T10:29:09Z</time>
      </trkpt>
      <trkpt lat="43.14797" lon="1.05181">
        <ele>563.70996094</ele>
        <time>2021-10-17T10:29:10Z</time>
      </trkpt>
      <trkpt lat="43.14795" lon="1.0518">
        <ele>562.93994141</ele>
        <time>2021-10-17T10:29:11Z</time>
      </trkpt>
      <trkpt lat="43.14792" lon="1.0518">
        <ele>562.28991699</ele>
        <time>2021-10-17T10:29:12Z</time>
      </trkpt>
      <trkpt lat="43.1479" lon="1.05179">
        <ele>561.44989014</ele>
        <time>2021-10-17T10:29:13Z</time>
      </trkpt>
      <trkpt lat="43.14787" lon="1.05179">
        <ele>560.59991455</ele>
        <time>2021-10-17T10:29:14Z</time>
      </trkpt>
      <trkpt lat="43.14785" lon="1.05178">
        <ele>559.74993896</ele>
        <time>2021-10-17T10:29:15Z</time>
      </trkpt>
      <trkpt lat="43.14781" lon="1.05178">
        <ele>558.84991455</ele>
        <time>2021-10-17T10:29:16Z</time>
      </trkpt>
      <trkpt lat="43.14779" lon="1.05178">
        <ele>557.96990967</ele>
        <time>2021-10-17T10:29:17Z</time>
      </trkpt>
      <trkpt lat="43.14776" lon="1.05178">
        <ele>556.99993896</ele>
        <time>2021-10-17T10:29:18Z</time>
      </trkpt>
      <trkpt lat="43.14774" lon="1.05178">
        <ele>555.94995117</ele>
        <time>2021-10-17T10:29:19Z</time>
      </trkpt>
      <trkpt lat="43.14771" lon="1.05178">
        <ele>554.83996582</ele>
        <time>2021-10-17T10:29:20Z</time>
      </trkpt>
      <trkpt lat="43.14768" lon="1.05179">
        <ele>553.91998291</ele>
        <time>2021-10-17T10:29:21Z</time>
      </trkpt>
      <trkpt lat="43.14766" lon="1.05179">
        <ele>553.07000732</ele>
        <time>2021-10-17T10:29:22Z</time>
      </trkpt>
      <trkpt lat="43.14764" lon="1.05179">
        <ele>552.20001221</ele>
        <time>2021-10-17T10:29:23Z</time>
      </trkpt>
      <trkpt lat="43.14761" lon="1.05178">
        <ele>551.55999756</ele>
        <time>2021-10-17T10:29:24Z</time>
      </trkpt>
      <trkpt lat="43.14759" lon="1.05177">
        <ele>550.59997559</ele>
        <time>2021-10-17T10:29:25Z</time>
      </trkpt>
      <trkpt lat="43.14756" lon="1.05175">
        <ele>549.66998291</ele>
        <time>2021-10-17T10:29:26Z</time>
      </trkpt>
      <trkpt lat="43.14754" lon="1.05173">
        <ele>548.70001221</ele>
        <time>2021-10-17T10:29:27Z</time>
      </trkpt>
      <trkpt lat="43.14752" lon="1.0517">
        <ele>547.5</ele>
        <time>2021-10-17T10:29:28Z</time>
      </trkpt>
      <trkpt lat="43.14747" lon="1.05168">
        <ele>546.47998047</ele>
        <time>2021-10-17T10:29:29Z</time>
      </trkpt>
      <trkpt lat="43.14744" lon="1.05166">
        <ele>545.38995361</ele>
        <time>2021-10-17T10:29:30Z</time>
      </trkpt>
      <trkpt lat="43.14741" lon="1.05165">
        <ele>544.28997803</ele>
        <time>2021-10-17T10:29:31Z</time>
      </trkpt>
      <trkpt lat="43.14738" lon="1.05164">
        <ele>543.19995117</ele>
        <time>2021-10-17T10:29:32Z</time>
      </trkpt>
      <trkpt lat="43.14736" lon="1.05163">
        <ele>542.38995361</ele>
        <time>2021-10-17T10:29:33Z</time>
      </trkpt>
      <trkpt lat="43.14732" lon="1.05164">
        <ele>541.77996826</ele>
        <time>2021-10-17T10:29:34Z</time>
      </trkpt>
      <trkpt lat="43.14729" lon="1.05167">
        <ele>541.18994141</ele>
        <time>2021-10-17T10:29:35Z</time>
      </trkpt>
      <trkpt lat="43.14727" lon="1.05171">
        <ele>540.59991455</ele>
        <time>2021-10-17T10:29:36Z</time>
      </trkpt>
      <trkpt lat="43.14726" lon="1.05175">
        <ele>539.96990967</ele>
        <time>2021-10-17T10:29:37Z</time>
      </trkpt>
      <trkpt lat="43.14723" lon="1.05182">
        <ele>539.30993652</ele>
        <time>2021-10-17T10:29:38Z</time>
      </trkpt>
      <trkpt lat="43.14721" lon="1.05185">
        <ele>538.7399292</ele>
        <time>2021-10-17T10:29:39Z</time>
      </trkpt>
      <trkpt lat="43.14718" lon="1.05188">
        <ele>538.33990479</ele>
        <time>2021-10-17T10:29:40Z</time>
      </trkpt>
      <trkpt lat="43.14714" lon="1.05191">
        <ele>537.78991699</ele>
        <time>2021-10-17T10:29:41Z</time>
      </trkpt>
      <trkpt lat="43.14708" lon="1.05195">
        <ele>537.16992188</ele>
        <time>2021-10-17T10:29:42Z</time>
      </trkpt>
      <trkpt lat="43.14705" lon="1.05197">
        <ele>536.29992676</ele>
        <time>2021-10-17T10:29:43Z</time>
      </trkpt>
      <trkpt lat="43.14701" lon="1.052">
        <ele>535.32995605</ele>
        <time>2021-10-17T10:29:44Z</time>
      </trkpt>
      <trkpt lat="43.14698" lon="1.05205">
        <ele>534.5199585</ele>
        <time>2021-10-17T10:29:45Z</time>
      </trkpt>
      <trkpt lat="43.14694" lon="1.05211">
        <ele>533.4699707</ele>
        <time>2021-10-17T10:29:46Z</time>
      </trkpt>
      <trkpt lat="43.14687" lon="1.05219">
        <ele>532.4699707</ele>
        <time>2021-10-17T10:29:47Z</time>
      </trkpt>
      <trkpt lat="43.14683" lon="1.05224">
        <ele>531.4699707</ele>
        <time>2021-10-17T10:29:48Z</time>
      </trkpt>
      <trkpt lat="43.14678" lon="1.05229">
        <ele>530.37994385</ele>
        <time>2021-10-17T10:29:49Z</time>
      </trkpt>
      <trkpt lat="43.14673" lon="1.05235">
        <ele>529.36993408</ele>
        <time>2021-10-17T10:29:50Z</time>
      </trkpt>
      <trkpt lat="43.14667" lon="1.05244">
        <ele>528.7699585</ele>
        <time>2021-10-17T10:29:51Z</time>
      </trkpt>
      <trkpt lat="43.14664" lon="1.0525">
        <ele>527.94995117</ele>
        <time>2021-10-17T10:29:52Z</time>
      </trkpt>
      <trkpt lat="43.1466" lon="1.05255">
        <ele>527.24993896</ele>
        <time>2021-10-17T10:29:53Z</time>
      </trkpt>
      <trkpt lat="43.14657" lon="1.0526">
        <ele>527.15991211</ele>
        <time>2021-10-17T10:29:54Z</time>
      </trkpt>
      <trkpt lat="43.14654" lon="1.05264">
        <ele>526.89990234</ele>
        <time>2021-10-17T10:29:55Z</time>
      </trkpt>
      <trkpt lat="43.14651" lon="1.05269">
        <ele>527.06988525</ele>
        <time>2021-10-17T10:29:56Z</time>
      </trkpt>
      <trkpt lat="43.14647" lon="1.05277">
        <ele>527.01989746</ele>
        <time>2021-10-17T10:29:57Z</time>
      </trkpt>
      <trkpt lat="43.14645" lon="1.05284">
        <ele>526.46990967</ele>
        <time>2021-10-17T10:29:58Z</time>
      </trkpt>
      <trkpt lat="43.14643" lon="1.0529">
        <ele>525.86993408</ele>
        <time>2021-10-17T10:29:59Z</time>
      </trkpt>
      <trkpt lat="43.14639" lon="1.053">
        <ele>525.34991455</ele>
        <time>2021-10-17T10:30:00Z</time>
      </trkpt>
      <trkpt lat="43.14636" lon="1.05305">
        <ele>524.81988525</ele>
        <time>2021-10-17T10:30:01Z</time>
      </trkpt>
      <trkpt lat="43.14633" lon="1.0531">
        <ele>524.5098877</ele>
        <time>2021-10-17T10:30:02Z</time>
      </trkpt>
      <trkpt lat="43.14629" lon="1.05315">
        <ele>524.36987305</ele>
        <time>2021-10-17T10:30:03Z</time>
      </trkpt>
      <trkpt lat="43.14626" lon="1.05319">
        <ele>523.98986816</ele>
        <time>2021-10-17T10:30:04Z</time>
      </trkpt>
      <trkpt lat="43.14622" lon="1.05325">
        <ele>523.87988281</ele>
        <time>2021-10-17T10:30:05Z</time>
      </trkpt>
      <trkpt lat="43.1462" lon="1.05331">
        <ele>523.54986572</ele>
        <time>2021-10-17T10:30:06Z</time>
      </trkpt>
      <trkpt lat="43.14618" lon="1.05336">
        <ele>523.31988525</ele>
        <time>2021-10-17T10:30:07Z</time>
      </trkpt>
      <trkpt lat="43.14615" lon="1.05341">
        <ele>522.67987061</ele>
        <time>2021-10-17T10:30:08Z</time>
      </trkpt>
      <trkpt lat="43.14613" lon="1.05345">
        <ele>522.26989746</ele>
        <time>2021-10-17T10:30:09Z</time>
      </trkpt>
      <trkpt lat="43.14608" lon="1.05352">
        <ele>521.58990479</ele>
        <time>2021-10-17T10:30:10Z</time>
      </trkpt>
      <trkpt lat="43.14606" lon="1.05355">
        <ele>520.76989746</ele>
        <time>2021-10-17T10:30:11Z</time>
      </trkpt>
      <trkpt lat="43.14603" lon="1.05358">
        <ele>520.42987061</ele>
        <time>2021-10-17T10:30:12Z</time>
      </trkpt>
      <trkpt lat="43.14601" lon="1.0536">
        <ele>519.7298584</ele>
        <time>2021-10-17T10:30:13Z</time>
      </trkpt>
      <trkpt lat="43.14596" lon="1.0536">
        <ele>519.13983154</ele>
        <time>2021-10-17T10:30:14Z</time>
      </trkpt>
      <trkpt lat="43.14593" lon="1.0536">
        <ele>518.43981934</ele>
        <time>2021-10-17T10:30:15Z</time>
      </trkpt>
      <trkpt lat="43.14591" lon="1.05358">
        <ele>517.67980957</ele>
        <time>2021-10-17T10:30:16Z</time>
      </trkpt>
      <trkpt lat="43.14588" lon="1.05357">
        <ele>516.72979736</ele>
        <time>2021-10-17T10:30:17Z</time>
      </trkpt>
      <trkpt lat="43.14584" lon="1.05357">
        <ele>515.97979736</ele>
        <time>2021-10-17T10:30:18Z</time>
      </trkpt>
      <trkpt lat="43.1458" lon="1.05359">
        <ele>515.47979736</ele>
        <time>2021-10-17T10:30:19Z</time>
      </trkpt>
      <trkpt lat="43.14578" lon="1.05361">
        <ele>514.77978516</ele>
        <time>2021-10-17T10:30:20Z</time>
      </trkpt>
      <trkpt lat="43.14575" lon="1.05366">
        <ele>514.08978271</ele>
        <time>2021-10-17T10:30:21Z</time>
      </trkpt>
      <trkpt lat="43.14573" lon="1.05372">
        <ele>513.20977783</ele>
        <time>2021-10-17T10:30:22Z</time>
      </trkpt>
      <trkpt lat="43.1457" lon="1.05382">
        <ele>511.72976685</ele>
        <time>2021-10-17T10:30:23Z</time>
      </trkpt>
      <trkpt lat="43.14569" lon="1.05388">
        <ele>510.30975342</ele>
        <time>2021-10-17T10:30:24Z</time>
      </trkpt>
      <trkpt lat="43.14567" lon="1.05395">
        <ele>509.25976562</ele>
        <time>2021-10-17T10:30:25Z</time>
      </trkpt>
      <trkpt lat="43.14565" lon="1.05401">
        <ele>508.49975586</ele>
        <time>2021-10-17T10:30:26Z</time>
      </trkpt>
      <trkpt lat="43.14563" lon="1.05408">
        <ele>507.79974365</ele>
        <time>2021-10-17T10:30:27Z</time>
      </trkpt>
      <trkpt lat="43.14561" lon="1.05417">
        <ele>507.24975586</ele>
        <time>2021-10-17T10:30:28Z</time>
      </trkpt>
      <trkpt lat="43.14559" lon="1.05424">
        <ele>506.24975586</ele>
        <time>2021-10-17T10:30:29Z</time>
      </trkpt>
      <trkpt lat="43.14558" lon="1.05431">
        <ele>505.21975708</ele>
        <time>2021-10-17T10:30:30Z</time>
      </trkpt>
      <trkpt lat="43.14556" lon="1.05437">
        <ele>504.32974243</ele>
        <time>2021-10-17T10:30:31Z</time>
      </trkpt>
      <trkpt lat="43.14554" lon="1.05446">
        <ele>503.20974731</ele>
        <time>2021-10-17T10:30:32Z</time>
      </trkpt>
      <trkpt lat="43.14553" lon="1.05452">
        <ele>502.42974854</ele>
        <time>2021-10-17T10:30:33Z</time>
      </trkpt>
      <trkpt lat="43.14552" lon="1.05458">
        <ele>501.35974121</ele>
        <time>2021-10-17T10:30:34Z</time>
      </trkpt>
      <trkpt lat="43.14551" lon="1.05464">
        <ele>500.20974731</ele>
        <time>2021-10-17T10:30:35Z</time>
      </trkpt>
      <trkpt lat="43.14549" lon="1.0547">
        <ele>499.31973267</ele>
        <time>2021-10-17T10:30:36Z</time>
      </trkpt>
      <trkpt lat="43.14546" lon="1.0548">
        <ele>498.12973022</ele>
        <time>2021-10-17T10:30:37Z</time>
      </trkpt>
      <trkpt lat="43.14545" lon="1.05487">
        <ele>497.03973389</ele>
        <time>2021-10-17T10:30:38Z</time>
      </trkpt>
      <trkpt lat="43.14543" lon="1.05492">
        <ele>496.28973389</ele>
        <time>2021-10-17T10:30:39Z</time>
      </trkpt>
      <trkpt lat="43.14542" lon="1.05497">
        <ele>495.43972778</ele>
        <time>2021-10-17T10:30:40Z</time>
      </trkpt>
      <trkpt lat="43.14541" lon="1.05501">
        <ele>494.57974243</ele>
        <time>2021-10-17T10:30:41Z</time>
      </trkpt>
      <trkpt lat="43.14538" lon="1.05509">
        <ele>494.04974365</ele>
        <time>2021-10-17T10:30:42Z</time>
      </trkpt>
      <trkpt lat="43.14536" lon="1.05513">
        <ele>492.909729</ele>
        <time>2021-10-17T10:30:43Z</time>
      </trkpt>
      <trkpt lat="43.14534" lon="1.05518">
        <ele>491.94973755</ele>
        <time>2021-10-17T10:30:44Z</time>
      </trkpt>
      <trkpt lat="43.14531" lon="1.05524">
        <ele>491.21972656</ele>
        <time>2021-10-17T10:30:45Z</time>
      </trkpt>
      <trkpt lat="43.14529" lon="1.05528">
        <ele>490.13973999</ele>
        <time>2021-10-17T10:30:46Z</time>
      </trkpt>
      <trkpt lat="43.14528" lon="1.05532">
        <ele>489.71972656</ele>
        <time>2021-10-17T10:30:47Z</time>
      </trkpt>
      <trkpt lat="43.14527" lon="1.05537">
        <ele>488.92971802</ele>
        <time>2021-10-17T10:30:48Z</time>
      </trkpt>
      <trkpt lat="43.14526" lon="1.05542">
        <ele>488.2097168</ele>
        <time>2021-10-17T10:30:49Z</time>
      </trkpt>
      <trkpt lat="43.14525" lon="1.05549">
        <ele>487.67971802</ele>
        <time>2021-10-17T10:30:50Z</time>
      </trkpt>
      <trkpt lat="43.14526" lon="1.05553">
        <ele>487.06973267</ele>
        <time>2021-10-17T10:30:51Z</time>
      </trkpt>
      <trkpt lat="43.14528" lon="1.05558">
        <ele>486.63973999</ele>
        <time>2021-10-17T10:30:52Z</time>
      </trkpt>
      <trkpt lat="43.14528" lon="1.05563">
        <ele>485.96972656</ele>
        <time>2021-10-17T10:30:53Z</time>
      </trkpt>
      <trkpt lat="43.14526" lon="1.0557">
        <ele>485.32971191</ele>
        <time>2021-10-17T10:30:54Z</time>
      </trkpt>
      <trkpt lat="43.14525" lon="1.05582">
        <ele>484.57971191</ele>
        <time>2021-10-17T10:30:55Z</time>
      </trkpt>
      <trkpt lat="43.14525" lon="1.05591">
        <ele>483.79971313</ele>
        <time>2021-10-17T10:30:56Z</time>
      </trkpt>
      <trkpt lat="43.14524" lon="1.056">
        <ele>483.19970703</ele>
        <time>2021-10-17T10:30:57Z</time>
      </trkpt>
      <trkpt lat="43.14524" lon="1.05609">
        <ele>482.61972046</ele>
        <time>2021-10-17T10:30:58Z</time>
      </trkpt>
      <trkpt lat="43.14523" lon="1.05619">
        <ele>482.08972168</ele>
        <time>2021-10-17T10:30:59Z</time>
      </trkpt>
      <trkpt lat="43.14521" lon="1.05625">
        <ele>481.39971924</ele>
        <time>2021-10-17T10:31:00Z</time>
      </trkpt>
      <trkpt lat="43.1452" lon="1.05629">
        <ele>480.89971924</ele>
        <time>2021-10-17T10:31:01Z</time>
      </trkpt>
      <trkpt lat="43.14519" lon="1.05632">
        <ele>480.57971191</ele>
        <time>2021-10-17T10:31:02Z</time>
      </trkpt>
      <trkpt lat="43.14519" lon="1.05634">
        <ele>480.34970093</ele>
        <time>2021-10-17T10:31:03Z</time>
      </trkpt>
      <trkpt lat="43.14518" lon="1.05634">
        <ele>480.55969238</ele>
        <time>2021-10-17T10:31:04Z</time>
      </trkpt>
      <trkpt lat="43.14518" lon="1.05634">
        <ele>480.70968628</ele>
        <time>2021-10-17T10:31:05Z</time>
      </trkpt>
      <trkpt lat="43.14513" lon="1.05642">
        <ele>479.88000488</ele>
        <time>2021-10-17T10:32:44Z</time>
      </trkpt>
      <trkpt lat="43.14513" lon="1.05643">
        <ele>479.8500061</ele>
        <time>2021-10-17T10:32:45Z</time>
      </trkpt>
      <trkpt lat="43.14512" lon="1.05645">
        <ele>479.82000732</ele>
        <time>2021-10-17T10:32:46Z</time>
      </trkpt>
      <trkpt lat="43.1451" lon="1.05648">
        <ele>479.71002197</ele>
        <time>2021-10-17T10:32:47Z</time>
      </trkpt>
      <trkpt lat="43.14509" lon="1.0565">
        <ele>479.67001343</ele>
        <time>2021-10-17T10:32:48Z</time>
      </trkpt>
      <trkpt lat="43.14507" lon="1.05652">
        <ele>479.57000732</ele>
        <time>2021-10-17T10:32:49Z</time>
      </trkpt>
      <trkpt lat="43.14506" lon="1.05655">
        <ele>479.46002197</ele>
        <time>2021-10-17T10:32:50Z</time>
      </trkpt>
      <trkpt lat="43.14504" lon="1.05657">
        <ele>479.41003418</ele>
        <time>2021-10-17T10:32:51Z</time>
      </trkpt>
      <trkpt lat="43.14501" lon="1.05662">
        <ele>479.29003906</ele>
        <time>2021-10-17T10:32:52Z</time>
      </trkpt>
      <trkpt lat="43.145" lon="1.05666">
        <ele>479.12002563</ele>
        <time>2021-10-17T10:32:53Z</time>
      </trkpt>
      <trkpt lat="43.14497" lon="1.05669">
        <ele>478.90002441</ele>
        <time>2021-10-17T10:32:54Z</time>
      </trkpt>
      <trkpt lat="43.14495" lon="1.05674">
        <ele>478.55001831</ele>
        <time>2021-10-17T10:32:55Z</time>
      </trkpt>
      <trkpt lat="43.14492" lon="1.05682">
        <ele>478.09002686</ele>
        <time>2021-10-17T10:32:56Z</time>
      </trkpt>
      <trkpt lat="43.14489" lon="1.05688">
        <ele>477.56002808</ele>
        <time>2021-10-17T10:32:57Z</time>
      </trkpt>
      <trkpt lat="43.14487" lon="1.05695">
        <ele>476.99002075</ele>
        <time>2021-10-17T10:32:58Z</time>
      </trkpt>
      <trkpt lat="43.14484" lon="1.05702">
        <ele>476.20001221</ele>
        <time>2021-10-17T10:32:59Z</time>
      </trkpt>
      <trkpt lat="43.14481" lon="1.0571">
        <ele>475.36001587</ele>
        <time>2021-10-17T10:33:00Z</time>
      </trkpt>
      <trkpt lat="43.14477" lon="1.05724">
        <ele>474.38000488</ele>
        <time>2021-10-17T10:33:01Z</time>
      </trkpt>
      <trkpt lat="43.14474" lon="1.05733">
        <ele>473.30999756</ele>
        <time>2021-10-17T10:33:02Z</time>
      </trkpt>
      <trkpt lat="43.14471" lon="1.05743">
        <ele>472.27999878</ele>
        <time>2021-10-17T10:33:03Z</time>
      </trkpt>
      <trkpt lat="43.14468" lon="1.05753">
        <ele>471.3500061</ele>
        <time>2021-10-17T10:33:04Z</time>
      </trkpt>
      <trkpt lat="43.14463" lon="1.05768">
        <ele>470.5</ele>
        <time>2021-10-17T10:33:05Z</time>
      </trkpt>
      <trkpt lat="43.1446" lon="1.05779">
        <ele>469.36999512</ele>
        <time>2021-10-17T10:33:06Z</time>
      </trkpt>
      <trkpt lat="43.14457" lon="1.0579">
        <ele>468.29998779</ele>
        <time>2021-10-17T10:33:07Z</time>
      </trkpt>
      <trkpt lat="43.14453" lon="1.05801">
        <ele>467.22998047</ele>
        <time>2021-10-17T10:33:08Z</time>
      </trkpt>
      <trkpt lat="43.14449" lon="1.05812">
        <ele>466.23999023</ele>
        <time>2021-10-17T10:33:09Z</time>
      </trkpt>
      <trkpt lat="43.14442" lon="1.05828">
        <ele>465.67999268</ele>
        <time>2021-10-17T10:33:10Z</time>
      </trkpt>
      <trkpt lat="43.14437" lon="1.05837">
        <ele>465.27999878</ele>
        <time>2021-10-17T10:33:11Z</time>
      </trkpt>
      <trkpt lat="43.14432" lon="1.05846">
        <ele>464.67999268</ele>
        <time>2021-10-17T10:33:12Z</time>
      </trkpt>
      <trkpt lat="43.14428" lon="1.05855">
        <ele>464.01998901</ele>
        <time>2021-10-17T10:33:13Z</time>
      </trkpt>
      <trkpt lat="43.1442" lon="1.05868">
        <ele>463.41000366</ele>
        <time>2021-10-17T10:33:14Z</time>
      </trkpt>
      <trkpt lat="43.14416" lon="1.05877">
        <ele>462.51000977</ele>
        <time>2021-10-17T10:33:15Z</time>
      </trkpt>
      <trkpt lat="43.1441" lon="1.05886">
        <ele>461.61999512</ele>
        <time>2021-10-17T10:33:16Z</time>
      </trkpt>
      <trkpt lat="43.14405" lon="1.05896">
        <ele>460.82998657</ele>
        <time>2021-10-17T10:33:17Z</time>
      </trkpt>
      <trkpt lat="43.14399" lon="1.05905">
        <ele>459.84997559</ele>
        <time>2021-10-17T10:33:18Z</time>
      </trkpt>
      <trkpt lat="43.14391" lon="1.0592">
        <ele>458.8699646</ele>
        <time>2021-10-17T10:33:19Z</time>
      </trkpt>
      <trkpt lat="43.14386" lon="1.05931">
        <ele>457.91995239</ele>
        <time>2021-10-17T10:33:20Z</time>
      </trkpt>
      <trkpt lat="43.14382" lon="1.05943">
        <ele>456.84994507</ele>
        <time>2021-10-17T10:33:21Z</time>
      </trkpt>
      <trkpt lat="43.14378" lon="1.05955">
        <ele>455.81994629</ele>
        <time>2021-10-17T10:33:22Z</time>
      </trkpt>
      <trkpt lat="43.14372" lon="1.05972">
        <ele>454.64993286</ele>
        <time>2021-10-17T10:33:23Z</time>
      </trkpt>
      <trkpt lat="43.14368" lon="1.05983">
        <ele>453.66992188</ele>
        <time>2021-10-17T10:33:24Z</time>
      </trkpt>
      <trkpt lat="43.14364" lon="1.05994">
        <ele>452.67993164</ele>
        <time>2021-10-17T10:33:25Z</time>
      </trkpt>
      <trkpt lat="43.14359" lon="1.06004">
        <ele>451.44992065</ele>
        <time>2021-10-17T10:33:26Z</time>
      </trkpt>
      <trkpt lat="43.14351" lon="1.06012">
        <ele>450.55990601</ele>
        <time>2021-10-17T10:33:27Z</time>
      </trkpt>
      <trkpt lat="43.14338" lon="1.06019">
        <ele>449.71990967</ele>
        <time>2021-10-17T10:33:28Z</time>
      </trkpt>
      <trkpt lat="43.14328" lon="1.0602">
        <ele>449.21990967</ele>
        <time>2021-10-17T10:33:29Z</time>
      </trkpt>
      <trkpt lat="43.14318" lon="1.0602">
        <ele>448.54989624</ele>
        <time>2021-10-17T10:33:30Z</time>
      </trkpt>
      <trkpt lat="43.14307" lon="1.06019">
        <ele>447.7598877</ele>
        <time>2021-10-17T10:33:31Z</time>
      </trkpt>
      <trkpt lat="43.14291" lon="1.06018">
        <ele>446.73989868</ele>
        <time>2021-10-17T10:33:32Z</time>
      </trkpt>
      <trkpt lat="43.14281" lon="1.06017">
        <ele>445.34988403</ele>
        <time>2021-10-17T10:33:33Z</time>
      </trkpt>
      <trkpt lat="43.14271" lon="1.06018">
        <ele>444.3598938</ele>
        <time>2021-10-17T10:33:34Z</time>
      </trkpt>
      <trkpt lat="43.14261" lon="1.06021">
        <ele>443.40988159</ele>
        <time>2021-10-17T10:33:35Z</time>
      </trkpt>
      <trkpt lat="43.14246" lon="1.0603">
        <ele>442.36987305</ele>
        <time>2021-10-17T10:33:36Z</time>
      </trkpt>
      <trkpt lat="43.14237" lon="1.06039">
        <ele>441.31988525</ele>
        <time>2021-10-17T10:33:37Z</time>
      </trkpt>
      <trkpt lat="43.14229" lon="1.06049">
        <ele>440.03988647</ele>
        <time>2021-10-17T10:33:38Z</time>
      </trkpt>
      <trkpt lat="43.14221" lon="1.0606">
        <ele>438.47988892</ele>
        <time>2021-10-17T10:33:39Z</time>
      </trkpt>
      <trkpt lat="43.14213" lon="1.06071">
        <ele>437.07989502</ele>
        <time>2021-10-17T10:33:40Z</time>
      </trkpt>
      <trkpt lat="43.14201" lon="1.06088">
        <ele>435.80990601</ele>
        <time>2021-10-17T10:33:41Z</time>
      </trkpt>
      <trkpt lat="43.14192" lon="1.06099">
        <ele>434.50991821</ele>
        <time>2021-10-17T10:33:42Z</time>
      </trkpt>
      <trkpt lat="43.14184" lon="1.06111">
        <ele>433.34991455</ele>
        <time>2021-10-17T10:33:43Z</time>
      </trkpt>
      <trkpt lat="43.14175" lon="1.06123">
        <ele>432.16992188</ele>
        <time>2021-10-17T10:33:44Z</time>
      </trkpt>
      <trkpt lat="43.14163" lon="1.0614">
        <ele>430.97991943</ele>
        <time>2021-10-17T10:33:45Z</time>
      </trkpt>
      <trkpt lat="43.14156" lon="1.0615">
        <ele>430.11993408</ele>
        <time>2021-10-17T10:33:46Z</time>
      </trkpt>
      <trkpt lat="43.14149" lon="1.06159">
        <ele>429.75994873</ele>
        <time>2021-10-17T10:33:47Z</time>
      </trkpt>
      <trkpt lat="43.14142" lon="1.06168">
        <ele>429.49993896</ele>
        <time>2021-10-17T10:33:48Z</time>
      </trkpt>
      <trkpt lat="43.14134" lon="1.06174">
        <ele>429.10992432</ele>
        <time>2021-10-17T10:33:49Z</time>
      </trkpt>
      <trkpt lat="43.14125" lon="1.06177">
        <ele>428.56991577</ele>
        <time>2021-10-17T10:33:50Z</time>
      </trkpt>
      <trkpt lat="43.14111" lon="1.06174">
        <ele>427.54992676</ele>
        <time>2021-10-17T10:33:51Z</time>
      </trkpt>
      <trkpt lat="43.14102" lon="1.06169">
        <ele>426.32992554</ele>
        <time>2021-10-17T10:33:52Z</time>
      </trkpt>
      <trkpt lat="43.14094" lon="1.0616">
        <ele>425.0899353</ele>
        <time>2021-10-17T10:33:53Z</time>
      </trkpt>
      <trkpt lat="43.14088" lon="1.0615">
        <ele>423.82992554</ele>
        <time>2021-10-17T10:33:54Z</time>
      </trkpt>
      <trkpt lat="43.14077" lon="1.06135">
        <ele>422.7399292</ele>
        <time>2021-10-17T10:33:55Z</time>
      </trkpt>
      <trkpt lat="43.1407" lon="1.06125">
        <ele>421.74993896</ele>
        <time>2021-10-17T10:33:56Z</time>
      </trkpt>
      <trkpt lat="43.14062" lon="1.06115">
        <ele>420.99993896</ele>
        <time>2021-10-17T10:33:57Z</time>
      </trkpt>
      <trkpt lat="43.14054" lon="1.06106">
        <ele>420.37994385</ele>
        <time>2021-10-17T10:33:58Z</time>
      </trkpt>
      <trkpt lat="43.14041" lon="1.06095">
        <ele>419.79995728</ele>
        <time>2021-10-17T10:33:59Z</time>
      </trkpt>
      <trkpt lat="43.1403" lon="1.06091">
        <ele>419.08996582</ele>
        <time>2021-10-17T10:34:00Z</time>
      </trkpt>
      <trkpt lat="43.1402" lon="1.0609">
        <ele>418.24996948</ele>
        <time>2021-10-17T10:34:01Z</time>
      </trkpt>
      <trkpt lat="43.14008" lon="1.06089">
        <ele>417.18997192</ele>
        <time>2021-10-17T10:34:02Z</time>
      </trkpt>
      <trkpt lat="43.13991" lon="1.06088">
        <ele>415.9699707</ele>
        <time>2021-10-17T10:34:03Z</time>
      </trkpt>
      <trkpt lat="43.13979" lon="1.06088">
        <ele>414.45996094</ele>
        <time>2021-10-17T10:34:04Z</time>
      </trkpt>
      <trkpt lat="43.13968" lon="1.06087">
        <ele>412.8699646</ele>
        <time>2021-10-17T10:34:05Z</time>
      </trkpt>
      <trkpt lat="43.13956" lon="1.06086">
        <ele>411.44995117</ele>
        <time>2021-10-17T10:34:06Z</time>
      </trkpt>
      <trkpt lat="43.13944" lon="1.06084">
        <ele>409.77993774</ele>
        <time>2021-10-17T10:34:07Z</time>
      </trkpt>
      <trkpt lat="43.13926" lon="1.06079">
        <ele>408.46994019</ele>
        <time>2021-10-17T10:34:08Z</time>
      </trkpt>
      <trkpt lat="43.13914" lon="1.06077">
        <ele>407.22994995</ele>
        <time>2021-10-17T10:34:09Z</time>
      </trkpt>
      <trkpt lat="43.13903" lon="1.06076">
        <ele>405.81994629</ele>
        <time>2021-10-17T10:34:10Z</time>
      </trkpt>
      <trkpt lat="43.1389" lon="1.06076">
        <ele>405.00994873</ele>
        <time>2021-10-17T10:34:11Z</time>
      </trkpt>
      <trkpt lat="43.13879" lon="1.06076">
        <ele>404.0899353</ele>
        <time>2021-10-17T10:34:12Z</time>
      </trkpt>
      <trkpt lat="43.13861" lon="1.06076">
        <ele>403.18994141</ele>
        <time>2021-10-17T10:34:13Z</time>
      </trkpt>
      <trkpt lat="43.13849" lon="1.06075">
        <ele>402.69995117</ele>
        <time>2021-10-17T10:34:14Z</time>
      </trkpt>
      <trkpt lat="43.1384" lon="1.06073">
        <ele>402.08996582</ele>
        <time>2021-10-17T10:34:15Z</time>
      </trkpt>
      <trkpt lat="43.1383" lon="1.06069">
        <ele>401.29995728</ele>
        <time>2021-10-17T10:34:16Z</time>
      </trkpt>
      <trkpt lat="43.13819" lon="1.06056">
        <ele>400.41995239</ele>
        <time>2021-10-17T10:34:17Z</time>
      </trkpt>
      <trkpt lat="43.13813" lon="1.06045">
        <ele>399.24993896</ele>
        <time>2021-10-17T10:34:18Z</time>
      </trkpt>
      <trkpt lat="43.13807" lon="1.06034">
        <ele>398.17993164</ele>
        <time>2021-10-17T10:34:19Z</time>
      </trkpt>
      <trkpt lat="43.13799" lon="1.06025">
        <ele>397.65994263</ele>
        <time>2021-10-17T10:34:20Z</time>
      </trkpt>
      <trkpt lat="43.13791" lon="1.06017">
        <ele>397.32995605</ele>
        <time>2021-10-17T10:34:21Z</time>
      </trkpt>
      <trkpt lat="43.13776" lon="1.06011">
        <ele>397.2199707</ele>
        <time>2021-10-17T10:34:22Z</time>
      </trkpt>
      <trkpt lat="43.13766" lon="1.06009">
        <ele>397.00997925</ele>
        <time>2021-10-17T10:34:23Z</time>
      </trkpt>
      <trkpt lat="43.13756" lon="1.0601">
        <ele>396.42999268</ele>
        <time>2021-10-17T10:34:24Z</time>
      </trkpt>
      <trkpt lat="43.13745" lon="1.06013">
        <ele>395.72000122</ele>
        <time>2021-10-17T10:34:25Z</time>
      </trkpt>
      <trkpt lat="43.1373" lon="1.06021">
        <ele>394.73001099</ele>
        <time>2021-10-17T10:34:26Z</time>
      </trkpt>
      <trkpt lat="43.1372" lon="1.06026">
        <ele>393.57000732</ele>
        <time>2021-10-17T10:34:27Z</time>
      </trkpt>
      <trkpt lat="43.13709" lon="1.06031">
        <ele>392.75</ele>
        <time>2021-10-17T10:34:28Z</time>
      </trkpt>
      <trkpt lat="43.13699" lon="1.06035">
        <ele>392.1000061</ele>
        <time>2021-10-17T10:34:29Z</time>
      </trkpt>
      <trkpt lat="43.13688" lon="1.06038">
        <ele>391.70999146</ele>
        <time>2021-10-17T10:34:30Z</time>
      </trkpt>
      <trkpt lat="43.13671" lon="1.06043">
        <ele>391.27999878</ele>
        <time>2021-10-17T10:34:31Z</time>
      </trkpt>
      <trkpt lat="43.13661" lon="1.06046">
        <ele>390.76998901</ele>
        <time>2021-10-17T10:34:32Z</time>
      </trkpt>
      <trkpt lat="43.1365" lon="1.0605">
        <ele>390.28997803</ele>
        <time>2021-10-17T10:34:33Z</time>
      </trkpt>
      <trkpt lat="43.1364" lon="1.06054">
        <ele>389.48999023</ele>
        <time>2021-10-17T10:34:34Z</time>
      </trkpt>
      <trkpt lat="43.13626" lon="1.06064">
        <ele>388.70999146</ele>
        <time>2021-10-17T10:34:35Z</time>
      </trkpt>
      <trkpt lat="43.13617" lon="1.0607">
        <ele>387.77999878</ele>
        <time>2021-10-17T10:34:36Z</time>
      </trkpt>
      <trkpt lat="43.13607" lon="1.06075">
        <ele>386.95001221</ele>
        <time>2021-10-17T10:34:37Z</time>
      </trkpt>
      <trkpt lat="43.13597" lon="1.06077">
        <ele>385.95001221</ele>
        <time>2021-10-17T10:34:38Z</time>
      </trkpt>
      <trkpt lat="43.13587" lon="1.06077">
        <ele>385.01000977</ele>
        <time>2021-10-17T10:34:39Z</time>
      </trkpt>
      <trkpt lat="43.13572" lon="1.06082">
        <ele>384.45001221</ele>
        <time>2021-10-17T10:34:40Z</time>
      </trkpt>
      <trkpt lat="43.13563" lon="1.06088">
        <ele>383.66000366</ele>
        <time>2021-10-17T10:34:41Z</time>
      </trkpt>
      <trkpt lat="43.13554" lon="1.06095">
        <ele>383.14001465</ele>
        <time>2021-10-17T10:34:42Z</time>
      </trkpt>
      <trkpt lat="43.13544" lon="1.06102">
        <ele>382.61001587</ele>
        <time>2021-10-17T10:34:43Z</time>
      </trkpt>
      <trkpt lat="43.13529" lon="1.06111">
        <ele>381.73001099</ele>
        <time>2021-10-17T10:34:44Z</time>
      </trkpt>
      <trkpt lat="43.13519" lon="1.06115">
        <ele>380.64001465</ele>
        <time>2021-10-17T10:34:45Z</time>
      </trkpt>
      <trkpt lat="43.13508" lon="1.06119">
        <ele>379.68002319</ele>
        <time>2021-10-17T10:34:46Z</time>
      </trkpt>
      <trkpt lat="43.13498" lon="1.06122">
        <ele>378.83001709</ele>
        <time>2021-10-17T10:34:47Z</time>
      </trkpt>
      <trkpt lat="43.13487" lon="1.06125">
        <ele>377.90002441</ele>
        <time>2021-10-17T10:34:48Z</time>
      </trkpt>
      <trkpt lat="43.13471" lon="1.06128">
        <ele>377.1300354</ele>
        <time>2021-10-17T10:34:49Z</time>
      </trkpt>
      <trkpt lat="43.13462" lon="1.06127">
        <ele>376.47003174</ele>
        <time>2021-10-17T10:34:50Z</time>
      </trkpt>
      <trkpt lat="43.13454" lon="1.06123">
        <ele>375.91003418</ele>
        <time>2021-10-17T10:34:51Z</time>
      </trkpt>
      <trkpt lat="43.13447" lon="1.06115">
        <ele>375.66003418</ele>
        <time>2021-10-17T10:34:52Z</time>
      </trkpt>
      <trkpt lat="43.1344" lon="1.06101">
        <ele>375.6300354</ele>
        <time>2021-10-17T10:34:53Z</time>
      </trkpt>
      <trkpt lat="43.13437" lon="1.0609">
        <ele>375.81002808</ele>
        <time>2021-10-17T10:34:54Z</time>
      </trkpt>
      <trkpt lat="43.13435" lon="1.0608">
        <ele>375.99002075</ele>
        <time>2021-10-17T10:34:55Z</time>
      </trkpt>
      <trkpt lat="43.13433" lon="1.0607">
        <ele>376.29000854</ele>
        <time>2021-10-17T10:34:56Z</time>
      </trkpt>
      <trkpt lat="43.1343" lon="1.06055">
        <ele>376.57000732</ele>
        <time>2021-10-17T10:34:57Z</time>
      </trkpt>
      <trkpt lat="43.13428" lon="1.06044">
        <ele>376.80001831</ele>
        <time>2021-10-17T10:34:58Z</time>
      </trkpt>
      <trkpt lat="43.13426" lon="1.06035">
        <ele>377.00003052</ele>
        <time>2021-10-17T10:34:59Z</time>
      </trkpt>
      <trkpt lat="43.13423" lon="1.06025">
        <ele>377.10003662</ele>
        <time>2021-10-17T10:35:00Z</time>
      </trkpt>
      <trkpt lat="43.1342" lon="1.06017">
        <ele>377.30004883</ele>
        <time>2021-10-17T10:35:01Z</time>
      </trkpt>
      <trkpt lat="43.13411" lon="1.06009">
        <ele>377.37005615</ele>
        <time>2021-10-17T10:35:02Z</time>
      </trkpt>
      <trkpt lat="43.13404" lon="1.06007">
        <ele>377.53005981</ele>
        <time>2021-10-17T10:35:03Z</time>
      </trkpt>
      <trkpt lat="43.13398" lon="1.06007">
        <ele>377.63006592</ele>
        <time>2021-10-17T10:35:04Z</time>
      </trkpt>
      <trkpt lat="43.13391" lon="1.06009">
        <ele>377.54006958</ele>
        <time>2021-10-17T10:35:05Z</time>
      </trkpt>
      <trkpt lat="43.13384" lon="1.0601">
        <ele>377.47006226</ele>
        <time>2021-10-17T10:35:06Z</time>
      </trkpt>
      <trkpt lat="43.13374" lon="1.06013">
        <ele>377.46005249</ele>
        <time>2021-10-17T10:35:07Z</time>
      </trkpt>
      <trkpt lat="43.13368" lon="1.06014">
        <ele>377.53005981</ele>
        <time>2021-10-17T10:35:08Z</time>
      </trkpt>
      <trkpt lat="43.13361" lon="1.06015">
        <ele>377.53005981</ele>
        <time>2021-10-17T10:35:09Z</time>
      </trkpt>
      <trkpt lat="43.13354" lon="1.06015">
        <ele>377.52005005</ele>
        <time>2021-10-17T10:35:10Z</time>
      </trkpt>
      <trkpt lat="43.13348" lon="1.06015">
        <ele>377.3800354</ele>
        <time>2021-10-17T10:35:11Z</time>
      </trkpt>
      <trkpt lat="43.13338" lon="1.06015">
        <ele>377.05004883</ele>
        <time>2021-10-17T10:35:12Z</time>
      </trkpt>
      <trkpt lat="43.13331" lon="1.06014">
        <ele>376.74005127</ele>
        <time>2021-10-17T10:35:13Z</time>
      </trkpt>
      <trkpt lat="43.13325" lon="1.06013">
        <ele>376.32003784</ele>
        <time>2021-10-17T10:35:14Z</time>
      </trkpt>
      <trkpt lat="43.13316" lon="1.06008">
        <ele>375.8800354</ele>
        <time>2021-10-17T10:35:15Z</time>
      </trkpt>
      <trkpt lat="43.13311" lon="1.06003">
        <ele>375.57003784</ele>
        <time>2021-10-17T10:35:16Z</time>
      </trkpt>
      <trkpt lat="43.13306" lon="1.05998">
        <ele>375.59002686</ele>
        <time>2021-10-17T10:35:17Z</time>
      </trkpt>
      <trkpt lat="43.13302" lon="1.05993">
        <ele>375.65002441</ele>
        <time>2021-10-17T10:35:18Z</time>
      </trkpt>
      <trkpt lat="43.13298" lon="1.05987">
        <ele>375.83001709</ele>
        <time>2021-10-17T10:35:19Z</time>
      </trkpt>
      <trkpt lat="43.13294" lon="1.05978">
        <ele>376.01000977</ele>
        <time>2021-10-17T10:35:20Z</time>
      </trkpt>
      <trkpt lat="43.1329" lon="1.05972">
        <ele>376</ele>
        <time>2021-10-17T10:35:21Z</time>
      </trkpt>
      <trkpt lat="43.13287" lon="1.05967">
        <ele>376.01998901</ele>
        <time>2021-10-17T10:35:22Z</time>
      </trkpt>
      <trkpt lat="43.13284" lon="1.05962">
        <ele>376.04998779</ele>
        <time>2021-10-17T10:35:23Z</time>
      </trkpt>
      <trkpt lat="43.1328" lon="1.05959">
        <ele>376.17999268</ele>
        <time>2021-10-17T10:35:24Z</time>
      </trkpt>
      <trkpt lat="43.13272" lon="1.05957">
        <ele>376.32998657</ele>
        <time>2021-10-17T10:35:25Z</time>
      </trkpt>
      <trkpt lat="43.13267" lon="1.05957">
        <ele>376.41998291</ele>
        <time>2021-10-17T10:35:26Z</time>
      </trkpt>
      <trkpt lat="43.13263" lon="1.05959">
        <ele>376.41998291</ele>
        <time>2021-10-17T10:35:27Z</time>
      </trkpt>
      <trkpt lat="43.13258" lon="1.05961">
        <ele>376.27996826</ele>
        <time>2021-10-17T10:35:28Z</time>
      </trkpt>
      <trkpt lat="43.13251" lon="1.05966">
        <ele>376.02996826</ele>
        <time>2021-10-17T10:35:29Z</time>
      </trkpt>
      <trkpt lat="43.13246" lon="1.05969">
        <ele>375.85995483</ele>
        <time>2021-10-17T10:35:30Z</time>
      </trkpt>
      <trkpt lat="43.13241" lon="1.05971">
        <ele>375.69995117</ele>
        <time>2021-10-17T10:35:31Z</time>
      </trkpt>
      <trkpt lat="43.13236" lon="1.05973">
        <ele>375.55993652</ele>
        <time>2021-10-17T10:35:32Z</time>
      </trkpt>
      <trkpt lat="43.1323" lon="1.05973">
        <ele>375.47994995</ele>
        <time>2021-10-17T10:35:33Z</time>
      </trkpt>
      <trkpt lat="43.13221" lon="1.05973">
        <ele>375.20996094</ele>
        <time>2021-10-17T10:35:34Z</time>
      </trkpt>
      <trkpt lat="43.13216" lon="1.05972">
        <ele>374.90997314</ele>
        <time>2021-10-17T10:35:35Z</time>
      </trkpt>
      <trkpt lat="43.1321" lon="1.05972">
        <ele>374.82998657</ele>
        <time>2021-10-17T10:35:36Z</time>
      </trkpt>
      <trkpt lat="43.13205" lon="1.05972">
        <ele>374.81997681</ele>
        <time>2021-10-17T10:35:37Z</time>
      </trkpt>
      <trkpt lat="43.132" lon="1.05972">
        <ele>374.92996216</ele>
        <time>2021-10-17T10:35:38Z</time>
      </trkpt>
      <trkpt lat="43.13193" lon="1.05973">
        <ele>375.05996704</ele>
        <time>2021-10-17T10:35:39Z</time>
      </trkpt>
      <trkpt lat="43.13188" lon="1.05974">
        <ele>375.06997681</ele>
        <time>2021-10-17T10:35:40Z</time>
      </trkpt>
      <trkpt lat="43.13183" lon="1.05976">
        <ele>374.98999023</ele>
        <time>2021-10-17T10:35:41Z</time>
      </trkpt>
      <trkpt lat="43.13177" lon="1.05978">
        <ele>374.82998657</ele>
        <time>2021-10-17T10:35:42Z</time>
      </trkpt>
      <trkpt lat="43.13169" lon="1.05981">
        <ele>374.55999756</ele>
        <time>2021-10-17T10:35:43Z</time>
      </trkpt>
      <trkpt lat="43.13164" lon="1.05983">
        <ele>374.13998413</ele>
        <time>2021-10-17T10:35:44Z</time>
      </trkpt>
      <trkpt lat="43.13159" lon="1.05986">
        <ele>373.85998535</ele>
        <time>2021-10-17T10:35:45Z</time>
      </trkpt>
      <trkpt lat="43.13155" lon="1.0599">
        <ele>373.66998291</ele>
        <time>2021-10-17T10:35:46Z</time>
      </trkpt>
      <trkpt lat="43.13148" lon="1.05997">
        <ele>373.43997192</ele>
        <time>2021-10-17T10:35:47Z</time>
      </trkpt>
      <trkpt lat="43.13143" lon="1.06003">
        <ele>373.24996948</ele>
        <time>2021-10-17T10:35:48Z</time>
      </trkpt>
      <trkpt lat="43.13139" lon="1.06009">
        <ele>372.90997314</ele>
        <time>2021-10-17T10:35:49Z</time>
      </trkpt>
      <trkpt lat="43.13135" lon="1.06015">
        <ele>372.58996582</ele>
        <time>2021-10-17T10:35:50Z</time>
      </trkpt>
      <trkpt lat="43.13131" lon="1.06022">
        <ele>372.30996704</ele>
        <time>2021-10-17T10:35:51Z</time>
      </trkpt>
      <trkpt lat="43.13125" lon="1.06031">
        <ele>372.08996582</ele>
        <time>2021-10-17T10:35:52Z</time>
      </trkpt>
      <trkpt lat="43.1312" lon="1.06036">
        <ele>371.95996094</ele>
        <time>2021-10-17T10:35:53Z</time>
      </trkpt>
      <trkpt lat="43.13116" lon="1.06043">
        <ele>371.80996704</ele>
        <time>2021-10-17T10:35:54Z</time>
      </trkpt>
      <trkpt lat="43.13112" lon="1.06049">
        <ele>371.66995239</ele>
        <time>2021-10-17T10:35:55Z</time>
      </trkpt>
      <trkpt lat="43.13106" lon="1.06056">
        <ele>371.54995728</ele>
        <time>2021-10-17T10:35:56Z</time>
      </trkpt>
      <trkpt lat="43.131" lon="1.06059">
        <ele>371.24996948</ele>
        <time>2021-10-17T10:35:57Z</time>
      </trkpt>
      <trkpt lat="43.13094" lon="1.0606">
        <ele>370.92996216</ele>
        <time>2021-10-17T10:35:58Z</time>
      </trkpt>
      <trkpt lat="43.13088" lon="1.0606">
        <ele>370.58996582</ele>
        <time>2021-10-17T10:35:59Z</time>
      </trkpt>
      <trkpt lat="43.13078" lon="1.06059">
        <ele>370.19995117</ele>
        <time>2021-10-17T10:36:00Z</time>
      </trkpt>
      <trkpt lat="43.13071" lon="1.06057">
        <ele>369.63995361</ele>
        <time>2021-10-17T10:36:01Z</time>
      </trkpt>
      <trkpt lat="43.13065" lon="1.06054">
        <ele>368.88995361</ele>
        <time>2021-10-17T10:36:02Z</time>
      </trkpt>
      <trkpt lat="43.13058" lon="1.06052">
        <ele>368.44995117</ele>
        <time>2021-10-17T10:36:03Z</time>
      </trkpt>
      <trkpt lat="43.13051" lon="1.06049">
        <ele>368.13995361</ele>
        <time>2021-10-17T10:36:04Z</time>
      </trkpt>
      <trkpt lat="43.13041" lon="1.06045">
        <ele>368.07995605</ele>
        <time>2021-10-17T10:36:05Z</time>
      </trkpt>
      <trkpt lat="43.13034" lon="1.06043">
        <ele>368.17996216</ele>
        <time>2021-10-17T10:36:06Z</time>
      </trkpt>
      <trkpt lat="43.13028" lon="1.0604">
        <ele>368.17996216</ele>
        <time>2021-10-17T10:36:07Z</time>
      </trkpt>
      <trkpt lat="43.13022" lon="1.06038">
        <ele>368.1199646</ele>
        <time>2021-10-17T10:36:08Z</time>
      </trkpt>
      <trkpt lat="43.13016" lon="1.06036">
        <ele>368.12997437</ele>
        <time>2021-10-17T10:36:09Z</time>
      </trkpt>
      <trkpt lat="43.13008" lon="1.06035">
        <ele>368.12997437</ele>
        <time>2021-10-17T10:36:10Z</time>
      </trkpt>
      <trkpt lat="43.13002" lon="1.06036">
        <ele>368.10998535</ele>
        <time>2021-10-17T10:36:11Z</time>
      </trkpt>
      <trkpt lat="43.12998" lon="1.06038">
        <ele>368.12997437</ele>
        <time>2021-10-17T10:36:12Z</time>
      </trkpt>
      <trkpt lat="43.12994" lon="1.06042">
        <ele>368.27996826</ele>
        <time>2021-10-17T10:36:13Z</time>
      </trkpt>
      <trkpt lat="43.12989" lon="1.06047">
        <ele>368.60995483</ele>
        <time>2021-10-17T10:36:14Z</time>
      </trkpt>
      <trkpt lat="43.12987" lon="1.06051">
        <ele>368.95996094</ele>
        <time>2021-10-17T10:36:15Z</time>
      </trkpt>
      <trkpt lat="43.12986" lon="1.06051">
        <ele>368.20001221</ele>
        <time>2021-10-17T10:36:15Z</time>
      </trkpt>
      <trkpt lat="43.12984" lon="1.06056">
        <ele>368.20001221</ele>
        <time>2021-10-17T10:36:16Z</time>
      </trkpt>
      <trkpt lat="43.12981" lon="1.06062">
        <ele>368.92001343</ele>
        <time>2021-10-17T10:36:17Z</time>
      </trkpt>
      <trkpt lat="43.12979" lon="1.06067">
        <ele>369.17001343</ele>
        <time>2021-10-17T10:36:18Z</time>
      </trkpt>
      <trkpt lat="43.12976" lon="1.06076">
        <ele>369.38000488</ele>
        <time>2021-10-17T10:36:19Z</time>
      </trkpt>
      <trkpt lat="43.12974" lon="1.06081">
        <ele>369.45999146</ele>
        <time>2021-10-17T10:36:20Z</time>
      </trkpt>
      <trkpt lat="43.12972" lon="1.06086">
        <ele>369.47000122</ele>
        <time>2021-10-17T10:36:21Z</time>
      </trkpt>
      <trkpt lat="43.1297" lon="1.06091">
        <ele>369.6000061</ele>
        <time>2021-10-17T10:36:22Z</time>
      </trkpt>
      <trkpt lat="43.12967" lon="1.06099">
        <ele>369.77999878</ele>
        <time>2021-10-17T10:36:23Z</time>
      </trkpt>
      <trkpt lat="43.12965" lon="1.06104">
        <ele>370.11999512</ele>
        <time>2021-10-17T10:36:24Z</time>
      </trkpt>
      <trkpt lat="43.12963" lon="1.06109">
        <ele>370.44998169</ele>
        <time>2021-10-17T10:36:25Z</time>
      </trkpt>
      <trkpt lat="43.12962" lon="1.06114">
        <ele>370.72998047</ele>
        <time>2021-10-17T10:36:26Z</time>
      </trkpt>
      <trkpt lat="43.12959" lon="1.06121">
        <ele>370.99996948</ele>
        <time>2021-10-17T10:36:27Z</time>
      </trkpt>
      <trkpt lat="43.12957" lon="1.06127">
        <ele>371.23995972</ele>
        <time>2021-10-17T10:36:28Z</time>
      </trkpt>
      <trkpt lat="43.12955" lon="1.06132">
        <ele>371.43997192</ele>
        <time>2021-10-17T10:36:29Z</time>
      </trkpt>
      <trkpt lat="43.12953" lon="1.06137">
        <ele>371.70996094</ele>
        <time>2021-10-17T10:36:30Z</time>
      </trkpt>
      <trkpt lat="43.12951" lon="1.06143">
        <ele>371.92996216</ele>
        <time>2021-10-17T10:36:31Z</time>
      </trkpt>
      <trkpt lat="43.12949" lon="1.06151">
        <ele>372.1199646</ele>
        <time>2021-10-17T10:36:32Z</time>
      </trkpt>
      <trkpt lat="43.12947" lon="1.06156">
        <ele>372.32995605</ele>
        <time>2021-10-17T10:36:33Z</time>
      </trkpt>
      <trkpt lat="43.12946" lon="1.06161">
        <ele>372.41995239</ele>
        <time>2021-10-17T10:36:34Z</time>
      </trkpt>
      <trkpt lat="43.12944" lon="1.06166">
        <ele>372.57995605</ele>
        <time>2021-10-17T10:36:35Z</time>
      </trkpt>
      <trkpt lat="43.12942" lon="1.06171">
        <ele>372.72994995</ele>
        <time>2021-10-17T10:36:36Z</time>
      </trkpt>
      <trkpt lat="43.1294" lon="1.06178">
        <ele>372.92996216</ele>
        <time>2021-10-17T10:36:37Z</time>
      </trkpt>
      <trkpt lat="43.12939" lon="1.06183">
        <ele>373.17996216</ele>
        <time>2021-10-17T10:36:38Z</time>
      </trkpt>
      <trkpt lat="43.12938" lon="1.06188">
        <ele>373.44995117</ele>
        <time>2021-10-17T10:36:39Z</time>
      </trkpt>
      <trkpt lat="43.12937" lon="1.06192">
        <ele>373.78994751</ele>
        <time>2021-10-17T10:36:40Z</time>
      </trkpt>
      <trkpt lat="43.12935" lon="1.06199">
        <ele>374.00994873</ele>
        <time>2021-10-17T10:36:41Z</time>
      </trkpt>
      <trkpt lat="43.12933" lon="1.06203">
        <ele>374.2699585</ele>
        <time>2021-10-17T10:36:42Z</time>
      </trkpt>
      <trkpt lat="43.12931" lon="1.06207">
        <ele>374.52996826</ele>
        <time>2021-10-17T10:36:43Z</time>
      </trkpt>
      <trkpt lat="43.1293" lon="1.06212">
        <ele>374.7199707</ele>
        <time>2021-10-17T10:36:44Z</time>
      </trkpt>
      <trkpt lat="43.12929" lon="1.06217">
        <ele>374.95996094</ele>
        <time>2021-10-17T10:36:45Z</time>
      </trkpt>
      <trkpt lat="43.12926" lon="1.06224">
        <ele>375.15997314</ele>
        <time>2021-10-17T10:36:46Z</time>
      </trkpt>
      <trkpt lat="43.12925" lon="1.06228">
        <ele>375.35998535</ele>
        <time>2021-10-17T10:36:47Z</time>
      </trkpt>
      <trkpt lat="43.12923" lon="1.06233">
        <ele>375.60998535</ele>
        <time>2021-10-17T10:36:48Z</time>
      </trkpt>
      <trkpt lat="43.12921" lon="1.06237">
        <ele>375.93997192</ele>
        <time>2021-10-17T10:36:49Z</time>
      </trkpt>
      <trkpt lat="43.12919" lon="1.06241">
        <ele>376.33996582</ele>
        <time>2021-10-17T10:36:50Z</time>
      </trkpt>
      <trkpt lat="43.12916" lon="1.06247">
        <ele>376.68997192</ele>
        <time>2021-10-17T10:36:51Z</time>
      </trkpt>
      <trkpt lat="43.12915" lon="1.06251">
        <ele>377.0199585</ele>
        <time>2021-10-17T10:36:52Z</time>
      </trkpt>
      <trkpt lat="43.12914" lon="1.06255">
        <ele>377.29995728</ele>
        <time>2021-10-17T10:36:53Z</time>
      </trkpt>
      <trkpt lat="43.12912" lon="1.06259">
        <ele>377.54995728</ele>
        <time>2021-10-17T10:36:54Z</time>
      </trkpt>
      <trkpt lat="43.1291" lon="1.06265">
        <ele>377.78994751</ele>
        <time>2021-10-17T10:36:55Z</time>
      </trkpt>
      <trkpt lat="43.12909" lon="1.06269">
        <ele>378.00994873</ele>
        <time>2021-10-17T10:36:56Z</time>
      </trkpt>
      <trkpt lat="43.12907" lon="1.06272">
        <ele>378.18994141</ele>
        <time>2021-10-17T10:36:57Z</time>
      </trkpt>
      <trkpt lat="43.12906" lon="1.06276">
        <ele>378.34994507</ele>
        <time>2021-10-17T10:36:58Z</time>
      </trkpt>
      <trkpt lat="43.12904" lon="1.06281">
        <ele>378.48995972</ele>
        <time>2021-10-17T10:36:59Z</time>
      </trkpt>
      <trkpt lat="43.12902" lon="1.06285">
        <ele>378.57995605</ele>
        <time>2021-10-17T10:37:00Z</time>
      </trkpt>
      <trkpt lat="43.12901" lon="1.06289">
        <ele>378.64996338</ele>
        <time>2021-10-17T10:37:01Z</time>
      </trkpt>
      <trkpt lat="43.12899" lon="1.06294">
        <ele>378.58996582</ele>
        <time>2021-10-17T10:37:02Z</time>
      </trkpt>
      <trkpt lat="43.12898" lon="1.06298">
        <ele>378.52996826</ele>
        <time>2021-10-17T10:37:03Z</time>
      </trkpt>
      <trkpt lat="43.12896" lon="1.06305">
        <ele>378.5199585</ele>
        <time>2021-10-17T10:37:04Z</time>
      </trkpt>
      <trkpt lat="43.12895" lon="1.06309">
        <ele>378.45996094</ele>
        <time>2021-10-17T10:37:05Z</time>
      </trkpt>
      <trkpt lat="43.12894" lon="1.06314">
        <ele>378.49996948</ele>
        <time>2021-10-17T10:37:06Z</time>
      </trkpt>
      <trkpt lat="43.12894" lon="1.06319">
        <ele>378.52996826</ele>
        <time>2021-10-17T10:37:07Z</time>
      </trkpt>
      <trkpt lat="43.12893" lon="1.06327">
        <ele>378.49996948</ele>
        <time>2021-10-17T10:37:08Z</time>
      </trkpt>
      <trkpt lat="43.12893" lon="1.06332">
        <ele>378.52996826</ele>
        <time>2021-10-17T10:37:09Z</time>
      </trkpt>
      <trkpt lat="43.12893" lon="1.06338">
        <ele>378.50997925</ele>
        <time>2021-10-17T10:37:10Z</time>
      </trkpt>
      <trkpt lat="43.12892" lon="1.06343">
        <ele>378.48999023</ele>
        <time>2021-10-17T10:37:11Z</time>
      </trkpt>
      <trkpt lat="43.12892" lon="1.06348">
        <ele>378.50997925</ele>
        <time>2021-10-17T10:37:12Z</time>
      </trkpt>
      <trkpt lat="43.12892" lon="1.06356">
        <ele>378.50997925</ele>
        <time>2021-10-17T10:37:13Z</time>
      </trkpt>
      <trkpt lat="43.12892" lon="1.06361">
        <ele>378.50997925</ele>
        <time>2021-10-17T10:37:14Z</time>
      </trkpt>
      <trkpt lat="43.12892" lon="1.06366">
        <ele>378.51998901</ele>
        <time>2021-10-17T10:37:15Z</time>
      </trkpt>
      <trkpt lat="43.12891" lon="1.06372">
        <ele>378.45999146</ele>
        <time>2021-10-17T10:37:16Z</time>
      </trkpt>
      <trkpt lat="43.12891" lon="1.0638">
        <ele>378.28997803</ele>
        <time>2021-10-17T10:37:17Z</time>
      </trkpt>
      <trkpt lat="43.12891" lon="1.06386">
        <ele>378.16998291</ele>
        <time>2021-10-17T10:37:18Z</time>
      </trkpt>
      <trkpt lat="43.12891" lon="1.06391">
        <ele>378.13998413</ele>
        <time>2021-10-17T10:37:19Z</time>
      </trkpt>
      <trkpt lat="43.1289" lon="1.06397">
        <ele>378.16998291</ele>
        <time>2021-10-17T10:37:20Z</time>
      </trkpt>
      <trkpt lat="43.12891" lon="1.06402">
        <ele>378.24996948</ele>
        <time>2021-10-17T10:37:21Z</time>
      </trkpt>
      <trkpt lat="43.12891" lon="1.0641">
        <ele>378.25997925</ele>
        <time>2021-10-17T10:37:22Z</time>
      </trkpt>
      <trkpt lat="43.12892" lon="1.06416">
        <ele>378.15997314</ele>
        <time>2021-10-17T10:37:23Z</time>
      </trkpt>
      <trkpt lat="43.12892" lon="1.06422">
        <ele>378.00997925</ele>
        <time>2021-10-17T10:37:24Z</time>
      </trkpt>
      <trkpt lat="43.12892" lon="1.06428">
        <ele>377.80996704</ele>
        <time>2021-10-17T10:37:25Z</time>
      </trkpt>
      <trkpt lat="43.12891" lon="1.06438">
        <ele>377.58996582</ele>
        <time>2021-10-17T10:37:26Z</time>
      </trkpt>
      <trkpt lat="43.12891" lon="1.06444">
        <ele>377.40997314</ele>
        <time>2021-10-17T10:37:27Z</time>
      </trkpt>
      <trkpt lat="43.12891" lon="1.06451">
        <ele>377.29998779</ele>
        <time>2021-10-17T10:37:28Z</time>
      </trkpt>
      <trkpt lat="43.12891" lon="1.06458">
        <ele>377.20999146</ele>
        <time>2021-10-17T10:37:29Z</time>
      </trkpt>
      <trkpt lat="43.12891" lon="1.06465">
        <ele>377.19998169</ele>
        <time>2021-10-17T10:37:30Z</time>
      </trkpt>
      <trkpt lat="43.12891" lon="1.06476">
        <ele>377.11999512</ele>
        <time>2021-10-17T10:37:31Z</time>
      </trkpt>
      <trkpt lat="43.12891" lon="1.06483">
        <ele>376.91998291</ele>
        <time>2021-10-17T10:37:32Z</time>
      </trkpt>
      <trkpt lat="43.1289" lon="1.06491">
        <ele>376.75997925</ele>
        <time>2021-10-17T10:37:33Z</time>
      </trkpt>
      <trkpt lat="43.1289" lon="1.06498">
        <ele>376.67999268</ele>
        <time>2021-10-17T10:37:34Z</time>
      </trkpt>
      <trkpt lat="43.12889" lon="1.06509">
        <ele>376.72998047</ele>
        <time>2021-10-17T10:37:35Z</time>
      </trkpt>
      <trkpt lat="43.12888" lon="1.06516">
        <ele>376.84997559</ele>
        <time>2021-10-17T10:37:36Z</time>
      </trkpt>
      <trkpt lat="43.12888" lon="1.06523">
        <ele>376.98999023</ele>
        <time>2021-10-17T10:37:37Z</time>
      </trkpt>
      <trkpt lat="43.12887" lon="1.0653">
        <ele>377.03997803</ele>
        <time>2021-10-17T10:37:38Z</time>
      </trkpt>
      <trkpt lat="43.12886" lon="1.06536">
        <ele>377.00997925</ele>
        <time>2021-10-17T10:37:39Z</time>
      </trkpt>
      <trkpt lat="43.12885" lon="1.06546">
        <ele>377.05996704</ele>
        <time>2021-10-17T10:37:40Z</time>
      </trkpt>
      <trkpt lat="43.12884" lon="1.06552">
        <ele>377.15997314</ele>
        <time>2021-10-17T10:37:41Z</time>
      </trkpt>
      <trkpt lat="43.12882" lon="1.06558">
        <ele>377.23995972</ele>
        <time>2021-10-17T10:37:42Z</time>
      </trkpt>
      <trkpt lat="43.12881" lon="1.06564">
        <ele>377.3699646</ele>
        <time>2021-10-17T10:37:43Z</time>
      </trkpt>
      <trkpt lat="43.1288" lon="1.06572">
        <ele>377.45996094</ele>
        <time>2021-10-17T10:37:44Z</time>
      </trkpt>
      <trkpt lat="43.12878" lon="1.06578">
        <ele>377.53994751</ele>
        <time>2021-10-17T10:37:45Z</time>
      </trkpt>
      <trkpt lat="43.12877" lon="1.06584">
        <ele>377.67996216</ele>
        <time>2021-10-17T10:37:46Z</time>
      </trkpt>
      <trkpt lat="43.12876" lon="1.0659">
        <ele>377.78994751</ele>
        <time>2021-10-17T10:37:47Z</time>
      </trkpt>
      <trkpt lat="43.12874" lon="1.06595">
        <ele>377.81994629</ele>
        <time>2021-10-17T10:37:48Z</time>
      </trkpt>
      <trkpt lat="43.12872" lon="1.06604">
        <ele>377.85995483</ele>
        <time>2021-10-17T10:37:49Z</time>
      </trkpt>
      <trkpt lat="43.1287" lon="1.0661">
        <ele>377.7699585</ele>
        <time>2021-10-17T10:37:50Z</time>
      </trkpt>
      <trkpt lat="43.12869" lon="1.06616">
        <ele>377.72994995</ele>
        <time>2021-10-17T10:37:51Z</time>
      </trkpt>
      <trkpt lat="43.12867" lon="1.06622">
        <ele>377.67996216</ele>
        <time>2021-10-17T10:37:52Z</time>
      </trkpt>
      <trkpt lat="43.12864" lon="1.06631">
        <ele>377.65997314</ele>
        <time>2021-10-17T10:37:53Z</time>
      </trkpt>
      <trkpt lat="43.12862" lon="1.06638">
        <ele>377.80996704</ele>
        <time>2021-10-17T10:37:54Z</time>
      </trkpt>
      <trkpt lat="43.1286" lon="1.06644">
        <ele>377.88995361</ele>
        <time>2021-10-17T10:37:55Z</time>
      </trkpt>
      <trkpt lat="43.12858" lon="1.0665">
        <ele>378.0199585</ele>
        <time>2021-10-17T10:37:56Z</time>
      </trkpt>
      <trkpt lat="43.12856" lon="1.06656">
        <ele>378.07995605</ele>
        <time>2021-10-17T10:37:57Z</time>
      </trkpt>
      <trkpt lat="43.12853" lon="1.06665">
        <ele>378.19995117</ele>
        <time>2021-10-17T10:37:58Z</time>
      </trkpt>
      <trkpt lat="43.12852" lon="1.06671">
        <ele>378.38995361</ele>
        <time>2021-10-17T10:37:59Z</time>
      </trkpt>
      <trkpt lat="43.1285" lon="1.06677">
        <ele>378.60995483</ele>
        <time>2021-10-17T10:38:00Z</time>
      </trkpt>
      <trkpt lat="43.12848" lon="1.06683">
        <ele>378.78994751</ele>
        <time>2021-10-17T10:38:01Z</time>
      </trkpt>
      <trkpt lat="43.12846" lon="1.06692">
        <ele>378.70996094</ele>
        <time>2021-10-17T10:38:02Z</time>
      </trkpt>
      <trkpt lat="43.12844" lon="1.06698">
        <ele>378.68997192</ele>
        <time>2021-10-17T10:38:03Z</time>
      </trkpt>
      <trkpt lat="43.12842" lon="1.06703">
        <ele>378.65997314</ele>
        <time>2021-10-17T10:38:04Z</time>
      </trkpt>
      <trkpt lat="43.12841" lon="1.06709">
        <ele>378.75997925</ele>
        <time>2021-10-17T10:38:05Z</time>
      </trkpt>
      <trkpt lat="43.12839" lon="1.06715">
        <ele>378.97998047</ele>
        <time>2021-10-17T10:38:06Z</time>
      </trkpt>
      <trkpt lat="43.12837" lon="1.06724">
        <ele>379.05996704</ele>
        <time>2021-10-17T10:38:07Z</time>
      </trkpt>
      <trkpt lat="43.12835" lon="1.0673">
        <ele>379.00997925</ele>
        <time>2021-10-17T10:38:08Z</time>
      </trkpt>
      <trkpt lat="43.12834" lon="1.06736">
        <ele>378.97998047</ele>
        <time>2021-10-17T10:38:09Z</time>
      </trkpt>
      <trkpt lat="43.12832" lon="1.06742">
        <ele>378.97998047</ele>
        <time>2021-10-17T10:38:10Z</time>
      </trkpt>
      <trkpt lat="43.1283" lon="1.06751">
        <ele>379.05996704</ele>
        <time>2021-10-17T10:38:11Z</time>
      </trkpt>
      <trkpt lat="43.12829" lon="1.06757">
        <ele>379.2199707</ele>
        <time>2021-10-17T10:38:12Z</time>
      </trkpt>
      <trkpt lat="43.12828" lon="1.06763">
        <ele>379.27996826</ele>
        <time>2021-10-17T10:38:13Z</time>
      </trkpt>
      <trkpt lat="43.12827" lon="1.0677">
        <ele>379.30996704</ele>
        <time>2021-10-17T10:38:14Z</time>
      </trkpt>
      <trkpt lat="43.12826" lon="1.06779">
        <ele>379.30996704</ele>
        <time>2021-10-17T10:38:15Z</time>
      </trkpt>
      <trkpt lat="43.12826" lon="1.06786">
        <ele>379.38995361</ele>
        <time>2021-10-17T10:38:16Z</time>
      </trkpt>
      <trkpt lat="43.12826" lon="1.06792">
        <ele>379.49993896</ele>
        <time>2021-10-17T10:38:17Z</time>
      </trkpt>
      <trkpt lat="43.12826" lon="1.06798">
        <ele>379.63995361</ele>
        <time>2021-10-17T10:38:18Z</time>
      </trkpt>
      <trkpt lat="43.12826" lon="1.06804">
        <ele>379.83996582</ele>
        <time>2021-10-17T10:38:19Z</time>
      </trkpt>
      <trkpt lat="43.12827" lon="1.0681">
        <ele>380.00997925</ele>
        <time>2021-10-17T10:38:20Z</time>
      </trkpt>
      <trkpt lat="43.12827" lon="1.0682">
        <ele>380.16998291</ele>
        <time>2021-10-17T10:38:21Z</time>
      </trkpt>
      <trkpt lat="43.12828" lon="1.06826">
        <ele>380.23999023</ele>
        <time>2021-10-17T10:38:22Z</time>
      </trkpt>
      <trkpt lat="43.12828" lon="1.06832">
        <ele>380.20999146</ele>
        <time>2021-10-17T10:38:23Z</time>
      </trkpt>
      <trkpt lat="43.12828" lon="1.06838">
        <ele>380.16998291</ele>
        <time>2021-10-17T10:38:24Z</time>
      </trkpt>
      <trkpt lat="43.12829" lon="1.06848">
        <ele>380.13998413</ele>
        <time>2021-10-17T10:38:25Z</time>
      </trkpt>
      <trkpt lat="43.12828" lon="1.06854">
        <ele>380.22998047</ele>
        <time>2021-10-17T10:38:26Z</time>
      </trkpt>
      <trkpt lat="43.12827" lon="1.0686">
        <ele>380.23999023</ele>
        <time>2021-10-17T10:38:27Z</time>
      </trkpt>
      <trkpt lat="43.12826" lon="1.06867">
        <ele>380.17999268</ele>
        <time>2021-10-17T10:38:28Z</time>
      </trkpt>
      <trkpt lat="43.12824" lon="1.06876">
        <ele>380.07000732</ele>
        <time>2021-10-17T10:38:29Z</time>
      </trkpt>
      <trkpt lat="43.12823" lon="1.06882">
        <ele>379.92001343</ele>
        <time>2021-10-17T10:38:30Z</time>
      </trkpt>
      <trkpt lat="43.12821" lon="1.06888">
        <ele>379.89001465</ele>
        <time>2021-10-17T10:38:31Z</time>
      </trkpt>
      <trkpt lat="43.12819" lon="1.06895">
        <ele>380.01000977</ele>
        <time>2021-10-17T10:38:32Z</time>
      </trkpt>
      <trkpt lat="43.12817" lon="1.06901">
        <ele>380.26000977</ele>
        <time>2021-10-17T10:38:33Z</time>
      </trkpt>
      <trkpt lat="43.12814" lon="1.06909">
        <ele>380.45001221</ele>
        <time>2021-10-17T10:38:34Z</time>
      </trkpt>
      <trkpt lat="43.12813" lon="1.06915">
        <ele>380.72000122</ele>
        <time>2021-10-17T10:38:35Z</time>
      </trkpt>
      <trkpt lat="43.12811" lon="1.06921">
        <ele>380.83999634</ele>
        <time>2021-10-17T10:38:36Z</time>
      </trkpt>
      <trkpt lat="43.12808" lon="1.06926">
        <ele>380.91000366</ele>
        <time>2021-10-17T10:38:37Z</time>
      </trkpt>
      <trkpt lat="43.12805" lon="1.06934">
        <ele>381.04000854</ele>
        <time>2021-10-17T10:38:38Z</time>
      </trkpt>
      <trkpt lat="43.12803" lon="1.0694">
        <ele>381.11001587</ele>
        <time>2021-10-17T10:38:39Z</time>
      </trkpt>
      <trkpt lat="43.12802" lon="1.06946">
        <ele>381.21002197</ele>
        <time>2021-10-17T10:38:40Z</time>
      </trkpt>
      <trkpt lat="43.128" lon="1.06951">
        <ele>381.30001831</ele>
        <time>2021-10-17T10:38:41Z</time>
      </trkpt>
      <trkpt lat="43.12798" lon="1.06956">
        <ele>381.27001953</ele>
        <time>2021-10-17T10:38:42Z</time>
      </trkpt>
      <trkpt lat="43.12796" lon="1.06964">
        <ele>381.26000977</ele>
        <time>2021-10-17T10:38:43Z</time>
      </trkpt>
      <trkpt lat="43.12794" lon="1.06969">
        <ele>381.26000977</ele>
        <time>2021-10-17T10:38:44Z</time>
      </trkpt>
      <trkpt lat="43.12793" lon="1.06974">
        <ele>381.27001953</ele>
        <time>2021-10-17T10:38:45Z</time>
      </trkpt>
      <trkpt lat="43.12791" lon="1.06979">
        <ele>381.24002075</ele>
        <time>2021-10-17T10:38:46Z</time>
      </trkpt>
      <trkpt lat="43.12788" lon="1.06986">
        <ele>381.20001221</ele>
        <time>2021-10-17T10:38:47Z</time>
      </trkpt>
      <trkpt lat="43.12786" lon="1.0699">
        <ele>381.27999878</ele>
        <time>2021-10-17T10:38:48Z</time>
      </trkpt>
      <trkpt lat="43.12785" lon="1.06995">
        <ele>381.3500061</ele>
        <time>2021-10-17T10:38:49Z</time>
      </trkpt>
      <trkpt lat="43.12783" lon="1.07">
        <ele>381.52001953</ele>
        <time>2021-10-17T10:38:50Z</time>
      </trkpt>
      <trkpt lat="43.12781" lon="1.07007">
        <ele>381.67001343</ele>
        <time>2021-10-17T10:38:51Z</time>
      </trkpt>
      <trkpt lat="43.12779" lon="1.07012">
        <ele>381.68002319</ele>
        <time>2021-10-17T10:38:52Z</time>
      </trkpt>
      <trkpt lat="43.12777" lon="1.07016">
        <ele>381.65002441</ele>
        <time>2021-10-17T10:38:53Z</time>
      </trkpt>
      <trkpt lat="43.12776" lon="1.07021">
        <ele>381.72003174</ele>
        <time>2021-10-17T10:38:54Z</time>
      </trkpt>
      <trkpt lat="43.12774" lon="1.07025">
        <ele>381.7800293</ele>
        <time>2021-10-17T10:38:55Z</time>
      </trkpt>
      <trkpt lat="43.12771" lon="1.07032">
        <ele>381.83001709</ele>
        <time>2021-10-17T10:38:56Z</time>
      </trkpt>
      <trkpt lat="43.1277" lon="1.07037">
        <ele>381.83001709</ele>
        <time>2021-10-17T10:38:57Z</time>
      </trkpt>
      <trkpt lat="43.12768" lon="1.07041">
        <ele>381.70001221</ele>
        <time>2021-10-17T10:38:58Z</time>
      </trkpt>
      <trkpt lat="43.12767" lon="1.07046">
        <ele>381.61001587</ele>
        <time>2021-10-17T10:38:59Z</time>
      </trkpt>
      <trkpt lat="43.12765" lon="1.0705">
        <ele>381.57000732</ele>
        <time>2021-10-17T10:39:00Z</time>
      </trkpt>
      <trkpt lat="43.12763" lon="1.07057">
        <ele>381.63000488</ele>
        <time>2021-10-17T10:39:01Z</time>
      </trkpt>
      <trkpt lat="43.12762" lon="1.07061">
        <ele>381.76000977</ele>
        <time>2021-10-17T10:39:02Z</time>
      </trkpt>
      <trkpt lat="43.1276" lon="1.07065">
        <ele>381.92001343</ele>
        <time>2021-10-17T10:39:03Z</time>
      </trkpt>
      <trkpt lat="43.12759" lon="1.0707">
        <ele>382.12002563</ele>
        <time>2021-10-17T10:39:04Z</time>
      </trkpt>
      <trkpt lat="43.12757" lon="1.07077">
        <ele>382.25003052</ele>
        <time>2021-10-17T10:39:05Z</time>
      </trkpt>
      <trkpt lat="43.12755" lon="1.07081">
        <ele>382.33001709</ele>
        <time>2021-10-17T10:39:06Z</time>
      </trkpt>
      <trkpt lat="43.12753" lon="1.07086">
        <ele>382.32000732</ele>
        <time>2021-10-17T10:39:07Z</time>
      </trkpt>
      <trkpt lat="43.12751" lon="1.0709">
        <ele>382.30001831</ele>
        <time>2021-10-17T10:39:08Z</time>
      </trkpt>
      <trkpt lat="43.12748" lon="1.07095">
        <ele>382.39001465</ele>
        <time>2021-10-17T10:39:09Z</time>
      </trkpt>
      <trkpt lat="43.12745" lon="1.07103">
        <ele>382.48001099</ele>
        <time>2021-10-17T10:39:10Z</time>
      </trkpt>
      <trkpt lat="43.12743" lon="1.07108">
        <ele>382.58001709</ele>
        <time>2021-10-17T10:39:11Z</time>
      </trkpt>
      <trkpt lat="43.12741" lon="1.07114">
        <ele>382.70001221</ele>
        <time>2021-10-17T10:39:12Z</time>
      </trkpt>
      <trkpt lat="43.12739" lon="1.07119">
        <ele>382.71002197</ele>
        <time>2021-10-17T10:39:13Z</time>
      </trkpt>
      <trkpt lat="43.12736" lon="1.07127">
        <ele>382.81002808</ele>
        <time>2021-10-17T10:39:14Z</time>
      </trkpt>
      <trkpt lat="43.12734" lon="1.07132">
        <ele>383.02001953</ele>
        <time>2021-10-17T10:39:15Z</time>
      </trkpt>
      <trkpt lat="43.12733" lon="1.07137">
        <ele>383.30001831</ele>
        <time>2021-10-17T10:39:16Z</time>
      </trkpt>
      <trkpt lat="43.12732" lon="1.07141">
        <ele>383.64001465</ele>
        <time>2021-10-17T10:39:17Z</time>
      </trkpt>
      <trkpt lat="43.1273" lon="1.07145">
        <ele>383.96002197</ele>
        <time>2021-10-17T10:39:18Z</time>
      </trkpt>
      <trkpt lat="43.12727" lon="1.07152">
        <ele>384.29000854</ele>
        <time>2021-10-17T10:39:19Z</time>
      </trkpt>
      <trkpt lat="43.12726" lon="1.07156">
        <ele>384.5</ele>
        <time>2021-10-17T10:39:20Z</time>
      </trkpt>
      <trkpt lat="43.12724" lon="1.07161">
        <ele>384.73001099</ele>
        <time>2021-10-17T10:39:21Z</time>
      </trkpt>
      <trkpt lat="43.12723" lon="1.07166">
        <ele>384.97000122</ele>
        <time>2021-10-17T10:39:22Z</time>
      </trkpt>
      <trkpt lat="43.1272" lon="1.07173">
        <ele>385.11001587</ele>
        <time>2021-10-17T10:39:23Z</time>
      </trkpt>
      <trkpt lat="43.12719" lon="1.07178">
        <ele>385.36001587</ele>
        <time>2021-10-17T10:39:24Z</time>
      </trkpt>
      <trkpt lat="43.12717" lon="1.07182">
        <ele>385.58001709</ele>
        <time>2021-10-17T10:39:25Z</time>
      </trkpt>
      <trkpt lat="43.12716" lon="1.07186">
        <ele>385.76000977</ele>
        <time>2021-10-17T10:39:26Z</time>
      </trkpt>
      <trkpt lat="43.12714" lon="1.0719">
        <ele>385.95001221</ele>
        <time>2021-10-17T10:39:27Z</time>
      </trkpt>
      <trkpt lat="43.12712" lon="1.07196">
        <ele>386.15002441</ele>
        <time>2021-10-17T10:39:28Z</time>
      </trkpt>
      <trkpt lat="43.1271" lon="1.07201">
        <ele>386.35003662</ele>
        <time>2021-10-17T10:39:29Z</time>
      </trkpt>
      <trkpt lat="43.12708" lon="1.07205">
        <ele>386.58004761</ele>
        <time>2021-10-17T10:39:30Z</time>
      </trkpt>
      <trkpt lat="43.12706" lon="1.07211">
        <ele>386.83004761</ele>
        <time>2021-10-17T10:39:31Z</time>
      </trkpt>
      <trkpt lat="43.12704" lon="1.07216">
        <ele>387.07003784</ele>
        <time>2021-10-17T10:39:32Z</time>
      </trkpt>
      <trkpt lat="43.12702" lon="1.07223">
        <ele>387.3800354</ele>
        <time>2021-10-17T10:39:33Z</time>
      </trkpt>
      <trkpt lat="43.127" lon="1.07228">
        <ele>387.66003418</ele>
        <time>2021-10-17T10:39:34Z</time>
      </trkpt>
      <trkpt lat="43.12699" lon="1.07232">
        <ele>387.94003296</ele>
        <time>2021-10-17T10:39:35Z</time>
      </trkpt>
      <trkpt lat="43.12697" lon="1.07237">
        <ele>388.21002197</ele>
        <time>2021-10-17T10:39:36Z</time>
      </trkpt>
      <trkpt lat="43.12695" lon="1.07244">
        <ele>388.42001343</ele>
        <time>2021-10-17T10:39:37Z</time>
      </trkpt>
      <trkpt lat="43.12694" lon="1.07248">
        <ele>388.67001343</ele>
        <time>2021-10-17T10:39:38Z</time>
      </trkpt>
      <trkpt lat="43.12692" lon="1.07253">
        <ele>388.91000366</ele>
        <time>2021-10-17T10:39:39Z</time>
      </trkpt>
      <trkpt lat="43.12691" lon="1.07257">
        <ele>389.1499939</ele>
        <time>2021-10-17T10:39:40Z</time>
      </trkpt>
      <trkpt lat="43.12688" lon="1.07264">
        <ele>389.38000488</ele>
        <time>2021-10-17T10:39:41Z</time>
      </trkpt>
      <trkpt lat="43.12686" lon="1.07268">
        <ele>389.6000061</ele>
        <time>2021-10-17T10:39:42Z</time>
      </trkpt>
      <trkpt lat="43.12684" lon="1.07273">
        <ele>389.83001709</ele>
        <time>2021-10-17T10:39:43Z</time>
      </trkpt>
      <trkpt lat="43.12683" lon="1.07278">
        <ele>390.01000977</ele>
        <time>2021-10-17T10:39:44Z</time>
      </trkpt>
      <trkpt lat="43.12681" lon="1.07282">
        <ele>390.21002197</ele>
        <time>2021-10-17T10:39:45Z</time>
      </trkpt>
      <trkpt lat="43.12678" lon="1.0729">
        <ele>390.42001343</ele>
        <time>2021-10-17T10:39:46Z</time>
      </trkpt>
      <trkpt lat="43.12676" lon="1.07294">
        <ele>390.62002563</ele>
        <time>2021-10-17T10:39:47Z</time>
      </trkpt>
      <trkpt lat="43.12674" lon="1.07299">
        <ele>390.85003662</ele>
        <time>2021-10-17T10:39:48Z</time>
      </trkpt>
      <trkpt lat="43.12672" lon="1.07304">
        <ele>391.07003784</ele>
        <time>2021-10-17T10:39:49Z</time>
      </trkpt>
      <trkpt lat="43.1267" lon="1.07311">
        <ele>391.27005005</ele>
        <time>2021-10-17T10:39:50Z</time>
      </trkpt>
      <trkpt lat="43.12669" lon="1.07316">
        <ele>391.50006104</ele>
        <time>2021-10-17T10:39:51Z</time>
      </trkpt>
      <trkpt lat="43.12667" lon="1.07321">
        <ele>391.74005127</ele>
        <time>2021-10-17T10:39:52Z</time>
      </trkpt>
      <trkpt lat="43.12665" lon="1.07326">
        <ele>391.92004395</ele>
        <time>2021-10-17T10:39:53Z</time>
      </trkpt>
      <trkpt lat="43.12663" lon="1.07331">
        <ele>392.12005615</ele>
        <time>2021-10-17T10:39:54Z</time>
      </trkpt>
      <trkpt lat="43.12661" lon="1.07338">
        <ele>392.2300415</ele>
        <time>2021-10-17T10:39:55Z</time>
      </trkpt>
      <trkpt lat="43.12659" lon="1.07343">
        <ele>392.31002808</ele>
        <time>2021-10-17T10:39:56Z</time>
      </trkpt>
      <trkpt lat="43.12657" lon="1.07348">
        <ele>392.43002319</ele>
        <time>2021-10-17T10:39:57Z</time>
      </trkpt>
      <trkpt lat="43.12656" lon="1.07352">
        <ele>392.52001953</ele>
        <time>2021-10-17T10:39:58Z</time>
      </trkpt>
      <trkpt lat="43.12653" lon="1.07359">
        <ele>392.68002319</ele>
        <time>2021-10-17T10:39:59Z</time>
      </trkpt>
      <trkpt lat="43.12651" lon="1.07363">
        <ele>392.79000854</ele>
        <time>2021-10-17T10:40:00Z</time>
      </trkpt>
      <trkpt lat="43.12649" lon="1.07368">
        <ele>392.88000488</ele>
        <time>2021-10-17T10:40:01Z</time>
      </trkpt>
      <trkpt lat="43.12648" lon="1.07373">
        <ele>392.95999146</ele>
        <time>2021-10-17T10:40:02Z</time>
      </trkpt>
      <trkpt lat="43.12646" lon="1.07378">
        <ele>393.00997925</ele>
        <time>2021-10-17T10:40:03Z</time>
      </trkpt>
      <trkpt lat="43.12644" lon="1.07386">
        <ele>393.08996582</ele>
        <time>2021-10-17T10:40:04Z</time>
      </trkpt>
      <trkpt lat="43.12642" lon="1.0739">
        <ele>393.16995239</ele>
        <time>2021-10-17T10:40:05Z</time>
      </trkpt>
      <trkpt lat="43.12641" lon="1.07395">
        <ele>393.27993774</ele>
        <time>2021-10-17T10:40:06Z</time>
      </trkpt>
      <trkpt lat="43.12639" lon="1.07399">
        <ele>393.37994385</ele>
        <time>2021-10-17T10:40:07Z</time>
      </trkpt>
      <trkpt lat="43.12636" lon="1.07406">
        <ele>393.50994873</ele>
        <time>2021-10-17T10:40:08Z</time>
      </trkpt>
      <trkpt lat="43.12634" lon="1.0741">
        <ele>393.69995117</ele>
        <time>2021-10-17T10:40:09Z</time>
      </trkpt>
      <trkpt lat="43.12632" lon="1.07415">
        <ele>393.8699646</ele>
        <time>2021-10-17T10:40:10Z</time>
      </trkpt>
      <trkpt lat="43.12631" lon="1.0742">
        <ele>394.02996826</ele>
        <time>2021-10-17T10:40:11Z</time>
      </trkpt>
      <trkpt lat="43.12628" lon="1.07424">
        <ele>394.16998291</ele>
        <time>2021-10-17T10:40:12Z</time>
      </trkpt>
      <trkpt lat="43.12625" lon="1.07431">
        <ele>394.27996826</ele>
        <time>2021-10-17T10:40:13Z</time>
      </trkpt>
      <trkpt lat="43.12623" lon="1.07436">
        <ele>394.40997314</ele>
        <time>2021-10-17T10:40:14Z</time>
      </trkpt>
      <trkpt lat="43.12621" lon="1.07441">
        <ele>394.54998779</ele>
        <time>2021-10-17T10:40:15Z</time>
      </trkpt>
      <trkpt lat="43.12619" lon="1.07445">
        <ele>394.70999146</ele>
        <time>2021-10-17T10:40:16Z</time>
      </trkpt>
      <trkpt lat="43.12616" lon="1.07453">
        <ele>394.80999756</ele>
        <time>2021-10-17T10:40:17Z</time>
      </trkpt>
      <trkpt lat="43.12614" lon="1.07458">
        <ele>394.82000732</ele>
        <time>2021-10-17T10:40:18Z</time>
      </trkpt>
      <trkpt lat="43.12612" lon="1.07462">
        <ele>394.8500061</ele>
        <time>2021-10-17T10:40:19Z</time>
      </trkpt>
      <trkpt lat="43.12611" lon="1.07467">
        <ele>394.89001465</ele>
        <time>2021-10-17T10:40:20Z</time>
      </trkpt>
      <trkpt lat="43.12609" lon="1.07472">
        <ele>394.95001221</ele>
        <time>2021-10-17T10:40:21Z</time>
      </trkpt>
      <trkpt lat="43.12606" lon="1.0748">
        <ele>395.12002563</ele>
        <time>2021-10-17T10:40:22Z</time>
      </trkpt>
      <trkpt lat="43.12604" lon="1.07484">
        <ele>395.40002441</ele>
        <time>2021-10-17T10:40:23Z</time>
      </trkpt>
      <trkpt lat="43.12602" lon="1.07489">
        <ele>395.55001831</ele>
        <time>2021-10-17T10:40:24Z</time>
      </trkpt>
      <trkpt lat="43.126" lon="1.07494">
        <ele>395.77001953</ele>
        <time>2021-10-17T10:40:25Z</time>
      </trkpt>
      <trkpt lat="43.12598" lon="1.07499">
        <ele>395.96002197</ele>
        <time>2021-10-17T10:40:26Z</time>
      </trkpt>
      <trkpt lat="43.12595" lon="1.07506">
        <ele>396.1300354</ele>
        <time>2021-10-17T10:40:27Z</time>
      </trkpt>
      <trkpt lat="43.12593" lon="1.07511">
        <ele>396.24002075</ele>
        <time>2021-10-17T10:40:28Z</time>
      </trkpt>
      <trkpt lat="43.12592" lon="1.07516">
        <ele>396.26000977</ele>
        <time>2021-10-17T10:40:29Z</time>
      </trkpt>
      <trkpt lat="43.1259" lon="1.07521">
        <ele>396.27001953</ele>
        <time>2021-10-17T10:40:30Z</time>
      </trkpt>
      <trkpt lat="43.12587" lon="1.07528">
        <ele>396.22003174</ele>
        <time>2021-10-17T10:40:31Z</time>
      </trkpt>
      <trkpt lat="43.12585" lon="1.07533">
        <ele>396.2300415</ele>
        <time>2021-10-17T10:40:32Z</time>
      </trkpt>
      <trkpt lat="43.12583" lon="1.07538">
        <ele>396.30004883</ele>
        <time>2021-10-17T10:40:33Z</time>
      </trkpt>
      <trkpt lat="43.12582" lon="1.07543">
        <ele>396.3800354</ele>
        <time>2021-10-17T10:40:34Z</time>
      </trkpt>
      <trkpt lat="43.1258" lon="1.07549">
        <ele>396.49002075</ele>
        <time>2021-10-17T10:40:35Z</time>
      </trkpt>
      <trkpt lat="43.12577" lon="1.07556">
        <ele>396.6300354</ele>
        <time>2021-10-17T10:40:36Z</time>
      </trkpt>
      <trkpt lat="43.12574" lon="1.07562">
        <ele>396.74002075</ele>
        <time>2021-10-17T10:40:37Z</time>
      </trkpt>
      <trkpt lat="43.12572" lon="1.07567">
        <ele>396.8800354</ele>
        <time>2021-10-17T10:40:38Z</time>
      </trkpt>
      <trkpt lat="43.1257" lon="1.07572">
        <ele>396.9800415</ele>
        <time>2021-10-17T10:40:39Z</time>
      </trkpt>
      <trkpt lat="43.12567" lon="1.0758">
        <ele>397.06002808</ele>
        <time>2021-10-17T10:40:40Z</time>
      </trkpt>
      <trkpt lat="43.12565" lon="1.07585">
        <ele>397.10003662</ele>
        <time>2021-10-17T10:40:41Z</time>
      </trkpt>
      <trkpt lat="43.12563" lon="1.0759">
        <ele>397.1300354</ele>
        <time>2021-10-17T10:40:42Z</time>
      </trkpt>
      <trkpt lat="43.12561" lon="1.07595">
        <ele>397.22003174</ele>
        <time>2021-10-17T10:40:43Z</time>
      </trkpt>
      <trkpt lat="43.12558" lon="1.07602">
        <ele>397.34002686</ele>
        <time>2021-10-17T10:40:44Z</time>
      </trkpt>
      <trkpt lat="43.12556" lon="1.07607">
        <ele>397.49002075</ele>
        <time>2021-10-17T10:40:45Z</time>
      </trkpt>
      <trkpt lat="43.12554" lon="1.07612">
        <ele>397.58001709</ele>
        <time>2021-10-17T10:40:46Z</time>
      </trkpt>
      <trkpt lat="43.12552" lon="1.07617">
        <ele>397.62002563</ele>
        <time>2021-10-17T10:40:47Z</time>
      </trkpt>
      <trkpt lat="43.1255" lon="1.07622">
        <ele>397.6300354</ele>
        <time>2021-10-17T10:40:48Z</time>
      </trkpt>
      <trkpt lat="43.12546" lon="1.0763">
        <ele>397.56002808</ele>
        <time>2021-10-17T10:40:49Z</time>
      </trkpt>
      <trkpt lat="43.12544" lon="1.07635">
        <ele>397.52001953</ele>
        <time>2021-10-17T10:40:50Z</time>
      </trkpt>
      <trkpt lat="43.12542" lon="1.0764">
        <ele>397.51000977</ele>
        <time>2021-10-17T10:40:51Z</time>
      </trkpt>
      <trkpt lat="43.12539" lon="1.07645">
        <ele>397.45001221</ele>
        <time>2021-10-17T10:40:52Z</time>
      </trkpt>
      <trkpt lat="43.12536" lon="1.07653">
        <ele>397.44000244</ele>
        <time>2021-10-17T10:40:53Z</time>
      </trkpt>
      <trkpt lat="43.12533" lon="1.07658">
        <ele>397.3999939</ele>
        <time>2021-10-17T10:40:54Z</time>
      </trkpt>
      <trkpt lat="43.12531" lon="1.07664">
        <ele>397.30999756</ele>
        <time>2021-10-17T10:40:55Z</time>
      </trkpt>
      <trkpt lat="43.12528" lon="1.0767">
        <ele>397.25</ele>
        <time>2021-10-17T10:40:56Z</time>
      </trkpt>
      <trkpt lat="43.12526" lon="1.07676">
        <ele>397.20001221</ele>
        <time>2021-10-17T10:40:57Z</time>
      </trkpt>
      <trkpt lat="43.12522" lon="1.07685">
        <ele>397.15002441</ele>
        <time>2021-10-17T10:40:58Z</time>
      </trkpt>
      <trkpt lat="43.1252" lon="1.0769">
        <ele>397.08001709</ele>
        <time>2021-10-17T10:40:59Z</time>
      </trkpt>
      <trkpt lat="43.12518" lon="1.07696">
        <ele>396.88000488</ele>
        <time>2021-10-17T10:41:00Z</time>
      </trkpt>
      <trkpt lat="43.12515" lon="1.07701">
        <ele>396.66000366</ele>
        <time>2021-10-17T10:41:01Z</time>
      </trkpt>
      <trkpt lat="43.12513" lon="1.07707">
        <ele>396.42001343</ele>
        <time>2021-10-17T10:41:02Z</time>
      </trkpt>
      <trkpt lat="43.12509" lon="1.07715">
        <ele>396.29000854</ele>
        <time>2021-10-17T10:41:03Z</time>
      </trkpt>
      <trkpt lat="43.12507" lon="1.07721">
        <ele>396.3500061</ele>
        <time>2021-10-17T10:41:04Z</time>
      </trkpt>
      <trkpt lat="43.12505" lon="1.07726">
        <ele>396.42999268</ele>
        <time>2021-10-17T10:41:05Z</time>
      </trkpt>
      <trkpt lat="43.12502" lon="1.07732">
        <ele>396.57998657</ele>
        <time>2021-10-17T10:41:06Z</time>
      </trkpt>
      <trkpt lat="43.12499" lon="1.0774">
        <ele>396.72000122</ele>
        <time>2021-10-17T10:41:07Z</time>
      </trkpt>
      <trkpt lat="43.12497" lon="1.07746">
        <ele>396.72000122</ele>
        <time>2021-10-17T10:41:08Z</time>
      </trkpt>
      <trkpt lat="43.12495" lon="1.07751">
        <ele>396.69000244</ele>
        <time>2021-10-17T10:41:09Z</time>
      </trkpt>
      <trkpt lat="43.12492" lon="1.07757">
        <ele>396.54998779</ele>
        <time>2021-10-17T10:41:10Z</time>
      </trkpt>
      <trkpt lat="43.1249" lon="1.07763">
        <ele>396.30999756</ele>
        <time>2021-10-17T10:41:11Z</time>
      </trkpt>
      <trkpt lat="43.12486" lon="1.07771">
        <ele>396.20999146</ele>
        <time>2021-10-17T10:41:12Z</time>
      </trkpt>
      <trkpt lat="43.12483" lon="1.07776">
        <ele>396.19998169</ele>
        <time>2021-10-17T10:41:13Z</time>
      </trkpt>
      <trkpt lat="43.12481" lon="1.07782">
        <ele>396.20999146</ele>
        <time>2021-10-17T10:41:14Z</time>
      </trkpt>
      <trkpt lat="43.12478" lon="1.07788">
        <ele>396.20999146</ele>
        <time>2021-10-17T10:41:15Z</time>
      </trkpt>
      <trkpt lat="43.12474" lon="1.07796">
        <ele>396.17999268</ele>
        <time>2021-10-17T10:41:16Z</time>
      </trkpt>
      <trkpt lat="43.12472" lon="1.07803">
        <ele>396.1000061</ele>
        <time>2021-10-17T10:41:17Z</time>
      </trkpt>
      <trkpt lat="43.1247" lon="1.07809">
        <ele>396.08999634</ele>
        <time>2021-10-17T10:41:18Z</time>
      </trkpt>
      <trkpt lat="43.12467" lon="1.07815">
        <ele>396.07998657</ele>
        <time>2021-10-17T10:41:19Z</time>
      </trkpt>
      <trkpt lat="43.12464" lon="1.07825">
        <ele>396.00997925</ele>
        <time>2021-10-17T10:41:20Z</time>
      </trkpt>
      <trkpt lat="43.12461" lon="1.07831">
        <ele>395.88998413</ele>
        <time>2021-10-17T10:41:21Z</time>
      </trkpt>
      <trkpt lat="43.12459" lon="1.07837">
        <ele>395.58999634</ele>
        <time>2021-10-17T10:41:22Z</time>
      </trkpt>
      <trkpt lat="43.12456" lon="1.07843">
        <ele>395.16998291</ele>
        <time>2021-10-17T10:41:23Z</time>
      </trkpt>
      <trkpt lat="43.12454" lon="1.0785">
        <ele>394.70999146</ele>
        <time>2021-10-17T10:41:24Z</time>
      </trkpt>
      <trkpt lat="43.1245" lon="1.07859">
        <ele>394.29998779</ele>
        <time>2021-10-17T10:41:25Z</time>
      </trkpt>
      <trkpt lat="43.12447" lon="1.07865">
        <ele>394.02999878</ele>
        <time>2021-10-17T10:41:26Z</time>
      </trkpt>
      <trkpt lat="43.12446" lon="1.07867">
        <ele>394.8500061</ele>
        <time>2021-10-17T10:41:26Z</time>
      </trkpt>
      <trkpt lat="43.12443" lon="1.07873">
        <ele>394.8500061</ele>
        <time>2021-10-17T10:41:27Z</time>
      </trkpt>
      <trkpt lat="43.1244" lon="1.07879">
        <ele>394.49002075</ele>
        <time>2021-10-17T10:41:28Z</time>
      </trkpt>
      <trkpt lat="43.12436" lon="1.07889">
        <ele>394.45001221</ele>
        <time>2021-10-17T10:41:29Z</time>
      </trkpt>
      <trkpt lat="43.12433" lon="1.07895">
        <ele>394.40002441</ele>
        <time>2021-10-17T10:41:30Z</time>
      </trkpt>
      <trkpt lat="43.12431" lon="1.07902">
        <ele>394.45001221</ele>
        <time>2021-10-17T10:41:31Z</time>
      </trkpt>
      <trkpt lat="43.12428" lon="1.07908">
        <ele>394.44000244</ele>
        <time>2021-10-17T10:41:32Z</time>
      </trkpt>
      <trkpt lat="43.12423" lon="1.07919">
        <ele>394.19000244</ele>
        <time>2021-10-17T10:41:33Z</time>
      </trkpt>
      <trkpt lat="43.12421" lon="1.07926">
        <ele>393.83999634</ele>
        <time>2021-10-17T10:41:34Z</time>
      </trkpt>
      <trkpt lat="43.12418" lon="1.07932">
        <ele>393.41998291</ele>
        <time>2021-10-17T10:41:35Z</time>
      </trkpt>
      <trkpt lat="43.12415" lon="1.07939">
        <ele>393.09997559</ele>
        <time>2021-10-17T10:41:36Z</time>
      </trkpt>
      <trkpt lat="43.12413" lon="1.07946">
        <ele>392.83996582</ele>
        <time>2021-10-17T10:41:37Z</time>
      </trkpt>
      <trkpt lat="43.1241" lon="1.07958">
        <ele>392.66995239</ele>
        <time>2021-10-17T10:41:38Z</time>
      </trkpt>
      <trkpt lat="43.12409" lon="1.07966">
        <ele>392.43994141</ele>
        <time>2021-10-17T10:41:39Z</time>
      </trkpt>
      <trkpt lat="43.12408" lon="1.07974">
        <ele>392.13995361</ele>
        <time>2021-10-17T10:41:40Z</time>
      </trkpt>
      <trkpt lat="43.12409" lon="1.07982">
        <ele>391.79995728</ele>
        <time>2021-10-17T10:41:41Z</time>
      </trkpt>
      <trkpt lat="43.1241" lon="1.07991">
        <ele>391.5199585</ele>
        <time>2021-10-17T10:41:42Z</time>
      </trkpt>
      <trkpt lat="43.12414" lon="1.08003">
        <ele>391.22994995</ele>
        <time>2021-10-17T10:41:43Z</time>
      </trkpt>
      <trkpt lat="43.12418" lon="1.08011">
        <ele>390.99993896</ele>
        <time>2021-10-17T10:41:44Z</time>
      </trkpt>
      <trkpt lat="43.12423" lon="1.08018">
        <ele>390.81994629</ele>
        <time>2021-10-17T10:41:45Z</time>
      </trkpt>
      <trkpt lat="43.12428" lon="1.08024">
        <ele>390.5199585</ele>
        <time>2021-10-17T10:41:46Z</time>
      </trkpt>
      <trkpt lat="43.12433" lon="1.0803">
        <ele>390.3699646</ele>
        <time>2021-10-17T10:41:47Z</time>
      </trkpt>
      <trkpt lat="43.12441" lon="1.08038">
        <ele>390.17996216</ele>
        <time>2021-10-17T10:41:48Z</time>
      </trkpt>
      <trkpt lat="43.12446" lon="1.08043">
        <ele>389.9699707</ele>
        <time>2021-10-17T10:41:49Z</time>
      </trkpt>
      <trkpt lat="43.12451" lon="1.08048">
        <ele>389.85998535</ele>
        <time>2021-10-17T10:41:50Z</time>
      </trkpt>
      <trkpt lat="43.12455" lon="1.08054">
        <ele>389.66998291</ele>
        <time>2021-10-17T10:41:51Z</time>
      </trkpt>
      <trkpt lat="43.1246" lon="1.08065">
        <ele>389.41998291</ele>
        <time>2021-10-17T10:41:52Z</time>
      </trkpt>
      <trkpt lat="43.1246" lon="1.08073">
        <ele>388.88998413</ele>
        <time>2021-10-17T10:41:53Z</time>
      </trkpt>
      <trkpt lat="43.12458" lon="1.08082">
        <ele>388.26998901</ele>
        <time>2021-10-17T10:41:54Z</time>
      </trkpt>
      <trkpt lat="43.12455" lon="1.08089">
        <ele>387.66998291</ele>
        <time>2021-10-17T10:41:55Z</time>
      </trkpt>
      <trkpt lat="43.12453" lon="1.08101">
        <ele>387.34997559</ele>
        <time>2021-10-17T10:41:56Z</time>
      </trkpt>
      <trkpt lat="43.12454" lon="1.08108">
        <ele>387.38998413</ele>
        <time>2021-10-17T10:41:57Z</time>
      </trkpt>
      <trkpt lat="43.12456" lon="1.08114">
        <ele>387.55999756</ele>
        <time>2021-10-17T10:41:58Z</time>
      </trkpt>
      <trkpt lat="43.1246" lon="1.08119">
        <ele>387.86999512</ele>
        <time>2021-10-17T10:41:59Z</time>
      </trkpt>
      <trkpt lat="43.12464" lon="1.08123">
        <ele>388.01998901</ele>
        <time>2021-10-17T10:42:00Z</time>
      </trkpt>
      <trkpt lat="43.12469" lon="1.0813">
        <ele>388.07998657</ele>
        <time>2021-10-17T10:42:01Z</time>
      </trkpt>
      <trkpt lat="43.12472" lon="1.08135">
        <ele>388.22998047</ele>
        <time>2021-10-17T10:42:02Z</time>
      </trkpt>
      <trkpt lat="43.12474" lon="1.08139">
        <ele>388.3999939</ele>
        <time>2021-10-17T10:42:03Z</time>
      </trkpt>
      <trkpt lat="43.12477" lon="1.08144">
        <ele>388.66998291</ele>
        <time>2021-10-17T10:42:04Z</time>
      </trkpt>
      <trkpt lat="43.12479" lon="1.08152">
        <ele>389.00997925</ele>
        <time>2021-10-17T10:42:05Z</time>
      </trkpt>
      <trkpt lat="43.12481" lon="1.08157">
        <ele>389.2199707</ele>
        <time>2021-10-17T10:42:06Z</time>
      </trkpt>
      <trkpt lat="43.12482" lon="1.08163">
        <ele>389.2199707</ele>
        <time>2021-10-17T10:42:07Z</time>
      </trkpt>
      <trkpt lat="43.12484" lon="1.08169">
        <ele>389.17996216</ele>
        <time>2021-10-17T10:42:08Z</time>
      </trkpt>
      <trkpt lat="43.12485" lon="1.08175">
        <ele>389.12997437</ele>
        <time>2021-10-17T10:42:09Z</time>
      </trkpt>
      <trkpt lat="43.12486" lon="1.08184">
        <ele>389.1199646</ele>
        <time>2021-10-17T10:42:10Z</time>
      </trkpt>
      <trkpt lat="43.12486" lon="1.0819">
        <ele>389.22994995</ele>
        <time>2021-10-17T10:42:11Z</time>
      </trkpt>
      <trkpt lat="43.12486" lon="1.08196">
        <ele>389.2699585</ele>
        <time>2021-10-17T10:42:12Z</time>
      </trkpt>
      <trkpt lat="43.12486" lon="1.08201">
        <ele>389.33996582</ele>
        <time>2021-10-17T10:42:13Z</time>
      </trkpt>
      <trkpt lat="43.12487" lon="1.08211">
        <ele>389.40997314</ele>
        <time>2021-10-17T10:42:14Z</time>
      </trkpt>
      <trkpt lat="43.12487" lon="1.08217">
        <ele>389.47998047</ele>
        <time>2021-10-17T10:42:15Z</time>
      </trkpt>
      <trkpt lat="43.12487" lon="1.08223">
        <ele>389.62997437</ele>
        <time>2021-10-17T10:42:16Z</time>
      </trkpt>
      <trkpt lat="43.12487" lon="1.08228">
        <ele>389.69998169</ele>
        <time>2021-10-17T10:42:17Z</time>
      </trkpt>
      <trkpt lat="43.12487" lon="1.08234">
        <ele>389.82998657</ele>
        <time>2021-10-17T10:42:18Z</time>
      </trkpt>
      <trkpt lat="43.12487" lon="1.08242">
        <ele>389.84997559</ele>
        <time>2021-10-17T10:42:19Z</time>
      </trkpt>
      <trkpt lat="43.12486" lon="1.08248">
        <ele>389.95996094</ele>
        <time>2021-10-17T10:42:20Z</time>
      </trkpt>
      <trkpt lat="43.12486" lon="1.08254">
        <ele>390.13995361</ele>
        <time>2021-10-17T10:42:21Z</time>
      </trkpt>
      <trkpt lat="43.12485" lon="1.08259">
        <ele>390.22994995</ele>
        <time>2021-10-17T10:42:22Z</time>
      </trkpt>
      <trkpt lat="43.12484" lon="1.08266">
        <ele>390.53994751</ele>
        <time>2021-10-17T10:42:23Z</time>
      </trkpt>
      <trkpt lat="43.12483" lon="1.08271">
        <ele>390.72994995</ele>
        <time>2021-10-17T10:42:24Z</time>
      </trkpt>
      <trkpt lat="43.12483" lon="1.08274">
        <ele>390.95996094</ele>
        <time>2021-10-17T10:42:25Z</time>
      </trkpt>
      <trkpt lat="43.12483" lon="1.08277">
        <ele>391.25994873</ele>
        <time>2021-10-17T10:42:26Z</time>
      </trkpt>
      <trkpt lat="43.12482" lon="1.08281">
        <ele>391.43994141</ele>
        <time>2021-10-17T10:42:27Z</time>
      </trkpt>
      <trkpt lat="43.12482" lon="1.08288">
        <ele>391.64993286</ele>
        <time>2021-10-17T10:42:28Z</time>
      </trkpt>
      <trkpt lat="43.12481" lon="1.08293">
        <ele>391.8399353</ele>
        <time>2021-10-17T10:42:29Z</time>
      </trkpt>
      <trkpt lat="43.1248" lon="1.08298">
        <ele>391.9899292</ele>
        <time>2021-10-17T10:42:30Z</time>
      </trkpt>
      <trkpt lat="43.12479" lon="1.08302">
        <ele>392.12994385</ele>
        <time>2021-10-17T10:42:31Z</time>
      </trkpt>
      <trkpt lat="43.12478" lon="1.08309">
        <ele>392.20993042</ele>
        <time>2021-10-17T10:42:32Z</time>
      </trkpt>
      <trkpt lat="43.12475" lon="1.08313">
        <ele>392.36993408</ele>
        <time>2021-10-17T10:42:33Z</time>
      </trkpt>
      <trkpt lat="43.12473" lon="1.08317">
        <ele>392.65994263</ele>
        <time>2021-10-17T10:42:34Z</time>
      </trkpt>
      <trkpt lat="43.12471" lon="1.08322">
        <ele>393.00994873</ele>
        <time>2021-10-17T10:42:35Z</time>
      </trkpt>
      <trkpt lat="43.1247" lon="1.08327">
        <ele>393.41995239</ele>
        <time>2021-10-17T10:42:36Z</time>
      </trkpt>
      <trkpt lat="43.12468" lon="1.08333">
        <ele>393.87994385</ele>
        <time>2021-10-17T10:42:37Z</time>
      </trkpt>
      <trkpt lat="43.12467" lon="1.08337">
        <ele>394.24993896</ele>
        <time>2021-10-17T10:42:38Z</time>
      </trkpt>
      <trkpt lat="43.12467" lon="1.0834">
        <ele>394.63995361</ele>
        <time>2021-10-17T10:42:39Z</time>
      </trkpt>
      <trkpt lat="43.12465" lon="1.08344">
        <ele>395.14996338</ele>
        <time>2021-10-17T10:42:40Z</time>
      </trkpt>
      <trkpt lat="43.12462" lon="1.08349">
        <ele>395.57995605</ele>
        <time>2021-10-17T10:42:41Z</time>
      </trkpt>
      <trkpt lat="43.12461" lon="1.08351">
        <ele>396.0199585</ele>
        <time>2021-10-17T10:42:42Z</time>
      </trkpt>
      <trkpt lat="43.12459" lon="1.08354">
        <ele>396.42996216</ele>
        <time>2021-10-17T10:42:43Z</time>
      </trkpt>
      <trkpt lat="43.12458" lon="1.08358">
        <ele>396.77996826</ele>
        <time>2021-10-17T10:42:44Z</time>
      </trkpt>
      <trkpt lat="43.12456" lon="1.08363">
        <ele>397.2199707</ele>
        <time>2021-10-17T10:42:45Z</time>
      </trkpt>
      <trkpt lat="43.12455" lon="1.08366">
        <ele>397.59997559</ele>
        <time>2021-10-17T10:42:46Z</time>
      </trkpt>
      <trkpt lat="43.12454" lon="1.08369">
        <ele>397.88998413</ele>
        <time>2021-10-17T10:42:47Z</time>
      </trkpt>
      <trkpt lat="43.12454" lon="1.08371">
        <ele>398.23999023</ele>
        <time>2021-10-17T10:42:48Z</time>
      </trkpt>
      <trkpt lat="43.12453" lon="1.08374">
        <ele>398.48999023</ele>
        <time>2021-10-17T10:42:49Z</time>
      </trkpt>
      <trkpt lat="43.12452" lon="1.08379">
        <ele>398.75</ele>
        <time>2021-10-17T10:42:50Z</time>
      </trkpt>
      <trkpt lat="43.12451" lon="1.08382">
        <ele>399</ele>
        <time>2021-10-17T10:42:51Z</time>
      </trkpt>
      <trkpt lat="43.1245" lon="1.08385">
        <ele>399.1000061</ele>
        <time>2021-10-17T10:42:52Z</time>
      </trkpt>
      <trkpt lat="43.12449" lon="1.08388">
        <ele>399.20001221</ele>
        <time>2021-10-17T10:42:53Z</time>
      </trkpt>
      <trkpt lat="43.12448" lon="1.08392">
        <ele>399.34002686</ele>
        <time>2021-10-17T10:42:54Z</time>
      </trkpt>
      <trkpt lat="43.12448" lon="1.08395">
        <ele>399.60003662</ele>
        <time>2021-10-17T10:42:55Z</time>
      </trkpt>
      <trkpt lat="43.12447" lon="1.08397">
        <ele>399.82003784</ele>
        <time>2021-10-17T10:42:56Z</time>
      </trkpt>
      <trkpt lat="43.12447" lon="1.084">
        <ele>399.9800415</ele>
        <time>2021-10-17T10:42:57Z</time>
      </trkpt>
      <trkpt lat="43.12447" lon="1.08403">
        <ele>400.10003662</ele>
        <time>2021-10-17T10:42:58Z</time>
      </trkpt>
      <trkpt lat="43.12446" lon="1.08407">
        <ele>400.1300354</ele>
        <time>2021-10-17T10:42:59Z</time>
      </trkpt>
      <trkpt lat="43.12445" lon="1.08409">
        <ele>400.25003052</ele>
        <time>2021-10-17T10:43:00Z</time>
      </trkpt>
      <trkpt lat="43.12445" lon="1.08411">
        <ele>400.35003662</ele>
        <time>2021-10-17T10:43:01Z</time>
      </trkpt>
      <trkpt lat="43.12445" lon="1.08413">
        <ele>400.44003296</ele>
        <time>2021-10-17T10:43:02Z</time>
      </trkpt>
      <trkpt lat="43.12444" lon="1.08415">
        <ele>400.5300293</ele>
        <time>2021-10-17T10:43:03Z</time>
      </trkpt>
      <trkpt lat="43.12443" lon="1.08416">
        <ele>400.59002686</ele>
        <time>2021-10-17T10:43:04Z</time>
      </trkpt>
      <trkpt lat="43.12442" lon="1.08417">
        <ele>400.69003296</ele>
        <time>2021-10-17T10:43:05Z</time>
      </trkpt>
      <trkpt lat="43.12442" lon="1.08416">
        <ele>400.7800293</ele>
        <time>2021-10-17T10:43:06Z</time>
      </trkpt>
      <trkpt lat="43.12442" lon="1.08417">
        <ele>401</ele>
        <time>2021-10-17T10:43:06Z</time>
      </trkpt>
      <trkpt lat="43.12437" lon="1.08424">
        <ele>408.42999268</ele>
        <time>2021-10-17T10:48:49Z</time>
      </trkpt>
      <trkpt lat="43.12435" lon="1.08427">
        <ele>408.54998779</ele>
        <time>2021-10-17T10:48:50Z</time>
      </trkpt>
      <trkpt lat="43.12434" lon="1.08428">
        <ele>408.66998291</ele>
        <time>2021-10-17T10:48:51Z</time>
      </trkpt>
      <trkpt lat="43.12434" lon="1.0843">
        <ele>408.77996826</ele>
        <time>2021-10-17T10:48:52Z</time>
      </trkpt>
      <trkpt lat="43.12433" lon="1.08431">
        <ele>408.94998169</ele>
        <time>2021-10-17T10:48:53Z</time>
      </trkpt>
      <trkpt lat="43.12432" lon="1.08432">
        <ele>409.06997681</ele>
        <time>2021-10-17T10:48:54Z</time>
      </trkpt>
      <trkpt lat="43.12431" lon="1.08434">
        <ele>409.28997803</ele>
        <time>2021-10-17T10:48:55Z</time>
      </trkpt>
      <trkpt lat="43.1243" lon="1.08435">
        <ele>409.53997803</ele>
        <time>2021-10-17T10:48:56Z</time>
      </trkpt>
      <trkpt lat="43.12429" lon="1.08436">
        <ele>409.82998657</ele>
        <time>2021-10-17T10:48:57Z</time>
      </trkpt>
      <trkpt lat="43.12429" lon="1.08437">
        <ele>410.13998413</ele>
        <time>2021-10-17T10:48:58Z</time>
      </trkpt>
      <trkpt lat="43.12428" lon="1.0844">
        <ele>410.36999512</ele>
        <time>2021-10-17T10:48:59Z</time>
      </trkpt>
      <trkpt lat="43.12427" lon="1.08441">
        <ele>410.76998901</ele>
        <time>2021-10-17T10:49:00Z</time>
      </trkpt>
      <trkpt lat="43.12426" lon="1.08443">
        <ele>410.97000122</ele>
        <time>2021-10-17T10:49:01Z</time>
      </trkpt>
      <trkpt lat="43.12425" lon="1.08445">
        <ele>411.25</ele>
        <time>2021-10-17T10:49:02Z</time>
      </trkpt>
      <trkpt lat="43.12424" lon="1.08447">
        <ele>411.64001465</ele>
        <time>2021-10-17T10:49:03Z</time>
      </trkpt>
      <trkpt lat="43.12422" lon="1.0845">
        <ele>411.83001709</ele>
        <time>2021-10-17T10:49:04Z</time>
      </trkpt>
      <trkpt lat="43.12421" lon="1.08452">
        <ele>412.14001465</ele>
        <time>2021-10-17T10:49:05Z</time>
      </trkpt>
      <trkpt lat="43.1242" lon="1.08454">
        <ele>412.48001099</ele>
        <time>2021-10-17T10:49:06Z</time>
      </trkpt>
      <trkpt lat="43.12419" lon="1.08457">
        <ele>412.67001343</ele>
        <time>2021-10-17T10:49:07Z</time>
      </trkpt>
      <trkpt lat="43.12417" lon="1.08461">
        <ele>412.8500061</ele>
        <time>2021-10-17T10:49:08Z</time>
      </trkpt>
      <trkpt lat="43.12416" lon="1.08464">
        <ele>413.08001709</ele>
        <time>2021-10-17T10:49:09Z</time>
      </trkpt>
      <trkpt lat="43.12415" lon="1.08467">
        <ele>413.27001953</ele>
        <time>2021-10-17T10:49:10Z</time>
      </trkpt>
      <trkpt lat="43.12413" lon="1.08469">
        <ele>413.49002075</ele>
        <time>2021-10-17T10:49:11Z</time>
      </trkpt>
      <trkpt lat="43.12412" lon="1.08474">
        <ele>413.66003418</ele>
        <time>2021-10-17T10:49:12Z</time>
      </trkpt>
      <trkpt lat="43.12411" lon="1.08477">
        <ele>413.90002441</ele>
        <time>2021-10-17T10:49:13Z</time>
      </trkpt>
      <trkpt lat="43.12411" lon="1.08481">
        <ele>414.09002686</ele>
        <time>2021-10-17T10:49:14Z</time>
      </trkpt>
      <trkpt lat="43.1241" lon="1.08484">
        <ele>414.42001343</ele>
        <time>2021-10-17T10:49:15Z</time>
      </trkpt>
      <trkpt lat="43.1241" lon="1.08489">
        <ele>414.74002075</ele>
        <time>2021-10-17T10:49:16Z</time>
      </trkpt>
      <trkpt lat="43.12408" lon="1.08495">
        <ele>414.81002808</ele>
        <time>2021-10-17T10:49:17Z</time>
      </trkpt>
      <trkpt lat="43.12407" lon="1.08498">
        <ele>414.7800293</ele>
        <time>2021-10-17T10:49:18Z</time>
      </trkpt>
      <trkpt lat="43.12406" lon="1.08502">
        <ele>414.7800293</ele>
        <time>2021-10-17T10:49:19Z</time>
      </trkpt>
      <trkpt lat="43.12405" lon="1.08506">
        <ele>414.71002197</ele>
        <time>2021-10-17T10:49:20Z</time>
      </trkpt>
      <trkpt lat="43.12403" lon="1.0851">
        <ele>414.75003052</ele>
        <time>2021-10-17T10:49:21Z</time>
      </trkpt>
      <trkpt lat="43.12401" lon="1.08516">
        <ele>414.81002808</ele>
        <time>2021-10-17T10:49:22Z</time>
      </trkpt>
      <trkpt lat="43.124" lon="1.0852">
        <ele>414.74002075</ele>
        <time>2021-10-17T10:49:23Z</time>
      </trkpt>
      <trkpt lat="43.12398" lon="1.08524">
        <ele>414.7800293</ele>
        <time>2021-10-17T10:49:24Z</time>
      </trkpt>
      <trkpt lat="43.12397" lon="1.08529">
        <ele>414.80001831</ele>
        <time>2021-10-17T10:49:25Z</time>
      </trkpt>
      <trkpt lat="43.12395" lon="1.08536">
        <ele>414.86001587</ele>
        <time>2021-10-17T10:49:26Z</time>
      </trkpt>
      <trkpt lat="43.12394" lon="1.08539">
        <ele>414.93002319</ele>
        <time>2021-10-17T10:49:27Z</time>
      </trkpt>
      <trkpt lat="43.12393" lon="1.08543">
        <ele>415.00003052</ele>
        <time>2021-10-17T10:49:28Z</time>
      </trkpt>
      <trkpt lat="43.12392" lon="1.08547">
        <ele>415.11001587</ele>
        <time>2021-10-17T10:49:29Z</time>
      </trkpt>
      <trkpt lat="43.12391" lon="1.08551">
        <ele>415.21002197</ele>
        <time>2021-10-17T10:49:30Z</time>
      </trkpt>
      <trkpt lat="43.12388" lon="1.08557">
        <ele>415.32000732</ele>
        <time>2021-10-17T10:49:31Z</time>
      </trkpt>
      <trkpt lat="43.12387" lon="1.08562">
        <ele>415.52001953</ele>
        <time>2021-10-17T10:49:32Z</time>
      </trkpt>
      <trkpt lat="43.12386" lon="1.08566">
        <ele>415.66003418</ele>
        <time>2021-10-17T10:49:33Z</time>
      </trkpt>
      <trkpt lat="43.12385" lon="1.0857">
        <ele>415.83004761</ele>
        <time>2021-10-17T10:49:34Z</time>
      </trkpt>
      <trkpt lat="43.12383" lon="1.08575">
        <ele>415.9800415</ele>
        <time>2021-10-17T10:49:35Z</time>
      </trkpt>
      <trkpt lat="43.12381" lon="1.0858">
        <ele>416.0300293</ele>
        <time>2021-10-17T10:49:36Z</time>
      </trkpt>
      <trkpt lat="43.1238" lon="1.08584">
        <ele>416.08001709</ele>
        <time>2021-10-17T10:49:37Z</time>
      </trkpt>
      <trkpt lat="43.12379" lon="1.08587">
        <ele>416.21002197</ele>
        <time>2021-10-17T10:49:38Z</time>
      </trkpt>
      <trkpt lat="43.12378" lon="1.08592">
        <ele>416.25003052</ele>
        <time>2021-10-17T10:49:39Z</time>
      </trkpt>
      <trkpt lat="43.12377" lon="1.08598">
        <ele>416.32003784</ele>
        <time>2021-10-17T10:49:40Z</time>
      </trkpt>
      <trkpt lat="43.12376" lon="1.08603">
        <ele>416.40002441</ele>
        <time>2021-10-17T10:49:41Z</time>
      </trkpt>
      <trkpt lat="43.12375" lon="1.08607">
        <ele>416.42001343</ele>
        <time>2021-10-17T10:49:42Z</time>
      </trkpt>
      <trkpt lat="43.12374" lon="1.08611">
        <ele>416.45001221</ele>
        <time>2021-10-17T10:49:43Z</time>
      </trkpt>
      <trkpt lat="43.12373" lon="1.08617">
        <ele>416.71002197</ele>
        <time>2021-10-17T10:49:44Z</time>
      </trkpt>
      <trkpt lat="43.12371" lon="1.08621">
        <ele>417.05001831</ele>
        <time>2021-10-17T10:49:45Z</time>
      </trkpt>
      <trkpt lat="43.1237" lon="1.08624">
        <ele>417.22003174</ele>
        <time>2021-10-17T10:49:46Z</time>
      </trkpt>
      <trkpt lat="43.12368" lon="1.08628">
        <ele>417.43002319</ele>
        <time>2021-10-17T10:49:47Z</time>
      </trkpt>
      <trkpt lat="43.12366" lon="1.08634">
        <ele>417.45001221</ele>
        <time>2021-10-17T10:49:48Z</time>
      </trkpt>
      <trkpt lat="43.12365" lon="1.08638">
        <ele>417.42001343</ele>
        <time>2021-10-17T10:49:49Z</time>
      </trkpt>
      <trkpt lat="43.12364" lon="1.08642">
        <ele>417.47000122</ele>
        <time>2021-10-17T10:49:50Z</time>
      </trkpt>
      <trkpt lat="43.12363" lon="1.08646">
        <ele>417.61001587</ele>
        <time>2021-10-17T10:49:51Z</time>
      </trkpt>
      <trkpt lat="43.12362" lon="1.0865">
        <ele>417.74002075</ele>
        <time>2021-10-17T10:49:52Z</time>
      </trkpt>
      <trkpt lat="43.1236" lon="1.08655">
        <ele>417.87002563</ele>
        <time>2021-10-17T10:49:53Z</time>
      </trkpt>
      <trkpt lat="43.12359" lon="1.08659">
        <ele>418.00003052</ele>
        <time>2021-10-17T10:49:54Z</time>
      </trkpt>
      <trkpt lat="43.12358" lon="1.08663">
        <ele>418.19003296</ele>
        <time>2021-10-17T10:49:55Z</time>
      </trkpt>
      <trkpt lat="43.12357" lon="1.08666">
        <ele>418.45004272</ele>
        <time>2021-10-17T10:49:56Z</time>
      </trkpt>
      <trkpt lat="43.12356" lon="1.0867">
        <ele>418.64004517</ele>
        <time>2021-10-17T10:49:57Z</time>
      </trkpt>
      <trkpt lat="43.12354" lon="1.08675">
        <ele>418.93005371</ele>
        <time>2021-10-17T10:49:58Z</time>
      </trkpt>
      <trkpt lat="43.12353" lon="1.08678">
        <ele>419.03005981</ele>
        <time>2021-10-17T10:49:59Z</time>
      </trkpt>
      <trkpt lat="43.12352" lon="1.08682">
        <ele>419.06005859</ele>
        <time>2021-10-17T10:50:00Z</time>
      </trkpt>
      <trkpt lat="43.12351" lon="1.08686">
        <ele>419.23007202</ele>
        <time>2021-10-17T10:50:01Z</time>
      </trkpt>
      <trkpt lat="43.12349" lon="1.08691">
        <ele>419.34005737</ele>
        <time>2021-10-17T10:50:02Z</time>
      </trkpt>
      <trkpt lat="43.12348" lon="1.08695">
        <ele>419.57006836</ele>
        <time>2021-10-17T10:50:03Z</time>
      </trkpt>
      <trkpt lat="43.12347" lon="1.08698">
        <ele>419.82006836</ele>
        <time>2021-10-17T10:50:04Z</time>
      </trkpt>
      <trkpt lat="43.12346" lon="1.08702">
        <ele>420.02008057</ele>
        <time>2021-10-17T10:50:05Z</time>
      </trkpt>
      <trkpt lat="43.12344" lon="1.08708">
        <ele>420.30007935</ele>
        <time>2021-10-17T10:50:06Z</time>
      </trkpt>
      <trkpt lat="43.12342" lon="1.08712">
        <ele>420.50009155</ele>
        <time>2021-10-17T10:50:07Z</time>
      </trkpt>
      <trkpt lat="43.12341" lon="1.08715">
        <ele>420.6401062</ele>
        <time>2021-10-17T10:50:08Z</time>
      </trkpt>
      <trkpt lat="43.1234" lon="1.0872">
        <ele>420.80010986</ele>
        <time>2021-10-17T10:50:09Z</time>
      </trkpt>
      <trkpt lat="43.12339" lon="1.08724">
        <ele>420.91009521</ele>
        <time>2021-10-17T10:50:10Z</time>
      </trkpt>
      <trkpt lat="43.12337" lon="1.08727">
        <ele>421.09008789</ele>
        <time>2021-10-17T10:50:11Z</time>
      </trkpt>
      <trkpt lat="43.12335" lon="1.08732">
        <ele>421.26010132</ele>
        <time>2021-10-17T10:50:12Z</time>
      </trkpt>
      <trkpt lat="43.12334" lon="1.08736">
        <ele>421.4901123</ele>
        <time>2021-10-17T10:50:13Z</time>
      </trkpt>
      <trkpt lat="43.12332" lon="1.08739">
        <ele>421.63012695</ele>
        <time>2021-10-17T10:50:14Z</time>
      </trkpt>
      <trkpt lat="43.12331" lon="1.08743">
        <ele>421.91012573</ele>
        <time>2021-10-17T10:50:15Z</time>
      </trkpt>
      <trkpt lat="43.1233" lon="1.08749">
        <ele>422.25012207</ele>
        <time>2021-10-17T10:50:16Z</time>
      </trkpt>
      <trkpt lat="43.12328" lon="1.08752">
        <ele>422.55010986</ele>
        <time>2021-10-17T10:50:17Z</time>
      </trkpt>
      <trkpt lat="43.12327" lon="1.08755">
        <ele>422.98010254</ele>
        <time>2021-10-17T10:50:18Z</time>
      </trkpt>
      <trkpt lat="43.12326" lon="1.08758">
        <ele>423.26010132</ele>
        <time>2021-10-17T10:50:19Z</time>
      </trkpt>
      <trkpt lat="43.12324" lon="1.08763">
        <ele>423.68011475</ele>
        <time>2021-10-17T10:50:20Z</time>
      </trkpt>
      <trkpt lat="43.12324" lon="1.08767">
        <ele>424.15011597</ele>
        <time>2021-10-17T10:50:21Z</time>
      </trkpt>
      <trkpt lat="43.12324" lon="1.0877">
        <ele>424.62011719</ele>
        <time>2021-10-17T10:50:22Z</time>
      </trkpt>
      <trkpt lat="43.12323" lon="1.08774">
        <ele>426.33010864</ele>
        <time>2021-10-17T10:50:23Z</time>
      </trkpt>
      <trkpt lat="43.12322" lon="1.08778">
        <ele>426.58010864</ele>
        <time>2021-10-17T10:50:24Z</time>
      </trkpt>
      <trkpt lat="43.12321" lon="1.08783">
        <ele>426.76010132</ele>
        <time>2021-10-17T10:50:25Z</time>
      </trkpt>
      <trkpt lat="43.1232" lon="1.08787">
        <ele>426.94009399</ele>
        <time>2021-10-17T10:50:26Z</time>
      </trkpt>
      <trkpt lat="43.12319" lon="1.08791">
        <ele>427.22009277</ele>
        <time>2021-10-17T10:50:27Z</time>
      </trkpt>
      <trkpt lat="43.12318" lon="1.08794">
        <ele>427.25009155</ele>
        <time>2021-10-17T10:50:28Z</time>
      </trkpt>
      <trkpt lat="43.12316" lon="1.08799">
        <ele>427.43008423</ele>
        <time>2021-10-17T10:50:29Z</time>
      </trkpt>
      <trkpt lat="43.12315" lon="1.08803">
        <ele>427.66009521</ele>
        <time>2021-10-17T10:50:30Z</time>
      </trkpt>
      <trkpt lat="43.12313" lon="1.08806">
        <ele>428.06008911</ele>
        <time>2021-10-17T10:50:31Z</time>
      </trkpt>
      <trkpt lat="43.12312" lon="1.08809">
        <ele>428.51010132</ele>
        <time>2021-10-17T10:50:32Z</time>
      </trkpt>
      <trkpt lat="43.12311" lon="1.08812">
        <ele>428.77011108</ele>
        <time>2021-10-17T10:50:33Z</time>
      </trkpt>
      <trkpt lat="43.12309" lon="1.08815">
        <ele>428.97012329</ele>
        <time>2021-10-17T10:50:34Z</time>
      </trkpt>
      <trkpt lat="43.12307" lon="1.08819">
        <ele>429.00012207</ele>
        <time>2021-10-17T10:50:35Z</time>
      </trkpt>
      <trkpt lat="43.12305" lon="1.08822">
        <ele>429.23013306</ele>
        <time>2021-10-17T10:50:36Z</time>
      </trkpt>
      <trkpt lat="43.12304" lon="1.08826">
        <ele>429.44012451</ele>
        <time>2021-10-17T10:50:37Z</time>
      </trkpt>
      <trkpt lat="43.12301" lon="1.0883">
        <ele>429.61013794</ele>
        <time>2021-10-17T10:50:38Z</time>
      </trkpt>
      <trkpt lat="43.12299" lon="1.08833">
        <ele>429.7701416</ele>
        <time>2021-10-17T10:50:39Z</time>
      </trkpt>
      <trkpt lat="43.12296" lon="1.08837">
        <ele>429.87014771</ele>
        <time>2021-10-17T10:50:40Z</time>
      </trkpt>
      <trkpt lat="43.12294" lon="1.0884">
        <ele>429.89013672</ele>
        <time>2021-10-17T10:50:41Z</time>
      </trkpt>
      <trkpt lat="43.12292" lon="1.08844">
        <ele>429.97012329</ele>
        <time>2021-10-17T10:50:42Z</time>
      </trkpt>
      <trkpt lat="43.12288" lon="1.0885">
        <ele>429.97012329</ele>
        <time>2021-10-17T10:50:43Z</time>
      </trkpt>
      <trkpt lat="43.12286" lon="1.08854">
        <ele>429.97012329</ele>
        <time>2021-10-17T10:50:44Z</time>
      </trkpt>
      <trkpt lat="43.12284" lon="1.08859">
        <ele>429.9201355</ele>
        <time>2021-10-17T10:50:45Z</time>
      </trkpt>
      <trkpt lat="43.12282" lon="1.08863">
        <ele>429.66012573</ele>
        <time>2021-10-17T10:50:46Z</time>
      </trkpt>
      <trkpt lat="43.12279" lon="1.0887">
        <ele>429.4901123</ele>
        <time>2021-10-17T10:50:47Z</time>
      </trkpt>
      <trkpt lat="43.12277" lon="1.08875">
        <ele>429.26010132</ele>
        <time>2021-10-17T10:50:48Z</time>
      </trkpt>
      <trkpt lat="43.12275" lon="1.0888">
        <ele>429.06008911</ele>
        <time>2021-10-17T10:50:49Z</time>
      </trkpt>
      <trkpt lat="43.12273" lon="1.08885">
        <ele>429.0401001</ele>
        <time>2021-10-17T10:50:50Z</time>
      </trkpt>
      <trkpt lat="43.12271" lon="1.08889">
        <ele>428.84008789</ele>
        <time>2021-10-17T10:50:51Z</time>
      </trkpt>
      <trkpt lat="43.12268" lon="1.08896">
        <ele>428.71008301</ele>
        <time>2021-10-17T10:50:52Z</time>
      </trkpt>
      <trkpt lat="43.12266" lon="1.08902">
        <ele>428.42007446</ele>
        <time>2021-10-17T10:50:53Z</time>
      </trkpt>
      <trkpt lat="43.12265" lon="1.08908">
        <ele>428.06008911</ele>
        <time>2021-10-17T10:50:54Z</time>
      </trkpt>
      <trkpt lat="43.12263" lon="1.08913">
        <ele>427.64007568</ele>
        <time>2021-10-17T10:50:55Z</time>
      </trkpt>
      <trkpt lat="43.1226" lon="1.08922">
        <ele>427.28009033</ele>
        <time>2021-10-17T10:50:56Z</time>
      </trkpt>
      <trkpt lat="43.12258" lon="1.08927">
        <ele>427.10009766</ele>
        <time>2021-10-17T10:50:57Z</time>
      </trkpt>
      <trkpt lat="43.12256" lon="1.08933">
        <ele>426.86010742</ele>
        <time>2021-10-17T10:50:58Z</time>
      </trkpt>
      <trkpt lat="43.12254" lon="1.08939">
        <ele>426.68011475</ele>
        <time>2021-10-17T10:50:59Z</time>
      </trkpt>
      <trkpt lat="43.12252" lon="1.08945">
        <ele>426.47012329</ele>
        <time>2021-10-17T10:51:00Z</time>
      </trkpt>
      <trkpt lat="43.12249" lon="1.08954">
        <ele>426.15011597</ele>
        <time>2021-10-17T10:51:01Z</time>
      </trkpt>
      <trkpt lat="43.12246" lon="1.0896">
        <ele>425.87011719</ele>
        <time>2021-10-17T10:51:02Z</time>
      </trkpt>
      <trkpt lat="43.12244" lon="1.08967">
        <ele>425.6401062</ele>
        <time>2021-10-17T10:51:03Z</time>
      </trkpt>
      <trkpt lat="43.12241" lon="1.08973">
        <ele>425.35009766</ele>
        <time>2021-10-17T10:51:04Z</time>
      </trkpt>
      <trkpt lat="43.12238" lon="1.08982">
        <ele>425.21008301</ele>
        <time>2021-10-17T10:51:05Z</time>
      </trkpt>
      <trkpt lat="43.12236" lon="1.08988">
        <ele>425.03009033</ele>
        <time>2021-10-17T10:51:06Z</time>
      </trkpt>
      <trkpt lat="43.12234" lon="1.08993">
        <ele>424.77008057</ele>
        <time>2021-10-17T10:51:07Z</time>
      </trkpt>
      <trkpt lat="43.12231" lon="1.08999">
        <ele>424.45007324</ele>
        <time>2021-10-17T10:51:08Z</time>
      </trkpt>
      <trkpt lat="43.12229" lon="1.09006">
        <ele>424.21008301</ele>
        <time>2021-10-17T10:51:09Z</time>
      </trkpt>
      <trkpt lat="43.12225" lon="1.09015">
        <ele>423.99008179</ele>
        <time>2021-10-17T10:51:10Z</time>
      </trkpt>
      <trkpt lat="43.12223" lon="1.09021">
        <ele>423.81008911</ele>
        <time>2021-10-17T10:51:11Z</time>
      </trkpt>
      <trkpt lat="43.1222" lon="1.09028">
        <ele>423.49008179</ele>
        <time>2021-10-17T10:51:12Z</time>
      </trkpt>
      <trkpt lat="43.12217" lon="1.09034">
        <ele>423.17007446</ele>
        <time>2021-10-17T10:51:13Z</time>
      </trkpt>
      <trkpt lat="43.12213" lon="1.09043">
        <ele>422.87008667</ele>
        <time>2021-10-17T10:51:14Z</time>
      </trkpt>
      <trkpt lat="43.1221" lon="1.09049">
        <ele>422.28009033</ele>
        <time>2021-10-17T10:51:15Z</time>
      </trkpt>
      <trkpt lat="43.12207" lon="1.09056">
        <ele>421.75009155</ele>
        <time>2021-10-17T10:51:16Z</time>
      </trkpt>
      <trkpt lat="43.12204" lon="1.09063">
        <ele>421.12008667</ele>
        <time>2021-10-17T10:51:17Z</time>
      </trkpt>
      <trkpt lat="43.12202" lon="1.0907">
        <ele>420.59008789</ele>
        <time>2021-10-17T10:51:18Z</time>
      </trkpt>
      <trkpt lat="43.12197" lon="1.09081">
        <ele>420.12008667</ele>
        <time>2021-10-17T10:51:19Z</time>
      </trkpt>
      <trkpt lat="43.12194" lon="1.09088">
        <ele>419.92007446</ele>
        <time>2021-10-17T10:51:20Z</time>
      </trkpt>
      <trkpt lat="43.12191" lon="1.09094">
        <ele>419.56008911</ele>
        <time>2021-10-17T10:51:21Z</time>
      </trkpt>
      <trkpt lat="43.12188" lon="1.09101">
        <ele>418.89007568</ele>
        <time>2021-10-17T10:51:22Z</time>
      </trkpt>
      <trkpt lat="43.12183" lon="1.09112">
        <ele>418.45007324</ele>
        <time>2021-10-17T10:51:23Z</time>
      </trkpt>
      <trkpt lat="43.1218" lon="1.0912">
        <ele>417.67007446</ele>
        <time>2021-10-17T10:51:24Z</time>
      </trkpt>
      <trkpt lat="43.12178" lon="1.09128">
        <ele>417.15008545</ele>
        <time>2021-10-17T10:51:25Z</time>
      </trkpt>
      <trkpt lat="43.12175" lon="1.09136">
        <ele>416.73007202</ele>
        <time>2021-10-17T10:51:26Z</time>
      </trkpt>
      <trkpt lat="43.12174" lon="1.09144">
        <ele>416.17007446</ele>
        <time>2021-10-17T10:51:27Z</time>
      </trkpt>
      <trkpt lat="43.12171" lon="1.09154">
        <ele>415.98007202</ele>
        <time>2021-10-17T10:51:28Z</time>
      </trkpt>
      <trkpt lat="43.12171" lon="1.09161">
        <ele>415.74008179</ele>
        <time>2021-10-17T10:51:29Z</time>
      </trkpt>
      <trkpt lat="43.12172" lon="1.09168">
        <ele>415.52008057</ele>
        <time>2021-10-17T10:51:30Z</time>
      </trkpt>
      <trkpt lat="43.12172" lon="1.09175">
        <ele>415.47009277</ele>
        <time>2021-10-17T10:51:31Z</time>
      </trkpt>
      <trkpt lat="43.12171" lon="1.09185">
        <ele>415.32009888</ele>
        <time>2021-10-17T10:51:32Z</time>
      </trkpt>
      <trkpt lat="43.12169" lon="1.09192">
        <ele>415.05010986</ele>
        <time>2021-10-17T10:51:33Z</time>
      </trkpt>
      <trkpt lat="43.12166" lon="1.09199">
        <ele>414.68011475</ele>
        <time>2021-10-17T10:51:34Z</time>
      </trkpt>
      <trkpt lat="43.12163" lon="1.09206">
        <ele>414.44012451</ele>
        <time>2021-10-17T10:51:35Z</time>
      </trkpt>
      <trkpt lat="43.12161" lon="1.09213">
        <ele>413.88012695</ele>
        <time>2021-10-17T10:51:36Z</time>
      </trkpt>
      <trkpt lat="43.12156" lon="1.09224">
        <ele>413.31011963</ele>
        <time>2021-10-17T10:51:37Z</time>
      </trkpt>
      <trkpt lat="43.12153" lon="1.09232">
        <ele>412.77011108</ele>
        <time>2021-10-17T10:51:38Z</time>
      </trkpt>
      <trkpt lat="43.1215" lon="1.09239">
        <ele>412.20010376</ele>
        <time>2021-10-17T10:51:39Z</time>
      </trkpt>
      <trkpt lat="43.12147" lon="1.09246">
        <ele>411.60009766</ele>
        <time>2021-10-17T10:51:40Z</time>
      </trkpt>
      <trkpt lat="43.12143" lon="1.09257">
        <ele>410.77011108</ele>
        <time>2021-10-17T10:51:41Z</time>
      </trkpt>
      <trkpt lat="43.12139" lon="1.09263">
        <ele>410.16012573</ele>
        <time>2021-10-17T10:51:42Z</time>
      </trkpt>
      <trkpt lat="43.12136" lon="1.09268">
        <ele>409.43011475</ele>
        <time>2021-10-17T10:51:43Z</time>
      </trkpt>
      <trkpt lat="43.12132" lon="1.09272">
        <ele>408.96011353</ele>
        <time>2021-10-17T10:51:44Z</time>
      </trkpt>
      <trkpt lat="43.12128" lon="1.09274">
        <ele>409.03012085</ele>
        <time>2021-10-17T10:51:45Z</time>
      </trkpt>
      <trkpt lat="43.12122" lon="1.09279">
        <ele>408.87011719</ele>
        <time>2021-10-17T10:51:46Z</time>
      </trkpt>
      <trkpt lat="43.12119" lon="1.09284">
        <ele>408.18011475</ele>
        <time>2021-10-17T10:51:47Z</time>
      </trkpt>
      <trkpt lat="43.12116" lon="1.0929">
        <ele>407.5401001</ele>
        <time>2021-10-17T10:51:48Z</time>
      </trkpt>
      <trkpt lat="43.12114" lon="1.09297">
        <ele>406.71011353</ele>
        <time>2021-10-17T10:51:49Z</time>
      </trkpt>
      <trkpt lat="43.12111" lon="1.09308">
        <ele>406.06011963</ele>
        <time>2021-10-17T10:51:50Z</time>
      </trkpt>
      <trkpt lat="43.12108" lon="1.09315">
        <ele>405.50012207</ele>
        <time>2021-10-17T10:51:51Z</time>
      </trkpt>
      <trkpt lat="43.12105" lon="1.09322">
        <ele>404.81011963</ele>
        <time>2021-10-17T10:51:52Z</time>
      </trkpt>
      <trkpt lat="43.12101" lon="1.09329">
        <ele>403.83010864</ele>
        <time>2021-10-17T10:51:53Z</time>
      </trkpt>
      <trkpt lat="43.12097" lon="1.09336">
        <ele>402.55010986</ele>
        <time>2021-10-17T10:51:54Z</time>
      </trkpt>
      <trkpt lat="43.12091" lon="1.09349">
        <ele>401.75012207</ele>
        <time>2021-10-17T10:51:55Z</time>
      </trkpt>
      <trkpt lat="43.12087" lon="1.09356">
        <ele>400.97012329</ele>
        <time>2021-10-17T10:51:56Z</time>
      </trkpt>
      <trkpt lat="43.12083" lon="1.09363">
        <ele>400.46011353</ele>
        <time>2021-10-17T10:51:57Z</time>
      </trkpt>
      <trkpt lat="43.12079" lon="1.0937">
        <ele>400.32009888</ele>
        <time>2021-10-17T10:51:58Z</time>
      </trkpt>
      <trkpt lat="43.12074" lon="1.0938">
        <ele>400.21011353</ele>
        <time>2021-10-17T10:51:59Z</time>
      </trkpt>
      <trkpt lat="43.12069" lon="1.09386">
        <ele>400.3901062</ele>
        <time>2021-10-17T10:52:00Z</time>
      </trkpt>
      <trkpt lat="43.12065" lon="1.09391">
        <ele>400.5401001</ele>
        <time>2021-10-17T10:52:01Z</time>
      </trkpt>
      <trkpt lat="43.1206" lon="1.09395">
        <ele>400.40008545</ele>
        <time>2021-10-17T10:52:02Z</time>
      </trkpt>
      <trkpt lat="43.12057" lon="1.09399">
        <ele>400.33007812</ele>
        <time>2021-10-17T10:52:03Z</time>
      </trkpt>
      <trkpt lat="43.12053" lon="1.09409">
        <ele>399.99008179</ele>
        <time>2021-10-17T10:52:04Z</time>
      </trkpt>
      <trkpt lat="43.12051" lon="1.09415">
        <ele>399.52008057</ele>
        <time>2021-10-17T10:52:05Z</time>
      </trkpt>
      <trkpt lat="43.12048" lon="1.09421">
        <ele>399.32006836</ele>
        <time>2021-10-17T10:52:06Z</time>
      </trkpt>
      <trkpt lat="43.12045" lon="1.09427">
        <ele>399.07006836</ele>
        <time>2021-10-17T10:52:07Z</time>
      </trkpt>
      <trkpt lat="43.12041" lon="1.09436">
        <ele>398.67007446</ele>
        <time>2021-10-17T10:52:08Z</time>
      </trkpt>
      <trkpt lat="43.12039" lon="1.09441">
        <ele>398.44006348</ele>
        <time>2021-10-17T10:52:09Z</time>
      </trkpt>
      <trkpt lat="43.12037" lon="1.09447">
        <ele>398.27005005</ele>
        <time>2021-10-17T10:52:10Z</time>
      </trkpt>
      <trkpt lat="43.12035" lon="1.09453">
        <ele>398.14004517</ele>
        <time>2021-10-17T10:52:11Z</time>
      </trkpt>
      <trkpt lat="43.12033" lon="1.09459">
        <ele>398.10003662</ele>
        <time>2021-10-17T10:52:12Z</time>
      </trkpt>
      <trkpt lat="43.12031" lon="1.09468">
        <ele>398.1300354</ele>
        <time>2021-10-17T10:52:13Z</time>
      </trkpt>
      <trkpt lat="43.1203" lon="1.09473">
        <ele>398.09002686</ele>
        <time>2021-10-17T10:52:14Z</time>
      </trkpt>
      <trkpt lat="43.12028" lon="1.09479">
        <ele>397.83001709</ele>
        <time>2021-10-17T10:52:15Z</time>
      </trkpt>
      <trkpt lat="43.12027" lon="1.09484">
        <ele>397.82000732</ele>
        <time>2021-10-17T10:52:16Z</time>
      </trkpt>
      <trkpt lat="43.12024" lon="1.09492">
        <ele>397.77999878</ele>
        <time>2021-10-17T10:52:17Z</time>
      </trkpt>
      <trkpt lat="43.12023" lon="1.09498">
        <ele>397.52999878</ele>
        <time>2021-10-17T10:52:18Z</time>
      </trkpt>
      <trkpt lat="43.12022" lon="1.09503">
        <ele>397.41000366</ele>
        <time>2021-10-17T10:52:19Z</time>
      </trkpt>
      <trkpt lat="43.12021" lon="1.09508">
        <ele>397.23999023</ele>
        <time>2021-10-17T10:52:20Z</time>
      </trkpt>
      <trkpt lat="43.12019" lon="1.09511">
        <ele>397.04998779</ele>
        <time>2021-10-17T10:52:21Z</time>
      </trkpt>
      <trkpt lat="43.12016" lon="1.09517">
        <ele>397.05999756</ele>
        <time>2021-10-17T10:52:22Z</time>
      </trkpt>
      <trkpt lat="43.12014" lon="1.09522">
        <ele>396.95001221</ele>
        <time>2021-10-17T10:52:23Z</time>
      </trkpt>
      <trkpt lat="43.12012" lon="1.09527">
        <ele>396.76000977</ele>
        <time>2021-10-17T10:52:24Z</time>
      </trkpt>
      <trkpt lat="43.1201" lon="1.09533">
        <ele>396.33001709</ele>
        <time>2021-10-17T10:52:25Z</time>
      </trkpt>
      <trkpt lat="43.12008" lon="1.09539">
        <ele>395.84002686</ele>
        <time>2021-10-17T10:52:26Z</time>
      </trkpt>
      <trkpt lat="43.12002" lon="1.09543">
        <ele>395.43002319</ele>
        <time>2021-10-17T10:52:27Z</time>
      </trkpt>
      <trkpt lat="43.11997" lon="1.09544">
        <ele>394.98001099</ele>
        <time>2021-10-17T10:52:28Z</time>
      </trkpt>
      <trkpt lat="43.11991" lon="1.09545">
        <ele>394.67001343</ele>
        <time>2021-10-17T10:52:29Z</time>
      </trkpt>
      <trkpt lat="43.11986" lon="1.09545">
        <ele>394.32000732</ele>
        <time>2021-10-17T10:52:30Z</time>
      </trkpt>
      <trkpt lat="43.11979" lon="1.09542">
        <ele>394</ele>
        <time>2021-10-17T10:52:31Z</time>
      </trkpt>
      <trkpt lat="43.11974" lon="1.09538">
        <ele>393.35998535</ele>
        <time>2021-10-17T10:52:32Z</time>
      </trkpt>
      <trkpt lat="43.11971" lon="1.09535">
        <ele>392.76998901</ele>
        <time>2021-10-17T10:52:33Z</time>
      </trkpt>
      <trkpt lat="43.11967" lon="1.09531">
        <ele>392.33999634</ele>
        <time>2021-10-17T10:52:34Z</time>
      </trkpt>
      <trkpt lat="43.11961" lon="1.09526">
        <ele>391.79000854</ele>
        <time>2021-10-17T10:52:35Z</time>
      </trkpt>
      <trkpt lat="43.11957" lon="1.09521">
        <ele>391.17001343</ele>
        <time>2021-10-17T10:52:36Z</time>
      </trkpt>
      <trkpt lat="43.11952" lon="1.09518">
        <ele>390.51000977</ele>
        <time>2021-10-17T10:52:37Z</time>
      </trkpt>
      <trkpt lat="43.11946" lon="1.09514">
        <ele>389.69000244</ele>
        <time>2021-10-17T10:52:38Z</time>
      </trkpt>
      <trkpt lat="43.11941" lon="1.09511">
        <ele>388.95001221</ele>
        <time>2021-10-17T10:52:39Z</time>
      </trkpt>
      <trkpt lat="43.11931" lon="1.09507">
        <ele>388.38000488</ele>
        <time>2021-10-17T10:52:40Z</time>
      </trkpt>
      <trkpt lat="43.11925" lon="1.09505">
        <ele>388.08999634</ele>
        <time>2021-10-17T10:52:41Z</time>
      </trkpt>
      <trkpt lat="43.1192" lon="1.09505">
        <ele>387.48999023</ele>
        <time>2021-10-17T10:52:42Z</time>
      </trkpt>
      <trkpt lat="43.11915" lon="1.09504">
        <ele>387.22998047</ele>
        <time>2021-10-17T10:52:43Z</time>
      </trkpt>
      <trkpt lat="43.11912" lon="1.09504">
        <ele>387.34997559</ele>
        <time>2021-10-17T10:52:44Z</time>
      </trkpt>
      <trkpt lat="43.1191" lon="1.09504">
        <ele>387.18997192</ele>
        <time>2021-10-17T10:52:45Z</time>
      </trkpt>
      <trkpt lat="43.11909" lon="1.09504">
        <ele>387.55996704</ele>
        <time>2021-10-17T10:52:46Z</time>
      </trkpt>
      <trkpt lat="43.11908" lon="1.09506">
        <ele>387.68997192</ele>
        <time>2021-10-17T10:52:47Z</time>
      </trkpt>
      <trkpt lat="43.11909" lon="1.0951">
        <ele>387.66998291</ele>
        <time>2021-10-17T10:52:48Z</time>
      </trkpt>
      <trkpt lat="43.11911" lon="1.09514">
        <ele>387.63998413</ele>
        <time>2021-10-17T10:52:49Z</time>
      </trkpt>
      <trkpt lat="43.11912" lon="1.09518">
        <ele>387.44998169</ele>
        <time>2021-10-17T10:52:50Z</time>
      </trkpt>
      <trkpt lat="43.11915" lon="1.09522">
        <ele>387.19998169</ele>
        <time>2021-10-17T10:52:51Z</time>
      </trkpt>
      <trkpt lat="43.11917" lon="1.09527">
        <ele>386.93997192</ele>
        <time>2021-10-17T10:52:52Z</time>
      </trkpt>
      <trkpt lat="43.11921" lon="1.09535">
        <ele>386.53997803</ele>
        <time>2021-10-17T10:52:53Z</time>
      </trkpt>
      <trkpt lat="43.11924" lon="1.09541">
        <ele>386.05996704</ele>
        <time>2021-10-17T10:52:54Z</time>
      </trkpt>
      <trkpt lat="43.11928" lon="1.09546">
        <ele>385.5199585</ele>
        <time>2021-10-17T10:52:55Z</time>
      </trkpt>
      <trkpt lat="43.11932" lon="1.09552">
        <ele>384.99996948</ele>
        <time>2021-10-17T10:52:56Z</time>
      </trkpt>
      <trkpt lat="43.11935" lon="1.09558">
        <ele>384.80996704</ele>
        <time>2021-10-17T10:52:57Z</time>
      </trkpt>
      <trkpt lat="43.1194" lon="1.09567">
        <ele>384.77996826</ele>
        <time>2021-10-17T10:52:58Z</time>
      </trkpt>
      <trkpt lat="43.11943" lon="1.09574">
        <ele>384.67996216</ele>
        <time>2021-10-17T10:52:59Z</time>
      </trkpt>
      <trkpt lat="43.11944" lon="1.09581">
        <ele>384.59997559</ele>
        <time>2021-10-17T10:53:00Z</time>
      </trkpt>
      <trkpt lat="43.11944" lon="1.09588">
        <ele>384.37997437</ele>
        <time>2021-10-17T10:53:01Z</time>
      </trkpt>
      <trkpt lat="43.11941" lon="1.09598">
        <ele>384.2199707</ele>
        <time>2021-10-17T10:53:02Z</time>
      </trkpt>
      <trkpt lat="43.11938" lon="1.09605">
        <ele>384.23995972</ele>
        <time>2021-10-17T10:53:03Z</time>
      </trkpt>
      <trkpt lat="43.11935" lon="1.09611">
        <ele>384.31994629</ele>
        <time>2021-10-17T10:53:04Z</time>
      </trkpt>
      <trkpt lat="43.11932" lon="1.09616">
        <ele>384.53994751</ele>
        <time>2021-10-17T10:53:05Z</time>
      </trkpt>
      <trkpt lat="43.1193" lon="1.09622">
        <ele>384.61993408</ele>
        <time>2021-10-17T10:53:06Z</time>
      </trkpt>
      <trkpt lat="43.11926" lon="1.0963">
        <ele>384.74993896</ele>
        <time>2021-10-17T10:53:07Z</time>
      </trkpt>
      <trkpt lat="43.11923" lon="1.09635">
        <ele>384.87994385</ele>
        <time>2021-10-17T10:53:08Z</time>
      </trkpt>
      <trkpt lat="43.1192" lon="1.0964">
        <ele>384.94995117</ele>
        <time>2021-10-17T10:53:09Z</time>
      </trkpt>
      <trkpt lat="43.11918" lon="1.09645">
        <ele>385.25994873</ele>
        <time>2021-10-17T10:53:10Z</time>
      </trkpt>
      <trkpt lat="43.11914" lon="1.09652">
        <ele>385.56994629</ele>
        <time>2021-10-17T10:53:11Z</time>
      </trkpt>
      <trkpt lat="43.11911" lon="1.09657">
        <ele>385.81994629</ele>
        <time>2021-10-17T10:53:12Z</time>
      </trkpt>
      <trkpt lat="43.11909" lon="1.09661">
        <ele>386.03994751</ele>
        <time>2021-10-17T10:53:13Z</time>
      </trkpt>
      <trkpt lat="43.11907" lon="1.09665">
        <ele>386.17996216</ele>
        <time>2021-10-17T10:53:14Z</time>
      </trkpt>
      <trkpt lat="43.11905" lon="1.0967">
        <ele>386.30996704</ele>
        <time>2021-10-17T10:53:15Z</time>
      </trkpt>
      <trkpt lat="43.11902" lon="1.09676">
        <ele>386.52996826</ele>
        <time>2021-10-17T10:53:16Z</time>
      </trkpt>
      <trkpt lat="43.11901" lon="1.09677">
        <ele>386.51000977</ele>
        <time>2021-10-17T10:53:16Z</time>
      </trkpt>
      <trkpt lat="43.11899" lon="1.09681">
        <ele>386.77001953</ele>
        <time>2021-10-17T10:53:17Z</time>
      </trkpt>
      <trkpt lat="43.11897" lon="1.09685">
        <ele>386.77001953</ele>
        <time>2021-10-17T10:53:18Z</time>
      </trkpt>
      <trkpt lat="43.11895" lon="1.09689">
        <ele>387.20001221</ele>
        <time>2021-10-17T10:53:19Z</time>
      </trkpt>
      <trkpt lat="43.11892" lon="1.09695">
        <ele>387.39001465</ele>
        <time>2021-10-17T10:53:20Z</time>
      </trkpt>
      <trkpt lat="43.1189" lon="1.097">
        <ele>387.55001831</ele>
        <time>2021-10-17T10:53:21Z</time>
      </trkpt>
      <trkpt lat="43.11888" lon="1.09704">
        <ele>387.75003052</ele>
        <time>2021-10-17T10:53:22Z</time>
      </trkpt>
      <trkpt lat="43.11886" lon="1.09708">
        <ele>387.92004395</ele>
        <time>2021-10-17T10:53:23Z</time>
      </trkpt>
      <trkpt lat="43.11884" lon="1.09711">
        <ele>388.10003662</ele>
        <time>2021-10-17T10:53:24Z</time>
      </trkpt>
      <trkpt lat="43.11882" lon="1.09717">
        <ele>388.31002808</ele>
        <time>2021-10-17T10:53:25Z</time>
      </trkpt>
      <trkpt lat="43.1188" lon="1.09721">
        <ele>388.51004028</ele>
        <time>2021-10-17T10:53:26Z</time>
      </trkpt>
      <trkpt lat="43.11878" lon="1.09725">
        <ele>388.76004028</ele>
        <time>2021-10-17T10:53:27Z</time>
      </trkpt>
      <trkpt lat="43.11876" lon="1.09729">
        <ele>389.02005005</ele>
        <time>2021-10-17T10:53:28Z</time>
      </trkpt>
      <trkpt lat="43.11873" lon="1.09735">
        <ele>389.18005371</ele>
        <time>2021-10-17T10:53:29Z</time>
      </trkpt>
      <trkpt lat="43.11871" lon="1.09739">
        <ele>389.38006592</ele>
        <time>2021-10-17T10:53:30Z</time>
      </trkpt>
      <trkpt lat="43.1187" lon="1.09743">
        <ele>389.5100708</ele>
        <time>2021-10-17T10:53:31Z</time>
      </trkpt>
      <trkpt lat="43.11868" lon="1.09747">
        <ele>389.64007568</ele>
        <time>2021-10-17T10:53:32Z</time>
      </trkpt>
      <trkpt lat="43.11866" lon="1.09751">
        <ele>389.92007446</ele>
        <time>2021-10-17T10:53:33Z</time>
      </trkpt>
      <trkpt lat="43.11864" lon="1.09757">
        <ele>390.17007446</ele>
        <time>2021-10-17T10:53:34Z</time>
      </trkpt>
      <trkpt lat="43.11862" lon="1.0976">
        <ele>390.47006226</ele>
        <time>2021-10-17T10:53:35Z</time>
      </trkpt>
      <trkpt lat="43.11861" lon="1.09764">
        <ele>390.78005981</ele>
        <time>2021-10-17T10:53:36Z</time>
      </trkpt>
      <trkpt lat="43.11859" lon="1.09768">
        <ele>391.04006958</ele>
        <time>2021-10-17T10:53:37Z</time>
      </trkpt>
      <trkpt lat="43.11857" lon="1.09772">
        <ele>391.29006958</ele>
        <time>2021-10-17T10:53:38Z</time>
      </trkpt>
      <trkpt lat="43.11855" lon="1.09777">
        <ele>391.59005737</ele>
        <time>2021-10-17T10:53:39Z</time>
      </trkpt>
      <trkpt lat="43.11853" lon="1.09781">
        <ele>391.83004761</ele>
        <time>2021-10-17T10:53:40Z</time>
      </trkpt>
      <trkpt lat="43.11851" lon="1.09784">
        <ele>392.06005859</ele>
        <time>2021-10-17T10:53:41Z</time>
      </trkpt>
      <trkpt lat="43.11849" lon="1.09788">
        <ele>392.33004761</ele>
        <time>2021-10-17T10:53:42Z</time>
      </trkpt>
      <trkpt lat="43.11846" lon="1.09793">
        <ele>392.58004761</ele>
        <time>2021-10-17T10:53:43Z</time>
      </trkpt>
      <trkpt lat="43.11845" lon="1.09798">
        <ele>392.91003418</ele>
        <time>2021-10-17T10:53:44Z</time>
      </trkpt>
      <trkpt lat="43.11843" lon="1.09801">
        <ele>393.24002075</ele>
        <time>2021-10-17T10:53:45Z</time>
      </trkpt>
      <trkpt lat="43.11842" lon="1.09805">
        <ele>393.48001099</ele>
        <time>2021-10-17T10:53:46Z</time>
      </trkpt>
      <trkpt lat="43.1184" lon="1.09811">
        <ele>393.71002197</ele>
        <time>2021-10-17T10:53:47Z</time>
      </trkpt>
      <trkpt lat="43.11839" lon="1.09815">
        <ele>393.89001465</ele>
        <time>2021-10-17T10:53:48Z</time>
      </trkpt>
      <trkpt lat="43.11838" lon="1.09819">
        <ele>394.08001709</ele>
        <time>2021-10-17T10:53:49Z</time>
      </trkpt>
      <trkpt lat="43.11836" lon="1.09823">
        <ele>394.29000854</ele>
        <time>2021-10-17T10:53:50Z</time>
      </trkpt>
      <trkpt lat="43.11835" lon="1.09827">
        <ele>394.47000122</ele>
        <time>2021-10-17T10:53:51Z</time>
      </trkpt>
      <trkpt lat="43.11833" lon="1.09833">
        <ele>394.70001221</ele>
        <time>2021-10-17T10:53:52Z</time>
      </trkpt>
      <trkpt lat="43.11832" lon="1.09837">
        <ele>394.88000488</ele>
        <time>2021-10-17T10:53:53Z</time>
      </trkpt>
      <trkpt lat="43.11831" lon="1.0984">
        <ele>395.08001709</ele>
        <time>2021-10-17T10:53:54Z</time>
      </trkpt>
      <trkpt lat="43.11829" lon="1.09845">
        <ele>395.29000854</ele>
        <time>2021-10-17T10:53:55Z</time>
      </trkpt>
      <trkpt lat="43.11828" lon="1.09848">
        <ele>395.46002197</ele>
        <time>2021-10-17T10:53:56Z</time>
      </trkpt>
      <trkpt lat="43.11826" lon="1.09854">
        <ele>395.66003418</ele>
        <time>2021-10-17T10:53:57Z</time>
      </trkpt>
      <trkpt lat="43.11824" lon="1.09857">
        <ele>395.84002686</ele>
        <time>2021-10-17T10:53:58Z</time>
      </trkpt>
      <trkpt lat="43.11823" lon="1.09861">
        <ele>396.00003052</ele>
        <time>2021-10-17T10:53:59Z</time>
      </trkpt>
      <trkpt lat="43.11822" lon="1.09864">
        <ele>396.16003418</ele>
        <time>2021-10-17T10:54:00Z</time>
      </trkpt>
      <trkpt lat="43.1182" lon="1.0987">
        <ele>396.25003052</ele>
        <time>2021-10-17T10:54:01Z</time>
      </trkpt>
      <trkpt lat="43.11819" lon="1.09873">
        <ele>396.31002808</ele>
        <time>2021-10-17T10:54:02Z</time>
      </trkpt>
      <trkpt lat="43.11818" lon="1.09877">
        <ele>396.43002319</ele>
        <time>2021-10-17T10:54:03Z</time>
      </trkpt>
      <trkpt lat="43.11817" lon="1.09881">
        <ele>396.57003784</ele>
        <time>2021-10-17T10:54:04Z</time>
      </trkpt>
      <trkpt lat="43.11815" lon="1.09886">
        <ele>396.79003906</ele>
        <time>2021-10-17T10:54:05Z</time>
      </trkpt>
      <trkpt lat="43.11814" lon="1.0989">
        <ele>397.06002808</ele>
        <time>2021-10-17T10:54:06Z</time>
      </trkpt>
      <trkpt lat="43.11813" lon="1.09893">
        <ele>397.26004028</ele>
        <time>2021-10-17T10:54:07Z</time>
      </trkpt>
      <trkpt lat="43.11812" lon="1.09897">
        <ele>397.46005249</ele>
        <time>2021-10-17T10:54:08Z</time>
      </trkpt>
      <trkpt lat="43.11811" lon="1.09901">
        <ele>397.6600647</ele>
        <time>2021-10-17T10:54:09Z</time>
      </trkpt>
      <trkpt lat="43.11809" lon="1.09906">
        <ele>397.83007812</ele>
        <time>2021-10-17T10:54:10Z</time>
      </trkpt>
      <trkpt lat="43.11808" lon="1.0991">
        <ele>398.00009155</ele>
        <time>2021-10-17T10:54:11Z</time>
      </trkpt>
      <trkpt lat="43.11807" lon="1.09913">
        <ele>398.16009521</ele>
        <time>2021-10-17T10:54:12Z</time>
      </trkpt>
      <trkpt lat="43.11806" lon="1.09916">
        <ele>398.27008057</ele>
        <time>2021-10-17T10:54:13Z</time>
      </trkpt>
      <trkpt lat="43.11805" lon="1.09919">
        <ele>398.39007568</ele>
        <time>2021-10-17T10:54:14Z</time>
      </trkpt>
      <trkpt lat="43.11803" lon="1.09924">
        <ele>398.50006104</ele>
        <time>2021-10-17T10:54:15Z</time>
      </trkpt>
      <trkpt lat="43.11801" lon="1.09927">
        <ele>398.57006836</ele>
        <time>2021-10-17T10:54:16Z</time>
      </trkpt>
      <trkpt lat="43.118" lon="1.0993">
        <ele>398.67007446</ele>
        <time>2021-10-17T10:54:17Z</time>
      </trkpt>
      <trkpt lat="43.11799" lon="1.09933">
        <ele>398.7600708</ele>
        <time>2021-10-17T10:54:18Z</time>
      </trkpt>
      <trkpt lat="43.11797" lon="1.09937">
        <ele>398.87005615</ele>
        <time>2021-10-17T10:54:19Z</time>
      </trkpt>
      <trkpt lat="43.11795" lon="1.09939">
        <ele>399.0100708</ele>
        <time>2021-10-17T10:54:20Z</time>
      </trkpt>
      <trkpt lat="43.11794" lon="1.09941">
        <ele>399.1100769</ele>
        <time>2021-10-17T10:54:21Z</time>
      </trkpt>
      <trkpt lat="43.11793" lon="1.09942">
        <ele>399.21008301</ele>
        <time>2021-10-17T10:54:22Z</time>
      </trkpt>
      <trkpt lat="43.11792" lon="1.09944">
        <ele>400.95007324</ele>
        <time>2021-10-17T10:54:23Z</time>
      </trkpt>
      <trkpt lat="43.11791" lon="1.09946">
        <ele>401.05007935</ele>
        <time>2021-10-17T10:54:24Z</time>
      </trkpt>
      <trkpt lat="43.1179" lon="1.09947">
        <ele>401.14007568</ele>
        <time>2021-10-17T10:54:25Z</time>
      </trkpt>
      <trkpt lat="43.11789" lon="1.09948">
        <ele>401.24008179</ele>
        <time>2021-10-17T10:54:26Z</time>
      </trkpt>
      <trkpt lat="43.11788" lon="1.09949">
        <ele>401.23007202</ele>
        <time>2021-10-17T10:54:27Z</time>
      </trkpt>
      <trkpt lat="43.11786" lon="1.09951">
        <ele>401.2600708</ele>
        <time>2021-10-17T10:54:28Z</time>
      </trkpt>
      <trkpt lat="43.11786" lon="1.09953">
        <ele>401.27008057</ele>
        <time>2021-10-17T10:54:29Z</time>
      </trkpt>
      <trkpt lat="43.11786" lon="1.09955">
        <ele>401.24008179</ele>
        <time>2021-10-17T10:54:30Z</time>
      </trkpt>
      <trkpt lat="43.11786" lon="1.09957">
        <ele>401.24008179</ele>
        <time>2021-10-17T10:54:31Z</time>
      </trkpt>
      <trkpt lat="43.11787" lon="1.09958">
        <ele>401.24008179</ele>
        <time>2021-10-17T10:54:32Z</time>
      </trkpt>
      <trkpt lat="43.11787" lon="1.09959">
        <ele>401.38009644</ele>
        <time>2021-10-17T10:54:33Z</time>
      </trkpt>
      <trkpt lat="43.11788" lon="1.09959">
        <ele>402.23999023</ele>
        <time>2021-10-17T10:54:57Z</time>
      </trkpt>
      <trkpt lat="43.11789" lon="1.09958">
        <ele>402.16998291</ele>
        <time>2021-10-17T10:54:58Z</time>
      </trkpt>
      <trkpt lat="43.11791" lon="1.09956">
        <ele>402.00997925</ele>
        <time>2021-10-17T10:54:59Z</time>
      </trkpt>
      <trkpt lat="43.11793" lon="1.09955">
        <ele>401.90997314</ele>
        <time>2021-10-17T10:55:00Z</time>
      </trkpt>
      <trkpt lat="43.11795" lon="1.09954">
        <ele>401.75997925</ele>
        <time>2021-10-17T10:55:01Z</time>
      </trkpt>
      <trkpt lat="43.11797" lon="1.09953">
        <ele>401.75997925</ele>
        <time>2021-10-17T10:55:02Z</time>
      </trkpt>
      <trkpt lat="43.118" lon="1.09952">
        <ele>401.98999023</ele>
        <time>2021-10-17T10:55:03Z</time>
      </trkpt>
      <trkpt lat="43.11803" lon="1.09951">
        <ele>402.28997803</ele>
        <time>2021-10-17T10:55:04Z</time>
      </trkpt>
      <trkpt lat="43.11806" lon="1.09949">
        <ele>402.67999268</ele>
        <time>2021-10-17T10:55:05Z</time>
      </trkpt>
      <trkpt lat="43.11808" lon="1.09948">
        <ele>403.01998901</ele>
        <time>2021-10-17T10:55:06Z</time>
      </trkpt>
      <trkpt lat="43.1181" lon="1.09947">
        <ele>403.27999878</ele>
        <time>2021-10-17T10:55:07Z</time>
      </trkpt>
      <trkpt lat="43.11814" lon="1.09945">
        <ele>403.54998779</ele>
        <time>2021-10-17T10:55:08Z</time>
      </trkpt>
      <trkpt lat="43.11816" lon="1.09943">
        <ele>403.87997437</ele>
        <time>2021-10-17T10:55:09Z</time>
      </trkpt>
      <trkpt lat="43.11819" lon="1.09942">
        <ele>404.18997192</ele>
        <time>2021-10-17T10:55:10Z</time>
      </trkpt>
      <trkpt lat="43.11821" lon="1.0994">
        <ele>404.41998291</ele>
        <time>2021-10-17T10:55:11Z</time>
      </trkpt>
      <trkpt lat="43.11824" lon="1.09939">
        <ele>404.53997803</ele>
        <time>2021-10-17T10:55:12Z</time>
      </trkpt>
      <trkpt lat="43.11826" lon="1.09938">
        <ele>404.63998413</ele>
        <time>2021-10-17T10:55:13Z</time>
      </trkpt>
      <trkpt lat="43.11828" lon="1.09937">
        <ele>404.63998413</ele>
        <time>2021-10-17T10:55:14Z</time>
      </trkpt>
      <trkpt lat="43.1183" lon="1.09935">
        <ele>404.74996948</ele>
        <time>2021-10-17T10:55:15Z</time>
      </trkpt>
      <trkpt lat="43.11833" lon="1.09934">
        <ele>404.85995483</ele>
        <time>2021-10-17T10:55:16Z</time>
      </trkpt>
      <trkpt lat="43.11837" lon="1.09929">
        <ele>404.87994385</ele>
        <time>2021-10-17T10:55:17Z</time>
      </trkpt>
      <trkpt lat="43.11839" lon="1.09926">
        <ele>405.03994751</ele>
        <time>2021-10-17T10:55:18Z</time>
      </trkpt>
      <trkpt lat="43.11842" lon="1.09923">
        <ele>405.12994385</ele>
        <time>2021-10-17T10:55:19Z</time>
      </trkpt>
      <trkpt lat="43.11845" lon="1.0992">
        <ele>405.2699585</ele>
        <time>2021-10-17T10:55:20Z</time>
      </trkpt>
      <trkpt lat="43.11848" lon="1.09917">
        <ele>405.43997192</ele>
        <time>2021-10-17T10:55:21Z</time>
      </trkpt>
      <trkpt lat="43.11852" lon="1.09913">
        <ele>405.50997925</ele>
        <time>2021-10-17T10:55:22Z</time>
      </trkpt>
      <trkpt lat="43.11855" lon="1.0991">
        <ele>407.09997559</ele>
        <time>2021-10-17T10:55:23Z</time>
      </trkpt>
      <trkpt lat="43.11857" lon="1.09907">
        <ele>407.05996704</ele>
        <time>2021-10-17T10:55:24Z</time>
      </trkpt>
      <trkpt lat="43.11859" lon="1.09904">
        <ele>407.00997925</ele>
        <time>2021-10-17T10:55:25Z</time>
      </trkpt>
      <trkpt lat="43.11862" lon="1.09899">
        <ele>406.98999023</ele>
        <time>2021-10-17T10:55:26Z</time>
      </trkpt>
      <trkpt lat="43.11864" lon="1.09896">
        <ele>407</ele>
        <time>2021-10-17T10:55:27Z</time>
      </trkpt>
      <trkpt lat="43.11866" lon="1.09892">
        <ele>407</ele>
        <time>2021-10-17T10:55:28Z</time>
      </trkpt>
      <trkpt lat="43.11868" lon="1.09888">
        <ele>406.95999146</ele>
        <time>2021-10-17T10:55:29Z</time>
      </trkpt>
      <trkpt lat="43.1187" lon="1.09884">
        <ele>406.85998535</ele>
        <time>2021-10-17T10:55:30Z</time>
      </trkpt>
      <trkpt lat="43.11874" lon="1.09877">
        <ele>406.53997803</ele>
        <time>2021-10-17T10:55:31Z</time>
      </trkpt>
      <trkpt lat="43.11876" lon="1.09872">
        <ele>406.18997192</ele>
        <time>2021-10-17T10:55:32Z</time>
      </trkpt>
      <trkpt lat="43.11879" lon="1.09867">
        <ele>405.78997803</ele>
        <time>2021-10-17T10:55:33Z</time>
      </trkpt>
      <trkpt lat="43.11881" lon="1.09861">
        <ele>405.41998291</ele>
        <time>2021-10-17T10:55:34Z</time>
      </trkpt>
      <trkpt lat="43.11885" lon="1.09852">
        <ele>405.1499939</ele>
        <time>2021-10-17T10:55:35Z</time>
      </trkpt>
      <trkpt lat="43.11888" lon="1.09847">
        <ele>404.91000366</ele>
        <time>2021-10-17T10:55:36Z</time>
      </trkpt>
      <trkpt lat="43.11891" lon="1.09841">
        <ele>404.77999878</ele>
        <time>2021-10-17T10:55:37Z</time>
      </trkpt>
      <trkpt lat="43.11894" lon="1.09836">
        <ele>404.57000732</ele>
        <time>2021-10-17T10:55:38Z</time>
      </trkpt>
      <trkpt lat="43.11899" lon="1.09829">
        <ele>404.41000366</ele>
        <time>2021-10-17T10:55:39Z</time>
      </trkpt>
      <trkpt lat="43.11902" lon="1.09825">
        <ele>404.27999878</ele>
        <time>2021-10-17T10:55:40Z</time>
      </trkpt>
      <trkpt lat="43.11905" lon="1.0982">
        <ele>404.11999512</ele>
        <time>2021-10-17T10:55:41Z</time>
      </trkpt>
      <trkpt lat="43.11908" lon="1.09815">
        <ele>404.07998657</ele>
        <time>2021-10-17T10:55:42Z</time>
      </trkpt>
      <trkpt lat="43.11911" lon="1.0981">
        <ele>404.04998779</ele>
        <time>2021-10-17T10:55:43Z</time>
      </trkpt>
      <trkpt lat="43.11914" lon="1.09805">
        <ele>404.04998779</ele>
        <time>2021-10-17T10:55:44Z</time>
      </trkpt>
      <trkpt lat="43.11917" lon="1.09797">
        <ele>404.03997803</ele>
        <time>2021-10-17T10:55:45Z</time>
      </trkpt>
      <trkpt lat="43.11919" lon="1.09791">
        <ele>403.82998657</ele>
        <time>2021-10-17T10:55:46Z</time>
      </trkpt>
      <trkpt lat="43.11921" lon="1.09784">
        <ele>403.45999146</ele>
        <time>2021-10-17T10:55:47Z</time>
      </trkpt>
      <trkpt lat="43.11923" lon="1.09777">
        <ele>402.92999268</ele>
        <time>2021-10-17T10:55:48Z</time>
      </trkpt>
      <trkpt lat="43.11925" lon="1.09765">
        <ele>402.26998901</ele>
        <time>2021-10-17T10:55:49Z</time>
      </trkpt>
      <trkpt lat="43.11927" lon="1.09757">
        <ele>401.61999512</ele>
        <time>2021-10-17T10:55:50Z</time>
      </trkpt>
      <trkpt lat="43.1193" lon="1.09749">
        <ele>401</ele>
        <time>2021-10-17T10:55:51Z</time>
      </trkpt>
      <trkpt lat="43.11933" lon="1.09742">
        <ele>400.45999146</ele>
        <time>2021-10-17T10:55:52Z</time>
      </trkpt>
      <trkpt lat="43.1194" lon="1.09733">
        <ele>399.97000122</ele>
        <time>2021-10-17T10:55:53Z</time>
      </trkpt>
      <trkpt lat="43.11946" lon="1.09728">
        <ele>399.63000488</ele>
        <time>2021-10-17T10:55:54Z</time>
      </trkpt>
      <trkpt lat="43.11953" lon="1.09724">
        <ele>399.33999634</ele>
        <time>2021-10-17T10:55:55Z</time>
      </trkpt>
      <trkpt lat="43.11959" lon="1.09722">
        <ele>399.07000732</ele>
        <time>2021-10-17T10:55:56Z</time>
      </trkpt>
      <trkpt lat="43.11965" lon="1.09723">
        <ele>398.77001953</ele>
        <time>2021-10-17T10:55:57Z</time>
      </trkpt>
      <trkpt lat="43.11972" lon="1.09727">
        <ele>398.63000488</ele>
        <time>2021-10-17T10:55:58Z</time>
      </trkpt>
      <trkpt lat="43.11976" lon="1.09733">
        <ele>398.3500061</ele>
        <time>2021-10-17T10:55:59Z</time>
      </trkpt>
      <trkpt lat="43.1198" lon="1.0974">
        <ele>397.86999512</ele>
        <time>2021-10-17T10:56:00Z</time>
      </trkpt>
      <trkpt lat="43.11984" lon="1.09747">
        <ele>397.27999878</ele>
        <time>2021-10-17T10:56:01Z</time>
      </trkpt>
      <trkpt lat="43.11991" lon="1.09758">
        <ele>396.3500061</ele>
        <time>2021-10-17T10:56:02Z</time>
      </trkpt>
      <trkpt lat="43.11997" lon="1.09764">
        <ele>395.61999512</ele>
        <time>2021-10-17T10:56:03Z</time>
      </trkpt>
      <trkpt lat="43.12003" lon="1.09768">
        <ele>395.01998901</ele>
        <time>2021-10-17T10:56:04Z</time>
      </trkpt>
      <trkpt lat="43.1201" lon="1.0977">
        <ele>394.66998291</ele>
        <time>2021-10-17T10:56:05Z</time>
      </trkpt>
      <trkpt lat="43.12017" lon="1.0977">
        <ele>394.51998901</ele>
        <time>2021-10-17T10:56:06Z</time>
      </trkpt>
      <trkpt lat="43.12027" lon="1.09768">
        <ele>394.45999146</ele>
        <time>2021-10-17T10:56:07Z</time>
      </trkpt>
      <trkpt lat="43.12032" lon="1.09765">
        <ele>394.56997681</ele>
        <time>2021-10-17T10:56:08Z</time>
      </trkpt>
      <trkpt lat="43.12038" lon="1.09762">
        <ele>394.76998901</ele>
        <time>2021-10-17T10:56:09Z</time>
      </trkpt>
      <trkpt lat="43.12043" lon="1.09758">
        <ele>395.02999878</ele>
        <time>2021-10-17T10:56:10Z</time>
      </trkpt>
      <trkpt lat="43.1205" lon="1.09754">
        <ele>395.1499939</ele>
        <time>2021-10-17T10:56:11Z</time>
      </trkpt>
      <trkpt lat="43.12054" lon="1.09753">
        <ele>395.30999756</ele>
        <time>2021-10-17T10:56:12Z</time>
      </trkpt>
      <trkpt lat="43.12058" lon="1.09751">
        <ele>395.73999023</ele>
        <time>2021-10-17T10:56:13Z</time>
      </trkpt>
      <trkpt lat="43.12062" lon="1.0975">
        <ele>396.22998047</ele>
        <time>2021-10-17T10:56:14Z</time>
      </trkpt>
      <trkpt lat="43.12066" lon="1.09749">
        <ele>396.90997314</ele>
        <time>2021-10-17T10:56:15Z</time>
      </trkpt>
      <trkpt lat="43.12071" lon="1.09748">
        <ele>397.52996826</ele>
        <time>2021-10-17T10:56:16Z</time>
      </trkpt>
      <trkpt lat="43.12073" lon="1.09747">
        <ele>397.89996338</ele>
        <time>2021-10-17T10:56:17Z</time>
      </trkpt>
      <trkpt lat="43.12076" lon="1.09747">
        <ele>398.28997803</ele>
        <time>2021-10-17T10:56:18Z</time>
      </trkpt>
      <trkpt lat="43.12079" lon="1.09747">
        <ele>398.75997925</ele>
        <time>2021-10-17T10:56:19Z</time>
      </trkpt>
      <trkpt lat="43.12083" lon="1.09746">
        <ele>399.26998901</ele>
        <time>2021-10-17T10:56:20Z</time>
      </trkpt>
      <trkpt lat="43.12086" lon="1.09746">
        <ele>399.81997681</ele>
        <time>2021-10-17T10:56:21Z</time>
      </trkpt>
      <trkpt lat="43.12088" lon="1.09745">
        <ele>400.29998779</ele>
        <time>2021-10-17T10:56:22Z</time>
      </trkpt>
      <trkpt lat="43.12091" lon="1.09745">
        <ele>400.6499939</ele>
        <time>2021-10-17T10:56:23Z</time>
      </trkpt>
      <trkpt lat="43.12094" lon="1.09745">
        <ele>400.91998291</ele>
        <time>2021-10-17T10:56:24Z</time>
      </trkpt>
      <trkpt lat="43.121" lon="1.09744">
        <ele>401.09997559</ele>
        <time>2021-10-17T10:56:25Z</time>
      </trkpt>
      <trkpt lat="43.12103" lon="1.09743">
        <ele>401.15997314</ele>
        <time>2021-10-17T10:56:26Z</time>
      </trkpt>
      <trkpt lat="43.12107" lon="1.09742">
        <ele>401.16998291</ele>
        <time>2021-10-17T10:56:27Z</time>
      </trkpt>
      <trkpt lat="43.12111" lon="1.09741">
        <ele>401.2199707</ele>
        <time>2021-10-17T10:56:28Z</time>
      </trkpt>
      <trkpt lat="43.12116" lon="1.09738">
        <ele>401.24996948</ele>
        <time>2021-10-17T10:56:29Z</time>
      </trkpt>
      <trkpt lat="43.12119" lon="1.09735">
        <ele>401.27996826</ele>
        <time>2021-10-17T10:56:30Z</time>
      </trkpt>
      <trkpt lat="43.12122" lon="1.09732">
        <ele>401.27996826</ele>
        <time>2021-10-17T10:56:31Z</time>
      </trkpt>
      <trkpt lat="43.12125" lon="1.09728">
        <ele>401.27996826</ele>
        <time>2021-10-17T10:56:32Z</time>
      </trkpt>
      <trkpt lat="43.12127" lon="1.09725">
        <ele>401.20996094</ele>
        <time>2021-10-17T10:56:33Z</time>
      </trkpt>
      <trkpt lat="43.12131" lon="1.09721">
        <ele>401.18997192</ele>
        <time>2021-10-17T10:56:34Z</time>
      </trkpt>
      <trkpt lat="43.12133" lon="1.09718">
        <ele>401.25997925</ele>
        <time>2021-10-17T10:56:35Z</time>
      </trkpt>
      <trkpt lat="43.12135" lon="1.09716">
        <ele>401.3999939</ele>
        <time>2021-10-17T10:56:36Z</time>
      </trkpt>
      <trkpt lat="43.12138" lon="1.09714">
        <ele>401.66000366</ele>
        <time>2021-10-17T10:56:37Z</time>
      </trkpt>
      <trkpt lat="43.12142" lon="1.09711">
        <ele>402.05001831</ele>
        <time>2021-10-17T10:56:38Z</time>
      </trkpt>
      <trkpt lat="43.12144" lon="1.0971">
        <ele>402.48001099</ele>
        <time>2021-10-17T10:56:39Z</time>
      </trkpt>
      <trkpt lat="43.12147" lon="1.09709">
        <ele>402.91000366</ele>
        <time>2021-10-17T10:56:40Z</time>
      </trkpt>
      <trkpt lat="43.1215" lon="1.09708">
        <ele>403.38000488</ele>
        <time>2021-10-17T10:56:41Z</time>
      </trkpt>
      <trkpt lat="43.12153" lon="1.09707">
        <ele>403.77001953</ele>
        <time>2021-10-17T10:56:42Z</time>
      </trkpt>
      <trkpt lat="43.12156" lon="1.09705">
        <ele>404.13000488</ele>
        <time>2021-10-17T10:56:43Z</time>
      </trkpt>
      <trkpt lat="43.12159" lon="1.09704">
        <ele>404.45001221</ele>
        <time>2021-10-17T10:56:44Z</time>
      </trkpt>
      <trkpt lat="43.12161" lon="1.09703">
        <ele>404.68002319</ele>
        <time>2021-10-17T10:56:45Z</time>
      </trkpt>
      <trkpt lat="43.12164" lon="1.09702">
        <ele>404.83001709</ele>
        <time>2021-10-17T10:56:46Z</time>
      </trkpt>
      <trkpt lat="43.12168" lon="1.097">
        <ele>404.91000366</ele>
        <time>2021-10-17T10:56:47Z</time>
      </trkpt>
      <trkpt lat="43.12171" lon="1.09699">
        <ele>404.92001343</ele>
        <time>2021-10-17T10:56:48Z</time>
      </trkpt>
      <trkpt lat="43.12173" lon="1.09698">
        <ele>404.97000122</ele>
        <time>2021-10-17T10:56:49Z</time>
      </trkpt>
      <trkpt lat="43.12176" lon="1.09696">
        <ele>405.11001587</ele>
        <time>2021-10-17T10:56:50Z</time>
      </trkpt>
      <trkpt lat="43.12178" lon="1.09695">
        <ele>405.30001831</ele>
        <time>2021-10-17T10:56:51Z</time>
      </trkpt>
      <trkpt lat="43.12182" lon="1.09693">
        <ele>405.52001953</ele>
        <time>2021-10-17T10:56:52Z</time>
      </trkpt>
      <trkpt lat="43.12185" lon="1.09692">
        <ele>405.79000854</ele>
        <time>2021-10-17T10:56:53Z</time>
      </trkpt>
      <trkpt lat="43.12187" lon="1.0969">
        <ele>406.02001953</ele>
        <time>2021-10-17T10:56:54Z</time>
      </trkpt>
      <trkpt lat="43.1219" lon="1.09689">
        <ele>406.22003174</ele>
        <time>2021-10-17T10:56:55Z</time>
      </trkpt>
      <trkpt lat="43.12194" lon="1.09687">
        <ele>406.45004272</ele>
        <time>2021-10-17T10:56:56Z</time>
      </trkpt>
      <trkpt lat="43.12197" lon="1.09685">
        <ele>406.61004639</ele>
        <time>2021-10-17T10:56:57Z</time>
      </trkpt>
      <trkpt lat="43.12199" lon="1.09684">
        <ele>406.80004883</ele>
        <time>2021-10-17T10:56:58Z</time>
      </trkpt>
      <trkpt lat="43.12201" lon="1.09683">
        <ele>407.01004028</ele>
        <time>2021-10-17T10:56:59Z</time>
      </trkpt>
      <trkpt lat="43.12204" lon="1.09683">
        <ele>407.2300415</ele>
        <time>2021-10-17T10:57:00Z</time>
      </trkpt>
      <trkpt lat="43.12207" lon="1.09681">
        <ele>407.42004395</ele>
        <time>2021-10-17T10:57:01Z</time>
      </trkpt>
      <trkpt lat="43.12209" lon="1.0968">
        <ele>407.59005737</ele>
        <time>2021-10-17T10:57:02Z</time>
      </trkpt>
      <trkpt lat="43.12212" lon="1.0968">
        <ele>407.64004517</ele>
        <time>2021-10-17T10:57:03Z</time>
      </trkpt>
      <trkpt lat="43.12215" lon="1.09678">
        <ele>407.65005493</ele>
        <time>2021-10-17T10:57:04Z</time>
      </trkpt>
      <trkpt lat="43.12219" lon="1.09676">
        <ele>407.67004395</ele>
        <time>2021-10-17T10:57:05Z</time>
      </trkpt>
      <trkpt lat="43.12222" lon="1.09674">
        <ele>407.64004517</ele>
        <time>2021-10-17T10:57:06Z</time>
      </trkpt>
      <trkpt lat="43.12225" lon="1.09673">
        <ele>407.69003296</ele>
        <time>2021-10-17T10:57:07Z</time>
      </trkpt>
      <trkpt lat="43.12228" lon="1.09671">
        <ele>407.7800293</ele>
        <time>2021-10-17T10:57:08Z</time>
      </trkpt>
      <trkpt lat="43.12231" lon="1.09669">
        <ele>407.92004395</ele>
        <time>2021-10-17T10:57:09Z</time>
      </trkpt>
      <trkpt lat="43.12235" lon="1.09667">
        <ele>408.08004761</ele>
        <time>2021-10-17T10:57:10Z</time>
      </trkpt>
      <trkpt lat="43.12237" lon="1.09666">
        <ele>408.24005127</ele>
        <time>2021-10-17T10:57:11Z</time>
      </trkpt>
      <trkpt lat="43.1224" lon="1.09664">
        <ele>408.42004395</ele>
        <time>2021-10-17T10:57:12Z</time>
      </trkpt>
      <trkpt lat="43.12242" lon="1.09663">
        <ele>408.57003784</ele>
        <time>2021-10-17T10:57:13Z</time>
      </trkpt>
      <trkpt lat="43.12246" lon="1.09661">
        <ele>408.74005127</ele>
        <time>2021-10-17T10:57:14Z</time>
      </trkpt>
      <trkpt lat="43.12249" lon="1.09661">
        <ele>408.89004517</ele>
        <time>2021-10-17T10:57:15Z</time>
      </trkpt>
      <trkpt lat="43.12251" lon="1.09659">
        <ele>409.01004028</ele>
        <time>2021-10-17T10:57:16Z</time>
      </trkpt>
      <trkpt lat="43.12254" lon="1.09657">
        <ele>409.15005493</ele>
        <time>2021-10-17T10:57:17Z</time>
      </trkpt>
      <trkpt lat="43.12256" lon="1.09655">
        <ele>409.31005859</ele>
        <time>2021-10-17T10:57:18Z</time>
      </trkpt>
      <trkpt lat="43.12259" lon="1.09653">
        <ele>409.55004883</ele>
        <time>2021-10-17T10:57:19Z</time>
      </trkpt>
      <trkpt lat="43.12261" lon="1.09652">
        <ele>409.76004028</ele>
        <time>2021-10-17T10:57:20Z</time>
      </trkpt>
      <trkpt lat="43.12263" lon="1.09651">
        <ele>409.95004272</ele>
        <time>2021-10-17T10:57:21Z</time>
      </trkpt>
      <trkpt lat="43.12264" lon="1.09649">
        <ele>410.17004395</ele>
        <time>2021-10-17T10:57:22Z</time>
      </trkpt>
      <trkpt lat="43.12267" lon="1.09647">
        <ele>411.83004761</ele>
        <time>2021-10-17T10:57:23Z</time>
      </trkpt>
      <trkpt lat="43.12269" lon="1.09646">
        <ele>412.07003784</ele>
        <time>2021-10-17T10:57:24Z</time>
      </trkpt>
      <trkpt lat="43.1227" lon="1.09644">
        <ele>412.34002686</ele>
        <time>2021-10-17T10:57:25Z</time>
      </trkpt>
      <trkpt lat="43.12272" lon="1.09642">
        <ele>412.59002686</ele>
        <time>2021-10-17T10:57:26Z</time>
      </trkpt>
      <trkpt lat="43.12274" lon="1.09638">
        <ele>412.81002808</ele>
        <time>2021-10-17T10:57:27Z</time>
      </trkpt>
      <trkpt lat="43.12275" lon="1.09636">
        <ele>413.07003784</ele>
        <time>2021-10-17T10:57:28Z</time>
      </trkpt>
      <trkpt lat="43.12277" lon="1.09634">
        <ele>413.33004761</ele>
        <time>2021-10-17T10:57:29Z</time>
      </trkpt>
      <trkpt lat="43.12278" lon="1.09632">
        <ele>413.55004883</ele>
        <time>2021-10-17T10:57:30Z</time>
      </trkpt>
      <trkpt lat="43.12279" lon="1.0963">
        <ele>413.81005859</ele>
        <time>2021-10-17T10:57:31Z</time>
      </trkpt>
      <trkpt lat="43.12281" lon="1.09626">
        <ele>414.04006958</ele>
        <time>2021-10-17T10:57:32Z</time>
      </trkpt>
      <trkpt lat="43.12282" lon="1.09623">
        <ele>414.24008179</ele>
        <time>2021-10-17T10:57:33Z</time>
      </trkpt>
      <trkpt lat="43.12284" lon="1.09621">
        <ele>414.47009277</ele>
        <time>2021-10-17T10:57:34Z</time>
      </trkpt>
      <trkpt lat="43.12285" lon="1.09618">
        <ele>414.74008179</ele>
        <time>2021-10-17T10:57:35Z</time>
      </trkpt>
      <trkpt lat="43.12288" lon="1.09614">
        <ele>414.99008179</ele>
        <time>2021-10-17T10:57:36Z</time>
      </trkpt>
      <trkpt lat="43.12291" lon="1.09612">
        <ele>415.2600708</ele>
        <time>2021-10-17T10:57:37Z</time>
      </trkpt>
      <trkpt lat="43.12293" lon="1.09609">
        <ele>415.55007935</ele>
        <time>2021-10-17T10:57:38Z</time>
      </trkpt>
      <trkpt lat="43.12295" lon="1.09607">
        <ele>415.7600708</ele>
        <time>2021-10-17T10:57:39Z</time>
      </trkpt>
      <trkpt lat="43.12296" lon="1.09605">
        <ele>416.03005981</ele>
        <time>2021-10-17T10:57:40Z</time>
      </trkpt>
      <trkpt lat="43.12299" lon="1.09601">
        <ele>416.30004883</ele>
        <time>2021-10-17T10:57:41Z</time>
      </trkpt>
      <trkpt lat="43.12301" lon="1.09599">
        <ele>416.55004883</ele>
        <time>2021-10-17T10:57:42Z</time>
      </trkpt>
      <trkpt lat="43.12303" lon="1.09596">
        <ele>416.82003784</ele>
        <time>2021-10-17T10:57:43Z</time>
      </trkpt>
      <trkpt lat="43.12305" lon="1.09594">
        <ele>417.04003906</ele>
        <time>2021-10-17T10:57:44Z</time>
      </trkpt>
      <trkpt lat="43.12306" lon="1.09592">
        <ele>417.20004272</ele>
        <time>2021-10-17T10:57:45Z</time>
      </trkpt>
      <trkpt lat="43.12309" lon="1.09589">
        <ele>417.31002808</ele>
        <time>2021-10-17T10:57:46Z</time>
      </trkpt>
      <trkpt lat="43.1231" lon="1.09586">
        <ele>417.41003418</ele>
        <time>2021-10-17T10:57:47Z</time>
      </trkpt>
      <trkpt lat="43.12312" lon="1.09584">
        <ele>417.52001953</ele>
        <time>2021-10-17T10:57:48Z</time>
      </trkpt>
      <trkpt lat="43.12314" lon="1.09582">
        <ele>417.66003418</ele>
        <time>2021-10-17T10:57:49Z</time>
      </trkpt>
      <trkpt lat="43.12317" lon="1.0958">
        <ele>417.80004883</ele>
        <time>2021-10-17T10:57:50Z</time>
      </trkpt>
      <trkpt lat="43.12319" lon="1.09578">
        <ele>417.93005371</ele>
        <time>2021-10-17T10:57:51Z</time>
      </trkpt>
      <trkpt lat="43.12321" lon="1.09577">
        <ele>418.04003906</ele>
        <time>2021-10-17T10:57:52Z</time>
      </trkpt>
      <trkpt lat="43.12323" lon="1.09576">
        <ele>418.12002563</ele>
        <time>2021-10-17T10:57:53Z</time>
      </trkpt>
      <trkpt lat="43.12326" lon="1.09575">
        <ele>418.23001099</ele>
        <time>2021-10-17T10:57:54Z</time>
      </trkpt>
      <trkpt lat="43.12329" lon="1.09575">
        <ele>418.33999634</ele>
        <time>2021-10-17T10:57:55Z</time>
      </trkpt>
      <trkpt lat="43.12331" lon="1.09575">
        <ele>418.41998291</ele>
        <time>2021-10-17T10:57:56Z</time>
      </trkpt>
      <trkpt lat="43.12333" lon="1.09574">
        <ele>418.55999756</ele>
        <time>2021-10-17T10:57:57Z</time>
      </trkpt>
      <trkpt lat="43.12336" lon="1.09574">
        <ele>418.69000244</ele>
        <time>2021-10-17T10:57:58Z</time>
      </trkpt>
      <trkpt lat="43.12339" lon="1.09575">
        <ele>418.8500061</ele>
        <time>2021-10-17T10:57:59Z</time>
      </trkpt>
      <trkpt lat="43.12342" lon="1.09576">
        <ele>419.02001953</ele>
        <time>2021-10-17T10:58:00Z</time>
      </trkpt>
      <trkpt lat="43.12344" lon="1.09577">
        <ele>419.19003296</ele>
        <time>2021-10-17T10:58:01Z</time>
      </trkpt>
      <trkpt lat="43.12346" lon="1.09579">
        <ele>419.39004517</ele>
        <time>2021-10-17T10:58:02Z</time>
      </trkpt>
      <trkpt lat="43.12348" lon="1.09581">
        <ele>419.50003052</ele>
        <time>2021-10-17T10:58:03Z</time>
      </trkpt>
      <trkpt lat="43.12351" lon="1.09584">
        <ele>419.6300354</ele>
        <time>2021-10-17T10:58:04Z</time>
      </trkpt>
      <trkpt lat="43.12352" lon="1.09585">
        <ele>419.7300415</ele>
        <time>2021-10-17T10:58:05Z</time>
      </trkpt>
      <trkpt lat="43.12353" lon="1.09587">
        <ele>419.82003784</ele>
        <time>2021-10-17T10:58:06Z</time>
      </trkpt>
      <trkpt lat="43.12354" lon="1.09588">
        <ele>420.01004028</ele>
        <time>2021-10-17T10:58:07Z</time>
      </trkpt>
      <trkpt lat="43.12354" lon="1.09589">
        <ele>420.19003296</ele>
        <time>2021-10-17T10:58:08Z</time>
      </trkpt>
      <trkpt lat="43.12355" lon="1.09589">
        <ele>420.85998535</ele>
        <time>2021-10-17T10:58:09Z</time>
      </trkpt>
      <trkpt lat="43.12362" lon="1.09594">
        <ele>422.17999268</ele>
        <time>2021-10-17T10:58:31Z</time>
      </trkpt>
      <trkpt lat="43.12365" lon="1.09596">
        <ele>422.03997803</ele>
        <time>2021-10-17T10:58:32Z</time>
      </trkpt>
      <trkpt lat="43.12366" lon="1.096">
        <ele>421.89996338</ele>
        <time>2021-10-17T10:58:33Z</time>
      </trkpt>
      <trkpt lat="43.12368" lon="1.09603">
        <ele>421.80996704</ele>
        <time>2021-10-17T10:58:34Z</time>
      </trkpt>
      <trkpt lat="43.1237" lon="1.09607">
        <ele>421.77996826</ele>
        <time>2021-10-17T10:58:35Z</time>
      </trkpt>
      <trkpt lat="43.12371" lon="1.0961">
        <ele>421.89996338</ele>
        <time>2021-10-17T10:58:36Z</time>
      </trkpt>
      <trkpt lat="43.12373" lon="1.09613">
        <ele>422.03997803</ele>
        <time>2021-10-17T10:58:37Z</time>
      </trkpt>
      <trkpt lat="43.12374" lon="1.09617">
        <ele>421.9699707</ele>
        <time>2021-10-17T10:58:38Z</time>
      </trkpt>
      <trkpt lat="43.12377" lon="1.09623">
        <ele>421.7199707</ele>
        <time>2021-10-17T10:58:39Z</time>
      </trkpt>
      <trkpt lat="43.12378" lon="1.09629">
        <ele>421.0199585</ele>
        <time>2021-10-17T10:58:40Z</time>
      </trkpt>
      <trkpt lat="43.12381" lon="1.09636">
        <ele>420.08996582</ele>
        <time>2021-10-17T10:58:41Z</time>
      </trkpt>
      <trkpt lat="43.12384" lon="1.09643">
        <ele>419.13995361</ele>
        <time>2021-10-17T10:58:42Z</time>
      </trkpt>
      <trkpt lat="43.12388" lon="1.0965">
        <ele>418.0199585</ele>
        <time>2021-10-17T10:58:43Z</time>
      </trkpt>
      <trkpt lat="43.12396" lon="1.09659">
        <ele>417.17996216</ele>
        <time>2021-10-17T10:58:44Z</time>
      </trkpt>
      <trkpt lat="43.12401" lon="1.09665">
        <ele>416.54995728</ele>
        <time>2021-10-17T10:58:45Z</time>
      </trkpt>
      <trkpt lat="43.12406" lon="1.0967">
        <ele>416.05996704</ele>
        <time>2021-10-17T10:58:46Z</time>
      </trkpt>
      <trkpt lat="43.12411" lon="1.09674">
        <ele>415.99996948</ele>
        <time>2021-10-17T10:58:47Z</time>
      </trkpt>
      <trkpt lat="43.12419" lon="1.09679">
        <ele>416.08996582</ele>
        <time>2021-10-17T10:58:48Z</time>
      </trkpt>
      <trkpt lat="43.12424" lon="1.09682">
        <ele>416.16995239</ele>
        <time>2021-10-17T10:58:49Z</time>
      </trkpt>
      <trkpt lat="43.12428" lon="1.09684">
        <ele>416.35995483</ele>
        <time>2021-10-17T10:58:50Z</time>
      </trkpt>
      <trkpt lat="43.12432" lon="1.09687">
        <ele>416.43994141</ele>
        <time>2021-10-17T10:58:51Z</time>
      </trkpt>
      <trkpt lat="43.12436" lon="1.09689">
        <ele>416.38995361</ele>
        <time>2021-10-17T10:58:52Z</time>
      </trkpt>
      <trkpt lat="43.12442" lon="1.0969">
        <ele>416.29995728</ele>
        <time>2021-10-17T10:58:53Z</time>
      </trkpt>
      <trkpt lat="43.12446" lon="1.0969">
        <ele>416.19995117</ele>
        <time>2021-10-17T10:58:54Z</time>
      </trkpt>
      <trkpt lat="43.1245" lon="1.09691">
        <ele>416.27993774</ele>
        <time>2021-10-17T10:58:55Z</time>
      </trkpt>
      <trkpt lat="43.12455" lon="1.09691">
        <ele>416.53994751</ele>
        <time>2021-10-17T10:58:56Z</time>
      </trkpt>
      <trkpt lat="43.12463" lon="1.0969">
        <ele>416.99993896</ele>
        <time>2021-10-17T10:58:57Z</time>
      </trkpt>
      <trkpt lat="43.12468" lon="1.0969">
        <ele>417.54992676</ele>
        <time>2021-10-17T10:58:58Z</time>
      </trkpt>
      <trkpt lat="43.12472" lon="1.0969">
        <ele>417.93994141</ele>
        <time>2021-10-17T10:58:59Z</time>
      </trkpt>
      <trkpt lat="43.12476" lon="1.09689">
        <ele>418.32995605</ele>
        <time>2021-10-17T10:59:00Z</time>
      </trkpt>
      <trkpt lat="43.1248" lon="1.09688">
        <ele>418.65994263</ele>
        <time>2021-10-17T10:59:01Z</time>
      </trkpt>
      <trkpt lat="43.12486" lon="1.09687">
        <ele>418.9899292</ele>
        <time>2021-10-17T10:59:02Z</time>
      </trkpt>
      <trkpt lat="43.12491" lon="1.09688">
        <ele>419.30993652</ele>
        <time>2021-10-17T10:59:03Z</time>
      </trkpt>
      <trkpt lat="43.12494" lon="1.09688">
        <ele>419.62994385</ele>
        <time>2021-10-17T10:59:04Z</time>
      </trkpt>
      <trkpt lat="43.12498" lon="1.09688">
        <ele>419.93994141</ele>
        <time>2021-10-17T10:59:05Z</time>
      </trkpt>
      <trkpt lat="43.12503" lon="1.09688">
        <ele>420.15994263</ele>
        <time>2021-10-17T10:59:06Z</time>
      </trkpt>
      <trkpt lat="43.12507" lon="1.09689">
        <ele>420.42993164</ele>
        <time>2021-10-17T10:59:07Z</time>
      </trkpt>
      <trkpt lat="43.12511" lon="1.09689">
        <ele>420.65994263</ele>
        <time>2021-10-17T10:59:08Z</time>
      </trkpt>
      <trkpt lat="43.12514" lon="1.09689">
        <ele>420.88995361</ele>
        <time>2021-10-17T10:59:09Z</time>
      </trkpt>
      <trkpt lat="43.12518" lon="1.09689">
        <ele>421.21994019</ele>
        <time>2021-10-17T10:59:10Z</time>
      </trkpt>
      <trkpt lat="43.12521" lon="1.09689">
        <ele>421.49993896</ele>
        <time>2021-10-17T10:59:11Z</time>
      </trkpt>
      <trkpt lat="43.12526" lon="1.09689">
        <ele>421.8399353</ele>
        <time>2021-10-17T10:59:12Z</time>
      </trkpt>
      <trkpt lat="43.1253" lon="1.0969">
        <ele>422.24993896</ele>
        <time>2021-10-17T10:59:13Z</time>
      </trkpt>
      <trkpt lat="43.12533" lon="1.09689">
        <ele>422.60992432</ele>
        <time>2021-10-17T10:59:14Z</time>
      </trkpt>
      <trkpt lat="43.12537" lon="1.09689">
        <ele>423.04992676</ele>
        <time>2021-10-17T10:59:15Z</time>
      </trkpt>
      <trkpt lat="43.12542" lon="1.09688">
        <ele>423.41992188</ele>
        <time>2021-10-17T10:59:16Z</time>
      </trkpt>
      <trkpt lat="43.12545" lon="1.09688">
        <ele>423.76992798</ele>
        <time>2021-10-17T10:59:17Z</time>
      </trkpt>
      <trkpt lat="43.12548" lon="1.09688">
        <ele>424.14993286</ele>
        <time>2021-10-17T10:59:18Z</time>
      </trkpt>
      <trkpt lat="43.12551" lon="1.09688">
        <ele>424.5899353</ele>
        <time>2021-10-17T10:59:19Z</time>
      </trkpt>
      <trkpt lat="43.12556" lon="1.09689">
        <ele>425.00994873</ele>
        <time>2021-10-17T10:59:20Z</time>
      </trkpt>
      <trkpt lat="43.1256" lon="1.09689">
        <ele>425.49993896</ele>
        <time>2021-10-17T10:59:21Z</time>
      </trkpt>
      <trkpt lat="43.12563" lon="1.0969">
        <ele>425.89993286</ele>
        <time>2021-10-17T10:59:22Z</time>
      </trkpt>
      <trkpt lat="43.12566" lon="1.09691">
        <ele>426.18994141</ele>
        <time>2021-10-17T10:59:23Z</time>
      </trkpt>
      <trkpt lat="43.1257" lon="1.09692">
        <ele>426.51992798</ele>
        <time>2021-10-17T10:59:24Z</time>
      </trkpt>
      <trkpt lat="43.12574" lon="1.09692">
        <ele>426.76992798</ele>
        <time>2021-10-17T10:59:25Z</time>
      </trkpt>
      <trkpt lat="43.12577" lon="1.09693">
        <ele>427.15994263</ele>
        <time>2021-10-17T10:59:26Z</time>
      </trkpt>
      <trkpt lat="43.1258" lon="1.09693">
        <ele>427.60995483</ele>
        <time>2021-10-17T10:59:27Z</time>
      </trkpt>
      <trkpt lat="43.12583" lon="1.09693">
        <ele>428.04995728</ele>
        <time>2021-10-17T10:59:28Z</time>
      </trkpt>
      <trkpt lat="43.12586" lon="1.09694">
        <ele>428.52996826</ele>
        <time>2021-10-17T10:59:29Z</time>
      </trkpt>
      <trkpt lat="43.1259" lon="1.09695">
        <ele>428.97998047</ele>
        <time>2021-10-17T10:59:30Z</time>
      </trkpt>
      <trkpt lat="43.12592" lon="1.09696">
        <ele>429.45999146</ele>
        <time>2021-10-17T10:59:31Z</time>
      </trkpt>
      <trkpt lat="43.12594" lon="1.09698">
        <ele>429.92999268</ele>
        <time>2021-10-17T10:59:32Z</time>
      </trkpt>
      <trkpt lat="43.12596" lon="1.09701">
        <ele>430.35998535</ele>
        <time>2021-10-17T10:59:33Z</time>
      </trkpt>
      <trkpt lat="43.12597" lon="1.09705">
        <ele>430.77999878</ele>
        <time>2021-10-17T10:59:34Z</time>
      </trkpt>
      <trkpt lat="43.12598" lon="1.09708">
        <ele>431.16000366</ele>
        <time>2021-10-17T10:59:35Z</time>
      </trkpt>
      <trkpt lat="43.12598" lon="1.09712">
        <ele>431.48001099</ele>
        <time>2021-10-17T10:59:36Z</time>
      </trkpt>
      <trkpt lat="43.12598" lon="1.09715">
        <ele>431.82000732</ele>
        <time>2021-10-17T10:59:37Z</time>
      </trkpt>
      <trkpt lat="43.12598" lon="1.09721">
        <ele>432.11999512</ele>
        <time>2021-10-17T10:59:38Z</time>
      </trkpt>
      <trkpt lat="43.12597" lon="1.09723">
        <ele>432.38000488</ele>
        <time>2021-10-17T10:59:39Z</time>
      </trkpt>
      <trkpt lat="43.12597" lon="1.09727">
        <ele>432.75</ele>
        <time>2021-10-17T10:59:40Z</time>
      </trkpt>
      <trkpt lat="43.12598" lon="1.09729">
        <ele>433.17001343</ele>
        <time>2021-10-17T10:59:41Z</time>
      </trkpt>
      <trkpt lat="43.12598" lon="1.09732">
        <ele>433.52001953</ele>
        <time>2021-10-17T10:59:42Z</time>
      </trkpt>
      <trkpt lat="43.12599" lon="1.09735">
        <ele>433.87002563</ele>
        <time>2021-10-17T10:59:43Z</time>
      </trkpt>
      <trkpt lat="43.126" lon="1.09737">
        <ele>434.17001343</ele>
        <time>2021-10-17T10:59:44Z</time>
      </trkpt>
      <trkpt lat="43.12601" lon="1.09739">
        <ele>434.40002441</ele>
        <time>2021-10-17T10:59:45Z</time>
      </trkpt>
      <trkpt lat="43.12601" lon="1.09741">
        <ele>434.66003418</ele>
        <time>2021-10-17T10:59:46Z</time>
      </trkpt>
      <trkpt lat="43.12602" lon="1.09743">
        <ele>434.93002319</ele>
        <time>2021-10-17T10:59:47Z</time>
      </trkpt>
      <trkpt lat="43.12602" lon="1.09744">
        <ele>435.17001343</ele>
        <time>2021-10-17T10:59:48Z</time>
      </trkpt>
      <trkpt lat="43.12602" lon="1.09744">
        <ele>435.38000488</ele>
        <time>2021-10-17T10:59:49Z</time>
      </trkpt>
      <trkpt lat="43.12602" lon="1.09746">
        <ele>435.57000732</ele>
        <time>2021-10-17T10:59:50Z</time>
      </trkpt>
      <trkpt lat="43.12602" lon="1.09746">
        <ele>435.67999268</ele>
        <time>2021-10-17T10:59:51Z</time>
      </trkpt>
      <trkpt lat="43.12602" lon="1.09748">
        <ele>435.72998047</ele>
        <time>2021-10-17T10:59:52Z</time>
      </trkpt>
      <trkpt lat="43.12603" lon="1.09749">
        <ele>435.80996704</ele>
        <time>2021-10-17T10:59:53Z</time>
      </trkpt>
      <trkpt lat="43.12603" lon="1.0975">
        <ele>435.93997192</ele>
        <time>2021-10-17T10:59:54Z</time>
      </trkpt>
      <trkpt lat="43.12604" lon="1.09752">
        <ele>436.07998657</ele>
        <time>2021-10-17T10:59:55Z</time>
      </trkpt>
      <trkpt lat="43.12605" lon="1.09754">
        <ele>436.26998901</ele>
        <time>2021-10-17T10:59:56Z</time>
      </trkpt>
      <trkpt lat="43.12605" lon="1.09756">
        <ele>436.36999512</ele>
        <time>2021-10-17T10:59:57Z</time>
      </trkpt>
      <trkpt lat="43.12605" lon="1.09758">
        <ele>436.42999268</ele>
        <time>2021-10-17T10:59:58Z</time>
      </trkpt>
      <trkpt lat="43.12606" lon="1.0976">
        <ele>436.61999512</ele>
        <time>2021-10-17T10:59:59Z</time>
      </trkpt>
      <trkpt lat="43.12607" lon="1.09762">
        <ele>436.82998657</ele>
        <time>2021-10-17T11:00:00Z</time>
      </trkpt>
      <trkpt lat="43.12609" lon="1.09765">
        <ele>437.19998169</ele>
        <time>2021-10-17T11:00:01Z</time>
      </trkpt>
      <trkpt lat="43.12611" lon="1.09767">
        <ele>437.58999634</ele>
        <time>2021-10-17T11:00:02Z</time>
      </trkpt>
      <trkpt lat="43.12613" lon="1.0977">
        <ele>437.91998291</ele>
        <time>2021-10-17T11:00:03Z</time>
      </trkpt>
      <trkpt lat="43.12614" lon="1.09772">
        <ele>438.19998169</ele>
        <time>2021-10-17T11:00:04Z</time>
      </trkpt>
      <trkpt lat="43.12617" lon="1.09773">
        <ele>438.3999939</ele>
        <time>2021-10-17T11:00:05Z</time>
      </trkpt>
      <trkpt lat="43.12619" lon="1.09775">
        <ele>438.6000061</ele>
        <time>2021-10-17T11:00:06Z</time>
      </trkpt>
      <trkpt lat="43.1262" lon="1.09777">
        <ele>438.82000732</ele>
        <time>2021-10-17T11:00:07Z</time>
      </trkpt>
      <trkpt lat="43.12622" lon="1.09778">
        <ele>439.1499939</ele>
        <time>2021-10-17T11:00:08Z</time>
      </trkpt>
      <trkpt lat="43.12625" lon="1.09779">
        <ele>439.54000854</ele>
        <time>2021-10-17T11:00:09Z</time>
      </trkpt>
      <trkpt lat="43.12628" lon="1.09781">
        <ele>439.83999634</ele>
        <time>2021-10-17T11:00:10Z</time>
      </trkpt>
      <trkpt lat="43.1263" lon="1.09782">
        <ele>440.02999878</ele>
        <time>2021-10-17T11:00:11Z</time>
      </trkpt>
      <trkpt lat="43.12632" lon="1.09783">
        <ele>440.26000977</ele>
        <time>2021-10-17T11:00:12Z</time>
      </trkpt>
      <trkpt lat="43.12634" lon="1.09785">
        <ele>440.39001465</ele>
        <time>2021-10-17T11:00:13Z</time>
      </trkpt>
      <trkpt lat="43.12638" lon="1.09786">
        <ele>440.5</ele>
        <time>2021-10-17T11:00:14Z</time>
      </trkpt>
      <trkpt lat="43.1264" lon="1.09787">
        <ele>440.69000244</ele>
        <time>2021-10-17T11:00:15Z</time>
      </trkpt>
      <trkpt lat="43.12643" lon="1.09789">
        <ele>440.79998779</ele>
        <time>2021-10-17T11:00:16Z</time>
      </trkpt>
      <trkpt lat="43.12645" lon="1.0979">
        <ele>440.97998047</ele>
        <time>2021-10-17T11:00:17Z</time>
      </trkpt>
      <trkpt lat="43.12647" lon="1.09792">
        <ele>441.1499939</ele>
        <time>2021-10-17T11:00:18Z</time>
      </trkpt>
      <trkpt lat="43.1265" lon="1.09794">
        <ele>441.29998779</ele>
        <time>2021-10-17T11:00:19Z</time>
      </trkpt>
      <trkpt lat="43.12652" lon="1.09795">
        <ele>441.3999939</ele>
        <time>2021-10-17T11:00:20Z</time>
      </trkpt>
      <trkpt lat="43.12655" lon="1.09795">
        <ele>441.38000488</ele>
        <time>2021-10-17T11:00:21Z</time>
      </trkpt>
      <trkpt lat="43.12657" lon="1.09798">
        <ele>441.67001343</ele>
        <time>2021-10-17T11:00:22Z</time>
      </trkpt>
      <trkpt lat="43.1266" lon="1.098">
        <ele>441.93002319</ele>
        <time>2021-10-17T11:00:23Z</time>
      </trkpt>
      <trkpt lat="43.12662" lon="1.098">
        <ele>442.26000977</ele>
        <time>2021-10-17T11:00:24Z</time>
      </trkpt>
      <trkpt lat="43.12664" lon="1.09801">
        <ele>442.67001343</ele>
        <time>2021-10-17T11:00:25Z</time>
      </trkpt>
      <trkpt lat="43.12667" lon="1.09802">
        <ele>442.96002197</ele>
        <time>2021-10-17T11:00:26Z</time>
      </trkpt>
      <trkpt lat="43.12669" lon="1.09803">
        <ele>443.21002197</ele>
        <time>2021-10-17T11:00:27Z</time>
      </trkpt>
      <trkpt lat="43.12672" lon="1.09804">
        <ele>443.47003174</ele>
        <time>2021-10-17T11:00:28Z</time>
      </trkpt>
      <trkpt lat="43.12674" lon="1.09804">
        <ele>443.80001831</ele>
        <time>2021-10-17T11:00:29Z</time>
      </trkpt>
      <trkpt lat="43.12676" lon="1.09804">
        <ele>443.98001099</ele>
        <time>2021-10-17T11:00:30Z</time>
      </trkpt>
      <trkpt lat="43.12677" lon="1.09804">
        <ele>444.17001343</ele>
        <time>2021-10-17T11:00:31Z</time>
      </trkpt>
      <trkpt lat="43.12681" lon="1.09805">
        <ele>444.45001221</ele>
        <time>2021-10-17T11:00:32Z</time>
      </trkpt>
      <trkpt lat="43.12683" lon="1.09807">
        <ele>444.58001709</ele>
        <time>2021-10-17T11:00:33Z</time>
      </trkpt>
      <trkpt lat="43.12685" lon="1.09807">
        <ele>444.74002075</ele>
        <time>2021-10-17T11:00:34Z</time>
      </trkpt>
      <trkpt lat="43.12688" lon="1.09808">
        <ele>444.8500061</ele>
        <time>2021-10-17T11:00:35Z</time>
      </trkpt>
      <trkpt lat="43.1269" lon="1.09808">
        <ele>444.89001465</ele>
        <time>2021-10-17T11:00:36Z</time>
      </trkpt>
      <trkpt lat="43.12693" lon="1.09808">
        <ele>444.99002075</ele>
        <time>2021-10-17T11:00:37Z</time>
      </trkpt>
      <trkpt lat="43.12695" lon="1.09809">
        <ele>445.1000061</ele>
        <time>2021-10-17T11:00:38Z</time>
      </trkpt>
      <trkpt lat="43.12698" lon="1.0981">
        <ele>445.29000854</ele>
        <time>2021-10-17T11:00:39Z</time>
      </trkpt>
      <trkpt lat="43.127" lon="1.0981">
        <ele>445.29000854</ele>
        <time>2021-10-17T11:00:40Z</time>
      </trkpt>
      <trkpt lat="43.12703" lon="1.09812">
        <ele>445.3999939</ele>
        <time>2021-10-17T11:00:41Z</time>
      </trkpt>
      <trkpt lat="43.12705" lon="1.09813">
        <ele>445.48999023</ele>
        <time>2021-10-17T11:00:42Z</time>
      </trkpt>
      <trkpt lat="43.12707" lon="1.09813">
        <ele>445.5</ele>
        <time>2021-10-17T11:00:43Z</time>
      </trkpt>
      <trkpt lat="43.1271" lon="1.09814">
        <ele>445.67001343</ele>
        <time>2021-10-17T11:00:44Z</time>
      </trkpt>
      <trkpt lat="43.12712" lon="1.09814">
        <ele>445.75</ele>
        <time>2021-10-17T11:00:45Z</time>
      </trkpt>
      <trkpt lat="43.12716" lon="1.09815">
        <ele>445.75</ele>
        <time>2021-10-17T11:00:46Z</time>
      </trkpt>
      <trkpt lat="43.12717" lon="1.09815">
        <ele>445.98001099</ele>
        <time>2021-10-17T11:00:47Z</time>
      </trkpt>
      <trkpt lat="43.12719" lon="1.09815">
        <ele>446.20001221</ele>
        <time>2021-10-17T11:00:48Z</time>
      </trkpt>
      <trkpt lat="43.12721" lon="1.09815">
        <ele>446.3500061</ele>
        <time>2021-10-17T11:00:49Z</time>
      </trkpt>
      <trkpt lat="43.12724" lon="1.09817">
        <ele>446.73001099</ele>
        <time>2021-10-17T11:00:50Z</time>
      </trkpt>
      <trkpt lat="43.12725" lon="1.09818">
        <ele>447.05001831</ele>
        <time>2021-10-17T11:00:51Z</time>
      </trkpt>
      <trkpt lat="43.12727" lon="1.09819">
        <ele>447.31002808</ele>
        <time>2021-10-17T11:00:52Z</time>
      </trkpt>
      <trkpt lat="43.12729" lon="1.0982">
        <ele>447.81002808</ele>
        <time>2021-10-17T11:00:53Z</time>
      </trkpt>
      <trkpt lat="43.12731" lon="1.09821">
        <ele>448.12002563</ele>
        <time>2021-10-17T11:00:54Z</time>
      </trkpt>
      <trkpt lat="43.12735" lon="1.09822">
        <ele>448.40002441</ele>
        <time>2021-10-17T11:00:55Z</time>
      </trkpt>
      <trkpt lat="43.12737" lon="1.09823">
        <ele>448.69003296</ele>
        <time>2021-10-17T11:00:56Z</time>
      </trkpt>
      <trkpt lat="43.12739" lon="1.09824">
        <ele>448.91003418</ele>
        <time>2021-10-17T11:00:57Z</time>
      </trkpt>
      <trkpt lat="43.12741" lon="1.09825">
        <ele>449.17004395</ele>
        <time>2021-10-17T11:00:58Z</time>
      </trkpt>
      <trkpt lat="43.12743" lon="1.09825">
        <ele>449.4800415</ele>
        <time>2021-10-17T11:00:59Z</time>
      </trkpt>
      <trkpt lat="43.12745" lon="1.09826">
        <ele>449.7800293</ele>
        <time>2021-10-17T11:01:00Z</time>
      </trkpt>
      <trkpt lat="43.12748" lon="1.09828">
        <ele>449.99002075</ele>
        <time>2021-10-17T11:01:01Z</time>
      </trkpt>
      <trkpt lat="43.12749" lon="1.09829">
        <ele>450.14001465</ele>
        <time>2021-10-17T11:01:02Z</time>
      </trkpt>
      <trkpt lat="43.12751" lon="1.0983">
        <ele>450.25</ele>
        <time>2021-10-17T11:01:03Z</time>
      </trkpt>
      <trkpt lat="43.12756" lon="1.0983">
        <ele>450.42999268</ele>
        <time>2021-10-17T11:01:04Z</time>
      </trkpt>
      <trkpt lat="43.12759" lon="1.0983">
        <ele>450.58999634</ele>
        <time>2021-10-17T11:01:05Z</time>
      </trkpt>
      <trkpt lat="43.12761" lon="1.09831">
        <ele>450.82998657</ele>
        <time>2021-10-17T11:01:06Z</time>
      </trkpt>
      <trkpt lat="43.12763" lon="1.09832">
        <ele>450.97998047</ele>
        <time>2021-10-17T11:01:07Z</time>
      </trkpt>
      <trkpt lat="43.12768" lon="1.09831">
        <ele>451.13998413</ele>
        <time>2021-10-17T11:01:08Z</time>
      </trkpt>
      <trkpt lat="43.1277" lon="1.09832">
        <ele>451.22998047</ele>
        <time>2021-10-17T11:01:09Z</time>
      </trkpt>
      <trkpt lat="43.12773" lon="1.09833">
        <ele>451.23999023</ele>
        <time>2021-10-17T11:01:10Z</time>
      </trkpt>
      <trkpt lat="43.12777" lon="1.09833">
        <ele>451.26998901</ele>
        <time>2021-10-17T11:01:11Z</time>
      </trkpt>
      <trkpt lat="43.12781" lon="1.09834">
        <ele>451.28997803</ele>
        <time>2021-10-17T11:01:12Z</time>
      </trkpt>
      <trkpt lat="43.12786" lon="1.09834">
        <ele>451.30996704</ele>
        <time>2021-10-17T11:01:13Z</time>
      </trkpt>
      <trkpt lat="43.12789" lon="1.09835">
        <ele>451.52996826</ele>
        <time>2021-10-17T11:01:14Z</time>
      </trkpt>
      <trkpt lat="43.12792" lon="1.09836">
        <ele>451.78997803</ele>
        <time>2021-10-17T11:01:15Z</time>
      </trkpt>
      <trkpt lat="43.12794" lon="1.09835">
        <ele>451.99996948</ele>
        <time>2021-10-17T11:01:16Z</time>
      </trkpt>
      <trkpt lat="43.12798" lon="1.09835">
        <ele>452.30996704</ele>
        <time>2021-10-17T11:01:17Z</time>
      </trkpt>
      <trkpt lat="43.12802" lon="1.09835">
        <ele>452.54995728</ele>
        <time>2021-10-17T11:01:18Z</time>
      </trkpt>
      <trkpt lat="43.12805" lon="1.09835">
        <ele>452.74996948</ele>
        <time>2021-10-17T11:01:19Z</time>
      </trkpt>
      <trkpt lat="43.12808" lon="1.09835">
        <ele>452.95996094</ele>
        <time>2021-10-17T11:01:20Z</time>
      </trkpt>
      <trkpt lat="43.12811" lon="1.09836">
        <ele>453.18997192</ele>
        <time>2021-10-17T11:01:21Z</time>
      </trkpt>
      <trkpt lat="43.12815" lon="1.09837">
        <ele>453.41998291</ele>
        <time>2021-10-17T11:01:22Z</time>
      </trkpt>
      <trkpt lat="43.12818" lon="1.09837">
        <ele>453.76998901</ele>
        <time>2021-10-17T11:01:23Z</time>
      </trkpt>
      <trkpt lat="43.1282" lon="1.09838">
        <ele>453.95999146</ele>
        <time>2021-10-17T11:01:24Z</time>
      </trkpt>
      <trkpt lat="43.12823" lon="1.09838">
        <ele>454.17999268</ele>
        <time>2021-10-17T11:01:25Z</time>
      </trkpt>
      <trkpt lat="43.12826" lon="1.09839">
        <ele>454.41000366</ele>
        <time>2021-10-17T11:01:26Z</time>
      </trkpt>
      <trkpt lat="43.1283" lon="1.0984">
        <ele>454.48999023</ele>
        <time>2021-10-17T11:01:27Z</time>
      </trkpt>
      <trkpt lat="43.12833" lon="1.09841">
        <ele>454.69998169</ele>
        <time>2021-10-17T11:01:28Z</time>
      </trkpt>
      <trkpt lat="43.12836" lon="1.09842">
        <ele>454.75997925</ele>
        <time>2021-10-17T11:01:29Z</time>
      </trkpt>
      <trkpt lat="43.1284" lon="1.09843">
        <ele>454.7199707</ele>
        <time>2021-10-17T11:01:30Z</time>
      </trkpt>
      <trkpt lat="43.12843" lon="1.09844">
        <ele>454.79995728</ele>
        <time>2021-10-17T11:01:31Z</time>
      </trkpt>
      <trkpt lat="43.12845" lon="1.09844">
        <ele>454.83996582</ele>
        <time>2021-10-17T11:01:32Z</time>
      </trkpt>
      <trkpt lat="43.12848" lon="1.09845">
        <ele>454.97998047</ele>
        <time>2021-10-17T11:01:33Z</time>
      </trkpt>
      <trkpt lat="43.12851" lon="1.09847">
        <ele>455.15997314</ele>
        <time>2021-10-17T11:01:34Z</time>
      </trkpt>
      <trkpt lat="43.12855" lon="1.09849">
        <ele>455.24996948</ele>
        <time>2021-10-17T11:01:35Z</time>
      </trkpt>
      <trkpt lat="43.12858" lon="1.0985">
        <ele>455.31997681</ele>
        <time>2021-10-17T11:01:36Z</time>
      </trkpt>
      <trkpt lat="43.1286" lon="1.09851">
        <ele>455.42996216</ele>
        <time>2021-10-17T11:01:37Z</time>
      </trkpt>
      <trkpt lat="43.12863" lon="1.09852">
        <ele>455.53994751</ele>
        <time>2021-10-17T11:01:38Z</time>
      </trkpt>
      <trkpt lat="43.12866" lon="1.09853">
        <ele>455.71994019</ele>
        <time>2021-10-17T11:01:39Z</time>
      </trkpt>
      <trkpt lat="43.1287" lon="1.09854">
        <ele>455.97994995</ele>
        <time>2021-10-17T11:01:40Z</time>
      </trkpt>
      <trkpt lat="43.12872" lon="1.09855">
        <ele>456.09994507</ele>
        <time>2021-10-17T11:01:41Z</time>
      </trkpt>
      <trkpt lat="43.12875" lon="1.09856">
        <ele>456.29995728</ele>
        <time>2021-10-17T11:01:42Z</time>
      </trkpt>
      <trkpt lat="43.12878" lon="1.09857">
        <ele>456.55996704</ele>
        <time>2021-10-17T11:01:43Z</time>
      </trkpt>
      <trkpt lat="43.12883" lon="1.09858">
        <ele>456.65997314</ele>
        <time>2021-10-17T11:01:44Z</time>
      </trkpt>
      <trkpt lat="43.12885" lon="1.09859">
        <ele>456.95996094</ele>
        <time>2021-10-17T11:01:45Z</time>
      </trkpt>
      <trkpt lat="43.12888" lon="1.0986">
        <ele>457.25994873</ele>
        <time>2021-10-17T11:01:46Z</time>
      </trkpt>
      <trkpt lat="43.12891" lon="1.0986">
        <ele>457.60995483</ele>
        <time>2021-10-17T11:01:47Z</time>
      </trkpt>
      <trkpt lat="43.12894" lon="1.09862">
        <ele>458.03994751</ele>
        <time>2021-10-17T11:01:48Z</time>
      </trkpt>
      <trkpt lat="43.12897" lon="1.09864">
        <ele>458.40994263</ele>
        <time>2021-10-17T11:01:49Z</time>
      </trkpt>
      <trkpt lat="43.129" lon="1.09865">
        <ele>458.70993042</ele>
        <time>2021-10-17T11:01:50Z</time>
      </trkpt>
      <trkpt lat="43.12902" lon="1.09866">
        <ele>459.01992798</ele>
        <time>2021-10-17T11:01:51Z</time>
      </trkpt>
      <trkpt lat="43.12905" lon="1.09866">
        <ele>459.31991577</ele>
        <time>2021-10-17T11:01:52Z</time>
      </trkpt>
      <trkpt lat="43.12908" lon="1.09867">
        <ele>459.62991333</ele>
        <time>2021-10-17T11:01:53Z</time>
      </trkpt>
      <trkpt lat="43.12911" lon="1.09868">
        <ele>459.9598999</ele>
        <time>2021-10-17T11:01:54Z</time>
      </trkpt>
      <trkpt lat="43.12913" lon="1.09869">
        <ele>460.27990723</ele>
        <time>2021-10-17T11:01:55Z</time>
      </trkpt>
      <trkpt lat="43.12915" lon="1.0987">
        <ele>460.65991211</ele>
        <time>2021-10-17T11:01:56Z</time>
      </trkpt>
      <trkpt lat="43.12917" lon="1.09871">
        <ele>461.06991577</ele>
        <time>2021-10-17T11:01:57Z</time>
      </trkpt>
      <trkpt lat="43.12921" lon="1.09871">
        <ele>461.47991943</ele>
        <time>2021-10-17T11:01:58Z</time>
      </trkpt>
      <trkpt lat="43.12923" lon="1.09871">
        <ele>461.8899231</ele>
        <time>2021-10-17T11:01:59Z</time>
      </trkpt>
      <trkpt lat="43.12926" lon="1.09871">
        <ele>462.32992554</ele>
        <time>2021-10-17T11:02:00Z</time>
      </trkpt>
      <trkpt lat="43.12929" lon="1.09872">
        <ele>462.77993774</ele>
        <time>2021-10-17T11:02:01Z</time>
      </trkpt>
      <trkpt lat="43.12932" lon="1.09872">
        <ele>463.31994629</ele>
        <time>2021-10-17T11:02:02Z</time>
      </trkpt>
      <trkpt lat="43.12934" lon="1.09872">
        <ele>463.87994385</ele>
        <time>2021-10-17T11:02:03Z</time>
      </trkpt>
      <trkpt lat="43.12936" lon="1.09872">
        <ele>464.37994385</ele>
        <time>2021-10-17T11:02:04Z</time>
      </trkpt>
      <trkpt lat="43.12938" lon="1.09872">
        <ele>464.81994629</ele>
        <time>2021-10-17T11:02:05Z</time>
      </trkpt>
      <trkpt lat="43.1294" lon="1.09873">
        <ele>465.18994141</ele>
        <time>2021-10-17T11:02:06Z</time>
      </trkpt>
      <trkpt lat="43.12943" lon="1.09874">
        <ele>465.49993896</ele>
        <time>2021-10-17T11:02:07Z</time>
      </trkpt>
      <trkpt lat="43.12944" lon="1.09875">
        <ele>465.78994751</ele>
        <time>2021-10-17T11:02:08Z</time>
      </trkpt>
      <trkpt lat="43.12946" lon="1.09876">
        <ele>466.03994751</ele>
        <time>2021-10-17T11:02:09Z</time>
      </trkpt>
      <trkpt lat="43.12948" lon="1.09877">
        <ele>466.29995728</ele>
        <time>2021-10-17T11:02:10Z</time>
      </trkpt>
      <trkpt lat="43.12951" lon="1.09879">
        <ele>466.52996826</ele>
        <time>2021-10-17T11:02:11Z</time>
      </trkpt>
      <trkpt lat="43.12953" lon="1.0988">
        <ele>466.70996094</ele>
        <time>2021-10-17T11:02:12Z</time>
      </trkpt>
      <trkpt lat="43.12955" lon="1.09881">
        <ele>466.93997192</ele>
        <time>2021-10-17T11:02:13Z</time>
      </trkpt>
      <trkpt lat="43.12957" lon="1.09882">
        <ele>467.07998657</ele>
        <time>2021-10-17T11:02:14Z</time>
      </trkpt>
      <trkpt lat="43.12959" lon="1.09884">
        <ele>467.29998779</ele>
        <time>2021-10-17T11:02:15Z</time>
      </trkpt>
      <trkpt lat="43.12962" lon="1.09886">
        <ele>467.57998657</ele>
        <time>2021-10-17T11:02:16Z</time>
      </trkpt>
      <trkpt lat="43.12964" lon="1.09887">
        <ele>467.83999634</ele>
        <time>2021-10-17T11:02:17Z</time>
      </trkpt>
      <trkpt lat="43.12966" lon="1.09889">
        <ele>468.19000244</ele>
        <time>2021-10-17T11:02:18Z</time>
      </trkpt>
      <trkpt lat="43.12968" lon="1.0989">
        <ele>468.48001099</ele>
        <time>2021-10-17T11:02:19Z</time>
      </trkpt>
      <trkpt lat="43.12971" lon="1.09891">
        <ele>468.80999756</ele>
        <time>2021-10-17T11:02:20Z</time>
      </trkpt>
      <trkpt lat="43.12973" lon="1.09892">
        <ele>469.19000244</ele>
        <time>2021-10-17T11:02:21Z</time>
      </trkpt>
      <trkpt lat="43.12975" lon="1.09894">
        <ele>469.6000061</ele>
        <time>2021-10-17T11:02:22Z</time>
      </trkpt>
      <trkpt lat="43.12977" lon="1.09894">
        <ele>470</ele>
        <time>2021-10-17T11:02:23Z</time>
      </trkpt>
      <trkpt lat="43.12979" lon="1.09895">
        <ele>470.39001465</ele>
        <time>2021-10-17T11:02:24Z</time>
      </trkpt>
      <trkpt lat="43.12981" lon="1.09897">
        <ele>470.75</ele>
        <time>2021-10-17T11:02:25Z</time>
      </trkpt>
      <trkpt lat="43.12983" lon="1.09899">
        <ele>471.04000854</ele>
        <time>2021-10-17T11:02:26Z</time>
      </trkpt>
      <trkpt lat="43.12984" lon="1.09901">
        <ele>471.3999939</ele>
        <time>2021-10-17T11:02:27Z</time>
      </trkpt>
      <trkpt lat="43.12986" lon="1.09902">
        <ele>471.79000854</ele>
        <time>2021-10-17T11:02:28Z</time>
      </trkpt>
      <trkpt lat="43.12988" lon="1.09905">
        <ele>472.20001221</ele>
        <time>2021-10-17T11:02:29Z</time>
      </trkpt>
      <trkpt lat="43.1299" lon="1.09907">
        <ele>472.62002563</ele>
        <time>2021-10-17T11:02:30Z</time>
      </trkpt>
      <trkpt lat="43.12991" lon="1.09908">
        <ele>473.00003052</ele>
        <time>2021-10-17T11:02:31Z</time>
      </trkpt>
      <trkpt lat="43.12992" lon="1.0991">
        <ele>473.33001709</ele>
        <time>2021-10-17T11:02:32Z</time>
      </trkpt>
      <trkpt lat="43.12993" lon="1.09912">
        <ele>473.61001587</ele>
        <time>2021-10-17T11:02:33Z</time>
      </trkpt>
      <trkpt lat="43.12995" lon="1.09915">
        <ele>473.86001587</ele>
        <time>2021-10-17T11:02:34Z</time>
      </trkpt>
      <trkpt lat="43.12995" lon="1.09918">
        <ele>474.07000732</ele>
        <time>2021-10-17T11:02:35Z</time>
      </trkpt>
      <trkpt lat="43.12996" lon="1.09921">
        <ele>474.23001099</ele>
        <time>2021-10-17T11:02:36Z</time>
      </trkpt>
      <trkpt lat="43.12995" lon="1.09924">
        <ele>474.38000488</ele>
        <time>2021-10-17T11:02:37Z</time>
      </trkpt>
      <trkpt lat="43.12994" lon="1.09927">
        <ele>474.48999023</ele>
        <time>2021-10-17T11:02:38Z</time>
      </trkpt>
      <trkpt lat="43.12993" lon="1.09929">
        <ele>474.52999878</ele>
        <time>2021-10-17T11:02:39Z</time>
      </trkpt>
      <trkpt lat="43.12991" lon="1.09931">
        <ele>474.57000732</ele>
        <time>2021-10-17T11:02:40Z</time>
      </trkpt>
      <trkpt lat="43.1299" lon="1.09934">
        <ele>474.61001587</ele>
        <time>2021-10-17T11:02:41Z</time>
      </trkpt>
      <trkpt lat="43.12989" lon="1.09939">
        <ele>474.68002319</ele>
        <time>2021-10-17T11:02:42Z</time>
      </trkpt>
      <trkpt lat="43.12987" lon="1.09942">
        <ele>474.76000977</ele>
        <time>2021-10-17T11:02:43Z</time>
      </trkpt>
      <trkpt lat="43.12986" lon="1.09945">
        <ele>474.83001709</ele>
        <time>2021-10-17T11:02:44Z</time>
      </trkpt>
      <trkpt lat="43.12985" lon="1.09948">
        <ele>474.8500061</ele>
        <time>2021-10-17T11:02:45Z</time>
      </trkpt>
      <trkpt lat="43.12985" lon="1.09952">
        <ele>474.82000732</ele>
        <time>2021-10-17T11:02:46Z</time>
      </trkpt>
      <trkpt lat="43.12984" lon="1.09959">
        <ele>474.75</ele>
        <time>2021-10-17T11:02:47Z</time>
      </trkpt>
      <trkpt lat="43.12983" lon="1.09963">
        <ele>474.67001343</ele>
        <time>2021-10-17T11:02:48Z</time>
      </trkpt>
      <trkpt lat="43.12982" lon="1.09967">
        <ele>474.58001709</ele>
        <time>2021-10-17T11:02:49Z</time>
      </trkpt>
      <trkpt lat="43.12981" lon="1.09971">
        <ele>474.54000854</ele>
        <time>2021-10-17T11:02:50Z</time>
      </trkpt>
      <trkpt lat="43.12979" lon="1.09977">
        <ele>474.54000854</ele>
        <time>2021-10-17T11:02:51Z</time>
      </trkpt>
      <trkpt lat="43.12977" lon="1.09981">
        <ele>474.43002319</ele>
        <time>2021-10-17T11:02:52Z</time>
      </trkpt>
      <trkpt lat="43.12976" lon="1.09986">
        <ele>474.32003784</ele>
        <time>2021-10-17T11:02:53Z</time>
      </trkpt>
      <trkpt lat="43.12975" lon="1.0999">
        <ele>474.15002441</ele>
        <time>2021-10-17T11:02:54Z</time>
      </trkpt>
      <trkpt lat="43.12974" lon="1.09995">
        <ele>473.99002075</ele>
        <time>2021-10-17T11:02:55Z</time>
      </trkpt>
      <trkpt lat="43.12974" lon="1.1">
        <ele>473.95001221</ele>
        <time>2021-10-17T11:02:56Z</time>
      </trkpt>
      <trkpt lat="43.12972" lon="1.10007">
        <ele>473.94000244</ele>
        <time>2021-10-17T11:02:57Z</time>
      </trkpt>
      <trkpt lat="43.12972" lon="1.10012">
        <ele>473.95001221</ele>
        <time>2021-10-17T11:02:58Z</time>
      </trkpt>
      <trkpt lat="43.1297" lon="1.10017">
        <ele>473.96002197</ele>
        <time>2021-10-17T11:02:59Z</time>
      </trkpt>
      <trkpt lat="43.12969" lon="1.10022">
        <ele>473.93002319</ele>
        <time>2021-10-17T11:03:00Z</time>
      </trkpt>
      <trkpt lat="43.12967" lon="1.10029">
        <ele>473.87002563</ele>
        <time>2021-10-17T11:03:01Z</time>
      </trkpt>
      <trkpt lat="43.12966" lon="1.10034">
        <ele>473.79003906</ele>
        <time>2021-10-17T11:03:02Z</time>
      </trkpt>
      <trkpt lat="43.12965" lon="1.10039">
        <ele>473.6300354</ele>
        <time>2021-10-17T11:03:03Z</time>
      </trkpt>
      <trkpt lat="43.12963" lon="1.10044">
        <ele>473.50003052</ele>
        <time>2021-10-17T11:03:04Z</time>
      </trkpt>
      <trkpt lat="43.12962" lon="1.10049">
        <ele>473.39004517</ele>
        <time>2021-10-17T11:03:05Z</time>
      </trkpt>
      <trkpt lat="43.1296" lon="1.10056">
        <ele>473.27005005</ele>
        <time>2021-10-17T11:03:06Z</time>
      </trkpt>
      <trkpt lat="43.1296" lon="1.10061">
        <ele>473.2300415</ele>
        <time>2021-10-17T11:03:07Z</time>
      </trkpt>
      <trkpt lat="43.12959" lon="1.10065">
        <ele>473.2300415</ele>
        <time>2021-10-17T11:03:08Z</time>
      </trkpt>
      <trkpt lat="43.12957" lon="1.10069">
        <ele>473.26004028</ele>
        <time>2021-10-17T11:03:09Z</time>
      </trkpt>
      <trkpt lat="43.12955" lon="1.10076">
        <ele>473.30004883</ele>
        <time>2021-10-17T11:03:10Z</time>
      </trkpt>
      <trkpt lat="43.12953" lon="1.10081">
        <ele>473.3800354</ele>
        <time>2021-10-17T11:03:11Z</time>
      </trkpt>
      <trkpt lat="43.12951" lon="1.10086">
        <ele>473.46002197</ele>
        <time>2021-10-17T11:03:12Z</time>
      </trkpt>
      <trkpt lat="43.1295" lon="1.1009">
        <ele>473.46002197</ele>
        <time>2021-10-17T11:03:13Z</time>
      </trkpt>
      <trkpt lat="43.12949" lon="1.10098">
        <ele>473.51000977</ele>
        <time>2021-10-17T11:03:14Z</time>
      </trkpt>
      <trkpt lat="43.12947" lon="1.10103">
        <ele>473.49002075</ele>
        <time>2021-10-17T11:03:15Z</time>
      </trkpt>
      <trkpt lat="43.12945" lon="1.10108">
        <ele>473.29000854</ele>
        <time>2021-10-17T11:03:16Z</time>
      </trkpt>
      <trkpt lat="43.12944" lon="1.10114">
        <ele>473.13000488</ele>
        <time>2021-10-17T11:03:17Z</time>
      </trkpt>
      <trkpt lat="43.12942" lon="1.10119">
        <ele>472.88000488</ele>
        <time>2021-10-17T11:03:18Z</time>
      </trkpt>
      <trkpt lat="43.12941" lon="1.10128">
        <ele>472.55001831</ele>
        <time>2021-10-17T11:03:19Z</time>
      </trkpt>
      <trkpt lat="43.12942" lon="1.10129">
        <ele>473.48999023</ele>
        <time>2021-10-17T11:03:19Z</time>
      </trkpt>
      <trkpt lat="43.1294" lon="1.10135">
        <ele>473.19000244</ele>
        <time>2021-10-17T11:03:20Z</time>
      </trkpt>
      <trkpt lat="43.12938" lon="1.1014">
        <ele>473.19000244</ele>
        <time>2021-10-17T11:03:21Z</time>
      </trkpt>
      <trkpt lat="43.12936" lon="1.10146">
        <ele>472.58001709</ele>
        <time>2021-10-17T11:03:22Z</time>
      </trkpt>
      <trkpt lat="43.12933" lon="1.10155">
        <ele>472.19000244</ele>
        <time>2021-10-17T11:03:23Z</time>
      </trkpt>
      <trkpt lat="43.12931" lon="1.10162">
        <ele>471.8999939</ele>
        <time>2021-10-17T11:03:24Z</time>
      </trkpt>
      <trkpt lat="43.12928" lon="1.10169">
        <ele>471.57000732</ele>
        <time>2021-10-17T11:03:25Z</time>
      </trkpt>
      <trkpt lat="43.12926" lon="1.10175">
        <ele>471.29000854</ele>
        <time>2021-10-17T11:03:26Z</time>
      </trkpt>
      <trkpt lat="43.12923" lon="1.10182">
        <ele>471.08999634</ele>
        <time>2021-10-17T11:03:27Z</time>
      </trkpt>
      <trkpt lat="43.1292" lon="1.10192">
        <ele>470.94000244</ele>
        <time>2021-10-17T11:03:28Z</time>
      </trkpt>
      <trkpt lat="43.12918" lon="1.10199">
        <ele>470.75</ele>
        <time>2021-10-17T11:03:29Z</time>
      </trkpt>
      <trkpt lat="43.12915" lon="1.10205">
        <ele>470.79998779</ele>
        <time>2021-10-17T11:03:30Z</time>
      </trkpt>
      <trkpt lat="43.12913" lon="1.10209">
        <ele>470.97998047</ele>
        <time>2021-10-17T11:03:31Z</time>
      </trkpt>
      <trkpt lat="43.12911" lon="1.10215">
        <ele>471.24996948</ele>
        <time>2021-10-17T11:03:32Z</time>
      </trkpt>
      <trkpt lat="43.12909" lon="1.10219">
        <ele>471.70996094</ele>
        <time>2021-10-17T11:03:33Z</time>
      </trkpt>
      <trkpt lat="43.12908" lon="1.10223">
        <ele>472.02996826</ele>
        <time>2021-10-17T11:03:34Z</time>
      </trkpt>
      <trkpt lat="43.12907" lon="1.10227">
        <ele>472.34997559</ele>
        <time>2021-10-17T11:03:35Z</time>
      </trkpt>
      <trkpt lat="43.12906" lon="1.10232">
        <ele>472.6199646</ele>
        <time>2021-10-17T11:03:36Z</time>
      </trkpt>
      <trkpt lat="43.12904" lon="1.10238">
        <ele>472.83996582</ele>
        <time>2021-10-17T11:03:37Z</time>
      </trkpt>
      <trkpt lat="43.12903" lon="1.10241">
        <ele>472.97998047</ele>
        <time>2021-10-17T11:03:38Z</time>
      </trkpt>
      <trkpt lat="43.12902" lon="1.10245">
        <ele>473.11999512</ele>
        <time>2021-10-17T11:03:39Z</time>
      </trkpt>
      <trkpt lat="43.12901" lon="1.10249">
        <ele>473.22998047</ele>
        <time>2021-10-17T11:03:40Z</time>
      </trkpt>
      <trkpt lat="43.12899" lon="1.10256">
        <ele>473.28997803</ele>
        <time>2021-10-17T11:03:41Z</time>
      </trkpt>
      <trkpt lat="43.12899" lon="1.10261">
        <ele>473.34997559</ele>
        <time>2021-10-17T11:03:42Z</time>
      </trkpt>
      <trkpt lat="43.12898" lon="1.10265">
        <ele>473.37997437</ele>
        <time>2021-10-17T11:03:43Z</time>
      </trkpt>
      <trkpt lat="43.12897" lon="1.10269">
        <ele>473.39996338</ele>
        <time>2021-10-17T11:03:44Z</time>
      </trkpt>
      <trkpt lat="43.12895" lon="1.10273">
        <ele>473.47994995</ele>
        <time>2021-10-17T11:03:45Z</time>
      </trkpt>
      <trkpt lat="43.12893" lon="1.10279">
        <ele>473.64996338</ele>
        <time>2021-10-17T11:03:46Z</time>
      </trkpt>
      <trkpt lat="43.12893" lon="1.10283">
        <ele>473.77996826</ele>
        <time>2021-10-17T11:03:47Z</time>
      </trkpt>
      <trkpt lat="43.12891" lon="1.10287">
        <ele>473.92996216</ele>
        <time>2021-10-17T11:03:48Z</time>
      </trkpt>
      <trkpt lat="43.12891" lon="1.10291">
        <ele>474.07995605</ele>
        <time>2021-10-17T11:03:49Z</time>
      </trkpt>
      <trkpt lat="43.1289" lon="1.10295">
        <ele>474.19995117</ele>
        <time>2021-10-17T11:03:50Z</time>
      </trkpt>
      <trkpt lat="43.12888" lon="1.103">
        <ele>474.37994385</ele>
        <time>2021-10-17T11:03:51Z</time>
      </trkpt>
      <trkpt lat="43.12887" lon="1.10303">
        <ele>474.53994751</ele>
        <time>2021-10-17T11:03:52Z</time>
      </trkpt>
      <trkpt lat="43.12886" lon="1.10308">
        <ele>474.65994263</ele>
        <time>2021-10-17T11:03:53Z</time>
      </trkpt>
      <trkpt lat="43.12884" lon="1.10313">
        <ele>474.65994263</ele>
        <time>2021-10-17T11:03:54Z</time>
      </trkpt>
      <trkpt lat="43.12881" lon="1.1032">
        <ele>474.59994507</ele>
        <time>2021-10-17T11:03:55Z</time>
      </trkpt>
      <trkpt lat="43.12879" lon="1.10326">
        <ele>474.55993652</ele>
        <time>2021-10-17T11:03:56Z</time>
      </trkpt>
      <trkpt lat="43.12877" lon="1.10331">
        <ele>474.55993652</ele>
        <time>2021-10-17T11:03:57Z</time>
      </trkpt>
      <trkpt lat="43.12875" lon="1.10337">
        <ele>474.55993652</ele>
        <time>2021-10-17T11:03:58Z</time>
      </trkpt>
      <trkpt lat="43.12871" lon="1.10345">
        <ele>474.60992432</ele>
        <time>2021-10-17T11:03:59Z</time>
      </trkpt>
      <trkpt lat="43.12869" lon="1.10351">
        <ele>474.70993042</ele>
        <time>2021-10-17T11:04:00Z</time>
      </trkpt>
      <trkpt lat="43.12867" lon="1.10357">
        <ele>474.76992798</ele>
        <time>2021-10-17T11:04:01Z</time>
      </trkpt>
      <trkpt lat="43.12865" lon="1.10363">
        <ele>474.77993774</ele>
        <time>2021-10-17T11:04:02Z</time>
      </trkpt>
      <trkpt lat="43.12862" lon="1.10369">
        <ele>474.80993652</ele>
        <time>2021-10-17T11:04:03Z</time>
      </trkpt>
      <trkpt lat="43.12859" lon="1.10378">
        <ele>474.76992798</ele>
        <time>2021-10-17T11:04:04Z</time>
      </trkpt>
      <trkpt lat="43.12857" lon="1.10384">
        <ele>474.75991821</ele>
        <time>2021-10-17T11:04:05Z</time>
      </trkpt>
      <trkpt lat="43.12854" lon="1.10389">
        <ele>474.77990723</ele>
        <time>2021-10-17T11:04:06Z</time>
      </trkpt>
      <trkpt lat="43.12852" lon="1.10394">
        <ele>474.74990845</ele>
        <time>2021-10-17T11:04:07Z</time>
      </trkpt>
      <trkpt lat="43.1285" lon="1.104">
        <ele>474.73989868</ele>
        <time>2021-10-17T11:04:08Z</time>
      </trkpt>
      <trkpt lat="43.12846" lon="1.10409">
        <ele>474.59988403</ele>
        <time>2021-10-17T11:04:09Z</time>
      </trkpt>
      <trkpt lat="43.12844" lon="1.10414">
        <ele>474.46987915</ele>
        <time>2021-10-17T11:04:10Z</time>
      </trkpt>
      <trkpt lat="43.12842" lon="1.10419">
        <ele>474.3298645</ele>
        <time>2021-10-17T11:04:11Z</time>
      </trkpt>
      <trkpt lat="43.1284" lon="1.10425">
        <ele>474.12985229</ele>
        <time>2021-10-17T11:04:12Z</time>
      </trkpt>
      <trkpt lat="43.12835" lon="1.10434">
        <ele>473.87985229</ele>
        <time>2021-10-17T11:04:13Z</time>
      </trkpt>
      <trkpt lat="43.12833" lon="1.1044">
        <ele>473.67984009</ele>
        <time>2021-10-17T11:04:14Z</time>
      </trkpt>
      <trkpt lat="43.1283" lon="1.10446">
        <ele>473.50982666</ele>
        <time>2021-10-17T11:04:15Z</time>
      </trkpt>
      <trkpt lat="43.12828" lon="1.10452">
        <ele>473.43981934</ele>
        <time>2021-10-17T11:04:16Z</time>
      </trkpt>
      <trkpt lat="43.12825" lon="1.10462">
        <ele>473.60983276</ele>
        <time>2021-10-17T11:04:17Z</time>
      </trkpt>
      <trkpt lat="43.12822" lon="1.10468">
        <ele>473.81982422</ele>
        <time>2021-10-17T11:04:18Z</time>
      </trkpt>
      <trkpt lat="43.1282" lon="1.10474">
        <ele>474.02981567</ele>
        <time>2021-10-17T11:04:19Z</time>
      </trkpt>
      <trkpt lat="43.12818" lon="1.10479">
        <ele>474.15982056</ele>
        <time>2021-10-17T11:04:20Z</time>
      </trkpt>
      <trkpt lat="43.12814" lon="1.10488">
        <ele>474.17980957</ele>
        <time>2021-10-17T11:04:21Z</time>
      </trkpt>
      <trkpt lat="43.12812" lon="1.10493">
        <ele>474.099823</ele>
        <time>2021-10-17T11:04:22Z</time>
      </trkpt>
      <trkpt lat="43.12811" lon="1.105">
        <ele>474.02981567</ele>
        <time>2021-10-17T11:04:23Z</time>
      </trkpt>
      <trkpt lat="43.12809" lon="1.10506">
        <ele>473.99981689</ele>
        <time>2021-10-17T11:04:24Z</time>
      </trkpt>
      <trkpt lat="43.12808" lon="1.10513">
        <ele>473.95980835</ele>
        <time>2021-10-17T11:04:25Z</time>
      </trkpt>
      <trkpt lat="43.12806" lon="1.10519">
        <ele>474.02981567</ele>
        <time>2021-10-17T11:04:26Z</time>
      </trkpt>
      <trkpt lat="43.12804" lon="1.10529">
        <ele>474.07980347</ele>
        <time>2021-10-17T11:04:27Z</time>
      </trkpt>
      <trkpt lat="43.12802" lon="1.10535">
        <ele>473.98980713</ele>
        <time>2021-10-17T11:04:28Z</time>
      </trkpt>
      <trkpt lat="43.128" lon="1.10541">
        <ele>473.84979248</ele>
        <time>2021-10-17T11:04:29Z</time>
      </trkpt>
      <trkpt lat="43.12797" lon="1.10547">
        <ele>473.6697998</ele>
        <time>2021-10-17T11:04:30Z</time>
      </trkpt>
      <trkpt lat="43.12793" lon="1.10554">
        <ele>473.53979492</ele>
        <time>2021-10-17T11:04:31Z</time>
      </trkpt>
      <trkpt lat="43.1279" lon="1.10559">
        <ele>473.50979614</ele>
        <time>2021-10-17T11:04:32Z</time>
      </trkpt>
      <trkpt lat="43.12786" lon="1.10563">
        <ele>473.54980469</ele>
        <time>2021-10-17T11:04:33Z</time>
      </trkpt>
      <trkpt lat="43.12782" lon="1.10567">
        <ele>473.57980347</ele>
        <time>2021-10-17T11:04:34Z</time>
      </trkpt>
      <trkpt lat="43.12775" lon="1.10571">
        <ele>473.53979492</ele>
        <time>2021-10-17T11:04:35Z</time>
      </trkpt>
      <trkpt lat="43.1277" lon="1.10574">
        <ele>473.49978638</ele>
        <time>2021-10-17T11:04:36Z</time>
      </trkpt>
      <trkpt lat="43.12766" lon="1.10577">
        <ele>473.44979858</ele>
        <time>2021-10-17T11:04:37Z</time>
      </trkpt>
      <trkpt lat="43.12762" lon="1.1058">
        <ele>473.40979004</ele>
        <time>2021-10-17T11:04:38Z</time>
      </trkpt>
      <trkpt lat="43.12758" lon="1.10583">
        <ele>473.39978027</ele>
        <time>2021-10-17T11:04:39Z</time>
      </trkpt>
      <trkpt lat="43.12752" lon="1.10586">
        <ele>473.45977783</ele>
        <time>2021-10-17T11:04:40Z</time>
      </trkpt>
      <trkpt lat="43.12748" lon="1.10589">
        <ele>473.51977539</ele>
        <time>2021-10-17T11:04:41Z</time>
      </trkpt>
      <trkpt lat="43.12745" lon="1.10592">
        <ele>473.55978394</ele>
        <time>2021-10-17T11:04:42Z</time>
      </trkpt>
      <trkpt lat="43.12741" lon="1.10594">
        <ele>473.65979004</ele>
        <time>2021-10-17T11:04:43Z</time>
      </trkpt>
      <trkpt lat="43.12735" lon="1.10599">
        <ele>473.72979736</ele>
        <time>2021-10-17T11:04:44Z</time>
      </trkpt>
      <trkpt lat="43.12731" lon="1.10601">
        <ele>473.84979248</ele>
        <time>2021-10-17T11:04:45Z</time>
      </trkpt>
      <trkpt lat="43.12728" lon="1.10603">
        <ele>473.9697876</ele>
        <time>2021-10-17T11:04:46Z</time>
      </trkpt>
      <trkpt lat="43.12724" lon="1.10605">
        <ele>474.03979492</ele>
        <time>2021-10-17T11:04:47Z</time>
      </trkpt>
      <trkpt lat="43.12721" lon="1.10608">
        <ele>474.03979492</ele>
        <time>2021-10-17T11:04:48Z</time>
      </trkpt>
      <trkpt lat="43.12715" lon="1.10612">
        <ele>473.90979004</ele>
        <time>2021-10-17T11:04:49Z</time>
      </trkpt>
      <trkpt lat="43.12711" lon="1.10616">
        <ele>473.61978149</ele>
        <time>2021-10-17T11:04:50Z</time>
      </trkpt>
      <trkpt lat="43.12708" lon="1.10619">
        <ele>473.26977539</ele>
        <time>2021-10-17T11:04:51Z</time>
      </trkpt>
      <trkpt lat="43.12704" lon="1.10622">
        <ele>472.9697876</ele>
        <time>2021-10-17T11:04:52Z</time>
      </trkpt>
      <trkpt lat="43.12698" lon="1.10628">
        <ele>472.73977661</ele>
        <time>2021-10-17T11:04:53Z</time>
      </trkpt>
      <trkpt lat="43.12694" lon="1.10631">
        <ele>472.52978516</ele>
        <time>2021-10-17T11:04:54Z</time>
      </trkpt>
      <trkpt lat="43.12691" lon="1.10635">
        <ele>472.38977051</ele>
        <time>2021-10-17T11:04:55Z</time>
      </trkpt>
      <trkpt lat="43.12688" lon="1.10637">
        <ele>472.22976685</ele>
        <time>2021-10-17T11:04:56Z</time>
      </trkpt>
      <trkpt lat="43.12685" lon="1.1064">
        <ele>471.97976685</ele>
        <time>2021-10-17T11:04:57Z</time>
      </trkpt>
      <trkpt lat="43.1268" lon="1.10646">
        <ele>471.90975952</ele>
        <time>2021-10-17T11:04:58Z</time>
      </trkpt>
      <trkpt lat="43.12676" lon="1.10649">
        <ele>471.82977295</ele>
        <time>2021-10-17T11:04:59Z</time>
      </trkpt>
      <trkpt lat="43.12673" lon="1.10652">
        <ele>471.73977661</ele>
        <time>2021-10-17T11:05:00Z</time>
      </trkpt>
      <trkpt lat="43.1267" lon="1.10655">
        <ele>471.64978027</ele>
        <time>2021-10-17T11:05:01Z</time>
      </trkpt>
      <trkpt lat="43.12663" lon="1.1066">
        <ele>471.47976685</ele>
        <time>2021-10-17T11:05:02Z</time>
      </trkpt>
      <trkpt lat="43.1266" lon="1.10663">
        <ele>471.11978149</ele>
        <time>2021-10-17T11:05:03Z</time>
      </trkpt>
      <trkpt lat="43.12655" lon="1.10667">
        <ele>470.75979614</ele>
        <time>2021-10-17T11:05:04Z</time>
      </trkpt>
      <trkpt lat="43.12651" lon="1.10671">
        <ele>470.36978149</ele>
        <time>2021-10-17T11:05:05Z</time>
      </trkpt>
      <trkpt lat="43.12647" lon="1.10676">
        <ele>469.84979248</ele>
        <time>2021-10-17T11:05:06Z</time>
      </trkpt>
      <trkpt lat="43.1264" lon="1.10683">
        <ele>469.33978271</ele>
        <time>2021-10-17T11:05:07Z</time>
      </trkpt>
      <trkpt lat="43.12635" lon="1.1069">
        <ele>468.70977783</ele>
        <time>2021-10-17T11:05:08Z</time>
      </trkpt>
      <trkpt lat="43.12632" lon="1.10698">
        <ele>467.97976685</ele>
        <time>2021-10-17T11:05:09Z</time>
      </trkpt>
      <trkpt lat="43.12629" lon="1.10708">
        <ele>467.2897644</ele>
        <time>2021-10-17T11:05:10Z</time>
      </trkpt>
      <trkpt lat="43.12626" lon="1.10722">
        <ele>466.74975586</ele>
        <time>2021-10-17T11:05:11Z</time>
      </trkpt>
      <trkpt lat="43.12625" lon="1.10731">
        <ele>466.39974976</ele>
        <time>2021-10-17T11:05:12Z</time>
      </trkpt>
      <trkpt lat="43.12624" lon="1.10741">
        <ele>466.0397644</ele>
        <time>2021-10-17T11:05:13Z</time>
      </trkpt>
      <trkpt lat="43.12623" lon="1.1075">
        <ele>465.6897583</ele>
        <time>2021-10-17T11:05:14Z</time>
      </trkpt>
      <trkpt lat="43.12623" lon="1.10758">
        <ele>465.24975586</ele>
        <time>2021-10-17T11:05:15Z</time>
      </trkpt>
      <trkpt lat="43.12622" lon="1.10772">
        <ele>464.66976929</ele>
        <time>2021-10-17T11:05:16Z</time>
      </trkpt>
      <trkpt lat="43.12622" lon="1.10783">
        <ele>464.20977783</ele>
        <time>2021-10-17T11:05:17Z</time>
      </trkpt>
      <trkpt lat="43.12622" lon="1.10793">
        <ele>463.67977905</ele>
        <time>2021-10-17T11:05:18Z</time>
      </trkpt>
      <trkpt lat="43.12622" lon="1.10803">
        <ele>463.08978271</ele>
        <time>2021-10-17T11:05:19Z</time>
      </trkpt>
      <trkpt lat="43.12622" lon="1.10813">
        <ele>462.59979248</ele>
        <time>2021-10-17T11:05:20Z</time>
      </trkpt>
      <trkpt lat="43.12621" lon="1.10826">
        <ele>462.20977783</ele>
        <time>2021-10-17T11:05:21Z</time>
      </trkpt>
      <trkpt lat="43.12619" lon="1.10834">
        <ele>462.05978394</ele>
        <time>2021-10-17T11:05:22Z</time>
      </trkpt>
      <trkpt lat="43.12616" lon="1.10841">
        <ele>462.30978394</ele>
        <time>2021-10-17T11:05:23Z</time>
      </trkpt>
      <trkpt lat="43.12611" lon="1.10847">
        <ele>462.48977661</ele>
        <time>2021-10-17T11:05:24Z</time>
      </trkpt>
      <trkpt lat="43.12606" lon="1.10856">
        <ele>462.81976318</ele>
        <time>2021-10-17T11:05:25Z</time>
      </trkpt>
      <trkpt lat="43.12602" lon="1.10861">
        <ele>463.23977661</ele>
        <time>2021-10-17T11:05:26Z</time>
      </trkpt>
      <trkpt lat="43.12598" lon="1.10866">
        <ele>463.82977295</ele>
        <time>2021-10-17T11:05:27Z</time>
      </trkpt>
      <trkpt lat="43.12595" lon="1.1087">
        <ele>464.41976929</ele>
        <time>2021-10-17T11:05:28Z</time>
      </trkpt>
      <trkpt lat="43.12592" lon="1.10875">
        <ele>464.91976929</ele>
        <time>2021-10-17T11:05:29Z</time>
      </trkpt>
      <trkpt lat="43.12589" lon="1.10883">
        <ele>465.35977173</ele>
        <time>2021-10-17T11:05:30Z</time>
      </trkpt>
      <trkpt lat="43.12586" lon="1.10887">
        <ele>465.76977539</ele>
        <time>2021-10-17T11:05:31Z</time>
      </trkpt>
      <trkpt lat="43.12584" lon="1.10893">
        <ele>466.09976196</ele>
        <time>2021-10-17T11:05:32Z</time>
      </trkpt>
      <trkpt lat="43.12582" lon="1.10898">
        <ele>466.38977051</ele>
        <time>2021-10-17T11:05:33Z</time>
      </trkpt>
      <trkpt lat="43.12578" lon="1.10905">
        <ele>466.59976196</ele>
        <time>2021-10-17T11:05:34Z</time>
      </trkpt>
      <trkpt lat="43.12576" lon="1.1091">
        <ele>466.67974854</ele>
        <time>2021-10-17T11:05:35Z</time>
      </trkpt>
      <trkpt lat="43.12574" lon="1.10916">
        <ele>466.73974609</ele>
        <time>2021-10-17T11:05:36Z</time>
      </trkpt>
      <trkpt lat="43.12571" lon="1.10921">
        <ele>466.8397522</ele>
        <time>2021-10-17T11:05:37Z</time>
      </trkpt>
      <trkpt lat="43.12569" lon="1.10927">
        <ele>466.92974854</ele>
        <time>2021-10-17T11:05:38Z</time>
      </trkpt>
      <trkpt lat="43.12566" lon="1.10935">
        <ele>467.02975464</ele>
        <time>2021-10-17T11:05:39Z</time>
      </trkpt>
      <trkpt lat="43.12564" lon="1.10941">
        <ele>467.06976318</ele>
        <time>2021-10-17T11:05:40Z</time>
      </trkpt>
      <trkpt lat="43.12562" lon="1.10946">
        <ele>467.05975342</ele>
        <time>2021-10-17T11:05:41Z</time>
      </trkpt>
      <trkpt lat="43.12559" lon="1.10951">
        <ele>467.04974365</ele>
        <time>2021-10-17T11:05:42Z</time>
      </trkpt>
      <trkpt lat="43.12554" lon="1.1096">
        <ele>466.96975708</ele>
        <time>2021-10-17T11:05:43Z</time>
      </trkpt>
      <trkpt lat="43.12551" lon="1.10965">
        <ele>466.90975952</ele>
        <time>2021-10-17T11:05:44Z</time>
      </trkpt>
      <trkpt lat="43.12548" lon="1.10969">
        <ele>466.94976807</ele>
        <time>2021-10-17T11:05:45Z</time>
      </trkpt>
      <trkpt lat="43.12544" lon="1.10974">
        <ele>467.01977539</ele>
        <time>2021-10-17T11:05:46Z</time>
      </trkpt>
      <trkpt lat="43.12539" lon="1.1098">
        <ele>467.13977051</ele>
        <time>2021-10-17T11:05:47Z</time>
      </trkpt>
      <trkpt lat="43.12534" lon="1.10984">
        <ele>467.20977783</ele>
        <time>2021-10-17T11:05:48Z</time>
      </trkpt>
      <trkpt lat="43.1253" lon="1.10987">
        <ele>467.19976807</ele>
        <time>2021-10-17T11:05:49Z</time>
      </trkpt>
      <trkpt lat="43.12526" lon="1.10992">
        <ele>467.06976318</ele>
        <time>2021-10-17T11:05:50Z</time>
      </trkpt>
      <trkpt lat="43.12521" lon="1.10996">
        <ele>466.77975464</ele>
        <time>2021-10-17T11:05:51Z</time>
      </trkpt>
      <trkpt lat="43.12514" lon="1.11003">
        <ele>466.41976929</ele>
        <time>2021-10-17T11:05:52Z</time>
      </trkpt>
      <trkpt lat="43.1251" lon="1.11008">
        <ele>465.95977783</ele>
        <time>2021-10-17T11:05:53Z</time>
      </trkpt>
      <trkpt lat="43.12505" lon="1.11014">
        <ele>465.42977905</ele>
        <time>2021-10-17T11:05:54Z</time>
      </trkpt>
      <trkpt lat="43.12501" lon="1.11021">
        <ele>464.93978882</ele>
        <time>2021-10-17T11:05:55Z</time>
      </trkpt>
      <trkpt lat="43.12498" lon="1.11028">
        <ele>464.4697876</ele>
        <time>2021-10-17T11:05:56Z</time>
      </trkpt>
      <trkpt lat="43.12494" lon="1.11037">
        <ele>464.0697937</ele>
        <time>2021-10-17T11:05:57Z</time>
      </trkpt>
      <trkpt lat="43.12492" lon="1.11043">
        <ele>463.8197937</ele>
        <time>2021-10-17T11:05:58Z</time>
      </trkpt>
      <trkpt lat="43.12491" lon="1.11048">
        <ele>463.64978027</ele>
        <time>2021-10-17T11:05:59Z</time>
      </trkpt>
      <trkpt lat="43.12492" lon="1.11052">
        <ele>463.52978516</ele>
        <time>2021-10-17T11:06:00Z</time>
      </trkpt>
      <trkpt lat="43.12496" lon="1.11057">
        <ele>463.30978394</ele>
        <time>2021-10-17T11:06:01Z</time>
      </trkpt>
      <trkpt lat="43.12498" lon="1.11058">
        <ele>463.02978516</ele>
        <time>2021-10-17T11:06:02Z</time>
      </trkpt>
      <trkpt lat="43.12501" lon="1.11059">
        <ele>462.98977661</ele>
        <time>2021-10-17T11:06:03Z</time>
      </trkpt>
      <trkpt lat="43.12504" lon="1.11058">
        <ele>462.91976929</ele>
        <time>2021-10-17T11:06:04Z</time>
      </trkpt>
      <trkpt lat="43.12506" lon="1.11057">
        <ele>463.24975586</ele>
        <time>2021-10-17T11:06:05Z</time>
      </trkpt>
      <trkpt lat="43.1251" lon="1.11056">
        <ele>463.60974121</ele>
        <time>2021-10-17T11:06:06Z</time>
      </trkpt>
      <trkpt lat="43.12513" lon="1.11055">
        <ele>463.91973877</ele>
        <time>2021-10-17T11:06:07Z</time>
      </trkpt>
      <trkpt lat="43.12516" lon="1.11055">
        <ele>464.37973022</ele>
        <time>2021-10-17T11:06:08Z</time>
      </trkpt>
      <trkpt lat="43.12519" lon="1.11054">
        <ele>464.4597168</ele>
        <time>2021-10-17T11:06:09Z</time>
      </trkpt>
      <trkpt lat="43.12523" lon="1.11054">
        <ele>464.69970703</ele>
        <time>2021-10-17T11:06:10Z</time>
      </trkpt>
      <trkpt lat="43.12526" lon="1.11054">
        <ele>464.90969849</ele>
        <time>2021-10-17T11:06:11Z</time>
      </trkpt>
      <trkpt lat="43.1253" lon="1.11053">
        <ele>465.03970337</ele>
        <time>2021-10-17T11:06:12Z</time>
      </trkpt>
      <trkpt lat="43.12533" lon="1.11052">
        <ele>465.28970337</ele>
        <time>2021-10-17T11:06:13Z</time>
      </trkpt>
      <trkpt lat="43.12538" lon="1.1105">
        <ele>465.73971558</ele>
        <time>2021-10-17T11:06:14Z</time>
      </trkpt>
      <trkpt lat="43.12541" lon="1.11049">
        <ele>466.2097168</ele>
        <time>2021-10-17T11:06:15Z</time>
      </trkpt>
      <trkpt lat="43.12545" lon="1.11048">
        <ele>466.67971802</ele>
        <time>2021-10-17T11:06:16Z</time>
      </trkpt>
      <trkpt lat="43.12549" lon="1.11047">
        <ele>467.22970581</ele>
        <time>2021-10-17T11:06:17Z</time>
      </trkpt>
      <trkpt lat="43.12552" lon="1.11046">
        <ele>467.26971436</ele>
        <time>2021-10-17T11:06:18Z</time>
      </trkpt>
      <trkpt lat="43.12557" lon="1.11044">
        <ele>467.21972656</ele>
        <time>2021-10-17T11:06:19Z</time>
      </trkpt>
      <trkpt lat="43.1256" lon="1.11044">
        <ele>467.31973267</ele>
        <time>2021-10-17T11:06:20Z</time>
      </trkpt>
      <trkpt lat="43.12564" lon="1.11043">
        <ele>467.44973755</ele>
        <time>2021-10-17T11:06:21Z</time>
      </trkpt>
      <trkpt lat="43.12567" lon="1.11043">
        <ele>467.8397522</ele>
        <time>2021-10-17T11:06:22Z</time>
      </trkpt>
      <trkpt lat="43.1257" lon="1.11044">
        <ele>468.3397522</ele>
        <time>2021-10-17T11:06:23Z</time>
      </trkpt>
      <trkpt lat="43.12573" lon="1.11045">
        <ele>468.64974976</ele>
        <time>2021-10-17T11:06:24Z</time>
      </trkpt>
      <trkpt lat="43.12574" lon="1.11045">
        <ele>468.9397583</ele>
        <time>2021-10-17T11:06:25Z</time>
      </trkpt>
      <trkpt lat="43.12577" lon="1.11045">
        <ele>469.20974731</ele>
        <time>2021-10-17T11:06:26Z</time>
      </trkpt>
      <trkpt lat="43.12579" lon="1.11047">
        <ele>469.26974487</ele>
        <time>2021-10-17T11:06:27Z</time>
      </trkpt>
      <trkpt lat="43.12581" lon="1.11051">
        <ele>469.57974243</ele>
        <time>2021-10-17T11:06:28Z</time>
      </trkpt>
      <trkpt lat="43.12582" lon="1.11054">
        <ele>469.82974243</ele>
        <time>2021-10-17T11:06:29Z</time>
      </trkpt>
      <trkpt lat="43.12582" lon="1.11057">
        <ele>470.05975342</ele>
        <time>2021-10-17T11:06:30Z</time>
      </trkpt>
      <trkpt lat="43.12582" lon="1.11061">
        <ele>470.45974731</ele>
        <time>2021-10-17T11:06:31Z</time>
      </trkpt>
      <trkpt lat="43.12581" lon="1.11066">
        <ele>470.53973389</ele>
        <time>2021-10-17T11:06:32Z</time>
      </trkpt>
      <trkpt lat="43.1258" lon="1.11069">
        <ele>470.71972656</ele>
        <time>2021-10-17T11:06:33Z</time>
      </trkpt>
      <trkpt lat="43.1258" lon="1.11072">
        <ele>470.84973145</ele>
        <time>2021-10-17T11:06:34Z</time>
      </trkpt>
      <trkpt lat="43.1258" lon="1.11075">
        <ele>470.93972778</ele>
        <time>2021-10-17T11:06:35Z</time>
      </trkpt>
      <trkpt lat="43.12579" lon="1.11079">
        <ele>471.22973633</ele>
        <time>2021-10-17T11:06:36Z</time>
      </trkpt>
      <trkpt lat="43.12578" lon="1.11084">
        <ele>471.44973755</ele>
        <time>2021-10-17T11:06:37Z</time>
      </trkpt>
      <trkpt lat="43.12577" lon="1.11087">
        <ele>471.73974609</ele>
        <time>2021-10-17T11:06:38Z</time>
      </trkpt>
      <trkpt lat="43.12576" lon="1.1109">
        <ele>472.00973511</ele>
        <time>2021-10-17T11:06:39Z</time>
      </trkpt>
      <trkpt lat="43.12575" lon="1.11093">
        <ele>472.01974487</ele>
        <time>2021-10-17T11:06:40Z</time>
      </trkpt>
      <trkpt lat="43.12574" lon="1.11099">
        <ele>472.15975952</ele>
        <time>2021-10-17T11:06:41Z</time>
      </trkpt>
      <trkpt lat="43.12573" lon="1.11103">
        <ele>472.17974854</ele>
        <time>2021-10-17T11:06:42Z</time>
      </trkpt>
      <trkpt lat="43.12572" lon="1.11107">
        <ele>472.14974976</ele>
        <time>2021-10-17T11:06:43Z</time>
      </trkpt>
      <trkpt lat="43.12571" lon="1.11111">
        <ele>472.31976318</ele>
        <time>2021-10-17T11:06:44Z</time>
      </trkpt>
      <trkpt lat="43.1257" lon="1.11115">
        <ele>472.14974976</ele>
        <time>2021-10-17T11:06:45Z</time>
      </trkpt>
      <trkpt lat="43.12568" lon="1.11121">
        <ele>472.0897522</ele>
        <time>2021-10-17T11:06:46Z</time>
      </trkpt>
      <trkpt lat="43.12566" lon="1.11126">
        <ele>471.95974731</ele>
        <time>2021-10-17T11:06:47Z</time>
      </trkpt>
      <trkpt lat="43.12564" lon="1.11131">
        <ele>471.66973877</ele>
        <time>2021-10-17T11:06:48Z</time>
      </trkpt>
      <trkpt lat="43.12563" lon="1.11135">
        <ele>471.46972656</ele>
        <time>2021-10-17T11:06:49Z</time>
      </trkpt>
      <trkpt lat="43.1256" lon="1.11144">
        <ele>471.23971558</ele>
        <time>2021-10-17T11:06:50Z</time>
      </trkpt>
      <trkpt lat="43.12559" lon="1.1115">
        <ele>471.09970093</ele>
        <time>2021-10-17T11:06:51Z</time>
      </trkpt>
      <trkpt lat="43.12559" lon="1.11156">
        <ele>471.13970947</ele>
        <time>2021-10-17T11:06:52Z</time>
      </trkpt>
      <trkpt lat="43.12557" lon="1.11162">
        <ele>471.10971069</ele>
        <time>2021-10-17T11:06:53Z</time>
      </trkpt>
      <trkpt lat="43.12556" lon="1.11168">
        <ele>471.02972412</ele>
        <time>2021-10-17T11:06:54Z</time>
      </trkpt>
      <trkpt lat="43.12553" lon="1.11177">
        <ele>470.89971924</ele>
        <time>2021-10-17T11:06:55Z</time>
      </trkpt>
      <trkpt lat="43.12552" lon="1.11183">
        <ele>470.25970459</ele>
        <time>2021-10-17T11:06:56Z</time>
      </trkpt>
      <trkpt lat="43.12551" lon="1.1119">
        <ele>469.89971924</ele>
        <time>2021-10-17T11:06:57Z</time>
      </trkpt>
      <trkpt lat="43.12549" lon="1.11195">
        <ele>469.51971436</ele>
        <time>2021-10-17T11:06:58Z</time>
      </trkpt>
      <trkpt lat="43.12547" lon="1.11203">
        <ele>468.98971558</ele>
        <time>2021-10-17T11:06:59Z</time>
      </trkpt>
      <trkpt lat="43.12546" lon="1.11208">
        <ele>468.92971802</ele>
        <time>2021-10-17T11:07:00Z</time>
      </trkpt>
      <trkpt lat="43.12545" lon="1.11213">
        <ele>468.42971802</ele>
        <time>2021-10-17T11:07:01Z</time>
      </trkpt>
      <trkpt lat="43.12543" lon="1.11218">
        <ele>467.83972168</ele>
        <time>2021-10-17T11:07:02Z</time>
      </trkpt>
      <trkpt lat="43.12542" lon="1.11222">
        <ele>467.33972168</ele>
        <time>2021-10-17T11:07:03Z</time>
      </trkpt>
      <trkpt lat="43.12541" lon="1.11228">
        <ele>466.92971802</ele>
        <time>2021-10-17T11:07:04Z</time>
      </trkpt>
      <trkpt lat="43.1254" lon="1.1123">
        <ele>466.659729</ele>
        <time>2021-10-17T11:07:05Z</time>
      </trkpt>
      <trkpt lat="43.12541" lon="1.11231">
        <ele>466.53973389</ele>
        <time>2021-10-17T11:07:06Z</time>
      </trkpt>
      <trkpt lat="43.12541" lon="1.11232">
        <ele>466.51974487</ele>
        <time>2021-10-17T11:07:07Z</time>
      </trkpt>
      <trkpt lat="43.1254" lon="1.11237">
        <ele>465.98001099</ele>
        <time>2021-10-17T11:07:12Z</time>
      </trkpt>
      <trkpt lat="43.1254" lon="1.1124">
        <ele>465.93002319</ele>
        <time>2021-10-17T11:07:13Z</time>
      </trkpt>
      <trkpt lat="43.12539" lon="1.1124">
        <ele>465.8800354</ele>
        <time>2021-10-17T11:07:14Z</time>
      </trkpt>
      <trkpt lat="43.12539" lon="1.11242">
        <ele>465.81002808</ele>
        <time>2021-10-17T11:07:15Z</time>
      </trkpt>
      <trkpt lat="43.12538" lon="1.11243">
        <ele>465.7800293</ele>
        <time>2021-10-17T11:07:16Z</time>
      </trkpt>
      <trkpt lat="43.12538" lon="1.11246">
        <ele>465.71002197</ele>
        <time>2021-10-17T11:07:17Z</time>
      </trkpt>
      <trkpt lat="43.12538" lon="1.11248">
        <ele>465.56002808</ele>
        <time>2021-10-17T11:07:18Z</time>
      </trkpt>
      <trkpt lat="43.12537" lon="1.1125">
        <ele>465.37002563</ele>
        <time>2021-10-17T11:07:19Z</time>
      </trkpt>
      <trkpt lat="43.12538" lon="1.11252">
        <ele>465.21002197</ele>
        <time>2021-10-17T11:07:20Z</time>
      </trkpt>
      <trkpt lat="43.12537" lon="1.11254">
        <ele>465.09002686</ele>
        <time>2021-10-17T11:07:21Z</time>
      </trkpt>
      <trkpt lat="43.12538" lon="1.11257">
        <ele>465.12002563</ele>
        <time>2021-10-17T11:07:22Z</time>
      </trkpt>
      <trkpt lat="43.12538" lon="1.11258">
        <ele>465.15002441</ele>
        <time>2021-10-17T11:07:23Z</time>
      </trkpt>
      <trkpt lat="43.12539" lon="1.11259">
        <ele>465.20001221</ele>
        <time>2021-10-17T11:07:24Z</time>
      </trkpt>
      <trkpt lat="43.12539" lon="1.11261">
        <ele>465.20001221</ele>
        <time>2021-10-17T11:07:25Z</time>
      </trkpt>
      <trkpt lat="43.1254" lon="1.11262">
        <ele>465.18002319</ele>
        <time>2021-10-17T11:07:26Z</time>
      </trkpt>
      <trkpt lat="43.12539" lon="1.11265">
        <ele>465.06002808</ele>
        <time>2021-10-17T11:07:27Z</time>
      </trkpt>
      <trkpt lat="43.12539" lon="1.11266">
        <ele>464.93002319</ele>
        <time>2021-10-17T11:07:28Z</time>
      </trkpt>
      <trkpt lat="43.12539" lon="1.11267">
        <ele>464.80001831</ele>
        <time>2021-10-17T11:07:29Z</time>
      </trkpt>
      <trkpt lat="43.12539" lon="1.11269">
        <ele>464.6000061</ele>
        <time>2021-10-17T11:07:30Z</time>
      </trkpt>
      <trkpt lat="43.12539" lon="1.11272">
        <ele>464.6000061</ele>
        <time>2021-10-17T11:07:31Z</time>
      </trkpt>
      <trkpt lat="43.12539" lon="1.11273">
        <ele>464.64001465</ele>
        <time>2021-10-17T11:07:32Z</time>
      </trkpt>
      <trkpt lat="43.12539" lon="1.11273">
        <ele>464.69000244</ele>
        <time>2021-10-17T11:07:33Z</time>
      </trkpt>
      <trkpt lat="43.12538" lon="1.11275">
        <ele>464.69000244</ele>
        <time>2021-10-17T11:07:34Z</time>
      </trkpt>
      <trkpt lat="43.12538" lon="1.11278">
        <ele>464.61999512</ele>
        <time>2021-10-17T11:07:35Z</time>
      </trkpt>
      <trkpt lat="43.12537" lon="1.1128">
        <ele>464.44998169</ele>
        <time>2021-10-17T11:07:36Z</time>
      </trkpt>
      <trkpt lat="43.12537" lon="1.11282">
        <ele>464.34997559</ele>
        <time>2021-10-17T11:07:37Z</time>
      </trkpt>
      <trkpt lat="43.12536" lon="1.11285">
        <ele>464.45996094</ele>
        <time>2021-10-17T11:07:38Z</time>
      </trkpt>
      <trkpt lat="43.12536" lon="1.1129">
        <ele>464.45996094</ele>
        <time>2021-10-17T11:07:39Z</time>
      </trkpt>
      <trkpt lat="43.12535" lon="1.11293">
        <ele>464.43997192</ele>
        <time>2021-10-17T11:07:40Z</time>
      </trkpt>
      <trkpt lat="43.12534" lon="1.11297">
        <ele>464.20996094</ele>
        <time>2021-10-17T11:07:41Z</time>
      </trkpt>
      <trkpt lat="43.12533" lon="1.113">
        <ele>464.03994751</ele>
        <time>2021-10-17T11:07:42Z</time>
      </trkpt>
      <trkpt lat="43.12532" lon="1.11304">
        <ele>463.88995361</ele>
        <time>2021-10-17T11:07:43Z</time>
      </trkpt>
      <trkpt lat="43.1253" lon="1.11309">
        <ele>463.85995483</ele>
        <time>2021-10-17T11:07:44Z</time>
      </trkpt>
      <trkpt lat="43.12529" lon="1.11312">
        <ele>463.96994019</ele>
        <time>2021-10-17T11:07:45Z</time>
      </trkpt>
      <trkpt lat="43.12529" lon="1.11317">
        <ele>463.68994141</ele>
        <time>2021-10-17T11:07:46Z</time>
      </trkpt>
      <trkpt lat="43.12527" lon="1.11321">
        <ele>463.47994995</ele>
        <time>2021-10-17T11:07:47Z</time>
      </trkpt>
      <trkpt lat="43.12526" lon="1.11326">
        <ele>463.19995117</ele>
        <time>2021-10-17T11:07:48Z</time>
      </trkpt>
      <trkpt lat="43.12524" lon="1.11334">
        <ele>462.72994995</ele>
        <time>2021-10-17T11:07:49Z</time>
      </trkpt>
      <trkpt lat="43.12522" lon="1.11339">
        <ele>462.38995361</ele>
        <time>2021-10-17T11:07:50Z</time>
      </trkpt>
      <trkpt lat="43.12521" lon="1.11342">
        <ele>462.00994873</ele>
        <time>2021-10-17T11:07:51Z</time>
      </trkpt>
      <trkpt lat="43.1252" lon="1.11346">
        <ele>461.71994019</ele>
        <time>2021-10-17T11:07:52Z</time>
      </trkpt>
      <trkpt lat="43.12519" lon="1.11353">
        <ele>461.60995483</ele>
        <time>2021-10-17T11:07:53Z</time>
      </trkpt>
      <trkpt lat="43.12519" lon="1.11357">
        <ele>461.55996704</ele>
        <time>2021-10-17T11:07:54Z</time>
      </trkpt>
      <trkpt lat="43.12518" lon="1.11362">
        <ele>461.4699707</ele>
        <time>2021-10-17T11:07:55Z</time>
      </trkpt>
      <trkpt lat="43.12518" lon="1.11367">
        <ele>461.66998291</ele>
        <time>2021-10-17T11:07:56Z</time>
      </trkpt>
      <trkpt lat="43.1252" lon="1.11372">
        <ele>461.52996826</ele>
        <time>2021-10-17T11:07:57Z</time>
      </trkpt>
      <trkpt lat="43.12522" lon="1.1138">
        <ele>461.49996948</ele>
        <time>2021-10-17T11:07:58Z</time>
      </trkpt>
      <trkpt lat="43.12522" lon="1.11384">
        <ele>461.49996948</ele>
        <time>2021-10-17T11:07:59Z</time>
      </trkpt>
      <trkpt lat="43.12522" lon="1.11388">
        <ele>461.12997437</ele>
        <time>2021-10-17T11:08:00Z</time>
      </trkpt>
      <trkpt lat="43.1252" lon="1.11394">
        <ele>461.14996338</ele>
        <time>2021-10-17T11:08:01Z</time>
      </trkpt>
      <trkpt lat="43.12518" lon="1.11401">
        <ele>461.1199646</ele>
        <time>2021-10-17T11:08:02Z</time>
      </trkpt>
      <trkpt lat="43.12517" lon="1.11405">
        <ele>461.22994995</ele>
        <time>2021-10-17T11:08:03Z</time>
      </trkpt>
      <trkpt lat="43.12516" lon="1.11408">
        <ele>461.28994751</ele>
        <time>2021-10-17T11:08:04Z</time>
      </trkpt>
      <trkpt lat="43.12514" lon="1.11411">
        <ele>461.36993408</ele>
        <time>2021-10-17T11:08:05Z</time>
      </trkpt>
      <trkpt lat="43.12512" lon="1.11413">
        <ele>461.31994629</ele>
        <time>2021-10-17T11:08:06Z</time>
      </trkpt>
      <trkpt lat="43.12508" lon="1.11419">
        <ele>461.14993286</ele>
        <time>2021-10-17T11:08:07Z</time>
      </trkpt>
      <trkpt lat="43.12506" lon="1.11422">
        <ele>461.15994263</ele>
        <time>2021-10-17T11:08:08Z</time>
      </trkpt>
      <trkpt lat="43.12506" lon="1.11427">
        <ele>461.09994507</ele>
        <time>2021-10-17T11:08:09Z</time>
      </trkpt>
      <trkpt lat="43.12505" lon="1.11431">
        <ele>461.04995728</ele>
        <time>2021-10-17T11:08:10Z</time>
      </trkpt>
      <trkpt lat="43.12504" lon="1.11437">
        <ele>461.00994873</ele>
        <time>2021-10-17T11:08:11Z</time>
      </trkpt>
      <trkpt lat="43.12503" lon="1.11442">
        <ele>460.86993408</ele>
        <time>2021-10-17T11:08:12Z</time>
      </trkpt>
      <trkpt lat="43.12502" lon="1.11447">
        <ele>460.8899231</ele>
        <time>2021-10-17T11:08:13Z</time>
      </trkpt>
      <trkpt lat="43.12501" lon="1.11452">
        <ele>461.11993408</ele>
        <time>2021-10-17T11:08:14Z</time>
      </trkpt>
      <trkpt lat="43.12499" lon="1.11456">
        <ele>461.19992065</ele>
        <time>2021-10-17T11:08:15Z</time>
      </trkpt>
      <trkpt lat="43.12495" lon="1.11462">
        <ele>461.15991211</ele>
        <time>2021-10-17T11:08:16Z</time>
      </trkpt>
      <trkpt lat="43.12493" lon="1.11466">
        <ele>460.80990601</ele>
        <time>2021-10-17T11:08:17Z</time>
      </trkpt>
      <trkpt lat="43.1249" lon="1.11472">
        <ele>460.33990479</ele>
        <time>2021-10-17T11:08:18Z</time>
      </trkpt>
      <trkpt lat="43.12489" lon="1.11477">
        <ele>460.04989624</ele>
        <time>2021-10-17T11:08:19Z</time>
      </trkpt>
      <trkpt lat="43.12486" lon="1.11486">
        <ele>459.81988525</ele>
        <time>2021-10-17T11:08:20Z</time>
      </trkpt>
      <trkpt lat="43.12484" lon="1.1149">
        <ele>459.81988525</ele>
        <time>2021-10-17T11:08:21Z</time>
      </trkpt>
      <trkpt lat="43.12483" lon="1.11495">
        <ele>459.80987549</ele>
        <time>2021-10-17T11:08:22Z</time>
      </trkpt>
      <trkpt lat="43.12481" lon="1.115">
        <ele>459.98986816</ele>
        <time>2021-10-17T11:08:23Z</time>
      </trkpt>
      <trkpt lat="43.1248" lon="1.11505">
        <ele>459.96987915</ele>
        <time>2021-10-17T11:08:24Z</time>
      </trkpt>
      <trkpt lat="43.12478" lon="1.11512">
        <ele>459.95986938</ele>
        <time>2021-10-17T11:08:25Z</time>
      </trkpt>
      <trkpt lat="43.12477" lon="1.11517">
        <ele>460.05987549</ele>
        <time>2021-10-17T11:08:26Z</time>
      </trkpt>
      <trkpt lat="43.12477" lon="1.11522">
        <ele>460.15988159</ele>
        <time>2021-10-17T11:08:27Z</time>
      </trkpt>
      <trkpt lat="43.12475" lon="1.11529">
        <ele>460.2598877</ele>
        <time>2021-10-17T11:08:28Z</time>
      </trkpt>
      <trkpt lat="43.12474" lon="1.11538">
        <ele>460.36987305</ele>
        <time>2021-10-17T11:08:29Z</time>
      </trkpt>
      <trkpt lat="43.12473" lon="1.11543">
        <ele>460.4798584</ele>
        <time>2021-10-17T11:08:30Z</time>
      </trkpt>
      <trkpt lat="43.12472" lon="1.11549">
        <ele>460.66986084</ele>
        <time>2021-10-17T11:08:31Z</time>
      </trkpt>
      <trkpt lat="43.1247" lon="1.11555">
        <ele>460.7298584</ele>
        <time>2021-10-17T11:08:32Z</time>
      </trkpt>
      <trkpt lat="43.12469" lon="1.11564">
        <ele>460.88986206</ele>
        <time>2021-10-17T11:08:33Z</time>
      </trkpt>
      <trkpt lat="43.12468" lon="1.11568">
        <ele>460.96984863</ele>
        <time>2021-10-17T11:08:34Z</time>
      </trkpt>
      <trkpt lat="43.12467" lon="1.11573">
        <ele>461.02984619</ele>
        <time>2021-10-17T11:08:35Z</time>
      </trkpt>
      <trkpt lat="43.12466" lon="1.11578">
        <ele>461.26983643</ele>
        <time>2021-10-17T11:08:36Z</time>
      </trkpt>
      <trkpt lat="43.12465" lon="1.11584">
        <ele>461.4498291</ele>
        <time>2021-10-17T11:08:37Z</time>
      </trkpt>
      <trkpt lat="43.12465" lon="1.11594">
        <ele>461.65982056</ele>
        <time>2021-10-17T11:08:38Z</time>
      </trkpt>
      <trkpt lat="43.12463" lon="1.116">
        <ele>461.77981567</ele>
        <time>2021-10-17T11:08:39Z</time>
      </trkpt>
      <trkpt lat="43.12463" lon="1.11608">
        <ele>461.90982056</ele>
        <time>2021-10-17T11:08:40Z</time>
      </trkpt>
      <trkpt lat="43.12462" lon="1.11616">
        <ele>461.92980957</ele>
        <time>2021-10-17T11:08:41Z</time>
      </trkpt>
      <trkpt lat="43.12461" lon="1.11622">
        <ele>461.67980957</ele>
        <time>2021-10-17T11:08:42Z</time>
      </trkpt>
      <trkpt lat="43.12459" lon="1.11631">
        <ele>461.63980103</ele>
        <time>2021-10-17T11:08:43Z</time>
      </trkpt>
      <trkpt lat="43.12458" lon="1.11637">
        <ele>461.4697876</ele>
        <time>2021-10-17T11:08:44Z</time>
      </trkpt>
      <trkpt lat="43.12457" lon="1.11643">
        <ele>461.38980103</ele>
        <time>2021-10-17T11:08:45Z</time>
      </trkpt>
      <trkpt lat="43.12456" lon="1.11648">
        <ele>461.57980347</ele>
        <time>2021-10-17T11:08:46Z</time>
      </trkpt>
      <trkpt lat="43.12455" lon="1.11655">
        <ele>461.67980957</ele>
        <time>2021-10-17T11:08:47Z</time>
      </trkpt>
      <trkpt lat="43.12454" lon="1.1166">
        <ele>461.78979492</ele>
        <time>2021-10-17T11:08:48Z</time>
      </trkpt>
      <trkpt lat="43.12454" lon="1.11665">
        <ele>461.90979004</ele>
        <time>2021-10-17T11:08:49Z</time>
      </trkpt>
      <trkpt lat="43.12453" lon="1.1167">
        <ele>462.09979248</ele>
        <time>2021-10-17T11:08:50Z</time>
      </trkpt>
      <trkpt lat="43.12452" lon="1.11674">
        <ele>462.28979492</ele>
        <time>2021-10-17T11:08:51Z</time>
      </trkpt>
      <trkpt lat="43.12452" lon="1.11683">
        <ele>462.4697876</ele>
        <time>2021-10-17T11:08:52Z</time>
      </trkpt>
      <trkpt lat="43.12451" lon="1.11687">
        <ele>462.6697998</ele>
        <time>2021-10-17T11:08:53Z</time>
      </trkpt>
      <trkpt lat="43.12451" lon="1.11691">
        <ele>462.78979492</ele>
        <time>2021-10-17T11:08:54Z</time>
      </trkpt>
      <trkpt lat="43.12451" lon="1.11697">
        <ele>463.03979492</ele>
        <time>2021-10-17T11:08:55Z</time>
      </trkpt>
      <trkpt lat="43.1245" lon="1.11706">
        <ele>463.2197876</ele>
        <time>2021-10-17T11:08:56Z</time>
      </trkpt>
      <trkpt lat="43.12449" lon="1.11711">
        <ele>463.2197876</ele>
        <time>2021-10-17T11:08:57Z</time>
      </trkpt>
      <trkpt lat="43.12449" lon="1.11717">
        <ele>463.22979736</ele>
        <time>2021-10-17T11:08:58Z</time>
      </trkpt>
      <trkpt lat="43.12449" lon="1.11723">
        <ele>463.0697937</ele>
        <time>2021-10-17T11:08:59Z</time>
      </trkpt>
      <trkpt lat="43.12448" lon="1.11728">
        <ele>463.03979492</ele>
        <time>2021-10-17T11:09:00Z</time>
      </trkpt>
      <trkpt lat="43.12447" lon="1.11735">
        <ele>463.00979614</ele>
        <time>2021-10-17T11:09:01Z</time>
      </trkpt>
      <trkpt lat="43.12446" lon="1.11741">
        <ele>462.87979126</ele>
        <time>2021-10-17T11:09:02Z</time>
      </trkpt>
      <trkpt lat="43.12445" lon="1.11746">
        <ele>462.70977783</ele>
        <time>2021-10-17T11:09:03Z</time>
      </trkpt>
      <trkpt lat="43.12444" lon="1.11753">
        <ele>462.49978638</ele>
        <time>2021-10-17T11:09:04Z</time>
      </trkpt>
      <trkpt lat="43.12442" lon="1.1176">
        <ele>462.20977783</ele>
        <time>2021-10-17T11:09:05Z</time>
      </trkpt>
      <trkpt lat="43.12439" lon="1.11765">
        <ele>461.93978882</ele>
        <time>2021-10-17T11:09:06Z</time>
      </trkpt>
      <trkpt lat="43.12436" lon="1.11768">
        <ele>461.74978638</ele>
        <time>2021-10-17T11:09:07Z</time>
      </trkpt>
      <trkpt lat="43.12431" lon="1.1177">
        <ele>461.35977173</ele>
        <time>2021-10-17T11:09:08Z</time>
      </trkpt>
      <trkpt lat="43.12426" lon="1.11772">
        <ele>460.85977173</ele>
        <time>2021-10-17T11:09:09Z</time>
      </trkpt>
      <trkpt lat="43.12418" lon="1.11776">
        <ele>459.99978638</ele>
        <time>2021-10-17T11:09:10Z</time>
      </trkpt>
      <trkpt lat="43.12413" lon="1.11777">
        <ele>459.11978149</ele>
        <time>2021-10-17T11:09:11Z</time>
      </trkpt>
      <trkpt lat="43.12409" lon="1.11778">
        <ele>458.3197937</ele>
        <time>2021-10-17T11:09:12Z</time>
      </trkpt>
      <trkpt lat="43.12405" lon="1.11779">
        <ele>457.97979736</ele>
        <time>2021-10-17T11:09:13Z</time>
      </trkpt>
      <trkpt lat="43.12399" lon="1.11782">
        <ele>458.00979614</ele>
        <time>2021-10-17T11:09:14Z</time>
      </trkpt>
      <trkpt lat="43.12396" lon="1.11785">
        <ele>458.13980103</ele>
        <time>2021-10-17T11:09:15Z</time>
      </trkpt>
      <trkpt lat="43.12395" lon="1.11788">
        <ele>458.4697876</ele>
        <time>2021-10-17T11:09:16Z</time>
      </trkpt>
      <trkpt lat="43.12394" lon="1.1179">
        <ele>458.69979858</ele>
        <time>2021-10-17T11:09:17Z</time>
      </trkpt>
      <trkpt lat="43.12393" lon="1.11793">
        <ele>458.92980957</ele>
        <time>2021-10-17T11:09:18Z</time>
      </trkpt>
      <trkpt lat="43.12392" lon="1.11797">
        <ele>459.1697998</ele>
        <time>2021-10-17T11:09:19Z</time>
      </trkpt>
      <trkpt lat="43.12392" lon="1.118">
        <ele>459.32980347</ele>
        <time>2021-10-17T11:09:20Z</time>
      </trkpt>
      <trkpt lat="43.12391" lon="1.11802">
        <ele>459.4197998</ele>
        <time>2021-10-17T11:09:21Z</time>
      </trkpt>
      <trkpt lat="43.12391" lon="1.11805">
        <ele>459.5697937</ele>
        <time>2021-10-17T11:09:22Z</time>
      </trkpt>
      <trkpt lat="43.12391" lon="1.11809">
        <ele>459.70980835</ele>
        <time>2021-10-17T11:09:23Z</time>
      </trkpt>
      <trkpt lat="43.12391" lon="1.11811">
        <ele>459.85980225</ele>
        <time>2021-10-17T11:09:24Z</time>
      </trkpt>
      <trkpt lat="43.1239" lon="1.11813">
        <ele>459.98980713</ele>
        <time>2021-10-17T11:09:25Z</time>
      </trkpt>
      <trkpt lat="43.1239" lon="1.11816">
        <ele>460.0697937</ele>
        <time>2021-10-17T11:09:26Z</time>
      </trkpt>
      <trkpt lat="43.12388" lon="1.11821">
        <ele>460.13980103</ele>
        <time>2021-10-17T11:09:27Z</time>
      </trkpt>
      <trkpt lat="43.12388" lon="1.11824">
        <ele>460.20980835</ele>
        <time>2021-10-17T11:09:28Z</time>
      </trkpt>
      <trkpt lat="43.12388" lon="1.11827">
        <ele>460.4197998</ele>
        <time>2021-10-17T11:09:29Z</time>
      </trkpt>
      <trkpt lat="43.12388" lon="1.1183">
        <ele>460.58981323</ele>
        <time>2021-10-17T11:09:30Z</time>
      </trkpt>
      <trkpt lat="43.12388" lon="1.11833">
        <ele>460.80981445</ele>
        <time>2021-10-17T11:09:31Z</time>
      </trkpt>
      <trkpt lat="43.12387" lon="1.11837">
        <ele>460.95980835</ele>
        <time>2021-10-17T11:09:32Z</time>
      </trkpt>
      <trkpt lat="43.12386" lon="1.1184">
        <ele>461.00979614</ele>
        <time>2021-10-17T11:09:33Z</time>
      </trkpt>
      <trkpt lat="43.12385" lon="1.11843">
        <ele>461.14981079</ele>
        <time>2021-10-17T11:09:34Z</time>
      </trkpt>
      <trkpt lat="43.12385" lon="1.11845">
        <ele>461.21981812</ele>
        <time>2021-10-17T11:09:35Z</time>
      </trkpt>
      <trkpt lat="43.12383" lon="1.11846">
        <ele>461.4498291</ele>
        <time>2021-10-17T11:09:36Z</time>
      </trkpt>
      <trkpt lat="43.12381" lon="1.11849">
        <ele>461.599823</ele>
        <time>2021-10-17T11:09:37Z</time>
      </trkpt>
      <trkpt lat="43.12379" lon="1.11851">
        <ele>461.63983154</ele>
        <time>2021-10-17T11:09:38Z</time>
      </trkpt>
      <trkpt lat="43.12376" lon="1.11853">
        <ele>461.67984009</ele>
        <time>2021-10-17T11:09:39Z</time>
      </trkpt>
      <trkpt lat="43.12375" lon="1.11854">
        <ele>461.6998291</ele>
        <time>2021-10-17T11:09:40Z</time>
      </trkpt>
      <trkpt lat="43.12373" lon="1.11855">
        <ele>461.74981689</ele>
        <time>2021-10-17T11:09:41Z</time>
      </trkpt>
      <trkpt lat="43.1237" lon="1.11857">
        <ele>462.10980225</ele>
        <time>2021-10-17T11:09:42Z</time>
      </trkpt>
      <trkpt lat="43.12368" lon="1.11858">
        <ele>462.50979614</ele>
        <time>2021-10-17T11:09:43Z</time>
      </trkpt>
      <trkpt lat="43.12365" lon="1.11859">
        <ele>462.85980225</ele>
        <time>2021-10-17T11:09:44Z</time>
      </trkpt>
      <trkpt lat="43.12363" lon="1.1186">
        <ele>463.25979614</ele>
        <time>2021-10-17T11:09:45Z</time>
      </trkpt>
      <trkpt lat="43.1236" lon="1.11861">
        <ele>463.51980591</ele>
        <time>2021-10-17T11:09:46Z</time>
      </trkpt>
      <trkpt lat="43.12358" lon="1.11862">
        <ele>463.72979736</ele>
        <time>2021-10-17T11:09:47Z</time>
      </trkpt>
      <trkpt lat="43.12356" lon="1.11863">
        <ele>464.02978516</ele>
        <time>2021-10-17T11:09:48Z</time>
      </trkpt>
      <trkpt lat="43.12354" lon="1.11864">
        <ele>464.2197876</ele>
        <time>2021-10-17T11:09:49Z</time>
      </trkpt>
      <trkpt lat="43.12351" lon="1.11865">
        <ele>464.44979858</ele>
        <time>2021-10-17T11:09:50Z</time>
      </trkpt>
      <trkpt lat="43.12349" lon="1.11865">
        <ele>464.60980225</ele>
        <time>2021-10-17T11:09:51Z</time>
      </trkpt>
      <trkpt lat="43.12348" lon="1.11867">
        <ele>464.78979492</ele>
        <time>2021-10-17T11:09:52Z</time>
      </trkpt>
      <trkpt lat="43.12346" lon="1.11868">
        <ele>465.11978149</ele>
        <time>2021-10-17T11:09:53Z</time>
      </trkpt>
      <trkpt lat="43.12345" lon="1.11869">
        <ele>465.35977173</ele>
        <time>2021-10-17T11:09:54Z</time>
      </trkpt>
      <trkpt lat="43.12342" lon="1.1187">
        <ele>465.75976562</ele>
        <time>2021-10-17T11:09:55Z</time>
      </trkpt>
      <trkpt lat="43.12341" lon="1.11871">
        <ele>466.00976562</ele>
        <time>2021-10-17T11:09:56Z</time>
      </trkpt>
      <trkpt lat="43.1234" lon="1.11872">
        <ele>466.2897644</ele>
        <time>2021-10-17T11:09:57Z</time>
      </trkpt>
      <trkpt lat="43.12338" lon="1.11872">
        <ele>466.5397644</ele>
        <time>2021-10-17T11:09:58Z</time>
      </trkpt>
      <trkpt lat="43.12336" lon="1.11872">
        <ele>466.84976196</ele>
        <time>2021-10-17T11:09:59Z</time>
      </trkpt>
      <trkpt lat="43.12335" lon="1.11872">
        <ele>467.07977295</ele>
        <time>2021-10-17T11:10:00Z</time>
      </trkpt>
      <trkpt lat="43.12334" lon="1.11871">
        <ele>467.31976318</ele>
        <time>2021-10-17T11:10:01Z</time>
      </trkpt>
      <trkpt lat="43.12334" lon="1.11871">
        <ele>467.64974976</ele>
        <time>2021-10-17T11:10:02Z</time>
      </trkpt>
      <trkpt lat="43.12334" lon="1.11871">
        <ele>467.79974365</ele>
        <time>2021-10-17T11:10:03Z</time>
      </trkpt>
      <trkpt lat="43.12321" lon="1.11874">
        <ele>468.83999634</ele>
        <time>2021-10-17T11:10:19Z</time>
      </trkpt>
      <trkpt lat="43.1232" lon="1.11874">
        <ele>468.94998169</ele>
        <time>2021-10-17T11:10:20Z</time>
      </trkpt>
      <trkpt lat="43.12318" lon="1.11874">
        <ele>469.2199707</ele>
        <time>2021-10-17T11:10:21Z</time>
      </trkpt>
      <trkpt lat="43.12317" lon="1.11875">
        <ele>469.54995728</ele>
        <time>2021-10-17T11:10:22Z</time>
      </trkpt>
      <trkpt lat="43.12315" lon="1.11876">
        <ele>470.29995728</ele>
        <time>2021-10-17T11:10:23Z</time>
      </trkpt>
      <trkpt lat="43.12313" lon="1.11877">
        <ele>470.50994873</ele>
        <time>2021-10-17T11:10:24Z</time>
      </trkpt>
      <trkpt lat="43.12311" lon="1.11879">
        <ele>470.56994629</ele>
        <time>2021-10-17T11:10:25Z</time>
      </trkpt>
      <trkpt lat="43.12309" lon="1.11883">
        <ele>470.50994873</ele>
        <time>2021-10-17T11:10:26Z</time>
      </trkpt>
      <trkpt lat="43.12306" lon="1.11885">
        <ele>470.53994751</ele>
        <time>2021-10-17T11:10:27Z</time>
      </trkpt>
      <trkpt lat="43.12303" lon="1.11887">
        <ele>470.59994507</ele>
        <time>2021-10-17T11:10:28Z</time>
      </trkpt>
      <trkpt lat="43.12302" lon="1.11888">
        <ele>470.64993286</ele>
        <time>2021-10-17T11:10:29Z</time>
      </trkpt>
      <trkpt lat="43.12301" lon="1.11888">
        <ele>470.89993286</ele>
        <time>2021-10-17T11:10:30Z</time>
      </trkpt>
      <trkpt lat="43.12299" lon="1.1189">
        <ele>471.1399231</ele>
        <time>2021-10-17T11:10:31Z</time>
      </trkpt>
      <trkpt lat="43.12298" lon="1.11892">
        <ele>471.41992188</ele>
        <time>2021-10-17T11:10:32Z</time>
      </trkpt>
      <trkpt lat="43.12297" lon="1.11893">
        <ele>471.70993042</ele>
        <time>2021-10-17T11:10:33Z</time>
      </trkpt>
      <trkpt lat="43.12295" lon="1.11893">
        <ele>471.85992432</ele>
        <time>2021-10-17T11:10:34Z</time>
      </trkpt>
      <trkpt lat="43.12292" lon="1.11894">
        <ele>471.9899292</ele>
        <time>2021-10-17T11:10:35Z</time>
      </trkpt>
      <trkpt lat="43.12289" lon="1.11895">
        <ele>472.07992554</ele>
        <time>2021-10-17T11:10:36Z</time>
      </trkpt>
      <trkpt lat="43.12287" lon="1.11896">
        <ele>472.12991333</ele>
        <time>2021-10-17T11:10:37Z</time>
      </trkpt>
      <trkpt lat="43.12285" lon="1.11897">
        <ele>472.24990845</ele>
        <time>2021-10-17T11:10:38Z</time>
      </trkpt>
      <trkpt lat="43.12283" lon="1.11897">
        <ele>472.4598999</ele>
        <time>2021-10-17T11:10:39Z</time>
      </trkpt>
      <trkpt lat="43.12281" lon="1.11899">
        <ele>472.68991089</ele>
        <time>2021-10-17T11:10:40Z</time>
      </trkpt>
      <trkpt lat="43.12279" lon="1.11898">
        <ele>473.03991699</ele>
        <time>2021-10-17T11:10:41Z</time>
      </trkpt>
      <trkpt lat="43.12278" lon="1.11898">
        <ele>473.42993164</ele>
        <time>2021-10-17T11:10:42Z</time>
      </trkpt>
      <trkpt lat="43.12277" lon="1.11896">
        <ele>473.72991943</ele>
        <time>2021-10-17T11:10:43Z</time>
      </trkpt>
      <trkpt lat="43.12276" lon="1.11893">
        <ele>473.9899292</ele>
        <time>2021-10-17T11:10:44Z</time>
      </trkpt>
      <trkpt lat="43.12275" lon="1.11891">
        <ele>474.11993408</ele>
        <time>2021-10-17T11:10:45Z</time>
      </trkpt>
      <trkpt lat="43.12274" lon="1.11887">
        <ele>474.09994507</ele>
        <time>2021-10-17T11:10:46Z</time>
      </trkpt>
      <trkpt lat="43.12273" lon="1.11884">
        <ele>474.06994629</ele>
        <time>2021-10-17T11:10:47Z</time>
      </trkpt>
      <trkpt lat="43.1227" lon="1.1188">
        <ele>474.07995605</ele>
        <time>2021-10-17T11:10:48Z</time>
      </trkpt>
      <trkpt lat="43.12268" lon="1.11877">
        <ele>474.1199646</ele>
        <time>2021-10-17T11:10:49Z</time>
      </trkpt>
      <trkpt lat="43.12267" lon="1.11875">
        <ele>474.29995728</ele>
        <time>2021-10-17T11:10:50Z</time>
      </trkpt>
      <trkpt lat="43.12265" lon="1.11873">
        <ele>474.49996948</ele>
        <time>2021-10-17T11:10:51Z</time>
      </trkpt>
      <trkpt lat="43.12263" lon="1.11871">
        <ele>474.63998413</ele>
        <time>2021-10-17T11:10:52Z</time>
      </trkpt>
      <trkpt lat="43.12261" lon="1.1187">
        <ele>474.82998657</ele>
        <time>2021-10-17T11:10:53Z</time>
      </trkpt>
      <trkpt lat="43.12259" lon="1.11868">
        <ele>475.05999756</ele>
        <time>2021-10-17T11:10:54Z</time>
      </trkpt>
      <trkpt lat="43.12257" lon="1.11866">
        <ele>475.25</ele>
        <time>2021-10-17T11:10:55Z</time>
      </trkpt>
      <trkpt lat="43.12255" lon="1.11865">
        <ele>475.48001099</ele>
        <time>2021-10-17T11:10:56Z</time>
      </trkpt>
      <trkpt lat="43.12253" lon="1.11863">
        <ele>475.76000977</ele>
        <time>2021-10-17T11:10:57Z</time>
      </trkpt>
      <trkpt lat="43.1225" lon="1.1186">
        <ele>476.02001953</ele>
        <time>2021-10-17T11:10:58Z</time>
      </trkpt>
      <trkpt lat="43.12249" lon="1.11858">
        <ele>476.26000977</ele>
        <time>2021-10-17T11:10:59Z</time>
      </trkpt>
      <trkpt lat="43.12248" lon="1.11856">
        <ele>476.54000854</ele>
        <time>2021-10-17T11:11:00Z</time>
      </trkpt>
      <trkpt lat="43.12247" lon="1.11853">
        <ele>476.74002075</ele>
        <time>2021-10-17T11:11:01Z</time>
      </trkpt>
      <trkpt lat="43.12245" lon="1.11849">
        <ele>476.86001587</ele>
        <time>2021-10-17T11:11:02Z</time>
      </trkpt>
      <trkpt lat="43.12243" lon="1.11847">
        <ele>476.96002197</ele>
        <time>2021-10-17T11:11:03Z</time>
      </trkpt>
      <trkpt lat="43.12242" lon="1.11845">
        <ele>477.09002686</ele>
        <time>2021-10-17T11:11:04Z</time>
      </trkpt>
      <trkpt lat="43.1224" lon="1.11843">
        <ele>477.24002075</ele>
        <time>2021-10-17T11:11:05Z</time>
      </trkpt>
      <trkpt lat="43.12239" lon="1.11842">
        <ele>477.70001221</ele>
        <time>2021-10-17T11:11:06Z</time>
      </trkpt>
      <trkpt lat="43.12237" lon="1.1184">
        <ele>478.26000977</ele>
        <time>2021-10-17T11:11:07Z</time>
      </trkpt>
      <trkpt lat="43.12235" lon="1.11839">
        <ele>478.77001953</ele>
        <time>2021-10-17T11:11:08Z</time>
      </trkpt>
      <trkpt lat="43.12232" lon="1.1184">
        <ele>479.49002075</ele>
        <time>2021-10-17T11:11:09Z</time>
      </trkpt>
      <trkpt lat="43.1223" lon="1.11841">
        <ele>479.8500061</ele>
        <time>2021-10-17T11:11:10Z</time>
      </trkpt>
      <trkpt lat="43.12226" lon="1.11842">
        <ele>480.17001343</ele>
        <time>2021-10-17T11:11:11Z</time>
      </trkpt>
      <trkpt lat="43.12225" lon="1.11843">
        <ele>480.49002075</ele>
        <time>2021-10-17T11:11:12Z</time>
      </trkpt>
      <trkpt lat="43.12223" lon="1.11844">
        <ele>480.70001221</ele>
        <time>2021-10-17T11:11:13Z</time>
      </trkpt>
      <trkpt lat="43.12221" lon="1.11845">
        <ele>480.88000488</ele>
        <time>2021-10-17T11:11:14Z</time>
      </trkpt>
      <trkpt lat="43.1222" lon="1.11847">
        <ele>481.1000061</ele>
        <time>2021-10-17T11:11:15Z</time>
      </trkpt>
      <trkpt lat="43.12218" lon="1.11851">
        <ele>481.24002075</ele>
        <time>2021-10-17T11:11:16Z</time>
      </trkpt>
      <trkpt lat="43.12217" lon="1.11853">
        <ele>481.48001099</ele>
        <time>2021-10-17T11:11:17Z</time>
      </trkpt>
      <trkpt lat="43.12217" lon="1.11855">
        <ele>481.74002075</ele>
        <time>2021-10-17T11:11:18Z</time>
      </trkpt>
      <trkpt lat="43.12216" lon="1.11857">
        <ele>481.99002075</ele>
        <time>2021-10-17T11:11:19Z</time>
      </trkpt>
      <trkpt lat="43.12216" lon="1.1186">
        <ele>482.34002686</ele>
        <time>2021-10-17T11:11:20Z</time>
      </trkpt>
      <trkpt lat="43.12216" lon="1.11862">
        <ele>482.62002563</ele>
        <time>2021-10-17T11:11:21Z</time>
      </trkpt>
      <trkpt lat="43.12215" lon="1.11865">
        <ele>482.99002075</ele>
        <time>2021-10-17T11:11:22Z</time>
      </trkpt>
      <trkpt lat="43.12216" lon="1.11868">
        <ele>483.32000732</ele>
        <time>2021-10-17T11:11:23Z</time>
      </trkpt>
      <trkpt lat="43.12215" lon="1.11871">
        <ele>483.76000977</ele>
        <time>2021-10-17T11:11:24Z</time>
      </trkpt>
      <trkpt lat="43.12215" lon="1.11874">
        <ele>484.04000854</ele>
        <time>2021-10-17T11:11:25Z</time>
      </trkpt>
      <trkpt lat="43.12215" lon="1.11876">
        <ele>484.38000488</ele>
        <time>2021-10-17T11:11:26Z</time>
      </trkpt>
      <trkpt lat="43.12215" lon="1.11879">
        <ele>484.76000977</ele>
        <time>2021-10-17T11:11:27Z</time>
      </trkpt>
      <trkpt lat="43.12215" lon="1.11881">
        <ele>485.14001465</ele>
        <time>2021-10-17T11:11:28Z</time>
      </trkpt>
      <trkpt lat="43.12215" lon="1.11884">
        <ele>485.5</ele>
        <time>2021-10-17T11:11:29Z</time>
      </trkpt>
      <trkpt lat="43.12215" lon="1.1189">
        <ele>485.92999268</ele>
        <time>2021-10-17T11:11:30Z</time>
      </trkpt>
      <trkpt lat="43.12215" lon="1.11895">
        <ele>486.50997925</ele>
        <time>2021-10-17T11:11:31Z</time>
      </trkpt>
      <trkpt lat="43.12216" lon="1.11899">
        <ele>486.8999939</ele>
        <time>2021-10-17T11:11:32Z</time>
      </trkpt>
      <trkpt lat="43.12216" lon="1.11902">
        <ele>487.3500061</ele>
        <time>2021-10-17T11:11:33Z</time>
      </trkpt>
      <trkpt lat="43.12215" lon="1.11904">
        <ele>487.77999878</ele>
        <time>2021-10-17T11:11:34Z</time>
      </trkpt>
      <trkpt lat="43.12215" lon="1.11906">
        <ele>488.05999756</ele>
        <time>2021-10-17T11:11:35Z</time>
      </trkpt>
      <trkpt lat="43.12216" lon="1.11909">
        <ele>488.41000366</ele>
        <time>2021-10-17T11:11:36Z</time>
      </trkpt>
      <trkpt lat="43.12217" lon="1.11912">
        <ele>488.72000122</ele>
        <time>2021-10-17T11:11:37Z</time>
      </trkpt>
      <trkpt lat="43.12217" lon="1.11915">
        <ele>488.86999512</ele>
        <time>2021-10-17T11:11:38Z</time>
      </trkpt>
      <trkpt lat="43.12217" lon="1.11919">
        <ele>489.07000732</ele>
        <time>2021-10-17T11:11:39Z</time>
      </trkpt>
      <trkpt lat="43.12217" lon="1.11921">
        <ele>489.26000977</ele>
        <time>2021-10-17T11:11:40Z</time>
      </trkpt>
      <trkpt lat="43.12217" lon="1.11925">
        <ele>489.55001831</ele>
        <time>2021-10-17T11:11:41Z</time>
      </trkpt>
      <trkpt lat="43.12217" lon="1.11929">
        <ele>489.90002441</ele>
        <time>2021-10-17T11:11:42Z</time>
      </trkpt>
      <trkpt lat="43.12217" lon="1.11933">
        <ele>490.16003418</ele>
        <time>2021-10-17T11:11:43Z</time>
      </trkpt>
      <trkpt lat="43.12217" lon="1.11936">
        <ele>490.42004395</ele>
        <time>2021-10-17T11:11:44Z</time>
      </trkpt>
      <trkpt lat="43.12217" lon="1.1194">
        <ele>490.64004517</ele>
        <time>2021-10-17T11:11:45Z</time>
      </trkpt>
      <trkpt lat="43.12217" lon="1.11942">
        <ele>490.96005249</ele>
        <time>2021-10-17T11:11:46Z</time>
      </trkpt>
      <trkpt lat="43.12217" lon="1.11948">
        <ele>491.32003784</ele>
        <time>2021-10-17T11:11:47Z</time>
      </trkpt>
      <trkpt lat="43.12217" lon="1.11953">
        <ele>491.69003296</ele>
        <time>2021-10-17T11:11:48Z</time>
      </trkpt>
      <trkpt lat="43.12216" lon="1.11955">
        <ele>492.12002563</ele>
        <time>2021-10-17T11:11:49Z</time>
      </trkpt>
      <trkpt lat="43.12216" lon="1.11958">
        <ele>492.49002075</ele>
        <time>2021-10-17T11:11:50Z</time>
      </trkpt>
      <trkpt lat="43.12214" lon="1.11961">
        <ele>492.8500061</ele>
        <time>2021-10-17T11:11:51Z</time>
      </trkpt>
      <trkpt lat="43.12213" lon="1.11965">
        <ele>493.3500061</ele>
        <time>2021-10-17T11:11:52Z</time>
      </trkpt>
      <trkpt lat="43.12211" lon="1.11968">
        <ele>493.75</ele>
        <time>2021-10-17T11:11:53Z</time>
      </trkpt>
      <trkpt lat="43.1221" lon="1.11971">
        <ele>494.26000977</ele>
        <time>2021-10-17T11:11:54Z</time>
      </trkpt>
      <trkpt lat="43.12209" lon="1.11973">
        <ele>494.76000977</ele>
        <time>2021-10-17T11:11:55Z</time>
      </trkpt>
      <trkpt lat="43.12207" lon="1.11978">
        <ele>494.99002075</ele>
        <time>2021-10-17T11:11:56Z</time>
      </trkpt>
      <trkpt lat="43.12206" lon="1.11981">
        <ele>495.34002686</ele>
        <time>2021-10-17T11:11:57Z</time>
      </trkpt>
      <trkpt lat="43.12205" lon="1.11984">
        <ele>495.36001587</ele>
        <time>2021-10-17T11:11:58Z</time>
      </trkpt>
      <trkpt lat="43.12204" lon="1.11987">
        <ele>495.52001953</ele>
        <time>2021-10-17T11:11:59Z</time>
      </trkpt>
      <trkpt lat="43.12203" lon="1.1199">
        <ele>495.74002075</ele>
        <time>2021-10-17T11:12:00Z</time>
      </trkpt>
      <trkpt lat="43.12203" lon="1.11995">
        <ele>495.91003418</ele>
        <time>2021-10-17T11:12:01Z</time>
      </trkpt>
      <trkpt lat="43.12202" lon="1.11998">
        <ele>496.2800293</ele>
        <time>2021-10-17T11:12:02Z</time>
      </trkpt>
      <trkpt lat="43.12202" lon="1.12">
        <ele>496.52001953</ele>
        <time>2021-10-17T11:12:03Z</time>
      </trkpt>
      <trkpt lat="43.12202" lon="1.12003">
        <ele>496.82000732</ele>
        <time>2021-10-17T11:12:04Z</time>
      </trkpt>
      <trkpt lat="43.12203" lon="1.12005">
        <ele>497.05001831</ele>
        <time>2021-10-17T11:12:05Z</time>
      </trkpt>
      <trkpt lat="43.12203" lon="1.12007">
        <ele>497.20001221</ele>
        <time>2021-10-17T11:12:06Z</time>
      </trkpt>
      <trkpt lat="43.12202" lon="1.12008">
        <ele>497.29000854</ele>
        <time>2021-10-17T11:12:07Z</time>
      </trkpt>
      <trkpt lat="43.12202" lon="1.1201">
        <ele>497.39001465</ele>
        <time>2021-10-17T11:12:08Z</time>
      </trkpt>
      <trkpt lat="43.12202" lon="1.12013">
        <ele>497.44000244</ele>
        <time>2021-10-17T11:12:09Z</time>
      </trkpt>
      <trkpt lat="43.12201" lon="1.12017">
        <ele>497.54000854</ele>
        <time>2021-10-17T11:12:10Z</time>
      </trkpt>
      <trkpt lat="43.122" lon="1.12019">
        <ele>497.66000366</ele>
        <time>2021-10-17T11:12:11Z</time>
      </trkpt>
      <trkpt lat="43.122" lon="1.12023">
        <ele>497.70001221</ele>
        <time>2021-10-17T11:12:12Z</time>
      </trkpt>
      <trkpt lat="43.12199" lon="1.12025">
        <ele>497.80999756</ele>
        <time>2021-10-17T11:12:13Z</time>
      </trkpt>
      <trkpt lat="43.122" lon="1.12031">
        <ele>497.91998291</ele>
        <time>2021-10-17T11:12:14Z</time>
      </trkpt>
      <trkpt lat="43.122" lon="1.12034">
        <ele>498.07998657</ele>
        <time>2021-10-17T11:12:15Z</time>
      </trkpt>
      <trkpt lat="43.122" lon="1.12036">
        <ele>498.23999023</ele>
        <time>2021-10-17T11:12:16Z</time>
      </trkpt>
      <trkpt lat="43.122" lon="1.12039">
        <ele>498.3999939</ele>
        <time>2021-10-17T11:12:17Z</time>
      </trkpt>
      <trkpt lat="43.12201" lon="1.1204">
        <ele>498.54000854</ele>
        <time>2021-10-17T11:12:18Z</time>
      </trkpt>
      <trkpt lat="43.12201" lon="1.12045">
        <ele>498.66000366</ele>
        <time>2021-10-17T11:12:19Z</time>
      </trkpt>
      <trkpt lat="43.12201" lon="1.12047">
        <ele>498.80999756</ele>
        <time>2021-10-17T11:12:20Z</time>
      </trkpt>
      <trkpt lat="43.12201" lon="1.1205">
        <ele>498.92999268</ele>
        <time>2021-10-17T11:12:21Z</time>
      </trkpt>
      <trkpt lat="43.12201" lon="1.12052">
        <ele>499.13998413</ele>
        <time>2021-10-17T11:12:22Z</time>
      </trkpt>
      <trkpt lat="43.122" lon="1.12056">
        <ele>499.32998657</ele>
        <time>2021-10-17T11:12:23Z</time>
      </trkpt>
      <trkpt lat="43.122" lon="1.12059">
        <ele>499.50997925</ele>
        <time>2021-10-17T11:12:24Z</time>
      </trkpt>
      <trkpt lat="43.122" lon="1.12062">
        <ele>499.72998047</ele>
        <time>2021-10-17T11:12:25Z</time>
      </trkpt>
      <trkpt lat="43.122" lon="1.12063">
        <ele>499.81997681</ele>
        <time>2021-10-17T11:12:26Z</time>
      </trkpt>
      <trkpt lat="43.12199" lon="1.12065">
        <ele>499.90997314</ele>
        <time>2021-10-17T11:12:27Z</time>
      </trkpt>
      <trkpt lat="43.12198" lon="1.12068">
        <ele>500.00997925</ele>
        <time>2021-10-17T11:12:28Z</time>
      </trkpt>
      <trkpt lat="43.12198" lon="1.12071">
        <ele>500.10998535</ele>
        <time>2021-10-17T11:12:29Z</time>
      </trkpt>
      <trkpt lat="43.12197" lon="1.12073">
        <ele>500.2199707</ele>
        <time>2021-10-17T11:12:30Z</time>
      </trkpt>
      <trkpt lat="43.12197" lon="1.12074">
        <ele>500.3699646</ele>
        <time>2021-10-17T11:12:31Z</time>
      </trkpt>
      <trkpt lat="43.12196" lon="1.12076">
        <ele>500.50997925</ele>
        <time>2021-10-17T11:12:32Z</time>
      </trkpt>
      <trkpt lat="43.12196" lon="1.12078">
        <ele>500.65997314</ele>
        <time>2021-10-17T11:12:33Z</time>
      </trkpt>
      <trkpt lat="43.12196" lon="1.12081">
        <ele>500.87997437</ele>
        <time>2021-10-17T11:12:34Z</time>
      </trkpt>
      <trkpt lat="43.12196" lon="1.12084">
        <ele>500.98995972</ele>
        <time>2021-10-17T11:12:35Z</time>
      </trkpt>
      <trkpt lat="43.12196" lon="1.12087">
        <ele>501.15997314</ele>
        <time>2021-10-17T11:12:36Z</time>
      </trkpt>
      <trkpt lat="43.12197" lon="1.1209">
        <ele>501.30996704</ele>
        <time>2021-10-17T11:12:37Z</time>
      </trkpt>
      <trkpt lat="43.12197" lon="1.12093">
        <ele>501.37997437</ele>
        <time>2021-10-17T11:12:38Z</time>
      </trkpt>
      <trkpt lat="43.12197" lon="1.12094">
        <ele>501.51998901</ele>
        <time>2021-10-17T11:12:39Z</time>
      </trkpt>
      <trkpt lat="43.12196" lon="1.12096">
        <ele>501.59997559</ele>
        <time>2021-10-17T11:12:40Z</time>
      </trkpt>
      <trkpt lat="43.12195" lon="1.12098">
        <ele>501.75997925</ele>
        <time>2021-10-17T11:12:41Z</time>
      </trkpt>
      <trkpt lat="43.12194" lon="1.12099">
        <ele>501.93997192</ele>
        <time>2021-10-17T11:12:42Z</time>
      </trkpt>
      <trkpt lat="43.12193" lon="1.12101">
        <ele>502.12997437</ele>
        <time>2021-10-17T11:12:43Z</time>
      </trkpt>
      <trkpt lat="43.12193" lon="1.12103">
        <ele>502.33996582</ele>
        <time>2021-10-17T11:12:44Z</time>
      </trkpt>
      <trkpt lat="43.12192" lon="1.12105">
        <ele>502.47998047</ele>
        <time>2021-10-17T11:12:45Z</time>
      </trkpt>
      <trkpt lat="43.12191" lon="1.12107">
        <ele>502.62997437</ele>
        <time>2021-10-17T11:12:46Z</time>
      </trkpt>
      <trkpt lat="43.1219" lon="1.12109">
        <ele>502.68997192</ele>
        <time>2021-10-17T11:12:47Z</time>
      </trkpt>
      <trkpt lat="43.1219" lon="1.12112">
        <ele>502.7699585</ele>
        <time>2021-10-17T11:12:48Z</time>
      </trkpt>
      <trkpt lat="43.12189" lon="1.12114">
        <ele>502.87994385</ele>
        <time>2021-10-17T11:12:49Z</time>
      </trkpt>
      <trkpt lat="43.12189" lon="1.12115">
        <ele>502.96994019</ele>
        <time>2021-10-17T11:12:50Z</time>
      </trkpt>
      <trkpt lat="43.12188" lon="1.12117">
        <ele>503.13995361</ele>
        <time>2021-10-17T11:12:51Z</time>
      </trkpt>
      <trkpt lat="43.12188" lon="1.12118">
        <ele>503.2699585</ele>
        <time>2021-10-17T11:12:52Z</time>
      </trkpt>
      <trkpt lat="43.12186" lon="1.12119">
        <ele>503.32995605</ele>
        <time>2021-10-17T11:12:53Z</time>
      </trkpt>
      <trkpt lat="43.12185" lon="1.12121">
        <ele>503.3699646</ele>
        <time>2021-10-17T11:12:54Z</time>
      </trkpt>
      <trkpt lat="43.12184" lon="1.12125">
        <ele>503.34997559</ele>
        <time>2021-10-17T11:12:55Z</time>
      </trkpt>
      <trkpt lat="43.12183" lon="1.12128">
        <ele>503.34997559</ele>
        <time>2021-10-17T11:12:56Z</time>
      </trkpt>
      <trkpt lat="43.12182" lon="1.1213">
        <ele>503.41998291</ele>
        <time>2021-10-17T11:12:57Z</time>
      </trkpt>
      <trkpt lat="43.12181" lon="1.12132">
        <ele>503.48999023</ele>
        <time>2021-10-17T11:12:58Z</time>
      </trkpt>
      <trkpt lat="43.12179" lon="1.12136">
        <ele>503.44000244</ele>
        <time>2021-10-17T11:12:59Z</time>
      </trkpt>
      <trkpt lat="43.12178" lon="1.12139">
        <ele>503.3500061</ele>
        <time>2021-10-17T11:13:00Z</time>
      </trkpt>
      <trkpt lat="43.12177" lon="1.12144">
        <ele>503.16000366</ele>
        <time>2021-10-17T11:13:01Z</time>
      </trkpt>
      <trkpt lat="43.12176" lon="1.12147">
        <ele>503.08001709</ele>
        <time>2021-10-17T11:13:02Z</time>
      </trkpt>
      <trkpt lat="43.12175" lon="1.1215">
        <ele>503.11001587</ele>
        <time>2021-10-17T11:13:03Z</time>
      </trkpt>
      <trkpt lat="43.12174" lon="1.12155">
        <ele>503.15002441</ele>
        <time>2021-10-17T11:13:04Z</time>
      </trkpt>
      <trkpt lat="43.12173" lon="1.12157">
        <ele>503.39001465</ele>
        <time>2021-10-17T11:13:05Z</time>
      </trkpt>
      <trkpt lat="43.12172" lon="1.1216">
        <ele>503.48001099</ele>
        <time>2021-10-17T11:13:06Z</time>
      </trkpt>
      <trkpt lat="43.12171" lon="1.12162">
        <ele>503.55999756</ele>
        <time>2021-10-17T11:13:07Z</time>
      </trkpt>
      <trkpt lat="43.12171" lon="1.12164">
        <ele>503.76998901</ele>
        <time>2021-10-17T11:13:08Z</time>
      </trkpt>
      <trkpt lat="43.12171" lon="1.12168">
        <ele>503.75997925</ele>
        <time>2021-10-17T11:13:09Z</time>
      </trkpt>
      <trkpt lat="43.1217" lon="1.1217">
        <ele>503.92999268</ele>
        <time>2021-10-17T11:13:10Z</time>
      </trkpt>
      <trkpt lat="43.1217" lon="1.12173">
        <ele>504.19998169</ele>
        <time>2021-10-17T11:13:11Z</time>
      </trkpt>
      <trkpt lat="43.1217" lon="1.12175">
        <ele>504.38998413</ele>
        <time>2021-10-17T11:13:12Z</time>
      </trkpt>
      <trkpt lat="43.12169" lon="1.12178">
        <ele>504.59997559</ele>
        <time>2021-10-17T11:13:13Z</time>
      </trkpt>
      <trkpt lat="43.12169" lon="1.12181">
        <ele>504.77996826</ele>
        <time>2021-10-17T11:13:14Z</time>
      </trkpt>
      <trkpt lat="43.12169" lon="1.12183">
        <ele>504.92996216</ele>
        <time>2021-10-17T11:13:15Z</time>
      </trkpt>
      <trkpt lat="43.12168" lon="1.12186">
        <ele>505.10995483</ele>
        <time>2021-10-17T11:13:16Z</time>
      </trkpt>
      <trkpt lat="43.12168" lon="1.12189">
        <ele>505.49996948</ele>
        <time>2021-10-17T11:13:17Z</time>
      </trkpt>
      <trkpt lat="43.12167" lon="1.12191">
        <ele>505.83996582</ele>
        <time>2021-10-17T11:13:18Z</time>
      </trkpt>
      <trkpt lat="43.12167" lon="1.12194">
        <ele>506.19995117</ele>
        <time>2021-10-17T11:13:19Z</time>
      </trkpt>
      <trkpt lat="43.12167" lon="1.12197">
        <ele>506.55993652</ele>
        <time>2021-10-17T11:13:20Z</time>
      </trkpt>
      <trkpt lat="43.12167" lon="1.12201">
        <ele>506.71994019</ele>
        <time>2021-10-17T11:13:21Z</time>
      </trkpt>
      <trkpt lat="43.12168" lon="1.12208">
        <ele>506.92993164</ele>
        <time>2021-10-17T11:13:22Z</time>
      </trkpt>
      <trkpt lat="43.12168" lon="1.12211">
        <ele>507.16992188</ele>
        <time>2021-10-17T11:13:23Z</time>
      </trkpt>
      <trkpt lat="43.12168" lon="1.12215">
        <ele>507.32992554</ele>
        <time>2021-10-17T11:13:24Z</time>
      </trkpt>
      <trkpt lat="43.12168" lon="1.12218">
        <ele>507.59991455</ele>
        <time>2021-10-17T11:13:25Z</time>
      </trkpt>
      <trkpt lat="43.12168" lon="1.12221">
        <ele>507.8899231</ele>
        <time>2021-10-17T11:13:26Z</time>
      </trkpt>
      <trkpt lat="43.12168" lon="1.12224">
        <ele>508.10992432</ele>
        <time>2021-10-17T11:13:27Z</time>
      </trkpt>
      <trkpt lat="43.12167" lon="1.12227">
        <ele>508.37991333</ele>
        <time>2021-10-17T11:13:28Z</time>
      </trkpt>
      <trkpt lat="43.12167" lon="1.12231">
        <ele>508.6399231</ele>
        <time>2021-10-17T11:13:29Z</time>
      </trkpt>
      <trkpt lat="43.12166" lon="1.12234">
        <ele>508.84991455</ele>
        <time>2021-10-17T11:13:30Z</time>
      </trkpt>
      <trkpt lat="43.12165" lon="1.12237">
        <ele>509.04992676</ele>
        <time>2021-10-17T11:13:31Z</time>
      </trkpt>
      <trkpt lat="43.12165" lon="1.12239">
        <ele>509.2399292</ele>
        <time>2021-10-17T11:13:32Z</time>
      </trkpt>
      <trkpt lat="43.12165" lon="1.12241">
        <ele>509.32992554</ele>
        <time>2021-10-17T11:13:33Z</time>
      </trkpt>
      <trkpt lat="43.12164" lon="1.12244">
        <ele>509.43991089</ele>
        <time>2021-10-17T11:13:34Z</time>
      </trkpt>
      <trkpt lat="43.12166" lon="1.12249">
        <ele>509.53991699</ele>
        <time>2021-10-17T11:13:35Z</time>
      </trkpt>
      <trkpt lat="43.12167" lon="1.12252">
        <ele>509.6399231</ele>
        <time>2021-10-17T11:13:36Z</time>
      </trkpt>
      <trkpt lat="43.12168" lon="1.12255">
        <ele>509.7399292</ele>
        <time>2021-10-17T11:13:37Z</time>
      </trkpt>
      <trkpt lat="43.12169" lon="1.12258">
        <ele>509.78991699</ele>
        <time>2021-10-17T11:13:38Z</time>
      </trkpt>
      <trkpt lat="43.12169" lon="1.12261">
        <ele>509.87991333</ele>
        <time>2021-10-17T11:13:39Z</time>
      </trkpt>
      <trkpt lat="43.12168" lon="1.12265">
        <ele>509.99990845</ele>
        <time>2021-10-17T11:13:40Z</time>
      </trkpt>
      <trkpt lat="43.12167" lon="1.12267">
        <ele>510.07989502</ele>
        <time>2021-10-17T11:13:41Z</time>
      </trkpt>
      <trkpt lat="43.12167" lon="1.12269">
        <ele>510.18988037</ele>
        <time>2021-10-17T11:13:42Z</time>
      </trkpt>
      <trkpt lat="43.12166" lon="1.12271">
        <ele>510.27987671</ele>
        <time>2021-10-17T11:13:43Z</time>
      </trkpt>
      <trkpt lat="43.12166" lon="1.12273">
        <ele>510.31988525</ele>
        <time>2021-10-17T11:13:44Z</time>
      </trkpt>
      <trkpt lat="43.12165" lon="1.12276">
        <ele>510.44989014</ele>
        <time>2021-10-17T11:13:45Z</time>
      </trkpt>
      <trkpt lat="43.12165" lon="1.12279">
        <ele>510.57989502</ele>
        <time>2021-10-17T11:13:46Z</time>
      </trkpt>
      <trkpt lat="43.12165" lon="1.12281">
        <ele>510.65988159</ele>
        <time>2021-10-17T11:13:47Z</time>
      </trkpt>
      <trkpt lat="43.12165" lon="1.12284">
        <ele>510.67987061</ele>
        <time>2021-10-17T11:13:48Z</time>
      </trkpt>
      <trkpt lat="43.12165" lon="1.12287">
        <ele>510.79986572</ele>
        <time>2021-10-17T11:13:49Z</time>
      </trkpt>
      <trkpt lat="43.12165" lon="1.12289">
        <ele>510.86987305</ele>
        <time>2021-10-17T11:13:50Z</time>
      </trkpt>
      <trkpt lat="43.12166" lon="1.12291">
        <ele>511.01986694</ele>
        <time>2021-10-17T11:13:51Z</time>
      </trkpt>
      <trkpt lat="43.12166" lon="1.12292">
        <ele>511.15988159</ele>
        <time>2021-10-17T11:13:52Z</time>
      </trkpt>
      <trkpt lat="43.12167" lon="1.12296">
        <ele>511.15988159</ele>
        <time>2021-10-17T11:13:53Z</time>
      </trkpt>
      <trkpt lat="43.12166" lon="1.12298">
        <ele>511.09988403</ele>
        <time>2021-10-17T11:13:54Z</time>
      </trkpt>
      <trkpt lat="43.12167" lon="1.12301">
        <ele>511.03988647</ele>
        <time>2021-10-17T11:13:55Z</time>
      </trkpt>
      <trkpt lat="43.12167" lon="1.12305">
        <ele>510.97988892</ele>
        <time>2021-10-17T11:13:56Z</time>
      </trkpt>
      <trkpt lat="43.12167" lon="1.1231">
        <ele>510.86990356</ele>
        <time>2021-10-17T11:13:57Z</time>
      </trkpt>
      <trkpt lat="43.12167" lon="1.12314">
        <ele>510.78991699</ele>
        <time>2021-10-17T11:13:58Z</time>
      </trkpt>
      <trkpt lat="43.12166" lon="1.12317">
        <ele>510.61990356</ele>
        <time>2021-10-17T11:13:59Z</time>
      </trkpt>
      <trkpt lat="43.12166" lon="1.12321">
        <ele>510.48989868</ele>
        <time>2021-10-17T11:14:00Z</time>
      </trkpt>
      <trkpt lat="43.12166" lon="1.12325">
        <ele>510.37991333</ele>
        <time>2021-10-17T11:14:01Z</time>
      </trkpt>
      <trkpt lat="43.12168" lon="1.12329">
        <ele>510.21990967</ele>
        <time>2021-10-17T11:14:02Z</time>
      </trkpt>
      <trkpt lat="43.12168" lon="1.12335">
        <ele>510.11990356</ele>
        <time>2021-10-17T11:14:03Z</time>
      </trkpt>
      <trkpt lat="43.12167" lon="1.1234">
        <ele>509.91989136</ele>
        <time>2021-10-17T11:14:04Z</time>
      </trkpt>
      <trkpt lat="43.12167" lon="1.12345">
        <ele>509.78988647</ele>
        <time>2021-10-17T11:14:05Z</time>
      </trkpt>
      <trkpt lat="43.12167" lon="1.1235">
        <ele>509.63989258</ele>
        <time>2021-10-17T11:14:06Z</time>
      </trkpt>
      <trkpt lat="43.12168" lon="1.12357">
        <ele>509.43988037</ele>
        <time>2021-10-17T11:14:07Z</time>
      </trkpt>
      <trkpt lat="43.12168" lon="1.12361">
        <ele>509.33987427</ele>
        <time>2021-10-17T11:14:08Z</time>
      </trkpt>
      <trkpt lat="43.12169" lon="1.12366">
        <ele>509.17987061</ele>
        <time>2021-10-17T11:14:09Z</time>
      </trkpt>
      <trkpt lat="43.12169" lon="1.12369">
        <ele>509.15988159</ele>
        <time>2021-10-17T11:14:10Z</time>
      </trkpt>
      <trkpt lat="43.12169" lon="1.12372">
        <ele>509.14987183</ele>
        <time>2021-10-17T11:14:11Z</time>
      </trkpt>
      <trkpt lat="43.1217" lon="1.1238">
        <ele>509.04986572</ele>
        <time>2021-10-17T11:14:12Z</time>
      </trkpt>
      <trkpt lat="43.1217" lon="1.12386">
        <ele>509.03985596</ele>
        <time>2021-10-17T11:14:13Z</time>
      </trkpt>
      <trkpt lat="43.1217" lon="1.12391">
        <ele>508.94985962</ele>
        <time>2021-10-17T11:14:14Z</time>
      </trkpt>
      <trkpt lat="43.12169" lon="1.12394">
        <ele>508.95986938</ele>
        <time>2021-10-17T11:14:15Z</time>
      </trkpt>
      <trkpt lat="43.12169" lon="1.124">
        <ele>508.86987305</ele>
        <time>2021-10-17T11:14:16Z</time>
      </trkpt>
      <trkpt lat="43.12168" lon="1.12404">
        <ele>508.7298584</ele>
        <time>2021-10-17T11:14:17Z</time>
      </trkpt>
      <trkpt lat="43.12167" lon="1.12408">
        <ele>508.63986206</ele>
        <time>2021-10-17T11:14:18Z</time>
      </trkpt>
      <trkpt lat="43.12166" lon="1.12413">
        <ele>508.41986084</ele>
        <time>2021-10-17T11:14:19Z</time>
      </trkpt>
      <trkpt lat="43.12165" lon="1.12419">
        <ele>508.2298584</ele>
        <time>2021-10-17T11:14:20Z</time>
      </trkpt>
      <trkpt lat="43.12165" lon="1.12424">
        <ele>508.06985474</ele>
        <time>2021-10-17T11:14:21Z</time>
      </trkpt>
      <trkpt lat="43.12165" lon="1.1243">
        <ele>507.81985474</ele>
        <time>2021-10-17T11:14:22Z</time>
      </trkpt>
      <trkpt lat="43.12164" lon="1.12436">
        <ele>507.43984985</ele>
        <time>2021-10-17T11:14:23Z</time>
      </trkpt>
      <trkpt lat="43.12163" lon="1.12442">
        <ele>507.19985962</ele>
        <time>2021-10-17T11:14:24Z</time>
      </trkpt>
      <trkpt lat="43.12163" lon="1.12452">
        <ele>506.81985474</ele>
        <time>2021-10-17T11:14:25Z</time>
      </trkpt>
      <trkpt lat="43.12162" lon="1.12458">
        <ele>506.50985718</ele>
        <time>2021-10-17T11:14:26Z</time>
      </trkpt>
      <trkpt lat="43.1216" lon="1.12464">
        <ele>506.24984741</ele>
        <time>2021-10-17T11:14:27Z</time>
      </trkpt>
      <trkpt lat="43.12159" lon="1.12471">
        <ele>505.70983887</ele>
        <time>2021-10-17T11:14:28Z</time>
      </trkpt>
      <trkpt lat="43.12156" lon="1.12483">
        <ele>505.40985107</ele>
        <time>2021-10-17T11:14:29Z</time>
      </trkpt>
      <trkpt lat="43.12154" lon="1.12489">
        <ele>504.75985718</ele>
        <time>2021-10-17T11:14:30Z</time>
      </trkpt>
      <trkpt lat="43.12153" lon="1.12494">
        <ele>504.43984985</ele>
        <time>2021-10-17T11:14:31Z</time>
      </trkpt>
      <trkpt lat="43.12151" lon="1.12499">
        <ele>504.33984375</ele>
        <time>2021-10-17T11:14:32Z</time>
      </trkpt>
      <trkpt lat="43.12148" lon="1.12508">
        <ele>504.07983398</ele>
        <time>2021-10-17T11:14:33Z</time>
      </trkpt>
      <trkpt lat="43.12146" lon="1.12513">
        <ele>504.01983643</ele>
        <time>2021-10-17T11:14:34Z</time>
      </trkpt>
      <trkpt lat="43.12145" lon="1.1252">
        <ele>503.67984009</ele>
        <time>2021-10-17T11:14:35Z</time>
      </trkpt>
      <trkpt lat="43.12143" lon="1.12527">
        <ele>503.45983887</ele>
        <time>2021-10-17T11:14:36Z</time>
      </trkpt>
      <trkpt lat="43.12142" lon="1.12533">
        <ele>503.06982422</ele>
        <time>2021-10-17T11:14:37Z</time>
      </trkpt>
      <trkpt lat="43.12141" lon="1.12542">
        <ele>502.88983154</ele>
        <time>2021-10-17T11:14:38Z</time>
      </trkpt>
      <trkpt lat="43.12139" lon="1.12553">
        <ele>502.87982178</ele>
        <time>2021-10-17T11:14:39Z</time>
      </trkpt>
      <trkpt lat="43.12138" lon="1.12561">
        <ele>502.72982788</ele>
        <time>2021-10-17T11:14:40Z</time>
      </trkpt>
      <trkpt lat="43.12136" lon="1.12567">
        <ele>502.64984131</ele>
        <time>2021-10-17T11:14:41Z</time>
      </trkpt>
      <trkpt lat="43.12134" lon="1.12577">
        <ele>502.51983643</ele>
        <time>2021-10-17T11:14:42Z</time>
      </trkpt>
      <trkpt lat="43.12134" lon="1.12582">
        <ele>502.25982666</ele>
        <time>2021-10-17T11:14:43Z</time>
      </trkpt>
      <trkpt lat="43.12134" lon="1.12588">
        <ele>502.07983398</ele>
        <time>2021-10-17T11:14:44Z</time>
      </trkpt>
      <trkpt lat="43.12134" lon="1.12596">
        <ele>502.06982422</ele>
        <time>2021-10-17T11:14:45Z</time>
      </trkpt>
      <trkpt lat="43.12135" lon="1.12605">
        <ele>502.00982666</ele>
        <time>2021-10-17T11:14:46Z</time>
      </trkpt>
      <trkpt lat="43.12134" lon="1.12616">
        <ele>501.89984131</ele>
        <time>2021-10-17T11:14:47Z</time>
      </trkpt>
      <trkpt lat="43.12134" lon="1.12624">
        <ele>501.84985352</ele>
        <time>2021-10-17T11:14:48Z</time>
      </trkpt>
      <trkpt lat="43.12134" lon="1.12633">
        <ele>501.5798645</ele>
        <time>2021-10-17T11:14:49Z</time>
      </trkpt>
      <trkpt lat="43.12134" lon="1.12642">
        <ele>501.3298645</ele>
        <time>2021-10-17T11:14:50Z</time>
      </trkpt>
      <trkpt lat="43.12134" lon="1.12651">
        <ele>500.99987793</ele>
        <time>2021-10-17T11:14:51Z</time>
      </trkpt>
      <trkpt lat="43.12134" lon="1.12663">
        <ele>500.72988892</ele>
        <time>2021-10-17T11:14:52Z</time>
      </trkpt>
      <trkpt lat="43.12134" lon="1.12671">
        <ele>500.52987671</ele>
        <time>2021-10-17T11:14:53Z</time>
      </trkpt>
      <trkpt lat="43.12134" lon="1.12679">
        <ele>500.38986206</ele>
        <time>2021-10-17T11:14:54Z</time>
      </trkpt>
      <trkpt lat="43.12135" lon="1.12686">
        <ele>500.38986206</ele>
        <time>2021-10-17T11:14:55Z</time>
      </trkpt>
      <trkpt lat="43.12134" lon="1.12696">
        <ele>500.20986938</ele>
        <time>2021-10-17T11:14:56Z</time>
      </trkpt>
      <trkpt lat="43.12134" lon="1.12701">
        <ele>500.11987305</ele>
        <time>2021-10-17T11:14:57Z</time>
      </trkpt>
      <trkpt lat="43.12135" lon="1.12707">
        <ele>499.9798584</ele>
        <time>2021-10-17T11:14:58Z</time>
      </trkpt>
      <trkpt lat="43.12135" lon="1.12713">
        <ele>499.89987183</ele>
        <time>2021-10-17T11:14:59Z</time>
      </trkpt>
      <trkpt lat="43.12135" lon="1.12719">
        <ele>499.85986328</ele>
        <time>2021-10-17T11:15:00Z</time>
      </trkpt>
      <trkpt lat="43.12135" lon="1.12729">
        <ele>499.75985718</ele>
        <time>2021-10-17T11:15:01Z</time>
      </trkpt>
      <trkpt lat="43.12136" lon="1.12736">
        <ele>499.58984375</ele>
        <time>2021-10-17T11:15:02Z</time>
      </trkpt>
      <trkpt lat="43.12136" lon="1.12743">
        <ele>499.51983643</ele>
        <time>2021-10-17T11:15:03Z</time>
      </trkpt>
      <trkpt lat="43.12136" lon="1.1275">
        <ele>499.24984741</ele>
        <time>2021-10-17T11:15:04Z</time>
      </trkpt>
      <trkpt lat="43.12137" lon="1.1276">
        <ele>498.74984741</ele>
        <time>2021-10-17T11:15:05Z</time>
      </trkpt>
      <trkpt lat="43.12136" lon="1.12767">
        <ele>498.40985107</ele>
        <time>2021-10-17T11:15:06Z</time>
      </trkpt>
      <trkpt lat="43.12135" lon="1.12774">
        <ele>497.87985229</ele>
        <time>2021-10-17T11:15:07Z</time>
      </trkpt>
      <trkpt lat="43.12135" lon="1.12781">
        <ele>497.38986206</ele>
        <time>2021-10-17T11:15:08Z</time>
      </trkpt>
      <trkpt lat="43.12134" lon="1.12787">
        <ele>497.23986816</ele>
        <time>2021-10-17T11:15:09Z</time>
      </trkpt>
      <trkpt lat="43.12133" lon="1.12797">
        <ele>496.86987305</ele>
        <time>2021-10-17T11:15:10Z</time>
      </trkpt>
      <trkpt lat="43.12132" lon="1.12803">
        <ele>496.56988525</ele>
        <time>2021-10-17T11:15:11Z</time>
      </trkpt>
      <trkpt lat="43.12132" lon="1.1281">
        <ele>496.43988037</ele>
        <time>2021-10-17T11:15:12Z</time>
      </trkpt>
      <trkpt lat="43.12131" lon="1.12812">
        <ele>496.95001221</ele>
        <time>2021-10-17T11:15:12Z</time>
      </trkpt>
      <trkpt lat="43.12131" lon="1.12819">
        <ele>496.63000488</ele>
        <time>2021-10-17T11:15:13Z</time>
      </trkpt>
      <trkpt lat="43.12131" lon="1.12829">
        <ele>496.41000366</ele>
        <time>2021-10-17T11:15:14Z</time>
      </trkpt>
      <trkpt lat="43.1213" lon="1.12836">
        <ele>496.17001343</ele>
        <time>2021-10-17T11:15:15Z</time>
      </trkpt>
      <trkpt lat="43.12129" lon="1.12843">
        <ele>495.93002319</ele>
        <time>2021-10-17T11:15:16Z</time>
      </trkpt>
      <trkpt lat="43.12128" lon="1.1285">
        <ele>495.8800354</ele>
        <time>2021-10-17T11:15:17Z</time>
      </trkpt>
      <trkpt lat="43.12128" lon="1.12857">
        <ele>495.62002563</ele>
        <time>2021-10-17T11:15:18Z</time>
      </trkpt>
      <trkpt lat="43.12127" lon="1.12869">
        <ele>495.54003906</ele>
        <time>2021-10-17T11:15:19Z</time>
      </trkpt>
      <trkpt lat="43.12126" lon="1.12875">
        <ele>495.34002686</ele>
        <time>2021-10-17T11:15:20Z</time>
      </trkpt>
      <trkpt lat="43.12125" lon="1.12883">
        <ele>494.99002075</ele>
        <time>2021-10-17T11:15:21Z</time>
      </trkpt>
      <trkpt lat="43.12125" lon="1.12889">
        <ele>495.07000732</ele>
        <time>2021-10-17T11:15:22Z</time>
      </trkpt>
      <trkpt lat="43.12124" lon="1.12898">
        <ele>494.22000122</ele>
        <time>2021-10-17T11:15:23Z</time>
      </trkpt>
      <trkpt lat="43.12122" lon="1.12905">
        <ele>493.89001465</ele>
        <time>2021-10-17T11:15:24Z</time>
      </trkpt>
      <trkpt lat="43.1212" lon="1.12913">
        <ele>493.43002319</ele>
        <time>2021-10-17T11:15:25Z</time>
      </trkpt>
      <trkpt lat="43.12119" lon="1.12921">
        <ele>492.95001221</ele>
        <time>2021-10-17T11:15:26Z</time>
      </trkpt>
      <trkpt lat="43.12117" lon="1.12928">
        <ele>492.55001831</ele>
        <time>2021-10-17T11:15:27Z</time>
      </trkpt>
      <trkpt lat="43.12118" lon="1.12941">
        <ele>492.13000488</ele>
        <time>2021-10-17T11:15:28Z</time>
      </trkpt>
      <trkpt lat="43.12118" lon="1.12947">
        <ele>492.01000977</ele>
        <time>2021-10-17T11:15:29Z</time>
      </trkpt>
      <trkpt lat="43.12117" lon="1.12954">
        <ele>491.5</ele>
        <time>2021-10-17T11:15:30Z</time>
      </trkpt>
      <trkpt lat="43.12116" lon="1.12961">
        <ele>491.16000366</ele>
        <time>2021-10-17T11:15:31Z</time>
      </trkpt>
      <trkpt lat="43.12115" lon="1.12975">
        <ele>490.8999939</ele>
        <time>2021-10-17T11:15:32Z</time>
      </trkpt>
      <trkpt lat="43.12115" lon="1.12983">
        <ele>490.45999146</ele>
        <time>2021-10-17T11:15:33Z</time>
      </trkpt>
      <trkpt lat="43.12114" lon="1.12991">
        <ele>490.38998413</ele>
        <time>2021-10-17T11:15:34Z</time>
      </trkpt>
      <trkpt lat="43.12114" lon="1.12999">
        <ele>490.30999756</ele>
        <time>2021-10-17T11:15:35Z</time>
      </trkpt>
      <trkpt lat="43.12113" lon="1.13009">
        <ele>489.80999756</ele>
        <time>2021-10-17T11:15:36Z</time>
      </trkpt>
      <trkpt lat="43.12113" lon="1.13023">
        <ele>489.38000488</ele>
        <time>2021-10-17T11:15:37Z</time>
      </trkpt>
      <trkpt lat="43.12113" lon="1.13031">
        <ele>488.91000366</ele>
        <time>2021-10-17T11:15:38Z</time>
      </trkpt>
      <trkpt lat="43.12113" lon="1.13041">
        <ele>488.42001343</ele>
        <time>2021-10-17T11:15:39Z</time>
      </trkpt>
      <trkpt lat="43.12113" lon="1.13049">
        <ele>488.12002563</ele>
        <time>2021-10-17T11:15:40Z</time>
      </trkpt>
      <trkpt lat="43.12112" lon="1.13061">
        <ele>487.79003906</ele>
        <time>2021-10-17T11:15:41Z</time>
      </trkpt>
      <trkpt lat="43.12111" lon="1.1307">
        <ele>487.09002686</ele>
        <time>2021-10-17T11:15:42Z</time>
      </trkpt>
      <trkpt lat="43.1211" lon="1.13079">
        <ele>486.55001831</ele>
        <time>2021-10-17T11:15:43Z</time>
      </trkpt>
      <trkpt lat="43.1211" lon="1.13087">
        <ele>486.13000488</ele>
        <time>2021-10-17T11:15:44Z</time>
      </trkpt>
      <trkpt lat="43.12109" lon="1.13095">
        <ele>485.61999512</ele>
        <time>2021-10-17T11:15:45Z</time>
      </trkpt>
      <trkpt lat="43.12109" lon="1.13108">
        <ele>485.11999512</ele>
        <time>2021-10-17T11:15:46Z</time>
      </trkpt>
      <trkpt lat="43.12108" lon="1.13115">
        <ele>484.16998291</ele>
        <time>2021-10-17T11:15:47Z</time>
      </trkpt>
      <trkpt lat="43.12107" lon="1.13122">
        <ele>483.51998901</ele>
        <time>2021-10-17T11:15:48Z</time>
      </trkpt>
      <trkpt lat="43.12106" lon="1.13129">
        <ele>482.55999756</ele>
        <time>2021-10-17T11:15:49Z</time>
      </trkpt>
      <trkpt lat="43.12103" lon="1.13137">
        <ele>482.04000854</ele>
        <time>2021-10-17T11:15:50Z</time>
      </trkpt>
      <trkpt lat="43.12102" lon="1.13143">
        <ele>482</ele>
        <time>2021-10-17T11:15:51Z</time>
      </trkpt>
      <trkpt lat="43.12101" lon="1.13152">
        <ele>481.51000977</ele>
        <time>2021-10-17T11:15:52Z</time>
      </trkpt>
      <trkpt lat="43.121" lon="1.13161">
        <ele>481.29000854</ele>
        <time>2021-10-17T11:15:53Z</time>
      </trkpt>
      <trkpt lat="43.12098" lon="1.1317">
        <ele>480.89001465</ele>
        <time>2021-10-17T11:15:54Z</time>
      </trkpt>
      <trkpt lat="43.12097" lon="1.13179">
        <ele>480.26000977</ele>
        <time>2021-10-17T11:15:55Z</time>
      </trkpt>
      <trkpt lat="43.12095" lon="1.13186">
        <ele>479.61999512</ele>
        <time>2021-10-17T11:15:56Z</time>
      </trkpt>
      <trkpt lat="43.12094" lon="1.13193">
        <ele>479.01998901</ele>
        <time>2021-10-17T11:15:57Z</time>
      </trkpt>
      <trkpt lat="43.12093" lon="1.13199">
        <ele>478.53997803</ele>
        <time>2021-10-17T11:15:58Z</time>
      </trkpt>
      <trkpt lat="43.12091" lon="1.13208">
        <ele>478.29998779</ele>
        <time>2021-10-17T11:15:59Z</time>
      </trkpt>
      <trkpt lat="43.12091" lon="1.13214">
        <ele>477.94998169</ele>
        <time>2021-10-17T11:16:00Z</time>
      </trkpt>
      <trkpt lat="43.12092" lon="1.13221">
        <ele>477.77996826</ele>
        <time>2021-10-17T11:16:01Z</time>
      </trkpt>
      <trkpt lat="43.12092" lon="1.13227">
        <ele>477.33996582</ele>
        <time>2021-10-17T11:16:02Z</time>
      </trkpt>
      <trkpt lat="43.12094" lon="1.13235">
        <ele>476.77996826</ele>
        <time>2021-10-17T11:16:03Z</time>
      </trkpt>
      <trkpt lat="43.12095" lon="1.13241">
        <ele>476.52996826</ele>
        <time>2021-10-17T11:16:04Z</time>
      </trkpt>
      <trkpt lat="43.12096" lon="1.13249">
        <ele>476.22998047</ele>
        <time>2021-10-17T11:16:05Z</time>
      </trkpt>
      <trkpt lat="43.12096" lon="1.13257">
        <ele>476.1499939</ele>
        <time>2021-10-17T11:16:06Z</time>
      </trkpt>
      <trkpt lat="43.12096" lon="1.13263">
        <ele>476.10998535</ele>
        <time>2021-10-17T11:16:07Z</time>
      </trkpt>
      <trkpt lat="43.12095" lon="1.13268">
        <ele>476.22998047</ele>
        <time>2021-10-17T11:16:08Z</time>
      </trkpt>
      <trkpt lat="43.12096" lon="1.13277">
        <ele>476.42999268</ele>
        <time>2021-10-17T11:16:09Z</time>
      </trkpt>
      <trkpt lat="43.12096" lon="1.13283">
        <ele>476.44000244</ele>
        <time>2021-10-17T11:16:10Z</time>
      </trkpt>
      <trkpt lat="43.12098" lon="1.13288">
        <ele>476.36999512</ele>
        <time>2021-10-17T11:16:11Z</time>
      </trkpt>
      <trkpt lat="43.12099" lon="1.13295">
        <ele>476.25</ele>
        <time>2021-10-17T11:16:12Z</time>
      </trkpt>
      <trkpt lat="43.12102" lon="1.13303">
        <ele>476.01000977</ele>
        <time>2021-10-17T11:16:13Z</time>
      </trkpt>
      <trkpt lat="43.12104" lon="1.1331">
        <ele>476</ele>
        <time>2021-10-17T11:16:14Z</time>
      </trkpt>
      <trkpt lat="43.12106" lon="1.13316">
        <ele>476.07000732</ele>
        <time>2021-10-17T11:16:15Z</time>
      </trkpt>
      <trkpt lat="43.12107" lon="1.13322">
        <ele>476</ele>
        <time>2021-10-17T11:16:16Z</time>
      </trkpt>
      <trkpt lat="43.12108" lon="1.1333">
        <ele>476.1499939</ele>
        <time>2021-10-17T11:16:17Z</time>
      </trkpt>
      <trkpt lat="43.12109" lon="1.13336">
        <ele>476.16998291</ele>
        <time>2021-10-17T11:16:18Z</time>
      </trkpt>
      <trkpt lat="43.1211" lon="1.13341">
        <ele>476.12997437</ele>
        <time>2021-10-17T11:16:19Z</time>
      </trkpt>
      <trkpt lat="43.1211" lon="1.13346">
        <ele>476.29998779</ele>
        <time>2021-10-17T11:16:20Z</time>
      </trkpt>
      <trkpt lat="43.1211" lon="1.13351">
        <ele>476.36999512</ele>
        <time>2021-10-17T11:16:21Z</time>
      </trkpt>
      <trkpt lat="43.12111" lon="1.13359">
        <ele>476.47998047</ele>
        <time>2021-10-17T11:16:22Z</time>
      </trkpt>
      <trkpt lat="43.12111" lon="1.13365">
        <ele>476.1499939</ele>
        <time>2021-10-17T11:16:23Z</time>
      </trkpt>
      <trkpt lat="43.12111" lon="1.13371">
        <ele>476.13998413</ele>
        <time>2021-10-17T11:16:24Z</time>
      </trkpt>
      <trkpt lat="43.12111" lon="1.13378">
        <ele>475.90997314</ele>
        <time>2021-10-17T11:16:25Z</time>
      </trkpt>
      <trkpt lat="43.12113" lon="1.1339">
        <ele>475.62997437</ele>
        <time>2021-10-17T11:16:26Z</time>
      </trkpt>
      <trkpt lat="43.12115" lon="1.13397">
        <ele>475.17996216</ele>
        <time>2021-10-17T11:16:27Z</time>
      </trkpt>
      <trkpt lat="43.12116" lon="1.13404">
        <ele>474.90997314</ele>
        <time>2021-10-17T11:16:28Z</time>
      </trkpt>
      <trkpt lat="43.12118" lon="1.13411">
        <ele>474.68997192</ele>
        <time>2021-10-17T11:16:29Z</time>
      </trkpt>
      <trkpt lat="43.12119" lon="1.13418">
        <ele>474.74996948</ele>
        <time>2021-10-17T11:16:30Z</time>
      </trkpt>
      <trkpt lat="43.12121" lon="1.13425">
        <ele>475.07995605</ele>
        <time>2021-10-17T11:16:31Z</time>
      </trkpt>
      <trkpt lat="43.12122" lon="1.13429">
        <ele>475.27996826</ele>
        <time>2021-10-17T11:16:32Z</time>
      </trkpt>
      <trkpt lat="43.12123" lon="1.13434">
        <ele>475.58996582</ele>
        <time>2021-10-17T11:16:33Z</time>
      </trkpt>
      <trkpt lat="43.12123" lon="1.13438">
        <ele>475.81997681</ele>
        <time>2021-10-17T11:16:34Z</time>
      </trkpt>
      <trkpt lat="43.12124" lon="1.13444">
        <ele>476.06997681</ele>
        <time>2021-10-17T11:16:35Z</time>
      </trkpt>
      <trkpt lat="43.12124" lon="1.13447">
        <ele>476.28997803</ele>
        <time>2021-10-17T11:16:36Z</time>
      </trkpt>
      <trkpt lat="43.12124" lon="1.1345">
        <ele>476.50997925</ele>
        <time>2021-10-17T11:16:37Z</time>
      </trkpt>
      <trkpt lat="43.12125" lon="1.13456">
        <ele>476.50997925</ele>
        <time>2021-10-17T11:16:38Z</time>
      </trkpt>
      <trkpt lat="43.12125" lon="1.13459">
        <ele>476.55996704</ele>
        <time>2021-10-17T11:16:39Z</time>
      </trkpt>
      <trkpt lat="43.12125" lon="1.13467">
        <ele>476.63995361</ele>
        <time>2021-10-17T11:16:40Z</time>
      </trkpt>
      <trkpt lat="43.12126" lon="1.13473">
        <ele>476.69995117</ele>
        <time>2021-10-17T11:16:41Z</time>
      </trkpt>
      <trkpt lat="43.12127" lon="1.13477">
        <ele>476.87994385</ele>
        <time>2021-10-17T11:16:42Z</time>
      </trkpt>
      <trkpt lat="43.12128" lon="1.13482">
        <ele>476.94995117</ele>
        <time>2021-10-17T11:16:43Z</time>
      </trkpt>
      <trkpt lat="43.12128" lon="1.13487">
        <ele>477.04995728</ele>
        <time>2021-10-17T11:16:44Z</time>
      </trkpt>
      <trkpt lat="43.12129" lon="1.13492">
        <ele>477.15994263</ele>
        <time>2021-10-17T11:16:45Z</time>
      </trkpt>
      <trkpt lat="43.12129" lon="1.13496">
        <ele>477.29995728</ele>
        <time>2021-10-17T11:16:46Z</time>
      </trkpt>
      <trkpt lat="43.1213" lon="1.13499">
        <ele>477.50994873</ele>
        <time>2021-10-17T11:16:47Z</time>
      </trkpt>
      <trkpt lat="43.12131" lon="1.13503">
        <ele>477.68994141</ele>
        <time>2021-10-17T11:16:48Z</time>
      </trkpt>
      <trkpt lat="43.12131" lon="1.13513">
        <ele>477.84994507</ele>
        <time>2021-10-17T11:16:49Z</time>
      </trkpt>
      <trkpt lat="43.12132" lon="1.13517">
        <ele>477.95993042</ele>
        <time>2021-10-17T11:16:50Z</time>
      </trkpt>
      <trkpt lat="43.12132" lon="1.13522">
        <ele>478.11993408</ele>
        <time>2021-10-17T11:16:51Z</time>
      </trkpt>
      <trkpt lat="43.12132" lon="1.13527">
        <ele>478.36993408</ele>
        <time>2021-10-17T11:16:52Z</time>
      </trkpt>
      <trkpt lat="43.12132" lon="1.13534">
        <ele>478.49993896</ele>
        <time>2021-10-17T11:16:53Z</time>
      </trkpt>
      <trkpt lat="43.12133" lon="1.13539">
        <ele>478.67993164</ele>
        <time>2021-10-17T11:16:54Z</time>
      </trkpt>
      <trkpt lat="43.12133" lon="1.13545">
        <ele>478.79992676</ele>
        <time>2021-10-17T11:16:55Z</time>
      </trkpt>
      <trkpt lat="43.12134" lon="1.1355">
        <ele>478.76992798</ele>
        <time>2021-10-17T11:16:56Z</time>
      </trkpt>
      <trkpt lat="43.12134" lon="1.13557">
        <ele>478.93994141</ele>
        <time>2021-10-17T11:16:57Z</time>
      </trkpt>
      <trkpt lat="43.12135" lon="1.13566">
        <ele>479.24993896</ele>
        <time>2021-10-17T11:16:58Z</time>
      </trkpt>
      <trkpt lat="43.12136" lon="1.13572">
        <ele>479.38995361</ele>
        <time>2021-10-17T11:16:59Z</time>
      </trkpt>
      <trkpt lat="43.12137" lon="1.13575">
        <ele>479.71994019</ele>
        <time>2021-10-17T11:17:00Z</time>
      </trkpt>
      <trkpt lat="43.12138" lon="1.1358">
        <ele>479.94995117</ele>
        <time>2021-10-17T11:17:01Z</time>
      </trkpt>
      <trkpt lat="43.12138" lon="1.13589">
        <ele>479.94995117</ele>
        <time>2021-10-17T11:17:02Z</time>
      </trkpt>
      <trkpt lat="43.12139" lon="1.13593">
        <ele>480.05993652</ele>
        <time>2021-10-17T11:17:03Z</time>
      </trkpt>
      <trkpt lat="43.1214" lon="1.13598">
        <ele>480.0899353</ele>
        <time>2021-10-17T11:17:04Z</time>
      </trkpt>
      <trkpt lat="43.1214" lon="1.13603">
        <ele>480.17993164</ele>
        <time>2021-10-17T11:17:05Z</time>
      </trkpt>
      <trkpt lat="43.12141" lon="1.13609">
        <ele>480.31994629</ele>
        <time>2021-10-17T11:17:06Z</time>
      </trkpt>
      <trkpt lat="43.12142" lon="1.13615">
        <ele>480.55993652</ele>
        <time>2021-10-17T11:17:07Z</time>
      </trkpt>
      <trkpt lat="43.12141" lon="1.13621">
        <ele>480.7399292</ele>
        <time>2021-10-17T11:17:08Z</time>
      </trkpt>
      <trkpt lat="43.12141" lon="1.13626">
        <ele>480.86993408</ele>
        <time>2021-10-17T11:17:09Z</time>
      </trkpt>
      <trkpt lat="43.1214" lon="1.13631">
        <ele>481.10992432</ele>
        <time>2021-10-17T11:17:10Z</time>
      </trkpt>
      <trkpt lat="43.12139" lon="1.13638">
        <ele>481.2399292</ele>
        <time>2021-10-17T11:17:11Z</time>
      </trkpt>
      <trkpt lat="43.12139" lon="1.13643">
        <ele>481.35992432</ele>
        <time>2021-10-17T11:17:12Z</time>
      </trkpt>
      <trkpt lat="43.12139" lon="1.13649">
        <ele>481.51992798</ele>
        <time>2021-10-17T11:17:13Z</time>
      </trkpt>
      <trkpt lat="43.1214" lon="1.13656">
        <ele>481.51992798</ele>
        <time>2021-10-17T11:17:14Z</time>
      </trkpt>
      <trkpt lat="43.1214" lon="1.13662">
        <ele>481.55993652</ele>
        <time>2021-10-17T11:17:15Z</time>
      </trkpt>
      <trkpt lat="43.12139" lon="1.1367">
        <ele>481.57992554</ele>
        <time>2021-10-17T11:17:16Z</time>
      </trkpt>
      <trkpt lat="43.12139" lon="1.13677">
        <ele>481.59991455</ele>
        <time>2021-10-17T11:17:17Z</time>
      </trkpt>
      <trkpt lat="43.12139" lon="1.13684">
        <ele>481.59991455</ele>
        <time>2021-10-17T11:17:18Z</time>
      </trkpt>
      <trkpt lat="43.1214" lon="1.13691">
        <ele>481.59991455</ele>
        <time>2021-10-17T11:17:19Z</time>
      </trkpt>
      <trkpt lat="43.1214" lon="1.137">
        <ele>481.59991455</ele>
        <time>2021-10-17T11:17:20Z</time>
      </trkpt>
      <trkpt lat="43.1214" lon="1.13705">
        <ele>481.58990479</ele>
        <time>2021-10-17T11:17:21Z</time>
      </trkpt>
      <trkpt lat="43.12141" lon="1.13708">
        <ele>481.67990112</ele>
        <time>2021-10-17T11:17:22Z</time>
      </trkpt>
      <trkpt lat="43.12141" lon="1.13712">
        <ele>481.69989014</ele>
        <time>2021-10-17T11:17:23Z</time>
      </trkpt>
      <trkpt lat="43.12141" lon="1.13717">
        <ele>481.58990479</ele>
        <time>2021-10-17T11:17:24Z</time>
      </trkpt>
      <trkpt lat="43.12142" lon="1.13726">
        <ele>481.53991699</ele>
        <time>2021-10-17T11:17:25Z</time>
      </trkpt>
      <trkpt lat="43.12143" lon="1.13733">
        <ele>481.49990845</ele>
        <time>2021-10-17T11:17:26Z</time>
      </trkpt>
      <trkpt lat="43.12144" lon="1.13739">
        <ele>481.36990356</ele>
        <time>2021-10-17T11:17:27Z</time>
      </trkpt>
      <trkpt lat="43.12144" lon="1.13746">
        <ele>481.41989136</ele>
        <time>2021-10-17T11:17:28Z</time>
      </trkpt>
      <trkpt lat="43.12144" lon="1.13753">
        <ele>481.2598877</ele>
        <time>2021-10-17T11:17:29Z</time>
      </trkpt>
      <trkpt lat="43.12143" lon="1.13758">
        <ele>480.92990112</ele>
        <time>2021-10-17T11:17:30Z</time>
      </trkpt>
      <trkpt lat="43.12143" lon="1.13764">
        <ele>480.49990845</ele>
        <time>2021-10-17T11:17:31Z</time>
      </trkpt>
      <trkpt lat="43.12143" lon="1.13771">
        <ele>479.78991699</ele>
        <time>2021-10-17T11:17:32Z</time>
      </trkpt>
      <trkpt lat="43.12143" lon="1.13777">
        <ele>478.94992065</ele>
        <time>2021-10-17T11:17:33Z</time>
      </trkpt>
      <trkpt lat="43.12143" lon="1.13787">
        <ele>478.31991577</ele>
        <time>2021-10-17T11:17:34Z</time>
      </trkpt>
      <trkpt lat="43.12143" lon="1.13793">
        <ele>477.87991333</ele>
        <time>2021-10-17T11:17:35Z</time>
      </trkpt>
      <trkpt lat="43.12142" lon="1.13798">
        <ele>477.24990845</ele>
        <time>2021-10-17T11:17:36Z</time>
      </trkpt>
      <trkpt lat="43.12142" lon="1.13805">
        <ele>476.93991089</ele>
        <time>2021-10-17T11:17:37Z</time>
      </trkpt>
      <trkpt lat="43.12143" lon="1.13815">
        <ele>476.12991333</ele>
        <time>2021-10-17T11:17:38Z</time>
      </trkpt>
      <trkpt lat="43.12143" lon="1.13823">
        <ele>475.15991211</ele>
        <time>2021-10-17T11:17:39Z</time>
      </trkpt>
      <trkpt lat="43.12144" lon="1.1383">
        <ele>474.49990845</ele>
        <time>2021-10-17T11:17:40Z</time>
      </trkpt>
      <trkpt lat="43.12144" lon="1.13837">
        <ele>473.90991211</ele>
        <time>2021-10-17T11:17:41Z</time>
      </trkpt>
      <trkpt lat="43.12144" lon="1.13843">
        <ele>473.81991577</ele>
        <time>2021-10-17T11:17:42Z</time>
      </trkpt>
      <trkpt lat="43.12146" lon="1.13854">
        <ele>474.07992554</ele>
        <time>2021-10-17T11:17:43Z</time>
      </trkpt>
      <trkpt lat="43.12147" lon="1.1386">
        <ele>474.42993164</ele>
        <time>2021-10-17T11:17:44Z</time>
      </trkpt>
      <trkpt lat="43.12148" lon="1.13866">
        <ele>474.77993774</ele>
        <time>2021-10-17T11:17:45Z</time>
      </trkpt>
      <trkpt lat="43.12149" lon="1.13872">
        <ele>475.22994995</ele>
        <time>2021-10-17T11:17:46Z</time>
      </trkpt>
      <trkpt lat="43.1215" lon="1.13879">
        <ele>475.73995972</ele>
        <time>2021-10-17T11:17:47Z</time>
      </trkpt>
      <trkpt lat="43.12153" lon="1.13888">
        <ele>476.17996216</ele>
        <time>2021-10-17T11:17:48Z</time>
      </trkpt>
      <trkpt lat="43.12155" lon="1.13893">
        <ele>476.88995361</ele>
        <time>2021-10-17T11:17:49Z</time>
      </trkpt>
      <trkpt lat="43.12156" lon="1.13898">
        <ele>477.32995605</ele>
        <time>2021-10-17T11:17:50Z</time>
      </trkpt>
      <trkpt lat="43.12158" lon="1.13903">
        <ele>477.70996094</ele>
        <time>2021-10-17T11:17:51Z</time>
      </trkpt>
      <trkpt lat="43.1216" lon="1.13911">
        <ele>478.39996338</ele>
        <time>2021-10-17T11:17:52Z</time>
      </trkpt>
      <trkpt lat="43.1216" lon="1.13915">
        <ele>478.66995239</ele>
        <time>2021-10-17T11:17:53Z</time>
      </trkpt>
      <trkpt lat="43.1216" lon="1.1392">
        <ele>479.13995361</ele>
        <time>2021-10-17T11:17:54Z</time>
      </trkpt>
      <trkpt lat="43.12162" lon="1.13926">
        <ele>479.48995972</ele>
        <time>2021-10-17T11:17:55Z</time>
      </trkpt>
      <trkpt lat="43.12164" lon="1.13933">
        <ele>479.77996826</ele>
        <time>2021-10-17T11:17:56Z</time>
      </trkpt>
      <trkpt lat="43.12165" lon="1.13937">
        <ele>480.27996826</ele>
        <time>2021-10-17T11:17:57Z</time>
      </trkpt>
      <trkpt lat="43.12167" lon="1.13942">
        <ele>480.73995972</ele>
        <time>2021-10-17T11:17:58Z</time>
      </trkpt>
      <trkpt lat="43.12168" lon="1.13947">
        <ele>481.14996338</ele>
        <time>2021-10-17T11:17:59Z</time>
      </trkpt>
      <trkpt lat="43.12169" lon="1.13952">
        <ele>481.4699707</ele>
        <time>2021-10-17T11:18:00Z</time>
      </trkpt>
      <trkpt lat="43.12171" lon="1.13959">
        <ele>481.74996948</ele>
        <time>2021-10-17T11:18:01Z</time>
      </trkpt>
      <trkpt lat="43.12173" lon="1.13963">
        <ele>482.00997925</ele>
        <time>2021-10-17T11:18:02Z</time>
      </trkpt>
      <trkpt lat="43.12173" lon="1.13968">
        <ele>482.23999023</ele>
        <time>2021-10-17T11:18:03Z</time>
      </trkpt>
      <trkpt lat="43.12174" lon="1.13972">
        <ele>482.41000366</ele>
        <time>2021-10-17T11:18:04Z</time>
      </trkpt>
      <trkpt lat="43.12175" lon="1.13977">
        <ele>482.47000122</ele>
        <time>2021-10-17T11:18:05Z</time>
      </trkpt>
      <trkpt lat="43.12176" lon="1.13984">
        <ele>482.57998657</ele>
        <time>2021-10-17T11:18:06Z</time>
      </trkpt>
      <trkpt lat="43.12176" lon="1.13988">
        <ele>482.68997192</ele>
        <time>2021-10-17T11:18:07Z</time>
      </trkpt>
      <trkpt lat="43.12177" lon="1.13992">
        <ele>482.91998291</ele>
        <time>2021-10-17T11:18:08Z</time>
      </trkpt>
      <trkpt lat="43.12177" lon="1.13996">
        <ele>483.15997314</ele>
        <time>2021-10-17T11:18:09Z</time>
      </trkpt>
      <trkpt lat="43.12177" lon="1.14001">
        <ele>483.23995972</ele>
        <time>2021-10-17T11:18:10Z</time>
      </trkpt>
      <trkpt lat="43.12178" lon="1.14004">
        <ele>483.54995728</ele>
        <time>2021-10-17T11:18:11Z</time>
      </trkpt>
      <trkpt lat="43.12178" lon="1.14008">
        <ele>483.68997192</ele>
        <time>2021-10-17T11:18:12Z</time>
      </trkpt>
      <trkpt lat="43.12179" lon="1.14013">
        <ele>483.73995972</ele>
        <time>2021-10-17T11:18:13Z</time>
      </trkpt>
      <trkpt lat="43.1218" lon="1.1402">
        <ele>483.94995117</ele>
        <time>2021-10-17T11:18:14Z</time>
      </trkpt>
      <trkpt lat="43.12181" lon="1.14025">
        <ele>483.87994385</ele>
        <time>2021-10-17T11:18:15Z</time>
      </trkpt>
      <trkpt lat="43.12183" lon="1.14029">
        <ele>483.88995361</ele>
        <time>2021-10-17T11:18:16Z</time>
      </trkpt>
      <trkpt lat="43.12183" lon="1.14035">
        <ele>483.92996216</ele>
        <time>2021-10-17T11:18:17Z</time>
      </trkpt>
      <trkpt lat="43.12184" lon="1.1404">
        <ele>484.02996826</ele>
        <time>2021-10-17T11:18:18Z</time>
      </trkpt>
      <trkpt lat="43.12184" lon="1.14047">
        <ele>484.10995483</ele>
        <time>2021-10-17T11:18:19Z</time>
      </trkpt>
      <trkpt lat="43.12185" lon="1.14052">
        <ele>484.15994263</ele>
        <time>2021-10-17T11:18:20Z</time>
      </trkpt>
      <trkpt lat="43.12186" lon="1.14057">
        <ele>484.18994141</ele>
        <time>2021-10-17T11:18:21Z</time>
      </trkpt>
      <trkpt lat="43.12186" lon="1.14062">
        <ele>484.00994873</ele>
        <time>2021-10-17T11:18:22Z</time>
      </trkpt>
      <trkpt lat="43.12186" lon="1.14069">
        <ele>483.82995605</ele>
        <time>2021-10-17T11:18:23Z</time>
      </trkpt>
      <trkpt lat="43.12187" lon="1.14073">
        <ele>483.73995972</ele>
        <time>2021-10-17T11:18:24Z</time>
      </trkpt>
      <trkpt lat="43.12187" lon="1.14078">
        <ele>483.45996094</ele>
        <time>2021-10-17T11:18:25Z</time>
      </trkpt>
      <trkpt lat="43.12188" lon="1.14084">
        <ele>483.32995605</ele>
        <time>2021-10-17T11:18:26Z</time>
      </trkpt>
      <trkpt lat="43.12189" lon="1.1409">
        <ele>483.2699585</ele>
        <time>2021-10-17T11:18:27Z</time>
      </trkpt>
      <trkpt lat="43.12189" lon="1.14099">
        <ele>483.10995483</ele>
        <time>2021-10-17T11:18:28Z</time>
      </trkpt>
      <trkpt lat="43.12189" lon="1.14103">
        <ele>483.27996826</ele>
        <time>2021-10-17T11:18:29Z</time>
      </trkpt>
      <trkpt lat="43.1219" lon="1.14108">
        <ele>483.30996704</ele>
        <time>2021-10-17T11:18:30Z</time>
      </trkpt>
      <trkpt lat="43.1219" lon="1.14113">
        <ele>483.29995728</ele>
        <time>2021-10-17T11:18:31Z</time>
      </trkpt>
      <trkpt lat="43.1219" lon="1.1412">
        <ele>483.40994263</ele>
        <time>2021-10-17T11:18:32Z</time>
      </trkpt>
      <trkpt lat="43.12191" lon="1.14125">
        <ele>483.30993652</ele>
        <time>2021-10-17T11:18:33Z</time>
      </trkpt>
      <trkpt lat="43.12191" lon="1.14131">
        <ele>483.45993042</ele>
        <time>2021-10-17T11:18:34Z</time>
      </trkpt>
      <trkpt lat="43.12192" lon="1.14136">
        <ele>483.52993774</ele>
        <time>2021-10-17T11:18:35Z</time>
      </trkpt>
      <trkpt lat="43.12193" lon="1.14142">
        <ele>483.55993652</ele>
        <time>2021-10-17T11:18:36Z</time>
      </trkpt>
      <trkpt lat="43.12194" lon="1.14151">
        <ele>483.8399353</ele>
        <time>2021-10-17T11:18:37Z</time>
      </trkpt>
      <trkpt lat="43.12194" lon="1.14158">
        <ele>483.8399353</ele>
        <time>2021-10-17T11:18:38Z</time>
      </trkpt>
      <trkpt lat="43.12195" lon="1.14164">
        <ele>483.92993164</ele>
        <time>2021-10-17T11:18:39Z</time>
      </trkpt>
      <trkpt lat="43.12196" lon="1.14169">
        <ele>483.93994141</ele>
        <time>2021-10-17T11:18:40Z</time>
      </trkpt>
      <trkpt lat="43.12197" lon="1.14176">
        <ele>483.68994141</ele>
        <time>2021-10-17T11:18:41Z</time>
      </trkpt>
      <trkpt lat="43.12198" lon="1.14181">
        <ele>483.46994019</ele>
        <time>2021-10-17T11:18:42Z</time>
      </trkpt>
      <trkpt lat="43.12199" lon="1.14188">
        <ele>483.16995239</ele>
        <time>2021-10-17T11:18:43Z</time>
      </trkpt>
      <trkpt lat="43.122" lon="1.14193">
        <ele>483.02993774</ele>
        <time>2021-10-17T11:18:44Z</time>
      </trkpt>
      <trkpt lat="43.122" lon="1.14198">
        <ele>483.06994629</ele>
        <time>2021-10-17T11:18:45Z</time>
      </trkpt>
      <trkpt lat="43.122" lon="1.14206">
        <ele>483.02993774</ele>
        <time>2021-10-17T11:18:46Z</time>
      </trkpt>
      <trkpt lat="43.122" lon="1.14211">
        <ele>483.16995239</ele>
        <time>2021-10-17T11:18:47Z</time>
      </trkpt>
      <trkpt lat="43.12201" lon="1.14215">
        <ele>483.17996216</ele>
        <time>2021-10-17T11:18:48Z</time>
      </trkpt>
      <trkpt lat="43.12201" lon="1.1422">
        <ele>483.22994995</ele>
        <time>2021-10-17T11:18:49Z</time>
      </trkpt>
      <trkpt lat="43.122" lon="1.14228">
        <ele>483.45996094</ele>
        <time>2021-10-17T11:18:50Z</time>
      </trkpt>
      <trkpt lat="43.12201" lon="1.14232">
        <ele>483.63995361</ele>
        <time>2021-10-17T11:18:51Z</time>
      </trkpt>
      <trkpt lat="43.12201" lon="1.14238">
        <ele>483.85995483</ele>
        <time>2021-10-17T11:18:52Z</time>
      </trkpt>
      <trkpt lat="43.12201" lon="1.14243">
        <ele>483.91995239</ele>
        <time>2021-10-17T11:18:53Z</time>
      </trkpt>
      <trkpt lat="43.12201" lon="1.14247">
        <ele>483.92996216</ele>
        <time>2021-10-17T11:18:54Z</time>
      </trkpt>
      <trkpt lat="43.12202" lon="1.14256">
        <ele>483.89996338</ele>
        <time>2021-10-17T11:18:55Z</time>
      </trkpt>
      <trkpt lat="43.12202" lon="1.1426">
        <ele>483.7699585</ele>
        <time>2021-10-17T11:18:56Z</time>
      </trkpt>
      <trkpt lat="43.12202" lon="1.14264">
        <ele>483.7699585</ele>
        <time>2021-10-17T11:18:57Z</time>
      </trkpt>
      <trkpt lat="43.12202" lon="1.14269">
        <ele>483.77996826</ele>
        <time>2021-10-17T11:18:58Z</time>
      </trkpt>
      <trkpt lat="43.12201" lon="1.14274">
        <ele>483.8699646</ele>
        <time>2021-10-17T11:18:59Z</time>
      </trkpt>
      <trkpt lat="43.12201" lon="1.14282">
        <ele>484.02996826</ele>
        <time>2021-10-17T11:19:00Z</time>
      </trkpt>
      <trkpt lat="43.12201" lon="1.14286">
        <ele>484.04995728</ele>
        <time>2021-10-17T11:19:01Z</time>
      </trkpt>
      <trkpt lat="43.122" lon="1.14291">
        <ele>484.38995361</ele>
        <time>2021-10-17T11:19:02Z</time>
      </trkpt>
      <trkpt lat="43.122" lon="1.14295">
        <ele>484.63995361</ele>
        <time>2021-10-17T11:19:03Z</time>
      </trkpt>
      <trkpt lat="43.12199" lon="1.14302">
        <ele>485.00994873</ele>
        <time>2021-10-17T11:19:04Z</time>
      </trkpt>
      <trkpt lat="43.122" lon="1.14307">
        <ele>485.45996094</ele>
        <time>2021-10-17T11:19:05Z</time>
      </trkpt>
      <trkpt lat="43.122" lon="1.14313">
        <ele>485.63995361</ele>
        <time>2021-10-17T11:19:06Z</time>
      </trkpt>
      <trkpt lat="43.122" lon="1.14318">
        <ele>485.87994385</ele>
        <time>2021-10-17T11:19:07Z</time>
      </trkpt>
      <trkpt lat="43.12201" lon="1.14326">
        <ele>486.07995605</ele>
        <time>2021-10-17T11:19:08Z</time>
      </trkpt>
      <trkpt lat="43.12202" lon="1.14332">
        <ele>486.25994873</ele>
        <time>2021-10-17T11:19:09Z</time>
      </trkpt>
      <trkpt lat="43.12203" lon="1.14338">
        <ele>486.31994629</ele>
        <time>2021-10-17T11:19:10Z</time>
      </trkpt>
      <trkpt lat="43.12204" lon="1.14344">
        <ele>486.54995728</ele>
        <time>2021-10-17T11:19:11Z</time>
      </trkpt>
      <trkpt lat="43.12204" lon="1.14348">
        <ele>486.54995728</ele>
        <time>2021-10-17T11:19:12Z</time>
      </trkpt>
      <trkpt lat="43.12204" lon="1.14355">
        <ele>486.80996704</ele>
        <time>2021-10-17T11:19:13Z</time>
      </trkpt>
      <trkpt lat="43.12204" lon="1.1436">
        <ele>487.00997925</ele>
        <time>2021-10-17T11:19:14Z</time>
      </trkpt>
      <trkpt lat="43.12204" lon="1.14366">
        <ele>486.98999023</ele>
        <time>2021-10-17T11:19:15Z</time>
      </trkpt>
      <trkpt lat="43.12205" lon="1.14371">
        <ele>487.01998901</ele>
        <time>2021-10-17T11:19:16Z</time>
      </trkpt>
      <trkpt lat="43.12206" lon="1.14379">
        <ele>486.79998779</ele>
        <time>2021-10-17T11:19:17Z</time>
      </trkpt>
      <trkpt lat="43.12205" lon="1.14384">
        <ele>486.55999756</ele>
        <time>2021-10-17T11:19:18Z</time>
      </trkpt>
      <trkpt lat="43.12205" lon="1.14389">
        <ele>486.23001099</ele>
        <time>2021-10-17T11:19:19Z</time>
      </trkpt>
      <trkpt lat="43.12204" lon="1.14395">
        <ele>485.72000122</ele>
        <time>2021-10-17T11:19:20Z</time>
      </trkpt>
      <trkpt lat="43.12204" lon="1.14401">
        <ele>484.97000122</ele>
        <time>2021-10-17T11:19:21Z</time>
      </trkpt>
      <trkpt lat="43.12205" lon="1.14411">
        <ele>484.29000854</ele>
        <time>2021-10-17T11:19:22Z</time>
      </trkpt>
      <trkpt lat="43.12205" lon="1.14418">
        <ele>483.63000488</ele>
        <time>2021-10-17T11:19:23Z</time>
      </trkpt>
      <trkpt lat="43.12205" lon="1.14424">
        <ele>483.17001343</ele>
        <time>2021-10-17T11:19:24Z</time>
      </trkpt>
      <trkpt lat="43.12204" lon="1.1443">
        <ele>482.95001221</ele>
        <time>2021-10-17T11:19:25Z</time>
      </trkpt>
      <trkpt lat="43.12201" lon="1.14437">
        <ele>482.87002563</ele>
        <time>2021-10-17T11:19:26Z</time>
      </trkpt>
      <trkpt lat="43.122" lon="1.14443">
        <ele>482.94003296</ele>
        <time>2021-10-17T11:19:27Z</time>
      </trkpt>
      <trkpt lat="43.12198" lon="1.14448">
        <ele>482.91003418</ele>
        <time>2021-10-17T11:19:28Z</time>
      </trkpt>
      <trkpt lat="43.12197" lon="1.14453">
        <ele>483.19003296</ele>
        <time>2021-10-17T11:19:29Z</time>
      </trkpt>
      <trkpt lat="43.12196" lon="1.14457">
        <ele>483.3800354</ele>
        <time>2021-10-17T11:19:30Z</time>
      </trkpt>
      <trkpt lat="43.12195" lon="1.14465">
        <ele>483.51004028</ele>
        <time>2021-10-17T11:19:31Z</time>
      </trkpt>
      <trkpt lat="43.12194" lon="1.14468">
        <ele>483.93005371</ele>
        <time>2021-10-17T11:19:32Z</time>
      </trkpt>
      <trkpt lat="43.12193" lon="1.14472">
        <ele>484.08004761</ele>
        <time>2021-10-17T11:19:33Z</time>
      </trkpt>
      <trkpt lat="43.12192" lon="1.14475">
        <ele>484.39004517</ele>
        <time>2021-10-17T11:19:34Z</time>
      </trkpt>
      <trkpt lat="43.1219" lon="1.14477">
        <ele>484.79003906</ele>
        <time>2021-10-17T11:19:35Z</time>
      </trkpt>
      <trkpt lat="43.1219" lon="1.1448">
        <ele>485.1300354</ele>
        <time>2021-10-17T11:19:36Z</time>
      </trkpt>
      <trkpt lat="43.12189" lon="1.14482">
        <ele>485.24002075</ele>
        <time>2021-10-17T11:19:37Z</time>
      </trkpt>
      <trkpt lat="43.12187" lon="1.14485">
        <ele>485.37002563</ele>
        <time>2021-10-17T11:19:38Z</time>
      </trkpt>
      <trkpt lat="43.12186" lon="1.14489">
        <ele>485.45001221</ele>
        <time>2021-10-17T11:19:39Z</time>
      </trkpt>
      <trkpt lat="43.12185" lon="1.14495">
        <ele>485.65002441</ele>
        <time>2021-10-17T11:19:40Z</time>
      </trkpt>
      <trkpt lat="43.12183" lon="1.14497">
        <ele>486.07003784</ele>
        <time>2021-10-17T11:19:41Z</time>
      </trkpt>
      <trkpt lat="43.12182" lon="1.145">
        <ele>486.39004517</ele>
        <time>2021-10-17T11:19:42Z</time>
      </trkpt>
      <trkpt lat="43.12181" lon="1.14503">
        <ele>486.75003052</ele>
        <time>2021-10-17T11:19:43Z</time>
      </trkpt>
      <trkpt lat="43.1218" lon="1.14508">
        <ele>487.02001953</ele>
        <time>2021-10-17T11:19:44Z</time>
      </trkpt>
      <trkpt lat="43.12179" lon="1.14511">
        <ele>487.30001831</ele>
        <time>2021-10-17T11:19:45Z</time>
      </trkpt>
      <trkpt lat="43.12178" lon="1.14513">
        <ele>487.58001709</ele>
        <time>2021-10-17T11:19:46Z</time>
      </trkpt>
      <trkpt lat="43.12178" lon="1.14517">
        <ele>487.90002441</ele>
        <time>2021-10-17T11:19:47Z</time>
      </trkpt>
      <trkpt lat="43.12177" lon="1.1452">
        <ele>488.16003418</ele>
        <time>2021-10-17T11:19:48Z</time>
      </trkpt>
      <trkpt lat="43.12176" lon="1.14523">
        <ele>488.41003418</ele>
        <time>2021-10-17T11:19:49Z</time>
      </trkpt>
      <trkpt lat="43.12175" lon="1.14526">
        <ele>488.6300354</ele>
        <time>2021-10-17T11:19:50Z</time>
      </trkpt>
      <trkpt lat="43.12174" lon="1.14531">
        <ele>488.81002808</ele>
        <time>2021-10-17T11:19:51Z</time>
      </trkpt>
      <trkpt lat="43.12174" lon="1.14534">
        <ele>488.97003174</ele>
        <time>2021-10-17T11:19:52Z</time>
      </trkpt>
      <trkpt lat="43.12173" lon="1.14538">
        <ele>489.20004272</ele>
        <time>2021-10-17T11:19:53Z</time>
      </trkpt>
      <trkpt lat="43.12172" lon="1.14541">
        <ele>489.41003418</ele>
        <time>2021-10-17T11:19:54Z</time>
      </trkpt>
      <trkpt lat="43.12171" lon="1.14544">
        <ele>489.64004517</ele>
        <time>2021-10-17T11:19:55Z</time>
      </trkpt>
      <trkpt lat="43.1217" lon="1.14547">
        <ele>489.93005371</ele>
        <time>2021-10-17T11:19:56Z</time>
      </trkpt>
      <trkpt lat="43.1217" lon="1.1455">
        <ele>490.15005493</ele>
        <time>2021-10-17T11:19:57Z</time>
      </trkpt>
      <trkpt lat="43.12169" lon="1.14554">
        <ele>490.40005493</ele>
        <time>2021-10-17T11:19:58Z</time>
      </trkpt>
      <trkpt lat="43.12168" lon="1.14555">
        <ele>490.68005371</ele>
        <time>2021-10-17T11:19:59Z</time>
      </trkpt>
      <trkpt lat="43.12167" lon="1.14557">
        <ele>490.95004272</ele>
        <time>2021-10-17T11:20:00Z</time>
      </trkpt>
      <trkpt lat="43.12167" lon="1.14559">
        <ele>491.20004272</ele>
        <time>2021-10-17T11:20:01Z</time>
      </trkpt>
      <trkpt lat="43.12166" lon="1.14563">
        <ele>491.40005493</ele>
        <time>2021-10-17T11:20:02Z</time>
      </trkpt>
      <trkpt lat="43.12165" lon="1.14565">
        <ele>491.51004028</ele>
        <time>2021-10-17T11:20:03Z</time>
      </trkpt>
      <trkpt lat="43.12164" lon="1.14568">
        <ele>491.67004395</ele>
        <time>2021-10-17T11:20:04Z</time>
      </trkpt>
      <trkpt lat="43.12164" lon="1.1457">
        <ele>491.84005737</ele>
        <time>2021-10-17T11:20:05Z</time>
      </trkpt>
      <trkpt lat="43.12163" lon="1.14573">
        <ele>492.04006958</ele>
        <time>2021-10-17T11:20:06Z</time>
      </trkpt>
      <trkpt lat="43.12163" lon="1.14578">
        <ele>492.33007812</ele>
        <time>2021-10-17T11:20:07Z</time>
      </trkpt>
      <trkpt lat="43.12162" lon="1.14582">
        <ele>492.55007935</ele>
        <time>2021-10-17T11:20:08Z</time>
      </trkpt>
      <trkpt lat="43.12162" lon="1.14585">
        <ele>492.68008423</ele>
        <time>2021-10-17T11:20:09Z</time>
      </trkpt>
      <trkpt lat="43.12161" lon="1.14588">
        <ele>492.82009888</ele>
        <time>2021-10-17T11:20:10Z</time>
      </trkpt>
      <trkpt lat="43.12161" lon="1.14592">
        <ele>492.85009766</ele>
        <time>2021-10-17T11:20:11Z</time>
      </trkpt>
      <trkpt lat="43.12161" lon="1.14596">
        <ele>492.83010864</ele>
        <time>2021-10-17T11:20:12Z</time>
      </trkpt>
      <trkpt lat="43.1216" lon="1.14598">
        <ele>492.8901062</ele>
        <time>2021-10-17T11:20:13Z</time>
      </trkpt>
      <trkpt lat="43.12159" lon="1.14601">
        <ele>492.96011353</ele>
        <time>2021-10-17T11:20:14Z</time>
      </trkpt>
      <trkpt lat="43.12159" lon="1.14604">
        <ele>493.07009888</ele>
        <time>2021-10-17T11:20:15Z</time>
      </trkpt>
      <trkpt lat="43.12159" lon="1.14606">
        <ele>493.21011353</ele>
        <time>2021-10-17T11:20:16Z</time>
      </trkpt>
      <trkpt lat="43.12158" lon="1.14609">
        <ele>493.28012085</ele>
        <time>2021-10-17T11:20:17Z</time>
      </trkpt>
      <trkpt lat="43.12157" lon="1.14612">
        <ele>493.40011597</ele>
        <time>2021-10-17T11:20:18Z</time>
      </trkpt>
      <trkpt lat="43.12157" lon="1.14614">
        <ele>493.50012207</ele>
        <time>2021-10-17T11:20:19Z</time>
      </trkpt>
      <trkpt lat="43.12156" lon="1.14619">
        <ele>493.58010864</ele>
        <time>2021-10-17T11:20:20Z</time>
      </trkpt>
      <trkpt lat="43.12156" lon="1.14623">
        <ele>493.61010742</ele>
        <time>2021-10-17T11:20:21Z</time>
      </trkpt>
      <trkpt lat="43.12155" lon="1.14626">
        <ele>493.61010742</ele>
        <time>2021-10-17T11:20:22Z</time>
      </trkpt>
      <trkpt lat="43.12155" lon="1.14629">
        <ele>493.13009644</ele>
        <time>2021-10-17T11:20:23Z</time>
      </trkpt>
      <trkpt lat="43.12154" lon="1.14633">
        <ele>493.15008545</ele>
        <time>2021-10-17T11:20:24Z</time>
      </trkpt>
      <trkpt lat="43.12153" lon="1.14639">
        <ele>493.21008301</ele>
        <time>2021-10-17T11:20:25Z</time>
      </trkpt>
      <trkpt lat="43.12152" lon="1.14643">
        <ele>493.18008423</ele>
        <time>2021-10-17T11:20:26Z</time>
      </trkpt>
      <trkpt lat="43.12153" lon="1.14645">
        <ele>493.51000977</ele>
        <time>2021-10-17T11:20:26Z</time>
      </trkpt>
      <trkpt lat="43.12152" lon="1.14649">
        <ele>493.51000977</ele>
        <time>2021-10-17T11:20:27Z</time>
      </trkpt>
      <trkpt lat="43.12151" lon="1.14653">
        <ele>493.45001221</ele>
        <time>2021-10-17T11:20:28Z</time>
      </trkpt>
      <trkpt lat="43.1215" lon="1.14659">
        <ele>493.24002075</ele>
        <time>2021-10-17T11:20:29Z</time>
      </trkpt>
      <trkpt lat="43.12149" lon="1.14663">
        <ele>493.29000854</ele>
        <time>2021-10-17T11:20:30Z</time>
      </trkpt>
      <trkpt lat="43.12149" lon="1.14666">
        <ele>493.42001343</ele>
        <time>2021-10-17T11:20:31Z</time>
      </trkpt>
      <trkpt lat="43.12148" lon="1.14668">
        <ele>493.49002075</ele>
        <time>2021-10-17T11:20:32Z</time>
      </trkpt>
      <trkpt lat="43.12146" lon="1.14671">
        <ele>493.6300354</ele>
        <time>2021-10-17T11:20:33Z</time>
      </trkpt>
      <trkpt lat="43.12145" lon="1.14675">
        <ele>493.61004639</ele>
        <time>2021-10-17T11:20:34Z</time>
      </trkpt>
      <trkpt lat="43.12144" lon="1.14679">
        <ele>493.59005737</ele>
        <time>2021-10-17T11:20:35Z</time>
      </trkpt>
      <trkpt lat="43.12143" lon="1.14681">
        <ele>493.60006714</ele>
        <time>2021-10-17T11:20:36Z</time>
      </trkpt>
      <trkpt lat="43.12142" lon="1.14685">
        <ele>493.44006348</ele>
        <time>2021-10-17T11:20:37Z</time>
      </trkpt>
      <trkpt lat="43.1214" lon="1.1469">
        <ele>493.44006348</ele>
        <time>2021-10-17T11:20:38Z</time>
      </trkpt>
      <trkpt lat="43.12139" lon="1.14693">
        <ele>493.4100647</ele>
        <time>2021-10-17T11:20:39Z</time>
      </trkpt>
      <trkpt lat="43.12138" lon="1.14696">
        <ele>493.45007324</ele>
        <time>2021-10-17T11:20:40Z</time>
      </trkpt>
      <trkpt lat="43.12137" lon="1.14699">
        <ele>493.50006104</ele>
        <time>2021-10-17T11:20:41Z</time>
      </trkpt>
      <trkpt lat="43.12136" lon="1.14701">
        <ele>493.54006958</ele>
        <time>2021-10-17T11:20:42Z</time>
      </trkpt>
      <trkpt lat="43.12136" lon="1.14703">
        <ele>493.65005493</ele>
        <time>2021-10-17T11:20:43Z</time>
      </trkpt>
      <trkpt lat="43.12135" lon="1.14704">
        <ele>493.75006104</ele>
        <time>2021-10-17T11:20:44Z</time>
      </trkpt>
      <trkpt lat="43.12136" lon="1.14704">
        <ele>493.95007324</ele>
        <time>2021-10-17T11:20:45Z</time>
      </trkpt>
      <trkpt lat="43.12136" lon="1.14705">
        <ele>494.1600647</ele>
        <time>2021-10-17T11:20:46Z</time>
      </trkpt>
      <trkpt lat="43.12128" lon="1.14722">
        <ele>494.55007935</ele>
        <time>2021-10-17T11:21:30Z</time>
      </trkpt>
      <trkpt lat="43.12127" lon="1.14724">
        <ele>494.42007446</ele>
        <time>2021-10-17T11:21:31Z</time>
      </trkpt>
      <trkpt lat="43.12124" lon="1.14728">
        <ele>494.1100769</ele>
        <time>2021-10-17T11:21:32Z</time>
      </trkpt>
      <trkpt lat="43.12122" lon="1.1473">
        <ele>493.92007446</ele>
        <time>2021-10-17T11:21:33Z</time>
      </trkpt>
      <trkpt lat="43.12121" lon="1.14733">
        <ele>493.81008911</ele>
        <time>2021-10-17T11:21:34Z</time>
      </trkpt>
      <trkpt lat="43.1212" lon="1.14735">
        <ele>493.73010254</ele>
        <time>2021-10-17T11:21:35Z</time>
      </trkpt>
      <trkpt lat="43.12118" lon="1.14737">
        <ele>493.87011719</ele>
        <time>2021-10-17T11:21:36Z</time>
      </trkpt>
      <trkpt lat="43.12116" lon="1.14742">
        <ele>493.86010742</ele>
        <time>2021-10-17T11:21:37Z</time>
      </trkpt>
      <trkpt lat="43.12114" lon="1.14745">
        <ele>493.81011963</ele>
        <time>2021-10-17T11:21:38Z</time>
      </trkpt>
      <trkpt lat="43.12113" lon="1.14749">
        <ele>493.78012085</ele>
        <time>2021-10-17T11:21:39Z</time>
      </trkpt>
      <trkpt lat="43.12112" lon="1.14751">
        <ele>493.76013184</ele>
        <time>2021-10-17T11:21:40Z</time>
      </trkpt>
      <trkpt lat="43.1211" lon="1.14754">
        <ele>493.90014648</ele>
        <time>2021-10-17T11:21:41Z</time>
      </trkpt>
      <trkpt lat="43.12109" lon="1.14756">
        <ele>493.97015381</ele>
        <time>2021-10-17T11:21:42Z</time>
      </trkpt>
      <trkpt lat="43.12109" lon="1.14759">
        <ele>494.06015015</ele>
        <time>2021-10-17T11:21:43Z</time>
      </trkpt>
      <trkpt lat="43.12108" lon="1.14761">
        <ele>494.22015381</ele>
        <time>2021-10-17T11:21:44Z</time>
      </trkpt>
      <trkpt lat="43.12106" lon="1.14763">
        <ele>494.22015381</ele>
        <time>2021-10-17T11:21:45Z</time>
      </trkpt>
      <trkpt lat="43.12104" lon="1.14767">
        <ele>494.39016724</ele>
        <time>2021-10-17T11:21:46Z</time>
      </trkpt>
      <trkpt lat="43.12104" lon="1.14769">
        <ele>494.59017944</ele>
        <time>2021-10-17T11:21:47Z</time>
      </trkpt>
      <trkpt lat="43.12102" lon="1.14772">
        <ele>494.650177</ele>
        <time>2021-10-17T11:21:48Z</time>
      </trkpt>
      <trkpt lat="43.12101" lon="1.14775">
        <ele>494.70016479</ele>
        <time>2021-10-17T11:21:49Z</time>
      </trkpt>
      <trkpt lat="43.121" lon="1.14777">
        <ele>494.79016113</ele>
        <time>2021-10-17T11:21:50Z</time>
      </trkpt>
      <trkpt lat="43.12099" lon="1.14782">
        <ele>494.82015991</ele>
        <time>2021-10-17T11:21:51Z</time>
      </trkpt>
      <trkpt lat="43.12098" lon="1.14785">
        <ele>494.8001709</ele>
        <time>2021-10-17T11:21:52Z</time>
      </trkpt>
      <trkpt lat="43.12097" lon="1.14788">
        <ele>495.13015747</ele>
        <time>2021-10-17T11:21:53Z</time>
      </trkpt>
      <trkpt lat="43.12095" lon="1.14791">
        <ele>495.23016357</ele>
        <time>2021-10-17T11:21:54Z</time>
      </trkpt>
      <trkpt lat="43.12092" lon="1.14796">
        <ele>495.35015869</ele>
        <time>2021-10-17T11:21:55Z</time>
      </trkpt>
      <trkpt lat="43.12091" lon="1.14798">
        <ele>495.59014893</ele>
        <time>2021-10-17T11:21:56Z</time>
      </trkpt>
      <trkpt lat="43.1209" lon="1.148">
        <ele>495.55014038</ele>
        <time>2021-10-17T11:21:57Z</time>
      </trkpt>
      <trkpt lat="43.12088" lon="1.14802">
        <ele>495.62014771</ele>
        <time>2021-10-17T11:21:58Z</time>
      </trkpt>
      <trkpt lat="43.12086" lon="1.14804">
        <ele>495.78015137</ele>
        <time>2021-10-17T11:21:59Z</time>
      </trkpt>
      <trkpt lat="43.12086" lon="1.14805">
        <ele>495.88015747</ele>
        <time>2021-10-17T11:22:00Z</time>
      </trkpt>
      <trkpt lat="43.12085" lon="1.14805">
        <ele>496.06015015</ele>
        <time>2021-10-17T11:22:01Z</time>
      </trkpt>
      <trkpt lat="43.12081" lon="1.14811">
        <ele>496.64013672</ele>
        <time>2021-10-17T11:22:10Z</time>
      </trkpt>
      <trkpt lat="43.1208" lon="1.14812">
        <ele>496.6701355</ele>
        <time>2021-10-17T11:22:11Z</time>
      </trkpt>
      <trkpt lat="43.12079" lon="1.14815">
        <ele>496.60012817</ele>
        <time>2021-10-17T11:22:12Z</time>
      </trkpt>
      <trkpt lat="43.12078" lon="1.14818">
        <ele>496.59011841</ele>
        <time>2021-10-17T11:22:13Z</time>
      </trkpt>
      <trkpt lat="43.12076" lon="1.14821">
        <ele>496.59011841</ele>
        <time>2021-10-17T11:22:14Z</time>
      </trkpt>
      <trkpt lat="43.12075" lon="1.14824">
        <ele>496.60012817</ele>
        <time>2021-10-17T11:22:15Z</time>
      </trkpt>
      <trkpt lat="43.12074" lon="1.14827">
        <ele>496.73013306</ele>
        <time>2021-10-17T11:22:16Z</time>
      </trkpt>
      <trkpt lat="43.12072" lon="1.14831">
        <ele>496.90014648</ele>
        <time>2021-10-17T11:22:17Z</time>
      </trkpt>
      <trkpt lat="43.1207" lon="1.14834">
        <ele>497.04016113</ele>
        <time>2021-10-17T11:22:18Z</time>
      </trkpt>
      <trkpt lat="43.12069" lon="1.14837">
        <ele>497.25015259</ele>
        <time>2021-10-17T11:22:19Z</time>
      </trkpt>
      <trkpt lat="43.12067" lon="1.14839">
        <ele>497.51016235</ele>
        <time>2021-10-17T11:22:20Z</time>
      </trkpt>
      <trkpt lat="43.12066" lon="1.14842">
        <ele>497.72015381</ele>
        <time>2021-10-17T11:22:21Z</time>
      </trkpt>
      <trkpt lat="43.12064" lon="1.14845">
        <ele>497.95016479</ele>
        <time>2021-10-17T11:22:22Z</time>
      </trkpt>
      <trkpt lat="43.12062" lon="1.14847">
        <ele>498.07015991</ele>
        <time>2021-10-17T11:22:23Z</time>
      </trkpt>
      <trkpt lat="43.12061" lon="1.1485">
        <ele>498.22015381</ele>
        <time>2021-10-17T11:22:24Z</time>
      </trkpt>
      <trkpt lat="43.12059" lon="1.14852">
        <ele>498.40014648</ele>
        <time>2021-10-17T11:22:25Z</time>
      </trkpt>
      <trkpt lat="43.12057" lon="1.14856">
        <ele>498.50015259</ele>
        <time>2021-10-17T11:22:26Z</time>
      </trkpt>
      <trkpt lat="43.12055" lon="1.14859">
        <ele>498.74014282</ele>
        <time>2021-10-17T11:22:27Z</time>
      </trkpt>
      <trkpt lat="43.12054" lon="1.14862">
        <ele>498.96014404</ele>
        <time>2021-10-17T11:22:28Z</time>
      </trkpt>
      <trkpt lat="43.12052" lon="1.14864">
        <ele>499.10015869</ele>
        <time>2021-10-17T11:22:29Z</time>
      </trkpt>
      <trkpt lat="43.1205" lon="1.14866">
        <ele>499.36016846</ele>
        <time>2021-10-17T11:22:30Z</time>
      </trkpt>
      <trkpt lat="43.12047" lon="1.14869">
        <ele>499.56018066</ele>
        <time>2021-10-17T11:22:31Z</time>
      </trkpt>
      <trkpt lat="43.12045" lon="1.14871">
        <ele>499.71017456</ele>
        <time>2021-10-17T11:22:32Z</time>
      </trkpt>
      <trkpt lat="43.12044" lon="1.14873">
        <ele>499.85018921</ele>
        <time>2021-10-17T11:22:33Z</time>
      </trkpt>
      <trkpt lat="43.12042" lon="1.14875">
        <ele>500.10018921</ele>
        <time>2021-10-17T11:22:34Z</time>
      </trkpt>
      <trkpt lat="43.1204" lon="1.14878">
        <ele>500.21017456</ele>
        <time>2021-10-17T11:22:35Z</time>
      </trkpt>
      <trkpt lat="43.12038" lon="1.1488">
        <ele>500.32015991</ele>
        <time>2021-10-17T11:22:36Z</time>
      </trkpt>
      <trkpt lat="43.12037" lon="1.14882">
        <ele>500.49017334</ele>
        <time>2021-10-17T11:22:37Z</time>
      </trkpt>
      <trkpt lat="43.12036" lon="1.14884">
        <ele>500.48016357</ele>
        <time>2021-10-17T11:22:38Z</time>
      </trkpt>
      <trkpt lat="43.12035" lon="1.14885">
        <ele>500.53015137</ele>
        <time>2021-10-17T11:22:39Z</time>
      </trkpt>
      <trkpt lat="43.12033" lon="1.14888">
        <ele>500.57015991</ele>
        <time>2021-10-17T11:22:40Z</time>
      </trkpt>
      <trkpt lat="43.12031" lon="1.1489">
        <ele>500.50015259</ele>
        <time>2021-10-17T11:22:41Z</time>
      </trkpt>
      <trkpt lat="43.1203" lon="1.14892">
        <ele>500.43014526</ele>
        <time>2021-10-17T11:22:42Z</time>
      </trkpt>
      <trkpt lat="43.12029" lon="1.14894">
        <ele>500.33013916</ele>
        <time>2021-10-17T11:22:43Z</time>
      </trkpt>
      <trkpt lat="43.12027" lon="1.14896">
        <ele>500.20013428</ele>
        <time>2021-10-17T11:22:44Z</time>
      </trkpt>
      <trkpt lat="43.12025" lon="1.149">
        <ele>500.16012573</ele>
        <time>2021-10-17T11:22:45Z</time>
      </trkpt>
      <trkpt lat="43.12024" lon="1.14902">
        <ele>500.19012451</ele>
        <time>2021-10-17T11:22:46Z</time>
      </trkpt>
      <trkpt lat="43.12023" lon="1.14905">
        <ele>500.19012451</ele>
        <time>2021-10-17T11:22:47Z</time>
      </trkpt>
      <trkpt lat="43.12022" lon="1.14907">
        <ele>500.12011719</ele>
        <time>2021-10-17T11:22:48Z</time>
      </trkpt>
      <trkpt lat="43.1202" lon="1.14912">
        <ele>499.97012329</ele>
        <time>2021-10-17T11:22:49Z</time>
      </trkpt>
      <trkpt lat="43.12018" lon="1.14915">
        <ele>499.65011597</ele>
        <time>2021-10-17T11:22:50Z</time>
      </trkpt>
      <trkpt lat="43.12017" lon="1.14918">
        <ele>499.36010742</ele>
        <time>2021-10-17T11:22:51Z</time>
      </trkpt>
      <trkpt lat="43.12015" lon="1.14921">
        <ele>499.20010376</ele>
        <time>2021-10-17T11:22:52Z</time>
      </trkpt>
      <trkpt lat="43.12013" lon="1.14925">
        <ele>499.20010376</ele>
        <time>2021-10-17T11:22:53Z</time>
      </trkpt>
      <trkpt lat="43.12011" lon="1.14927">
        <ele>499.27011108</ele>
        <time>2021-10-17T11:22:54Z</time>
      </trkpt>
      <trkpt lat="43.1201" lon="1.1493">
        <ele>499.36010742</ele>
        <time>2021-10-17T11:22:55Z</time>
      </trkpt>
      <trkpt lat="43.12009" lon="1.14932">
        <ele>499.37011719</ele>
        <time>2021-10-17T11:22:56Z</time>
      </trkpt>
      <trkpt lat="43.12008" lon="1.14935">
        <ele>499.30010986</ele>
        <time>2021-10-17T11:22:57Z</time>
      </trkpt>
      <trkpt lat="43.12006" lon="1.14939">
        <ele>499.25012207</ele>
        <time>2021-10-17T11:22:58Z</time>
      </trkpt>
      <trkpt lat="43.12005" lon="1.14942">
        <ele>499.19012451</ele>
        <time>2021-10-17T11:22:59Z</time>
      </trkpt>
      <trkpt lat="43.12004" lon="1.14945">
        <ele>499.18011475</ele>
        <time>2021-10-17T11:23:00Z</time>
      </trkpt>
      <trkpt lat="43.12002" lon="1.14949">
        <ele>499.06011963</ele>
        <time>2021-10-17T11:23:01Z</time>
      </trkpt>
      <trkpt lat="43.12001" lon="1.14954">
        <ele>498.91012573</ele>
        <time>2021-10-17T11:23:02Z</time>
      </trkpt>
      <trkpt lat="43.12001" lon="1.14954">
        <ele>499.02999878</ele>
        <time>2021-10-17T11:23:02Z</time>
      </trkpt>
      <trkpt lat="43.12" lon="1.14959">
        <ele>499.02999878</ele>
        <time>2021-10-17T11:23:03Z</time>
      </trkpt>
      <trkpt lat="43.11999" lon="1.14965">
        <ele>498.85998535</ele>
        <time>2021-10-17T11:23:04Z</time>
      </trkpt>
      <trkpt lat="43.11998" lon="1.14969">
        <ele>498.68997192</ele>
        <time>2021-10-17T11:23:05Z</time>
      </trkpt>
      <trkpt lat="43.11997" lon="1.14974">
        <ele>498.54995728</ele>
        <time>2021-10-17T11:23:06Z</time>
      </trkpt>
      <trkpt lat="43.11996" lon="1.14981">
        <ele>498.50994873</ele>
        <time>2021-10-17T11:23:07Z</time>
      </trkpt>
      <trkpt lat="43.11995" lon="1.14986">
        <ele>498.3399353</ele>
        <time>2021-10-17T11:23:08Z</time>
      </trkpt>
      <trkpt lat="43.11994" lon="1.1499">
        <ele>498.22994995</ele>
        <time>2021-10-17T11:23:09Z</time>
      </trkpt>
      <trkpt lat="43.11993" lon="1.14994">
        <ele>498.28994751</ele>
        <time>2021-10-17T11:23:10Z</time>
      </trkpt>
      <trkpt lat="43.11991" lon="1.15">
        <ele>498.24993896</ele>
        <time>2021-10-17T11:23:11Z</time>
      </trkpt>
      <trkpt lat="43.11991" lon="1.15004">
        <ele>498.36993408</ele>
        <time>2021-10-17T11:23:12Z</time>
      </trkpt>
      <trkpt lat="43.1199" lon="1.15008">
        <ele>498.35992432</ele>
        <time>2021-10-17T11:23:13Z</time>
      </trkpt>
      <trkpt lat="43.11989" lon="1.15013">
        <ele>498.3899231</ele>
        <time>2021-10-17T11:23:14Z</time>
      </trkpt>
      <trkpt lat="43.11989" lon="1.15017">
        <ele>498.47991943</ele>
        <time>2021-10-17T11:23:15Z</time>
      </trkpt>
      <trkpt lat="43.11988" lon="1.15024">
        <ele>498.62991333</ele>
        <time>2021-10-17T11:23:16Z</time>
      </trkpt>
      <trkpt lat="43.11987" lon="1.1503">
        <ele>498.73989868</ele>
        <time>2021-10-17T11:23:17Z</time>
      </trkpt>
      <trkpt lat="43.11985" lon="1.15035">
        <ele>498.58990479</ele>
        <time>2021-10-17T11:23:18Z</time>
      </trkpt>
      <trkpt lat="43.11983" lon="1.1504">
        <ele>498.49990845</ele>
        <time>2021-10-17T11:23:19Z</time>
      </trkpt>
      <trkpt lat="43.11981" lon="1.15045">
        <ele>498.3598938</ele>
        <time>2021-10-17T11:23:20Z</time>
      </trkpt>
      <trkpt lat="43.11978" lon="1.15052">
        <ele>498.23989868</ele>
        <time>2021-10-17T11:23:21Z</time>
      </trkpt>
      <trkpt lat="43.11977" lon="1.15057">
        <ele>498.2598877</ele>
        <time>2021-10-17T11:23:22Z</time>
      </trkpt>
      <trkpt lat="43.11975" lon="1.15062">
        <ele>497.78988647</ele>
        <time>2021-10-17T11:23:23Z</time>
      </trkpt>
      <trkpt lat="43.11974" lon="1.15067">
        <ele>497.57989502</ele>
        <time>2021-10-17T11:23:24Z</time>
      </trkpt>
      <trkpt lat="43.11971" lon="1.15075">
        <ele>497.5098877</ele>
        <time>2021-10-17T11:23:25Z</time>
      </trkpt>
      <trkpt lat="43.11969" lon="1.15081">
        <ele>497.48989868</ele>
        <time>2021-10-17T11:23:26Z</time>
      </trkpt>
      <trkpt lat="43.11968" lon="1.15087">
        <ele>497.21990967</ele>
        <time>2021-10-17T11:23:27Z</time>
      </trkpt>
      <trkpt lat="43.11967" lon="1.15093">
        <ele>497.17990112</ele>
        <time>2021-10-17T11:23:28Z</time>
      </trkpt>
      <trkpt lat="43.11966" lon="1.15099">
        <ele>497.05990601</ele>
        <time>2021-10-17T11:23:29Z</time>
      </trkpt>
      <trkpt lat="43.11965" lon="1.15108">
        <ele>496.78991699</ele>
        <time>2021-10-17T11:23:30Z</time>
      </trkpt>
      <trkpt lat="43.11963" lon="1.15115">
        <ele>496.72991943</ele>
        <time>2021-10-17T11:23:31Z</time>
      </trkpt>
      <trkpt lat="43.11962" lon="1.15121">
        <ele>496.62991333</ele>
        <time>2021-10-17T11:23:32Z</time>
      </trkpt>
      <trkpt lat="43.11962" lon="1.15127">
        <ele>496.43991089</ele>
        <time>2021-10-17T11:23:33Z</time>
      </trkpt>
      <trkpt lat="43.11963" lon="1.15137">
        <ele>496.18991089</ele>
        <time>2021-10-17T11:23:34Z</time>
      </trkpt>
      <trkpt lat="43.11964" lon="1.15143">
        <ele>495.93991089</ele>
        <time>2021-10-17T11:23:35Z</time>
      </trkpt>
      <trkpt lat="43.11965" lon="1.15149">
        <ele>495.65991211</ele>
        <time>2021-10-17T11:23:36Z</time>
      </trkpt>
      <trkpt lat="43.11966" lon="1.15156">
        <ele>495.30990601</ele>
        <time>2021-10-17T11:23:37Z</time>
      </trkpt>
      <trkpt lat="43.11968" lon="1.15166">
        <ele>495.03991699</ele>
        <time>2021-10-17T11:23:38Z</time>
      </trkpt>
      <trkpt lat="43.1197" lon="1.15173">
        <ele>494.4899292</ele>
        <time>2021-10-17T11:23:39Z</time>
      </trkpt>
      <trkpt lat="43.11973" lon="1.1518">
        <ele>493.87994385</ele>
        <time>2021-10-17T11:23:40Z</time>
      </trkpt>
      <trkpt lat="43.11975" lon="1.15187">
        <ele>493.29995728</ele>
        <time>2021-10-17T11:23:41Z</time>
      </trkpt>
      <trkpt lat="43.11978" lon="1.15194">
        <ele>492.68997192</ele>
        <time>2021-10-17T11:23:42Z</time>
      </trkpt>
      <trkpt lat="43.11983" lon="1.15203">
        <ele>492.13998413</ele>
        <time>2021-10-17T11:23:43Z</time>
      </trkpt>
      <trkpt lat="43.11987" lon="1.15209">
        <ele>491.91998291</ele>
        <time>2021-10-17T11:23:44Z</time>
      </trkpt>
      <trkpt lat="43.11991" lon="1.15214">
        <ele>491.85998535</ele>
        <time>2021-10-17T11:23:45Z</time>
      </trkpt>
      <trkpt lat="43.11995" lon="1.15219">
        <ele>491.65997314</ele>
        <time>2021-10-17T11:23:46Z</time>
      </trkpt>
      <trkpt lat="43.12003" lon="1.15226">
        <ele>491.29998779</ele>
        <time>2021-10-17T11:23:47Z</time>
      </trkpt>
      <trkpt lat="43.12008" lon="1.1523">
        <ele>490.75</ele>
        <time>2021-10-17T11:23:48Z</time>
      </trkpt>
      <trkpt lat="43.12013" lon="1.15233">
        <ele>490.07998657</ele>
        <time>2021-10-17T11:23:49Z</time>
      </trkpt>
      <trkpt lat="43.12018" lon="1.15237">
        <ele>489.47000122</ele>
        <time>2021-10-17T11:23:50Z</time>
      </trkpt>
      <trkpt lat="43.12024" lon="1.15241">
        <ele>489.16000366</ele>
        <time>2021-10-17T11:23:51Z</time>
      </trkpt>
      <trkpt lat="43.12032" lon="1.15247">
        <ele>489.01998901</ele>
        <time>2021-10-17T11:23:52Z</time>
      </trkpt>
      <trkpt lat="43.12037" lon="1.15251">
        <ele>488.72000122</ele>
        <time>2021-10-17T11:23:53Z</time>
      </trkpt>
      <trkpt lat="43.12042" lon="1.15256">
        <ele>488.51000977</ele>
        <time>2021-10-17T11:23:54Z</time>
      </trkpt>
      <trkpt lat="43.12047" lon="1.15261">
        <ele>488.04000854</ele>
        <time>2021-10-17T11:23:55Z</time>
      </trkpt>
      <trkpt lat="43.12054" lon="1.15271">
        <ele>487.30999756</ele>
        <time>2021-10-17T11:23:56Z</time>
      </trkpt>
      <trkpt lat="43.12058" lon="1.15278">
        <ele>486.52999878</ele>
        <time>2021-10-17T11:23:57Z</time>
      </trkpt>
      <trkpt lat="43.12061" lon="1.15286">
        <ele>485.76998901</ele>
        <time>2021-10-17T11:23:58Z</time>
      </trkpt>
      <trkpt lat="43.12064" lon="1.15294">
        <ele>485.34997559</ele>
        <time>2021-10-17T11:23:59Z</time>
      </trkpt>
      <trkpt lat="43.12068" lon="1.15305">
        <ele>484.77996826</ele>
        <time>2021-10-17T11:24:00Z</time>
      </trkpt>
      <trkpt lat="43.12071" lon="1.15313">
        <ele>484.54995728</ele>
        <time>2021-10-17T11:24:01Z</time>
      </trkpt>
      <trkpt lat="43.12073" lon="1.1532">
        <ele>484.07995605</ele>
        <time>2021-10-17T11:24:02Z</time>
      </trkpt>
      <trkpt lat="43.12076" lon="1.15327">
        <ele>483.77996826</ele>
        <time>2021-10-17T11:24:03Z</time>
      </trkpt>
      <trkpt lat="43.12077" lon="1.15335">
        <ele>483.70996094</ele>
        <time>2021-10-17T11:24:04Z</time>
      </trkpt>
      <trkpt lat="43.1208" lon="1.15345">
        <ele>483.65997314</ele>
        <time>2021-10-17T11:24:05Z</time>
      </trkpt>
      <trkpt lat="43.12081" lon="1.15351">
        <ele>483.91998291</ele>
        <time>2021-10-17T11:24:06Z</time>
      </trkpt>
      <trkpt lat="43.12083" lon="1.15359">
        <ele>483.90997314</ele>
        <time>2021-10-17T11:24:07Z</time>
      </trkpt>
      <trkpt lat="43.12083" lon="1.15366">
        <ele>483.92996216</ele>
        <time>2021-10-17T11:24:08Z</time>
      </trkpt>
      <trkpt lat="43.12084" lon="1.15374">
        <ele>483.44995117</ele>
        <time>2021-10-17T11:24:09Z</time>
      </trkpt>
      <trkpt lat="43.12085" lon="1.15385">
        <ele>483.1199646</ele>
        <time>2021-10-17T11:24:10Z</time>
      </trkpt>
      <trkpt lat="43.12085" lon="1.15393">
        <ele>482.49996948</ele>
        <time>2021-10-17T11:24:11Z</time>
      </trkpt>
      <trkpt lat="43.12085" lon="1.154">
        <ele>481.97998047</ele>
        <time>2021-10-17T11:24:12Z</time>
      </trkpt>
      <trkpt lat="43.12086" lon="1.15409">
        <ele>481.82998657</ele>
        <time>2021-10-17T11:24:13Z</time>
      </trkpt>
      <trkpt lat="43.12086" lon="1.15422">
        <ele>481.18997192</ele>
        <time>2021-10-17T11:24:14Z</time>
      </trkpt>
      <trkpt lat="43.12085" lon="1.1543">
        <ele>480.7699585</ele>
        <time>2021-10-17T11:24:15Z</time>
      </trkpt>
      <trkpt lat="43.12085" lon="1.15438">
        <ele>480.18997192</ele>
        <time>2021-10-17T11:24:16Z</time>
      </trkpt>
      <trkpt lat="43.12085" lon="1.15447">
        <ele>479.00997925</ele>
        <time>2021-10-17T11:24:17Z</time>
      </trkpt>
      <trkpt lat="43.12084" lon="1.15455">
        <ele>478.38998413</ele>
        <time>2021-10-17T11:24:18Z</time>
      </trkpt>
      <trkpt lat="43.12082" lon="1.15468">
        <ele>477.66998291</ele>
        <time>2021-10-17T11:24:19Z</time>
      </trkpt>
      <trkpt lat="43.12083" lon="1.15476">
        <ele>476.88998413</ele>
        <time>2021-10-17T11:24:20Z</time>
      </trkpt>
      <trkpt lat="43.12083" lon="1.15484">
        <ele>476.77999878</ele>
        <time>2021-10-17T11:24:21Z</time>
      </trkpt>
      <trkpt lat="43.12083" lon="1.15493">
        <ele>476.57000732</ele>
        <time>2021-10-17T11:24:22Z</time>
      </trkpt>
      <trkpt lat="43.12082" lon="1.15504">
        <ele>476.36001587</ele>
        <time>2021-10-17T11:24:23Z</time>
      </trkpt>
      <trkpt lat="43.12082" lon="1.1551">
        <ele>476.52001953</ele>
        <time>2021-10-17T11:24:24Z</time>
      </trkpt>
      <trkpt lat="43.12081" lon="1.15517">
        <ele>476.5300293</ele>
        <time>2021-10-17T11:24:25Z</time>
      </trkpt>
      <trkpt lat="43.12081" lon="1.15524">
        <ele>476.49002075</ele>
        <time>2021-10-17T11:24:26Z</time>
      </trkpt>
      <trkpt lat="43.12081" lon="1.15535">
        <ele>476.46002197</ele>
        <time>2021-10-17T11:24:27Z</time>
      </trkpt>
      <trkpt lat="43.12081" lon="1.15543">
        <ele>475.65002441</ele>
        <time>2021-10-17T11:24:28Z</time>
      </trkpt>
      <trkpt lat="43.12081" lon="1.15551">
        <ele>475.26000977</ele>
        <time>2021-10-17T11:24:29Z</time>
      </trkpt>
      <trkpt lat="43.12082" lon="1.15558">
        <ele>474.36001587</ele>
        <time>2021-10-17T11:24:30Z</time>
      </trkpt>
      <trkpt lat="43.12082" lon="1.15565">
        <ele>473.8500061</ele>
        <time>2021-10-17T11:24:31Z</time>
      </trkpt>
      <trkpt lat="43.12081" lon="1.15577">
        <ele>473.57000732</ele>
        <time>2021-10-17T11:24:32Z</time>
      </trkpt>
      <trkpt lat="43.1208" lon="1.15584">
        <ele>472.88000488</ele>
        <time>2021-10-17T11:24:33Z</time>
      </trkpt>
      <trkpt lat="43.12078" lon="1.15591">
        <ele>472.61001587</ele>
        <time>2021-10-17T11:24:34Z</time>
      </trkpt>
      <trkpt lat="43.12076" lon="1.15597">
        <ele>472.02001953</ele>
        <time>2021-10-17T11:24:35Z</time>
      </trkpt>
      <trkpt lat="43.12075" lon="1.15603">
        <ele>471.52001953</ele>
        <time>2021-10-17T11:24:36Z</time>
      </trkpt>
      <trkpt lat="43.12073" lon="1.15612">
        <ele>471.07000732</ele>
        <time>2021-10-17T11:24:37Z</time>
      </trkpt>
      <trkpt lat="43.12071" lon="1.15617">
        <ele>470.30999756</ele>
        <time>2021-10-17T11:24:38Z</time>
      </trkpt>
      <trkpt lat="43.1207" lon="1.15622">
        <ele>469.61999512</ele>
        <time>2021-10-17T11:24:39Z</time>
      </trkpt>
      <trkpt lat="43.12069" lon="1.15626">
        <ele>468.98999023</ele>
        <time>2021-10-17T11:24:40Z</time>
      </trkpt>
      <trkpt lat="43.12067" lon="1.15631">
        <ele>468.47000122</ele>
        <time>2021-10-17T11:24:41Z</time>
      </trkpt>
      <trkpt lat="43.12065" lon="1.15636">
        <ele>467.94000244</ele>
        <time>2021-10-17T11:24:42Z</time>
      </trkpt>
      <trkpt lat="43.12063" lon="1.15642">
        <ele>467.30999756</ele>
        <time>2021-10-17T11:24:43Z</time>
      </trkpt>
      <trkpt lat="43.12062" lon="1.15648">
        <ele>466.60998535</ele>
        <time>2021-10-17T11:24:44Z</time>
      </trkpt>
      <trkpt lat="43.12061" lon="1.15655">
        <ele>465.85998535</ele>
        <time>2021-10-17T11:24:45Z</time>
      </trkpt>
      <trkpt lat="43.12062" lon="1.15658">
        <ele>465.32998657</ele>
        <time>2021-10-17T11:24:46Z</time>
      </trkpt>
      <trkpt lat="43.12065" lon="1.15661">
        <ele>464.84997559</ele>
        <time>2021-10-17T11:24:47Z</time>
      </trkpt>
      <trkpt lat="43.12067" lon="1.15663">
        <ele>464.24996948</ele>
        <time>2021-10-17T11:24:48Z</time>
      </trkpt>
      <trkpt lat="43.12069" lon="1.15667">
        <ele>463.73995972</ele>
        <time>2021-10-17T11:24:49Z</time>
      </trkpt>
      <trkpt lat="43.12073" lon="1.15671">
        <ele>463.06994629</ele>
        <time>2021-10-17T11:24:50Z</time>
      </trkpt>
      <trkpt lat="43.12076" lon="1.15674">
        <ele>462.36993408</ele>
        <time>2021-10-17T11:24:51Z</time>
      </trkpt>
      <trkpt lat="43.12079" lon="1.15678">
        <ele>461.71994019</ele>
        <time>2021-10-17T11:24:52Z</time>
      </trkpt>
      <trkpt lat="43.12082" lon="1.15682">
        <ele>460.88995361</ele>
        <time>2021-10-17T11:24:53Z</time>
      </trkpt>
      <trkpt lat="43.12085" lon="1.15686">
        <ele>459.96994019</ele>
        <time>2021-10-17T11:24:54Z</time>
      </trkpt>
      <trkpt lat="43.12089" lon="1.1569">
        <ele>459.13995361</ele>
        <time>2021-10-17T11:24:55Z</time>
      </trkpt>
      <trkpt lat="43.12092" lon="1.15691">
        <ele>458.46994019</ele>
        <time>2021-10-17T11:24:56Z</time>
      </trkpt>
      <trkpt lat="43.12094" lon="1.15689">
        <ele>457.71994019</ele>
        <time>2021-10-17T11:24:57Z</time>
      </trkpt>
      <trkpt lat="43.12095" lon="1.15687">
        <ele>457.05993652</ele>
        <time>2021-10-17T11:24:58Z</time>
      </trkpt>
      <trkpt lat="43.12099" lon="1.15678">
        <ele>456.07992554</ele>
        <time>2021-10-17T11:24:59Z</time>
      </trkpt>
      <trkpt lat="43.12102" lon="1.15672">
        <ele>454.7399292</ele>
        <time>2021-10-17T11:25:00Z</time>
      </trkpt>
      <trkpt lat="43.12104" lon="1.15665">
        <ele>453.31991577</ele>
        <time>2021-10-17T11:25:01Z</time>
      </trkpt>
      <trkpt lat="43.12109" lon="1.15658">
        <ele>451.78991699</ele>
        <time>2021-10-17T11:25:02Z</time>
      </trkpt>
      <trkpt lat="43.12117" lon="1.15647">
        <ele>449.9899292</ele>
        <time>2021-10-17T11:25:03Z</time>
      </trkpt>
      <trkpt lat="43.12121" lon="1.15639">
        <ele>448.87994385</ele>
        <time>2021-10-17T11:25:04Z</time>
      </trkpt>
      <trkpt lat="43.12126" lon="1.15631">
        <ele>447.85995483</ele>
        <time>2021-10-17T11:25:05Z</time>
      </trkpt>
      <trkpt lat="43.12131" lon="1.15624">
        <ele>447.33996582</ele>
        <time>2021-10-17T11:25:06Z</time>
      </trkpt>
      <trkpt lat="43.12136" lon="1.15617">
        <ele>447.4699707</ele>
        <time>2021-10-17T11:25:07Z</time>
      </trkpt>
      <trkpt lat="43.12143" lon="1.15605">
        <ele>447.18997192</ele>
        <time>2021-10-17T11:25:08Z</time>
      </trkpt>
      <trkpt lat="43.12146" lon="1.15597">
        <ele>447.0199585</ele>
        <time>2021-10-17T11:25:09Z</time>
      </trkpt>
      <trkpt lat="43.12148" lon="1.15588">
        <ele>446.6199646</ele>
        <time>2021-10-17T11:25:10Z</time>
      </trkpt>
      <trkpt lat="43.1215" lon="1.15579">
        <ele>446.19995117</ele>
        <time>2021-10-17T11:25:11Z</time>
      </trkpt>
      <trkpt lat="43.12151" lon="1.1557">
        <ele>446.03994751</ele>
        <time>2021-10-17T11:25:12Z</time>
      </trkpt>
      <trkpt lat="43.12153" lon="1.15557">
        <ele>445.89993286</ele>
        <time>2021-10-17T11:25:13Z</time>
      </trkpt>
      <trkpt lat="43.12153" lon="1.15549">
        <ele>446.02993774</ele>
        <time>2021-10-17T11:25:14Z</time>
      </trkpt>
      <trkpt lat="43.12155" lon="1.15542">
        <ele>446.00994873</ele>
        <time>2021-10-17T11:25:15Z</time>
      </trkpt>
      <trkpt lat="43.12156" lon="1.15536">
        <ele>446.15994263</ele>
        <time>2021-10-17T11:25:16Z</time>
      </trkpt>
      <trkpt lat="43.12159" lon="1.15527">
        <ele>446.36993408</ele>
        <time>2021-10-17T11:25:17Z</time>
      </trkpt>
      <trkpt lat="43.12162" lon="1.15521">
        <ele>446.42993164</ele>
        <time>2021-10-17T11:25:18Z</time>
      </trkpt>
      <trkpt lat="43.12164" lon="1.15514">
        <ele>446.53991699</ele>
        <time>2021-10-17T11:25:19Z</time>
      </trkpt>
      <trkpt lat="43.12167" lon="1.15508">
        <ele>446.37991333</ele>
        <time>2021-10-17T11:25:20Z</time>
      </trkpt>
      <trkpt lat="43.1217" lon="1.15499">
        <ele>446.25991821</ele>
        <time>2021-10-17T11:25:21Z</time>
      </trkpt>
      <trkpt lat="43.12172" lon="1.15493">
        <ele>446.10992432</ele>
        <time>2021-10-17T11:25:22Z</time>
      </trkpt>
      <trkpt lat="43.12173" lon="1.15486">
        <ele>445.94992065</ele>
        <time>2021-10-17T11:25:23Z</time>
      </trkpt>
      <trkpt lat="43.12175" lon="1.1548">
        <ele>445.93991089</ele>
        <time>2021-10-17T11:25:24Z</time>
      </trkpt>
      <trkpt lat="43.12176" lon="1.15473">
        <ele>445.76989746</ele>
        <time>2021-10-17T11:25:25Z</time>
      </trkpt>
      <trkpt lat="43.12177" lon="1.15462">
        <ele>445.59988403</ele>
        <time>2021-10-17T11:25:26Z</time>
      </trkpt>
      <trkpt lat="43.12178" lon="1.15453">
        <ele>445.41989136</ele>
        <time>2021-10-17T11:25:27Z</time>
      </trkpt>
      <trkpt lat="43.12178" lon="1.15445">
        <ele>445.03988647</ele>
        <time>2021-10-17T11:25:28Z</time>
      </trkpt>
      <trkpt lat="43.12177" lon="1.15437">
        <ele>444.68988037</ele>
        <time>2021-10-17T11:25:29Z</time>
      </trkpt>
      <trkpt lat="43.12178" lon="1.15431">
        <ele>444.55987549</ele>
        <time>2021-10-17T11:25:30Z</time>
      </trkpt>
      <trkpt lat="43.1218" lon="1.15421">
        <ele>444.47988892</ele>
        <time>2021-10-17T11:25:31Z</time>
      </trkpt>
      <trkpt lat="43.12182" lon="1.15414">
        <ele>444.53988647</ele>
        <time>2021-10-17T11:25:32Z</time>
      </trkpt>
      <trkpt lat="43.12183" lon="1.15407">
        <ele>444.73989868</ele>
        <time>2021-10-17T11:25:33Z</time>
      </trkpt>
      <trkpt lat="43.12184" lon="1.15399">
        <ele>444.53988647</ele>
        <time>2021-10-17T11:25:34Z</time>
      </trkpt>
      <trkpt lat="43.12187" lon="1.15389">
        <ele>443.9598999</ele>
        <time>2021-10-17T11:25:35Z</time>
      </trkpt>
      <trkpt lat="43.12189" lon="1.1538">
        <ele>443.17990112</ele>
        <time>2021-10-17T11:25:36Z</time>
      </trkpt>
      <trkpt lat="43.12194" lon="1.15372">
        <ele>442.02990723</ele>
        <time>2021-10-17T11:25:37Z</time>
      </trkpt>
      <trkpt lat="43.12199" lon="1.15363">
        <ele>440.69992065</ele>
        <time>2021-10-17T11:25:38Z</time>
      </trkpt>
      <trkpt lat="43.12204" lon="1.15354">
        <ele>439.60992432</ele>
        <time>2021-10-17T11:25:39Z</time>
      </trkpt>
      <trkpt lat="43.1221" lon="1.1534">
        <ele>438.49993896</ele>
        <time>2021-10-17T11:25:40Z</time>
      </trkpt>
      <trkpt lat="43.12212" lon="1.1533">
        <ele>437.92993164</ele>
        <time>2021-10-17T11:25:41Z</time>
      </trkpt>
      <trkpt lat="43.12214" lon="1.1532">
        <ele>437.55993652</ele>
        <time>2021-10-17T11:25:42Z</time>
      </trkpt>
      <trkpt lat="43.12215" lon="1.15311">
        <ele>437.46994019</ele>
        <time>2021-10-17T11:25:43Z</time>
      </trkpt>
      <trkpt lat="43.12216" lon="1.15298">
        <ele>437.74993896</ele>
        <time>2021-10-17T11:25:44Z</time>
      </trkpt>
      <trkpt lat="43.12217" lon="1.15291">
        <ele>437.87994385</ele>
        <time>2021-10-17T11:25:45Z</time>
      </trkpt>
      <trkpt lat="43.1222" lon="1.15284">
        <ele>438.37994385</ele>
        <time>2021-10-17T11:25:46Z</time>
      </trkpt>
      <trkpt lat="43.12222" lon="1.15277">
        <ele>438.70993042</ele>
        <time>2021-10-17T11:25:47Z</time>
      </trkpt>
      <trkpt lat="43.12225" lon="1.15269">
        <ele>438.67993164</ele>
        <time>2021-10-17T11:25:48Z</time>
      </trkpt>
      <trkpt lat="43.1223" lon="1.15258">
        <ele>438.36993408</ele>
        <time>2021-10-17T11:25:49Z</time>
      </trkpt>
      <trkpt lat="43.12234" lon="1.1525">
        <ele>437.75994873</ele>
        <time>2021-10-17T11:25:50Z</time>
      </trkpt>
      <trkpt lat="43.12239" lon="1.15243">
        <ele>436.84994507</ele>
        <time>2021-10-17T11:25:51Z</time>
      </trkpt>
      <trkpt lat="43.12243" lon="1.15235">
        <ele>436.05993652</ele>
        <time>2021-10-17T11:25:52Z</time>
      </trkpt>
      <trkpt lat="43.12249" lon="1.15223">
        <ele>435.27993774</ele>
        <time>2021-10-17T11:25:53Z</time>
      </trkpt>
      <trkpt lat="43.12252" lon="1.15215">
        <ele>434.2399292</ele>
        <time>2021-10-17T11:25:54Z</time>
      </trkpt>
      <trkpt lat="43.12256" lon="1.15208">
        <ele>433.17993164</ele>
        <time>2021-10-17T11:25:55Z</time>
      </trkpt>
      <trkpt lat="43.1226" lon="1.15203">
        <ele>432.3399353</ele>
        <time>2021-10-17T11:25:56Z</time>
      </trkpt>
      <trkpt lat="43.12265" lon="1.152">
        <ele>431.74993896</ele>
        <time>2021-10-17T11:25:57Z</time>
      </trkpt>
      <trkpt lat="43.12273" lon="1.15196">
        <ele>431.47994995</ele>
        <time>2021-10-17T11:25:58Z</time>
      </trkpt>
      <trkpt lat="43.12277" lon="1.15193">
        <ele>431.49993896</ele>
        <time>2021-10-17T11:25:59Z</time>
      </trkpt>
      <trkpt lat="43.12281" lon="1.15188">
        <ele>431.32992554</ele>
        <time>2021-10-17T11:26:00Z</time>
      </trkpt>
      <trkpt lat="43.12284" lon="1.15184">
        <ele>431.27993774</ele>
        <time>2021-10-17T11:26:01Z</time>
      </trkpt>
      <trkpt lat="43.12287" lon="1.15176">
        <ele>431.21994019</ele>
        <time>2021-10-17T11:26:02Z</time>
      </trkpt>
      <trkpt lat="43.12289" lon="1.15171">
        <ele>431.05993652</ele>
        <time>2021-10-17T11:26:03Z</time>
      </trkpt>
      <trkpt lat="43.1229" lon="1.15166">
        <ele>430.6399231</ele>
        <time>2021-10-17T11:26:04Z</time>
      </trkpt>
      <trkpt lat="43.12292" lon="1.1516">
        <ele>429.8899231</ele>
        <time>2021-10-17T11:26:05Z</time>
      </trkpt>
      <trkpt lat="43.12294" lon="1.15154">
        <ele>429.05993652</ele>
        <time>2021-10-17T11:26:06Z</time>
      </trkpt>
      <trkpt lat="43.12297" lon="1.15142">
        <ele>428.37994385</ele>
        <time>2021-10-17T11:26:07Z</time>
      </trkpt>
      <trkpt lat="43.12299" lon="1.15134">
        <ele>428.03994751</ele>
        <time>2021-10-17T11:26:08Z</time>
      </trkpt>
      <trkpt lat="43.123" lon="1.15126">
        <ele>427.5899353</ele>
        <time>2021-10-17T11:26:09Z</time>
      </trkpt>
      <trkpt lat="43.12301" lon="1.15119">
        <ele>427.40994263</ele>
        <time>2021-10-17T11:26:10Z</time>
      </trkpt>
      <trkpt lat="43.12303" lon="1.15113">
        <ele>426.88995361</ele>
        <time>2021-10-17T11:26:11Z</time>
      </trkpt>
      <trkpt lat="43.12307" lon="1.15108">
        <ele>426.35995483</ele>
        <time>2021-10-17T11:26:12Z</time>
      </trkpt>
      <trkpt lat="43.12308" lon="1.15107">
        <ele>426.12994385</ele>
        <time>2021-10-17T11:26:13Z</time>
      </trkpt>
      <trkpt lat="43.12309" lon="1.15108">
        <ele>425.77993774</ele>
        <time>2021-10-17T11:26:14Z</time>
      </trkpt>
      <trkpt lat="43.12311" lon="1.15111">
        <ele>425.6399231</ele>
        <time>2021-10-17T11:26:15Z</time>
      </trkpt>
      <trkpt lat="43.12311" lon="1.15114">
        <ele>425.37991333</ele>
        <time>2021-10-17T11:26:16Z</time>
      </trkpt>
      <trkpt lat="43.12312" lon="1.15118">
        <ele>424.99990845</ele>
        <time>2021-10-17T11:26:17Z</time>
      </trkpt>
      <trkpt lat="43.12314" lon="1.15123">
        <ele>424.6098938</ele>
        <time>2021-10-17T11:26:18Z</time>
      </trkpt>
      <trkpt lat="43.12316" lon="1.15127">
        <ele>424.23989868</ele>
        <time>2021-10-17T11:26:19Z</time>
      </trkpt>
      <trkpt lat="43.12318" lon="1.15133">
        <ele>423.58990479</ele>
        <time>2021-10-17T11:26:20Z</time>
      </trkpt>
      <trkpt lat="43.12319" lon="1.15137">
        <ele>422.79989624</ele>
        <time>2021-10-17T11:26:21Z</time>
      </trkpt>
      <trkpt lat="43.1232" lon="1.15143">
        <ele>421.91989136</ele>
        <time>2021-10-17T11:26:22Z</time>
      </trkpt>
      <trkpt lat="43.12322" lon="1.15147">
        <ele>421.17990112</ele>
        <time>2021-10-17T11:26:23Z</time>
      </trkpt>
      <trkpt lat="43.12324" lon="1.15152">
        <ele>420.93991089</ele>
        <time>2021-10-17T11:26:24Z</time>
      </trkpt>
      <trkpt lat="43.12327" lon="1.15158">
        <ele>420.86990356</ele>
        <time>2021-10-17T11:26:25Z</time>
      </trkpt>
      <trkpt lat="43.12329" lon="1.15163">
        <ele>420.99990845</ele>
        <time>2021-10-17T11:26:26Z</time>
      </trkpt>
      <trkpt lat="43.12331" lon="1.15168">
        <ele>421.09991455</ele>
        <time>2021-10-17T11:26:27Z</time>
      </trkpt>
      <trkpt lat="43.12335" lon="1.15171">
        <ele>420.91992188</ele>
        <time>2021-10-17T11:26:28Z</time>
      </trkpt>
      <trkpt lat="43.12342" lon="1.15176">
        <ele>420.70993042</ele>
        <time>2021-10-17T11:26:29Z</time>
      </trkpt>
      <trkpt lat="43.12346" lon="1.15179">
        <ele>420.05993652</ele>
        <time>2021-10-17T11:26:30Z</time>
      </trkpt>
      <trkpt lat="43.12352" lon="1.1518">
        <ele>418.97994995</ele>
        <time>2021-10-17T11:26:31Z</time>
      </trkpt>
      <trkpt lat="43.12357" lon="1.15181">
        <ele>417.91995239</ele>
        <time>2021-10-17T11:26:32Z</time>
      </trkpt>
      <trkpt lat="43.12364" lon="1.15181">
        <ele>416.54995728</ele>
        <time>2021-10-17T11:26:33Z</time>
      </trkpt>
      <trkpt lat="43.12368" lon="1.15182">
        <ele>415.27996826</ele>
        <time>2021-10-17T11:26:34Z</time>
      </trkpt>
      <trkpt lat="43.12375" lon="1.1518">
        <ele>414.19998169</ele>
        <time>2021-10-17T11:26:35Z</time>
      </trkpt>
      <trkpt lat="43.12382" lon="1.15179">
        <ele>413.03997803</ele>
        <time>2021-10-17T11:26:36Z</time>
      </trkpt>
      <trkpt lat="43.12388" lon="1.15179">
        <ele>412.30996704</ele>
        <time>2021-10-17T11:26:37Z</time>
      </trkpt>
      <trkpt lat="43.12396" lon="1.15183">
        <ele>411.64996338</ele>
        <time>2021-10-17T11:26:38Z</time>
      </trkpt>
      <trkpt lat="43.12399" lon="1.15188">
        <ele>411.09997559</ele>
        <time>2021-10-17T11:26:39Z</time>
      </trkpt>
      <trkpt lat="43.12402" lon="1.15194">
        <ele>410.68997192</ele>
        <time>2021-10-17T11:26:40Z</time>
      </trkpt>
      <trkpt lat="43.12406" lon="1.152">
        <ele>409.98995972</ele>
        <time>2021-10-17T11:26:41Z</time>
      </trkpt>
      <trkpt lat="43.12409" lon="1.1521">
        <ele>409.22994995</ele>
        <time>2021-10-17T11:26:42Z</time>
      </trkpt>
      <trkpt lat="43.12411" lon="1.15217">
        <ele>408.54995728</ele>
        <time>2021-10-17T11:26:43Z</time>
      </trkpt>
      <trkpt lat="43.12414" lon="1.15224">
        <ele>408.06994629</ele>
        <time>2021-10-17T11:26:44Z</time>
      </trkpt>
      <trkpt lat="43.12415" lon="1.15231">
        <ele>407.89993286</ele>
        <time>2021-10-17T11:26:45Z</time>
      </trkpt>
      <trkpt lat="43.12414" lon="1.15237">
        <ele>408.05993652</ele>
        <time>2021-10-17T11:26:46Z</time>
      </trkpt>
      <trkpt lat="43.12412" lon="1.15244">
        <ele>408.40994263</ele>
        <time>2021-10-17T11:26:47Z</time>
      </trkpt>
      <trkpt lat="43.12409" lon="1.15247">
        <ele>408.75994873</ele>
        <time>2021-10-17T11:26:48Z</time>
      </trkpt>
      <trkpt lat="43.12406" lon="1.15249">
        <ele>409.17996216</ele>
        <time>2021-10-17T11:26:49Z</time>
      </trkpt>
      <trkpt lat="43.12402" lon="1.15251">
        <ele>409.42996216</ele>
        <time>2021-10-17T11:26:50Z</time>
      </trkpt>
      <trkpt lat="43.12398" lon="1.15253">
        <ele>409.54995728</ele>
        <time>2021-10-17T11:26:51Z</time>
      </trkpt>
      <trkpt lat="43.12392" lon="1.15256">
        <ele>409.56994629</ele>
        <time>2021-10-17T11:26:52Z</time>
      </trkpt>
      <trkpt lat="43.12387" lon="1.15258">
        <ele>409.49993896</ele>
        <time>2021-10-17T11:26:53Z</time>
      </trkpt>
      <trkpt lat="43.12384" lon="1.1526">
        <ele>409.44995117</ele>
        <time>2021-10-17T11:26:54Z</time>
      </trkpt>
      <trkpt lat="43.1238" lon="1.15262">
        <ele>409.39996338</ele>
        <time>2021-10-17T11:26:55Z</time>
      </trkpt>
      <trkpt lat="43.12376" lon="1.15264">
        <ele>409.39996338</ele>
        <time>2021-10-17T11:26:56Z</time>
      </trkpt>
      <trkpt lat="43.12373" lon="1.15267">
        <ele>409.45996094</ele>
        <time>2021-10-17T11:26:57Z</time>
      </trkpt>
      <trkpt lat="43.1237" lon="1.15271">
        <ele>409.53994751</ele>
        <time>2021-10-17T11:26:58Z</time>
      </trkpt>
      <trkpt lat="43.12367" lon="1.15275">
        <ele>409.53994751</ele>
        <time>2021-10-17T11:26:59Z</time>
      </trkpt>
      <trkpt lat="43.12363" lon="1.15282">
        <ele>409.55993652</ele>
        <time>2021-10-17T11:27:00Z</time>
      </trkpt>
      <trkpt lat="43.12361" lon="1.15288">
        <ele>409.45993042</ele>
        <time>2021-10-17T11:27:01Z</time>
      </trkpt>
      <trkpt lat="43.1236" lon="1.15294">
        <ele>409.43994141</ele>
        <time>2021-10-17T11:27:02Z</time>
      </trkpt>
      <trkpt lat="43.12359" lon="1.153">
        <ele>409.44995117</ele>
        <time>2021-10-17T11:27:03Z</time>
      </trkpt>
      <trkpt lat="43.1236" lon="1.15306">
        <ele>409.45996094</ele>
        <time>2021-10-17T11:27:04Z</time>
      </trkpt>
      <trkpt lat="43.1236" lon="1.15316">
        <ele>409.59997559</ele>
        <time>2021-10-17T11:27:05Z</time>
      </trkpt>
      <trkpt lat="43.12361" lon="1.15323">
        <ele>409.73999023</ele>
        <time>2021-10-17T11:27:06Z</time>
      </trkpt>
      <trkpt lat="43.12362" lon="1.15329">
        <ele>409.91000366</ele>
        <time>2021-10-17T11:27:07Z</time>
      </trkpt>
      <trkpt lat="43.12362" lon="1.15336">
        <ele>410.08999634</ele>
        <time>2021-10-17T11:27:08Z</time>
      </trkpt>
      <trkpt lat="43.12364" lon="1.15344">
        <ele>410.23999023</ele>
        <time>2021-10-17T11:27:09Z</time>
      </trkpt>
      <trkpt lat="43.12365" lon="1.1535">
        <ele>410.38000488</ele>
        <time>2021-10-17T11:27:10Z</time>
      </trkpt>
      <trkpt lat="43.12365" lon="1.15356">
        <ele>410.55999756</ele>
        <time>2021-10-17T11:27:11Z</time>
      </trkpt>
      <trkpt lat="43.12365" lon="1.15361">
        <ele>410.69000244</ele>
        <time>2021-10-17T11:27:12Z</time>
      </trkpt>
      <trkpt lat="43.12364" lon="1.15365">
        <ele>410.86001587</ele>
        <time>2021-10-17T11:27:13Z</time>
      </trkpt>
      <trkpt lat="43.12363" lon="1.15371">
        <ele>410.86001587</ele>
        <time>2021-10-17T11:27:14Z</time>
      </trkpt>
      <trkpt lat="43.12361" lon="1.15376">
        <ele>410.95001221</ele>
        <time>2021-10-17T11:27:15Z</time>
      </trkpt>
      <trkpt lat="43.12358" lon="1.1538">
        <ele>411.09002686</ele>
        <time>2021-10-17T11:27:16Z</time>
      </trkpt>
      <trkpt lat="43.12356" lon="1.15383">
        <ele>411.18002319</ele>
        <time>2021-10-17T11:27:17Z</time>
      </trkpt>
      <trkpt lat="43.12354" lon="1.15386">
        <ele>411.41003418</ele>
        <time>2021-10-17T11:27:18Z</time>
      </trkpt>
      <trkpt lat="43.1235" lon="1.15394">
        <ele>411.4800415</ele>
        <time>2021-10-17T11:27:19Z</time>
      </trkpt>
      <trkpt lat="43.12346" lon="1.15398">
        <ele>411.51004028</ele>
        <time>2021-10-17T11:27:20Z</time>
      </trkpt>
      <trkpt lat="43.12343" lon="1.15402">
        <ele>411.46005249</ele>
        <time>2021-10-17T11:27:21Z</time>
      </trkpt>
      <trkpt lat="43.12339" lon="1.15407">
        <ele>411.42004395</ele>
        <time>2021-10-17T11:27:22Z</time>
      </trkpt>
      <trkpt lat="43.12334" lon="1.15413">
        <ele>411.37005615</ele>
        <time>2021-10-17T11:27:23Z</time>
      </trkpt>
      <trkpt lat="43.12331" lon="1.15418">
        <ele>411.30004883</ele>
        <time>2021-10-17T11:27:24Z</time>
      </trkpt>
      <trkpt lat="43.12329" lon="1.15425">
        <ele>411.30004883</ele>
        <time>2021-10-17T11:27:25Z</time>
      </trkpt>
      <trkpt lat="43.12327" lon="1.1543">
        <ele>411.27005005</ele>
        <time>2021-10-17T11:27:26Z</time>
      </trkpt>
      <trkpt lat="43.12324" lon="1.15438">
        <ele>411.32003784</ele>
        <time>2021-10-17T11:27:27Z</time>
      </trkpt>
      <trkpt lat="43.12322" lon="1.15444">
        <ele>411.41003418</ele>
        <time>2021-10-17T11:27:28Z</time>
      </trkpt>
      <trkpt lat="43.12322" lon="1.15452">
        <ele>411.47003174</ele>
        <time>2021-10-17T11:27:29Z</time>
      </trkpt>
      <trkpt lat="43.1232" lon="1.15458">
        <ele>411.55001831</ele>
        <time>2021-10-17T11:27:30Z</time>
      </trkpt>
      <trkpt lat="43.1232" lon="1.15465">
        <ele>411.59002686</ele>
        <time>2021-10-17T11:27:31Z</time>
      </trkpt>
      <trkpt lat="43.12321" lon="1.15477">
        <ele>411.5300293</ele>
        <time>2021-10-17T11:27:32Z</time>
      </trkpt>
      <trkpt lat="43.12324" lon="1.15483">
        <ele>411.41003418</ele>
        <time>2021-10-17T11:27:33Z</time>
      </trkpt>
      <trkpt lat="43.12325" lon="1.15489">
        <ele>411.29003906</ele>
        <time>2021-10-17T11:27:34Z</time>
      </trkpt>
      <trkpt lat="43.12328" lon="1.15494">
        <ele>411.30004883</ele>
        <time>2021-10-17T11:27:35Z</time>
      </trkpt>
      <trkpt lat="43.1233" lon="1.155">
        <ele>411.41003418</ele>
        <time>2021-10-17T11:27:36Z</time>
      </trkpt>
      <trkpt lat="43.12335" lon="1.15507">
        <ele>411.64004517</ele>
        <time>2021-10-17T11:27:37Z</time>
      </trkpt>
      <trkpt lat="43.12338" lon="1.1551">
        <ele>411.84005737</ele>
        <time>2021-10-17T11:27:38Z</time>
      </trkpt>
      <trkpt lat="43.12341" lon="1.15513">
        <ele>411.90005493</ele>
        <time>2021-10-17T11:27:39Z</time>
      </trkpt>
      <trkpt lat="43.12345" lon="1.15515">
        <ele>411.94006348</ele>
        <time>2021-10-17T11:27:40Z</time>
      </trkpt>
      <trkpt lat="43.12351" lon="1.1552">
        <ele>411.98007202</ele>
        <time>2021-10-17T11:27:41Z</time>
      </trkpt>
      <trkpt lat="43.12356" lon="1.15524">
        <ele>412.1600647</ele>
        <time>2021-10-17T11:27:42Z</time>
      </trkpt>
      <trkpt lat="43.1236" lon="1.15528">
        <ele>412.31005859</ele>
        <time>2021-10-17T11:27:43Z</time>
      </trkpt>
      <trkpt lat="43.12364" lon="1.15531">
        <ele>412.46005249</ele>
        <time>2021-10-17T11:27:44Z</time>
      </trkpt>
      <trkpt lat="43.1237" lon="1.15536">
        <ele>412.64004517</ele>
        <time>2021-10-17T11:27:45Z</time>
      </trkpt>
      <trkpt lat="43.12374" lon="1.1554">
        <ele>412.76004028</ele>
        <time>2021-10-17T11:27:46Z</time>
      </trkpt>
      <trkpt lat="43.12378" lon="1.15544">
        <ele>413.01004028</ele>
        <time>2021-10-17T11:27:47Z</time>
      </trkpt>
      <trkpt lat="43.12381" lon="1.15547">
        <ele>413.2300415</ele>
        <time>2021-10-17T11:27:48Z</time>
      </trkpt>
      <trkpt lat="43.12384" lon="1.15551">
        <ele>413.35003662</ele>
        <time>2021-10-17T11:27:49Z</time>
      </trkpt>
      <trkpt lat="43.12388" lon="1.15557">
        <ele>413.46002197</ele>
        <time>2021-10-17T11:27:50Z</time>
      </trkpt>
      <trkpt lat="43.12391" lon="1.15561">
        <ele>413.52001953</ele>
        <time>2021-10-17T11:27:51Z</time>
      </trkpt>
      <trkpt lat="43.12393" lon="1.15565">
        <ele>413.6000061</ele>
        <time>2021-10-17T11:27:52Z</time>
      </trkpt>
      <trkpt lat="43.12396" lon="1.15569">
        <ele>413.77001953</ele>
        <time>2021-10-17T11:27:53Z</time>
      </trkpt>
      <trkpt lat="43.124" lon="1.15575">
        <ele>413.92001343</ele>
        <time>2021-10-17T11:27:54Z</time>
      </trkpt>
      <trkpt lat="43.12403" lon="1.15579">
        <ele>414.07000732</ele>
        <time>2021-10-17T11:27:55Z</time>
      </trkpt>
      <trkpt lat="43.12405" lon="1.15583">
        <ele>414.27001953</ele>
        <time>2021-10-17T11:27:56Z</time>
      </trkpt>
      <trkpt lat="43.12408" lon="1.15587">
        <ele>414.44003296</ele>
        <time>2021-10-17T11:27:57Z</time>
      </trkpt>
      <trkpt lat="43.1241" lon="1.15591">
        <ele>414.61004639</ele>
        <time>2021-10-17T11:27:58Z</time>
      </trkpt>
      <trkpt lat="43.12415" lon="1.15596">
        <ele>414.76004028</ele>
        <time>2021-10-17T11:27:59Z</time>
      </trkpt>
      <trkpt lat="43.12418" lon="1.156">
        <ele>414.89004517</ele>
        <time>2021-10-17T11:28:00Z</time>
      </trkpt>
      <trkpt lat="43.12421" lon="1.15603">
        <ele>414.96005249</ele>
        <time>2021-10-17T11:28:01Z</time>
      </trkpt>
      <trkpt lat="43.12423" lon="1.15607">
        <ele>415.14004517</ele>
        <time>2021-10-17T11:28:02Z</time>
      </trkpt>
      <trkpt lat="43.12426" lon="1.1561">
        <ele>415.22003174</ele>
        <time>2021-10-17T11:28:03Z</time>
      </trkpt>
      <trkpt lat="43.1243" lon="1.15616">
        <ele>415.34002686</ele>
        <time>2021-10-17T11:28:04Z</time>
      </trkpt>
      <trkpt lat="43.12433" lon="1.1562">
        <ele>415.51004028</ele>
        <time>2021-10-17T11:28:05Z</time>
      </trkpt>
      <trkpt lat="43.12435" lon="1.15624">
        <ele>415.51004028</ele>
        <time>2021-10-17T11:28:06Z</time>
      </trkpt>
      <trkpt lat="43.12437" lon="1.15628">
        <ele>415.68005371</ele>
        <time>2021-10-17T11:28:07Z</time>
      </trkpt>
      <trkpt lat="43.12439" lon="1.15635">
        <ele>415.83004761</ele>
        <time>2021-10-17T11:28:08Z</time>
      </trkpt>
      <trkpt lat="43.12441" lon="1.1564">
        <ele>415.90005493</ele>
        <time>2021-10-17T11:28:09Z</time>
      </trkpt>
      <trkpt lat="43.12442" lon="1.15645">
        <ele>416.03005981</ele>
        <time>2021-10-17T11:28:10Z</time>
      </trkpt>
      <trkpt lat="43.12443" lon="1.15646">
        <ele>415.47000122</ele>
        <time>2021-10-17T11:28:10Z</time>
      </trkpt>
      <trkpt lat="43.12443" lon="1.1565">
        <ele>415.47000122</ele>
        <time>2021-10-17T11:28:11Z</time>
      </trkpt>
      <trkpt lat="43.12443" lon="1.15655">
        <ele>415.54000854</ele>
        <time>2021-10-17T11:28:12Z</time>
      </trkpt>
      <trkpt lat="43.12443" lon="1.15662">
        <ele>415.75</ele>
        <time>2021-10-17T11:28:13Z</time>
      </trkpt>
      <trkpt lat="43.12443" lon="1.15667">
        <ele>415.85998535</ele>
        <time>2021-10-17T11:28:14Z</time>
      </trkpt>
      <trkpt lat="43.12442" lon="1.15672">
        <ele>415.97998047</ele>
        <time>2021-10-17T11:28:15Z</time>
      </trkpt>
      <trkpt lat="43.12441" lon="1.15677">
        <ele>416.1499939</ele>
        <time>2021-10-17T11:28:16Z</time>
      </trkpt>
      <trkpt lat="43.1244" lon="1.15682">
        <ele>416.20999146</ele>
        <time>2021-10-17T11:28:17Z</time>
      </trkpt>
      <trkpt lat="43.12438" lon="1.1569">
        <ele>416.29998779</ele>
        <time>2021-10-17T11:28:18Z</time>
      </trkpt>
      <trkpt lat="43.12437" lon="1.15695">
        <ele>416.3999939</ele>
        <time>2021-10-17T11:28:19Z</time>
      </trkpt>
      <trkpt lat="43.12435" lon="1.15699">
        <ele>416.42999268</ele>
        <time>2021-10-17T11:28:20Z</time>
      </trkpt>
      <trkpt lat="43.12432" lon="1.15706">
        <ele>416.60998535</ele>
        <time>2021-10-17T11:28:21Z</time>
      </trkpt>
      <trkpt lat="43.1243" lon="1.1571">
        <ele>416.73999023</ele>
        <time>2021-10-17T11:28:22Z</time>
      </trkpt>
      <trkpt lat="43.12428" lon="1.15716">
        <ele>416.86999512</ele>
        <time>2021-10-17T11:28:23Z</time>
      </trkpt>
      <trkpt lat="43.12426" lon="1.1572">
        <ele>416.98999023</ele>
        <time>2021-10-17T11:28:24Z</time>
      </trkpt>
      <trkpt lat="43.12424" lon="1.15725">
        <ele>416.97998047</ele>
        <time>2021-10-17T11:28:25Z</time>
      </trkpt>
      <trkpt lat="43.12421" lon="1.15732">
        <ele>417.04998779</ele>
        <time>2021-10-17T11:28:26Z</time>
      </trkpt>
      <trkpt lat="43.12419" lon="1.15736">
        <ele>416.98999023</ele>
        <time>2021-10-17T11:28:27Z</time>
      </trkpt>
      <trkpt lat="43.12417" lon="1.15742">
        <ele>417</ele>
        <time>2021-10-17T11:28:28Z</time>
      </trkpt>
      <trkpt lat="43.12415" lon="1.15747">
        <ele>417.04000854</ele>
        <time>2021-10-17T11:28:29Z</time>
      </trkpt>
      <trkpt lat="43.12413" lon="1.15751">
        <ele>417</ele>
        <time>2021-10-17T11:28:30Z</time>
      </trkpt>
      <trkpt lat="43.12412" lon="1.15759">
        <ele>417.11999512</ele>
        <time>2021-10-17T11:28:31Z</time>
      </trkpt>
      <trkpt lat="43.12411" lon="1.15764">
        <ele>417.17999268</ele>
        <time>2021-10-17T11:28:32Z</time>
      </trkpt>
      <trkpt lat="43.12412" lon="1.1577">
        <ele>417.20999146</ele>
        <time>2021-10-17T11:28:33Z</time>
      </trkpt>
      <trkpt lat="43.12413" lon="1.15777">
        <ele>417.27999878</ele>
        <time>2021-10-17T11:28:34Z</time>
      </trkpt>
      <trkpt lat="43.12414" lon="1.15785">
        <ele>417.23999023</ele>
        <time>2021-10-17T11:28:35Z</time>
      </trkpt>
      <trkpt lat="43.12415" lon="1.15791">
        <ele>417.13998413</ele>
        <time>2021-10-17T11:28:36Z</time>
      </trkpt>
      <trkpt lat="43.12416" lon="1.15797">
        <ele>417.12997437</ele>
        <time>2021-10-17T11:28:37Z</time>
      </trkpt>
      <trkpt lat="43.12419" lon="1.15803">
        <ele>417.09997559</ele>
        <time>2021-10-17T11:28:38Z</time>
      </trkpt>
      <trkpt lat="43.1242" lon="1.15809">
        <ele>417.19998169</ele>
        <time>2021-10-17T11:28:39Z</time>
      </trkpt>
      <trkpt lat="43.12423" lon="1.15819">
        <ele>417.36999512</ele>
        <time>2021-10-17T11:28:40Z</time>
      </trkpt>
      <trkpt lat="43.12426" lon="1.15826">
        <ele>417.55999756</ele>
        <time>2021-10-17T11:28:41Z</time>
      </trkpt>
      <trkpt lat="43.12426" lon="1.15834">
        <ele>417.73999023</ele>
        <time>2021-10-17T11:28:42Z</time>
      </trkpt>
      <trkpt lat="43.12427" lon="1.15839">
        <ele>417.88998413</ele>
        <time>2021-10-17T11:28:43Z</time>
      </trkpt>
      <trkpt lat="43.12429" lon="1.15846">
        <ele>418.01998901</ele>
        <time>2021-10-17T11:28:44Z</time>
      </trkpt>
      <trkpt lat="43.12431" lon="1.15852">
        <ele>418.04998779</ele>
        <time>2021-10-17T11:28:45Z</time>
      </trkpt>
      <trkpt lat="43.12433" lon="1.15857">
        <ele>418.25</ele>
        <time>2021-10-17T11:28:46Z</time>
      </trkpt>
      <trkpt lat="43.12435" lon="1.15861">
        <ele>418.41000366</ele>
        <time>2021-10-17T11:28:47Z</time>
      </trkpt>
      <trkpt lat="43.12439" lon="1.15867">
        <ele>418.48999023</ele>
        <time>2021-10-17T11:28:48Z</time>
      </trkpt>
      <trkpt lat="43.12444" lon="1.1587">
        <ele>418.60998535</ele>
        <time>2021-10-17T11:28:49Z</time>
      </trkpt>
      <trkpt lat="43.12448" lon="1.15873">
        <ele>418.42999268</ele>
        <time>2021-10-17T11:28:50Z</time>
      </trkpt>
      <trkpt lat="43.12453" lon="1.15877">
        <ele>418.08999634</ele>
        <time>2021-10-17T11:28:51Z</time>
      </trkpt>
      <trkpt lat="43.12457" lon="1.1588">
        <ele>417.60998535</ele>
        <time>2021-10-17T11:28:52Z</time>
      </trkpt>
      <trkpt lat="43.12464" lon="1.15884">
        <ele>417.22998047</ele>
        <time>2021-10-17T11:28:53Z</time>
      </trkpt>
      <trkpt lat="43.12469" lon="1.15887">
        <ele>416.81997681</ele>
        <time>2021-10-17T11:28:54Z</time>
      </trkpt>
      <trkpt lat="43.12473" lon="1.1589">
        <ele>416.47998047</ele>
        <time>2021-10-17T11:28:55Z</time>
      </trkpt>
      <trkpt lat="43.12478" lon="1.15893">
        <ele>416.34997559</ele>
        <time>2021-10-17T11:28:56Z</time>
      </trkpt>
      <trkpt lat="43.12485" lon="1.15898">
        <ele>415.75997925</ele>
        <time>2021-10-17T11:28:57Z</time>
      </trkpt>
      <trkpt lat="43.1249" lon="1.15899">
        <ele>415.19998169</ele>
        <time>2021-10-17T11:28:58Z</time>
      </trkpt>
      <trkpt lat="43.12496" lon="1.15902">
        <ele>414.29998779</ele>
        <time>2021-10-17T11:28:59Z</time>
      </trkpt>
      <trkpt lat="43.12502" lon="1.15905">
        <ele>413.20999146</ele>
        <time>2021-10-17T11:29:00Z</time>
      </trkpt>
      <trkpt lat="43.12506" lon="1.15907">
        <ele>412.17999268</ele>
        <time>2021-10-17T11:29:01Z</time>
      </trkpt>
      <trkpt lat="43.12514" lon="1.15912">
        <ele>411.51998901</ele>
        <time>2021-10-17T11:29:02Z</time>
      </trkpt>
      <trkpt lat="43.12519" lon="1.15916">
        <ele>411.03997803</ele>
        <time>2021-10-17T11:29:03Z</time>
      </trkpt>
      <trkpt lat="43.12524" lon="1.1592">
        <ele>410.64996338</ele>
        <time>2021-10-17T11:29:04Z</time>
      </trkpt>
      <trkpt lat="43.12529" lon="1.15924">
        <ele>410.54995728</ele>
        <time>2021-10-17T11:29:05Z</time>
      </trkpt>
      <trkpt lat="43.12534" lon="1.15927">
        <ele>410.19995117</ele>
        <time>2021-10-17T11:29:06Z</time>
      </trkpt>
      <trkpt lat="43.12541" lon="1.15931">
        <ele>410.18994141</ele>
        <time>2021-10-17T11:29:07Z</time>
      </trkpt>
      <trkpt lat="43.12546" lon="1.15932">
        <ele>410.37994385</ele>
        <time>2021-10-17T11:29:08Z</time>
      </trkpt>
      <trkpt lat="43.12549" lon="1.1593">
        <ele>410.54995728</ele>
        <time>2021-10-17T11:29:09Z</time>
      </trkpt>
      <trkpt lat="43.12551" lon="1.15928">
        <ele>410.77996826</ele>
        <time>2021-10-17T11:29:10Z</time>
      </trkpt>
      <trkpt lat="43.12554" lon="1.15925">
        <ele>410.92996216</ele>
        <time>2021-10-17T11:29:11Z</time>
      </trkpt>
      <trkpt lat="43.12556" lon="1.15923">
        <ele>410.98995972</ele>
        <time>2021-10-17T11:29:12Z</time>
      </trkpt>
      <trkpt lat="43.12559" lon="1.1592">
        <ele>411.12997437</ele>
        <time>2021-10-17T11:29:13Z</time>
      </trkpt>
      <trkpt lat="43.12562" lon="1.15917">
        <ele>411.34997559</ele>
        <time>2021-10-17T11:29:14Z</time>
      </trkpt>
      <trkpt lat="43.12564" lon="1.15914">
        <ele>411.57998657</ele>
        <time>2021-10-17T11:29:15Z</time>
      </trkpt>
      <trkpt lat="43.12569" lon="1.15907">
        <ele>411.66998291</ele>
        <time>2021-10-17T11:29:16Z</time>
      </trkpt>
      <trkpt lat="43.12572" lon="1.15904">
        <ele>411.78997803</ele>
        <time>2021-10-17T11:29:17Z</time>
      </trkpt>
      <trkpt lat="43.12576" lon="1.159">
        <ele>411.78997803</ele>
        <time>2021-10-17T11:29:18Z</time>
      </trkpt>
      <trkpt lat="43.12579" lon="1.15896">
        <ele>411.76998901</ele>
        <time>2021-10-17T11:29:19Z</time>
      </trkpt>
      <trkpt lat="43.12585" lon="1.15889">
        <ele>411.94998169</ele>
        <time>2021-10-17T11:29:20Z</time>
      </trkpt>
      <trkpt lat="43.12589" lon="1.15885">
        <ele>412.13998413</ele>
        <time>2021-10-17T11:29:21Z</time>
      </trkpt>
      <trkpt lat="43.12593" lon="1.15881">
        <ele>412.28997803</ele>
        <time>2021-10-17T11:29:22Z</time>
      </trkpt>
      <trkpt lat="43.12596" lon="1.15877">
        <ele>412.51998901</ele>
        <time>2021-10-17T11:29:23Z</time>
      </trkpt>
      <trkpt lat="43.126" lon="1.15873">
        <ele>412.66998291</ele>
        <time>2021-10-17T11:29:24Z</time>
      </trkpt>
      <trkpt lat="43.12605" lon="1.15868">
        <ele>412.80999756</ele>
        <time>2021-10-17T11:29:25Z</time>
      </trkpt>
      <trkpt lat="43.12609" lon="1.15864">
        <ele>413.01000977</ele>
        <time>2021-10-17T11:29:26Z</time>
      </trkpt>
      <trkpt lat="43.12613" lon="1.1586">
        <ele>413.04000854</ele>
        <time>2021-10-17T11:29:27Z</time>
      </trkpt>
      <trkpt lat="43.12616" lon="1.15857">
        <ele>413.11001587</ele>
        <time>2021-10-17T11:29:28Z</time>
      </trkpt>
      <trkpt lat="43.12622" lon="1.15851">
        <ele>413.13000488</ele>
        <time>2021-10-17T11:29:29Z</time>
      </trkpt>
      <trkpt lat="43.12625" lon="1.15848">
        <ele>413.22000122</ele>
        <time>2021-10-17T11:29:30Z</time>
      </trkpt>
      <trkpt lat="43.12629" lon="1.15845">
        <ele>413.36001587</ele>
        <time>2021-10-17T11:29:31Z</time>
      </trkpt>
      <trkpt lat="43.12632" lon="1.15841">
        <ele>413.36001587</ele>
        <time>2021-10-17T11:29:32Z</time>
      </trkpt>
      <trkpt lat="43.12635" lon="1.15838">
        <ele>413.31002808</ele>
        <time>2021-10-17T11:29:33Z</time>
      </trkpt>
      <trkpt lat="43.1264" lon="1.15833">
        <ele>413.22003174</ele>
        <time>2021-10-17T11:29:34Z</time>
      </trkpt>
      <trkpt lat="43.12643" lon="1.1583">
        <ele>413.21002197</ele>
        <time>2021-10-17T11:29:35Z</time>
      </trkpt>
      <trkpt lat="43.12646" lon="1.15827">
        <ele>413.44003296</ele>
        <time>2021-10-17T11:29:36Z</time>
      </trkpt>
      <trkpt lat="43.12648" lon="1.15824">
        <ele>413.6300354</ele>
        <time>2021-10-17T11:29:37Z</time>
      </trkpt>
      <trkpt lat="43.12652" lon="1.15819">
        <ele>413.86004639</ele>
        <time>2021-10-17T11:29:38Z</time>
      </trkpt>
      <trkpt lat="43.12655" lon="1.15815">
        <ele>413.87005615</ele>
        <time>2021-10-17T11:29:39Z</time>
      </trkpt>
      <trkpt lat="43.12657" lon="1.15812">
        <ele>413.68005371</ele>
        <time>2021-10-17T11:29:40Z</time>
      </trkpt>
      <trkpt lat="43.1266" lon="1.15809">
        <ele>413.44006348</ele>
        <time>2021-10-17T11:29:41Z</time>
      </trkpt>
      <trkpt lat="43.12663" lon="1.15806">
        <ele>413.21005249</ele>
        <time>2021-10-17T11:29:42Z</time>
      </trkpt>
      <trkpt lat="43.12668" lon="1.15802">
        <ele>413.18005371</ele>
        <time>2021-10-17T11:29:43Z</time>
      </trkpt>
      <trkpt lat="43.12671" lon="1.15799">
        <ele>413.09005737</ele>
        <time>2021-10-17T11:29:44Z</time>
      </trkpt>
      <trkpt lat="43.12675" lon="1.15796">
        <ele>413.14004517</ele>
        <time>2021-10-17T11:29:45Z</time>
      </trkpt>
      <trkpt lat="43.12678" lon="1.15794">
        <ele>413.15005493</ele>
        <time>2021-10-17T11:29:46Z</time>
      </trkpt>
      <trkpt lat="43.12682" lon="1.15789">
        <ele>413.08004761</ele>
        <time>2021-10-17T11:29:47Z</time>
      </trkpt>
      <trkpt lat="43.12685" lon="1.15786">
        <ele>413.08004761</ele>
        <time>2021-10-17T11:29:48Z</time>
      </trkpt>
      <trkpt lat="43.12687" lon="1.15782">
        <ele>413.07003784</ele>
        <time>2021-10-17T11:29:49Z</time>
      </trkpt>
      <trkpt lat="43.12687" lon="1.15778">
        <ele>413.16003418</ele>
        <time>2021-10-17T11:29:50Z</time>
      </trkpt>
      <trkpt lat="43.12689" lon="1.1577">
        <ele>413.2800293</ele>
        <time>2021-10-17T11:29:51Z</time>
      </trkpt>
      <trkpt lat="43.1269" lon="1.15766">
        <ele>413.50003052</ele>
        <time>2021-10-17T11:29:52Z</time>
      </trkpt>
      <trkpt lat="43.12691" lon="1.15762">
        <ele>413.76004028</ele>
        <time>2021-10-17T11:29:53Z</time>
      </trkpt>
      <trkpt lat="43.12693" lon="1.15756">
        <ele>413.86004639</ele>
        <time>2021-10-17T11:29:54Z</time>
      </trkpt>
      <trkpt lat="43.12695" lon="1.15752">
        <ele>413.86004639</ele>
        <time>2021-10-17T11:29:55Z</time>
      </trkpt>
      <trkpt lat="43.12697" lon="1.15746">
        <ele>413.83004761</ele>
        <time>2021-10-17T11:29:56Z</time>
      </trkpt>
      <trkpt lat="43.12699" lon="1.15742">
        <ele>413.72006226</ele>
        <time>2021-10-17T11:29:57Z</time>
      </trkpt>
      <trkpt lat="43.12701" lon="1.15739">
        <ele>413.54006958</ele>
        <time>2021-10-17T11:29:58Z</time>
      </trkpt>
      <trkpt lat="43.12704" lon="1.15736">
        <ele>413.53005981</ele>
        <time>2021-10-17T11:29:59Z</time>
      </trkpt>
      <trkpt lat="43.12708" lon="1.15731">
        <ele>413.39004517</ele>
        <time>2021-10-17T11:30:00Z</time>
      </trkpt>
      <trkpt lat="43.12711" lon="1.15727">
        <ele>413.29003906</ele>
        <time>2021-10-17T11:30:01Z</time>
      </trkpt>
      <trkpt lat="43.12717" lon="1.15723">
        <ele>413.20004272</ele>
        <time>2021-10-17T11:30:02Z</time>
      </trkpt>
      <trkpt lat="43.12721" lon="1.15719">
        <ele>412.93005371</ele>
        <time>2021-10-17T11:30:03Z</time>
      </trkpt>
      <trkpt lat="43.12725" lon="1.15714">
        <ele>412.62005615</ele>
        <time>2021-10-17T11:30:04Z</time>
      </trkpt>
      <trkpt lat="43.12732" lon="1.15706">
        <ele>412.24005127</ele>
        <time>2021-10-17T11:30:05Z</time>
      </trkpt>
      <trkpt lat="43.12736" lon="1.157">
        <ele>411.96005249</ele>
        <time>2021-10-17T11:30:06Z</time>
      </trkpt>
      <trkpt lat="43.12739" lon="1.15695">
        <ele>411.6600647</ele>
        <time>2021-10-17T11:30:07Z</time>
      </trkpt>
      <trkpt lat="43.12743" lon="1.1569">
        <ele>411.52005005</ele>
        <time>2021-10-17T11:30:08Z</time>
      </trkpt>
      <trkpt lat="43.1275" lon="1.15682">
        <ele>411.10003662</ele>
        <time>2021-10-17T11:30:09Z</time>
      </trkpt>
      <trkpt lat="43.12754" lon="1.15677">
        <ele>410.49005127</ele>
        <time>2021-10-17T11:30:10Z</time>
      </trkpt>
      <trkpt lat="43.12758" lon="1.15672">
        <ele>410.00006104</ele>
        <time>2021-10-17T11:30:11Z</time>
      </trkpt>
      <trkpt lat="43.12761" lon="1.15668">
        <ele>409.31005859</ele>
        <time>2021-10-17T11:30:12Z</time>
      </trkpt>
      <trkpt lat="43.12765" lon="1.15665">
        <ele>408.74005127</ele>
        <time>2021-10-17T11:30:13Z</time>
      </trkpt>
      <trkpt lat="43.12771" lon="1.15663">
        <ele>408.1600647</ele>
        <time>2021-10-17T11:30:14Z</time>
      </trkpt>
      <trkpt lat="43.12776" lon="1.15662">
        <ele>407.28005981</ele>
        <time>2021-10-17T11:30:15Z</time>
      </trkpt>
      <trkpt lat="43.12781" lon="1.15661">
        <ele>406.37005615</ele>
        <time>2021-10-17T11:30:16Z</time>
      </trkpt>
      <trkpt lat="43.12786" lon="1.15659">
        <ele>405.53005981</ele>
        <time>2021-10-17T11:30:17Z</time>
      </trkpt>
      <trkpt lat="43.1279" lon="1.15657">
        <ele>404.74005127</ele>
        <time>2021-10-17T11:30:18Z</time>
      </trkpt>
      <trkpt lat="43.12796" lon="1.15653">
        <ele>404.09005737</ele>
        <time>2021-10-17T11:30:19Z</time>
      </trkpt>
      <trkpt lat="43.12801" lon="1.15651">
        <ele>403.64004517</ele>
        <time>2021-10-17T11:30:20Z</time>
      </trkpt>
      <trkpt lat="43.12805" lon="1.15649">
        <ele>403.30004883</ele>
        <time>2021-10-17T11:30:21Z</time>
      </trkpt>
      <trkpt lat="43.12809" lon="1.15648">
        <ele>403.10003662</ele>
        <time>2021-10-17T11:30:22Z</time>
      </trkpt>
      <trkpt lat="43.12815" lon="1.1565">
        <ele>402.97003174</ele>
        <time>2021-10-17T11:30:23Z</time>
      </trkpt>
      <trkpt lat="43.12818" lon="1.15652">
        <ele>402.94003296</ele>
        <time>2021-10-17T11:30:24Z</time>
      </trkpt>
      <trkpt lat="43.12819" lon="1.15655">
        <ele>402.87002563</ele>
        <time>2021-10-17T11:30:25Z</time>
      </trkpt>
      <trkpt lat="43.12822" lon="1.15657">
        <ele>402.56002808</ele>
        <time>2021-10-17T11:30:26Z</time>
      </trkpt>
      <trkpt lat="43.12824" lon="1.1566">
        <ele>401.7800293</ele>
        <time>2021-10-17T11:30:27Z</time>
      </trkpt>
      <trkpt lat="43.12827" lon="1.15665">
        <ele>400.80001831</ele>
        <time>2021-10-17T11:30:28Z</time>
      </trkpt>
      <trkpt lat="43.12831" lon="1.15668">
        <ele>399.77001953</ele>
        <time>2021-10-17T11:30:29Z</time>
      </trkpt>
      <trkpt lat="43.12835" lon="1.15669">
        <ele>398.84002686</ele>
        <time>2021-10-17T11:30:30Z</time>
      </trkpt>
      <trkpt lat="43.12838" lon="1.15667">
        <ele>398.08001709</ele>
        <time>2021-10-17T11:30:31Z</time>
      </trkpt>
      <trkpt lat="43.12843" lon="1.15665">
        <ele>397.47003174</ele>
        <time>2021-10-17T11:30:32Z</time>
      </trkpt>
      <trkpt lat="43.12846" lon="1.15664">
        <ele>397.02001953</ele>
        <time>2021-10-17T11:30:33Z</time>
      </trkpt>
      <trkpt lat="43.12848" lon="1.15664">
        <ele>396.57000732</ele>
        <time>2021-10-17T11:30:34Z</time>
      </trkpt>
      <trkpt lat="43.1285" lon="1.15663">
        <ele>396.21002197</ele>
        <time>2021-10-17T11:30:35Z</time>
      </trkpt>
      <trkpt lat="43.12854" lon="1.15661">
        <ele>395.87002563</ele>
        <time>2021-10-17T11:30:36Z</time>
      </trkpt>
      <trkpt lat="43.12857" lon="1.15661">
        <ele>395.44003296</ele>
        <time>2021-10-17T11:30:37Z</time>
      </trkpt>
      <trkpt lat="43.1286" lon="1.15659">
        <ele>394.95004272</ele>
        <time>2021-10-17T11:30:38Z</time>
      </trkpt>
      <trkpt lat="43.12864" lon="1.15656">
        <ele>394.68005371</ele>
        <time>2021-10-17T11:30:39Z</time>
      </trkpt>
      <trkpt lat="43.12869" lon="1.15653">
        <ele>394.10006714</ele>
        <time>2021-10-17T11:30:40Z</time>
      </trkpt>
      <trkpt lat="43.12874" lon="1.15645">
        <ele>393.47006226</ele>
        <time>2021-10-17T11:30:41Z</time>
      </trkpt>
      <trkpt lat="43.12879" lon="1.1564">
        <ele>392.90005493</ele>
        <time>2021-10-17T11:30:42Z</time>
      </trkpt>
      <trkpt lat="43.12884" lon="1.15635">
        <ele>391.90005493</ele>
        <time>2021-10-17T11:30:43Z</time>
      </trkpt>
      <trkpt lat="43.12887" lon="1.1563">
        <ele>391.00006104</ele>
        <time>2021-10-17T11:30:44Z</time>
      </trkpt>
      <trkpt lat="43.12893" lon="1.15625">
        <ele>390.29006958</ele>
        <time>2021-10-17T11:30:45Z</time>
      </trkpt>
      <trkpt lat="43.12898" lon="1.15624">
        <ele>389.56005859</ele>
        <time>2021-10-17T11:30:46Z</time>
      </trkpt>
      <trkpt lat="43.12901" lon="1.1562">
        <ele>389.21005249</ele>
        <time>2021-10-17T11:30:47Z</time>
      </trkpt>
      <trkpt lat="43.12905" lon="1.15617">
        <ele>389.03005981</ele>
        <time>2021-10-17T11:30:48Z</time>
      </trkpt>
      <trkpt lat="43.12909" lon="1.15613">
        <ele>388.71005249</ele>
        <time>2021-10-17T11:30:49Z</time>
      </trkpt>
      <trkpt lat="43.12914" lon="1.15609">
        <ele>388.35006714</ele>
        <time>2021-10-17T11:30:50Z</time>
      </trkpt>
      <trkpt lat="43.12918" lon="1.15607">
        <ele>387.77008057</ele>
        <time>2021-10-17T11:30:51Z</time>
      </trkpt>
      <trkpt lat="43.12921" lon="1.15604">
        <ele>387.05007935</ele>
        <time>2021-10-17T11:30:52Z</time>
      </trkpt>
      <trkpt lat="43.12925" lon="1.15599">
        <ele>385.95007324</ele>
        <time>2021-10-17T11:30:53Z</time>
      </trkpt>
      <trkpt lat="43.12931" lon="1.15594">
        <ele>384.93008423</ele>
        <time>2021-10-17T11:30:54Z</time>
      </trkpt>
      <trkpt lat="43.12936" lon="1.15587">
        <ele>384.16009521</ele>
        <time>2021-10-17T11:30:55Z</time>
      </trkpt>
      <trkpt lat="43.1294" lon="1.15583">
        <ele>383.44009399</ele>
        <time>2021-10-17T11:30:56Z</time>
      </trkpt>
      <trkpt lat="43.12943" lon="1.15579">
        <ele>383.15008545</ele>
        <time>2021-10-17T11:30:57Z</time>
      </trkpt>
      <trkpt lat="43.12947" lon="1.15577">
        <ele>382.78009033</ele>
        <time>2021-10-17T11:30:58Z</time>
      </trkpt>
      <trkpt lat="43.12953" lon="1.15569">
        <ele>382.2901001</ele>
        <time>2021-10-17T11:30:59Z</time>
      </trkpt>
      <trkpt lat="43.12957" lon="1.15563">
        <ele>381.86010742</ele>
        <time>2021-10-17T11:31:00Z</time>
      </trkpt>
      <trkpt lat="43.1296" lon="1.15556">
        <ele>381.28012085</ele>
        <time>2021-10-17T11:31:01Z</time>
      </trkpt>
      <trkpt lat="43.12964" lon="1.1555">
        <ele>380.80010986</ele>
        <time>2021-10-17T11:31:02Z</time>
      </trkpt>
      <trkpt lat="43.1297" lon="1.15538">
        <ele>380.4901123</ele>
        <time>2021-10-17T11:31:03Z</time>
      </trkpt>
      <trkpt lat="43.12972" lon="1.15531">
        <ele>380.22012329</ele>
        <time>2021-10-17T11:31:04Z</time>
      </trkpt>
      <trkpt lat="43.12975" lon="1.15524">
        <ele>379.85012817</ele>
        <time>2021-10-17T11:31:05Z</time>
      </trkpt>
      <trkpt lat="43.12979" lon="1.15516">
        <ele>379.24014282</ele>
        <time>2021-10-17T11:31:06Z</time>
      </trkpt>
      <trkpt lat="43.12982" lon="1.15509">
        <ele>378.48013306</ele>
        <time>2021-10-17T11:31:07Z</time>
      </trkpt>
      <trkpt lat="43.12987" lon="1.155">
        <ele>377.48013306</ele>
        <time>2021-10-17T11:31:08Z</time>
      </trkpt>
      <trkpt lat="43.12991" lon="1.15494">
        <ele>376.61013794</ele>
        <time>2021-10-17T11:31:09Z</time>
      </trkpt>
      <trkpt lat="43.12995" lon="1.15486">
        <ele>375.89013672</ele>
        <time>2021-10-17T11:31:10Z</time>
      </trkpt>
      <trkpt lat="43.12999" lon="1.15479">
        <ele>375.25012207</ele>
        <time>2021-10-17T11:31:11Z</time>
      </trkpt>
      <trkpt lat="43.13004" lon="1.15467">
        <ele>374.86010742</ele>
        <time>2021-10-17T11:31:12Z</time>
      </trkpt>
      <trkpt lat="43.13008" lon="1.1546">
        <ele>374.33010864</ele>
        <time>2021-10-17T11:31:13Z</time>
      </trkpt>
      <trkpt lat="43.13012" lon="1.15454">
        <ele>373.93011475</ele>
        <time>2021-10-17T11:31:14Z</time>
      </trkpt>
      <trkpt lat="43.13016" lon="1.15447">
        <ele>373.46011353</ele>
        <time>2021-10-17T11:31:15Z</time>
      </trkpt>
      <trkpt lat="43.13018" lon="1.1544">
        <ele>373.0401001</ele>
        <time>2021-10-17T11:31:16Z</time>
      </trkpt>
      <trkpt lat="43.13024" lon="1.15429">
        <ele>372.95010376</ele>
        <time>2021-10-17T11:31:17Z</time>
      </trkpt>
      <trkpt lat="43.13028" lon="1.15423">
        <ele>372.46011353</ele>
        <time>2021-10-17T11:31:18Z</time>
      </trkpt>
      <trkpt lat="43.13032" lon="1.15417">
        <ele>372.0401001</ele>
        <time>2021-10-17T11:31:19Z</time>
      </trkpt>
      <trkpt lat="43.13036" lon="1.15411">
        <ele>371.82009888</ele>
        <time>2021-10-17T11:31:20Z</time>
      </trkpt>
      <trkpt lat="43.1304" lon="1.15406">
        <ele>371.13009644</ele>
        <time>2021-10-17T11:31:21Z</time>
      </trkpt>
      <trkpt lat="43.13046" lon="1.15399">
        <ele>370.78009033</ele>
        <time>2021-10-17T11:31:22Z</time>
      </trkpt>
      <trkpt lat="43.1305" lon="1.15394">
        <ele>370.03009033</ele>
        <time>2021-10-17T11:31:23Z</time>
      </trkpt>
      <trkpt lat="43.13054" lon="1.15389">
        <ele>369.01010132</ele>
        <time>2021-10-17T11:31:24Z</time>
      </trkpt>
      <trkpt lat="43.13057" lon="1.15385">
        <ele>368.33010864</ele>
        <time>2021-10-17T11:31:25Z</time>
      </trkpt>
      <trkpt lat="43.13061" lon="1.15381">
        <ele>367.60009766</ele>
        <time>2021-10-17T11:31:26Z</time>
      </trkpt>
      <trkpt lat="43.13063" lon="1.15377">
        <ele>367.21008301</ele>
        <time>2021-10-17T11:31:27Z</time>
      </trkpt>
      <trkpt lat="43.13066" lon="1.15373">
        <ele>366.92007446</ele>
        <time>2021-10-17T11:31:28Z</time>
      </trkpt>
      <trkpt lat="43.13069" lon="1.15371">
        <ele>366.50006104</ele>
        <time>2021-10-17T11:31:29Z</time>
      </trkpt>
      <trkpt lat="43.13072" lon="1.15365">
        <ele>366.02005005</ele>
        <time>2021-10-17T11:31:30Z</time>
      </trkpt>
      <trkpt lat="43.13074" lon="1.15362">
        <ele>365.27005005</ele>
        <time>2021-10-17T11:31:31Z</time>
      </trkpt>
      <trkpt lat="43.13076" lon="1.15361">
        <ele>364.75006104</ele>
        <time>2021-10-17T11:31:32Z</time>
      </trkpt>
      <trkpt lat="43.13076" lon="1.15361">
        <ele>364.42007446</ele>
        <time>2021-10-17T11:31:33Z</time>
      </trkpt>
      <trkpt lat="43.13081" lon="1.15358">
        <ele>363.94000244</ele>
        <time>2021-10-17T11:32:05Z</time>
      </trkpt>
      <trkpt lat="43.13083" lon="1.15359">
        <ele>363.8500061</ele>
        <time>2021-10-17T11:32:06Z</time>
      </trkpt>
      <trkpt lat="43.13084" lon="1.15362">
        <ele>363.80999756</ele>
        <time>2021-10-17T11:32:07Z</time>
      </trkpt>
      <trkpt lat="43.13084" lon="1.15364">
        <ele>363.79000854</ele>
        <time>2021-10-17T11:32:08Z</time>
      </trkpt>
      <trkpt lat="43.13084" lon="1.15367">
        <ele>363.74002075</ele>
        <time>2021-10-17T11:32:09Z</time>
      </trkpt>
      <trkpt lat="43.13084" lon="1.15371">
        <ele>363.81002808</ele>
        <time>2021-10-17T11:32:10Z</time>
      </trkpt>
      <trkpt lat="43.13083" lon="1.15377">
        <ele>363.82003784</ele>
        <time>2021-10-17T11:32:11Z</time>
      </trkpt>
      <trkpt lat="43.13083" lon="1.15382">
        <ele>363.96005249</ele>
        <time>2021-10-17T11:32:12Z</time>
      </trkpt>
      <trkpt lat="43.13083" lon="1.15387">
        <ele>364.12005615</ele>
        <time>2021-10-17T11:32:13Z</time>
      </trkpt>
      <trkpt lat="43.13084" lon="1.15392">
        <ele>364.22006226</ele>
        <time>2021-10-17T11:32:14Z</time>
      </trkpt>
      <trkpt lat="43.13083" lon="1.15398">
        <ele>364.53005981</ele>
        <time>2021-10-17T11:32:15Z</time>
      </trkpt>
      <trkpt lat="43.13083" lon="1.15402">
        <ele>364.46005249</ele>
        <time>2021-10-17T11:32:16Z</time>
      </trkpt>
      <trkpt lat="43.13083" lon="1.15407">
        <ele>364.51004028</ele>
        <time>2021-10-17T11:32:17Z</time>
      </trkpt>
      <trkpt lat="43.13083" lon="1.15412">
        <ele>364.60003662</ele>
        <time>2021-10-17T11:32:18Z</time>
      </trkpt>
      <trkpt lat="43.13083" lon="1.15419">
        <ele>364.30004883</ele>
        <time>2021-10-17T11:32:19Z</time>
      </trkpt>
      <trkpt lat="43.13083" lon="1.1543">
        <ele>363.58004761</ele>
        <time>2021-10-17T11:32:20Z</time>
      </trkpt>
      <trkpt lat="43.13084" lon="1.15438">
        <ele>363.01004028</ele>
        <time>2021-10-17T11:32:21Z</time>
      </trkpt>
      <trkpt lat="43.13085" lon="1.15446">
        <ele>362.11004639</ele>
        <time>2021-10-17T11:32:22Z</time>
      </trkpt>
      <trkpt lat="43.13086" lon="1.15452">
        <ele>360.9800415</ele>
        <time>2021-10-17T11:32:23Z</time>
      </trkpt>
      <trkpt lat="43.13086" lon="1.15459">
        <ele>360.9800415</ele>
        <time>2021-10-17T11:32:24Z</time>
      </trkpt>
      <trkpt lat="43.13086" lon="1.15468">
        <ele>360.39004517</ele>
        <time>2021-10-17T11:32:25Z</time>
      </trkpt>
      <trkpt lat="43.13087" lon="1.15476">
        <ele>359.74005127</ele>
        <time>2021-10-17T11:32:26Z</time>
      </trkpt>
      <trkpt lat="43.13087" lon="1.15484">
        <ele>359.47006226</ele>
        <time>2021-10-17T11:32:27Z</time>
      </trkpt>
      <trkpt lat="43.13088" lon="1.15494">
        <ele>358.23007202</ele>
        <time>2021-10-17T11:32:28Z</time>
      </trkpt>
      <trkpt lat="43.1309" lon="1.15508">
        <ele>356.92007446</ele>
        <time>2021-10-17T11:32:29Z</time>
      </trkpt>
      <trkpt lat="43.13092" lon="1.15518">
        <ele>355.82006836</ele>
        <time>2021-10-17T11:32:30Z</time>
      </trkpt>
      <trkpt lat="43.13093" lon="1.15528">
        <ele>354.93005371</ele>
        <time>2021-10-17T11:32:31Z</time>
      </trkpt>
      <trkpt lat="43.13093" lon="1.15537">
        <ele>354.67004395</ele>
        <time>2021-10-17T11:32:32Z</time>
      </trkpt>
      <trkpt lat="43.13092" lon="1.15544">
        <ele>354.7300415</ele>
        <time>2021-10-17T11:32:33Z</time>
      </trkpt>
      <trkpt lat="43.1309" lon="1.15553">
        <ele>355.08004761</ele>
        <time>2021-10-17T11:32:34Z</time>
      </trkpt>
      <trkpt lat="43.13089" lon="1.15559">
        <ele>355.21005249</ele>
        <time>2021-10-17T11:32:35Z</time>
      </trkpt>
      <trkpt lat="43.13086" lon="1.15565">
        <ele>355.07003784</ele>
        <time>2021-10-17T11:32:36Z</time>
      </trkpt>
      <trkpt lat="43.13085" lon="1.15571">
        <ele>354.59002686</ele>
        <time>2021-10-17T11:32:37Z</time>
      </trkpt>
      <trkpt lat="43.13081" lon="1.15582">
        <ele>353.83001709</ele>
        <time>2021-10-17T11:32:38Z</time>
      </trkpt>
      <trkpt lat="43.13079" lon="1.15588">
        <ele>353.06002808</ele>
        <time>2021-10-17T11:32:39Z</time>
      </trkpt>
      <trkpt lat="43.13078" lon="1.15594">
        <ele>352.45004272</ele>
        <time>2021-10-17T11:32:40Z</time>
      </trkpt>
      <trkpt lat="43.13077" lon="1.15599">
        <ele>351.95004272</ele>
        <time>2021-10-17T11:32:41Z</time>
      </trkpt>
      <trkpt lat="43.13076" lon="1.15608">
        <ele>351.1300354</ele>
        <time>2021-10-17T11:32:42Z</time>
      </trkpt>
      <trkpt lat="43.13075" lon="1.15615">
        <ele>350.36004639</ele>
        <time>2021-10-17T11:32:43Z</time>
      </trkpt>
      <trkpt lat="43.13072" lon="1.15621">
        <ele>349.03005981</ele>
        <time>2021-10-17T11:32:44Z</time>
      </trkpt>
      <trkpt lat="43.13071" lon="1.15626">
        <ele>347.72006226</ele>
        <time>2021-10-17T11:32:45Z</time>
      </trkpt>
      <trkpt lat="43.13069" lon="1.15631">
        <ele>346.65005493</ele>
        <time>2021-10-17T11:32:46Z</time>
      </trkpt>
      <trkpt lat="43.13066" lon="1.15639">
        <ele>345.38006592</ele>
        <time>2021-10-17T11:32:47Z</time>
      </trkpt>
      <trkpt lat="43.13066" lon="1.15643">
        <ele>344.57006836</ele>
        <time>2021-10-17T11:32:48Z</time>
      </trkpt>
      <trkpt lat="43.13065" lon="1.15647">
        <ele>344.08007812</ele>
        <time>2021-10-17T11:32:49Z</time>
      </trkpt>
      <trkpt lat="43.13066" lon="1.15652">
        <ele>342.80007935</ele>
        <time>2021-10-17T11:32:50Z</time>
      </trkpt>
      <trkpt lat="43.13069" lon="1.15658">
        <ele>341.97009277</ele>
        <time>2021-10-17T11:32:51Z</time>
      </trkpt>
      <trkpt lat="43.1307" lon="1.15664">
        <ele>341.23010254</ele>
        <time>2021-10-17T11:32:52Z</time>
      </trkpt>
      <trkpt lat="43.13071" lon="1.15669">
        <ele>340.15011597</ele>
        <time>2021-10-17T11:32:53Z</time>
      </trkpt>
      <trkpt lat="43.13072" lon="1.15675">
        <ele>339.65011597</ele>
        <time>2021-10-17T11:32:54Z</time>
      </trkpt>
      <trkpt lat="43.13073" lon="1.15683">
        <ele>338.57012939</ele>
        <time>2021-10-17T11:32:55Z</time>
      </trkpt>
      <trkpt lat="43.13075" lon="1.15693">
        <ele>337.26013184</ele>
        <time>2021-10-17T11:32:56Z</time>
      </trkpt>
      <trkpt lat="43.13076" lon="1.157">
        <ele>336.20013428</ele>
        <time>2021-10-17T11:32:57Z</time>
      </trkpt>
      <trkpt lat="43.13078" lon="1.15708">
        <ele>335.25012207</ele>
        <time>2021-10-17T11:32:58Z</time>
      </trkpt>
      <trkpt lat="43.13078" lon="1.15716">
        <ele>334.63012695</ele>
        <time>2021-10-17T11:32:59Z</time>
      </trkpt>
      <trkpt lat="43.13078" lon="1.15728">
        <ele>333.9901123</ele>
        <time>2021-10-17T11:33:00Z</time>
      </trkpt>
      <trkpt lat="43.13077" lon="1.15733">
        <ele>333.21011353</ele>
        <time>2021-10-17T11:33:01Z</time>
      </trkpt>
      <trkpt lat="43.13074" lon="1.15738">
        <ele>332.56011963</ele>
        <time>2021-10-17T11:33:02Z</time>
      </trkpt>
      <trkpt lat="43.13073" lon="1.15743">
        <ele>331.65011597</ele>
        <time>2021-10-17T11:33:03Z</time>
      </trkpt>
      <trkpt lat="43.13072" lon="1.15747">
        <ele>331.19012451</ele>
        <time>2021-10-17T11:33:04Z</time>
      </trkpt>
      <trkpt lat="43.13072" lon="1.15752">
        <ele>331.00012207</ele>
        <time>2021-10-17T11:33:05Z</time>
      </trkpt>
      <trkpt lat="43.13072" lon="1.15755">
        <ele>330.65011597</ele>
        <time>2021-10-17T11:33:06Z</time>
      </trkpt>
      <trkpt lat="43.13071" lon="1.15759">
        <ele>330.62011719</ele>
        <time>2021-10-17T11:33:07Z</time>
      </trkpt>
      <trkpt lat="43.13071" lon="1.15763">
        <ele>330.16012573</ele>
        <time>2021-10-17T11:33:08Z</time>
      </trkpt>
      <trkpt lat="43.1307" lon="1.1577">
        <ele>329.48013306</ele>
        <time>2021-10-17T11:33:09Z</time>
      </trkpt>
      <trkpt lat="43.1307" lon="1.15777">
        <ele>328.87014771</ele>
        <time>2021-10-17T11:33:10Z</time>
      </trkpt>
      <trkpt lat="43.13069" lon="1.15783">
        <ele>328.03015137</ele>
        <time>2021-10-17T11:33:11Z</time>
      </trkpt>
      <trkpt lat="43.1307" lon="1.15789">
        <ele>327.49014282</ele>
        <time>2021-10-17T11:33:12Z</time>
      </trkpt>
      <trkpt lat="43.13071" lon="1.15796">
        <ele>326.90014648</ele>
        <time>2021-10-17T11:33:13Z</time>
      </trkpt>
      <trkpt lat="43.13071" lon="1.15804">
        <ele>326.51013184</ele>
        <time>2021-10-17T11:33:14Z</time>
      </trkpt>
      <trkpt lat="43.13072" lon="1.15811">
        <ele>326.01013184</ele>
        <time>2021-10-17T11:33:15Z</time>
      </trkpt>
      <trkpt lat="43.13073" lon="1.15817">
        <ele>325.41012573</ele>
        <time>2021-10-17T11:33:16Z</time>
      </trkpt>
      <trkpt lat="43.13073" lon="1.1582">
        <ele>324.76013184</ele>
        <time>2021-10-17T11:33:17Z</time>
      </trkpt>
      <trkpt lat="43.13072" lon="1.15826">
        <ele>323.9201355</ele>
        <time>2021-10-17T11:33:18Z</time>
      </trkpt>
      <trkpt lat="43.13072" lon="1.15831">
        <ele>323.13012695</ele>
        <time>2021-10-17T11:33:19Z</time>
      </trkpt>
      <trkpt lat="43.13072" lon="1.15836">
        <ele>322.23013306</ele>
        <time>2021-10-17T11:33:20Z</time>
      </trkpt>
      <trkpt lat="43.13072" lon="1.15841">
        <ele>321.44012451</ele>
        <time>2021-10-17T11:33:21Z</time>
      </trkpt>
      <trkpt lat="43.13072" lon="1.15846">
        <ele>320.51013184</ele>
        <time>2021-10-17T11:33:22Z</time>
      </trkpt>
      <trkpt lat="43.13072" lon="1.15853">
        <ele>319.87011719</ele>
        <time>2021-10-17T11:33:23Z</time>
      </trkpt>
      <trkpt lat="43.13074" lon="1.15857">
        <ele>319.05010986</ele>
        <time>2021-10-17T11:33:24Z</time>
      </trkpt>
      <trkpt lat="43.13076" lon="1.15862">
        <ele>318.36010742</ele>
        <time>2021-10-17T11:33:25Z</time>
      </trkpt>
      <trkpt lat="43.13077" lon="1.15869">
        <ele>317.50012207</ele>
        <time>2021-10-17T11:33:26Z</time>
      </trkpt>
      <trkpt lat="43.13077" lon="1.15876">
        <ele>316.30010986</ele>
        <time>2021-10-17T11:33:27Z</time>
      </trkpt>
      <trkpt lat="43.13077" lon="1.15888">
        <ele>315.22012329</ele>
        <time>2021-10-17T11:33:28Z</time>
      </trkpt>
      <trkpt lat="43.13076" lon="1.15894">
        <ele>314.03012085</ele>
        <time>2021-10-17T11:33:29Z</time>
      </trkpt>
      <trkpt lat="43.13076" lon="1.15901">
        <ele>313.1701355</ele>
        <time>2021-10-17T11:33:30Z</time>
      </trkpt>
      <trkpt lat="43.13076" lon="1.15908">
        <ele>312.41012573</ele>
        <time>2021-10-17T11:33:31Z</time>
      </trkpt>
      <trkpt lat="43.13074" lon="1.15917">
        <ele>311.52011108</ele>
        <time>2021-10-17T11:33:32Z</time>
      </trkpt>
      <trkpt lat="43.13074" lon="1.15924">
        <ele>310.51010132</ele>
        <time>2021-10-17T11:33:33Z</time>
      </trkpt>
      <trkpt lat="43.13073" lon="1.15929">
        <ele>309.55010986</ele>
        <time>2021-10-17T11:33:34Z</time>
      </trkpt>
      <trkpt lat="43.13071" lon="1.15934">
        <ele>308.59011841</ele>
        <time>2021-10-17T11:33:35Z</time>
      </trkpt>
      <trkpt lat="43.13068" lon="1.15943">
        <ele>307.85012817</ele>
        <time>2021-10-17T11:33:36Z</time>
      </trkpt>
      <trkpt lat="43.13068" lon="1.15947">
        <ele>307.49014282</ele>
        <time>2021-10-17T11:33:37Z</time>
      </trkpt>
      <trkpt lat="43.13067" lon="1.15953">
        <ele>306.88015747</ele>
        <time>2021-10-17T11:33:38Z</time>
      </trkpt>
      <trkpt lat="43.13065" lon="1.1596">
        <ele>306.40014648</ele>
        <time>2021-10-17T11:33:39Z</time>
      </trkpt>
      <trkpt lat="43.13062" lon="1.15965">
        <ele>305.97015381</ele>
        <time>2021-10-17T11:33:40Z</time>
      </trkpt>
      <trkpt lat="43.13061" lon="1.15973">
        <ele>305.33013916</ele>
        <time>2021-10-17T11:33:41Z</time>
      </trkpt>
      <trkpt lat="43.13057" lon="1.15979">
        <ele>305.04013062</ele>
        <time>2021-10-17T11:33:42Z</time>
      </trkpt>
      <trkpt lat="43.13055" lon="1.15983">
        <ele>304.88012695</ele>
        <time>2021-10-17T11:33:43Z</time>
      </trkpt>
      <trkpt lat="43.13053" lon="1.15987">
        <ele>304.86013794</ele>
        <time>2021-10-17T11:33:44Z</time>
      </trkpt>
      <trkpt lat="43.13051" lon="1.15991">
        <ele>304.91012573</ele>
        <time>2021-10-17T11:33:45Z</time>
      </trkpt>
      <trkpt lat="43.13048" lon="1.15997">
        <ele>305.04013062</ele>
        <time>2021-10-17T11:33:46Z</time>
      </trkpt>
      <trkpt lat="43.13045" lon="1.16001">
        <ele>305.22012329</ele>
        <time>2021-10-17T11:33:47Z</time>
      </trkpt>
      <trkpt lat="43.13043" lon="1.16006">
        <ele>305.30010986</ele>
        <time>2021-10-17T11:33:48Z</time>
      </trkpt>
      <trkpt lat="43.13043" lon="1.1601">
        <ele>305.36010742</ele>
        <time>2021-10-17T11:33:49Z</time>
      </trkpt>
      <trkpt lat="43.13041" lon="1.16017">
        <ele>305.43011475</ele>
        <time>2021-10-17T11:33:50Z</time>
      </trkpt>
      <trkpt lat="43.13039" lon="1.16022">
        <ele>305.44012451</ele>
        <time>2021-10-17T11:33:51Z</time>
      </trkpt>
      <trkpt lat="43.13036" lon="1.16029">
        <ele>305.69012451</ele>
        <time>2021-10-17T11:33:52Z</time>
      </trkpt>
      <trkpt lat="43.13032" lon="1.16036">
        <ele>306.01013184</ele>
        <time>2021-10-17T11:33:53Z</time>
      </trkpt>
      <trkpt lat="43.13027" lon="1.16044">
        <ele>306.04013062</ele>
        <time>2021-10-17T11:33:54Z</time>
      </trkpt>
      <trkpt lat="43.13024" lon="1.1605">
        <ele>306.23013306</ele>
        <time>2021-10-17T11:33:55Z</time>
      </trkpt>
      <trkpt lat="43.13022" lon="1.16057">
        <ele>306.28012085</ele>
        <time>2021-10-17T11:33:56Z</time>
      </trkpt>
      <trkpt lat="43.1302" lon="1.16063">
        <ele>306.30010986</ele>
        <time>2021-10-17T11:33:57Z</time>
      </trkpt>
      <trkpt lat="43.13018" lon="1.16069">
        <ele>306.60009766</ele>
        <time>2021-10-17T11:33:58Z</time>
      </trkpt>
      <trkpt lat="43.13014" lon="1.16078">
        <ele>306.6401062</ele>
        <time>2021-10-17T11:33:59Z</time>
      </trkpt>
      <trkpt lat="43.13012" lon="1.16084">
        <ele>306.7901001</ele>
        <time>2021-10-17T11:34:00Z</time>
      </trkpt>
      <trkpt lat="43.13011" lon="1.16089">
        <ele>307.00009155</ele>
        <time>2021-10-17T11:34:01Z</time>
      </trkpt>
      <trkpt lat="43.1301" lon="1.16094">
        <ele>307.05007935</ele>
        <time>2021-10-17T11:34:02Z</time>
      </trkpt>
      <trkpt lat="43.13009" lon="1.16101">
        <ele>307.29006958</ele>
        <time>2021-10-17T11:34:03Z</time>
      </trkpt>
      <trkpt lat="43.13008" lon="1.16105">
        <ele>307.29006958</ele>
        <time>2021-10-17T11:34:04Z</time>
      </trkpt>
      <trkpt lat="43.13008" lon="1.16109">
        <ele>307.14007568</ele>
        <time>2021-10-17T11:34:05Z</time>
      </trkpt>
      <trkpt lat="43.13008" lon="1.16114">
        <ele>306.97006226</ele>
        <time>2021-10-17T11:34:06Z</time>
      </trkpt>
      <trkpt lat="43.13008" lon="1.16119">
        <ele>306.6100769</ele>
        <time>2021-10-17T11:34:07Z</time>
      </trkpt>
      <trkpt lat="43.13006" lon="1.16128">
        <ele>305.9100647</ele>
        <time>2021-10-17T11:34:08Z</time>
      </trkpt>
      <trkpt lat="43.13004" lon="1.16133">
        <ele>305.34005737</ele>
        <time>2021-10-17T11:34:09Z</time>
      </trkpt>
      <trkpt lat="43.13002" lon="1.16138">
        <ele>304.81005859</ele>
        <time>2021-10-17T11:34:10Z</time>
      </trkpt>
      <trkpt lat="43.13" lon="1.16143">
        <ele>304.42004395</ele>
        <time>2021-10-17T11:34:11Z</time>
      </trkpt>
      <trkpt lat="43.12996" lon="1.16149">
        <ele>304.5300293</ele>
        <time>2021-10-17T11:34:12Z</time>
      </trkpt>
      <trkpt lat="43.12993" lon="1.16153">
        <ele>304.55001831</ele>
        <time>2021-10-17T11:34:13Z</time>
      </trkpt>
      <trkpt lat="43.12989" lon="1.16157">
        <ele>304.81002808</ele>
        <time>2021-10-17T11:34:14Z</time>
      </trkpt>
      <trkpt lat="43.12986" lon="1.16161">
        <ele>305.19003296</ele>
        <time>2021-10-17T11:34:15Z</time>
      </trkpt>
      <trkpt lat="43.12984" lon="1.16164">
        <ele>305.54003906</ele>
        <time>2021-10-17T11:34:16Z</time>
      </trkpt>
      <trkpt lat="43.12981" lon="1.16169">
        <ele>305.91003418</ele>
        <time>2021-10-17T11:34:17Z</time>
      </trkpt>
      <trkpt lat="43.12978" lon="1.16174">
        <ele>306.04003906</ele>
        <time>2021-10-17T11:34:18Z</time>
      </trkpt>
      <trkpt lat="43.12975" lon="1.16178">
        <ele>305.99005127</ele>
        <time>2021-10-17T11:34:19Z</time>
      </trkpt>
      <trkpt lat="43.12973" lon="1.16182">
        <ele>305.80004883</ele>
        <time>2021-10-17T11:34:20Z</time>
      </trkpt>
      <trkpt lat="43.12971" lon="1.16185">
        <ele>305.69006348</ele>
        <time>2021-10-17T11:34:21Z</time>
      </trkpt>
      <trkpt lat="43.12968" lon="1.1619">
        <ele>305.68005371</ele>
        <time>2021-10-17T11:34:22Z</time>
      </trkpt>
      <trkpt lat="43.12967" lon="1.16193">
        <ele>305.80004883</ele>
        <time>2021-10-17T11:34:23Z</time>
      </trkpt>
      <trkpt lat="43.12965" lon="1.16197">
        <ele>305.95004272</ele>
        <time>2021-10-17T11:34:24Z</time>
      </trkpt>
      <trkpt lat="43.12964" lon="1.162">
        <ele>306.1300354</ele>
        <time>2021-10-17T11:34:25Z</time>
      </trkpt>
      <trkpt lat="43.1296" lon="1.16209">
        <ele>306.39004517</ele>
        <time>2021-10-17T11:34:26Z</time>
      </trkpt>
      <trkpt lat="43.12957" lon="1.16213">
        <ele>306.57003784</ele>
        <time>2021-10-17T11:34:27Z</time>
      </trkpt>
      <trkpt lat="43.12955" lon="1.16218">
        <ele>306.91003418</ele>
        <time>2021-10-17T11:34:28Z</time>
      </trkpt>
      <trkpt lat="43.12953" lon="1.16221">
        <ele>307.17004395</ele>
        <time>2021-10-17T11:34:29Z</time>
      </trkpt>
      <trkpt lat="43.12952" lon="1.16224">
        <ele>307.37005615</ele>
        <time>2021-10-17T11:34:30Z</time>
      </trkpt>
      <trkpt lat="43.12952" lon="1.16229">
        <ele>307.71005249</ele>
        <time>2021-10-17T11:34:31Z</time>
      </trkpt>
      <trkpt lat="43.12949" lon="1.16234">
        <ele>307.90005493</ele>
        <time>2021-10-17T11:34:32Z</time>
      </trkpt>
      <trkpt lat="43.12947" lon="1.16239">
        <ele>308.01004028</ele>
        <time>2021-10-17T11:34:33Z</time>
      </trkpt>
      <trkpt lat="43.12944" lon="1.16244">
        <ele>308.01004028</ele>
        <time>2021-10-17T11:34:34Z</time>
      </trkpt>
      <trkpt lat="43.12941" lon="1.16252">
        <ele>307.90005493</ele>
        <time>2021-10-17T11:34:35Z</time>
      </trkpt>
      <trkpt lat="43.12939" lon="1.16258">
        <ele>307.61004639</ele>
        <time>2021-10-17T11:34:36Z</time>
      </trkpt>
      <trkpt lat="43.12937" lon="1.16264">
        <ele>307.18005371</ele>
        <time>2021-10-17T11:34:37Z</time>
      </trkpt>
      <trkpt lat="43.12934" lon="1.16272">
        <ele>306.74005127</ele>
        <time>2021-10-17T11:34:38Z</time>
      </trkpt>
      <trkpt lat="43.1293" lon="1.16283">
        <ele>306.14004517</ele>
        <time>2021-10-17T11:34:39Z</time>
      </trkpt>
      <trkpt lat="43.12927" lon="1.16289">
        <ele>305.77005005</ele>
        <time>2021-10-17T11:34:40Z</time>
      </trkpt>
      <trkpt lat="43.12925" lon="1.16295">
        <ele>305.62005615</ele>
        <time>2021-10-17T11:34:41Z</time>
      </trkpt>
      <trkpt lat="43.12921" lon="1.16301">
        <ele>305.60006714</ele>
        <time>2021-10-17T11:34:42Z</time>
      </trkpt>
      <trkpt lat="43.12918" lon="1.16308">
        <ele>305.64007568</ele>
        <time>2021-10-17T11:34:43Z</time>
      </trkpt>
      <trkpt lat="43.12913" lon="1.16318">
        <ele>305.75006104</ele>
        <time>2021-10-17T11:34:44Z</time>
      </trkpt>
      <trkpt lat="43.12912" lon="1.16322">
        <ele>305.93005371</ele>
        <time>2021-10-17T11:34:45Z</time>
      </trkpt>
      <trkpt lat="43.12909" lon="1.16328">
        <ele>306.09005737</ele>
        <time>2021-10-17T11:34:46Z</time>
      </trkpt>
      <trkpt lat="43.12907" lon="1.16335">
        <ele>306.25006104</ele>
        <time>2021-10-17T11:34:47Z</time>
      </trkpt>
      <trkpt lat="43.12906" lon="1.16338">
        <ele>306.31005859</ele>
        <time>2021-10-17T11:34:48Z</time>
      </trkpt>
      <trkpt lat="43.12905" lon="1.16343">
        <ele>306.24005127</ele>
        <time>2021-10-17T11:34:49Z</time>
      </trkpt>
      <trkpt lat="43.12902" lon="1.16348">
        <ele>306.21005249</ele>
        <time>2021-10-17T11:34:50Z</time>
      </trkpt>
      <trkpt lat="43.12902" lon="1.16351">
        <ele>306.19006348</ele>
        <time>2021-10-17T11:34:51Z</time>
      </trkpt>
      <trkpt lat="43.12901" lon="1.16353">
        <ele>306.13006592</ele>
        <time>2021-10-17T11:34:52Z</time>
      </trkpt>
      <trkpt lat="43.12899" lon="1.16358">
        <ele>306.25006104</ele>
        <time>2021-10-17T11:34:53Z</time>
      </trkpt>
      <trkpt lat="43.12899" lon="1.16362">
        <ele>306.44006348</ele>
        <time>2021-10-17T11:34:54Z</time>
      </trkpt>
      <trkpt lat="43.12899" lon="1.16364">
        <ele>306.59005737</ele>
        <time>2021-10-17T11:34:55Z</time>
      </trkpt>
      <trkpt lat="43.12896" lon="1.16367">
        <ele>306.78005981</ele>
        <time>2021-10-17T11:34:56Z</time>
      </trkpt>
      <trkpt lat="43.1289" lon="1.16375">
        <ele>306.72006226</ele>
        <time>2021-10-17T11:34:57Z</time>
      </trkpt>
      <trkpt lat="43.12885" lon="1.16382">
        <ele>306.54006958</ele>
        <time>2021-10-17T11:34:58Z</time>
      </trkpt>
      <trkpt lat="43.12884" lon="1.16386">
        <ele>306.47006226</ele>
        <time>2021-10-17T11:34:59Z</time>
      </trkpt>
      <trkpt lat="43.12881" lon="1.16391">
        <ele>306.18005371</ele>
        <time>2021-10-17T11:35:00Z</time>
      </trkpt>
      <trkpt lat="43.12879" lon="1.16395">
        <ele>305.92004395</ele>
        <time>2021-10-17T11:35:01Z</time>
      </trkpt>
      <trkpt lat="43.12877" lon="1.16402">
        <ele>305.55004883</ele>
        <time>2021-10-17T11:35:02Z</time>
      </trkpt>
      <trkpt lat="43.12873" lon="1.16406">
        <ele>305.03005981</ele>
        <time>2021-10-17T11:35:03Z</time>
      </trkpt>
      <trkpt lat="43.12873" lon="1.1641">
        <ele>304.61004639</ele>
        <time>2021-10-17T11:35:04Z</time>
      </trkpt>
      <trkpt lat="43.12873" lon="1.16414">
        <ele>304.07003784</ele>
        <time>2021-10-17T11:35:05Z</time>
      </trkpt>
      <trkpt lat="43.12872" lon="1.16422">
        <ele>303.32003784</ele>
        <time>2021-10-17T11:35:06Z</time>
      </trkpt>
      <trkpt lat="43.12872" lon="1.16428">
        <ele>302.64004517</ele>
        <time>2021-10-17T11:35:07Z</time>
      </trkpt>
      <trkpt lat="43.1287" lon="1.16434">
        <ele>302.22003174</ele>
        <time>2021-10-17T11:35:08Z</time>
      </trkpt>
      <trkpt lat="43.12867" lon="1.16438">
        <ele>302.04003906</ele>
        <time>2021-10-17T11:35:09Z</time>
      </trkpt>
      <trkpt lat="43.12863" lon="1.16445">
        <ele>302.17004395</ele>
        <time>2021-10-17T11:35:10Z</time>
      </trkpt>
      <trkpt lat="43.12861" lon="1.16455">
        <ele>302.41003418</ele>
        <time>2021-10-17T11:35:11Z</time>
      </trkpt>
      <trkpt lat="43.12859" lon="1.16466">
        <ele>302.69003296</ele>
        <time>2021-10-17T11:35:12Z</time>
      </trkpt>
      <trkpt lat="43.12858" lon="1.16472">
        <ele>303.26004028</ele>
        <time>2021-10-17T11:35:13Z</time>
      </trkpt>
      <trkpt lat="43.12858" lon="1.16475">
        <ele>303.95004272</ele>
        <time>2021-10-17T11:35:14Z</time>
      </trkpt>
      <trkpt lat="43.12858" lon="1.16481">
        <ele>304.57003784</ele>
        <time>2021-10-17T11:35:15Z</time>
      </trkpt>
      <trkpt lat="43.12851" lon="1.16492">
        <ele>305.01004028</ele>
        <time>2021-10-17T11:35:16Z</time>
      </trkpt>
      <trkpt lat="43.12847" lon="1.16498">
        <ele>305.15005493</ele>
        <time>2021-10-17T11:35:17Z</time>
      </trkpt>
      <trkpt lat="43.12845" lon="1.16504">
        <ele>305.20004272</ele>
        <time>2021-10-17T11:35:18Z</time>
      </trkpt>
      <trkpt lat="43.12841" lon="1.16511">
        <ele>305.20004272</ele>
        <time>2021-10-17T11:35:19Z</time>
      </trkpt>
      <trkpt lat="43.12834" lon="1.16521">
        <ele>305.15005493</ele>
        <time>2021-10-17T11:35:20Z</time>
      </trkpt>
      <trkpt lat="43.12831" lon="1.16527">
        <ele>305.15005493</ele>
        <time>2021-10-17T11:35:21Z</time>
      </trkpt>
      <trkpt lat="43.12829" lon="1.16532">
        <ele>305.15005493</ele>
        <time>2021-10-17T11:35:22Z</time>
      </trkpt>
      <trkpt lat="43.12827" lon="1.16537">
        <ele>305.11004639</ele>
        <time>2021-10-17T11:35:23Z</time>
      </trkpt>
      <trkpt lat="43.12823" lon="1.16544">
        <ele>305.20004272</ele>
        <time>2021-10-17T11:35:24Z</time>
      </trkpt>
      <trkpt lat="43.12819" lon="1.1655">
        <ele>305.19003296</ele>
        <time>2021-10-17T11:35:25Z</time>
      </trkpt>
      <trkpt lat="43.12816" lon="1.16553">
        <ele>305.06002808</ele>
        <time>2021-10-17T11:35:26Z</time>
      </trkpt>
      <trkpt lat="43.12813" lon="1.16556">
        <ele>304.99002075</ele>
        <time>2021-10-17T11:35:27Z</time>
      </trkpt>
      <trkpt lat="43.1281" lon="1.16561">
        <ele>304.90002441</ele>
        <time>2021-10-17T11:35:28Z</time>
      </trkpt>
      <trkpt lat="43.12806" lon="1.16568">
        <ele>304.90002441</ele>
        <time>2021-10-17T11:35:29Z</time>
      </trkpt>
      <trkpt lat="43.12803" lon="1.16573">
        <ele>305.01000977</ele>
        <time>2021-10-17T11:35:30Z</time>
      </trkpt>
      <trkpt lat="43.12799" lon="1.1658">
        <ele>305.04000854</ele>
        <time>2021-10-17T11:35:31Z</time>
      </trkpt>
      <trkpt lat="43.12796" lon="1.16587">
        <ele>305.04000854</ele>
        <time>2021-10-17T11:35:32Z</time>
      </trkpt>
      <trkpt lat="43.12792" lon="1.16595">
        <ele>304.93002319</ele>
        <time>2021-10-17T11:35:33Z</time>
      </trkpt>
      <trkpt lat="43.12789" lon="1.16601">
        <ele>304.73001099</ele>
        <time>2021-10-17T11:35:34Z</time>
      </trkpt>
      <trkpt lat="43.12785" lon="1.1661">
        <ele>304.55001831</ele>
        <time>2021-10-17T11:35:35Z</time>
      </trkpt>
      <trkpt lat="43.12781" lon="1.16619">
        <ele>304.3500061</ele>
        <time>2021-10-17T11:35:36Z</time>
      </trkpt>
      <trkpt lat="43.12777" lon="1.16626">
        <ele>304.20999146</ele>
        <time>2021-10-17T11:35:37Z</time>
      </trkpt>
      <trkpt lat="43.1277" lon="1.16637">
        <ele>304.05999756</ele>
        <time>2021-10-17T11:35:38Z</time>
      </trkpt>
      <trkpt lat="43.12767" lon="1.16645">
        <ele>303.88998413</ele>
        <time>2021-10-17T11:35:39Z</time>
      </trkpt>
      <trkpt lat="43.12764" lon="1.16653">
        <ele>303.74996948</ele>
        <time>2021-10-17T11:35:40Z</time>
      </trkpt>
      <trkpt lat="43.12761" lon="1.16659">
        <ele>303.68997192</ele>
        <time>2021-10-17T11:35:41Z</time>
      </trkpt>
      <trkpt lat="43.12758" lon="1.16668">
        <ele>303.8699646</ele>
        <time>2021-10-17T11:35:42Z</time>
      </trkpt>
      <trkpt lat="43.12757" lon="1.16674">
        <ele>304.04995728</ele>
        <time>2021-10-17T11:35:43Z</time>
      </trkpt>
      <trkpt lat="43.12756" lon="1.16681">
        <ele>304.12994385</ele>
        <time>2021-10-17T11:35:44Z</time>
      </trkpt>
      <trkpt lat="43.12753" lon="1.16687">
        <ele>304.0899353</ele>
        <time>2021-10-17T11:35:45Z</time>
      </trkpt>
      <trkpt lat="43.12749" lon="1.16695">
        <ele>303.68994141</ele>
        <time>2021-10-17T11:35:46Z</time>
      </trkpt>
      <trkpt lat="43.12745" lon="1.16706">
        <ele>303.16995239</ele>
        <time>2021-10-17T11:35:47Z</time>
      </trkpt>
      <trkpt lat="43.12742" lon="1.16713">
        <ele>302.64996338</ele>
        <time>2021-10-17T11:35:48Z</time>
      </trkpt>
      <trkpt lat="43.12737" lon="1.16725">
        <ele>302.13995361</ele>
        <time>2021-10-17T11:35:49Z</time>
      </trkpt>
      <trkpt lat="43.12732" lon="1.16736">
        <ele>301.7699585</ele>
        <time>2021-10-17T11:35:50Z</time>
      </trkpt>
      <trkpt lat="43.12728" lon="1.16744">
        <ele>301.54995728</ele>
        <time>2021-10-17T11:35:51Z</time>
      </trkpt>
      <trkpt lat="43.12723" lon="1.16755">
        <ele>301.54995728</ele>
        <time>2021-10-17T11:35:52Z</time>
      </trkpt>
      <trkpt lat="43.1272" lon="1.16761">
        <ele>301.73995972</ele>
        <time>2021-10-17T11:35:53Z</time>
      </trkpt>
      <trkpt lat="43.12717" lon="1.16766">
        <ele>302.04995728</ele>
        <time>2021-10-17T11:35:54Z</time>
      </trkpt>
      <trkpt lat="43.12714" lon="1.1677">
        <ele>302.39996338</ele>
        <time>2021-10-17T11:35:55Z</time>
      </trkpt>
      <trkpt lat="43.1271" lon="1.16779">
        <ele>302.69995117</ele>
        <time>2021-10-17T11:35:56Z</time>
      </trkpt>
      <trkpt lat="43.12708" lon="1.16784">
        <ele>302.98995972</ele>
        <time>2021-10-17T11:35:57Z</time>
      </trkpt>
      <trkpt lat="43.12707" lon="1.16787">
        <ele>303.31994629</ele>
        <time>2021-10-17T11:35:58Z</time>
      </trkpt>
      <trkpt lat="43.12705" lon="1.16791">
        <ele>303.70996094</ele>
        <time>2021-10-17T11:35:59Z</time>
      </trkpt>
      <trkpt lat="43.12703" lon="1.16799">
        <ele>304.03994751</ele>
        <time>2021-10-17T11:36:00Z</time>
      </trkpt>
      <trkpt lat="43.12701" lon="1.16806">
        <ele>304.11993408</ele>
        <time>2021-10-17T11:36:01Z</time>
      </trkpt>
      <trkpt lat="43.12698" lon="1.16812">
        <ele>304.07992554</ele>
        <time>2021-10-17T11:36:02Z</time>
      </trkpt>
      <trkpt lat="43.12696" lon="1.16818">
        <ele>303.90991211</ele>
        <time>2021-10-17T11:36:03Z</time>
      </trkpt>
      <trkpt lat="43.12694" lon="1.16824">
        <ele>303.68991089</ele>
        <time>2021-10-17T11:36:04Z</time>
      </trkpt>
      <trkpt lat="43.12691" lon="1.16832">
        <ele>303.50991821</ele>
        <time>2021-10-17T11:36:05Z</time>
      </trkpt>
      <trkpt lat="43.1269" lon="1.16837">
        <ele>303.18991089</ele>
        <time>2021-10-17T11:36:06Z</time>
      </trkpt>
      <trkpt lat="43.12689" lon="1.16842">
        <ele>302.72991943</ele>
        <time>2021-10-17T11:36:07Z</time>
      </trkpt>
      <trkpt lat="43.12689" lon="1.16845">
        <ele>302.16992188</ele>
        <time>2021-10-17T11:36:08Z</time>
      </trkpt>
      <trkpt lat="43.12689" lon="1.1685">
        <ele>301.62991333</ele>
        <time>2021-10-17T11:36:09Z</time>
      </trkpt>
      <trkpt lat="43.12688" lon="1.16855">
        <ele>301.19992065</ele>
        <time>2021-10-17T11:36:10Z</time>
      </trkpt>
      <trkpt lat="43.12688" lon="1.16861">
        <ele>300.79992676</ele>
        <time>2021-10-17T11:36:11Z</time>
      </trkpt>
      <trkpt lat="43.12688" lon="1.16866">
        <ele>300.64993286</ele>
        <time>2021-10-17T11:36:12Z</time>
      </trkpt>
      <trkpt lat="43.12686" lon="1.16871">
        <ele>300.59994507</ele>
        <time>2021-10-17T11:36:13Z</time>
      </trkpt>
      <trkpt lat="43.12685" lon="1.16876">
        <ele>300.66995239</ele>
        <time>2021-10-17T11:36:14Z</time>
      </trkpt>
      <trkpt lat="43.12684" lon="1.16881">
        <ele>300.82995605</ele>
        <time>2021-10-17T11:36:15Z</time>
      </trkpt>
      <trkpt lat="43.12683" lon="1.16886">
        <ele>300.92996216</ele>
        <time>2021-10-17T11:36:16Z</time>
      </trkpt>
      <trkpt lat="43.12679" lon="1.1689">
        <ele>300.9699707</ele>
        <time>2021-10-17T11:36:17Z</time>
      </trkpt>
      <trkpt lat="43.12672" lon="1.169">
        <ele>301.0199585</ele>
        <time>2021-10-17T11:36:18Z</time>
      </trkpt>
      <trkpt lat="43.12666" lon="1.16909">
        <ele>301.1199646</ele>
        <time>2021-10-17T11:36:19Z</time>
      </trkpt>
      <trkpt lat="43.12664" lon="1.16913">
        <ele>301.18997192</ele>
        <time>2021-10-17T11:36:20Z</time>
      </trkpt>
      <trkpt lat="43.12662" lon="1.16918">
        <ele>301.3699646</ele>
        <time>2021-10-17T11:36:21Z</time>
      </trkpt>
      <trkpt lat="43.12661" lon="1.16922">
        <ele>301.5199585</ele>
        <time>2021-10-17T11:36:22Z</time>
      </trkpt>
      <trkpt lat="43.12658" lon="1.1693">
        <ele>301.73995972</ele>
        <time>2021-10-17T11:36:23Z</time>
      </trkpt>
      <trkpt lat="43.12657" lon="1.16933">
        <ele>302.17996216</ele>
        <time>2021-10-17T11:36:24Z</time>
      </trkpt>
      <trkpt lat="43.12654" lon="1.16937">
        <ele>302.56997681</ele>
        <time>2021-10-17T11:36:25Z</time>
      </trkpt>
      <trkpt lat="43.12651" lon="1.16939">
        <ele>303.09997559</ele>
        <time>2021-10-17T11:36:26Z</time>
      </trkpt>
      <trkpt lat="43.12644" lon="1.16947">
        <ele>303.56997681</ele>
        <time>2021-10-17T11:36:27Z</time>
      </trkpt>
      <trkpt lat="43.1264" lon="1.16951">
        <ele>303.83996582</ele>
        <time>2021-10-17T11:36:28Z</time>
      </trkpt>
      <trkpt lat="43.12637" lon="1.16955">
        <ele>304.19995117</ele>
        <time>2021-10-17T11:36:29Z</time>
      </trkpt>
      <trkpt lat="43.12635" lon="1.16961">
        <ele>304.50994873</ele>
        <time>2021-10-17T11:36:30Z</time>
      </trkpt>
      <trkpt lat="43.12634" lon="1.16965">
        <ele>304.85995483</ele>
        <time>2021-10-17T11:36:31Z</time>
      </trkpt>
      <trkpt lat="43.12632" lon="1.1697">
        <ele>305.31994629</ele>
        <time>2021-10-17T11:36:32Z</time>
      </trkpt>
      <trkpt lat="43.12631" lon="1.16975">
        <ele>305.72994995</ele>
        <time>2021-10-17T11:36:33Z</time>
      </trkpt>
      <trkpt lat="43.1263" lon="1.16979">
        <ele>306.13995361</ele>
        <time>2021-10-17T11:36:34Z</time>
      </trkpt>
      <trkpt lat="43.12627" lon="1.16983">
        <ele>306.59994507</ele>
        <time>2021-10-17T11:36:35Z</time>
      </trkpt>
      <trkpt lat="43.12625" lon="1.16989">
        <ele>307.02993774</ele>
        <time>2021-10-17T11:36:36Z</time>
      </trkpt>
      <trkpt lat="43.12623" lon="1.16994">
        <ele>307.55993652</ele>
        <time>2021-10-17T11:36:37Z</time>
      </trkpt>
      <trkpt lat="43.12622" lon="1.17">
        <ele>308.01992798</ele>
        <time>2021-10-17T11:36:38Z</time>
      </trkpt>
      <trkpt lat="43.12617" lon="1.17005">
        <ele>308.49993896</ele>
        <time>2021-10-17T11:36:39Z</time>
      </trkpt>
      <trkpt lat="43.12613" lon="1.17009">
        <ele>308.95993042</ele>
        <time>2021-10-17T11:36:40Z</time>
      </trkpt>
      <trkpt lat="43.12606" lon="1.17017">
        <ele>309.36993408</ele>
        <time>2021-10-17T11:36:41Z</time>
      </trkpt>
      <trkpt lat="43.12602" lon="1.17021">
        <ele>309.78994751</ele>
        <time>2021-10-17T11:36:42Z</time>
      </trkpt>
      <trkpt lat="43.12596" lon="1.17026">
        <ele>310.0899353</ele>
        <time>2021-10-17T11:36:43Z</time>
      </trkpt>
      <trkpt lat="43.12591" lon="1.1703">
        <ele>310.34994507</ele>
        <time>2021-10-17T11:36:44Z</time>
      </trkpt>
      <trkpt lat="43.1259" lon="1.17032">
        <ele>310.17001343</ele>
        <time>2021-10-17T11:36:44Z</time>
      </trkpt>
      <trkpt lat="43.12586" lon="1.17037">
        <ele>310.17001343</ele>
        <time>2021-10-17T11:36:45Z</time>
      </trkpt>
      <trkpt lat="43.12581" lon="1.17045">
        <ele>310.40002441</ele>
        <time>2021-10-17T11:36:46Z</time>
      </trkpt>
      <trkpt lat="43.12578" lon="1.17051">
        <ele>310.51000977</ele>
        <time>2021-10-17T11:36:47Z</time>
      </trkpt>
      <trkpt lat="43.12576" lon="1.17057">
        <ele>310.55999756</ele>
        <time>2021-10-17T11:36:48Z</time>
      </trkpt>
      <trkpt lat="43.12574" lon="1.17062">
        <ele>310.6499939</ele>
        <time>2021-10-17T11:36:49Z</time>
      </trkpt>
      <trkpt lat="43.12572" lon="1.17068">
        <ele>310.66000366</ele>
        <time>2021-10-17T11:36:50Z</time>
      </trkpt>
      <trkpt lat="43.1257" lon="1.17072">
        <ele>310.6499939</ele>
        <time>2021-10-17T11:36:51Z</time>
      </trkpt>
      <trkpt lat="43.12569" lon="1.17077">
        <ele>310.63998413</ele>
        <time>2021-10-17T11:36:52Z</time>
      </trkpt>
      <trkpt lat="43.12566" lon="1.17081">
        <ele>310.62997437</ele>
        <time>2021-10-17T11:36:53Z</time>
      </trkpt>
      <trkpt lat="43.12564" lon="1.17086">
        <ele>310.57998657</ele>
        <time>2021-10-17T11:36:54Z</time>
      </trkpt>
      <trkpt lat="43.12561" lon="1.17092">
        <ele>310.52999878</ele>
        <time>2021-10-17T11:36:55Z</time>
      </trkpt>
      <trkpt lat="43.12558" lon="1.17096">
        <ele>310.42001343</ele>
        <time>2021-10-17T11:36:56Z</time>
      </trkpt>
      <trkpt lat="43.12556" lon="1.171">
        <ele>310.34002686</ele>
        <time>2021-10-17T11:36:57Z</time>
      </trkpt>
      <trkpt lat="43.12556" lon="1.17104">
        <ele>310.20001221</ele>
        <time>2021-10-17T11:36:58Z</time>
      </trkpt>
      <trkpt lat="43.12554" lon="1.17109">
        <ele>309.97000122</ele>
        <time>2021-10-17T11:36:59Z</time>
      </trkpt>
      <trkpt lat="43.1255" lon="1.17114">
        <ele>309.86001587</ele>
        <time>2021-10-17T11:37:00Z</time>
      </trkpt>
      <trkpt lat="43.12546" lon="1.17121">
        <ele>309.68002319</ele>
        <time>2021-10-17T11:37:01Z</time>
      </trkpt>
      <trkpt lat="43.12541" lon="1.1713">
        <ele>309.5300293</ele>
        <time>2021-10-17T11:37:02Z</time>
      </trkpt>
      <trkpt lat="43.12536" lon="1.17143">
        <ele>309.45004272</ele>
        <time>2021-10-17T11:37:03Z</time>
      </trkpt>
      <trkpt lat="43.12534" lon="1.1715">
        <ele>309.37005615</ele>
        <time>2021-10-17T11:37:04Z</time>
      </trkpt>
      <trkpt lat="43.12531" lon="1.17158">
        <ele>309.20004272</ele>
        <time>2021-10-17T11:37:05Z</time>
      </trkpt>
      <trkpt lat="43.12529" lon="1.17164">
        <ele>309.1300354</ele>
        <time>2021-10-17T11:37:06Z</time>
      </trkpt>
      <trkpt lat="43.12527" lon="1.1717">
        <ele>309.20004272</ele>
        <time>2021-10-17T11:37:07Z</time>
      </trkpt>
      <trkpt lat="43.12525" lon="1.17177">
        <ele>309.2300415</ele>
        <time>2021-10-17T11:37:08Z</time>
      </trkpt>
      <trkpt lat="43.12523" lon="1.17183">
        <ele>309.34002686</ele>
        <time>2021-10-17T11:37:09Z</time>
      </trkpt>
      <trkpt lat="43.12522" lon="1.17189">
        <ele>309.44003296</ele>
        <time>2021-10-17T11:37:10Z</time>
      </trkpt>
      <trkpt lat="43.12519" lon="1.17196">
        <ele>309.43002319</ele>
        <time>2021-10-17T11:37:11Z</time>
      </trkpt>
      <trkpt lat="43.12514" lon="1.17206">
        <ele>309.24002075</ele>
        <time>2021-10-17T11:37:12Z</time>
      </trkpt>
      <trkpt lat="43.12512" lon="1.17212">
        <ele>308.90002441</ele>
        <time>2021-10-17T11:37:13Z</time>
      </trkpt>
      <trkpt lat="43.12509" lon="1.17218">
        <ele>308.42001343</ele>
        <time>2021-10-17T11:37:14Z</time>
      </trkpt>
      <trkpt lat="43.12507" lon="1.17226">
        <ele>307.87002563</ele>
        <time>2021-10-17T11:37:15Z</time>
      </trkpt>
      <trkpt lat="43.12506" lon="1.17232">
        <ele>307.35003662</ele>
        <time>2021-10-17T11:37:16Z</time>
      </trkpt>
      <trkpt lat="43.12503" lon="1.17242">
        <ele>306.99005127</ele>
        <time>2021-10-17T11:37:17Z</time>
      </trkpt>
      <trkpt lat="43.12501" lon="1.17248">
        <ele>306.68005371</ele>
        <time>2021-10-17T11:37:18Z</time>
      </trkpt>
      <trkpt lat="43.125" lon="1.17254">
        <ele>306.36004639</ele>
        <time>2021-10-17T11:37:19Z</time>
      </trkpt>
      <trkpt lat="43.12495" lon="1.1726">
        <ele>306.09005737</ele>
        <time>2021-10-17T11:37:20Z</time>
      </trkpt>
      <trkpt lat="43.12491" lon="1.17268">
        <ele>305.90005493</ele>
        <time>2021-10-17T11:37:21Z</time>
      </trkpt>
      <trkpt lat="43.12485" lon="1.17279">
        <ele>305.6600647</ele>
        <time>2021-10-17T11:37:22Z</time>
      </trkpt>
      <trkpt lat="43.12481" lon="1.17286">
        <ele>305.38006592</ele>
        <time>2021-10-17T11:37:23Z</time>
      </trkpt>
      <trkpt lat="43.12478" lon="1.17294">
        <ele>305.1100769</ele>
        <time>2021-10-17T11:37:24Z</time>
      </trkpt>
      <trkpt lat="43.12474" lon="1.17303">
        <ele>304.8600769</ele>
        <time>2021-10-17T11:37:25Z</time>
      </trkpt>
      <trkpt lat="43.12469" lon="1.17314">
        <ele>304.6600647</ele>
        <time>2021-10-17T11:37:26Z</time>
      </trkpt>
      <trkpt lat="43.12466" lon="1.17322">
        <ele>304.49005127</ele>
        <time>2021-10-17T11:37:27Z</time>
      </trkpt>
      <trkpt lat="43.12463" lon="1.17331">
        <ele>304.29003906</ele>
        <time>2021-10-17T11:37:28Z</time>
      </trkpt>
      <trkpt lat="43.1246" lon="1.17339">
        <ele>303.92004395</ele>
        <time>2021-10-17T11:37:29Z</time>
      </trkpt>
      <trkpt lat="43.12456" lon="1.1735">
        <ele>303.54003906</ele>
        <time>2021-10-17T11:37:30Z</time>
      </trkpt>
      <trkpt lat="43.12453" lon="1.17358">
        <ele>303.21005249</ele>
        <time>2021-10-17T11:37:31Z</time>
      </trkpt>
      <trkpt lat="43.1245" lon="1.17365">
        <ele>302.95004272</ele>
        <time>2021-10-17T11:37:32Z</time>
      </trkpt>
      <trkpt lat="43.12449" lon="1.17372">
        <ele>302.81002808</ele>
        <time>2021-10-17T11:37:33Z</time>
      </trkpt>
      <trkpt lat="43.12448" lon="1.17378">
        <ele>302.79003906</ele>
        <time>2021-10-17T11:37:34Z</time>
      </trkpt>
      <trkpt lat="43.1245" lon="1.17387">
        <ele>302.91003418</ele>
        <time>2021-10-17T11:37:35Z</time>
      </trkpt>
      <trkpt lat="43.12452" lon="1.17393">
        <ele>303.0300293</ele>
        <time>2021-10-17T11:37:36Z</time>
      </trkpt>
      <trkpt lat="43.12455" lon="1.17398">
        <ele>303.18002319</ele>
        <time>2021-10-17T11:37:37Z</time>
      </trkpt>
      <trkpt lat="43.12458" lon="1.17402">
        <ele>303.25003052</ele>
        <time>2021-10-17T11:37:38Z</time>
      </trkpt>
      <trkpt lat="43.12461" lon="1.17406">
        <ele>303.27001953</ele>
        <time>2021-10-17T11:37:39Z</time>
      </trkpt>
      <trkpt lat="43.12466" lon="1.17411">
        <ele>303.3500061</ele>
        <time>2021-10-17T11:37:40Z</time>
      </trkpt>
      <trkpt lat="43.12469" lon="1.17415">
        <ele>303.39001465</ele>
        <time>2021-10-17T11:37:41Z</time>
      </trkpt>
      <trkpt lat="43.12473" lon="1.17418">
        <ele>303.41000366</ele>
        <time>2021-10-17T11:37:42Z</time>
      </trkpt>
      <trkpt lat="43.12476" lon="1.17421">
        <ele>303.38000488</ele>
        <time>2021-10-17T11:37:43Z</time>
      </trkpt>
      <trkpt lat="43.12481" lon="1.17425">
        <ele>303.25</ele>
        <time>2021-10-17T11:37:44Z</time>
      </trkpt>
      <trkpt lat="43.12485" lon="1.17428">
        <ele>303.08999634</ele>
        <time>2021-10-17T11:37:45Z</time>
      </trkpt>
      <trkpt lat="43.12488" lon="1.17432">
        <ele>302.95999146</ele>
        <time>2021-10-17T11:37:46Z</time>
      </trkpt>
      <trkpt lat="43.1249" lon="1.17437">
        <ele>302.66998291</ele>
        <time>2021-10-17T11:37:47Z</time>
      </trkpt>
      <trkpt lat="43.12491" lon="1.17443">
        <ele>302.37997437</ele>
        <time>2021-10-17T11:37:48Z</time>
      </trkpt>
      <trkpt lat="43.12489" lon="1.17449">
        <ele>302.24996948</ele>
        <time>2021-10-17T11:37:49Z</time>
      </trkpt>
      <trkpt lat="43.12488" lon="1.17449">
        <ele>302.14996338</ele>
        <time>2021-10-17T11:37:50Z</time>
      </trkpt>
      <trkpt lat="43.12488" lon="1.1745">
        <ele>302.38995361</ele>
        <time>2021-10-17T11:37:51Z</time>
      </trkpt>
      <trkpt lat="43.12486" lon="1.1745">
        <ele>302.56994629</ele>
        <time>2021-10-17T11:37:52Z</time>
      </trkpt>
      <trkpt lat="43.12483" lon="1.17451">
        <ele>302.56994629</ele>
        <time>2021-10-17T11:37:53Z</time>
      </trkpt>
      <trkpt lat="43.12481" lon="1.17452">
        <ele>302.50994873</ele>
        <time>2021-10-17T11:37:54Z</time>
      </trkpt>
      <trkpt lat="43.1248" lon="1.17454">
        <ele>302.28994751</ele>
        <time>2021-10-17T11:37:55Z</time>
      </trkpt>
      <trkpt lat="43.12479" lon="1.17455">
        <ele>302.23995972</ele>
        <time>2021-10-17T11:37:56Z</time>
      </trkpt>
      <trkpt lat="43.12477" lon="1.17455">
        <ele>302.15997314</ele>
        <time>2021-10-17T11:37:57Z</time>
      </trkpt>
      <trkpt lat="43.12476" lon="1.17455">
        <ele>302.13998413</ele>
        <time>2021-10-17T11:37:58Z</time>
      </trkpt>
      <trkpt lat="43.12476" lon="1.17454">
        <ele>302.12997437</ele>
        <time>2021-10-17T11:37:59Z</time>
      </trkpt>
      <trkpt lat="43.12476" lon="1.17453">
        <ele>302.10998535</ele>
        <time>2021-10-17T11:38:00Z</time>
      </trkpt>
      <trkpt lat="43.12476" lon="1.17452">
        <ele>302.16998291</ele>
        <time>2021-10-17T11:38:01Z</time>
      </trkpt>
      <trkpt lat="43.12476" lon="1.17451">
        <ele>302.19998169</ele>
        <time>2021-10-17T11:38:02Z</time>
      </trkpt>
    </trkseg>
  </trk>
</gpx>